<?xml version='1.0' encoding='UTF-8'?><gpx version="1.1" creator="JPX - https://github.com/jenetics/jpx" xmlns="http://www.topografix.com/GPX/1/1"><trk><trkseg><trkpt lat="45.40220651872239" lon="10.585274986177772"><ele>95.5</ele><time>2026-04-02T08:40:41Z</time></trkpt><trkpt lat="45.402154015567305" lon="10.585472479562469"><ele>96.0</ele><time>2026-04-02T08:40:43Z</time></trkpt><trkpt lat="45.40211587336619" lon="10.585614532182955"><ele>96.5</ele><time>2026-04-02T08:40:44Z</time></trkpt><trkpt lat="45.40208858103374" lon="10.585794605289918"><ele>97.0</ele><time>2026-04-02T08:40:45Z</time></trkpt><trkpt lat="45.4020378082535" lon="10.58599138795412"><ele>96.66666666666667</ele><time>2026-04-02T08:40:46Z</time></trkpt><trkpt lat="45.40198510676616" lon="10.586187974981579"><ele>96.33333333333334</ele><time>2026-04-02T08:40:47Z</time></trkpt><trkpt lat="45.40192223495108" lon="10.586422499000344"><ele>96.0</ele><time>2026-04-02T08:40:48Z</time></trkpt><trkpt lat="45.401867251567694" lon="10.586628476697074"><ele>96.0</ele><time>2026-04-02T08:40:49Z</time></trkpt><trkpt lat="45.401796443316506" lon="10.586835039312346"><ele>96.0</ele><time>2026-04-02T08:40:50Z</time></trkpt><trkpt lat="45.40174910904397" lon="10.587086641714182"><ele>96.0</ele><time>2026-04-02T08:40:51Z</time></trkpt><trkpt lat="45.401690776231725" lon="10.587361953583683"><ele>96.0</ele><time>2026-04-02T08:40:52Z</time></trkpt><trkpt lat="45.40162816173613" lon="10.587600051484886"><ele>96.0</ele><time>2026-04-02T08:40:53Z</time></trkpt><trkpt lat="45.40156706693857" lon="10.587827534079569"><ele>96.0</ele><time>2026-04-02T08:40:54Z</time></trkpt><trkpt lat="45.4015087547155" lon="10.588035090579993"><ele>96.0</ele><time>2026-04-02T08:40:55Z</time></trkpt><trkpt lat="45.401450679397136" lon="10.588242454707425"><ele>96.0</ele><time>2026-04-02T08:40:56Z</time></trkpt><trkpt lat="45.401390332080126" lon="10.588449944724209"><ele>96.0</ele><time>2026-04-02T08:40:57Z</time></trkpt><trkpt lat="45.401334898824366" lon="10.588649038797803"><ele>96.75</ele><time>2026-04-02T08:40:58Z</time></trkpt><trkpt lat="45.401279351892576" lon="10.58884176171283"><ele>97.5</ele><time>2026-04-02T08:40:59Z</time></trkpt><trkpt lat="45.40122709765268" lon="10.589027251464676"><ele>98.25</ele><time>2026-04-02T08:41:00Z</time></trkpt><trkpt lat="45.4011787776077" lon="10.58921604447427"><ele>99.0</ele><time>2026-04-02T08:41:01Z</time></trkpt><trkpt lat="45.40112786470336" lon="10.58940089749432"><ele>99.0</ele><time>2026-04-02T08:41:02Z</time></trkpt><trkpt lat="45.401071319562426" lon="10.58959082949283"><ele>99.0</ele><time>2026-04-02T08:41:03Z</time></trkpt><trkpt lat="45.40101258305218" lon="10.589770058069476"><ele>99.0</ele><time>2026-04-02T08:41:04Z</time></trkpt><trkpt lat="45.400922989252" lon="10.589890114442833"><ele>99.0</ele><time>2026-04-02T08:41:05Z</time></trkpt><trkpt lat="45.40082985769897" lon="10.589985427386784"><ele>99.0</ele><time>2026-04-02T08:41:06Z</time></trkpt><trkpt lat="45.400717460326845" lon="10.590121005958652"><ele>99.0</ele><time>2026-04-02T08:41:07Z</time></trkpt><trkpt lat="45.4006089851958" lon="10.590282129343263"><ele>99.0</ele><time>2026-04-02T08:41:08Z</time></trkpt><trkpt lat="45.40053477441634" lon="10.590466468570524"><ele>100.75</ele><time>2026-04-02T08:41:09Z</time></trkpt><trkpt lat="45.400435972678466" lon="10.590650241405287"><ele>102.5</ele><time>2026-04-02T08:41:10Z</time></trkpt><trkpt lat="45.40035783051079" lon="10.590805990111477"><ele>104.25</ele><time>2026-04-02T08:41:11Z</time></trkpt><trkpt lat="45.400305383154" lon="10.590930861790383"><ele>106.0</ele><time>2026-04-02T08:41:11.999Z</time></trkpt><trkpt lat="45.40026454209855" lon="10.591034485195518"><ele>106.0</ele><time>2026-04-02T08:41:12.999Z</time></trkpt><trkpt lat="45.400212282557014" lon="10.591174709212968"><ele>106.0</ele><time>2026-04-02T08:41:14.999Z</time></trkpt><trkpt lat="45.400170292012795" lon="10.591247113855212"><ele>106.0</ele><time>2026-04-02T08:41:16.999Z</time></trkpt><trkpt lat="45.399866281368986" lon="10.591104838192395"><ele>106.0</ele><time>2026-04-02T08:41:18.999Z</time></trkpt><trkpt lat="45.39973499099948" lon="10.591051214347246"><ele>106.0</ele><time>2026-04-02T08:41:19.999Z</time></trkpt><trkpt lat="45.39961115498252" lon="10.59099198510878"><ele>106.0</ele><time>2026-04-02T08:41:20.999Z</time></trkpt><trkpt lat="45.39950065454794" lon="10.590936407855068"><ele>106.0</ele><time>2026-04-02T08:41:21.999Z</time></trkpt><trkpt lat="45.39940200410062" lon="10.590889786684961"><ele>106.8</ele><time>2026-04-02T08:41:22.999Z</time></trkpt><trkpt lat="45.39930753799087" lon="10.590860634590687"><ele>107.6</ele><time>2026-04-02T08:41:24.999Z</time></trkpt><trkpt lat="45.39926392950106" lon="10.59093320872601"><ele>108.4</ele><time>2026-04-02T08:41:27.999Z</time></trkpt><trkpt lat="45.39925240985524" lon="10.591104807219658"><ele>109.2</ele><time>2026-04-02T08:41:29.999Z</time></trkpt><trkpt lat="45.39927557272468" lon="10.591241668176709"><ele>110.0</ele><time>2026-04-02T08:41:30.999Z</time></trkpt><trkpt lat="45.39930472282662" lon="10.591425621142792"><ele>111.0</ele><time>2026-04-02T08:41:31.999Z</time></trkpt><trkpt lat="45.399333462171235" lon="10.591660674975884"><ele>112.0</ele><time>2026-04-02T08:41:32.999Z</time></trkpt><trkpt lat="45.39936244817758" lon="10.591864395633388"><ele>113.0</ele><time>2026-04-02T08:41:33.999Z</time></trkpt><trkpt lat="45.399382640109124" lon="10.59204211841873"><ele>114.0</ele><time>2026-04-02T08:41:34.999Z</time></trkpt><trkpt lat="45.39939548588408" lon="10.592225084053466"><ele>114.25</ele><time>2026-04-02T08:41:35.999Z</time></trkpt><trkpt lat="45.39940254123494" lon="10.592415564237712"><ele>114.5</ele><time>2026-04-02T08:41:36.999Z</time></trkpt><trkpt lat="45.39940085791782" lon="10.592627607613096"><ele>114.75</ele><time>2026-04-02T08:41:37.999Z</time></trkpt><trkpt lat="45.39939205056699" lon="10.592835956459535"><ele>115.0</ele><time>2026-04-02T08:41:38.999Z</time></trkpt><trkpt lat="45.39938062460744" lon="10.592996239542545"><ele>115.0</ele><time>2026-04-02T08:41:39.999Z</time></trkpt><trkpt lat="45.39937119146116" lon="10.593102431774684"><ele>115.0</ele><time>2026-04-02T08:41:40.999Z</time></trkpt><trkpt lat="45.39935110864343" lon="10.593211755178107"><ele>115.0</ele><time>2026-04-02T08:41:42.999Z</time></trkpt><trkpt lat="45.39929415723828" lon="10.593118348172185"><ele>115.0</ele><time>2026-04-02T08:41:47.999Z</time></trkpt><trkpt lat="45.39935095419561" lon="10.592931805788497"><ele>115.0</ele><time>2026-04-02T08:41:49.999Z</time></trkpt><trkpt lat="45.39936732704758" lon="10.592811051663062"><ele>115.25</ele><time>2026-04-02T08:41:50.999Z</time></trkpt><trkpt lat="45.399357650169996" lon="10.592665696255343"><ele>115.5</ele><time>2026-04-02T08:41:51.999Z</time></trkpt><trkpt lat="45.39935322181358" lon="10.592466520005495"><ele>115.75</ele><time>2026-04-02T08:41:52.999Z</time></trkpt><trkpt lat="45.39934500799598" lon="10.592263542358085"><ele>116.0</ele><time>2026-04-02T08:41:53.999Z</time></trkpt><trkpt lat="45.39933082319107" lon="10.592115395453515"><ele>115.6</ele><time>2026-04-02T08:41:54.999Z</time></trkpt><trkpt lat="45.399300391067584" lon="10.59199759392261"><ele>115.19999999999999</ele><time>2026-04-02T08:41:55.999Z</time></trkpt><trkpt lat="45.39922350061777" lon="10.591949737185864"><ele>114.80000000000001</ele><time>2026-04-02T08:41:56.999Z</time></trkpt><trkpt lat="45.39914752760575" lon="10.591924354615212"><ele>114.4</ele><time>2026-04-02T08:41:57.999Z</time></trkpt><trkpt lat="45.39902797572322" lon="10.591903692188213"><ele>114.0</ele><time>2026-04-02T08:41:58.999Z</time></trkpt><trkpt lat="45.3989007932563" lon="10.591892946213505"><ele>113.75</ele><time>2026-04-02T08:41:59.999Z</time></trkpt><trkpt lat="45.39878209511571" lon="10.591859267047122"><ele>113.5</ele><time>2026-04-02T08:42:00.999Z</time></trkpt><trkpt lat="45.39866153350002" lon="10.59183438355935"><ele>113.25</ele><time>2026-04-02T08:42:01.999Z</time></trkpt><trkpt lat="45.398521833233005" lon="10.591798737099323"><ele>113.0</ele><time>2026-04-02T08:42:02.999Z</time></trkpt><trkpt lat="45.39835852879159" lon="10.59174472046002"><ele>113.0</ele><time>2026-04-02T08:42:03.999Z</time></trkpt><trkpt lat="45.398172317285386" lon="10.591670122443658"><ele>113.0</ele><time>2026-04-02T08:42:04.999Z</time></trkpt><trkpt lat="45.397959344215266" lon="10.59158723408757"><ele>113.0</ele><time>2026-04-02T08:42:05.999Z</time></trkpt><trkpt lat="45.39776436358113" lon="10.591517319469821"><ele>112.60000000000001</ele><time>2026-04-02T08:42:06.999Z</time></trkpt><trkpt lat="45.397627095177086" lon="10.591471291333518"><ele>112.20000000000002</ele><time>2026-04-02T08:42:07.999Z</time></trkpt><trkpt lat="45.39753959137422" lon="10.591439934889424"><ele>111.8</ele><time>2026-04-02T08:42:08.999Z</time></trkpt><trkpt lat="45.397457805190356" lon="10.591417062694328"><ele>111.4</ele><time>2026-04-02T08:42:10.999Z</time></trkpt><trkpt lat="45.39738883676762" lon="10.591538678600692"><ele>111.0</ele><time>2026-04-02T08:42:13Z</time></trkpt><trkpt lat="45.3973390383892" lon="10.591631956698437"><ele>111.0</ele><time>2026-04-02T08:42:14Z</time></trkpt><trkpt lat="45.39726170246103" lon="10.591731841616863"><ele>111.0</ele><time>2026-04-02T08:42:15Z</time></trkpt><trkpt lat="45.397162410379366" lon="10.591852178793921"><ele>111.0</ele><time>2026-04-02T08:42:16Z</time></trkpt><trkpt lat="45.39704048524912" lon="10.592015836936513"><ele>111.0</ele><time>2026-04-02T08:42:17Z</time></trkpt><trkpt lat="45.39690775767774" lon="10.592193092395975"><ele>110.75</ele><time>2026-04-02T08:42:18Z</time></trkpt><trkpt lat="45.396794043804356" lon="10.592339214362514"><ele>110.5</ele><time>2026-04-02T08:42:19Z</time></trkpt><trkpt lat="45.39669985838689" lon="10.592456758851661"><ele>110.25</ele><time>2026-04-02T08:42:20Z</time></trkpt><trkpt lat="45.396616819577694" lon="10.592564455816238"><ele>110.0</ele><time>2026-04-02T08:42:21Z</time></trkpt><trkpt lat="45.39654723989896" lon="10.59265387752147"><ele>109.99999999999999</ele><time>2026-04-02T08:42:22Z</time></trkpt><trkpt lat="45.39648584873992" lon="10.592726214147417"><ele>110.0</ele><time>2026-04-02T08:42:23Z</time></trkpt><trkpt lat="45.396430767140124" lon="10.592787331418348"><ele>110.0</ele><time>2026-04-02T08:42:24Z</time></trkpt><trkpt lat="45.39638460635384" lon="10.592887394353788"><ele>110.0</ele><time>2026-04-02T08:42:26Z</time></trkpt><trkpt lat="45.3964191892738" lon="10.593016854360126"><ele>109.99999999999999</ele><time>2026-04-02T08:42:28Z</time></trkpt><trkpt lat="45.396465299704026" lon="10.593092079236547"><ele>110.0</ele><time>2026-04-02T08:42:29Z</time></trkpt><trkpt lat="45.39652297446198" lon="10.593186242591182"><ele>110.0</ele><time>2026-04-02T08:42:30Z</time></trkpt><trkpt lat="45.39658430719965" lon="10.593288657659498"><ele>110.0</ele><time>2026-04-02T08:42:31Z</time></trkpt><trkpt lat="45.39664457464294" lon="10.593403399649178"><ele>110.0</ele><time>2026-04-02T08:42:32Z</time></trkpt><trkpt lat="45.39670050182741" lon="10.593513478562091"><ele>110.0</ele><time>2026-04-02T08:42:33Z</time></trkpt><trkpt lat="45.39674964677659" lon="10.593625284656744"><ele>110.0</ele><time>2026-04-02T08:42:34Z</time></trkpt><trkpt lat="45.39678690202549" lon="10.593747285072986"><ele>109.8</ele><time>2026-04-02T08:42:35Z</time></trkpt><trkpt lat="45.3968305881794" lon="10.593862579190843"><ele>109.6</ele><time>2026-04-02T08:42:36Z</time></trkpt><trkpt lat="45.39689132134852" lon="10.59397218804815"><ele>109.4</ele><time>2026-04-02T08:42:37Z</time></trkpt><trkpt lat="45.39696982382512" lon="10.594085610173611"><ele>109.2</ele><time>2026-04-02T08:42:38Z</time></trkpt><trkpt lat="45.39707175077295" lon="10.594222896975124"><ele>109.0</ele><time>2026-04-02T08:42:39Z</time></trkpt><trkpt lat="45.39719308489719" lon="10.59437981451677"><ele>108.66666666666667</ele><time>2026-04-02T08:42:40Z</time></trkpt><trkpt lat="45.397314879049276" lon="10.594556484533134"><ele>108.33333333333334</ele><time>2026-04-02T08:42:41Z</time></trkpt><trkpt lat="45.39745705288726" lon="10.594752310393993"><ele>108.0</ele><time>2026-04-02T08:42:42Z</time></trkpt><trkpt lat="45.39757289264566" lon="10.594918684978053"><ele>108.0</ele><time>2026-04-02T08:42:43Z</time></trkpt><trkpt lat="45.39767048095908" lon="10.595058089207463"><ele>108.0</ele><time>2026-04-02T08:42:44Z</time></trkpt><trkpt lat="45.397753576141625" lon="10.59518725987455"><ele>108.0</ele><time>2026-04-02T08:42:45Z</time></trkpt><trkpt lat="45.39782000892141" lon="10.595297495602086"><ele>108.0</ele><time>2026-04-02T08:42:46Z</time></trkpt><trkpt lat="45.39788305213932" lon="10.595387726156337"><ele>107.66666666666667</ele><time>2026-04-02T08:42:47Z</time></trkpt><trkpt lat="45.397934008482025" lon="10.595462614972124"><ele>107.33333333333334</ele><time>2026-04-02T08:42:48Z</time></trkpt><trkpt lat="45.397994163720746" lon="10.595574062639457"><ele>107.0</ele><time>2026-04-02T08:42:50Z</time></trkpt><trkpt lat="45.39796882436993" lon="10.595685579132018"><ele>106.66666666666667</ele><time>2026-04-02T08:42:52Z</time></trkpt><trkpt lat="45.39791042750438" lon="10.595810723737731"><ele>106.33333333333334</ele><time>2026-04-02T08:42:54Z</time></trkpt><trkpt lat="45.397949585640895" lon="10.595904876186134"><ele>106.0</ele><time>2026-04-02T08:42:56Z</time></trkpt><trkpt lat="45.39800436096283" lon="10.595949493584483"><ele>106.0</ele><time>2026-04-02T08:42:57Z</time></trkpt><trkpt lat="45.39808774904663" lon="10.59599300272257"><ele>106.0</ele><time>2026-04-02T08:42:58Z</time></trkpt><trkpt lat="45.39818016695774" lon="10.596034876294624"><ele>106.0</ele><time>2026-04-02T08:42:59Z</time></trkpt><trkpt lat="45.39828158298233" lon="10.596087539726245"><ele>106.0</ele><time>2026-04-02T08:43:00Z</time></trkpt><trkpt lat="45.398415555678845" lon="10.596167728896004"><ele>106.0</ele><time>2026-04-02T08:43:01Z</time></trkpt><trkpt lat="45.398588738785634" lon="10.596269997581794"><ele>106.0</ele><time>2026-04-02T08:43:02Z</time></trkpt><trkpt lat="45.39877718916491" lon="10.59638766242175"><ele>106.0</ele><time>2026-04-02T08:43:03Z</time></trkpt><trkpt lat="45.398976214706465" lon="10.596503687875524"><ele>106.0</ele><time>2026-04-02T08:43:04Z</time></trkpt><trkpt lat="45.39921282701657" lon="10.59661558161457"><ele>107.33333333333334</ele><time>2026-04-02T08:43:05Z</time></trkpt><trkpt lat="45.399418892880824" lon="10.596704629078355"><ele>108.66666666666666</ele><time>2026-04-02T08:43:06Z</time></trkpt><trkpt lat="45.39956926333811" lon="10.596774029493371"><ele>110.0</ele><time>2026-04-02T08:43:07Z</time></trkpt><trkpt lat="45.39969326405707" lon="10.59683362061405"><ele>111.2</ele><time>2026-04-02T08:43:08Z</time></trkpt><trkpt lat="45.399805344784" lon="10.596887058129807"><ele>112.4</ele><time>2026-04-02T08:43:09Z</time></trkpt><trkpt lat="45.39990073118168" lon="10.596937742120769"><ele>113.6</ele><time>2026-04-02T08:43:10Z</time></trkpt><trkpt lat="45.39996846688311" lon="10.596974278856873"><ele>114.8</ele><time>2026-04-02T08:43:11Z</time></trkpt><trkpt lat="45.40005572703738" lon="10.597006059585997"><ele>116.0</ele><time>2026-04-02T08:43:13Z</time></trkpt><trkpt lat="45.40012191603661" lon="10.597086170975693"><ele>115.99999999999999</ele><time>2026-04-02T08:43:16Z</time></trkpt><trkpt lat="45.40014703329924" lon="10.597177309972041"><ele>116.0</ele><time>2026-04-02T08:43:17Z</time></trkpt><trkpt lat="45.40015743496454" lon="10.597348221980125"><ele>116.0</ele><time>2026-04-02T08:43:18Z</time></trkpt><trkpt lat="45.400171999449114" lon="10.59750627041239"><ele>116.0</ele><time>2026-04-02T08:43:19Z</time></trkpt><trkpt lat="45.40019316756593" lon="10.597591670381915"><ele>115.99999999999999</ele><time>2026-04-02T08:43:20Z</time></trkpt><trkpt lat="45.40025634073762" lon="10.597642165438373"><ele>116.0</ele><time>2026-04-02T08:43:22Z</time></trkpt><trkpt lat="45.40036413307883" lon="10.597620475470134"><ele>116.0</ele><time>2026-04-02T08:43:24Z</time></trkpt><trkpt lat="45.400471104714505" lon="10.597564055319303"><ele>116.0</ele><time>2026-04-02T08:43:25Z</time></trkpt><trkpt lat="45.400617771956135" lon="10.597510734961558"><ele>116.0</ele><time>2026-04-02T08:43:26Z</time></trkpt><trkpt lat="45.40072599954732" lon="10.597446051174522"><ele>116.0</ele><time>2026-04-02T08:43:27Z</time></trkpt><trkpt lat="45.40080316205985" lon="10.597410202224586"><ele>116.83333333333333</ele><time>2026-04-02T08:43:28Z</time></trkpt><trkpt lat="45.40087031726005" lon="10.597360409218277"><ele>117.66666666666666</ele><time>2026-04-02T08:43:29Z</time></trkpt><trkpt lat="45.4009448633484" lon="10.59729750093683"><ele>118.5</ele><time>2026-04-02T08:43:30Z</time></trkpt><trkpt lat="45.401017339479104" lon="10.597211672337552"><ele>119.33333333333334</ele><time>2026-04-02T08:43:31Z</time></trkpt><trkpt lat="45.401077822891914" lon="10.597127653752025"><ele>120.16666666666667</ele><time>2026-04-02T08:43:32Z</time></trkpt><trkpt lat="45.401134635000915" lon="10.597072985539025"><ele>121.0</ele><time>2026-04-02T08:43:33Z</time></trkpt><trkpt lat="45.401203770292035" lon="10.59705312558312"><ele>121.00000000000001</ele><time>2026-04-02T08:43:34Z</time></trkpt><trkpt lat="45.40129385904638" lon="10.597057073083603"><ele>121.0</ele><time>2026-04-02T08:43:35Z</time></trkpt><trkpt lat="45.40140344059532" lon="10.597066781560976"><ele>121.0</ele><time>2026-04-02T08:43:36Z</time></trkpt><trkpt lat="45.4014869137855" lon="10.597081950163826"><ele>121.0</ele><time>2026-04-02T08:43:37Z</time></trkpt><trkpt lat="45.40155076263737" lon="10.597084650177672"><ele>121.00000000000001</ele><time>2026-04-02T08:43:37.999Z</time></trkpt><trkpt lat="45.401635639422224" lon="10.597029849082192"><ele>121.0</ele><time>2026-04-02T08:43:39.999Z</time></trkpt><trkpt lat="45.401675875329154" lon="10.596902146733308"><ele>118.0</ele><time>2026-04-02T08:43:41.999Z</time></trkpt><trkpt lat="45.40170414591161" lon="10.596817092506091"><ele>115.0</ele><time>2026-04-02T08:43:42.999Z</time></trkpt><trkpt lat="45.4017830657282" lon="10.596720340422646"><ele>112.0</ele><time>2026-04-02T08:43:44.999Z</time></trkpt><trkpt lat="45.40192680770706" lon="10.596733217915647"><ele>109.0</ele><time>2026-04-02T08:43:46.999Z</time></trkpt><trkpt lat="45.40207128967181" lon="10.596779606039405"><ele>107.25</ele><time>2026-04-02T08:43:47.999Z</time></trkpt><trkpt lat="45.402237149224376" lon="10.59682271178749"><ele>105.5</ele><time>2026-04-02T08:43:48.999Z</time></trkpt><trkpt lat="45.40236765629615" lon="10.596848227341646"><ele>103.75</ele><time>2026-04-02T08:43:49.999Z</time></trkpt><trkpt lat="45.40245651305474" lon="10.596869079227046"><ele>102.0</ele><time>2026-04-02T08:43:50.999Z</time></trkpt><trkpt lat="45.402534101408186" lon="10.596885935014033"><ele>102.0</ele><time>2026-04-02T08:43:51.999Z</time></trkpt><trkpt lat="45.402614194154644" lon="10.596894367557656"><ele>102.0</ele><time>2026-04-02T08:43:52.999Z</time></trkpt><trkpt lat="45.40272068055425" lon="10.596912480332863"><ele>102.0</ele><time>2026-04-02T08:43:53.999Z</time></trkpt><trkpt lat="45.40284549968027" lon="10.596928520513817"><ele>102.0</ele><time>2026-04-02T08:43:54.999Z</time></trkpt><trkpt lat="45.40298159240561" lon="10.59693123184544"><ele>102.0</ele><time>2026-04-02T08:43:55.999Z</time></trkpt><trkpt lat="45.40309609695593" lon="10.596922958368253"><ele>101.0</ele><time>2026-04-02T08:43:56.999Z</time></trkpt><trkpt lat="45.40319200662961" lon="10.596913736368123"><ele>100.0</ele><time>2026-04-02T08:43:57.999Z</time></trkpt><trkpt lat="45.403271713322894" lon="10.596905005660696"><ele>99.0</ele><time>2026-04-02T08:43:58.999Z</time></trkpt><trkpt lat="45.40335085621285" lon="10.59692169743708"><ele>98.0</ele><time>2026-04-02T08:44:00.999Z</time></trkpt><trkpt lat="45.40338222570197" lon="10.597023988364727"><ele>97.0</ele><time>2026-04-02T08:44:07.999Z</time></trkpt><trkpt lat="45.40337864563716" lon="10.597135371458041"><ele>96.0</ele><time>2026-04-02T08:44:08.999Z</time></trkpt><trkpt lat="45.403370934695744" lon="10.597268237306192"><ele>95.83333333333333</ele><time>2026-04-02T08:44:09.999Z</time></trkpt><trkpt lat="45.40336432131631" lon="10.597394744864795"><ele>95.66666666666667</ele><time>2026-04-02T08:44:10.999Z</time></trkpt><trkpt lat="45.40335245919733" lon="10.597492326025682"><ele>95.5</ele><time>2026-04-02T08:44:11.999Z</time></trkpt><trkpt lat="45.403291203890625" lon="10.597575890568518"><ele>95.33333333333334</ele><time>2026-04-02T08:44:13.999Z</time></trkpt><trkpt lat="45.40316842778617" lon="10.597551368096928"><ele>95.16666666666667</ele><time>2026-04-02T08:44:15.999Z</time></trkpt><trkpt lat="45.4031019970902" lon="10.597543569207525"><ele>95.0</ele><time>2026-04-02T08:44:16.999Z</time></trkpt><trkpt lat="45.40302776449558" lon="10.597627129575834"><ele>95.0</ele><time>2026-04-02T08:44:19Z</time></trkpt><trkpt lat="45.40302385957033" lon="10.597726703177122"><ele>95.0</ele><time>2026-04-02T08:44:20Z</time></trkpt><trkpt lat="45.403046815870844" lon="10.597891954008215"><ele>95.0</ele><time>2026-04-02T08:44:21Z</time></trkpt><trkpt lat="45.40305090331918" lon="10.59805026146916"><ele>95.0</ele><time>2026-04-02T08:44:22Z</time></trkpt><trkpt lat="45.40305000895254" lon="10.598264290607526"><ele>95.2</ele><time>2026-04-02T08:44:23Z</time></trkpt><trkpt lat="45.403038964461345" lon="10.598431536257625"><ele>95.4</ele><time>2026-04-02T08:44:24Z</time></trkpt><trkpt lat="45.40303031805514" lon="10.598574420566077"><ele>95.6</ele><time>2026-04-02T08:44:25Z</time></trkpt><trkpt lat="45.40301768393395" lon="10.59870441873702"><ele>95.8</ele><time>2026-04-02T08:44:26Z</time></trkpt><trkpt lat="45.403017886007845" lon="10.598870872423609"><ele>96.0</ele><time>2026-04-02T08:44:27Z</time></trkpt><trkpt lat="45.4030445224107" lon="10.59915700266552"><ele>96.25</ele><time>2026-04-02T08:44:28Z</time></trkpt><trkpt lat="45.40305340777826" lon="10.599395820773045"><ele>96.5</ele><time>2026-04-02T08:44:29Z</time></trkpt><trkpt lat="45.403045445511644" lon="10.599578792620234"><ele>96.75</ele><time>2026-04-02T08:44:30Z</time></trkpt><trkpt lat="45.403025857605094" lon="10.599735174991041"><ele>97.0</ele><time>2026-04-02T08:44:31Z</time></trkpt><trkpt lat="45.40300664547889" lon="10.599841891876405"><ele>96.75</ele><time>2026-04-02T08:44:32Z</time></trkpt><trkpt lat="45.40300586484928" lon="10.599934190188412"><ele>96.5</ele><time>2026-04-02T08:44:33Z</time></trkpt><trkpt lat="45.40303274951711" lon="10.600085012630258"><ele>96.25</ele><time>2026-04-02T08:44:34Z</time></trkpt><trkpt lat="45.40305754112828" lon="10.60031051965186"><ele>96.0</ele><time>2026-04-02T08:44:35Z</time></trkpt><trkpt lat="45.40306523337767" lon="10.600538218069152"><ele>96.0</ele><time>2026-04-02T08:44:36Z</time></trkpt><trkpt lat="45.40306100763442" lon="10.6008112591388"><ele>96.0</ele><time>2026-04-02T08:44:37Z</time></trkpt><trkpt lat="45.40304074896272" lon="10.601126914746557"><ele>96.0</ele><time>2026-04-02T08:44:38Z</time></trkpt><trkpt lat="45.40302131578483" lon="10.60139509774142"><ele>96.0</ele><time>2026-04-02T08:44:39Z</time></trkpt><trkpt lat="45.403005657736266" lon="10.601627689964632"><ele>96.0</ele><time>2026-04-02T08:44:40Z</time></trkpt><trkpt lat="45.40299534717613" lon="10.601850973891532"><ele>96.0</ele><time>2026-04-02T08:44:41Z</time></trkpt><trkpt lat="45.40300045797181" lon="10.602090119195104"><ele>96.0</ele><time>2026-04-02T08:44:42Z</time></trkpt><trkpt lat="45.4029979408207" lon="10.602327735612455"><ele>96.0</ele><time>2026-04-02T08:44:43Z</time></trkpt><trkpt lat="45.40299840435987" lon="10.60251944251882"><ele>96.0</ele><time>2026-04-02T08:44:44Z</time></trkpt><trkpt lat="45.402996440961715" lon="10.602674173346974"><ele>96.0</ele><time>2026-04-02T08:44:45Z</time></trkpt><trkpt lat="45.4029864317286" lon="10.602789841570758"><ele>95.85714285714285</ele><time>2026-04-02T08:44:46Z</time></trkpt><trkpt lat="45.403059415900806" lon="10.602893195109232"><ele>95.71428571428571</ele><time>2026-04-02T08:44:51Z</time></trkpt><trkpt lat="45.40312188426024" lon="10.602924515237676"><ele>95.57142857142857</ele><time>2026-04-02T08:44:52Z</time></trkpt><trkpt lat="45.4031821339177" lon="10.60295722349168"><ele>95.42857142857142</ele><time>2026-04-02T08:44:53Z</time></trkpt><trkpt lat="45.40324391986592" lon="10.602987015972644"><ele>95.28571428571429</ele><time>2026-04-02T08:44:54Z</time></trkpt><trkpt lat="45.403311834015796" lon="10.603011932636395"><ele>95.14285714285714</ele><time>2026-04-02T08:44:55Z</time></trkpt><trkpt lat="45.40337703133539" lon="10.60302236835125"><ele>95.0</ele><time>2026-04-02T08:44:56Z</time></trkpt><trkpt lat="45.40347163678508" lon="10.60305264580418"><ele>95.0</ele><time>2026-04-02T08:44:58Z</time></trkpt><trkpt lat="45.403567850289456" lon="10.603077572335007"><ele>95.0</ele><time>2026-04-02T08:45:00Z</time></trkpt><trkpt lat="45.403636756053565" lon="10.603097733953486"><ele>95.0</ele><time>2026-04-02T08:45:01Z</time></trkpt><trkpt lat="45.40372782100969" lon="10.603121485894816"><ele>95.0</ele><time>2026-04-02T08:45:02Z</time></trkpt><trkpt lat="45.40381605070998" lon="10.60313626526357"><ele>95.0</ele><time>2026-04-02T08:45:03Z</time></trkpt><trkpt lat="45.40389333874591" lon="10.60313183022075"><ele>95.0</ele><time>2026-04-02T08:45:04Z</time></trkpt><trkpt lat="45.403993980824275" lon="10.603135896636173"><ele>94.66666666666667</ele><time>2026-04-02T08:45:06Z</time></trkpt><trkpt lat="45.40403194553907" lon="10.603226323075813"><ele>94.33333333333334</ele><time>2026-04-02T08:45:08Z</time></trkpt><trkpt lat="45.404022502803706" lon="10.603350767819855"><ele>94.0</ele><time>2026-04-02T08:45:10Z</time></trkpt><trkpt lat="45.40398883318436" lon="10.603445125389348"><ele>93.66666666666667</ele><time>2026-04-02T08:45:11Z</time></trkpt><trkpt lat="45.40394940591528" lon="10.603544093702185"><ele>93.33333333333333</ele><time>2026-04-02T08:45:12Z</time></trkpt><trkpt lat="45.40392553557693" lon="10.603637205273152"><ele>93.0</ele><time>2026-04-02T08:45:13Z</time></trkpt><trkpt lat="45.403894589542645" lon="10.60377625139359"><ele>93.0</ele><time>2026-04-02T08:45:15Z</time></trkpt><trkpt lat="45.403944334220625" lon="10.603904990132355"><ele>93.0</ele><time>2026-04-02T08:45:17Z</time></trkpt><trkpt lat="45.40401968391423" lon="10.603961435606129"><ele>93.0</ele><time>2026-04-02T08:45:19Z</time></trkpt><trkpt lat="45.40408862544203" lon="10.604008442621312"><ele>93.0</ele><time>2026-04-02T08:45:23Z</time></trkpt><trkpt lat="45.40417035460892" lon="10.60406299837777"><ele>93.0</ele><time>2026-04-02T08:45:26Z</time></trkpt><trkpt lat="45.404237162032025" lon="10.604100019611408"><ele>93.0</ele><time>2026-04-02T08:45:27Z</time></trkpt><trkpt lat="45.40431049451981" lon="10.604155003537944"><ele>93.0</ele><time>2026-04-02T08:45:28Z</time></trkpt><trkpt lat="45.40439887705025" lon="10.604221392105375"><ele>93.0</ele><time>2026-04-02T08:45:29Z</time></trkpt><trkpt lat="45.40447314808442" lon="10.604265115655243"><ele>93.0</ele><time>2026-04-02T08:45:30Z</time></trkpt><trkpt lat="45.40454538682027" lon="10.604269250011649"><ele>93.0</ele><time>2026-04-02T08:45:31Z</time></trkpt><trkpt lat="45.404635277251415" lon="10.604251887579686"><ele>93.0</ele><time>2026-04-02T08:45:32Z</time></trkpt><trkpt lat="45.404718254550396" lon="10.604232822239199"><ele>93.0</ele><time>2026-04-02T08:45:33Z</time></trkpt><trkpt lat="45.404781419456185" lon="10.604237266741205"><ele>93.75</ele><time>2026-04-02T08:45:34Z</time></trkpt><trkpt lat="45.40488948543355" lon="10.604348609641587"><ele>94.5</ele><time>2026-04-02T08:45:36Z</time></trkpt><trkpt lat="45.40494685385979" lon="10.604461817966873"><ele>95.25</ele><time>2026-04-02T08:45:37Z</time></trkpt><trkpt lat="45.40501495651515" lon="10.6045984155477"><ele>96.0</ele><time>2026-04-02T08:45:38Z</time></trkpt><trkpt lat="45.40507589837638" lon="10.604720029549306"><ele>96.4</ele><time>2026-04-02T08:45:39Z</time></trkpt><trkpt lat="45.40511830152869" lon="10.604814777674317"><ele>96.8</ele><time>2026-04-02T08:45:40Z</time></trkpt><trkpt lat="45.4051533389434" lon="10.604889831725856"><ele>97.2</ele><time>2026-04-02T08:45:41Z</time></trkpt><trkpt lat="45.40520925150671" lon="10.605014070674487"><ele>97.60000000000001</ele><time>2026-04-02T08:45:43Z</time></trkpt><trkpt lat="45.40523747431904" lon="10.605216457637066"><ele>98.0</ele><time>2026-04-02T08:45:45Z</time></trkpt><trkpt lat="45.405237301788226" lon="10.605366137194226"><ele>98.0</ele><time>2026-04-02T08:45:46Z</time></trkpt><trkpt lat="45.40523458456251" lon="10.60553140651616"><ele>98.0</ele><time>2026-04-02T08:45:47Z</time></trkpt><trkpt lat="45.405229857447594" lon="10.605701421958344"><ele>98.0</ele><time>2026-04-02T08:45:48Z</time></trkpt><trkpt lat="45.40521154370426" lon="10.605852473831442"><ele>98.0</ele><time>2026-04-02T08:45:49Z</time></trkpt><trkpt lat="45.40518969268319" lon="10.605990040773598"><ele>98.0</ele><time>2026-04-02T08:45:50Z</time></trkpt><trkpt lat="45.40517388323856" lon="10.60609058099656"><ele>97.80000000000001</ele><time>2026-04-02T08:45:51Z</time></trkpt><trkpt lat="45.40516505424654" lon="10.606193102158223"><ele>97.6</ele><time>2026-04-02T08:45:53Z</time></trkpt><trkpt lat="45.405124702851275" lon="10.60638252726371"><ele>97.4</ele><time>2026-04-02T08:45:56Z</time></trkpt><trkpt lat="45.40509310810679" lon="10.606511247746539"><ele>97.19999999999999</ele><time>2026-04-02T08:45:57Z</time></trkpt><trkpt lat="45.40507593180927" lon="10.606658981585833"><ele>97.0</ele><time>2026-04-02T08:45:58Z</time></trkpt><trkpt lat="45.40506544623501" lon="10.606826832585654"><ele>97.5</ele><time>2026-04-02T08:45:59Z</time></trkpt><trkpt lat="45.40504675630663" lon="10.607016496556268"><ele>98.0</ele><time>2026-04-02T08:46:00Z</time></trkpt><trkpt lat="45.40503358036731" lon="10.607207807613808"><ele>98.5</ele><time>2026-04-02T08:46:01Z</time></trkpt><trkpt lat="45.40502324540206" lon="10.60743015911392"><ele>99.0</ele><time>2026-04-02T08:46:02Z</time></trkpt><trkpt lat="45.40501676775374" lon="10.607678109272463"><ele>99.66666666666666</ele><time>2026-04-02T08:46:03Z</time></trkpt><trkpt lat="45.40501350688022" lon="10.607920393358643"><ele>100.33333333333333</ele><time>2026-04-02T08:46:03.999Z</time></trkpt><trkpt lat="45.40500907464285" lon="10.608163464858023"><ele>101.0</ele><time>2026-04-02T08:46:04.999Z</time></trkpt><trkpt lat="45.40500213194333" lon="10.60839076557218"><ele>101.0</ele><time>2026-04-02T08:46:05.999Z</time></trkpt><trkpt lat="45.40499409536973" lon="10.608575994120093"><ele>101.0</ele><time>2026-04-02T08:46:06.999Z</time></trkpt><trkpt lat="45.404983626078355" lon="10.60876453516829"><ele>101.0</ele><time>2026-04-02T08:46:07.999Z</time></trkpt><trkpt lat="45.40497196002944" lon="10.608945038207802"><ele>101.0</ele><time>2026-04-02T08:46:08.999Z</time></trkpt><trkpt lat="45.40495353293562" lon="10.60911715089305"><ele>101.0</ele><time>2026-04-02T08:46:09.999Z</time></trkpt><trkpt lat="45.40493784121231" lon="10.609289063975002"><ele>101.0</ele><time>2026-04-02T08:46:10.999Z</time></trkpt><trkpt lat="45.404922081598535" lon="10.609464511327932"><ele>101.0</ele><time>2026-04-02T08:46:11.999Z</time></trkpt><trkpt lat="45.40490391187669" lon="10.609641674215338"><ele>101.0</ele><time>2026-04-02T08:46:12.999Z</time></trkpt><trkpt lat="45.40488602742417" lon="10.609825083514997"><ele>100.33333333333333</ele><time>2026-04-02T08:46:13.999Z</time></trkpt><trkpt lat="45.40486642915454" lon="10.610035577562478"><ele>99.66666666666666</ele><time>2026-04-02T08:46:14.999Z</time></trkpt><trkpt lat="45.40484978112454" lon="10.610276585495559"><ele>99.0</ele><time>2026-04-02T08:46:15.999Z</time></trkpt><trkpt lat="45.40484342297275" lon="10.610477701389572"><ele>99.0</ele><time>2026-04-02T08:46:16.999Z</time></trkpt><trkpt lat="45.40484001028624" lon="10.610654057662858"><ele>99.0</ele><time>2026-04-02T08:46:17.999Z</time></trkpt><trkpt lat="45.404842308117274" lon="10.610816107415815"><ele>99.0</ele><time>2026-04-02T08:46:18.999Z</time></trkpt><trkpt lat="45.404850283917504" lon="10.610983886681662"><ele>99.0</ele><time>2026-04-02T08:46:19.999Z</time></trkpt><trkpt lat="45.40486269603824" lon="10.611169420282222"><ele>98.80000000000001</ele><time>2026-04-02T08:46:20.999Z</time></trkpt><trkpt lat="45.404881110021115" lon="10.611360412968455"><ele>98.60000000000001</ele><time>2026-04-02T08:46:21.999Z</time></trkpt><trkpt lat="45.40489551988928" lon="10.611528258976497"><ele>98.4</ele><time>2026-04-02T08:46:23Z</time></trkpt><trkpt lat="45.40491039560803" lon="10.61166371600042"><ele>98.2</ele><time>2026-04-02T08:46:24Z</time></trkpt><trkpt lat="45.40493447530992" lon="10.611765120088334"><ele>98.0</ele><time>2026-04-02T08:46:25Z</time></trkpt><trkpt lat="45.404972415399705" lon="10.6118414408795"><ele>98.0</ele><time>2026-04-02T08:46:26Z</time></trkpt><trkpt lat="45.405038103694785" lon="10.611909481595184"><ele>98.0</ele><time>2026-04-02T08:46:27Z</time></trkpt><trkpt lat="45.40513952224828" lon="10.611984302659526"><ele>98.0</ele><time>2026-04-02T08:46:28Z</time></trkpt><trkpt lat="45.40526767390495" lon="10.612078537963795"><ele>98.0</ele><time>2026-04-02T08:46:29Z</time></trkpt><trkpt lat="45.405367788341636" lon="10.612169867693018"><ele>97.60000000000001</ele><time>2026-04-02T08:46:30Z</time></trkpt><trkpt lat="45.40544578700233" lon="10.612259596253422"><ele>97.2</ele><time>2026-04-02T08:46:31Z</time></trkpt><trkpt lat="45.40549971829169" lon="10.612368894322042"><ele>96.8</ele><time>2026-04-02T08:46:32Z</time></trkpt><trkpt lat="45.40552894439612" lon="10.612488705254433"><ele>96.4</ele><time>2026-04-02T08:46:33Z</time></trkpt><trkpt lat="45.40553527225047" lon="10.61261998338657"><ele>96.0</ele><time>2026-04-02T08:46:34Z</time></trkpt><trkpt lat="45.405525932692086" lon="10.612781071546793"><ele>97.0</ele><time>2026-04-02T08:46:35Z</time></trkpt><trkpt lat="45.40550887218754" lon="10.612964134449255"><ele>98.0</ele><time>2026-04-02T08:46:36Z</time></trkpt><trkpt lat="45.40549607158567" lon="10.613164773901493"><ele>99.0</ele><time>2026-04-02T08:46:37Z</time></trkpt><trkpt lat="45.40550333477262" lon="10.613387194376685"><ele>100.0</ele><time>2026-04-02T08:46:38Z</time></trkpt><trkpt lat="45.40552120719136" lon="10.613629422410497"><ele>100.0</ele><time>2026-04-02T08:46:39Z</time></trkpt><trkpt lat="45.40553565324455" lon="10.613882659339666"><ele>100.0</ele><time>2026-04-02T08:46:40Z</time></trkpt><trkpt lat="45.40553636893475" lon="10.614141718355695"><ele>100.0</ele><time>2026-04-02T08:46:41Z</time></trkpt><trkpt lat="45.40552050773419" lon="10.614397539167626"><ele>97.66666666666667</ele><time>2026-04-02T08:46:42Z</time></trkpt><trkpt lat="45.40549039853921" lon="10.614632325745347"><ele>95.33333333333334</ele><time>2026-04-02T08:46:43Z</time></trkpt><trkpt lat="45.40545706012515" lon="10.61483719813354"><ele>93.0</ele><time>2026-04-02T08:46:44Z</time></trkpt><trkpt lat="45.405427969699446" lon="10.615029718777752"><ele>93.0</ele><time>2026-04-02T08:46:45Z</time></trkpt><trkpt lat="45.405416526392756" lon="10.615252378092412"><ele>93.0</ele><time>2026-04-02T08:46:46Z</time></trkpt><trkpt lat="45.40541395865163" lon="10.615520322437785"><ele>93.0</ele><time>2026-04-02T08:46:47Z</time></trkpt><trkpt lat="45.405397101464864" lon="10.615791953176574"><ele>93.0</ele><time>2026-04-02T08:46:48Z</time></trkpt><trkpt lat="45.40539257493282" lon="10.616042715967865"><ele>93.0</ele><time>2026-04-02T08:46:49Z</time></trkpt><trkpt lat="45.40538842621676" lon="10.61627254798647"><ele>93.0</ele><time>2026-04-02T08:46:50Z</time></trkpt><trkpt lat="45.40540463036787" lon="10.616468132548874"><ele>92.75</ele><time>2026-04-02T08:46:51Z</time></trkpt><trkpt lat="45.405416433007694" lon="10.616648288244898"><ele>92.5</ele><time>2026-04-02T08:46:52Z</time></trkpt><trkpt lat="45.40544440457173" lon="10.616843987726291"><ele>92.25</ele><time>2026-04-02T08:46:53Z</time></trkpt><trkpt lat="45.40546986536638" lon="10.617030135846884"><ele>92.0</ele><time>2026-04-02T08:46:54Z</time></trkpt><trkpt lat="45.40548084419191" lon="10.617184502508238"><ele>91.6</ele><time>2026-04-02T08:46:55Z</time></trkpt><trkpt lat="45.40546173005612" lon="10.617319229718673"><ele>91.19999999999999</ele><time>2026-04-02T08:46:56Z</time></trkpt><trkpt lat="45.40547103631963" lon="10.617435310259577"><ele>90.8</ele><time>2026-04-02T08:46:57Z</time></trkpt><trkpt lat="45.40550085019977" lon="10.617546910991047"><ele>90.4</ele><time>2026-04-02T08:46:58Z</time></trkpt><trkpt lat="45.4055808470842" lon="10.617633942104403"><ele>90.0</ele><time>2026-04-02T08:46:59Z</time></trkpt><trkpt lat="45.4056641693645" lon="10.617724777900635"><ele>90.25</ele><time>2026-04-02T08:47:00Z</time></trkpt><trkpt lat="45.405773133529514" lon="10.61781178219431"><ele>90.5</ele><time>2026-04-02T08:47:01Z</time></trkpt><trkpt lat="45.40591333462496" lon="10.617906857218628"><ele>90.75</ele><time>2026-04-02T08:47:02Z</time></trkpt><trkpt lat="45.40602842032395" lon="10.618005152262546"><ele>91.0</ele><time>2026-04-02T08:47:03Z</time></trkpt><trkpt lat="45.40610542556952" lon="10.618145999945183"><ele>91.0</ele><time>2026-04-02T08:47:04Z</time></trkpt><trkpt lat="45.406319526889504" lon="10.61841180421012"><ele>91.0</ele><time>2026-04-02T08:47:06Z</time></trkpt><trkpt lat="45.4064399060594" lon="10.618573013616759"><ele>91.0</ele><time>2026-04-02T08:47:07Z</time></trkpt><trkpt lat="45.40653192759878" lon="10.618681439648887"><ele>91.0</ele><time>2026-04-02T08:47:08Z</time></trkpt><trkpt lat="45.40661099963239" lon="10.618753133242679"><ele>91.0</ele><time>2026-04-02T08:47:09Z</time></trkpt><trkpt lat="45.40665621295681" lon="10.618843086723404"><ele>91.0</ele><time>2026-04-02T08:47:10Z</time></trkpt><trkpt lat="45.406674385404024" lon="10.618951427113522"><ele>91.0</ele><time>2026-04-02T08:47:11Z</time></trkpt><trkpt lat="45.406684759633585" lon="10.619045572791123"><ele>91.0</ele><time>2026-04-02T08:47:12Z</time></trkpt><trkpt lat="45.40669473350749" lon="10.619148615328355"><ele>91.0</ele><time>2026-04-02T08:47:13Z</time></trkpt><trkpt lat="45.406665844298" lon="10.619258640727775"><ele>91.0</ele><time>2026-04-02T08:47:14Z</time></trkpt><trkpt lat="45.40661563351807" lon="10.619361488973201"><ele>91.0</ele><time>2026-04-02T08:47:15Z</time></trkpt><trkpt lat="45.40653463803376" lon="10.619419312324059"><ele>91.0</ele><time>2026-04-02T08:47:16Z</time></trkpt><trkpt lat="45.40645398437334" lon="10.619456832903207"><ele>91.0</ele><time>2026-04-02T08:47:17Z</time></trkpt><trkpt lat="45.40636469906623" lon="10.61947282910251"><ele>91.0</ele><time>2026-04-02T08:47:18Z</time></trkpt><trkpt lat="45.406282887879414" lon="10.61947011089904"><ele>91.0</ele><time>2026-04-02T08:47:19Z</time></trkpt><trkpt lat="45.40621351239374" lon="10.619461644236821"><ele>91.0</ele><time>2026-04-02T08:47:20Z</time></trkpt><trkpt lat="45.40614664703199" lon="10.619435377915526"><ele>91.0</ele><time>2026-04-02T08:47:22Z</time></trkpt><trkpt lat="45.40621190469353" lon="10.619473339618132"><ele>91.0</ele><time>2026-04-02T08:47:45Z</time></trkpt><trkpt lat="45.406378911981754" lon="10.61949824384691"><ele>91.0</ele><time>2026-04-02T08:47:46Z</time></trkpt><trkpt lat="45.40645882595527" lon="10.61947821974693"><ele>91.0</ele><time>2026-04-02T08:47:47Z</time></trkpt><trkpt lat="45.406523771764306" lon="10.619442157608738"><ele>91.0</ele><time>2026-04-02T08:47:48Z</time></trkpt><trkpt lat="45.40658215669395" lon="10.619406300247544"><ele>91.0</ele><time>2026-04-02T08:47:49Z</time></trkpt><trkpt lat="45.40665134079936" lon="10.619373274109993"><ele>91.0</ele><time>2026-04-02T08:47:52Z</time></trkpt><trkpt lat="45.40670354938248" lon="10.619428306633496"><ele>91.0</ele><time>2026-04-02T08:47:57Z</time></trkpt><trkpt lat="45.40676224430713" lon="10.619492460914834"><ele>91.0</ele><time>2026-04-02T08:47:59Z</time></trkpt><trkpt lat="45.40685096984919" lon="10.619484907414762"><ele>91.0</ele><time>2026-04-02T08:48:01Z</time></trkpt><trkpt lat="45.40693214599106" lon="10.619469414861461"><ele>91.0</ele><time>2026-04-02T08:48:06Z</time></trkpt><trkpt lat="45.40702525727601" lon="10.619529806946643"><ele>90.8</ele><time>2026-04-02T08:48:08Z</time></trkpt><trkpt lat="45.40708442116681" lon="10.61960059319984"><ele>90.6</ele><time>2026-04-02T08:48:09Z</time></trkpt><trkpt lat="45.40713799287186" lon="10.619712821034744"><ele>90.4</ele><time>2026-04-02T08:48:10Z</time></trkpt><trkpt lat="45.407196312609045" lon="10.619874221821336"><ele>90.2</ele><time>2026-04-02T08:48:11Z</time></trkpt><trkpt lat="45.40728013176547" lon="10.620045506789205"><ele>90.0</ele><time>2026-04-02T08:48:12Z</time></trkpt><trkpt lat="45.40737126899273" lon="10.62017935744252"><ele>91.0</ele><time>2026-04-02T08:48:13Z</time></trkpt><trkpt lat="45.40744227192666" lon="10.620265523501526"><ele>92.0</ele><time>2026-04-02T08:48:14Z</time></trkpt><trkpt lat="45.407513672288154" lon="10.620334512518902"><ele>93.0</ele><time>2026-04-02T08:48:15Z</time></trkpt><trkpt lat="45.40759031765865" lon="10.620399285480246"><ele>94.0</ele><time>2026-04-02T08:48:16Z</time></trkpt><trkpt lat="45.407664706170706" lon="10.620470516063177"><ele>95.0</ele><time>2026-04-02T08:48:17Z</time></trkpt><trkpt lat="45.40774154145139" lon="10.620544989537272"><ele>95.0</ele><time>2026-04-02T08:48:18Z</time></trkpt><trkpt lat="45.4078203181284" lon="10.620620595375337"><ele>95.0</ele><time>2026-04-02T08:48:19Z</time></trkpt><trkpt lat="45.40789046244846" lon="10.620684683151865"><ele>95.0</ele><time>2026-04-02T08:48:20Z</time></trkpt><trkpt lat="45.40796285875575" lon="10.62075404326801"><ele>95.0</ele><time>2026-04-02T08:48:21Z</time></trkpt><trkpt lat="45.408033924916715" lon="10.620830471430022"><ele>95.0</ele><time>2026-04-02T08:48:22Z</time></trkpt><trkpt lat="45.40810193271966" lon="10.620913877016523"><ele>95.0</ele><time>2026-04-02T08:48:23Z</time></trkpt><trkpt lat="45.408169504708" lon="10.621000231478865"><ele>95.2</ele><time>2026-04-02T08:48:24Z</time></trkpt><trkpt lat="45.40823613041104" lon="10.621091257495612"><ele>95.4</ele><time>2026-04-02T08:48:25Z</time></trkpt><trkpt lat="45.408305764882186" lon="10.621185908690723"><ele>95.6</ele><time>2026-04-02T08:48:26Z</time></trkpt><trkpt lat="45.40837908838344" lon="10.621281158670064"><ele>95.8</ele><time>2026-04-02T08:48:27Z</time></trkpt><trkpt lat="45.40845012767988" lon="10.621371379048155"><ele>96.0</ele><time>2026-04-02T08:48:28Z</time></trkpt><trkpt lat="45.408508497142925" lon="10.621447736582084"><ele>96.0</ele><time>2026-04-02T08:48:29Z</time></trkpt><trkpt lat="45.40856030465507" lon="10.621525731487957"><ele>96.0</ele><time>2026-04-02T08:48:30Z</time></trkpt><trkpt lat="45.408616268395065" lon="10.621602062229817"><ele>96.0</ele><time>2026-04-02T08:48:31Z</time></trkpt><trkpt lat="45.408675765152246" lon="10.62167597528109"><ele>96.0</ele><time>2026-04-02T08:48:32Z</time></trkpt><trkpt lat="45.40874000020561" lon="10.621746961807515"><ele>96.0</ele><time>2026-04-02T08:48:33Z</time></trkpt><trkpt lat="45.408799109294165" lon="10.621804266552045"><ele>96.0</ele><time>2026-04-02T08:48:34Z</time></trkpt><trkpt lat="45.40886976805202" lon="10.621867246293249"><ele>97.8</ele><time>2026-04-02T08:48:36Z</time></trkpt><trkpt lat="45.40895730097549" lon="10.621836660533303"><ele>99.6</ele><time>2026-04-02T08:48:55Z</time></trkpt><trkpt lat="45.4090097304052" lon="10.62170725353151"><ele>101.4</ele><time>2026-04-02T08:48:56.999Z</time></trkpt><trkpt lat="45.40905732183315" lon="10.621577322393188"><ele>103.2</ele><time>2026-04-02T08:48:57.999Z</time></trkpt><trkpt lat="45.409123629181366" lon="10.621427976104503"><ele>105.0</ele><time>2026-04-02T08:48:58.999Z</time></trkpt><trkpt lat="45.40916090891294" lon="10.621323080206988"><ele>106.25</ele><time>2026-04-02T08:48:59.999Z</time></trkpt><trkpt lat="45.40917592956309" lon="10.621140925359251"><ele>107.5</ele><time>2026-04-02T08:49:01.999Z</time></trkpt><trkpt lat="45.40919839681468" lon="10.621033505573783"><ele>108.75</ele><time>2026-04-02T08:49:02.999Z</time></trkpt><trkpt lat="45.40924582769333" lon="10.620899034629767"><ele>110.0</ele><time>2026-04-02T08:49:03.999Z</time></trkpt><trkpt lat="45.40931376006818" lon="10.620723507749666"><ele>109.99999999999999</ele><time>2026-04-02T08:49:04.999Z</time></trkpt><trkpt lat="45.40937344821157" lon="10.620578158593286"><ele>110.0</ele><time>2026-04-02T08:49:05.999Z</time></trkpt><trkpt lat="45.40941660568357" lon="10.620480238927573"><ele>110.0</ele><time>2026-04-02T08:49:06.999Z</time></trkpt><trkpt lat="45.409456929280935" lon="10.62038730789901"><ele>110.0</ele><time>2026-04-02T08:49:07.999Z</time></trkpt><trkpt lat="45.4095065772963" lon="10.620282861563854"><ele>109.99999999999999</ele><time>2026-04-02T08:49:08.999Z</time></trkpt><trkpt lat="45.40954755873841" lon="10.620210998357917"><ele>110.0</ele><time>2026-04-02T08:49:09.999Z</time></trkpt><trkpt lat="45.40962335055544" lon="10.620162706027395"><ele>110.83333333333333</ele><time>2026-04-02T08:49:14.999Z</time></trkpt><trkpt lat="45.40960380425989" lon="10.62005718294429"><ele>111.66666666666666</ele><time>2026-04-02T08:49:16.999Z</time></trkpt><trkpt lat="45.40954651899268" lon="10.61991854266117"><ele>112.5</ele><time>2026-04-02T08:49:18.999Z</time></trkpt><trkpt lat="45.40952511712405" lon="10.619818179039825"><ele>113.33333333333334</ele><time>2026-04-02T08:49:19.999Z</time></trkpt><trkpt lat="45.409489524857804" lon="10.619704446565894"><ele>114.16666666666667</ele><time>2026-04-02T08:49:20.999Z</time></trkpt><trkpt lat="45.40946491974057" lon="10.619585778369094"><ele>115.0</ele><time>2026-04-02T08:49:21.999Z</time></trkpt><trkpt lat="45.40943494398773" lon="10.619464609599536"><ele>115.33333333333334</ele><time>2026-04-02T08:49:22.999Z</time></trkpt><trkpt lat="45.409409384247105" lon="10.619353727947288"><ele>115.66666666666667</ele><time>2026-04-02T08:49:23.999Z</time></trkpt><trkpt lat="45.40938762144623" lon="10.619253012613179"><ele>116.0</ele><time>2026-04-02T08:49:24.999Z</time></trkpt><trkpt lat="45.40936394274289" lon="10.619152774778833"><ele>116.33333333333334</ele><time>2026-04-02T08:49:25.999Z</time></trkpt><trkpt lat="45.409338749015284" lon="10.619045683072438"><ele>116.66666666666667</ele><time>2026-04-02T08:49:26.999Z</time></trkpt><trkpt lat="45.40931579588528" lon="10.618935004683896"><ele>117.0</ele><time>2026-04-02T08:49:27.999Z</time></trkpt><trkpt lat="45.409298395857284" lon="10.618820974931321"><ele>117.0</ele><time>2026-04-02T08:49:28.999Z</time></trkpt><trkpt lat="45.40928416374159" lon="10.618697899454576"><ele>117.0</ele><time>2026-04-02T08:49:29.999Z</time></trkpt><trkpt lat="45.40926948224666" lon="10.618575120943829"><ele>117.0</ele><time>2026-04-02T08:49:30.999Z</time></trkpt><trkpt lat="45.409255506706096" lon="10.618452419398517"><ele>117.0</ele><time>2026-04-02T08:49:31.999Z</time></trkpt><trkpt lat="45.40924633813028" lon="10.618332638055785"><ele>117.0</ele><time>2026-04-02T08:49:32.999Z</time></trkpt><trkpt lat="45.40924166104595" lon="10.618221568860951"><ele>117.0</ele><time>2026-04-02T08:49:33.999Z</time></trkpt><trkpt lat="45.409239682928494" lon="10.618114643121219"><ele>117.16666666666667</ele><time>2026-04-02T08:49:34.999Z</time></trkpt><trkpt lat="45.409233446922855" lon="10.618010437691076"><ele>117.33333333333334</ele><time>2026-04-02T08:49:35.999Z</time></trkpt><trkpt lat="45.409216750130604" lon="10.617919309043675"><ele>117.5</ele><time>2026-04-02T08:49:36.999Z</time></trkpt><trkpt lat="45.4091779555879" lon="10.61782564660962"><ele>117.66666666666667</ele><time>2026-04-02T08:49:37.999Z</time></trkpt><trkpt lat="45.40912380366721" lon="10.617734880148987"><ele>117.83333333333334</ele><time>2026-04-02T08:49:38.999Z</time></trkpt><trkpt lat="45.40905421944302" lon="10.617647538054642"><ele>118.0</ele><time>2026-04-02T08:49:39.999Z</time></trkpt><trkpt lat="45.40897978710093" lon="10.617569743700376"><ele>118.2</ele><time>2026-04-02T08:49:40.999Z</time></trkpt><trkpt lat="45.40889315056771" lon="10.617491189664573"><ele>118.4</ele><time>2026-04-02T08:49:41.999Z</time></trkpt><trkpt lat="45.408796673379285" lon="10.61740197097166"><ele>118.60000000000001</ele><time>2026-04-02T08:49:42.999Z</time></trkpt><trkpt lat="45.4087014846086" lon="10.617315645945077"><ele>118.80000000000001</ele><time>2026-04-02T08:49:43.999Z</time></trkpt><trkpt lat="45.40862668077951" lon="10.617237672317794"><ele>119.0</ele><time>2026-04-02T08:49:44.999Z</time></trkpt><trkpt lat="45.408575832278046" lon="10.61718004079807"><ele>118.66666666666666</ele><time>2026-04-02T08:49:45.999Z</time></trkpt><trkpt lat="45.40852843564151" lon="10.61705789818499"><ele>118.33333333333333</ele><time>2026-04-02T08:49:47.999Z</time></trkpt><trkpt lat="45.408563233580566" lon="10.616907279836191"><ele>118.0</ele><time>2026-04-02T08:49:49.999Z</time></trkpt><trkpt lat="45.40859345246693" lon="10.61682167760276"><ele>117.66666666666666</ele><time>2026-04-02T08:49:50.999Z</time></trkpt><trkpt lat="45.40861341723612" lon="10.616725424260604"><ele>117.33333333333333</ele><time>2026-04-02T08:49:51.999Z</time></trkpt><trkpt lat="45.40862482452706" lon="10.616599667988421"><ele>117.0</ele><time>2026-04-02T08:49:52.999Z</time></trkpt><trkpt lat="45.408635872554754" lon="10.616434236789773"><ele>117.0</ele><time>2026-04-02T08:49:53.999Z</time></trkpt><trkpt lat="45.40864511170693" lon="10.616232802385753"><ele>117.0</ele><time>2026-04-02T08:49:54.999Z</time></trkpt><trkpt lat="45.40866403846644" lon="10.616022400690744"><ele>117.0</ele><time>2026-04-02T08:49:55.999Z</time></trkpt><trkpt lat="45.40868605646545" lon="10.615792103303155"><ele>117.0</ele><time>2026-04-02T08:49:56.999Z</time></trkpt><trkpt lat="45.40871610822765" lon="10.615559613412032"><ele>117.0</ele><time>2026-04-02T08:49:57.999Z</time></trkpt><trkpt lat="45.40874028323319" lon="10.615375287709417"><ele>117.0</ele><time>2026-04-02T08:49:58.999Z</time></trkpt><trkpt lat="45.40876033820517" lon="10.615212002294834"><ele>117.0</ele><time>2026-04-02T08:49:59.999Z</time></trkpt><trkpt lat="45.40878040685984" lon="10.615059062102686"><ele>117.0</ele><time>2026-04-02T08:50:00.999Z</time></trkpt><trkpt lat="45.40879831979409" lon="10.614924091820116"><ele>116.99999999999999</ele><time>2026-04-02T08:50:01.999Z</time></trkpt><trkpt lat="45.40881583007" lon="10.614805566439685"><ele>116.99999999999999</ele><time>2026-04-02T08:50:02.999Z</time></trkpt><trkpt lat="45.4088345249047" lon="10.614682561444372"><ele>117.0</ele><time>2026-04-02T08:50:03.999Z</time></trkpt><trkpt lat="45.408857772384586" lon="10.614550668060975"><ele>117.0</ele><time>2026-04-02T08:50:04.999Z</time></trkpt><trkpt lat="45.40888542026595" lon="10.614397255959538"><ele>117.5</ele><time>2026-04-02T08:50:05.999Z</time></trkpt><trkpt lat="45.40891913837473" lon="10.61422446995477"><ele>118.0</ele><time>2026-04-02T08:50:06.999Z</time></trkpt><trkpt lat="45.408953823488446" lon="10.614037249767518"><ele>118.5</ele><time>2026-04-02T08:50:07.999Z</time></trkpt><trkpt lat="45.408987806680834" lon="10.613846930968158"><ele>119.0</ele><time>2026-04-02T08:50:08.999Z</time></trkpt><trkpt lat="45.40902269045678" lon="10.613658298360347"><ele>118.2</ele><time>2026-04-02T08:50:09.999Z</time></trkpt><trkpt lat="45.40905659838753" lon="10.613469045209476"><ele>117.4</ele><time>2026-04-02T08:50:10.999Z</time></trkpt><trkpt lat="45.40908606416383" lon="10.613308399511197"><ele>116.6</ele><time>2026-04-02T08:50:11.999Z</time></trkpt><trkpt lat="45.40910737596555" lon="10.61319433919629"><ele>115.8</ele><time>2026-04-02T08:50:12.999Z</time></trkpt><trkpt lat="45.40913834683779" lon="10.613110124827722"><ele>115.0</ele><time>2026-04-02T08:50:14.999Z</time></trkpt><trkpt lat="45.409210850842356" lon="10.61311260037672"><ele>115.0</ele><time>2026-04-02T08:52:35.999Z</time></trkpt><trkpt lat="45.40932871834485" lon="10.613170681349851"><ele>115.0</ele><time>2026-04-02T08:52:37.999Z</time></trkpt><trkpt lat="45.4094103281112" lon="10.613228989187512"><ele>115.0</ele><time>2026-04-02T08:52:38.999Z</time></trkpt><trkpt lat="45.40953283465757" lon="10.613296325568122"><ele>115.0</ele><time>2026-04-02T08:52:40Z</time></trkpt><trkpt lat="45.409675942353964" lon="10.613370354306632"><ele>115.8</ele><time>2026-04-02T08:52:41Z</time></trkpt><trkpt lat="45.409785977328276" lon="10.613436928129117"><ele>116.6</ele><time>2026-04-02T08:52:42Z</time></trkpt><trkpt lat="45.409875193462625" lon="10.613481348514883"><ele>117.4</ele><time>2026-04-02T08:52:43Z</time></trkpt><trkpt lat="45.40996059607682" lon="10.61352135166154"><ele>118.2</ele><time>2026-04-02T08:52:44Z</time></trkpt><trkpt lat="45.41005308875191" lon="10.613572634651117"><ele>119.0</ele><time>2026-04-02T08:52:45Z</time></trkpt><trkpt lat="45.410152473762125" lon="10.613630550152546"><ele>118.80000000000001</ele><time>2026-04-02T08:52:46Z</time></trkpt><trkpt lat="45.41026067406484" lon="10.6136926528656"><ele>118.60000000000001</ele><time>2026-04-02T08:52:47Z</time></trkpt><trkpt lat="45.41036474806893" lon="10.613755011355398"><ele>118.4</ele><time>2026-04-02T08:52:48Z</time></trkpt><trkpt lat="45.41045362445742" lon="10.613814372644605"><ele>118.2</ele><time>2026-04-02T08:52:49Z</time></trkpt><trkpt lat="45.41053259525889" lon="10.613861767964842"><ele>118.0</ele><time>2026-04-02T08:52:50Z</time></trkpt><trkpt lat="45.41060362658114" lon="10.613903934414939"><ele>118.0</ele><time>2026-04-02T08:52:51Z</time></trkpt><trkpt lat="45.41067722658822" lon="10.613993572918005"><ele>118.00000000000001</ele><time>2026-04-02T08:52:53Z</time></trkpt><trkpt lat="45.41070265080134" lon="10.614159250220814"><ele>118.00000000000001</ele><time>2026-04-02T08:52:55Z</time></trkpt><trkpt lat="45.41068509834199" lon="10.61428259321045"><ele>118.0</ele><time>2026-04-02T08:52:56Z</time></trkpt><trkpt lat="45.41065560788873" lon="10.614418922085148"><ele>118.0</ele><time>2026-04-02T08:52:57Z</time></trkpt><trkpt lat="45.410629624076776" lon="10.61457141349821"><ele>117.5</ele><time>2026-04-02T08:52:58Z</time></trkpt><trkpt lat="45.41060819205297" lon="10.614736282689343"><ele>117.0</ele><time>2026-04-02T08:52:59Z</time></trkpt><trkpt lat="45.410584167667395" lon="10.614937973654534"><ele>116.5</ele><time>2026-04-02T08:53:00Z</time></trkpt><trkpt lat="45.41056340885746" lon="10.615144275685672"><ele>116.0</ele><time>2026-04-02T08:53:01Z</time></trkpt><trkpt lat="45.41054311522595" lon="10.61535632446375"><ele>115.66666666666666</ele><time>2026-04-02T08:53:02Z</time></trkpt><trkpt lat="45.41051690999282" lon="10.615587275130506"><ele>115.33333333333334</ele><time>2026-04-02T08:53:03Z</time></trkpt><trkpt lat="45.41048890038527" lon="10.615836809196722"><ele>115.0</ele><time>2026-04-02T08:53:04Z</time></trkpt><trkpt lat="45.41045915983899" lon="10.616102933267252"><ele>115.33333333333334</ele><time>2026-04-02T08:53:05Z</time></trkpt><trkpt lat="45.410429577606976" lon="10.616378392418941"><ele>115.66666666666666</ele><time>2026-04-02T08:53:06Z</time></trkpt><trkpt lat="45.41040929897721" lon="10.616650667613602"><ele>116.0</ele><time>2026-04-02T08:53:07Z</time></trkpt><trkpt lat="45.41040271862846" lon="10.616920978958316"><ele>115.66666666666666</ele><time>2026-04-02T08:53:08Z</time></trkpt><trkpt lat="45.41040328793286" lon="10.61719228299056"><ele>115.33333333333334</ele><time>2026-04-02T08:53:09Z</time></trkpt><trkpt lat="45.41040652357849" lon="10.617464110738416"><ele>115.0</ele><time>2026-04-02T08:53:10Z</time></trkpt><trkpt lat="45.410413779396826" lon="10.617747545021984"><ele>115.66666666666667</ele><time>2026-04-02T08:53:11Z</time></trkpt><trkpt lat="45.410420824685936" lon="10.618041112881933"><ele>116.33333333333334</ele><time>2026-04-02T08:53:12Z</time></trkpt><trkpt lat="45.410420164784746" lon="10.61833287162236"><ele>117.0</ele><time>2026-04-02T08:53:13Z</time></trkpt><trkpt lat="45.41041731569222" lon="10.61862445404738"><ele>116.66666666666666</ele><time>2026-04-02T08:53:14Z</time></trkpt><trkpt lat="45.410411099595066" lon="10.618914190245397"><ele>116.33333333333333</ele><time>2026-04-02T08:53:15Z</time></trkpt><trkpt lat="45.41040798414517" lon="10.619194571028602"><ele>116.0</ele><time>2026-04-02T08:53:16Z</time></trkpt><trkpt lat="45.41040200930568" lon="10.619457010487345"><ele>116.33333333333333</ele><time>2026-04-02T08:53:17Z</time></trkpt><trkpt lat="45.41039231860064" lon="10.619693822539277"><ele>116.66666666666666</ele><time>2026-04-02T08:53:18Z</time></trkpt><trkpt lat="45.410383051817526" lon="10.619914533434489"><ele>117.0</ele><time>2026-04-02T08:53:19Z</time></trkpt><trkpt lat="45.410375420426064" lon="10.620116809983603"><ele>117.0</ele><time>2026-04-02T08:53:20Z</time></trkpt><trkpt lat="45.4103758695212" lon="10.620293433064669"><ele>117.0</ele><time>2026-04-02T08:53:21Z</time></trkpt><trkpt lat="45.41039286461475" lon="10.62044903185164"><ele>117.0</ele><time>2026-04-02T08:53:22Z</time></trkpt><trkpt lat="45.41042109791049" lon="10.620616442908839"><ele>117.0</ele><time>2026-04-02T08:53:23Z</time></trkpt><trkpt lat="45.41050424184087" lon="10.62076291573628"><ele>116.25</ele><time>2026-04-02T08:53:24Z</time></trkpt><trkpt lat="45.41058097655143" lon="10.62090636772797"><ele>115.5</ele><time>2026-04-02T08:53:25Z</time></trkpt><trkpt lat="45.410669700328555" lon="10.621047351934214"><ele>114.75</ele><time>2026-04-02T08:53:26Z</time></trkpt><trkpt lat="45.41075906744293" lon="10.62118831089708"><ele>114.0</ele><time>2026-04-02T08:53:27Z</time></trkpt><trkpt lat="45.41083271661414" lon="10.62130837644891"><ele>114.0</ele><time>2026-04-02T08:53:28Z</time></trkpt><trkpt lat="45.410895629747564" lon="10.62142420091714"><ele>114.0</ele><time>2026-04-02T08:53:29Z</time></trkpt><trkpt lat="45.41095242747988" lon="10.621552602860787"><ele>114.0</ele><time>2026-04-02T08:53:30Z</time></trkpt><trkpt lat="45.41100204453287" lon="10.621689342774125"><ele>114.0</ele><time>2026-04-02T08:53:31Z</time></trkpt><trkpt lat="45.41104475369204" lon="10.621832807150401"><ele>114.0</ele><time>2026-04-02T08:53:32Z</time></trkpt><trkpt lat="45.41108077972769" lon="10.621986314656594"><ele>114.0</ele><time>2026-04-02T08:53:32.999Z</time></trkpt><trkpt lat="45.41111348045025" lon="10.622143337458528"><ele>114.0</ele><time>2026-04-02T08:53:33.999Z</time></trkpt><trkpt lat="45.41113747599721" lon="10.622287199741244"><ele>114.0</ele><time>2026-04-02T08:53:34.999Z</time></trkpt><trkpt lat="45.41115982596343" lon="10.622413844702505"><ele>114.0</ele><time>2026-04-02T08:53:35.999Z</time></trkpt><trkpt lat="45.411184960467544" lon="10.622529924491348"><ele>114.0</ele><time>2026-04-02T08:53:36.999Z</time></trkpt><trkpt lat="45.41120009529528" lon="10.622632634726148"><ele>114.0</ele><time>2026-04-02T08:53:37.999Z</time></trkpt><trkpt lat="45.4112071559922" lon="10.622785091796288"><ele>114.0</ele><time>2026-04-02T08:53:39.999Z</time></trkpt><trkpt lat="45.411217584481975" lon="10.62292656153572"><ele>114.0</ele><time>2026-04-02T08:53:41.999Z</time></trkpt><trkpt lat="45.41124400755409" lon="10.623022281325168"><ele>114.0</ele><time>2026-04-02T08:53:43.999Z</time></trkpt><trkpt lat="45.41125806833577" lon="10.623122582075352"><ele>114.0</ele><time>2026-04-02T08:53:47.999Z</time></trkpt><trkpt lat="45.41120564434491" lon="10.623192258469121"><ele>114.0</ele><time>2026-04-02T08:53:48.999Z</time></trkpt><trkpt lat="45.41111124571887" lon="10.623231492692188"><ele>113.25</ele><time>2026-04-02T08:53:49.999Z</time></trkpt><trkpt lat="45.41102943075334" lon="10.623311567967017"><ele>112.5</ele><time>2026-04-02T08:53:50.999Z</time></trkpt><trkpt lat="45.41092509242479" lon="10.623403479314383"><ele>111.75</ele><time>2026-04-02T08:53:51.999Z</time></trkpt><trkpt lat="45.41081409224029" lon="10.623505709531582"><ele>111.0</ele><time>2026-04-02T08:53:52.999Z</time></trkpt><trkpt lat="45.41071719902254" lon="10.6236107130508"><ele>111.5</ele><time>2026-04-02T08:53:53.999Z</time></trkpt><trkpt lat="45.410633152750016" lon="10.623726240021496"><ele>112.0</ele><time>2026-04-02T08:53:54.999Z</time></trkpt><trkpt lat="45.41056717364424" lon="10.623851655771679"><ele>112.5</ele><time>2026-04-02T08:53:55.999Z</time></trkpt><trkpt lat="45.4105122215404" lon="10.623991058979447"><ele>113.0</ele><time>2026-04-02T08:53:56.999Z</time></trkpt><trkpt lat="45.41046887079" lon="10.624138324426061"><ele>110.0</ele><time>2026-04-02T08:53:57.999Z</time></trkpt><trkpt lat="45.41043600750994" lon="10.624289232415977"><ele>107.00000000000001</ele><time>2026-04-02T08:53:58.999Z</time></trkpt><trkpt lat="45.41041906362006" lon="10.624431336972334"><ele>104.0</ele><time>2026-04-02T08:53:59.999Z</time></trkpt><trkpt lat="45.410408989203574" lon="10.624570095272599"><ele>101.0</ele><time>2026-04-02T08:54:00.999Z</time></trkpt><trkpt lat="45.410400829752206" lon="10.624715573932393"><ele>98.0</ele><time>2026-04-02T08:54:01.999Z</time></trkpt><trkpt lat="45.410384634196994" lon="10.624870413027867"><ele>98.0</ele><time>2026-04-02T08:54:02.999Z</time></trkpt><trkpt lat="45.41035991965486" lon="10.625029666369361"><ele>98.0</ele><time>2026-04-02T08:54:03.999Z</time></trkpt><trkpt lat="45.41032515811534" lon="10.625191433710077"><ele>98.0</ele><time>2026-04-02T08:54:04.999Z</time></trkpt><trkpt lat="45.410283535748" lon="10.62534331390593"><ele>98.0</ele><time>2026-04-02T08:54:05.999Z</time></trkpt><trkpt lat="45.410233637789126" lon="10.625485329145995"><ele>97.75</ele><time>2026-04-02T08:54:06.999Z</time></trkpt><trkpt lat="45.41016837013387" lon="10.625622383507674"><ele>97.5</ele><time>2026-04-02T08:54:07.999Z</time></trkpt><trkpt lat="45.41008862988329" lon="10.62574218428138"><ele>97.25</ele><time>2026-04-02T08:54:08.999Z</time></trkpt><trkpt lat="45.40999875563208" lon="10.62584287110964"><ele>97.0</ele><time>2026-04-02T08:54:09.999Z</time></trkpt><trkpt lat="45.4099045079584" lon="10.62593359372445"><ele>97.0</ele><time>2026-04-02T08:54:10.999Z</time></trkpt><trkpt lat="45.409806685259205" lon="10.626023643042958"><ele>97.0</ele><time>2026-04-02T08:54:11.999Z</time></trkpt><trkpt lat="45.40970833068944" lon="10.626111091493181"><ele>97.0</ele><time>2026-04-02T08:54:12.999Z</time></trkpt><trkpt lat="45.409608641314335" lon="10.62619684614859"><ele>97.0</ele><time>2026-04-02T08:54:13.999Z</time></trkpt><trkpt lat="45.40951566358278" lon="10.626275127258374"><ele>96.6</ele><time>2026-04-02T08:54:14.999Z</time></trkpt><trkpt lat="45.409425038386566" lon="10.626349961931055"><ele>96.19999999999999</ele><time>2026-04-02T08:54:15.999Z</time></trkpt><trkpt lat="45.40933555211983" lon="10.626425572612725"><ele>95.8</ele><time>2026-04-02T08:54:16.999Z</time></trkpt><trkpt lat="45.40924785463425" lon="10.6264985055227"><ele>95.4</ele><time>2026-04-02T08:54:17.999Z</time></trkpt><trkpt lat="45.40916507978893" lon="10.626560866766313"><ele>95.0</ele><time>2026-04-02T08:54:18.999Z</time></trkpt><trkpt lat="45.40909169929519" lon="10.62659806439157"><ele>95.0</ele><time>2026-04-02T08:54:19.999Z</time></trkpt><trkpt lat="45.40898945452515" lon="10.626597065373783"><ele>95.0</ele><time>2026-04-02T08:54:21.999Z</time></trkpt><trkpt lat="45.4089727587537" lon="10.626414992796242"><ele>95.0</ele><time>2026-04-02T08:54:23.999Z</time></trkpt><trkpt lat="45.40882670525793" lon="10.626468826041815"><ele>95.0</ele><time>2026-04-02T08:54:24.999Z</time></trkpt><trkpt lat="45.40874690452986" lon="10.626467128243325"><ele>95.0</ele><time>2026-04-02T08:54:26.999Z</time></trkpt><trkpt lat="45.408681345262224" lon="10.626526002016652"><ele>95.0</ele><time>2026-04-02T08:54:28.999Z</time></trkpt><trkpt lat="45.40862575393133" lon="10.626587051205417"><ele>95.0</ele><time>2026-04-02T08:54:30.999Z</time></trkpt><trkpt lat="45.408489344682685" lon="10.626683846970817"><ele>95.0</ele><time>2026-04-02T08:54:33.999Z</time></trkpt><trkpt lat="45.40883878371654" lon="10.626866208211311"><ele>95.0</ele><time>2026-04-02T08:54:38.999Z</time></trkpt><trkpt lat="45.408727812171435" lon="10.626472235432491"><ele>95.0</ele><time>2026-04-02T08:56:05.999Z</time></trkpt><trkpt lat="45.40878159621937" lon="10.626519836723208"><ele>95.0</ele><time>2026-04-02T08:58:42.999Z</time></trkpt><trkpt lat="45.40884070854469" lon="10.626581694364834"><ele>95.0</ele><time>2026-04-02T08:58:47.999Z</time></trkpt><trkpt lat="45.40877716878709" lon="10.62653524586328"><ele>95.14285714285714</ele><time>2026-04-02T08:59:07Z</time></trkpt><trkpt lat="45.40869935674388" lon="10.626523354826132"><ele>95.28571428571429</ele><time>2026-04-02T09:03:37Z</time></trkpt><trkpt lat="45.40862604629312" lon="10.626541627848706"><ele>95.42857142857142</ele><time>2026-04-02T09:03:42Z</time></trkpt><trkpt lat="45.408560505895444" lon="10.626586576818424"><ele>95.57142857142857</ele><time>2026-04-02T09:03:47Z</time></trkpt><trkpt lat="45.40850228583402" lon="10.626629991820845"><ele>95.71428571428571</ele><time>2026-04-02T09:04:05Z</time></trkpt><trkpt lat="45.40856714785785" lon="10.626612898684408"><ele>95.85714285714285</ele><time>2026-04-02T09:04:33.999Z</time></trkpt><trkpt lat="45.40863167492285" lon="10.626588752950516"><ele>96.0</ele><time>2026-04-02T09:04:39.999Z</time></trkpt><trkpt lat="45.40869468960054" lon="10.626550871047174"><ele>96.0</ele><time>2026-04-02T09:04:43.999Z</time></trkpt><trkpt lat="45.408741083670854" lon="10.626469551610194"><ele>96.0</ele><time>2026-04-02T09:05:31Z</time></trkpt><trkpt lat="45.40877136459246" lon="10.626575456792974"><ele>96.0</ele><time>2026-04-02T09:05:34Z</time></trkpt><trkpt lat="45.40868458731748" lon="10.626644477795608"><ele>96.0</ele><time>2026-04-02T09:05:36Z</time></trkpt><trkpt lat="45.40861839193971" lon="10.626685072545111"><ele>96.0</ele><time>2026-04-02T09:05:39Z</time></trkpt><trkpt lat="45.408580732852634" lon="10.626768178243822"><ele>96.0</ele><time>2026-04-02T09:05:43Z</time></trkpt><trkpt lat="45.40856918980528" lon="10.62687379830318"><ele>96.8</ele><time>2026-04-02T09:09:53Z</time></trkpt><trkpt lat="45.40858069137056" lon="10.626988626152196"><ele>97.6</ele><time>2026-04-02T09:09:55Z</time></trkpt><trkpt lat="45.408488420766915" lon="10.627098699037456"><ele>98.4</ele><time>2026-04-02T09:09:57Z</time></trkpt><trkpt lat="45.40841291276894" lon="10.627139054816183"><ele>99.2</ele><time>2026-04-02T09:09:58Z</time></trkpt><trkpt lat="45.408335216233766" lon="10.627178632164766"><ele>100.0</ele><time>2026-04-02T09:09:59Z</time></trkpt><trkpt lat="45.4082525620075" lon="10.627219686146688"><ele>100.0</ele><time>2026-04-02T09:10:00Z</time></trkpt><trkpt lat="45.4081647633676" lon="10.627257230620367"><ele>100.0</ele><time>2026-04-02T09:10:01Z</time></trkpt><trkpt lat="45.40807358265341" lon="10.627290456407327"><ele>100.0</ele><time>2026-04-02T09:10:02Z</time></trkpt><trkpt lat="45.40797908856497" lon="10.627315978816899"><ele>100.0</ele><time>2026-04-02T09:10:03Z</time></trkpt><trkpt lat="45.40788235614196" lon="10.627348482833169"><ele>100.0</ele><time>2026-04-02T09:10:04Z</time></trkpt><trkpt lat="45.407786804758956" lon="10.6273925678663"><ele>100.2</ele><time>2026-04-02T09:10:05Z</time></trkpt><trkpt lat="45.40769237061394" lon="10.627448648678723"><ele>100.4</ele><time>2026-04-02T09:10:06Z</time></trkpt><trkpt lat="45.407603194035616" lon="10.627507149279916"><ele>100.6</ele><time>2026-04-02T09:10:07Z</time></trkpt><trkpt lat="45.40751646103967" lon="10.627551155412293"><ele>100.8</ele><time>2026-04-02T09:10:08Z</time></trkpt><trkpt lat="45.40742801647802" lon="10.627579102469001"><ele>101.0</ele><time>2026-04-02T09:10:09Z</time></trkpt><trkpt lat="45.407338887833966" lon="10.627609622675363"><ele>101.0</ele><time>2026-04-02T09:10:10Z</time></trkpt><trkpt lat="45.40725386806926" lon="10.627661248604799"><ele>101.0</ele><time>2026-04-02T09:10:11Z</time></trkpt><trkpt lat="45.40716640155299" lon="10.627695990741884"><ele>101.0</ele><time>2026-04-02T09:10:12Z</time></trkpt><trkpt lat="45.40708015784164" lon="10.62769502820244"><ele>101.0</ele><time>2026-04-02T09:10:13Z</time></trkpt><trkpt lat="45.40698648454377" lon="10.627679793216885"><ele>101.0</ele><time>2026-04-02T09:10:14Z</time></trkpt><trkpt lat="45.40689375181773" lon="10.627663731009944"><ele>100.8</ele><time>2026-04-02T09:10:15Z</time></trkpt><trkpt lat="45.40679697826117" lon="10.627647070629243"><ele>100.6</ele><time>2026-04-02T09:10:16Z</time></trkpt><trkpt lat="45.40669349463415" lon="10.627632143817301"><ele>100.4</ele><time>2026-04-02T09:10:17Z</time></trkpt><trkpt lat="45.406586618567125" lon="10.627610985414272"><ele>100.2</ele><time>2026-04-02T09:10:18Z</time></trkpt><trkpt lat="45.40647657559428" lon="10.62758488322792"><ele>100.0</ele><time>2026-04-02T09:10:19Z</time></trkpt><trkpt lat="45.40636310745358" lon="10.627559216184773"><ele>100.25</ele><time>2026-04-02T09:10:20Z</time></trkpt><trkpt lat="45.406248584214794" lon="10.627529987655748"><ele>100.5</ele><time>2026-04-02T09:10:21Z</time></trkpt><trkpt lat="45.4061318769499" lon="10.627494857808536"><ele>100.75</ele><time>2026-04-02T09:10:22Z</time></trkpt><trkpt lat="45.4060124675487" lon="10.627455738427797"><ele>101.0</ele><time>2026-04-02T09:10:23Z</time></trkpt><trkpt lat="45.40588146361468" lon="10.627415323076875"><ele>101.0</ele><time>2026-04-02T09:10:24Z</time></trkpt><trkpt lat="45.405739553641276" lon="10.627370186885676"><ele>101.0</ele><time>2026-04-02T09:10:25Z</time></trkpt><trkpt lat="45.4055805070763" lon="10.627309665235114"><ele>101.0</ele><time>2026-04-02T09:10:26Z</time></trkpt><trkpt lat="45.40540544625186" lon="10.627230384761456"><ele>103.0</ele><time>2026-04-02T09:10:27Z</time></trkpt><trkpt lat="45.40521345451432" lon="10.627129644491589"><ele>105.0</ele><time>2026-04-02T09:10:28Z</time></trkpt><trkpt lat="45.40500097099202" lon="10.627027889810531"><ele>107.0</ele><time>2026-04-02T09:10:29Z</time></trkpt><trkpt lat="45.404764830495566" lon="10.626937811135129"><ele>112.33333333333333</ele><time>2026-04-02T09:10:30Z</time></trkpt><trkpt lat="45.4045679526145" lon="10.62687740056024"><ele>117.66666666666666</ele><time>2026-04-02T09:10:31Z</time></trkpt><trkpt lat="45.40440207719297" lon="10.626830710150525"><ele>123.0</ele><time>2026-04-02T09:10:32Z</time></trkpt><trkpt lat="45.40424659399765" lon="10.626799196350406"><ele>123.0</ele><time>2026-04-02T09:10:33Z</time></trkpt><trkpt lat="45.40410030145669" lon="10.626757430386695"><ele>123.0</ele><time>2026-04-02T09:10:34Z</time></trkpt><trkpt lat="45.40395452049576" lon="10.626797043537202"><ele>123.0</ele><time>2026-04-02T09:10:35Z</time></trkpt><trkpt lat="45.403835804941" lon="10.626813730482676"><ele>123.0</ele><time>2026-04-02T09:10:36Z</time></trkpt><trkpt lat="45.403717595637175" lon="10.626830423708805"><ele>123.2</ele><time>2026-04-02T09:10:37Z</time></trkpt><trkpt lat="45.4036039919163" lon="10.626825025657151"><ele>123.4</ele><time>2026-04-02T09:10:37.999Z</time></trkpt><trkpt lat="45.40351131921518" lon="10.626808650894493"><ele>123.60000000000001</ele><time>2026-04-02T09:10:38.999Z</time></trkpt><trkpt lat="45.40344507290279" lon="10.626769995863013"><ele>123.80000000000001</ele><time>2026-04-02T09:10:39.999Z</time></trkpt><trkpt lat="45.40337036529209" lon="10.626675567935594"><ele>124.0</ele><time>2026-04-02T09:10:41.999Z</time></trkpt><trkpt lat="45.40336911342891" lon="10.626522693268472"><ele>124.00000000000001</ele><time>2026-04-02T09:10:43.999Z</time></trkpt><trkpt lat="45.40340940717631" lon="10.626435983303315"><ele>124.0</ele><time>2026-04-02T09:10:44.999Z</time></trkpt><trkpt lat="45.403436319094354" lon="10.626352165132717"><ele>124.0</ele><time>2026-04-02T09:10:45.999Z</time></trkpt><trkpt lat="45.40345273325672" lon="10.626257186712419"><ele>124.0</ele><time>2026-04-02T09:10:46.999Z</time></trkpt><trkpt lat="45.40346703142271" lon="10.62611266884984"><ele>124.00000000000001</ele><time>2026-04-02T09:10:48.999Z</time></trkpt><trkpt lat="45.40346460356693" lon="10.62595207849561"><ele>124.0</ele><time>2026-04-02T09:10:50.999Z</time></trkpt><trkpt lat="45.403469942223275" lon="10.625815367910402"><ele>124.00000000000001</ele><time>2026-04-02T09:10:52.999Z</time></trkpt><trkpt lat="45.4034637197274" lon="10.625701180706356"><ele>124.0</ele><time>2026-04-02T09:10:54.999Z</time></trkpt><trkpt lat="45.40346074539018" lon="10.625599694572909"><ele>124.0</ele><time>2026-04-02T09:10:56.999Z</time></trkpt><trkpt lat="45.403482906650055" lon="10.625462231307733"><ele>124.0</ele><time>2026-04-02T09:10:59.999Z</time></trkpt><trkpt lat="45.403516922555234" lon="10.62535066517348"><ele>124.00000000000001</ele><time>2026-04-02T09:11:01.999Z</time></trkpt><trkpt lat="45.403561934956834" lon="10.625251756959427"><ele>124.0</ele><time>2026-04-02T09:11:04.999Z</time></trkpt><trkpt lat="45.40362630711157" lon="10.625157446613953"><ele>123.2</ele><time>2026-04-02T09:11:10.999Z</time></trkpt><trkpt lat="45.40373980737911" lon="10.625055248250616"><ele>122.4</ele><time>2026-04-02T09:11:12.999Z</time></trkpt><trkpt lat="45.40380558500035" lon="10.624974398343237"><ele>121.6</ele><time>2026-04-02T09:11:13.999Z</time></trkpt><trkpt lat="45.403871600577" lon="10.62488702445714"><ele>120.8</ele><time>2026-04-02T09:11:14.999Z</time></trkpt><trkpt lat="45.40392977663367" lon="10.624805711698361"><ele>120.0</ele><time>2026-04-02T09:11:15.999Z</time></trkpt><trkpt lat="45.40397322534641" lon="10.624729438102728"><ele>119.57142857142858</ele><time>2026-04-02T09:11:16.999Z</time></trkpt><trkpt lat="45.403989657512426" lon="10.624636056881478"><ele>119.14285714285714</ele><time>2026-04-02T09:11:17.999Z</time></trkpt><trkpt lat="45.40397210424508" lon="10.624534605753"><ele>118.71428571428572</ele><time>2026-04-02T09:11:18.999Z</time></trkpt><trkpt lat="45.40394985201328" lon="10.624439136440806"><ele>118.28571428571429</ele><time>2026-04-02T09:11:19.999Z</time></trkpt><trkpt lat="45.40391761497849" lon="10.624354840865184"><ele>117.85714285714286</ele><time>2026-04-02T09:11:20.999Z</time></trkpt><trkpt lat="45.40388613782028" lon="10.62427282988066"><ele>117.42857142857143</ele><time>2026-04-02T09:11:21.999Z</time></trkpt><trkpt lat="45.403853141562905" lon="10.624178475044681"><ele>117.0</ele><time>2026-04-02T09:11:22.999Z</time></trkpt><trkpt lat="45.40381478183224" lon="10.624075632128303"><ele>116.19999999999999</ele><time>2026-04-02T09:11:23.999Z</time></trkpt><trkpt lat="45.40376268562409" lon="10.623971439738359"><ele>115.39999999999999</ele><time>2026-04-02T09:11:24.999Z</time></trkpt><trkpt lat="45.40371571687222" lon="10.623855197705554"><ele>114.60000000000001</ele><time>2026-04-02T09:11:25.999Z</time></trkpt><trkpt lat="45.40365832957593" lon="10.623757522816526"><ele>113.80000000000001</ele><time>2026-04-02T09:11:26.999Z</time></trkpt><trkpt lat="45.4035966211599" lon="10.62365061943689"><ele>113.0</ele><time>2026-04-02T09:11:27.999Z</time></trkpt><trkpt lat="45.40352234950365" lon="10.623558373383501"><ele>111.80000000000001</ele><time>2026-04-02T09:11:28.999Z</time></trkpt><trkpt lat="45.40346996485654" lon="10.623450758801338"><ele>110.60000000000001</ele><time>2026-04-02T09:11:29.999Z</time></trkpt><trkpt lat="45.403428492678465" lon="10.62333669697709"><ele>109.39999999999999</ele><time>2026-04-02T09:11:30.999Z</time></trkpt><trkpt lat="45.40340951376583" lon="10.623208010921154"><ele>108.19999999999999</ele><time>2026-04-02T09:11:31.999Z</time></trkpt><trkpt lat="45.403426237673735" lon="10.623067333012864"><ele>107.0</ele><time>2026-04-02T09:11:32.999Z</time></trkpt><trkpt lat="45.40348839241474" lon="10.62293751085641"><ele>105.75</ele><time>2026-04-02T09:11:34Z</time></trkpt><trkpt lat="45.403530313611" lon="10.622791633071138"><ele>104.5</ele><time>2026-04-02T09:11:35Z</time></trkpt><trkpt lat="45.403584127614884" lon="10.622656480388889"><ele>103.25</ele><time>2026-04-02T09:11:36Z</time></trkpt><trkpt lat="45.403621824739" lon="10.622503679559436"><ele>102.0</ele><time>2026-04-02T09:11:37Z</time></trkpt><trkpt lat="45.403646738307806" lon="10.622339555355397"><ele>102.0</ele><time>2026-04-02T09:11:38Z</time></trkpt><trkpt lat="45.403670379259204" lon="10.622172246428718"><ele>102.0</ele><time>2026-04-02T09:11:39Z</time></trkpt><trkpt lat="45.40369256843504" lon="10.622006103187317"><ele>102.0</ele><time>2026-04-02T09:11:40Z</time></trkpt><trkpt lat="45.403713916246005" lon="10.621841293203587"><ele>102.0</ele><time>2026-04-02T09:11:41Z</time></trkpt><trkpt lat="45.40373757368537" lon="10.621685746364253"><ele>100.8</ele><time>2026-04-02T09:11:42Z</time></trkpt><trkpt lat="45.403755701548356" lon="10.621527551441169"><ele>99.6</ele><time>2026-04-02T09:11:43Z</time></trkpt><trkpt lat="45.4037891116115" lon="10.621373328236848"><ele>98.39999999999999</ele><time>2026-04-02T09:11:44Z</time></trkpt><trkpt lat="45.40379418781502" lon="10.621216493112982"><ele>97.19999999999999</ele><time>2026-04-02T09:11:45Z</time></trkpt><trkpt lat="45.40381873274867" lon="10.621064139559852"><ele>96.0</ele><time>2026-04-02T09:11:46Z</time></trkpt><trkpt lat="45.403843649027046" lon="10.620910011825737"><ele>95.0</ele><time>2026-04-02T09:11:47Z</time></trkpt><trkpt lat="45.40387945029971" lon="10.620758683874215"><ele>94.0</ele><time>2026-04-02T09:11:48Z</time></trkpt><trkpt lat="45.40393080493661" lon="10.620615331822021"><ele>93.0</ele><time>2026-04-02T09:11:49Z</time></trkpt><trkpt lat="45.40399385854558" lon="10.620483003602127"><ele>92.0</ele><time>2026-04-02T09:11:50Z</time></trkpt><trkpt lat="45.4040800207615" lon="10.620379583437035"><ele>92.19999999999999</ele><time>2026-04-02T09:11:51Z</time></trkpt><trkpt lat="45.40416121626255" lon="10.62026563603808"><ele>92.4</ele><time>2026-04-02T09:11:52Z</time></trkpt><trkpt lat="45.404244184827895" lon="10.62015548372478"><ele>92.6</ele><time>2026-04-02T09:11:53Z</time></trkpt><trkpt lat="45.40432665856075" lon="10.620050070020365"><ele>92.80000000000001</ele><time>2026-04-02T09:11:54Z</time></trkpt><trkpt lat="45.40440877275557" lon="10.619953375116358"><ele>93.0</ele><time>2026-04-02T09:11:55Z</time></trkpt><trkpt lat="45.40449433509897" lon="10.619857695481809"><ele>93.0</ele><time>2026-04-02T09:11:56Z</time></trkpt><trkpt lat="45.40458809421414" lon="10.619760739560112"><ele>93.0</ele><time>2026-04-02T09:11:57Z</time></trkpt><trkpt lat="45.40468277885886" lon="10.619671768339956"><ele>93.0</ele><time>2026-04-02T09:11:58Z</time></trkpt><trkpt lat="45.40477541697549" lon="10.619591332247852"><ele>93.0</ele><time>2026-04-02T09:11:59Z</time></trkpt><trkpt lat="45.40487171558546" lon="10.61951460163027"><ele>93.0</ele><time>2026-04-02T09:12:00Z</time></trkpt><trkpt lat="45.404969837727144" lon="10.61943919014739"><ele>92.4</ele><time>2026-04-02T09:12:01Z</time></trkpt><trkpt lat="45.40506788758685" lon="10.619363834109006"><ele>91.80000000000001</ele><time>2026-04-02T09:12:02Z</time></trkpt><trkpt lat="45.40515255432675" lon="10.619297553073181"><ele>91.2</ele><time>2026-04-02T09:12:03Z</time></trkpt><trkpt lat="45.40522052891602" lon="10.619248084735144"><ele>90.6</ele><time>2026-04-02T09:12:04Z</time></trkpt><trkpt lat="45.405297940571145" lon="10.619203317658899"><ele>90.0</ele><time>2026-04-02T09:12:06Z</time></trkpt><trkpt lat="45.40520935164329" lon="10.619018605863893"><ele>90.0</ele><time>2026-04-02T09:12:09Z</time></trkpt><trkpt lat="45.40508883458208" lon="10.618950562738702"><ele>90.0</ele><time>2026-04-02T09:12:11Z</time></trkpt><trkpt lat="45.405004187695376" lon="10.618913912803183"><ele>90.0</ele><time>2026-04-02T09:12:12Z</time></trkpt><trkpt lat="45.40489950818874" lon="10.618868589071084"><ele>90.0</ele><time>2026-04-02T09:12:13Z</time></trkpt><trkpt lat="45.404790448209404" lon="10.618814631340447"><ele>90.0</ele><time>2026-04-02T09:12:14Z</time></trkpt><trkpt lat="45.40467380039074" lon="10.618760187480394"><ele>90.0</ele><time>2026-04-02T09:12:15Z</time></trkpt><trkpt lat="45.40455886796397" lon="10.618713557084071"><ele>90.0</ele><time>2026-04-02T09:12:16Z</time></trkpt><trkpt lat="45.404440434245444" lon="10.618681448035"><ele>90.0</ele><time>2026-04-02T09:12:17Z</time></trkpt><trkpt lat="45.40431616000838" lon="10.618671624413361"><ele>90.0</ele><time>2026-04-02T09:12:18Z</time></trkpt><trkpt lat="45.404186856851254" lon="10.61864254980281"><ele>90.0</ele><time>2026-04-02T09:12:19Z</time></trkpt><trkpt lat="45.404044635726876" lon="10.61860975771278"><ele>90.0</ele><time>2026-04-02T09:12:20Z</time></trkpt><trkpt lat="45.40392030334868" lon="10.618569096618817"><ele>90.0</ele><time>2026-04-02T09:12:21Z</time></trkpt><trkpt lat="45.40379900413252" lon="10.618528863657511"><ele>90.0</ele><time>2026-04-02T09:12:22Z</time></trkpt><trkpt lat="45.403683111181174" lon="10.61848827048928"><ele>90.75</ele><time>2026-04-02T09:12:23Z</time></trkpt><trkpt lat="45.403568252340854" lon="10.618455556715087"><ele>91.5</ele><time>2026-04-02T09:12:24Z</time></trkpt><trkpt lat="45.40345205864888" lon="10.618431313149085"><ele>92.25</ele><time>2026-04-02T09:12:25Z</time></trkpt><trkpt lat="45.40333612402724" lon="10.618422429459835"><ele>93.0</ele><time>2026-04-02T09:12:26Z</time></trkpt><trkpt lat="45.4032174105779" lon="10.618413987062171"><ele>93.0</ele><time>2026-04-02T09:12:27Z</time></trkpt><trkpt lat="45.40309382810462" lon="10.618416417748941"><ele>93.0</ele><time>2026-04-02T09:12:28Z</time></trkpt><trkpt lat="45.402971888888956" lon="10.618415877051294"><ele>93.0</ele><time>2026-04-02T09:12:29Z</time></trkpt><trkpt lat="45.402868282617135" lon="10.61841108817441"><ele>93.0</ele><time>2026-04-02T09:12:30Z</time></trkpt><trkpt lat="45.4027880757203" lon="10.61843095786932"><ele>93.0</ele><time>2026-04-02T09:12:31Z</time></trkpt><trkpt lat="45.402717997179316" lon="10.618467986646536"><ele>93.0</ele><time>2026-04-02T09:12:32Z</time></trkpt><trkpt lat="45.40267076980811" lon="10.618544670530401"><ele>93.0</ele><time>2026-04-02T09:12:33Z</time></trkpt><trkpt lat="45.40262314161267" lon="10.618619436846233"><ele>93.0</ele><time>2026-04-02T09:12:34Z</time></trkpt><trkpt lat="45.402577710150126" lon="10.618717396271748"><ele>93.0</ele><time>2026-04-02T09:12:35Z</time></trkpt><trkpt lat="45.402522999038524" lon="10.618845013595946"><ele>93.0</ele><time>2026-04-02T09:12:36Z</time></trkpt><trkpt lat="45.40245362597491" lon="10.618975270675822"><ele>93.0</ele><time>2026-04-02T09:12:37Z</time></trkpt><trkpt lat="45.402360878480835" lon="10.619116699234052"><ele>93.66666666666667</ele><time>2026-04-02T09:12:38Z</time></trkpt><trkpt lat="45.40224988650507" lon="10.619300644750867"><ele>94.33333333333334</ele><time>2026-04-02T09:12:39Z</time></trkpt><trkpt lat="45.40213229300403" lon="10.619499540058861"><ele>95.0</ele><time>2026-04-02T09:12:40Z</time></trkpt><trkpt lat="45.40203571905982" lon="10.619656319086744"><ele>95.0</ele><time>2026-04-02T09:12:41Z</time></trkpt><trkpt lat="45.40194756532947" lon="10.619790393570085"><ele>95.0</ele><time>2026-04-02T09:12:42Z</time></trkpt><trkpt lat="45.40186176714132" lon="10.619924768513961"><ele>95.0</ele><time>2026-04-02T09:12:43Z</time></trkpt><trkpt lat="45.4017708564392" lon="10.620052639450206"><ele>95.0</ele><time>2026-04-02T09:12:44Z</time></trkpt><trkpt lat="45.40169067234851" lon="10.620179313984414"><ele>95.0</ele><time>2026-04-02T09:12:45Z</time></trkpt><trkpt lat="45.40160816742255" lon="10.620310123117614"><ele>95.0</ele><time>2026-04-02T09:12:46Z</time></trkpt><trkpt lat="45.40152793821621" lon="10.620435730509797"><ele>95.0</ele><time>2026-04-02T09:12:47Z</time></trkpt><trkpt lat="45.40144629289482" lon="10.620563329873832"><ele>95.0</ele><time>2026-04-02T09:12:48Z</time></trkpt><trkpt lat="45.40136520330932" lon="10.620693986344072"><ele>95.5</ele><time>2026-04-02T09:12:49Z</time></trkpt><trkpt lat="45.401279004950624" lon="10.620827585042964"><ele>96.0</ele><time>2026-04-02T09:12:50Z</time></trkpt><trkpt lat="45.4011848981771" lon="10.620967607762847"><ele>96.5</ele><time>2026-04-02T09:12:51Z</time></trkpt><trkpt lat="45.40109114804949" lon="10.621113505659208"><ele>97.0</ele><time>2026-04-02T09:12:52Z</time></trkpt><trkpt lat="45.4010133327213" lon="10.621235927837535"><ele>98.8</ele><time>2026-04-02T09:12:53Z</time></trkpt><trkpt lat="45.400948986907714" lon="10.621333517761055"><ele>100.6</ele><time>2026-04-02T09:12:54Z</time></trkpt><trkpt lat="45.400897199154876" lon="10.621412235530883"><ele>102.39999999999999</ele><time>2026-04-02T09:12:55Z</time></trkpt><trkpt lat="45.400785561255084" lon="10.621483097528277"><ele>104.19999999999999</ele><time>2026-04-02T09:12:57Z</time></trkpt><trkpt lat="45.40070938114472" lon="10.621476028753069"><ele>106.0</ele><time>2026-04-02T09:12:58Z</time></trkpt><trkpt lat="45.40061216202846" lon="10.621435527978154"><ele>108.25</ele><time>2026-04-02T09:12:58.999Z</time></trkpt><trkpt lat="45.4004842322731" lon="10.621378072384372"><ele>110.5</ele><time>2026-04-02T09:12:59.999Z</time></trkpt><trkpt lat="45.40035575057798" lon="10.621329667865488"><ele>112.75</ele><time>2026-04-02T09:13:00.999Z</time></trkpt><trkpt lat="45.400246547866594" lon="10.621286213385194"><ele>115.0</ele><time>2026-04-02T09:13:01.999Z</time></trkpt><trkpt lat="45.400155851054436" lon="10.621242938013207"><ele>115.00000000000001</ele><time>2026-04-02T09:13:02.999Z</time></trkpt><trkpt lat="45.40007547127576" lon="10.621206161068773"><ele>115.0</ele><time>2026-04-02T09:13:03.999Z</time></trkpt><trkpt lat="45.39999702878885" lon="10.62117034593128"><ele>115.0</ele><time>2026-04-02T09:13:04.999Z</time></trkpt><trkpt lat="45.399925505736775" lon="10.621138598608892"><ele>115.0</ele><time>2026-04-02T09:13:05.999Z</time></trkpt><trkpt lat="45.39984298864861" lon="10.621097328195253"><ele>115.00000000000001</ele><time>2026-04-02T09:13:06.999Z</time></trkpt><trkpt lat="45.39978114995492" lon="10.621067415701885"><ele>115.0</ele><time>2026-04-02T09:13:07.999Z</time></trkpt><trkpt lat="45.399685559874634" lon="10.621022559037486"><ele>114.00000000000001</ele><time>2026-04-02T09:13:09.999Z</time></trkpt><trkpt lat="45.39960619190162" lon="10.62107945896363"><ele>113.0</ele><time>2026-04-02T09:13:12.999Z</time></trkpt><trkpt lat="45.399566002451095" lon="10.621170049814369"><ele>112.0</ele><time>2026-04-02T09:13:13.999Z</time></trkpt><trkpt lat="45.39952403033832" lon="10.621274235568967"><ele>111.0</ele><time>2026-04-02T09:13:14.999Z</time></trkpt><trkpt lat="45.3994828973976" lon="10.621368043392268"><ele>110.00000000000001</ele><time>2026-04-02T09:13:15.999Z</time></trkpt><trkpt lat="45.39944426174503" lon="10.621454378825746"><ele>109.0</ele><time>2026-04-02T09:13:16.999Z</time></trkpt><trkpt lat="45.399423958788354" lon="10.62164116047355"><ele>109.00000000000001</ele><time>2026-04-02T09:13:18.999Z</time></trkpt><trkpt lat="45.39943220223353" lon="10.621756959074867"><ele>109.0</ele><time>2026-04-02T09:13:19.999Z</time></trkpt><trkpt lat="45.39943755331437" lon="10.621879570595143"><ele>109.0</ele><time>2026-04-02T09:13:20.999Z</time></trkpt><trkpt lat="45.399442450973346" lon="10.622013130728062"><ele>109.0</ele><time>2026-04-02T09:13:21.999Z</time></trkpt><trkpt lat="45.3994521995777" lon="10.62214770611706"><ele>109.00000000000001</ele><time>2026-04-02T09:13:22.999Z</time></trkpt><trkpt lat="45.39945629783944" lon="10.622257765781072"><ele>109.0</ele><time>2026-04-02T09:13:23.999Z</time></trkpt><trkpt lat="45.399465509117654" lon="10.62238067750295"><ele>109.33333333333334</ele><time>2026-04-02T09:13:25.999Z</time></trkpt><trkpt lat="45.399425517984554" lon="10.622465109676439"><ele>109.66666666666667</ele><time>2026-04-02T09:13:29.999Z</time></trkpt><trkpt lat="45.39935001427483" lon="10.62246928698873"><ele>110.0</ele><time>2026-04-02T09:13:31.999Z</time></trkpt><trkpt lat="45.39928186503974" lon="10.622439503752416"><ele>110.33333333333334</ele><time>2026-04-02T09:13:32.999Z</time></trkpt><trkpt lat="45.399203871831894" lon="10.622395995104384"><ele>110.66666666666667</ele><time>2026-04-02T09:13:33.999Z</time></trkpt><trkpt lat="45.39911600971001" lon="10.622351559383445"><ele>111.0</ele><time>2026-04-02T09:13:34.999Z</time></trkpt><trkpt lat="45.39901974486963" lon="10.622312738957183"><ele>111.0</ele><time>2026-04-02T09:13:35.999Z</time></trkpt><trkpt lat="45.398914572368106" lon="10.622288016146571"><ele>111.0</ele><time>2026-04-02T09:13:36.999Z</time></trkpt><trkpt lat="45.398801434145895" lon="10.622268156840354"><ele>111.0</ele><time>2026-04-02T09:13:37.999Z</time></trkpt><trkpt lat="45.39868253992762" lon="10.622255453684033"><ele>111.0</ele><time>2026-04-02T09:13:38.999Z</time></trkpt><trkpt lat="45.39855493428302" lon="10.622256255977234"><ele>109.75</ele><time>2026-04-02T09:13:40Z</time></trkpt><trkpt lat="45.39842631794028" lon="10.622261022643436"><ele>108.5</ele><time>2026-04-02T09:13:41Z</time></trkpt><trkpt lat="45.398296582423555" lon="10.622263507218781"><ele>107.25</ele><time>2026-04-02T09:13:42Z</time></trkpt><trkpt lat="45.39816811526033" lon="10.622263406119611"><ele>106.0</ele><time>2026-04-02T09:13:43Z</time></trkpt><trkpt lat="45.398045597304304" lon="10.622264304941643"><ele>104.75</ele><time>2026-04-02T09:13:44Z</time></trkpt><trkpt lat="45.397922418340784" lon="10.622273596562152"><ele>103.5</ele><time>2026-04-02T09:13:45Z</time></trkpt><trkpt lat="45.39779503991299" lon="10.622291236893826"><ele>102.25</ele><time>2026-04-02T09:13:46Z</time></trkpt><trkpt lat="45.39766533133839" lon="10.622328441657018"><ele>101.0</ele><time>2026-04-02T09:13:47Z</time></trkpt><trkpt lat="45.39752926525911" lon="10.622378542523423"><ele>101.0</ele><time>2026-04-02T09:13:48Z</time></trkpt><trkpt lat="45.397391779462374" lon="10.622435071450473"><ele>101.0</ele><time>2026-04-02T09:13:49Z</time></trkpt><trkpt lat="45.39725086529776" lon="10.622496863367894"><ele>101.0</ele><time>2026-04-02T09:13:50Z</time></trkpt><trkpt lat="45.39710873563315" lon="10.622560665469926"><ele>101.0</ele><time>2026-04-02T09:13:51Z</time></trkpt><trkpt lat="45.396968707754134" lon="10.622621206973148"><ele>101.75</ele><time>2026-04-02T09:13:52Z</time></trkpt><trkpt lat="45.39683985506325" lon="10.622680195835615"><ele>102.5</ele><time>2026-04-02T09:13:53Z</time></trkpt><trkpt lat="45.39671763095746" lon="10.622732508230342"><ele>103.25</ele><time>2026-04-02T09:13:54Z</time></trkpt><trkpt lat="45.39660230607724" lon="10.62278506718574"><ele>104.0</ele><time>2026-04-02T09:13:55Z</time></trkpt><trkpt lat="45.39649080070354" lon="10.622828180758747"><ele>104.0</ele><time>2026-04-02T09:13:56Z</time></trkpt><trkpt lat="45.39638204104036" lon="10.622856914376174"><ele>104.0</ele><time>2026-04-02T09:13:57Z</time></trkpt><trkpt lat="45.39626799214984" lon="10.622861404471875"><ele>104.0</ele><time>2026-04-02T09:13:58Z</time></trkpt><trkpt lat="45.39615998395878" lon="10.622844353631688"><ele>104.0</ele><time>2026-04-02T09:13:59Z</time></trkpt><trkpt lat="45.39606725265574" lon="10.622802050298695"><ele>104.0</ele><time>2026-04-02T09:14:00Z</time></trkpt><trkpt lat="45.395990106212054" lon="10.622739935018485"><ele>101.66666666666666</ele><time>2026-04-02T09:14:01Z</time></trkpt><trkpt lat="45.39592594953088" lon="10.622661294935947"><ele>99.33333333333333</ele><time>2026-04-02T09:14:02Z</time></trkpt><trkpt lat="45.39586957334601" lon="10.62257042731073"><ele>97.0</ele><time>2026-04-02T09:14:03Z</time></trkpt><trkpt lat="45.39582959011531" lon="10.62247317642553"><ele>94.66666666666666</ele><time>2026-04-02T09:14:04Z</time></trkpt><trkpt lat="45.395781646463924" lon="10.622383285894871"><ele>92.33333333333333</ele><time>2026-04-02T09:14:05Z</time></trkpt><trkpt lat="45.395715378276314" lon="10.62232404548195"><ele>90.0</ele><time>2026-04-02T09:14:06Z</time></trkpt><trkpt lat="45.39563976819236" lon="10.62229912709064"><ele>90.0</ele><time>2026-04-02T09:14:07Z</time></trkpt><trkpt lat="45.395563604703824" lon="10.622323773430155"><ele>90.0</ele><time>2026-04-02T09:14:08Z</time></trkpt><trkpt lat="45.39549248478144" lon="10.622392699696098"><ele>90.0</ele><time>2026-04-02T09:14:09Z</time></trkpt><trkpt lat="45.39542935452143" lon="10.622491154427335"><ele>90.0</ele><time>2026-04-02T09:14:10Z</time></trkpt><trkpt lat="45.395349897066126" lon="10.62258016494761"><ele>90.0</ele><time>2026-04-02T09:14:11Z</time></trkpt><trkpt lat="45.3952446086245" lon="10.622652438628958"><ele>90.0</ele><time>2026-04-02T09:14:12Z</time></trkpt><trkpt lat="45.395110554159125" lon="10.62269833630151"><ele>90.0</ele><time>2026-04-02T09:14:13Z</time></trkpt><trkpt lat="45.39495564578612" lon="10.622733864241821"><ele>90.0</ele><time>2026-04-02T09:14:14Z</time></trkpt><trkpt lat="45.394818429655594" lon="10.62276997141322"><ele>90.0</ele><time>2026-04-02T09:14:15Z</time></trkpt><trkpt lat="45.39468769048117" lon="10.622818092907496"><ele>92.0</ele><time>2026-04-02T09:14:16Z</time></trkpt><trkpt lat="45.39456331355242" lon="10.62288230452808"><ele>94.0</ele><time>2026-04-02T09:14:17Z</time></trkpt><trkpt lat="45.394442391670644" lon="10.622974405154999"><ele>96.0</ele><time>2026-04-02T09:14:18Z</time></trkpt><trkpt lat="45.39433095927602" lon="10.623087159681031"><ele>98.0</ele><time>2026-04-02T09:14:19Z</time></trkpt><trkpt lat="45.394225345515615" lon="10.62321721434019"><ele>98.0</ele><time>2026-04-02T09:14:20Z</time></trkpt><trkpt lat="45.39412911198187" lon="10.623360931293089"><ele>98.0</ele><time>2026-04-02T09:14:21Z</time></trkpt><trkpt lat="45.39404508794247" lon="10.623520653533598"><ele>98.0</ele><time>2026-04-02T09:14:22Z</time></trkpt><trkpt lat="45.39397556039036" lon="10.623693597202502"><ele>98.0</ele><time>2026-04-02T09:14:23Z</time></trkpt><trkpt lat="45.39391896166806" lon="10.623878499072758"><ele>98.75</ele><time>2026-04-02T09:14:24Z</time></trkpt><trkpt lat="45.393872056992954" lon="10.624071068123769"><ele>99.5</ele><time>2026-04-02T09:14:25Z</time></trkpt><trkpt lat="45.39383924904995" lon="10.624270403733934"><ele>100.25</ele><time>2026-04-02T09:14:26Z</time></trkpt><trkpt lat="45.39382260648191" lon="10.624478804096618"><ele>101.0</ele><time>2026-04-02T09:14:27Z</time></trkpt><trkpt lat="45.39383052103546" lon="10.624691984779192"><ele>100.66666666666666</ele><time>2026-04-02T09:14:28Z</time></trkpt><trkpt lat="45.39385040995775" lon="10.624906843091315"><ele>100.33333333333334</ele><time>2026-04-02T09:14:29Z</time></trkpt><trkpt lat="45.39387871696238" lon="10.625123401806633"><ele>100.0</ele><time>2026-04-02T09:14:30Z</time></trkpt><trkpt lat="45.39391111055794" lon="10.625338888099712"><ele>99.33333333333334</ele><time>2026-04-02T09:14:31Z</time></trkpt><trkpt lat="45.39394531133433" lon="10.62555711651048"><ele>98.66666666666666</ele><time>2026-04-02T09:14:32Z</time></trkpt><trkpt lat="45.393977462766614" lon="10.625773195812418"><ele>98.0</ele><time>2026-04-02T09:14:33Z</time></trkpt><trkpt lat="45.39400796398265" lon="10.625993982833993"><ele>97.33333333333333</ele><time>2026-04-02T09:14:34Z</time></trkpt><trkpt lat="45.39403926438982" lon="10.626215000775945"><ele>96.66666666666666</ele><time>2026-04-02T09:14:35Z</time></trkpt><trkpt lat="45.39406911114196" lon="10.626437683835485"><ele>96.0</ele><time>2026-04-02T09:14:36Z</time></trkpt><trkpt lat="45.3941003654453" lon="10.626662699731025"><ele>96.0</ele><time>2026-04-02T09:14:37Z</time></trkpt><trkpt lat="45.39413452920583" lon="10.62688806340279"><ele>96.0</ele><time>2026-04-02T09:14:38Z</time></trkpt><trkpt lat="45.39417080763076" lon="10.627112608618244"><ele>96.0</ele><time>2026-04-02T09:14:39Z</time></trkpt><trkpt lat="45.39420114673461" lon="10.627339190296333"><ele>95.66666666666667</ele><time>2026-04-02T09:14:40Z</time></trkpt><trkpt lat="45.39423287809716" lon="10.627566083053948"><ele>95.33333333333334</ele><time>2026-04-02T09:14:41Z</time></trkpt><trkpt lat="45.39426916606433" lon="10.627792762417895"><ele>95.0</ele><time>2026-04-02T09:14:42Z</time></trkpt><trkpt lat="45.39430949009023" lon="10.628016434784572"><ele>94.66666666666667</ele><time>2026-04-02T09:14:43Z</time></trkpt><trkpt lat="45.39435457055398" lon="10.628238568756023"><ele>94.33333333333333</ele><time>2026-04-02T09:14:44Z</time></trkpt><trkpt lat="45.39440258023395" lon="10.628458166640767"><ele>94.0</ele><time>2026-04-02T09:14:45Z</time></trkpt><trkpt lat="45.39445557406862" lon="10.628677588013536"><ele>94.0</ele><time>2026-04-02T09:14:46Z</time></trkpt><trkpt lat="45.39450764980229" lon="10.628895836696513"><ele>94.0</ele><time>2026-04-02T09:14:47Z</time></trkpt><trkpt lat="45.39455884571105" lon="10.629114256528275"><ele>94.0</ele><time>2026-04-02T09:14:48Z</time></trkpt><trkpt lat="45.39460726884681" lon="10.629330852065845"><ele>94.0</ele><time>2026-04-02T09:14:49Z</time></trkpt><trkpt lat="45.394655624976714" lon="10.629545497873185"><ele>94.0</ele><time>2026-04-02T09:14:50Z</time></trkpt><trkpt lat="45.39470719390752" lon="10.629757235131184"><ele>94.0</ele><time>2026-04-02T09:14:51Z</time></trkpt><trkpt lat="45.39475806747635" lon="10.629968533512065"><ele>95.0</ele><time>2026-04-02T09:14:52Z</time></trkpt><trkpt lat="45.394807913999" lon="10.630183802734438"><ele>96.0</ele><time>2026-04-02T09:14:53Z</time></trkpt><trkpt lat="45.39485576516899" lon="10.630402043131726"><ele>97.0</ele><time>2026-04-02T09:14:54Z</time></trkpt><trkpt lat="45.39490784380124" lon="10.63062656727256"><ele>97.0</ele><time>2026-04-02T09:14:55Z</time></trkpt><trkpt lat="45.39496416533004" lon="10.63085337793313"><ele>97.0</ele><time>2026-04-02T09:14:56Z</time></trkpt><trkpt lat="45.39501724637553" lon="10.631078331851329"><ele>97.0</ele><time>2026-04-02T09:14:57Z</time></trkpt><trkpt lat="45.395070666467454" lon="10.63130502555336"><ele>97.33333333333334</ele><time>2026-04-02T09:14:58Z</time></trkpt><trkpt lat="45.3951342634364" lon="10.63152196383252"><ele>97.66666666666666</ele><time>2026-04-02T09:14:59Z</time></trkpt><trkpt lat="45.39520429935712" lon="10.63172908439543"><ele>98.0</ele><time>2026-04-02T09:15:00Z</time></trkpt><trkpt lat="45.39528463035459" lon="10.631929908503297"><ele>98.0</ele><time>2026-04-02T09:15:01Z</time></trkpt><trkpt lat="45.39537613070289" lon="10.632123010225538"><ele>98.0</ele><time>2026-04-02T09:15:02Z</time></trkpt><trkpt lat="45.395476705474934" lon="10.632307040581487"><ele>98.0</ele><time>2026-04-02T09:15:03Z</time></trkpt><trkpt lat="45.395587856771" lon="10.632478392905494"><ele>98.33333333333333</ele><time>2026-04-02T09:15:04Z</time></trkpt><trkpt lat="45.39570816484836" lon="10.632636632806616"><ele>98.66666666666666</ele><time>2026-04-02T09:15:05Z</time></trkpt><trkpt lat="45.39583536844088" lon="10.63278502837172"><ele>99.0</ele><time>2026-04-02T09:15:06Z</time></trkpt><trkpt lat="45.39596601512298" lon="10.632926098338904"><ele>99.0</ele><time>2026-04-02T09:15:07Z</time></trkpt><trkpt lat="45.39610378713615" lon="10.633055066033085"><ele>99.0</ele><time>2026-04-02T09:15:08Z</time></trkpt><trkpt lat="45.39624681247192" lon="10.633167333900483"><ele>99.0</ele><time>2026-04-02T09:15:09Z</time></trkpt><trkpt lat="45.396396174312535" lon="10.633267487920556"><ele>98.66666666666666</ele><time>2026-04-02T09:15:10Z</time></trkpt><trkpt lat="45.39655536850332" lon="10.633359739182174"><ele>98.33333333333333</ele><time>2026-04-02T09:15:11Z</time></trkpt><trkpt lat="45.396711560202974" lon="10.63345341947275"><ele>98.0</ele><time>2026-04-02T09:15:12Z</time></trkpt><trkpt lat="45.39686710540288" lon="10.633549447196568"><ele>98.0</ele><time>2026-04-02T09:15:13Z</time></trkpt><trkpt lat="45.397023360409726" lon="10.633644026173902"><ele>98.0</ele><time>2026-04-02T09:15:14Z</time></trkpt><trkpt lat="45.397176362686594" lon="10.633736164040103"><ele>98.0</ele><time>2026-04-02T09:15:15Z</time></trkpt><trkpt lat="45.397326867111744" lon="10.633827475203685"><ele>98.0</ele><time>2026-04-02T09:15:16Z</time></trkpt><trkpt lat="45.39747746686808" lon="10.633922924277996"><ele>98.0</ele><time>2026-04-02T09:15:17Z</time></trkpt><trkpt lat="45.397631895331536" lon="10.634019596572275"><ele>98.0</ele><time>2026-04-02T09:15:18Z</time></trkpt><trkpt lat="45.397784598003064" lon="10.634100286043854"><ele>98.0</ele><time>2026-04-02T09:15:19Z</time></trkpt><trkpt lat="45.39793982474229" lon="10.63416273920372"><ele>98.0</ele><time>2026-04-02T09:15:20Z</time></trkpt><trkpt lat="45.398099977046385" lon="10.634209550914875"><ele>98.0</ele><time>2026-04-02T09:15:21Z</time></trkpt><trkpt lat="45.39826431840799" lon="10.6342406964747"><ele>97.0</ele><time>2026-04-02T09:15:22Z</time></trkpt><trkpt lat="45.398431025039265" lon="10.634273714733208"><ele>96.0</ele><time>2026-04-02T09:15:22.999Z</time></trkpt><trkpt lat="45.39859824979033" lon="10.63430873455421"><ele>95.0</ele><time>2026-04-02T09:15:23.999Z</time></trkpt><trkpt lat="45.39875192565387" lon="10.634343073411834"><ele>94.6</ele><time>2026-04-02T09:15:24.999Z</time></trkpt><trkpt lat="45.39888467077733" lon="10.634373793775273"><ele>94.2</ele><time>2026-04-02T09:15:25.999Z</time></trkpt><trkpt lat="45.39900299009599" lon="10.634399558231348"><ele>93.80000000000001</ele><time>2026-04-02T09:15:26.999Z</time></trkpt><trkpt lat="45.39910707677595" lon="10.634419567690351"><ele>93.4</ele><time>2026-04-02T09:15:27.999Z</time></trkpt><trkpt lat="45.3991925450916" lon="10.63443998213162"><ele>93.0</ele><time>2026-04-02T09:15:28.999Z</time></trkpt><trkpt lat="45.39926068284836" lon="10.634469926803703"><ele>93.0</ele><time>2026-04-02T09:15:29.999Z</time></trkpt><trkpt lat="45.39932577189089" lon="10.634533074818725"><ele>93.0</ele><time>2026-04-02T09:15:30.999Z</time></trkpt><trkpt lat="45.39936938623341" lon="10.634619691790563"><ele>93.0</ele><time>2026-04-02T09:15:31.999Z</time></trkpt><trkpt lat="45.39939576006752" lon="10.634724122976879"><ele>93.0</ele><time>2026-04-02T09:15:32.999Z</time></trkpt><trkpt lat="45.39939791061658" lon="10.634846584426354"><ele>93.0</ele><time>2026-04-02T09:15:33.999Z</time></trkpt><trkpt lat="45.399373005044545" lon="10.634976809761413"><ele>93.0</ele><time>2026-04-02T09:15:34.999Z</time></trkpt><trkpt lat="45.399296896808835" lon="10.635089742602123"><ele>93.0</ele><time>2026-04-02T09:15:35.999Z</time></trkpt><trkpt lat="45.39922251562284" lon="10.635237868592956"><ele>93.0</ele><time>2026-04-02T09:15:36.999Z</time></trkpt><trkpt lat="45.39915187430806" lon="10.635405440669608"><ele>93.0</ele><time>2026-04-02T09:15:37.999Z</time></trkpt><trkpt lat="45.3990857203317" lon="10.63554126131531"><ele>93.0</ele><time>2026-04-02T09:15:38.999Z</time></trkpt><trkpt lat="45.3990196133049" lon="10.635680269212099"><ele>92.5</ele><time>2026-04-02T09:15:39.999Z</time></trkpt><trkpt lat="45.398955729044616" lon="10.635824385917967"><ele>92.0</ele><time>2026-04-02T09:15:40.999Z</time></trkpt><trkpt lat="45.39889686287022" lon="10.635974237302362"><ele>91.5</ele><time>2026-04-02T09:15:41.999Z</time></trkpt><trkpt lat="45.39884218832245" lon="10.636130369760885"><ele>91.0</ele><time>2026-04-02T09:15:42.999Z</time></trkpt><trkpt lat="45.398787857087164" lon="10.636290538231899"><ele>91.0</ele><time>2026-04-02T09:15:43.999Z</time></trkpt><trkpt lat="45.39873800829154" lon="10.636451339585602"><ele>91.0</ele><time>2026-04-02T09:15:45Z</time></trkpt><trkpt lat="45.39869161475079" lon="10.636617168023507"><ele>91.0</ele><time>2026-04-02T09:15:46Z</time></trkpt><trkpt lat="45.3986525657964" lon="10.63677061122759"><ele>91.0</ele><time>2026-04-02T09:15:47Z</time></trkpt><trkpt lat="45.398621940566606" lon="10.636920083588675"><ele>90.75</ele><time>2026-04-02T09:15:48Z</time></trkpt><trkpt lat="45.39859932634556" lon="10.637093506781396"><ele>90.5</ele><time>2026-04-02T09:15:49Z</time></trkpt><trkpt lat="45.398596540509836" lon="10.637285698365549"><ele>90.25</ele><time>2026-04-02T09:15:50Z</time></trkpt><trkpt lat="45.398598072980796" lon="10.637479789118272"><ele>90.0</ele><time>2026-04-02T09:15:51Z</time></trkpt><trkpt lat="45.39859908782813" lon="10.63766944455717"><ele>90.25</ele><time>2026-04-02T09:15:52Z</time></trkpt><trkpt lat="45.39860435447192" lon="10.63785495854196"><ele>90.5</ele><time>2026-04-02T09:15:53Z</time></trkpt><trkpt lat="45.39860938220075" lon="10.638041112598081"><ele>90.75</ele><time>2026-04-02T09:15:54Z</time></trkpt><trkpt lat="45.398614570340214" lon="10.638224779782353"><ele>91.0</ele><time>2026-04-02T09:15:55Z</time></trkpt><trkpt lat="45.39862113050277" lon="10.6384076323531"><ele>91.0</ele><time>2026-04-02T09:15:56Z</time></trkpt><trkpt lat="45.39862624269445" lon="10.638590561631085"><ele>91.0</ele><time>2026-04-02T09:15:57Z</time></trkpt><trkpt lat="45.39863088960497" lon="10.63876824356046"><ele>91.0</ele><time>2026-04-02T09:15:58Z</time></trkpt><trkpt lat="45.39863662870545" lon="10.638944611564984"><ele>91.0</ele><time>2026-04-02T09:15:59Z</time></trkpt><trkpt lat="45.39864382637947" lon="10.639121543582851"><ele>91.25</ele><time>2026-04-02T09:16:00Z</time></trkpt><trkpt lat="45.39865072693768" lon="10.639298397026144"><ele>91.5</ele><time>2026-04-02T09:16:01Z</time></trkpt><trkpt lat="45.39865834145359" lon="10.639475236337953"><ele>91.75</ele><time>2026-04-02T09:16:02Z</time></trkpt><trkpt lat="45.398666614668734" lon="10.639652044314529"><ele>92.0</ele><time>2026-04-02T09:16:03Z</time></trkpt><trkpt lat="45.39867119589772" lon="10.639824015941315"><ele>92.0</ele><time>2026-04-02T09:16:04Z</time></trkpt><trkpt lat="45.39867781461786" lon="10.639986905572346"><ele>92.0</ele><time>2026-04-02T09:16:05Z</time></trkpt><trkpt lat="45.398688425635825" lon="10.64015325212953"><ele>92.0</ele><time>2026-04-02T09:16:06Z</time></trkpt><trkpt lat="45.39869920200797" lon="10.640321549387199"><ele>92.0</ele><time>2026-04-02T09:16:07Z</time></trkpt><trkpt lat="45.398710402118105" lon="10.640493005314168"><ele>91.75</ele><time>2026-04-02T09:16:08Z</time></trkpt><trkpt lat="45.39872286430969" lon="10.640667542476965"><ele>91.5</ele><time>2026-04-02T09:16:09Z</time></trkpt><trkpt lat="45.39873488252891" lon="10.640846971630783"><ele>91.25</ele><time>2026-04-02T09:16:10Z</time></trkpt><trkpt lat="45.39873581447804" lon="10.641018335523992"><ele>91.0</ele><time>2026-04-02T09:16:11Z</time></trkpt><trkpt lat="45.39872867941193" lon="10.641183774173554"><ele>90.6</ele><time>2026-04-02T09:16:12Z</time></trkpt><trkpt lat="45.398715545744125" lon="10.641314290386733"><ele>90.19999999999999</ele><time>2026-04-02T09:16:13Z</time></trkpt><trkpt lat="45.398674421619994" lon="10.641427639571287"><ele>89.80000000000001</ele><time>2026-04-02T09:16:15Z</time></trkpt><trkpt lat="45.39855816278135" lon="10.641433485791854"><ele>89.4</ele><time>2026-04-02T09:16:18Z</time></trkpt><trkpt lat="45.39843238616449" lon="10.641380093811595"><ele>89.0</ele><time>2026-04-02T09:16:20Z</time></trkpt><trkpt lat="45.39834963960188" lon="10.641341578592222"><ele>89.0</ele><time>2026-04-02T09:16:21Z</time></trkpt><trkpt lat="45.398243780731384" lon="10.64130491299625"><ele>89.0</ele><time>2026-04-02T09:16:22Z</time></trkpt><trkpt lat="45.39813039381724" lon="10.641221416199652"><ele>89.0</ele><time>2026-04-02T09:16:23Z</time></trkpt><trkpt lat="45.398007514037424" lon="10.641099677842424"><ele>89.0</ele><time>2026-04-02T09:16:24Z</time></trkpt><trkpt lat="45.39785975819427" lon="10.64097989447469"><ele>89.66666666666667</ele><time>2026-04-02T09:16:25Z</time></trkpt><trkpt lat="45.39771851399719" lon="10.640869512299743"><ele>90.33333333333333</ele><time>2026-04-02T09:16:26Z</time></trkpt><trkpt lat="45.397581082431486" lon="10.640765148193992"><ele>91.0</ele><time>2026-04-02T09:16:27Z</time></trkpt><trkpt lat="45.39744622700639" lon="10.640670335970519"><ele>91.0</ele><time>2026-04-02T09:16:28Z</time></trkpt><trkpt lat="45.39732183485124" lon="10.640594004633217"><ele>91.0</ele><time>2026-04-02T09:16:29Z</time></trkpt><trkpt lat="45.397199875794335" lon="10.640533464850526"><ele>91.0</ele><time>2026-04-02T09:16:30Z</time></trkpt><trkpt lat="45.3970748305028" lon="10.640477213582349"><ele>91.0</ele><time>2026-04-02T09:16:31Z</time></trkpt><trkpt lat="45.39695170101334" lon="10.640422075808704"><ele>90.5</ele><time>2026-04-02T09:16:32Z</time></trkpt><trkpt lat="45.396826188331886" lon="10.64036082917489"><ele>90.0</ele><time>2026-04-02T09:16:33Z</time></trkpt><trkpt lat="45.396685867146" lon="10.640283079040609"><ele>89.5</ele><time>2026-04-02T09:16:34Z</time></trkpt><trkpt lat="45.39654441623256" lon="10.640201544053177"><ele>89.0</ele><time>2026-04-02T09:16:35Z</time></trkpt><trkpt lat="45.39640630619728" lon="10.640120030264207"><ele>89.5</ele><time>2026-04-02T09:16:36Z</time></trkpt><trkpt lat="45.396273026779134" lon="10.640041367549223"><ele>90.0</ele><time>2026-04-02T09:16:37Z</time></trkpt><trkpt lat="45.39614482369616" lon="10.639962986949637"><ele>90.5</ele><time>2026-04-02T09:16:38Z</time></trkpt><trkpt lat="45.39601376138891" lon="10.639896153135936"><ele>91.0</ele><time>2026-04-02T09:16:39Z</time></trkpt><trkpt lat="45.39590472010656" lon="10.639788589289102"><ele>91.0</ele><time>2026-04-02T09:16:40Z</time></trkpt><trkpt lat="45.395801556482745" lon="10.639698771843673"><ele>91.0</ele><time>2026-04-02T09:16:41Z</time></trkpt><trkpt lat="45.395719662339786" lon="10.639627472261951"><ele>91.0</ele><time>2026-04-02T09:16:42Z</time></trkpt><trkpt lat="45.395650638729045" lon="10.639568183722877"><ele>91.0</ele><time>2026-04-02T09:16:43Z</time></trkpt><trkpt lat="45.39555488052264" lon="10.639486742562573"><ele>91.0</ele><time>2026-04-02T09:16:45Z</time></trkpt><trkpt lat="45.39549603890304" lon="10.639437247794483"><ele>91.0</ele><time>2026-04-02T09:16:46Z</time></trkpt><trkpt lat="45.39540613250691" lon="10.639367344075914"><ele>91.0</ele><time>2026-04-02T09:16:47Z</time></trkpt><trkpt lat="45.39527698387754" lon="10.639284877908123"><ele>91.0</ele><time>2026-04-02T09:16:48Z</time></trkpt><trkpt lat="45.39512150328635" lon="10.639141327282392"><ele>91.0</ele><time>2026-04-02T09:16:49Z</time></trkpt><trkpt lat="45.39494297500189" lon="10.638937161225538"><ele>91.0</ele><time>2026-04-02T09:16:50Z</time></trkpt><trkpt lat="45.394756878035174" lon="10.638747348638717"><ele>91.0</ele><time>2026-04-02T09:16:51Z</time></trkpt><trkpt lat="45.394598378596235" lon="10.638596190608467"><ele>91.0</ele><time>2026-04-02T09:16:52Z</time></trkpt><trkpt lat="45.39445249972968" lon="10.638475096405"><ele>91.33333333333333</ele><time>2026-04-02T09:16:53Z</time></trkpt><trkpt lat="45.394302378222065" lon="10.638351071522559"><ele>91.66666666666667</ele><time>2026-04-02T09:16:54Z</time></trkpt><trkpt lat="45.39414682393447" lon="10.638224476470734"><ele>92.0</ele><time>2026-04-02T09:16:55Z</time></trkpt><trkpt lat="45.39397005995342" lon="10.638107204928057"><ele>91.33333333333334</ele><time>2026-04-02T09:16:56Z</time></trkpt><trkpt lat="45.393793632965085" lon="10.637963920659358"><ele>90.66666666666667</ele><time>2026-04-02T09:16:57Z</time></trkpt><trkpt lat="45.39364149871402" lon="10.63781277877588"><ele>90.0</ele><time>2026-04-02T09:16:58Z</time></trkpt><trkpt lat="45.39349048457568" lon="10.637719922153686"><ele>90.0</ele><time>2026-04-02T09:16:59Z</time></trkpt><trkpt lat="45.39335852577175" lon="10.637612718855324"><ele>90.0</ele><time>2026-04-02T09:17:00Z</time></trkpt><trkpt lat="45.39322300866954" lon="10.637503162581615"><ele>90.0</ele><time>2026-04-02T09:17:01Z</time></trkpt><trkpt lat="45.393079058677955" lon="10.637378614226407"><ele>89.33333333333333</ele><time>2026-04-02T09:17:02Z</time></trkpt><trkpt lat="45.3929336074611" lon="10.637232007464574"><ele>88.66666666666666</ele><time>2026-04-02T09:17:03Z</time></trkpt><trkpt lat="45.39279269336739" lon="10.637073628773162"><ele>88.0</ele><time>2026-04-02T09:17:04Z</time></trkpt><trkpt lat="45.392670684228904" lon="10.63688819665599"><ele>89.33333333333333</ele><time>2026-04-02T09:17:05Z</time></trkpt><trkpt lat="45.39254289627383" lon="10.636713851629837"><ele>90.66666666666667</ele><time>2026-04-02T09:17:06Z</time></trkpt><trkpt lat="45.39240884943086" lon="10.636542216036444"><ele>92.0</ele><time>2026-04-02T09:17:07Z</time></trkpt><trkpt lat="45.392284338436795" lon="10.63634619574699"><ele>91.66666666666667</ele><time>2026-04-02T09:17:08Z</time></trkpt><trkpt lat="45.39216241711052" lon="10.636153451990964"><ele>91.33333333333333</ele><time>2026-04-02T09:17:09Z</time></trkpt><trkpt lat="45.39206080728495" lon="10.63594778211297"><ele>91.0</ele><time>2026-04-02T09:17:10Z</time></trkpt><trkpt lat="45.39195493471502" lon="10.635752204856132"><ele>91.0</ele><time>2026-04-02T09:17:11Z</time></trkpt><trkpt lat="45.39184812002046" lon="10.635545585922245"><ele>91.0</ele><time>2026-04-02T09:17:12Z</time></trkpt><trkpt lat="45.39174441993064" lon="10.635331074399918"><ele>91.0</ele><time>2026-04-02T09:17:13Z</time></trkpt><trkpt lat="45.39164578012876" lon="10.635110194931128"><ele>91.33333333333333</ele><time>2026-04-02T09:17:14Z</time></trkpt><trkpt lat="45.391549141557135" lon="10.63488792116515"><ele>91.66666666666667</ele><time>2026-04-02T09:17:15Z</time></trkpt><trkpt lat="45.39145060587946" lon="10.634664214665767"><ele>92.0</ele><time>2026-04-02T09:17:16Z</time></trkpt><trkpt lat="45.391349908121306" lon="10.634440876779532"><ele>92.33333333333334</ele><time>2026-04-02T09:17:17Z</time></trkpt><trkpt lat="45.391247381177" lon="10.634219302715"><ele>92.66666666666667</ele><time>2026-04-02T09:17:18Z</time></trkpt><trkpt lat="45.39114384792673" lon="10.63399555388011"><ele>93.0</ele><time>2026-04-02T09:17:19Z</time></trkpt><trkpt lat="45.39104496936826" lon="10.633781864466656"><ele>93.0</ele><time>2026-04-02T09:17:20Z</time></trkpt><trkpt lat="45.39095271532478" lon="10.633578058775266"><ele>93.0</ele><time>2026-04-02T09:17:21Z</time></trkpt><trkpt lat="45.39086377423139" lon="10.633381387986946"><ele>93.0</ele><time>2026-04-02T09:17:22Z</time></trkpt><trkpt lat="45.39077245975226" lon="10.63317946905445"><ele>93.0</ele><time>2026-04-02T09:17:23Z</time></trkpt><trkpt lat="45.390684438092336" lon="10.632985873969258"><ele>93.0</ele><time>2026-04-02T09:17:24Z</time></trkpt><trkpt lat="45.3906085449116" lon="10.632818709550087"><ele>93.0</ele><time>2026-04-02T09:17:25Z</time></trkpt><trkpt lat="45.39053786348436" lon="10.632663024648927"><ele>93.0</ele><time>2026-04-02T09:17:26Z</time></trkpt><trkpt lat="45.390477758279175" lon="10.63253063508417"><ele>93.0</ele><time>2026-04-02T09:17:27Z</time></trkpt><trkpt lat="45.39043278600951" lon="10.632431577785484"><ele>93.0</ele><time>2026-04-02T09:17:28Z</time></trkpt><trkpt lat="45.39037639659498" lon="10.632330831147016"><ele>93.0</ele><time>2026-04-02T09:17:30Z</time></trkpt><trkpt lat="45.390373503140644" lon="10.632225027090378"><ele>93.0</ele><time>2026-04-02T09:17:34Z</time></trkpt><trkpt lat="45.39040057578124" lon="10.632106082525308"><ele>93.0</ele><time>2026-04-02T09:17:57Z</time></trkpt><trkpt lat="45.3903978587004" lon="10.63200828589886"><ele>93.0</ele><time>2026-04-02T09:17:58Z</time></trkpt><trkpt lat="45.39038029173445" lon="10.631888747951521"><ele>93.0</ele><time>2026-04-02T09:17:59Z</time></trkpt><trkpt lat="45.3903652326603" lon="10.631743503610972"><ele>93.0</ele><time>2026-04-02T09:18:00Z</time></trkpt><trkpt lat="45.390346496198525" lon="10.631573559586124"><ele>93.0</ele><time>2026-04-02T09:18:01Z</time></trkpt><trkpt lat="45.390320584096365" lon="10.631368341634868"><ele>93.0</ele><time>2026-04-02T09:18:02Z</time></trkpt><trkpt lat="45.39029406866374" lon="10.631158202307454"><ele>93.2</ele><time>2026-04-02T09:18:03Z</time></trkpt><trkpt lat="45.390271541958754" lon="10.630994160931179"><ele>93.4</ele><time>2026-04-02T09:18:04Z</time></trkpt><trkpt lat="45.39025036426244" lon="10.630864754065822"><ele>93.60000000000001</ele><time>2026-04-02T09:18:05Z</time></trkpt><trkpt lat="45.3902343348551" lon="10.630748734031343"><ele>93.80000000000001</ele><time>2026-04-02T09:18:06Z</time></trkpt><trkpt lat="45.39021115849459" lon="10.630658471259313"><ele>94.0</ele><time>2026-04-02T09:18:07Z</time></trkpt><trkpt lat="45.390103231966584" lon="10.630607949233324"><ele>94.0</ele><time>2026-04-02T09:18:09Z</time></trkpt><trkpt lat="45.39001607619674" lon="10.630607127471364"><ele>94.0</ele><time>2026-04-02T09:18:10Z</time></trkpt><trkpt lat="45.389923685142065" lon="10.630603520380582"><ele>94.0</ele><time>2026-04-02T09:18:11Z</time></trkpt><trkpt lat="45.389866637444975" lon="10.630452506109291"><ele>94.0</ele><time>2026-04-02T09:18:13Z</time></trkpt><trkpt lat="45.389876881418175" lon="10.63032070465726"><ele>94.0</ele><time>2026-04-02T09:18:14Z</time></trkpt><trkpt lat="45.38989272113052" lon="10.630148507895278"><ele>94.0</ele><time>2026-04-02T09:18:15Z</time></trkpt><trkpt lat="45.389893079483045" lon="10.62993726088988"><ele>94.0</ele><time>2026-04-02T09:18:16Z</time></trkpt><trkpt lat="45.38988831630016" lon="10.629693218817941"><ele>94.0</ele><time>2026-04-02T09:18:17Z</time></trkpt><trkpt lat="45.38988924736885" lon="10.629485179923064"><ele>93.83333333333333</ele><time>2026-04-02T09:18:18Z</time></trkpt><trkpt lat="45.389891697882774" lon="10.629328986519814"><ele>93.66666666666666</ele><time>2026-04-02T09:18:19Z</time></trkpt><trkpt lat="45.38988895452632" lon="10.629195086693864"><ele>93.5</ele><time>2026-04-02T09:18:20Z</time></trkpt><trkpt lat="45.38988641158304" lon="10.629088179772264"><ele>93.33333333333333</ele><time>2026-04-02T09:18:21Z</time></trkpt><trkpt lat="45.389908023713176" lon="10.628972474481696"><ele>93.16666666666667</ele><time>2026-04-02T09:18:23Z</time></trkpt><trkpt lat="45.38997651786145" lon="10.628913692304256"><ele>93.0</ele><time>2026-04-02T09:18:26Z</time></trkpt><trkpt lat="45.390060198984635" lon="10.628912231558083"><ele>93.0</ele><time>2026-04-02T09:18:29Z</time></trkpt><trkpt lat="45.390142292996124" lon="10.628869184503749"><ele>93.0</ele><time>2026-04-02T09:18:31Z</time></trkpt><trkpt lat="45.39017452146855" lon="10.62878430669418"><ele>93.0</ele><time>2026-04-02T09:18:33Z</time></trkpt><trkpt lat="45.390153608172085" lon="10.628643318777339"><ele>93.0</ele><time>2026-04-02T09:18:35Z</time></trkpt><trkpt lat="45.39012327128473" lon="10.628463055821465"><ele>93.0</ele><time>2026-04-02T09:18:37Z</time></trkpt><trkpt lat="45.39011914210483" lon="10.628357016419184"><ele>93.0</ele><time>2026-04-02T09:18:38Z</time></trkpt><trkpt lat="45.39011445703322" lon="10.628219242056785"><ele>93.0</ele><time>2026-04-02T09:18:39Z</time></trkpt><trkpt lat="45.39010777788094" lon="10.628067312741877"><ele>93.0</ele><time>2026-04-02T09:18:40Z</time></trkpt><trkpt lat="45.39009967567621" lon="10.627892085719417"><ele>93.0</ele><time>2026-04-02T09:18:41Z</time></trkpt><trkpt lat="45.39009984356368" lon="10.627706052184486"><ele>93.0</ele><time>2026-04-02T09:18:42Z</time></trkpt><trkpt lat="45.390106299514244" lon="10.627529932310892"><ele>93.0</ele><time>2026-04-02T09:18:43Z</time></trkpt><trkpt lat="45.39011957752552" lon="10.627351431833857"><ele>93.0</ele><time>2026-04-02T09:18:44Z</time></trkpt><trkpt lat="45.39013272414908" lon="10.627180922389257"><ele>93.0</ele><time>2026-04-02T09:18:45Z</time></trkpt><trkpt lat="45.39014566830194" lon="10.627005689191808"><ele>92.80000000000001</ele><time>2026-04-02T09:18:46Z</time></trkpt><trkpt lat="45.39015643505951" lon="10.626827366110659"><ele>92.6</ele><time>2026-04-02T09:18:47Z</time></trkpt><trkpt lat="45.39016968711038" lon="10.626665783889118"><ele>92.4</ele><time>2026-04-02T09:18:48Z</time></trkpt><trkpt lat="45.39018054607575" lon="10.626533576505208"><ele>92.19999999999999</ele><time>2026-04-02T09:18:49Z</time></trkpt><trkpt lat="45.390186344048736" lon="10.626420010959999"><ele>92.0</ele><time>2026-04-02T09:18:50Z</time></trkpt><trkpt lat="45.39018859457578" lon="10.626325584341668"><ele>92.0</ele><time>2026-04-02T09:18:51Z</time></trkpt><trkpt lat="45.39016409074247" lon="10.626178493486972"><ele>92.0</ele><time>2026-04-02T09:18:53Z</time></trkpt><trkpt lat="45.39009529246474" lon="10.626075847568929"><ele>92.0</ele><time>2026-04-02T09:18:55Z</time></trkpt><trkpt lat="45.389993114442625" lon="10.625988391456763"><ele>92.0</ele><time>2026-04-02T09:18:57Z</time></trkpt><trkpt lat="45.389954509102836" lon="10.625873979319195"><ele>92.0</ele><time>2026-04-02T09:18:59Z</time></trkpt><trkpt lat="45.38996529121394" lon="10.625759292142707"><ele>92.0</ele><time>2026-04-02T09:19:01Z</time></trkpt><trkpt lat="45.389982331330245" lon="10.625577673862075"><ele>92.0</ele><time>2026-04-02T09:19:03Z</time></trkpt><trkpt lat="45.3900024611805" lon="10.625430040733365"><ele>92.0</ele><time>2026-04-02T09:19:04Z</time></trkpt><trkpt lat="45.390019034769324" lon="10.62526296158536"><ele>92.0</ele><time>2026-04-02T09:19:05Z</time></trkpt><trkpt lat="45.39003609591979" lon="10.62509349264903"><ele>92.0</ele><time>2026-04-02T09:19:06Z</time></trkpt><trkpt lat="45.39003980564422" lon="10.624932685186877"><ele>92.0</ele><time>2026-04-02T09:19:07Z</time></trkpt><trkpt lat="45.39003947557786" lon="10.624786069920741"><ele>92.0</ele><time>2026-04-02T09:19:08Z</time></trkpt><trkpt lat="45.39004048724332" lon="10.624660626417722"><ele>92.0</ele><time>2026-04-02T09:19:09Z</time></trkpt><trkpt lat="45.39004074499152" lon="10.624533915290186"><ele>92.0</ele><time>2026-04-02T09:19:10Z</time></trkpt><trkpt lat="45.390049868500526" lon="10.624395247047003"><ele>91.8</ele><time>2026-04-02T09:19:11Z</time></trkpt><trkpt lat="45.39007815715755" lon="10.624260359228575"><ele>91.6</ele><time>2026-04-02T09:19:12Z</time></trkpt><trkpt lat="45.390120256717246" lon="10.624128944573004"><ele>91.39999999999999</ele><time>2026-04-02T09:19:13Z</time></trkpt><trkpt lat="45.390175517991224" lon="10.623987845184407"><ele>91.19999999999999</ele><time>2026-04-02T09:19:14Z</time></trkpt><trkpt lat="45.39023694193149" lon="10.623845067280406"><ele>91.0</ele><time>2026-04-02T09:19:15Z</time></trkpt><trkpt lat="45.390306024234555" lon="10.623689478719601"><ele>91.25</ele><time>2026-04-02T09:19:16Z</time></trkpt><trkpt lat="45.390372207849246" lon="10.623542653954512"><ele>91.5</ele><time>2026-04-02T09:19:17Z</time></trkpt><trkpt lat="45.39041695761266" lon="10.623416265777921"><ele>91.75</ele><time>2026-04-02T09:19:18Z</time></trkpt><trkpt lat="45.39047298289312" lon="10.623259578851565"><ele>92.0</ele><time>2026-04-02T09:19:19Z</time></trkpt><trkpt lat="45.39052283814163" lon="10.623068888006198"><ele>92.0</ele><time>2026-04-02T09:19:20Z</time></trkpt><trkpt lat="45.39057410268456" lon="10.622890466620724"><ele>92.0</ele><time>2026-04-02T09:19:21Z</time></trkpt><trkpt lat="45.39062497798559" lon="10.622706082936483"><ele>92.0</ele><time>2026-04-02T09:19:22Z</time></trkpt><trkpt lat="45.39067347252831" lon="10.622541875171661"><ele>92.0</ele><time>2026-04-02T09:19:23Z</time></trkpt><trkpt lat="45.390716056466644" lon="10.622403953246264"><ele>92.0</ele><time>2026-04-02T09:19:24Z</time></trkpt><trkpt lat="45.39075335472245" lon="10.62226117951222"><ele>92.0</ele><time>2026-04-02T09:19:25Z</time></trkpt><trkpt lat="45.39080102464417" lon="10.62211751989679"><ele>92.0</ele><time>2026-04-02T09:19:26Z</time></trkpt><trkpt lat="45.390853566942866" lon="10.621974369626713"><ele>92.0</ele><time>2026-04-02T09:19:27Z</time></trkpt><trkpt lat="45.39089999735646" lon="10.621826882007124"><ele>92.0</ele><time>2026-04-02T09:19:28Z</time></trkpt><trkpt lat="45.390935722280574" lon="10.62171228766684"><ele>92.33333333333334</ele><time>2026-04-02T09:19:29Z</time></trkpt><trkpt lat="45.390963070196875" lon="10.621621813350313"><ele>92.66666666666667</ele><time>2026-04-02T09:19:30Z</time></trkpt><trkpt lat="45.3910032020518" lon="10.62150389179473"><ele>93.0</ele><time>2026-04-02T09:19:32Z</time></trkpt><trkpt lat="45.39096789981046" lon="10.621385022068"><ele>93.33333333333333</ele><time>2026-04-02T09:19:35Z</time></trkpt><trkpt lat="45.39090598277058" lon="10.62134149808937"><ele>93.66666666666666</ele><time>2026-04-02T09:19:36Z</time></trkpt><trkpt lat="45.390804817590656" lon="10.621272868374579"><ele>94.0</ele><time>2026-04-02T09:19:37Z</time></trkpt><trkpt lat="45.39067791582952" lon="10.621173429818745"><ele>93.6</ele><time>2026-04-02T09:19:38Z</time></trkpt><trkpt lat="45.39056356097795" lon="10.621078612454845"><ele>93.2</ele><time>2026-04-02T09:19:39Z</time></trkpt><trkpt lat="45.39047590123576" lon="10.621009982622839"><ele>92.8</ele><time>2026-04-02T09:19:40Z</time></trkpt><trkpt lat="45.3904046287146" lon="10.620977439658414"><ele>92.39999999999999</ele><time>2026-04-02T09:19:41Z</time></trkpt><trkpt lat="45.39032889214671" lon="10.620983151328149"><ele>92.0</ele><time>2026-04-02T09:19:42Z</time></trkpt><trkpt lat="45.39024094739564" lon="10.621020250561303"><ele>92.0</ele><time>2026-04-02T09:19:43Z</time></trkpt><trkpt lat="45.390127518714955" lon="10.621074549507881"><ele>92.0</ele><time>2026-04-02T09:19:44Z</time></trkpt><trkpt lat="45.39000519541653" lon="10.621098446580877"><ele>92.0</ele><time>2026-04-02T09:19:45Z</time></trkpt><trkpt lat="45.38987005257938" lon="10.621093058834411"><ele>92.0</ele><time>2026-04-02T09:19:46Z</time></trkpt><trkpt lat="45.389729427530426" lon="10.621076269360428"><ele>91.5</ele><time>2026-04-02T09:19:47Z</time></trkpt><trkpt lat="45.389589220770006" lon="10.621070484975899"><ele>91.0</ele><time>2026-04-02T09:19:48Z</time></trkpt><trkpt lat="45.38944840264895" lon="10.621072459398777"><ele>90.5</ele><time>2026-04-02T09:19:49Z</time></trkpt><trkpt lat="45.38932365149559" lon="10.621066916128374"><ele>90.0</ele><time>2026-04-02T09:19:50Z</time></trkpt><trkpt lat="45.38921509894392" lon="10.621065155559458"><ele>90.0</ele><time>2026-04-02T09:19:51Z</time></trkpt><trkpt lat="45.38910835818107" lon="10.621068963278999"><ele>90.0</ele><time>2026-04-02T09:19:52Z</time></trkpt><trkpt lat="45.38899706317415" lon="10.621065319572129"><ele>90.0</ele><time>2026-04-02T09:19:53Z</time></trkpt><trkpt lat="45.38887359306843" lon="10.621066332852148"><ele>90.0</ele><time>2026-04-02T09:19:54Z</time></trkpt><trkpt lat="45.38874782790216" lon="10.621070264156604"><ele>89.6</ele><time>2026-04-02T09:19:55Z</time></trkpt><trkpt lat="45.38864080896937" lon="10.621073176084076"><ele>89.2</ele><time>2026-04-02T09:19:55.999Z</time></trkpt><trkpt lat="45.38855605242045" lon="10.621073209657384"><ele>88.80000000000001</ele><time>2026-04-02T09:19:57Z</time></trkpt><trkpt lat="45.388460250393436" lon="10.621047759182588"><ele>88.4</ele><time>2026-04-02T09:19:59Z</time></trkpt><trkpt lat="45.38845700983246" lon="10.620915605960269"><ele>88.0</ele><time>2026-04-02T09:20:02Z</time></trkpt><trkpt lat="45.38851002714823" lon="10.620853645124267"><ele>88.0</ele><time>2026-04-02T09:20:03Z</time></trkpt><trkpt lat="45.38859015661358" lon="10.620764213352027"><ele>88.0</ele><time>2026-04-02T09:20:04Z</time></trkpt><trkpt lat="45.38867608803075" lon="10.62064672530703"><ele>88.0</ele><time>2026-04-02T09:20:05Z</time></trkpt><trkpt lat="45.388741737616456" lon="10.620554461225085"><ele>88.0</ele><time>2026-04-02T09:20:06Z</time></trkpt><trkpt lat="45.38879013671324" lon="10.620481368241725"><ele>88.0</ele><time>2026-04-02T09:20:07Z</time></trkpt><trkpt lat="45.38883610643615" lon="10.620419879641032"><ele>88.0</ele><time>2026-04-02T09:20:08Z</time></trkpt><trkpt lat="45.38892972991883" lon="10.620316857753458"><ele>88.33333333333333</ele><time>2026-04-02T09:20:10Z</time></trkpt><trkpt lat="45.38899055812307" lon="10.620260229709626"><ele>88.66666666666666</ele><time>2026-04-02T09:20:11Z</time></trkpt><trkpt lat="45.38904739952808" lon="10.620209019655746"><ele>89.0</ele><time>2026-04-02T09:20:12Z</time></trkpt><trkpt lat="45.389094572804524" lon="10.620146568251535"><ele>89.33333333333333</ele><time>2026-04-02T09:20:13Z</time></trkpt><trkpt lat="45.38913071753459" lon="10.62007033176729"><ele>89.66666666666667</ele><time>2026-04-02T09:20:14Z</time></trkpt><trkpt lat="45.389143746166866" lon="10.61992184604768"><ele>90.0</ele><time>2026-04-02T09:20:15.999Z</time></trkpt><trkpt lat="45.38907908835809" lon="10.619820195781076"><ele>90.0</ele><time>2026-04-02T09:20:17.999Z</time></trkpt><trkpt lat="45.38901332241916" lon="10.619771878133339"><ele>90.0</ele><time>2026-04-02T09:20:18.999Z</time></trkpt><trkpt lat="45.388951908434905" lon="10.619733745017356"><ele>90.0</ele><time>2026-04-02T09:20:19.999Z</time></trkpt><trkpt lat="45.38886571161828" lon="10.619654373214702"><ele>90.0</ele><time>2026-04-02T09:20:21.999Z</time></trkpt><trkpt lat="45.388808411000696" lon="10.619563767120217"><ele>90.0</ele><time>2026-04-02T09:20:23.999Z</time></trkpt><trkpt lat="45.388814143371484" lon="10.619451365863577"><ele>90.0</ele><time>2026-04-02T09:20:25.999Z</time></trkpt><trkpt lat="45.38891595712749" lon="10.619359048711697"><ele>89.66666666666667</ele><time>2026-04-02T09:20:27.999Z</time></trkpt><trkpt lat="45.38897098062059" lon="10.619299305692902"><ele>89.33333333333333</ele><time>2026-04-02T09:20:28.999Z</time></trkpt><trkpt lat="45.38901460028915" lon="10.619215208751312"><ele>89.0</ele><time>2026-04-02T09:20:29.999Z</time></trkpt><trkpt lat="45.389048897049754" lon="10.619117181111688"><ele>88.66666666666666</ele><time>2026-04-02T09:20:30.999Z</time></trkpt><trkpt lat="45.38907683639425" lon="10.619000239113252"><ele>88.33333333333333</ele><time>2026-04-02T09:20:31.999Z</time></trkpt><trkpt lat="45.38910957513196" lon="10.618876548385767"><ele>88.0</ele><time>2026-04-02T09:20:32.999Z</time></trkpt><trkpt lat="45.38914961719531" lon="10.618756226398595"><ele>88.2</ele><time>2026-04-02T09:20:33.999Z</time></trkpt><trkpt lat="45.38919141241274" lon="10.618638363569504"><ele>88.4</ele><time>2026-04-02T09:20:34.999Z</time></trkpt><trkpt lat="45.3892289033516" lon="10.618525406350445"><ele>88.60000000000001</ele><time>2026-04-02T09:20:35.999Z</time></trkpt><trkpt lat="45.38926675347901" lon="10.61839863210153"><ele>88.80000000000001</ele><time>2026-04-02T09:20:36.999Z</time></trkpt><trkpt lat="45.389307507196676" lon="10.618277466690786"><ele>89.0</ele><time>2026-04-02T09:20:37.999Z</time></trkpt><trkpt lat="45.38933996044632" lon="10.618172516596347"><ele>89.0</ele><time>2026-04-02T09:20:38.999Z</time></trkpt><trkpt lat="45.389376047487026" lon="10.618079773129557"><ele>89.0</ele><time>2026-04-02T09:20:39.999Z</time></trkpt><trkpt lat="45.38940916909997" lon="10.617988930246101"><ele>89.0</ele><time>2026-04-02T09:20:40.999Z</time></trkpt><trkpt lat="45.38944558943914" lon="10.61790060727082"><ele>89.0</ele><time>2026-04-02T09:20:41.999Z</time></trkpt><trkpt lat="45.38948258328723" lon="10.617812867176003"><ele>89.0</ele><time>2026-04-02T09:20:42.999Z</time></trkpt><trkpt lat="45.38951768952368" lon="10.61773326125954"><ele>89.0</ele><time>2026-04-02T09:20:43.999Z</time></trkpt><trkpt lat="45.38957686015234" lon="10.617617717354026"><ele>89.4</ele><time>2026-04-02T09:20:45.999Z</time></trkpt><trkpt lat="45.38962758116936" lon="10.617494187657913"><ele>89.80000000000001</ele><time>2026-04-02T09:20:47.999Z</time></trkpt><trkpt lat="45.389666801157034" lon="10.617414708897455"><ele>90.19999999999999</ele><time>2026-04-02T09:20:49.999Z</time></trkpt><trkpt lat="45.38976389767446" lon="10.617434365233457"><ele>90.6</ele><time>2026-04-02T09:20:51.999Z</time></trkpt><trkpt lat="45.389867987272005" lon="10.617489512139988"><ele>91.0</ele><time>2026-04-02T09:20:53.999Z</time></trkpt><trkpt lat="45.389963281017565" lon="10.617525963167534"><ele>91.4</ele><time>2026-04-02T09:20:55.999Z</time></trkpt><trkpt lat="45.390036194176155" lon="10.617550698837215"><ele>91.8</ele><time>2026-04-02T09:20:58.999Z</time></trkpt><trkpt lat="45.3901425218755" lon="10.617566281046988"><ele>92.2</ele><time>2026-04-02T09:21:01.999Z</time></trkpt><trkpt lat="45.39026824855932" lon="10.61758901365082"><ele>92.60000000000001</ele><time>2026-04-02T09:21:03.999Z</time></trkpt><trkpt lat="45.39034247151741" lon="10.617619443350648"><ele>93.0</ele><time>2026-04-02T09:21:04.999Z</time></trkpt><trkpt lat="45.39042683225892" lon="10.617650595752893"><ele>93.33333333333333</ele><time>2026-04-02T09:21:05.999Z</time></trkpt><trkpt lat="45.39052456556564" lon="10.617677703886798"><ele>93.66666666666667</ele><time>2026-04-02T09:21:06.999Z</time></trkpt><trkpt lat="45.39060563900884" lon="10.617708739646915"><ele>94.0</ele><time>2026-04-02T09:21:07.999Z</time></trkpt><trkpt lat="45.390689130935236" lon="10.617744426302288"><ele>94.33333333333334</ele><time>2026-04-02T09:21:08.999Z</time></trkpt><trkpt lat="45.39076747678588" lon="10.617795965628256"><ele>94.66666666666667</ele><time>2026-04-02T09:21:09.999Z</time></trkpt><trkpt lat="45.3908439274242" lon="10.617861889187576"><ele>95.0</ele><time>2026-04-02T09:21:10.999Z</time></trkpt><trkpt lat="45.39091932934325" lon="10.617941740542504"><ele>94.6</ele><time>2026-04-02T09:21:11.999Z</time></trkpt><trkpt lat="45.3910009119724" lon="10.618016601584284"><ele>94.2</ele><time>2026-04-02T09:21:12.999Z</time></trkpt><trkpt lat="45.39108277610356" lon="10.618104890499861"><ele>93.80000000000001</ele><time>2026-04-02T09:21:13.999Z</time></trkpt><trkpt lat="45.39117110989148" lon="10.618191104468956"><ele>93.4</ele><time>2026-04-02T09:21:14.999Z</time></trkpt><trkpt lat="45.391259931802075" lon="10.618288300589269"><ele>93.0</ele><time>2026-04-02T09:21:15.999Z</time></trkpt><trkpt lat="45.391353252487015" lon="10.618394579241686"><ele>93.0</ele><time>2026-04-02T09:21:16.999Z</time></trkpt><trkpt lat="45.39145160062929" lon="10.618498549325114"><ele>93.0</ele><time>2026-04-02T09:21:17.999Z</time></trkpt><trkpt lat="45.391556740863436" lon="10.618603334341849"><ele>93.0</ele><time>2026-04-02T09:21:18.999Z</time></trkpt><trkpt lat="45.39166748338022" lon="10.61869277264847"><ele>93.0</ele><time>2026-04-02T09:21:19.999Z</time></trkpt><trkpt lat="45.39178513960152" lon="10.618787551954165"><ele>92.33333333333333</ele><time>2026-04-02T09:21:20.999Z</time></trkpt><trkpt lat="45.39192836452863" lon="10.618850861421569"><ele>91.66666666666666</ele><time>2026-04-02T09:21:21.999Z</time></trkpt><trkpt lat="45.392089205465574" lon="10.618842296352137"><ele>91.0</ele><time>2026-04-02T09:21:22.999Z</time></trkpt><trkpt lat="45.39223653543108" lon="10.618860006762967"><ele>91.0</ele><time>2026-04-02T09:21:23.999Z</time></trkpt><trkpt lat="45.392361941855725" lon="10.618868814707676"><ele>91.0</ele><time>2026-04-02T09:21:24.999Z</time></trkpt><trkpt lat="45.392492297999965" lon="10.618885029957951"><ele>91.0</ele><time>2026-04-02T09:21:25.999Z</time></trkpt><trkpt lat="45.39263570297221" lon="10.61890738849567"><ele>91.0</ele><time>2026-04-02T09:21:26.999Z</time></trkpt><trkpt lat="45.39277819900464" lon="10.618924814159886"><ele>91.0</ele><time>2026-04-02T09:21:27.999Z</time></trkpt><trkpt lat="45.3929161612884" lon="10.618963818702264"><ele>91.0</ele><time>2026-04-02T09:21:28.999Z</time></trkpt><trkpt lat="45.393054041588556" lon="10.618991408970851"><ele>91.0</ele><time>2026-04-02T09:21:29.999Z</time></trkpt><trkpt lat="45.39319346952143" lon="10.619007880220416"><ele>91.0</ele><time>2026-04-02T09:21:30.999Z</time></trkpt><trkpt lat="45.393334902117516" lon="10.618982315129022"><ele>91.0</ele><time>2026-04-02T09:21:31.999Z</time></trkpt><trkpt lat="45.39347488923454" lon="10.61897241901794"><ele>91.0</ele><time>2026-04-02T09:21:32.999Z</time></trkpt><trkpt lat="45.39360570712098" lon="10.618951353874735"><ele>91.0</ele><time>2026-04-02T09:21:33.999Z</time></trkpt><trkpt lat="45.393724930490116" lon="10.618959678546425"><ele>91.0</ele><time>2026-04-02T09:21:34.999Z</time></trkpt><trkpt lat="45.39384571662386" lon="10.618947824070327"><ele>91.5</ele><time>2026-04-02T09:21:35.999Z</time></trkpt><trkpt lat="45.39396172256707" lon="10.618942125389925"><ele>92.0</ele><time>2026-04-02T09:21:36.999Z</time></trkpt><trkpt lat="45.394082321808455" lon="10.618947865510876"><ele>92.5</ele><time>2026-04-02T09:21:37.999Z</time></trkpt><trkpt lat="45.3942150807106" lon="10.618957707645212"><ele>93.0</ele><time>2026-04-02T09:21:38.999Z</time></trkpt><trkpt lat="45.394339525713384" lon="10.618994844404469"><ele>93.0</ele><time>2026-04-02T09:21:39.999Z</time></trkpt><trkpt lat="45.3944564017548" lon="10.619022099004766"><ele>93.0</ele><time>2026-04-02T09:21:40.999Z</time></trkpt><trkpt lat="45.394575923927874" lon="10.619024763401713"><ele>93.0</ele><time>2026-04-02T09:21:41.999Z</time></trkpt><trkpt lat="45.394695826936726" lon="10.61900751220493"><ele>93.0</ele><time>2026-04-02T09:21:42.999Z</time></trkpt><trkpt lat="45.39480160193301" lon="10.61898013591034"><ele>93.16666666666667</ele><time>2026-04-02T09:21:43.999Z</time></trkpt><trkpt lat="45.39488369307703" lon="10.61895903878529"><ele>93.33333333333333</ele><time>2026-04-02T09:21:44.999Z</time></trkpt><trkpt lat="45.39495905858618" lon="10.618933319292896"><ele>93.5</ele><time>2026-04-02T09:21:45.999Z</time></trkpt><trkpt lat="45.3950240870811" lon="10.618933374475253"><ele>93.66666666666666</ele><time>2026-04-02T09:21:46.999Z</time></trkpt><trkpt lat="45.395130474328916" lon="10.618884464159963"><ele>93.83333333333333</ele><time>2026-04-02T09:21:48.999Z</time></trkpt><trkpt lat="45.39519951470983" lon="10.618895907097407"><ele>94.0</ele><time>2026-04-02T09:21:54.999Z</time></trkpt><trkpt lat="45.39527258560456" lon="10.619023908371947"><ele>94.0</ele><time>2026-04-02T09:21:56.999Z</time></trkpt><trkpt lat="45.395306269221656" lon="10.619125891204963"><ele>94.0</ele><time>2026-04-02T09:21:57.999Z</time></trkpt><trkpt lat="45.395344639656756" lon="10.61923601149208"><ele>94.0</ele><time>2026-04-02T09:21:58.999Z</time></trkpt><trkpt lat="45.39538879241617" lon="10.619358057224021"><ele>94.0</ele><time>2026-04-02T09:21:59.999Z</time></trkpt><trkpt lat="45.39543302045177" lon="10.619488595551744"><ele>94.0</ele><time>2026-04-02T09:22:00.999Z</time></trkpt><trkpt lat="45.39547735994153" lon="10.619622697522178"><ele>94.2</ele><time>2026-04-02T09:22:01.999Z</time></trkpt><trkpt lat="45.39552295289285" lon="10.619761041560444"><ele>94.4</ele><time>2026-04-02T09:22:03Z</time></trkpt><trkpt lat="45.39556941626369" lon="10.619904804723495"><ele>94.6</ele><time>2026-04-02T09:22:04Z</time></trkpt><trkpt lat="45.39561528773958" lon="10.620051011985018"><ele>94.8</ele><time>2026-04-02T09:22:05Z</time></trkpt><trkpt lat="45.395654260305946" lon="10.620189307565354"><ele>95.0</ele><time>2026-04-02T09:22:06Z</time></trkpt><trkpt lat="45.39568269746234" lon="10.620339655716087"><ele>94.6</ele><time>2026-04-02T09:22:07Z</time></trkpt><trkpt lat="45.395701786682665" lon="10.620498062814763"><ele>94.2</ele><time>2026-04-02T09:22:08Z</time></trkpt><trkpt lat="45.39571417085643" lon="10.620658040657764"><ele>93.80000000000001</ele><time>2026-04-02T09:22:09Z</time></trkpt><trkpt lat="45.39572354464784" lon="10.620814736659847"><ele>93.4</ele><time>2026-04-02T09:22:10Z</time></trkpt><trkpt lat="45.39571045953342" lon="10.620965069827388"><ele>93.0</ele><time>2026-04-02T09:22:11Z</time></trkpt><trkpt lat="45.39570884640985" lon="10.621097152878912"><ele>92.5</ele><time>2026-04-02T09:22:12Z</time></trkpt><trkpt lat="45.39570700907958" lon="10.621211812449433"><ele>92.0</ele><time>2026-04-02T09:22:13Z</time></trkpt><trkpt lat="45.395703837031625" lon="10.62135087274147"><ele>91.5</ele><time>2026-04-02T09:22:15Z</time></trkpt><trkpt lat="45.39593478556859" lon="10.621317827830296"><ele>91.0</ele><time>2026-04-02T09:22:19Z</time></trkpt><trkpt lat="45.39602077622372" lon="10.62122254072392"><ele>91.5</ele><time>2026-04-02T09:22:20Z</time></trkpt><trkpt lat="45.39610965039572" lon="10.621113997117464"><ele>92.0</ele><time>2026-04-02T09:22:21Z</time></trkpt><trkpt lat="45.39620803727782" lon="10.620999263910365"><ele>92.5</ele><time>2026-04-02T09:22:22Z</time></trkpt><trkpt lat="45.3963136797465" lon="10.620876798215821"><ele>93.0</ele><time>2026-04-02T09:22:23Z</time></trkpt><trkpt lat="45.39643820041276" lon="10.620732090076173"><ele>94.33333333333334</ele><time>2026-04-02T09:22:24Z</time></trkpt><trkpt lat="45.39658895200925" lon="10.620557264782615"><ele>95.66666666666667</ele><time>2026-04-02T09:22:25Z</time></trkpt><trkpt lat="45.396744299014244" lon="10.620376146883006"><ele>97.0</ele><time>2026-04-02T09:22:26Z</time></trkpt><trkpt lat="45.39687940675351" lon="10.620224878119672"><ele>97.0</ele><time>2026-04-02T09:22:27Z</time></trkpt><trkpt lat="45.39699516533765" lon="10.620085041776578"><ele>97.0</ele><time>2026-04-02T09:22:28Z</time></trkpt><trkpt lat="45.39708508424487" lon="10.619949155285601"><ele>97.0</ele><time>2026-04-02T09:22:29Z</time></trkpt><trkpt lat="45.39715262562095" lon="10.619817420238624"><ele>97.0</ele><time>2026-04-02T09:22:30Z</time></trkpt><trkpt lat="45.3972159101314" lon="10.619695734786417"><ele>97.0</ele><time>2026-04-02T09:22:31Z</time></trkpt><trkpt lat="45.39725551572904" lon="10.619587043355311"><ele>97.0</ele><time>2026-04-02T09:22:32Z</time></trkpt><trkpt lat="45.397293650406965" lon="10.619472786337944"><ele>97.0</ele><time>2026-04-02T09:22:33Z</time></trkpt><trkpt lat="45.39733590723574" lon="10.619345605003753"><ele>97.0</ele><time>2026-04-02T09:22:34Z</time></trkpt><trkpt lat="45.397376224748086" lon="10.619193336412842"><ele>97.0</ele><time>2026-04-02T09:22:35Z</time></trkpt><trkpt lat="45.39740537295033" lon="10.619027736863856"><ele>98.75</ele><time>2026-04-02T09:22:36Z</time></trkpt><trkpt lat="45.397427653644996" lon="10.618863280476845"><ele>100.5</ele><time>2026-04-02T09:22:37Z</time></trkpt><trkpt lat="45.39744417737785" lon="10.618682626184368"><ele>102.25</ele><time>2026-04-02T09:22:38Z</time></trkpt><trkpt lat="45.39745665146376" lon="10.618493775806812"><ele>104.0</ele><time>2026-04-02T09:22:39Z</time></trkpt><trkpt lat="45.39746470966201" lon="10.618289248615401"><ele>106.33333333333333</ele><time>2026-04-02T09:22:40Z</time></trkpt><trkpt lat="45.397476490337475" lon="10.618058243444446"><ele>108.66666666666666</ele><time>2026-04-02T09:22:41Z</time></trkpt><trkpt lat="45.39749029973549" lon="10.617792164815347"><ele>111.0</ele><time>2026-04-02T09:22:42Z</time></trkpt><trkpt lat="45.39750678931092" lon="10.617486084594802"><ele>112.5</ele><time>2026-04-02T09:22:43Z</time></trkpt><trkpt lat="45.397523859891564" lon="10.617142559423817"><ele>114.0</ele><time>2026-04-02T09:22:44Z</time></trkpt><trkpt lat="45.39754478062912" lon="10.616781452525702"><ele>114.66666666666666</ele><time>2026-04-02T09:22:45Z</time></trkpt><trkpt lat="45.39756040481708" lon="10.616454272551145"><ele>115.33333333333333</ele><time>2026-04-02T09:22:45.999Z</time></trkpt><trkpt lat="45.397576171313936" lon="10.616169112084851"><ele>116.0</ele><time>2026-04-02T09:22:46.999Z</time></trkpt><trkpt lat="45.39759032705049" lon="10.6158928686959"><ele>116.66666666666666</ele><time>2026-04-02T09:22:47.999Z</time></trkpt><trkpt lat="45.3976036742522" lon="10.615617988397073"><ele>117.33333333333334</ele><time>2026-04-02T09:22:48.999Z</time></trkpt><trkpt lat="45.397612227759645" lon="10.61534330862455"><ele>118.0</ele><time>2026-04-02T09:22:49.999Z</time></trkpt><trkpt lat="45.39761436061787" lon="10.615069341488796"><ele>118.0</ele><time>2026-04-02T09:22:50.999Z</time></trkpt><trkpt lat="45.397609634032484" lon="10.614790752260117"><ele>118.0</ele><time>2026-04-02T09:22:51.999Z</time></trkpt><trkpt lat="45.39760424634308" lon="10.614517788488504"><ele>118.0</ele><time>2026-04-02T09:22:52.999Z</time></trkpt><trkpt lat="45.397598509049764" lon="10.614242195767599"><ele>118.0</ele><time>2026-04-02T09:22:53.999Z</time></trkpt><trkpt lat="45.39759099939249" lon="10.613963248343328"><ele>118.0</ele><time>2026-04-02T09:22:54.999Z</time></trkpt><trkpt lat="45.397580202117986" lon="10.613682437971818"><ele>118.0</ele><time>2026-04-02T09:22:55.999Z</time></trkpt><trkpt lat="45.397569787015975" lon="10.613396357633125"><ele>118.0</ele><time>2026-04-02T09:22:56.999Z</time></trkpt><trkpt lat="45.397564309238206" lon="10.613120250508386"><ele>118.0</ele><time>2026-04-02T09:22:57.999Z</time></trkpt><trkpt lat="45.39756853967558" lon="10.612869697918331"><ele>118.0</ele><time>2026-04-02T09:22:58.999Z</time></trkpt><trkpt lat="45.397591808919096" lon="10.612608039152523"><ele>118.0</ele><time>2026-04-02T09:22:59.999Z</time></trkpt><trkpt lat="45.39764855273731" lon="10.612338856606446"><ele>118.0</ele><time>2026-04-02T09:23:00.999Z</time></trkpt><trkpt lat="45.39773969925723" lon="10.612073281813048"><ele>118.0</ele><time>2026-04-02T09:23:01.999Z</time></trkpt><trkpt lat="45.397821060038495" lon="10.611850767840327"><ele>118.0</ele><time>2026-04-02T09:23:02.999Z</time></trkpt><trkpt lat="45.39790092176936" lon="10.611622420662034"><ele>118.0</ele><time>2026-04-02T09:23:03.999Z</time></trkpt><trkpt lat="45.397979945828716" lon="10.61139831736337"><ele>118.0</ele><time>2026-04-02T09:23:04.999Z</time></trkpt><trkpt lat="45.39805481822516" lon="10.611173989993688"><ele>120.33333333333334</ele><time>2026-04-02T09:23:05.999Z</time></trkpt><trkpt lat="45.398113596832594" lon="10.61094204627068"><ele>122.66666666666666</ele><time>2026-04-02T09:23:06.999Z</time></trkpt><trkpt lat="45.39816040373949" lon="10.610703015960295"><ele>125.0</ele><time>2026-04-02T09:23:07.999Z</time></trkpt><trkpt lat="45.39819534400109" lon="10.610465568306996"><ele>125.0</ele><time>2026-04-02T09:23:08.999Z</time></trkpt><trkpt lat="45.39822673450965" lon="10.610235699234577"><ele>125.0</ele><time>2026-04-02T09:23:09.999Z</time></trkpt><trkpt lat="45.398255789404026" lon="10.610020729331476"><ele>125.0</ele><time>2026-04-02T09:23:10.999Z</time></trkpt><trkpt lat="45.39827919278211" lon="10.60982438656312"><ele>125.0</ele><time>2026-04-02T09:23:11.999Z</time></trkpt><trkpt lat="45.39829908987966" lon="10.6096457235337"><ele>125.0</ele><time>2026-04-02T09:23:12.999Z</time></trkpt><trkpt lat="45.398319005192114" lon="10.60947808397667"><ele>125.0</ele><time>2026-04-02T09:23:13.999Z</time></trkpt><trkpt lat="45.398339872950544" lon="10.609325582365335"><ele>125.0</ele><time>2026-04-02T09:23:14.999Z</time></trkpt><trkpt lat="45.398379232021725" lon="10.609198043927252"><ele>124.4</ele><time>2026-04-02T09:23:15.999Z</time></trkpt><trkpt lat="45.39840172045927" lon="10.60908236706668"><ele>123.8</ele><time>2026-04-02T09:23:16.999Z</time></trkpt><trkpt lat="45.39842280882985" lon="10.608991548151185"><ele>123.19999999999999</ele><time>2026-04-02T09:23:17.999Z</time></trkpt><trkpt lat="45.39844608283038" lon="10.608891570535855"><ele>122.6</ele><time>2026-04-02T09:23:19.999Z</time></trkpt><trkpt lat="45.39822370377693" lon="10.60888623592458"><ele>122.0</ele><time>2026-04-02T09:23:25.999Z</time></trkpt><trkpt lat="45.39816138127399" lon="10.608900101299973"><ele>122.0</ele><time>2026-04-02T09:23:26.999Z</time></trkpt><trkpt lat="45.39808993785445" lon="10.608917179829676"><ele>121.99999999999999</ele><time>2026-04-02T09:23:27.999Z</time></trkpt><trkpt lat="45.39800483515435" lon="10.60894145492519"><ele>121.99999999999999</ele><time>2026-04-02T09:23:28.999Z</time></trkpt><trkpt lat="45.39790213860828" lon="10.608972096830767"><ele>122.0</ele><time>2026-04-02T09:23:29.999Z</time></trkpt><trkpt lat="45.397776339574015" lon="10.609008127081111"><ele>122.0</ele><time>2026-04-02T09:23:30.999Z</time></trkpt><trkpt lat="45.397625954820256" lon="10.609042680147066"><ele>122.0</ele><time>2026-04-02T09:23:31.999Z</time></trkpt><trkpt lat="45.39748434972705" lon="10.609060059848916"><ele>122.0</ele><time>2026-04-02T09:23:32.999Z</time></trkpt><trkpt lat="45.39733581904556" lon="10.609068617597055"><ele>122.0</ele><time>2026-04-02T09:23:33.999Z</time></trkpt><trkpt lat="45.39718018760079" lon="10.609096113895793"><ele>122.0</ele><time>2026-04-02T09:23:34.999Z</time></trkpt><trkpt lat="45.397025746505754" lon="10.609067448358603"><ele>121.5</ele><time>2026-04-02T09:23:35.999Z</time></trkpt><trkpt lat="45.39689100431282" lon="10.609055695243352"><ele>121.0</ele><time>2026-04-02T09:23:36.999Z</time></trkpt><trkpt lat="45.39677078913811" lon="10.609042485866732"><ele>120.5</ele><time>2026-04-02T09:23:37.999Z</time></trkpt><trkpt lat="45.396665328186984" lon="10.609054301956474"><ele>120.0</ele><time>2026-04-02T09:23:38.999Z</time></trkpt><trkpt lat="45.39657563176379" lon="10.609031110216415"><ele>120.0</ele><time>2026-04-02T09:23:39.999Z</time></trkpt><trkpt lat="45.39650135527855" lon="10.609063692049498"><ele>120.0</ele><time>2026-04-02T09:23:40.999Z</time></trkpt><trkpt lat="45.39642890094461" lon="10.60911355305374"><ele>120.0</ele><time>2026-04-02T09:23:41.999Z</time></trkpt><trkpt lat="45.39639374326429" lon="10.609291413123051"><ele>120.0</ele><time>2026-04-02T09:23:42.999Z</time></trkpt><trkpt lat="45.39635946857406" lon="10.60943733449463"><ele>120.0</ele><time>2026-04-02T09:23:43.999Z</time></trkpt><trkpt lat="45.39631108831863" lon="10.609547543815458"><ele>119.33333333333333</ele><time>2026-04-02T09:23:44.999Z</time></trkpt><trkpt lat="45.39627669337975" lon="10.609652924717103"><ele>118.66666666666666</ele><time>2026-04-02T09:23:45.999Z</time></trkpt><trkpt lat="45.39624286294348" lon="10.609748883597392"><ele>118.0</ele><time>2026-04-02T09:23:46.999Z</time></trkpt><trkpt lat="45.396202128946925" lon="10.609836279489743"><ele>117.33333333333333</ele><time>2026-04-02T09:23:47.999Z</time></trkpt><trkpt lat="45.3961540623642" lon="10.609920890414589"><ele>116.66666666666666</ele><time>2026-04-02T09:23:48.999Z</time></trkpt><trkpt lat="45.3961055076086" lon="10.610007987706853"><ele>116.0</ele><time>2026-04-02T09:23:49.999Z</time></trkpt><trkpt lat="45.396071376153195" lon="10.610107067350775"><ele>115.99999999999999</ele><time>2026-04-02T09:23:50.999Z</time></trkpt><trkpt lat="45.396025382597635" lon="10.610191879290808"><ele>116.0</ele><time>2026-04-02T09:23:51.999Z</time></trkpt><trkpt lat="45.395977128997345" lon="10.610280242727287"><ele>116.0</ele><time>2026-04-02T09:23:52.999Z</time></trkpt><trkpt lat="45.39592906288618" lon="10.610366391615255"><ele>116.0</ele><time>2026-04-02T09:23:53.999Z</time></trkpt><trkpt lat="45.39587639001261" lon="10.61045263977055"><ele>115.99999999999999</ele><time>2026-04-02T09:23:54.999Z</time></trkpt><trkpt lat="45.39581407942318" lon="10.610534489770405"><ele>116.0</ele><time>2026-04-02T09:23:55.999Z</time></trkpt><trkpt lat="45.39573628598835" lon="10.61059975872332"><ele>115.75</ele><time>2026-04-02T09:23:56.999Z</time></trkpt><trkpt lat="45.395641703238866" lon="10.610637829761648"><ele>115.5</ele><time>2026-04-02T09:23:57.999Z</time></trkpt><trkpt lat="45.39552573447896" lon="10.610664247988597"><ele>115.25</ele><time>2026-04-02T09:23:58.999Z</time></trkpt><trkpt lat="45.39539906182014" lon="10.610700747410096"><ele>115.0</ele><time>2026-04-02T09:23:59.999Z</time></trkpt><trkpt lat="45.39527394001309" lon="10.610744448520142"><ele>113.75</ele><time>2026-04-02T09:24:00.999Z</time></trkpt><trkpt lat="45.39516298317519" lon="10.610779438132349"><ele>112.5</ele><time>2026-04-02T09:24:01.999Z</time></trkpt><trkpt lat="45.395047641496" lon="10.610828878231523"><ele>111.25</ele><time>2026-04-02T09:24:02.999Z</time></trkpt><trkpt lat="45.39493232893593" lon="10.61090436345686"><ele>110.0</ele><time>2026-04-02T09:24:03.999Z</time></trkpt><trkpt lat="45.39480935149719" lon="10.610991467889242"><ele>110.0</ele><time>2026-04-02T09:24:04.999Z</time></trkpt><trkpt lat="45.394680930289354" lon="10.611061985644204"><ele>110.0</ele><time>2026-04-02T09:24:05.999Z</time></trkpt><trkpt lat="45.39457601357634" lon="10.611126516497945"><ele>110.0</ele><time>2026-04-02T09:24:06.999Z</time></trkpt><trkpt lat="45.39449702028975" lon="10.611175026832122"><ele>110.0</ele><time>2026-04-02T09:24:07.999Z</time></trkpt><trkpt lat="45.39443554726746" lon="10.611217803227115"><ele>110.0</ele><time>2026-04-02T09:24:09Z</time></trkpt><trkpt lat="45.39435504161592" lon="10.61124318892029"><ele>108.25</ele><time>2026-04-02T09:24:11Z</time></trkpt><trkpt lat="45.39427582058392" lon="10.611162475902132"><ele>106.5</ele><time>2026-04-02T09:24:13Z</time></trkpt><trkpt lat="45.39424716883145" lon="10.610962771152849"><ele>104.75</ele><time>2026-04-02T09:24:15Z</time></trkpt><trkpt lat="45.39424535199844" lon="10.610798494246275"><ele>103.0</ele><time>2026-04-02T09:24:16Z</time></trkpt><trkpt lat="45.39424106900841" lon="10.61058969189265"><ele>102.25</ele><time>2026-04-02T09:24:17Z</time></trkpt><trkpt lat="45.39424005211224" lon="10.610424390919817"><ele>101.5</ele><time>2026-04-02T09:24:18Z</time></trkpt><trkpt lat="45.39425371991858" lon="10.61025603396676"><ele>100.75</ele><time>2026-04-02T09:24:19Z</time></trkpt><trkpt lat="45.3942788484749" lon="10.610090921206018"><ele>100.0</ele><time>2026-04-02T09:24:20Z</time></trkpt><trkpt lat="45.3943189066282" lon="10.609925829224641"><ele>99.5</ele><time>2026-04-02T09:24:21Z</time></trkpt><trkpt lat="45.39437459043116" lon="10.609765060936436"><ele>99.0</ele><time>2026-04-02T09:24:22Z</time></trkpt><trkpt lat="45.394450439020325" lon="10.609583362946948"><ele>98.5</ele><time>2026-04-02T09:24:23Z</time></trkpt><trkpt lat="45.39453030420789" lon="10.609401283025635"><ele>98.0</ele><time>2026-04-02T09:24:24Z</time></trkpt><trkpt lat="45.39460012643077" lon="10.609234812551703"><ele>97.33333333333333</ele><time>2026-04-02T09:24:25Z</time></trkpt><trkpt lat="45.39465641987293" lon="10.609061130613616"><ele>96.66666666666666</ele><time>2026-04-02T09:24:26Z</time></trkpt><trkpt lat="45.394699754608205" lon="10.608855147190358"><ele>96.0</ele><time>2026-04-02T09:24:27Z</time></trkpt><trkpt lat="45.39473327931395" lon="10.608594534954465"><ele>98.66666666666666</ele><time>2026-04-02T09:24:28Z</time></trkpt><trkpt lat="45.39474905403782" lon="10.608344583038692"><ele>101.33333333333333</ele><time>2026-04-02T09:24:29Z</time></trkpt><trkpt lat="45.39475963962987" lon="10.608072163355686"><ele>104.0</ele><time>2026-04-02T09:24:30Z</time></trkpt><trkpt lat="45.39476736075078" lon="10.607773660030444"><ele>104.0</ele><time>2026-04-02T09:24:31Z</time></trkpt><trkpt lat="45.394772402552036" lon="10.60749913146418"><ele>104.0</ele><time>2026-04-02T09:24:32Z</time></trkpt><trkpt lat="45.39478025636944" lon="10.607240549519148"><ele>104.0</ele><time>2026-04-02T09:24:33Z</time></trkpt><trkpt lat="45.394782970529945" lon="10.607006217766989"><ele>103.6</ele><time>2026-04-02T09:24:34Z</time></trkpt><trkpt lat="45.39478749239938" lon="10.606796036944823"><ele>103.2</ele><time>2026-04-02T09:24:35Z</time></trkpt><trkpt lat="45.394800001868056" lon="10.606617605406084"><ele>102.8</ele><time>2026-04-02T09:24:36Z</time></trkpt><trkpt lat="45.39482257745877" lon="10.606486822830021"><ele>102.39999999999999</ele><time>2026-04-02T09:24:37Z</time></trkpt><trkpt lat="45.39484733479194" lon="10.606376806000558"><ele>102.0</ele><time>2026-04-02T09:24:38Z</time></trkpt><trkpt lat="45.39487435620835" lon="10.60626979029118"><ele>102.0</ele><time>2026-04-02T09:24:39Z</time></trkpt><trkpt lat="45.39489310845713" lon="10.606164424779019"><ele>102.0</ele><time>2026-04-02T09:24:40Z</time></trkpt><trkpt lat="45.394907153396886" lon="10.606074669619531"><ele>102.0</ele><time>2026-04-02T09:24:41Z</time></trkpt><trkpt lat="45.39494385249034" lon="10.605916907622936"><ele>102.0</ele><time>2026-04-02T09:24:43Z</time></trkpt><trkpt lat="45.39496540738816" lon="10.605762680521513"><ele>102.0</ele><time>2026-04-02T09:24:45Z</time></trkpt><trkpt lat="45.39491326599035" lon="10.60566013853792"><ele>102.16666666666667</ele><time>2026-04-02T09:24:51Z</time></trkpt><trkpt lat="45.394980230126656" lon="10.605704294156004"><ele>102.33333333333334</ele><time>2026-04-02T09:25:13.999Z</time></trkpt><trkpt lat="45.3950060942837" lon="10.605604531019022"><ele>102.5</ele><time>2026-04-02T09:25:15.999Z</time></trkpt><trkpt lat="45.395031139346365" lon="10.605417860165161"><ele>102.66666666666667</ele><time>2026-04-02T09:25:17.999Z</time></trkpt><trkpt lat="45.39505270501912" lon="10.605304080968263"><ele>102.83333333333334</ele><time>2026-04-02T09:25:18.999Z</time></trkpt><trkpt lat="45.39507363385487" lon="10.605189950052491"><ele>103.0</ele><time>2026-04-02T09:25:19.999Z</time></trkpt><trkpt lat="45.3950992445467" lon="10.605048138070634"><ele>102.25</ele><time>2026-04-02T09:25:20.999Z</time></trkpt><trkpt lat="45.39513680626714" lon="10.604868951851934"><ele>101.5</ele><time>2026-04-02T09:25:21.999Z</time></trkpt><trkpt lat="45.395182806133825" lon="10.604664713662505"><ele>100.75</ele><time>2026-04-02T09:25:22.999Z</time></trkpt><trkpt lat="45.39522283083789" lon="10.604482067336706"><ele>100.0</ele><time>2026-04-02T09:25:23.999Z</time></trkpt><trkpt lat="45.39525835099036" lon="10.604355802434483"><ele>100.00000000000001</ele><time>2026-04-02T09:25:24.999Z</time></trkpt><trkpt lat="45.39529281805909" lon="10.60426859286878"><ele>100.0</ele><time>2026-04-02T09:25:25.999Z</time></trkpt><trkpt lat="45.39532408581864" lon="10.604186801764701"><ele>100.0</ele><time>2026-04-02T09:25:26.999Z</time></trkpt><trkpt lat="45.39536027845892" lon="10.604073332231644"><ele>100.0</ele><time>2026-04-02T09:25:28.999Z</time></trkpt><trkpt lat="45.39540026995857" lon="10.60397618403526"><ele>100.00000000000001</ele><time>2026-04-02T09:25:31.999Z</time></trkpt><trkpt lat="45.3954292613608" lon="10.60385433085404"><ele>100.0</ele><time>2026-04-02T09:25:34.999Z</time></trkpt><trkpt lat="45.39545566415103" lon="10.60377085893757"><ele>99.6</ele><time>2026-04-02T09:25:35.999Z</time></trkpt><trkpt lat="45.39549265395313" lon="10.603663355771316"><ele>99.2</ele><time>2026-04-02T09:25:36.999Z</time></trkpt><trkpt lat="45.39554143901018" lon="10.603533360514511"><ele>98.80000000000001</ele><time>2026-04-02T09:25:38.999Z</time></trkpt><trkpt lat="45.395591281232775" lon="10.603371981625239"><ele>98.4</ele><time>2026-04-02T09:25:40.999Z</time></trkpt><trkpt lat="45.39564316113407" lon="10.603213223752737"><ele>98.0</ele><time>2026-04-02T09:25:41.999Z</time></trkpt><trkpt lat="45.39571495038766" lon="10.6030068016468"><ele>99.33333333333333</ele><time>2026-04-02T09:25:42.999Z</time></trkpt><trkpt lat="45.395793730097346" lon="10.602767451642984"><ele>100.66666666666666</ele><time>2026-04-02T09:25:43.999Z</time></trkpt><trkpt lat="45.395877604197466" lon="10.602484164921277"><ele>102.0</ele><time>2026-04-02T09:25:44.999Z</time></trkpt><trkpt lat="45.3959648004701" lon="10.602197061476835"><ele>101.66666666666666</ele><time>2026-04-02T09:25:45.999Z</time></trkpt><trkpt lat="45.396056877296914" lon="10.60192213795846"><ele>101.33333333333333</ele><time>2026-04-02T09:25:46.999Z</time></trkpt><trkpt lat="45.39612929475608" lon="10.601659347423942"><ele>101.0</ele><time>2026-04-02T09:25:47.999Z</time></trkpt><trkpt lat="45.39618895385464" lon="10.601404248855935"><ele>101.0</ele><time>2026-04-02T09:25:48.999Z</time></trkpt><trkpt lat="45.39625334149252" lon="10.601167596580158"><ele>101.0</ele><time>2026-04-02T09:25:49.999Z</time></trkpt><trkpt lat="45.39631958057907" lon="10.600947045393564"><ele>101.0</ele><time>2026-04-02T09:25:50.999Z</time></trkpt><trkpt lat="45.39638594951517" lon="10.600730554743665"><ele>101.5</ele><time>2026-04-02T09:25:51.999Z</time></trkpt><trkpt lat="45.396444892226604" lon="10.6005437676661"><ele>102.0</ele><time>2026-04-02T09:25:52.999Z</time></trkpt><trkpt lat="45.39647589861339" lon="10.600390383402614"><ele>102.5</ele><time>2026-04-02T09:25:53.999Z</time></trkpt><trkpt lat="45.39653607863472" lon="10.600229918338062"><ele>103.0</ele><time>2026-04-02T09:25:54.999Z</time></trkpt><trkpt lat="45.39659495878942" lon="10.60005578920874"><ele>103.0</ele><time>2026-04-02T09:25:55.999Z</time></trkpt><trkpt lat="45.396644550637426" lon="10.599920091371796"><ele>103.0</ele><time>2026-04-02T09:25:56.999Z</time></trkpt><trkpt lat="45.39670571093372" lon="10.599817531286869"><ele>103.0</ele><time>2026-04-02T09:25:57.999Z</time></trkpt><trkpt lat="45.39677251949541" lon="10.59970183551272"><ele>103.0</ele><time>2026-04-02T09:25:58.999Z</time></trkpt><trkpt lat="45.396819631348876" lon="10.599571499441875"><ele>103.0</ele><time>2026-04-02T09:25:59.999Z</time></trkpt><trkpt lat="45.396840626763584" lon="10.599457600043145"><ele>102.66666666666667</ele><time>2026-04-02T09:26:00.999Z</time></trkpt><trkpt lat="45.396889793247624" lon="10.59931773718019"><ele>102.33333333333334</ele><time>2026-04-02T09:26:02.999Z</time></trkpt><trkpt lat="45.39691289941797" lon="10.599210576129305"><ele>102.0</ele><time>2026-04-02T09:26:05.999Z</time></trkpt><trkpt lat="45.3969196310505" lon="10.599055922222842"><ele>101.66666666666666</ele><time>2026-04-02T09:26:12.999Z</time></trkpt><trkpt lat="45.39693863129535" lon="10.598965511044398"><ele>101.33333333333333</ele><time>2026-04-02T09:26:13.999Z</time></trkpt><trkpt lat="45.39695958259618" lon="10.598871528769047"><ele>101.0</ele><time>2026-04-02T09:26:15Z</time></trkpt><trkpt lat="45.39698282183632" lon="10.598774577479134"><ele>101.0</ele><time>2026-04-02T09:26:16Z</time></trkpt><trkpt lat="45.39700754314357" lon="10.59867570103848"><ele>101.0</ele><time>2026-04-02T09:26:17Z</time></trkpt><trkpt lat="45.39704247513136" lon="10.59856033343964"><ele>101.0</ele><time>2026-04-02T09:26:18Z</time></trkpt><trkpt lat="45.39709666095495" lon="10.598391325815783"><ele>101.0</ele><time>2026-04-02T09:26:19Z</time></trkpt><trkpt lat="45.397156738849944" lon="10.598198359067391"><ele>101.0</ele><time>2026-04-02T09:26:20Z</time></trkpt><trkpt lat="45.397193192708166" lon="10.598019633844077"><ele>101.75</ele><time>2026-04-02T09:26:21Z</time></trkpt><trkpt lat="45.397223873122016" lon="10.597818696311341"><ele>102.5</ele><time>2026-04-02T09:26:22Z</time></trkpt><trkpt lat="45.39725689057006" lon="10.597621159967991"><ele>103.25</ele><time>2026-04-02T09:26:23Z</time></trkpt><trkpt lat="45.39727784737989" lon="10.59747962889947"><ele>104.0</ele><time>2026-04-02T09:26:24Z</time></trkpt><trkpt lat="45.39728342586244" lon="10.597372533455284"><ele>103.99999999999999</ele><time>2026-04-02T09:26:25Z</time></trkpt><trkpt lat="45.397284851240045" lon="10.597281836765093"><ele>104.0</ele><time>2026-04-02T09:26:26Z</time></trkpt><trkpt lat="45.397285187743506" lon="10.597191094065206"><ele>104.0</ele><time>2026-04-02T09:26:27Z</time></trkpt><trkpt lat="45.39726276031206" lon="10.597088370631061"><ele>104.0</ele><time>2026-04-02T09:26:29Z</time></trkpt><trkpt lat="45.39717953491023" lon="10.59707497745242"><ele>103.99999999999999</ele><time>2026-04-02T09:26:31Z</time></trkpt><trkpt lat="45.397090482214224" lon="10.59708701650437"><ele>104.0</ele><time>2026-04-02T09:26:32Z</time></trkpt><trkpt lat="45.396981264338464" lon="10.597106678859953"><ele>103.75</ele><time>2026-04-02T09:26:33Z</time></trkpt><trkpt lat="45.39686570219096" lon="10.597112621641157"><ele>103.5</ele><time>2026-04-02T09:26:34Z</time></trkpt><trkpt lat="45.396749356925" lon="10.597149112503672"><ele>103.25</ele><time>2026-04-02T09:26:35Z</time></trkpt><trkpt lat="45.39662500428997" lon="10.597216694162562"><ele>103.0</ele><time>2026-04-02T09:26:36Z</time></trkpt><trkpt lat="45.39650965515689" lon="10.597270822448461"><ele>103.0</ele><time>2026-04-02T09:26:37Z</time></trkpt><trkpt lat="45.39639445197761" lon="10.59728268234241"><ele>103.0</ele><time>2026-04-02T09:26:38Z</time></trkpt><trkpt lat="45.39627102281631" lon="10.597246470060405"><ele>103.0</ele><time>2026-04-02T09:26:39Z</time></trkpt><trkpt lat="45.39614115134741" lon="10.59718202857918"><ele>103.0</ele><time>2026-04-02T09:26:40Z</time></trkpt><trkpt lat="45.3960093199019" lon="10.59713294643225"><ele>103.80000000000001</ele><time>2026-04-02T09:26:41Z</time></trkpt><trkpt lat="45.395895995331934" lon="10.597104186650723"><ele>104.6</ele><time>2026-04-02T09:26:42Z</time></trkpt><trkpt lat="45.395817457802984" lon="10.597076111056946"><ele>105.39999999999999</ele><time>2026-04-02T09:26:43Z</time></trkpt><trkpt lat="45.395708392574754" lon="10.597009865501938"><ele>106.19999999999999</ele><time>2026-04-02T09:26:45Z</time></trkpt><trkpt lat="45.39565199586647" lon="10.596960935417872"><ele>107.0</ele><time>2026-04-02T09:26:46Z</time></trkpt><trkpt lat="45.395558650681785" lon="10.59683444394745"><ele>108.25</ele><time>2026-04-02T09:26:48Z</time></trkpt><trkpt lat="45.39549691451592" lon="10.596722135517474"><ele>109.5</ele><time>2026-04-02T09:26:49Z</time></trkpt><trkpt lat="45.39541936295688" lon="10.596584101915134"><ele>110.75</ele><time>2026-04-02T09:26:50Z</time></trkpt><trkpt lat="45.395329742449405" lon="10.59644768275296"><ele>112.0</ele><time>2026-04-02T09:26:51Z</time></trkpt><trkpt lat="45.39524418854168" lon="10.596359597113366"><ele>112.0</ele><time>2026-04-02T09:26:52Z</time></trkpt><trkpt lat="45.39514299592119" lon="10.596293858689311"><ele>112.0</ele><time>2026-04-02T09:26:53Z</time></trkpt><trkpt lat="45.395028019384235" lon="10.596255436505285"><ele>112.0</ele><time>2026-04-02T09:26:54Z</time></trkpt><trkpt lat="45.394915816970475" lon="10.59622068361013"><ele>112.0</ele><time>2026-04-02T09:26:55Z</time></trkpt><trkpt lat="45.39480933299277" lon="10.59619018230379"><ele>112.39999999999999</ele><time>2026-04-02T09:26:56Z</time></trkpt><trkpt lat="45.39471343510034" lon="10.596166693951092"><ele>112.79999999999998</ele><time>2026-04-02T09:26:57Z</time></trkpt><trkpt lat="45.394623318973274" lon="10.596144545826451"><ele>113.2</ele><time>2026-04-02T09:26:58Z</time></trkpt><trkpt lat="45.394537600251695" lon="10.59612041785738"><ele>113.6</ele><time>2026-04-02T09:26:59Z</time></trkpt><trkpt lat="45.394453577777085" lon="10.596086226843447"><ele>114.0</ele><time>2026-04-02T09:27:00Z</time></trkpt><trkpt lat="45.39436167320101" lon="10.596045011725506"><ele>114.4</ele><time>2026-04-02T09:27:01Z</time></trkpt><trkpt lat="45.3942703953149" lon="10.596002310664188"><ele>114.80000000000001</ele><time>2026-04-02T09:27:02Z</time></trkpt><trkpt lat="45.394171695298255" lon="10.595959224588496"><ele>115.19999999999999</ele><time>2026-04-02T09:27:03Z</time></trkpt><trkpt lat="45.39407213824957" lon="10.595907190365388"><ele>115.6</ele><time>2026-04-02T09:27:04Z</time></trkpt><trkpt lat="45.39399143904334" lon="10.595861850686815"><ele>116.0</ele><time>2026-04-02T09:27:05Z</time></trkpt><trkpt lat="45.393926785028356" lon="10.595807321627673"><ele>115.99999999999999</ele><time>2026-04-02T09:27:06Z</time></trkpt><trkpt lat="45.39387637336842" lon="10.595739461919125"><ele>116.0</ele><time>2026-04-02T09:27:07Z</time></trkpt><trkpt lat="45.393842584117664" lon="10.595650900177523"><ele>116.0</ele><time>2026-04-02T09:27:08Z</time></trkpt><trkpt lat="45.39382289344682" lon="10.595546708612881"><ele>116.0</ele><time>2026-04-02T09:27:09Z</time></trkpt><trkpt lat="45.39382402226784" lon="10.595428599921853"><ele>115.99999999999999</ele><time>2026-04-02T09:27:10Z</time></trkpt><trkpt lat="45.39384330641596" lon="10.595278006682882"><ele>116.0</ele><time>2026-04-02T09:27:11Z</time></trkpt><trkpt lat="45.393870175018854" lon="10.595101372007536"><ele>115.5</ele><time>2026-04-02T09:27:12Z</time></trkpt><trkpt lat="45.39388953556133" lon="10.594922151896357"><ele>115.0</ele><time>2026-04-02T09:27:13Z</time></trkpt><trkpt lat="45.393899440754396" lon="10.59473583870047"><ele>114.5</ele><time>2026-04-02T09:27:14Z</time></trkpt><trkpt lat="45.39390844986297" lon="10.594533205823907"><ele>114.0</ele><time>2026-04-02T09:27:15Z</time></trkpt><trkpt lat="45.39391823262087" lon="10.594336717916086"><ele>114.0</ele><time>2026-04-02T09:27:16Z</time></trkpt><trkpt lat="45.393920575569105" lon="10.59417034305344"><ele>114.0</ele><time>2026-04-02T09:27:17Z</time></trkpt><trkpt lat="45.3939163583866" lon="10.594046879494929"><ele>114.0</ele><time>2026-04-02T09:27:18Z</time></trkpt><trkpt lat="45.393902079686235" lon="10.593946802388999"><ele>114.0</ele><time>2026-04-02T09:27:19Z</time></trkpt><trkpt lat="45.393870944366384" lon="10.593853737858218"><ele>114.0</ele><time>2026-04-02T09:27:20Z</time></trkpt><trkpt lat="45.39381100142547" lon="10.593770515193285"><ele>114.0</ele><time>2026-04-02T09:27:21Z</time></trkpt><trkpt lat="45.39372313565283" lon="10.593704413420715"><ele>114.5</ele><time>2026-04-02T09:27:22Z</time></trkpt><trkpt lat="45.393601019437405" lon="10.593633487072777"><ele>115.0</ele><time>2026-04-02T09:27:23Z</time></trkpt><trkpt lat="45.39347874061618" lon="10.59355021649049"><ele>115.5</ele><time>2026-04-02T09:27:24Z</time></trkpt><trkpt lat="45.393367818571676" lon="10.593435144107424"><ele>116.0</ele><time>2026-04-02T09:27:25Z</time></trkpt><trkpt lat="45.393262076471" lon="10.59332386336063"><ele>116.0</ele><time>2026-04-02T09:27:26Z</time></trkpt><trkpt lat="45.393162944744624" lon="10.593241069805389"><ele>116.0</ele><time>2026-04-02T09:27:27Z</time></trkpt><trkpt lat="45.393059231235846" lon="10.593190177212168"><ele>116.0</ele><time>2026-04-02T09:27:28Z</time></trkpt><trkpt lat="45.392929258097396" lon="10.593153703826335"><ele>116.0</ele><time>2026-04-02T09:27:29Z</time></trkpt><trkpt lat="45.39280564209317" lon="10.593122780146544"><ele>116.6</ele><time>2026-04-02T09:27:30Z</time></trkpt><trkpt lat="45.392693325964245" lon="10.593075794317283"><ele>117.19999999999999</ele><time>2026-04-02T09:27:31Z</time></trkpt><trkpt lat="45.39260719094602" lon="10.59301083587228"><ele>117.80000000000001</ele><time>2026-04-02T09:27:32Z</time></trkpt><trkpt lat="45.39255410973145" lon="10.592927269228102"><ele>118.4</ele><time>2026-04-02T09:27:33Z</time></trkpt><trkpt lat="45.39252645040122" lon="10.592827101444344"><ele>119.0</ele><time>2026-04-02T09:27:34Z</time></trkpt><trkpt lat="45.39252080044" lon="10.592708579023958"><ele>119.25</ele><time>2026-04-02T09:27:34.999Z</time></trkpt><trkpt lat="45.392538344600304" lon="10.592582637426203"><ele>119.5</ele><time>2026-04-02T09:27:35.999Z</time></trkpt><trkpt lat="45.392573958253806" lon="10.592416921080595"><ele>119.75</ele><time>2026-04-02T09:27:36.999Z</time></trkpt><trkpt lat="45.39259895706345" lon="10.592216691706762"><ele>120.0</ele><time>2026-04-02T09:27:37.999Z</time></trkpt><trkpt lat="45.39259554057261" lon="10.592039133294593"><ele>120.25</ele><time>2026-04-02T09:27:38.999Z</time></trkpt><trkpt lat="45.39256098015344" lon="10.591858533576119"><ele>120.5</ele><time>2026-04-02T09:27:39.999Z</time></trkpt><trkpt lat="45.39249952895699" lon="10.591672264233676"><ele>120.75</ele><time>2026-04-02T09:27:40.999Z</time></trkpt><trkpt lat="45.392411678252515" lon="10.591490406872303"><ele>121.0</ele><time>2026-04-02T09:27:41.999Z</time></trkpt><trkpt lat="45.392286025380635" lon="10.59128633731867"><ele>120.25</ele><time>2026-04-02T09:27:42.999Z</time></trkpt><trkpt lat="45.39217615870475" lon="10.591125134643798"><ele>119.5</ele><time>2026-04-02T09:27:43.999Z</time></trkpt><trkpt lat="45.392102127875745" lon="10.59099700588696"><ele>118.75</ele><time>2026-04-02T09:27:44.999Z</time></trkpt><trkpt lat="45.39205603434692" lon="10.590874520976081"><ele>118.0</ele><time>2026-04-02T09:27:45.999Z</time></trkpt><trkpt lat="45.392032703027674" lon="10.590719859811017"><ele>117.66666666666667</ele><time>2026-04-02T09:27:46.999Z</time></trkpt><trkpt lat="45.39202701501147" lon="10.590515364262599"><ele>117.33333333333334</ele><time>2026-04-02T09:27:47.999Z</time></trkpt><trkpt lat="45.39202014586867" lon="10.590268363670633"><ele>117.0</ele><time>2026-04-02T09:27:48.999Z</time></trkpt><trkpt lat="45.392016917798806" lon="10.590043610751144"><ele>117.0</ele><time>2026-04-02T09:27:49.999Z</time></trkpt><trkpt lat="45.39201848700572" lon="10.589847488505836"><ele>117.0</ele><time>2026-04-02T09:27:50.999Z</time></trkpt><trkpt lat="45.392023094539404" lon="10.589645601808705"><ele>117.0</ele><time>2026-04-02T09:27:51.999Z</time></trkpt><trkpt lat="45.3920238245034" lon="10.58942396736774"><ele>117.0</ele><time>2026-04-02T09:27:52.999Z</time></trkpt><trkpt lat="45.392014698672064" lon="10.58919105822186"><ele>117.25</ele><time>2026-04-02T09:27:53.999Z</time></trkpt><trkpt lat="45.39199189927443" lon="10.58899252419974"><ele>117.5</ele><time>2026-04-02T09:27:54.999Z</time></trkpt><trkpt lat="45.391965864499994" lon="10.588831948392809"><ele>117.75</ele><time>2026-04-02T09:27:55.999Z</time></trkpt><trkpt lat="45.39194203657161" lon="10.588678431240067"><ele>118.0</ele><time>2026-04-02T09:27:56.999Z</time></trkpt><trkpt lat="45.3919136713882" lon="10.588519316639983"><ele>118.0</ele><time>2026-04-02T09:27:57.999Z</time></trkpt><trkpt lat="45.39187692550422" lon="10.588353868409483"><ele>118.0</ele><time>2026-04-02T09:27:58.999Z</time></trkpt><trkpt lat="45.391823122516634" lon="10.588175406243563"><ele>118.0</ele><time>2026-04-02T09:27:59.999Z</time></trkpt><trkpt lat="45.391746092445445" lon="10.587986263295685"><ele>118.0</ele><time>2026-04-02T09:28:00.999Z</time></trkpt><trkpt lat="45.39166344704045" lon="10.587824253564925"><ele>117.4</ele><time>2026-04-02T09:28:01.999Z</time></trkpt><trkpt lat="45.39157271256304" lon="10.587704368853947"><ele>116.80000000000001</ele><time>2026-04-02T09:28:02.999Z</time></trkpt><trkpt lat="45.3914766062537" lon="10.587616205853035"><ele>116.2</ele><time>2026-04-02T09:28:03.999Z</time></trkpt><trkpt lat="45.39138465091053" lon="10.587534911745554"><ele>115.6</ele><time>2026-04-02T09:28:04.999Z</time></trkpt><trkpt lat="45.39131985003588" lon="10.587435366776853"><ele>115.0</ele><time>2026-04-02T09:28:05.999Z</time></trkpt><trkpt lat="45.39128045819754" lon="10.587302304048416"><ele>115.0</ele><time>2026-04-02T09:28:06.999Z</time></trkpt><trkpt lat="45.39126885955993" lon="10.587152699860702"><ele>115.0</ele><time>2026-04-02T09:28:07.999Z</time></trkpt><trkpt lat="45.39128174220265" lon="10.586976257892129"><ele>115.0</ele><time>2026-04-02T09:28:08.999Z</time></trkpt><trkpt lat="45.391324627951526" lon="10.58678865845755"><ele>115.0</ele><time>2026-04-02T09:28:09.999Z</time></trkpt><trkpt lat="45.391398820727524" lon="10.586599161609666"><ele>115.0</ele><time>2026-04-02T09:28:10.999Z</time></trkpt><trkpt lat="45.391495600523996" lon="10.586408398027602"><ele>115.0</ele><time>2026-04-02T09:28:11.999Z</time></trkpt><trkpt lat="45.391571957781146" lon="10.58623383766017"><ele>115.0</ele><time>2026-04-02T09:28:12.999Z</time></trkpt><trkpt lat="45.391619805220294" lon="10.586048882410218"><ele>115.0</ele><time>2026-04-02T09:28:13.999Z</time></trkpt><trkpt lat="45.39164571514695" lon="10.585854479533824"><ele>115.0</ele><time>2026-04-02T09:28:14.999Z</time></trkpt><trkpt lat="45.39166545049144" lon="10.585659064856236"><ele>115.0</ele><time>2026-04-02T09:28:15.999Z</time></trkpt><trkpt lat="45.39168515114859" lon="10.585454552927612"><ele>115.0</ele><time>2026-04-02T09:28:16.999Z</time></trkpt><trkpt lat="45.39170473239465" lon="10.585254723784617"><ele>115.0</ele><time>2026-04-02T09:28:17.999Z</time></trkpt><trkpt lat="45.391724973914705" lon="10.585105669595343"><ele>115.00000000000001</ele><time>2026-04-02T09:28:18.999Z</time></trkpt><trkpt lat="45.39174238702706" lon="10.584988520689155"><ele>115.0</ele><time>2026-04-02T09:28:19.999Z</time></trkpt><trkpt lat="45.391751883135356" lon="10.584872663740239"><ele>115.0</ele><time>2026-04-02T09:28:21Z</time></trkpt><trkpt lat="45.391734844275106" lon="10.584748582491727"><ele>115.0</ele><time>2026-04-02T09:28:22Z</time></trkpt><trkpt lat="45.39169228207619" lon="10.58463302878396"><ele>115.00000000000001</ele><time>2026-04-02T09:28:23Z</time></trkpt><trkpt lat="45.391622609114314" lon="10.584530227745084"><ele>115.0</ele><time>2026-04-02T09:28:24Z</time></trkpt><trkpt lat="45.3915168459631" lon="10.5844259243548"><ele>115.0</ele><time>2026-04-02T09:28:25Z</time></trkpt><trkpt lat="45.39139101300172" lon="10.58429296246484"><ele>115.0</ele><time>2026-04-02T09:28:26Z</time></trkpt><trkpt lat="45.39125874576223" lon="10.584141989566696"><ele>115.0</ele><time>2026-04-02T09:28:27Z</time></trkpt><trkpt lat="45.39115471417454" lon="10.58402434623762"><ele>116.0</ele><time>2026-04-02T09:28:28Z</time></trkpt><trkpt lat="45.391064865176986" lon="10.583942836237709"><ele>117.0</ele><time>2026-04-02T09:28:29Z</time></trkpt><trkpt lat="45.39097156120356" lon="10.583904338457407"><ele>118.0</ele><time>2026-04-02T09:28:30Z</time></trkpt><trkpt lat="45.39085641382396" lon="10.583912928078792"><ele>119.0</ele><time>2026-04-02T09:28:31Z</time></trkpt><trkpt lat="45.390713574506165" lon="10.58394029679718"><ele>119.0</ele><time>2026-04-02T09:28:32Z</time></trkpt><trkpt lat="45.39057390947084" lon="10.583950293899012"><ele>119.0</ele><time>2026-04-02T09:28:33Z</time></trkpt><trkpt lat="45.39043786291142" lon="10.583957329551547"><ele>119.0</ele><time>2026-04-02T09:28:34Z</time></trkpt><trkpt lat="45.39031686607362" lon="10.583957002396996"><ele>119.0</ele><time>2026-04-02T09:28:35Z</time></trkpt><trkpt lat="45.390221892588706" lon="10.583949693280255"><ele>118.99999999999999</ele><time>2026-04-02T09:28:36Z</time></trkpt><trkpt lat="45.39014011914873" lon="10.5839339272687"><ele>119.0</ele><time>2026-04-02T09:28:37Z</time></trkpt><trkpt lat="45.39005211468178" lon="10.583909368757435"><ele>119.0</ele><time>2026-04-02T09:28:38Z</time></trkpt><trkpt lat="45.38997558453358" lon="10.583863418635987"><ele>119.0</ele><time>2026-04-02T09:28:39Z</time></trkpt><trkpt lat="45.38990372049828" lon="10.583762431575265"><ele>118.99999999999999</ele><time>2026-04-02T09:28:41Z</time></trkpt><trkpt lat="45.38986268454043" lon="10.583655791530095"><ele>119.0</ele><time>2026-04-02T09:28:45Z</time></trkpt><trkpt lat="45.38986978136821" lon="10.58355375029808"><ele>119.0</ele><time>2026-04-02T09:28:47Z</time></trkpt><trkpt lat="45.38977843728816" lon="10.583556797121789"><ele>119.0</ele><time>2026-04-02T09:28:51Z</time></trkpt><trkpt lat="45.389734100190985" lon="10.583638563363115"><ele>119.0</ele><time>2026-04-02T09:28:52Z</time></trkpt><trkpt lat="45.389690312067316" lon="10.583746586401777"><ele>119.0</ele><time>2026-04-02T09:28:53Z</time></trkpt><trkpt lat="45.38963198966529" lon="10.583874575676495"><ele>119.0</ele><time>2026-04-02T09:28:54Z</time></trkpt><trkpt lat="45.38958005628494" lon="10.584012067034601"><ele>117.0</ele><time>2026-04-02T09:28:55Z</time></trkpt><trkpt lat="45.389517859401714" lon="10.584119809631805"><ele>115.0</ele><time>2026-04-02T09:28:56Z</time></trkpt><trkpt lat="45.38946446514622" lon="10.584269028936827"><ele>113.0</ele><time>2026-04-02T09:28:57Z</time></trkpt><trkpt lat="45.38941397312471" lon="10.584447048188089"><ele>111.0</ele><time>2026-04-02T09:28:58Z</time></trkpt><trkpt lat="45.389366303983685" lon="10.584643176065452"><ele>110.33333333333334</ele><time>2026-04-02T09:28:59Z</time></trkpt><trkpt lat="45.38931791598397" lon="10.584846428803113"><ele>109.66666666666667</ele><time>2026-04-02T09:29:00Z</time></trkpt><trkpt lat="45.38926766709193" lon="10.585060385759439"><ele>109.0</ele><time>2026-04-02T09:29:01Z</time></trkpt><trkpt lat="45.38921641437388" lon="10.585262395036946"><ele>108.5</ele><time>2026-04-02T09:29:02Z</time></trkpt><trkpt lat="45.38915885474555" lon="10.585427539292278"><ele>108.0</ele><time>2026-04-02T09:29:03Z</time></trkpt><trkpt lat="45.38909528777322" lon="10.585588874448883"><ele>107.5</ele><time>2026-04-02T09:29:04Z</time></trkpt><trkpt lat="45.38903170873275" lon="10.585750567524581"><ele>107.0</ele><time>2026-04-02T09:29:05Z</time></trkpt><trkpt lat="45.38896760834674" lon="10.58592080648667"><ele>107.0</ele><time>2026-04-02T09:29:06Z</time></trkpt><trkpt lat="45.388889019632245" lon="10.586081738048383"><ele>107.0</ele><time>2026-04-02T09:29:07Z</time></trkpt><trkpt lat="45.38883524596601" lon="10.586271354346817"><ele>107.0</ele><time>2026-04-02T09:29:08Z</time></trkpt><trkpt lat="45.388816263605676" lon="10.586479124399867"><ele>107.0</ele><time>2026-04-02T09:29:09Z</time></trkpt><trkpt lat="45.38877264853649" lon="10.586674332335928"><ele>105.83333333333333</ele><time>2026-04-02T09:29:10Z</time></trkpt><trkpt lat="45.3887452680343" lon="10.58682942821645"><ele>104.66666666666666</ele><time>2026-04-02T09:29:11Z</time></trkpt><trkpt lat="45.38872371116039" lon="10.586945125710718"><ele>103.5</ele><time>2026-04-02T09:29:12Z</time></trkpt><trkpt lat="45.388666388439084" lon="10.58702265608299"><ele>102.33333333333334</ele><time>2026-04-02T09:29:13Z</time></trkpt><trkpt lat="45.3885957207944" lon="10.587064070473087"><ele>101.16666666666667</ele><time>2026-04-02T09:29:14Z</time></trkpt><trkpt lat="45.388509485943494" lon="10.587049372778726"><ele>100.0</ele><time>2026-04-02T09:29:15Z</time></trkpt><trkpt lat="45.38841384208332" lon="10.587054701152507"><ele>100.0</ele><time>2026-04-02T09:29:16Z</time></trkpt><trkpt lat="45.38830885275191" lon="10.587029842096602"><ele>100.0</ele><time>2026-04-02T09:29:17Z</time></trkpt><trkpt lat="45.38819938290673" lon="10.58695671431649"><ele>100.0</ele><time>2026-04-02T09:29:18Z</time></trkpt><trkpt lat="45.38807225386476" lon="10.586888452828456"><ele>100.0</ele><time>2026-04-02T09:29:19Z</time></trkpt><trkpt lat="45.38793140003897" lon="10.586808644201819"><ele>100.33333333333334</ele><time>2026-04-02T09:29:20Z</time></trkpt><trkpt lat="45.387778035496886" lon="10.586742108654752"><ele>100.66666666666666</ele><time>2026-04-02T09:29:21Z</time></trkpt><trkpt lat="45.38761965193662" lon="10.586656833477035"><ele>101.0</ele><time>2026-04-02T09:29:22Z</time></trkpt><trkpt lat="45.38746416284007" lon="10.586552536124064"><ele>101.0</ele><time>2026-04-02T09:29:23Z</time></trkpt><trkpt lat="45.38730240859633" lon="10.586478937337798"><ele>101.0</ele><time>2026-04-02T09:29:24Z</time></trkpt><trkpt lat="45.38714750212883" lon="10.586384669828755"><ele>101.0</ele><time>2026-04-02T09:29:25Z</time></trkpt><trkpt lat="45.38699063560762" lon="10.58630032080524"><ele>102.33333333333333</ele><time>2026-04-02T09:29:26Z</time></trkpt><trkpt lat="45.38683554168701" lon="10.58621893868824"><ele>103.66666666666666</ele><time>2026-04-02T09:29:27Z</time></trkpt><trkpt lat="45.38668590841811" lon="10.58613462599257"><ele>105.0</ele><time>2026-04-02T09:29:28Z</time></trkpt><trkpt lat="45.386540887122564" lon="10.586055232295537"><ele>105.0</ele><time>2026-04-02T09:29:29Z</time></trkpt><trkpt lat="45.38640680845983" lon="10.58598328664732"><ele>105.0</ele><time>2026-04-02T09:29:30Z</time></trkpt><trkpt lat="45.38628151721169" lon="10.585924317761926"><ele>105.0</ele><time>2026-04-02T09:29:31Z</time></trkpt><trkpt lat="45.3861550621347" lon="10.585874090107268"><ele>105.0</ele><time>2026-04-02T09:29:32Z</time></trkpt><trkpt lat="45.38602334741133" lon="10.585847764757595"><ele>105.5</ele><time>2026-04-02T09:29:33Z</time></trkpt><trkpt lat="45.38588913990609" lon="10.58583573409592"><ele>106.0</ele><time>2026-04-02T09:29:34Z</time></trkpt><trkpt lat="45.385752463801396" lon="10.585826898770756"><ele>106.5</ele><time>2026-04-02T09:29:35Z</time></trkpt><trkpt lat="45.38560753793929" lon="10.58582988710283"><ele>107.0</ele><time>2026-04-02T09:29:36Z</time></trkpt><trkpt lat="45.385455818493654" lon="10.58584591714495"><ele>107.0</ele><time>2026-04-02T09:29:37Z</time></trkpt><trkpt lat="45.38530022353236" lon="10.585865429495023"><ele>107.0</ele><time>2026-04-02T09:29:38Z</time></trkpt><trkpt lat="45.38513881373779" lon="10.585885299114501"><ele>107.0</ele><time>2026-04-02T09:29:39Z</time></trkpt><trkpt lat="45.3849744313914" lon="10.585903997254446"><ele>107.0</ele><time>2026-04-02T09:29:40Z</time></trkpt><trkpt lat="45.384810745017305" lon="10.585923382405118"><ele>107.0</ele><time>2026-04-02T09:29:41Z</time></trkpt><trkpt lat="45.38465653457772" lon="10.585935803972614"><ele>107.0</ele><time>2026-04-02T09:29:42Z</time></trkpt><trkpt lat="45.38450267268157" lon="10.585937557924414"><ele>106.25</ele><time>2026-04-02T09:29:43Z</time></trkpt><trkpt lat="45.3843547944592" lon="10.585940645428858"><ele>105.5</ele><time>2026-04-02T09:29:44Z</time></trkpt><trkpt lat="45.38422360386773" lon="10.585943881508035"><ele>104.75</ele><time>2026-04-02T09:29:45Z</time></trkpt><trkpt lat="45.38410547611225" lon="10.58594729157594"><ele>104.0</ele><time>2026-04-02T09:29:46Z</time></trkpt><trkpt lat="45.38399211198882" lon="10.585912817675847"><ele>104.0</ele><time>2026-04-02T09:29:47Z</time></trkpt><trkpt lat="45.383872628720106" lon="10.585864325198557"><ele>104.0</ele><time>2026-04-02T09:29:48Z</time></trkpt><trkpt lat="45.38373726417219" lon="10.58579019799579"><ele>104.0</ele><time>2026-04-02T09:29:49Z</time></trkpt><trkpt lat="45.383579547802675" lon="10.585698035132753"><ele>104.0</ele><time>2026-04-02T09:29:50Z</time></trkpt><trkpt lat="45.38339104426777" lon="10.585608983958387"><ele>103.5</ele><time>2026-04-02T09:29:51Z</time></trkpt><trkpt lat="45.38317754852264" lon="10.585505858954587"><ele>103.0</ele><time>2026-04-02T09:29:52Z</time></trkpt><trkpt lat="45.382967596609355" lon="10.58529850969471"><ele>104.0</ele><time>2026-04-02T09:29:53Z</time></trkpt><trkpt lat="45.38274770748703" lon="10.585107182702188"><ele>105.0</ele><time>2026-04-02T09:29:54Z</time></trkpt><trkpt lat="45.38256435477521" lon="10.584948938330959"><ele>105.0</ele><time>2026-04-02T09:29:55Z</time></trkpt><trkpt lat="45.382408970763116" lon="10.584811214667676"><ele>105.0</ele><time>2026-04-02T09:29:56Z</time></trkpt><trkpt lat="45.38227350979384" lon="10.584693255628125"><ele>105.0</ele><time>2026-04-02T09:29:57Z</time></trkpt><trkpt lat="45.38214365079868" lon="10.584584082775638"><ele>105.4</ele><time>2026-04-02T09:29:58Z</time></trkpt><trkpt lat="45.38202798794143" lon="10.58448801400381"><ele>105.8</ele><time>2026-04-02T09:29:59Z</time></trkpt><trkpt lat="45.38193503661672" lon="10.584424586374077"><ele>106.19999999999999</ele><time>2026-04-02T09:29:59.999Z</time></trkpt><trkpt lat="45.38185823298814" lon="10.584394945334996"><ele>106.6</ele><time>2026-04-02T09:30:00.999Z</time></trkpt><trkpt lat="45.38176918590904" lon="10.584404831913332"><ele>107.0</ele><time>2026-04-02T09:30:01.999Z</time></trkpt><trkpt lat="45.381692503871065" lon="10.584470574308565"><ele>107.5</ele><time>2026-04-02T09:30:02.999Z</time></trkpt><trkpt lat="45.38164107982561" lon="10.584601597452107"><ele>108.0</ele><time>2026-04-02T09:30:03.999Z</time></trkpt><trkpt lat="45.38163660053005" lon="10.584762405306394"><ele>108.5</ele><time>2026-04-02T09:30:04.999Z</time></trkpt><trkpt lat="45.381618608528846" lon="10.58494162601147"><ele>109.0</ele><time>2026-04-02T09:30:05.999Z</time></trkpt><trkpt lat="45.381611592188904" lon="10.585128031222236"><ele>109.0</ele><time>2026-04-02T09:30:06.999Z</time></trkpt><trkpt lat="45.38162287998887" lon="10.585307029069265"><ele>109.0</ele><time>2026-04-02T09:30:07.999Z</time></trkpt><trkpt lat="45.381606160396565" lon="10.585498858980731"><ele>109.0</ele><time>2026-04-02T09:30:08.999Z</time></trkpt><trkpt lat="45.38162011083127" lon="10.585705836903463"><ele>109.0</ele><time>2026-04-02T09:30:09.999Z</time></trkpt><trkpt lat="45.38161576646579" lon="10.58591529735741"><ele>109.25</ele><time>2026-04-02T09:30:10.999Z</time></trkpt><trkpt lat="45.38161543507608" lon="10.586117241455236"><ele>109.5</ele><time>2026-04-02T09:30:11.999Z</time></trkpt><trkpt lat="45.381612721745896" lon="10.5863133646512"><ele>109.75</ele><time>2026-04-02T09:30:12.999Z</time></trkpt><trkpt lat="45.38160931225724" lon="10.586505268902497"><ele>110.0</ele><time>2026-04-02T09:30:13.999Z</time></trkpt><trkpt lat="45.381607911498975" lon="10.586693023998865"><ele>110.5</ele><time>2026-04-02T09:30:14.999Z</time></trkpt><trkpt lat="45.38160267086203" lon="10.586880755174175"><ele>111.0</ele><time>2026-04-02T09:30:15.999Z</time></trkpt><trkpt lat="45.38160085227738" lon="10.587071540309621"><ele>111.5</ele><time>2026-04-02T09:30:16.999Z</time></trkpt><trkpt lat="45.381598418039985" lon="10.587271863759694"><ele>112.0</ele><time>2026-04-02T09:30:17.999Z</time></trkpt><trkpt lat="45.38159262377868" lon="10.587475390912807"><ele>113.33333333333334</ele><time>2026-04-02T09:30:18.999Z</time></trkpt><trkpt lat="45.38158737343438" lon="10.587685182876276"><ele>114.66666666666666</ele><time>2026-04-02T09:30:19.999Z</time></trkpt><trkpt lat="45.38158083888988" lon="10.587902604879826"><ele>116.0</ele><time>2026-04-02T09:30:20.999Z</time></trkpt><trkpt lat="45.38157387186948" lon="10.588125518240693"><ele>116.66666666666666</ele><time>2026-04-02T09:30:21.999Z</time></trkpt><trkpt lat="45.38157048306597" lon="10.588357926979068"><ele>117.33333333333334</ele><time>2026-04-02T09:30:22.999Z</time></trkpt><trkpt lat="45.38156849415469" lon="10.588595680492002"><ele>118.0</ele><time>2026-04-02T09:30:23.999Z</time></trkpt><trkpt lat="45.381548097664584" lon="10.588823849818072"><ele>118.66666666666667</ele><time>2026-04-02T09:30:24.999Z</time></trkpt><trkpt lat="45.381557886492715" lon="10.589046066647596"><ele>119.33333333333334</ele><time>2026-04-02T09:30:25.999Z</time></trkpt><trkpt lat="45.38154944390713" lon="10.589266649424529"><ele>120.0</ele><time>2026-04-02T09:30:27Z</time></trkpt><trkpt lat="45.38154428615956" lon="10.58948803320973"><ele>120.5</ele><time>2026-04-02T09:30:28Z</time></trkpt><trkpt lat="45.381535226666806" lon="10.589697756532566"><ele>121.0</ele><time>2026-04-02T09:30:29Z</time></trkpt><trkpt lat="45.38152740037559" lon="10.58986626385014"><ele>121.5</ele><time>2026-04-02T09:30:30Z</time></trkpt><trkpt lat="45.38152028771329" lon="10.589996021831125"><ele>122.0</ele><time>2026-04-02T09:30:31Z</time></trkpt><trkpt lat="45.381507332130596" lon="10.590129531983472"><ele>121.99999999999999</ele><time>2026-04-02T09:30:32Z</time></trkpt><trkpt lat="45.38149117618518" lon="10.590246578591909"><ele>122.0</ele><time>2026-04-02T09:30:33Z</time></trkpt><trkpt lat="45.381449620857126" lon="10.590352796009654"><ele>122.0</ele><time>2026-04-02T09:30:35Z</time></trkpt><trkpt lat="45.381412415810395" lon="10.590443751592407"><ele>122.0</ele><time>2026-04-02T09:30:39Z</time></trkpt><trkpt lat="45.381502285525826" lon="10.590544064273157"><ele>121.99999999999999</ele><time>2026-04-02T09:31:36Z</time></trkpt><trkpt lat="45.381507379112236" lon="10.590657648332133"><ele>122.0</ele><time>2026-04-02T09:32:47Z</time></trkpt><trkpt lat="45.38151627802498" lon="10.590758658063935"><ele>122.6</ele><time>2026-04-02T09:32:48Z</time></trkpt><trkpt lat="45.381532513281364" lon="10.5908805847729"><ele>123.19999999999999</ele><time>2026-04-02T09:32:49Z</time></trkpt><trkpt lat="45.381550300380404" lon="10.591011374919145"><ele>123.8</ele><time>2026-04-02T09:32:50Z</time></trkpt><trkpt lat="45.381568354818604" lon="10.591145519313844"><ele>124.4</ele><time>2026-04-02T09:32:51Z</time></trkpt><trkpt lat="45.38158942643519" lon="10.591292425196327"><ele>125.0</ele><time>2026-04-02T09:32:52Z</time></trkpt><trkpt lat="45.38161160691745" lon="10.591452075443557"><ele>125.2</ele><time>2026-04-02T09:32:53Z</time></trkpt><trkpt lat="45.38164177734795" lon="10.591608438116921"><ele>125.4</ele><time>2026-04-02T09:32:54Z</time></trkpt><trkpt lat="45.38166986297506" lon="10.59178694869152"><ele>125.6</ele><time>2026-04-02T09:32:55Z</time></trkpt><trkpt lat="45.38169197376721" lon="10.591940362147641"><ele>125.8</ele><time>2026-04-02T09:32:56Z</time></trkpt><trkpt lat="45.381701223056346" lon="10.592064890917989"><ele>126.0</ele><time>2026-04-02T09:32:57Z</time></trkpt><trkpt lat="45.3817285944056" lon="10.592198990075925"><ele>126.19999999999999</ele><time>2026-04-02T09:32:59Z</time></trkpt><trkpt lat="45.381816444406105" lon="10.59222394264384"><ele>126.39999999999999</ele><time>2026-04-02T09:33:01Z</time></trkpt><trkpt lat="45.38188511955743" lon="10.592195255965715"><ele>126.6</ele><time>2026-04-02T09:33:02Z</time></trkpt><trkpt lat="45.38197369110715" lon="10.592154313729244"><ele>126.8</ele><time>2026-04-02T09:33:03Z</time></trkpt><trkpt lat="45.3820900025738" lon="10.592111942346765"><ele>127.0</ele><time>2026-04-02T09:33:04Z</time></trkpt><trkpt lat="45.38220481433976" lon="10.592075038061903"><ele>125.8</ele><time>2026-04-02T09:33:05Z</time></trkpt><trkpt lat="45.38229535218005" lon="10.59204862154208"><ele>124.6</ele><time>2026-04-02T09:33:06Z</time></trkpt><trkpt lat="45.382358283895364" lon="10.592034955502733"><ele>123.39999999999999</ele><time>2026-04-02T09:33:07Z</time></trkpt><trkpt lat="45.38247865411933" lon="10.592042443223662"><ele>122.19999999999999</ele><time>2026-04-02T09:33:09Z</time></trkpt><trkpt lat="45.38253408901544" lon="10.592171068480301"><ele>121.0</ele><time>2026-04-02T09:33:11Z</time></trkpt><trkpt lat="45.38254246727472" lon="10.59227100334401"><ele>121.0</ele><time>2026-04-02T09:33:12Z</time></trkpt><trkpt lat="45.38256094647448" lon="10.592393104762959"><ele>121.0</ele><time>2026-04-02T09:33:13Z</time></trkpt><trkpt lat="45.38258721157042" lon="10.592526827277426"><ele>121.0</ele><time>2026-04-02T09:33:14Z</time></trkpt><trkpt lat="45.382610102286485" lon="10.592661593132705"><ele>121.0</ele><time>2026-04-02T09:33:15Z</time></trkpt><trkpt lat="45.38263391758095" lon="10.592793500505914"><ele>121.0</ele><time>2026-04-02T09:33:16Z</time></trkpt><trkpt lat="45.38266002227385" lon="10.59292995227036"><ele>121.0</ele><time>2026-04-02T09:33:17Z</time></trkpt><trkpt lat="45.382685097382875" lon="10.593076161881887"><ele>121.0</ele><time>2026-04-02T09:33:18Z</time></trkpt><trkpt lat="45.38271107727179" lon="10.59322633259831"><ele>121.0</ele><time>2026-04-02T09:33:19Z</time></trkpt><trkpt lat="45.382736168673844" lon="10.59338614280427"><ele>121.0</ele><time>2026-04-02T09:33:20Z</time></trkpt><trkpt lat="45.38274820103758" lon="10.593538584244971"><ele>121.0</ele><time>2026-04-02T09:33:21Z</time></trkpt><trkpt lat="45.382758818067714" lon="10.59369231820162"><ele>121.4</ele><time>2026-04-02T09:33:22Z</time></trkpt><trkpt lat="45.38277764277949" lon="10.593853730217335"><ele>121.8</ele><time>2026-04-02T09:33:23Z</time></trkpt><trkpt lat="45.382803523497266" lon="10.594022380460625"><ele>122.20000000000002</ele><time>2026-04-02T09:33:24Z</time></trkpt><trkpt lat="45.38282951336241" lon="10.594164333704004"><ele>122.60000000000001</ele><time>2026-04-02T09:33:25Z</time></trkpt><trkpt lat="45.382847469774966" lon="10.594263496258481"><ele>123.0</ele><time>2026-04-02T09:33:26Z</time></trkpt><trkpt lat="45.38286406727756" lon="10.594460088762908"><ele>123.5</ele><time>2026-04-02T09:33:28Z</time></trkpt><trkpt lat="45.382881581924295" lon="10.594586998568928"><ele>124.0</ele><time>2026-04-02T09:33:29Z</time></trkpt><trkpt lat="45.382903799723785" lon="10.594720802955473"><ele>124.5</ele><time>2026-04-02T09:33:30Z</time></trkpt><trkpt lat="45.38292208091301" lon="10.594846916711555"><ele>125.0</ele><time>2026-04-02T09:33:31Z</time></trkpt><trkpt lat="45.38293542890209" lon="10.594956485985403"><ele>125.5</ele><time>2026-04-02T09:33:32Z</time></trkpt><trkpt lat="45.38294602788371" lon="10.595047360551524"><ele>126.0</ele><time>2026-04-02T09:33:33Z</time></trkpt><trkpt lat="45.38295141652202" lon="10.595170628881334"><ele>126.0</ele><time>2026-04-02T09:33:35Z</time></trkpt><trkpt lat="45.382871699835135" lon="10.595249527164398"><ele>126.0</ele><time>2026-04-02T09:33:38Z</time></trkpt><trkpt lat="45.38275029795233" lon="10.595266654027537"><ele>126.0</ele><time>2026-04-02T09:33:40Z</time></trkpt><trkpt lat="45.38264709914596" lon="10.595283262176205"><ele>126.0</ele><time>2026-04-02T09:33:42Z</time></trkpt><trkpt lat="45.382535610697914" lon="10.595305648587887"><ele>126.0</ele><time>2026-04-02T09:33:44Z</time></trkpt><trkpt lat="45.382426184584766" lon="10.595341475431272"><ele>125.8</ele><time>2026-04-02T09:33:46Z</time></trkpt><trkpt lat="45.382312224884444" lon="10.59538441802195"><ele>125.6</ele><time>2026-04-02T09:33:48Z</time></trkpt><trkpt lat="45.38220093177939" lon="10.595416553039305"><ele>125.4</ele><time>2026-04-02T09:33:50Z</time></trkpt><trkpt lat="45.38208496248165" lon="10.595413505604256"><ele>125.2</ele><time>2026-04-02T09:33:52Z</time></trkpt><trkpt lat="45.382011576135675" lon="10.59539584278875"><ele>125.0</ele><time>2026-04-02T09:33:53Z</time></trkpt><trkpt lat="45.3819256887283" lon="10.595382426991284"><ele>125.6</ele><time>2026-04-02T09:33:54Z</time></trkpt><trkpt lat="45.38181832154718" lon="10.595376455643075"><ele>126.2</ele><time>2026-04-02T09:33:55Z</time></trkpt><trkpt lat="45.381698083553374" lon="10.595375122217574"><ele>126.80000000000001</ele><time>2026-04-02T09:33:56Z</time></trkpt><trkpt lat="45.38158287704284" lon="10.595367297138056"><ele>127.4</ele><time>2026-04-02T09:33:57Z</time></trkpt><trkpt lat="45.38148400891293" lon="10.595329028738217"><ele>128.0</ele><time>2026-04-02T09:33:58Z</time></trkpt><trkpt lat="45.38140224351013" lon="10.59529842058953"><ele>128.5</ele><time>2026-04-02T09:33:59Z</time></trkpt><trkpt lat="45.38134493134796" lon="10.595261255288534"><ele>129.0</ele><time>2026-04-02T09:34:00Z</time></trkpt><trkpt lat="45.38125600658585" lon="10.59526005528972"><ele>129.5</ele><time>2026-04-02T09:34:02Z</time></trkpt><trkpt lat="45.38118001271158" lon="10.595297122766933"><ele>130.0</ele><time>2026-04-02T09:34:03Z</time></trkpt><trkpt lat="45.38109275099557" lon="10.59532418080327"><ele>130.5</ele><time>2026-04-02T09:34:04Z</time></trkpt><trkpt lat="45.38100144337096" lon="10.595344024257248"><ele>131.0</ele><time>2026-04-02T09:34:05Z</time></trkpt><trkpt lat="45.380910675089794" lon="10.595346996422196"><ele>131.0</ele><time>2026-04-02T09:34:06Z</time></trkpt><trkpt lat="45.38082219967377" lon="10.59535504336789"><ele>131.0</ele><time>2026-04-02T09:34:07Z</time></trkpt><trkpt lat="45.380732717771885" lon="10.595366525940285"><ele>131.0</ele><time>2026-04-02T09:34:08Z</time></trkpt><trkpt lat="45.380639161238214" lon="10.595389468022633"><ele>131.0</ele><time>2026-04-02T09:34:09Z</time></trkpt><trkpt lat="45.38054677772706" lon="10.595415066897909"><ele>131.0</ele><time>2026-04-02T09:34:10Z</time></trkpt><trkpt lat="45.38044848837858" lon="10.595443388920568"><ele>132.0</ele><time>2026-04-02T09:34:11Z</time></trkpt><trkpt lat="45.38034770794107" lon="10.595476514208707"><ele>133.0</ele><time>2026-04-02T09:34:12Z</time></trkpt><trkpt lat="45.38024653088989" lon="10.595510195123756"><ele>134.0</ele><time>2026-04-02T09:34:13Z</time></trkpt><trkpt lat="45.380140514238484" lon="10.595532472626862"><ele>135.0</ele><time>2026-04-02T09:34:14Z</time></trkpt><trkpt lat="45.3800410712721" lon="10.595551435362077"><ele>136.0</ele><time>2026-04-02T09:34:15Z</time></trkpt><trkpt lat="45.37996131641678" lon="10.595567359439329"><ele>136.0</ele><time>2026-04-02T09:34:16Z</time></trkpt><trkpt lat="45.379886364343434" lon="10.595599453823835"><ele>136.0</ele><time>2026-04-02T09:34:18Z</time></trkpt><trkpt lat="45.37982204515145" lon="10.595592759529495"><ele>136.0</ele><time>2026-04-02T09:34:21Z</time></trkpt><trkpt lat="45.37972758572315" lon="10.59563815166394"><ele>136.0</ele><time>2026-04-02T09:34:23Z</time></trkpt><trkpt lat="45.3796641320038" lon="10.595691394898733"><ele>136.0</ele><time>2026-04-02T09:34:25Z</time></trkpt><trkpt lat="45.379599642582576" lon="10.595593559133826"><ele>136.0</ele><time>2026-04-02T09:34:36Z</time></trkpt><trkpt lat="45.3795782726625" lon="10.595463173728769"><ele>136.4</ele><time>2026-04-02T09:34:37Z</time></trkpt><trkpt lat="45.37956028992369" lon="10.595318669642984"><ele>136.8</ele><time>2026-04-02T09:34:38Z</time></trkpt><trkpt lat="45.37953963380789" lon="10.595169635691171"><ele>137.20000000000002</ele><time>2026-04-02T09:34:39.001Z</time></trkpt><trkpt lat="45.379521882255055" lon="10.595010743349091"><ele>137.6</ele><time>2026-04-02T09:34:40.001Z</time></trkpt><trkpt lat="45.37951351010189" lon="10.594836811650609"><ele>138.0</ele><time>2026-04-02T09:34:41.001Z</time></trkpt><trkpt lat="45.379513076790744" lon="10.594654103935232"><ele>138.0</ele><time>2026-04-02T09:34:42.001Z</time></trkpt><trkpt lat="45.37951392148793" lon="10.594472959032865"><ele>138.0</ele><time>2026-04-02T09:34:43.001Z</time></trkpt><trkpt lat="45.3795121761657" lon="10.59429459082673"><ele>138.0</ele><time>2026-04-02T09:34:44.001Z</time></trkpt><trkpt lat="45.37951155358016" lon="10.594111582031452"><ele>138.0</ele><time>2026-04-02T09:34:45.001Z</time></trkpt><trkpt lat="45.37951068668603" lon="10.593922544466263"><ele>138.0</ele><time>2026-04-02T09:34:46.001Z</time></trkpt><trkpt lat="45.37950938094722" lon="10.593725895533552"><ele>138.0</ele><time>2026-04-02T09:34:47.001Z</time></trkpt><trkpt lat="45.37950585289677" lon="10.59352237322423"><ele>138.0</ele><time>2026-04-02T09:34:48.001Z</time></trkpt><trkpt lat="45.37949351762587" lon="10.59330616273373"><ele>138.0</ele><time>2026-04-02T09:34:49.001Z</time></trkpt><trkpt lat="45.37947459069255" lon="10.593089909919989"><ele>138.0</ele><time>2026-04-02T09:34:50.001Z</time></trkpt><trkpt lat="45.37944080357633" lon="10.592866510415766"><ele>138.0</ele><time>2026-04-02T09:34:51.001Z</time></trkpt><trkpt lat="45.379384707869306" lon="10.592650216011238"><ele>138.0</ele><time>2026-04-02T09:34:52.001Z</time></trkpt><trkpt lat="45.379314627746425" lon="10.59244570619469"><ele>137.75</ele><time>2026-04-02T09:34:53.001Z</time></trkpt><trkpt lat="45.37924368774705" lon="10.592265611626358"><ele>137.5</ele><time>2026-04-02T09:34:54.001Z</time></trkpt><trkpt lat="45.379165783238804" lon="10.592082290675265"><ele>137.25</ele><time>2026-04-02T09:34:55.001Z</time></trkpt><trkpt lat="45.37908576607959" lon="10.591897839362842"><ele>137.0</ele><time>2026-04-02T09:34:56Z</time></trkpt><trkpt lat="45.379007686206506" lon="10.591715697543398"><ele>136.75</ele><time>2026-04-02T09:34:57Z</time></trkpt><trkpt lat="45.3789312715725" lon="10.591536075511833"><ele>136.5</ele><time>2026-04-02T09:34:58Z</time></trkpt><trkpt lat="45.378857563825015" lon="10.591356497581616"><ele>136.25</ele><time>2026-04-02T09:34:59Z</time></trkpt><trkpt lat="45.37879241475451" lon="10.591172103160696"><ele>136.0</ele><time>2026-04-02T09:35:00Z</time></trkpt><trkpt lat="45.37873884720162" lon="10.590979219993773"><ele>134.75</ele><time>2026-04-02T09:35:01Z</time></trkpt><trkpt lat="45.378698233629514" lon="10.590780551903942"><ele>133.5</ele><time>2026-04-02T09:35:02Z</time></trkpt><trkpt lat="45.378673604566494" lon="10.590574640613099"><ele>132.25</ele><time>2026-04-02T09:35:03Z</time></trkpt><trkpt lat="45.37866645828037" lon="10.59036292708757"><ele>131.0</ele><time>2026-04-02T09:35:04Z</time></trkpt><trkpt lat="45.37867483245518" lon="10.590144726597885"><ele>130.0</ele><time>2026-04-02T09:35:05Z</time></trkpt><trkpt lat="45.3786964205519" lon="10.589922018287838"><ele>129.0</ele><time>2026-04-02T09:35:06Z</time></trkpt><trkpt lat="45.378717689270545" lon="10.58970475905989"><ele>128.0</ele><time>2026-04-02T09:35:07Z</time></trkpt><trkpt lat="45.378740544811095" lon="10.589489989599636"><ele>127.0</ele><time>2026-04-02T09:35:08Z</time></trkpt><trkpt lat="45.37876458513474" lon="10.589276942391196"><ele>126.0</ele><time>2026-04-02T09:35:09Z</time></trkpt><trkpt lat="45.378785175266515" lon="10.589062652173595"><ele>125.0</ele><time>2026-04-02T09:35:10Z</time></trkpt><trkpt lat="45.37880322684818" lon="10.588847708920678"><ele>124.0</ele><time>2026-04-02T09:35:11Z</time></trkpt><trkpt lat="45.37880648843652" lon="10.588628989335776"><ele>123.0</ele><time>2026-04-02T09:35:12Z</time></trkpt><trkpt lat="45.37878940118737" lon="10.588409177953313"><ele>122.0</ele><time>2026-04-02T09:35:13Z</time></trkpt><trkpt lat="45.378756567989086" lon="10.588195764458733"><ele>122.0</ele><time>2026-04-02T09:35:14Z</time></trkpt><trkpt lat="45.37870812826661" lon="10.587995433670528"><ele>122.0</ele><time>2026-04-02T09:35:15Z</time></trkpt><trkpt lat="45.37864625523658" lon="10.587795239846072"><ele>122.0</ele><time>2026-04-02T09:35:16Z</time></trkpt><trkpt lat="45.37857894059154" lon="10.587592018356524"><ele>121.33333333333333</ele><time>2026-04-02T09:35:17Z</time></trkpt><trkpt lat="45.37850647862661" lon="10.587383951959708"><ele>120.66666666666666</ele><time>2026-04-02T09:35:18Z</time></trkpt><trkpt lat="45.3784337873921" lon="10.587172008787217"><ele>120.0</ele><time>2026-04-02T09:35:19Z</time></trkpt><trkpt lat="45.378357661723356" lon="10.586958722210186"><ele>119.0</ele><time>2026-04-02T09:35:20Z</time></trkpt><trkpt lat="45.37827209622443" lon="10.586751159183207"><ele>118.0</ele><time>2026-04-02T09:35:21Z</time></trkpt><trkpt lat="45.37817376282835" lon="10.58655044373727"><ele>117.0</ele><time>2026-04-02T09:35:22Z</time></trkpt><trkpt lat="45.37806559997736" lon="10.58636302716234"><ele>116.0</ele><time>2026-04-02T09:35:23Z</time></trkpt><trkpt lat="45.37796220556163" lon="10.586194499244128"><ele>115.0</ele><time>2026-04-02T09:35:24Z</time></trkpt><trkpt lat="45.37786463482558" lon="10.586041076534917"><ele>114.0</ele><time>2026-04-02T09:35:25Z</time></trkpt><trkpt lat="45.377794245798306" lon="10.585891806075995"><ele>113.0</ele><time>2026-04-02T09:35:26Z</time></trkpt><trkpt lat="45.37772077308505" lon="10.585769915145368"><ele>113.0</ele><time>2026-04-02T09:35:27Z</time></trkpt><trkpt lat="45.37765441066192" lon="10.585660046840637"><ele>113.00000000000001</ele><time>2026-04-02T09:35:28Z</time></trkpt><trkpt lat="45.377595103295775" lon="10.585561857432323"><ele>113.00000000000001</ele><time>2026-04-02T09:35:28.999Z</time></trkpt><trkpt lat="45.37755113677864" lon="10.585489066420074"><ele>113.0</ele><time>2026-04-02T09:35:29.999Z</time></trkpt><trkpt lat="45.377503006988235" lon="10.585427340070295"><ele>113.0</ele><time>2026-04-02T09:35:32.999Z</time></trkpt><trkpt lat="45.37740327422644" lon="10.585598267250681"><ele>113.0</ele><time>2026-04-02T09:35:34.999Z</time></trkpt><trkpt lat="45.37739369228684" lon="10.585713305443202"><ele>113.00000000000001</ele><time>2026-04-02T09:35:36.999Z</time></trkpt><trkpt lat="45.37736258003089" lon="10.585839673338997"><ele>113.00000000000001</ele><time>2026-04-02T09:35:38.999Z</time></trkpt><trkpt lat="45.37732032250867" lon="10.586032320939172"><ele>113.0</ele><time>2026-04-02T09:35:40.999Z</time></trkpt><trkpt lat="45.377286692510445" lon="10.58619585849886"><ele>113.0</ele><time>2026-04-02T09:35:41.999Z</time></trkpt><trkpt lat="45.37724043360809" lon="10.586389344743038"><ele>113.0</ele><time>2026-04-02T09:35:42.999Z</time></trkpt><trkpt lat="45.37718589830529" lon="10.586626934935335"><ele>113.0</ele><time>2026-04-02T09:35:43.999Z</time></trkpt><trkpt lat="45.37712416112988" lon="10.586902897191804"><ele>113.0</ele><time>2026-04-02T09:35:44.999Z</time></trkpt><trkpt lat="45.377056057302724" lon="10.587201695251272"><ele>112.0</ele><time>2026-04-02T09:35:45.999Z</time></trkpt><trkpt lat="45.37698221287516" lon="10.587532675811216"><ele>111.0</ele><time>2026-04-02T09:35:46.999Z</time></trkpt><trkpt lat="45.376908330038965" lon="10.58786932780116"><ele>112.33333333333334</ele><time>2026-04-02T09:35:47.999Z</time></trkpt><trkpt lat="45.376829820425684" lon="10.588173997228763"><ele>113.66666666666667</ele><time>2026-04-02T09:35:48.999Z</time></trkpt><trkpt lat="45.37675538944609" lon="10.588442001342061"><ele>115.0</ele><time>2026-04-02T09:35:49.999Z</time></trkpt><trkpt lat="45.376685791658524" lon="10.588689688541484"><ele>115.66666666666667</ele><time>2026-04-02T09:35:50.999Z</time></trkpt><trkpt lat="45.37662351264306" lon="10.588921653221773"><ele>116.33333333333334</ele><time>2026-04-02T09:35:51.999Z</time></trkpt><trkpt lat="45.37655959856971" lon="10.589155574003886"><ele>117.0</ele><time>2026-04-02T09:35:52.999Z</time></trkpt><trkpt lat="45.37650133459107" lon="10.589371093021414"><ele>117.0</ele><time>2026-04-02T09:35:53.999Z</time></trkpt><trkpt lat="45.37645291662893" lon="10.58954440162744"><ele>116.99999999999999</ele><time>2026-04-02T09:35:54.999Z</time></trkpt><trkpt lat="45.37642580324494" lon="10.58965179263805"><ele>116.99999999999999</ele><time>2026-04-02T09:35:55.999Z</time></trkpt><trkpt lat="45.376387190570895" lon="10.58978598367611"><ele>117.0</ele><time>2026-04-02T09:35:56.999Z</time></trkpt><trkpt lat="45.37633706397497" lon="10.589951232618608"><ele>117.0</ele><time>2026-04-02T09:35:57.999Z</time></trkpt><trkpt lat="45.37628409184429" lon="10.590143165292446"><ele>115.66666666666666</ele><time>2026-04-02T09:35:58.999Z</time></trkpt><trkpt lat="45.37624180034953" lon="10.590368656033853"><ele>114.33333333333333</ele><time>2026-04-02T09:35:59.999Z</time></trkpt><trkpt lat="45.37621771912279" lon="10.590627352412355"><ele>113.0</ele><time>2026-04-02T09:36:00.999Z</time></trkpt><trkpt lat="45.376216454598" lon="10.590918464947677"><ele>112.5</ele><time>2026-04-02T09:36:01.999Z</time></trkpt><trkpt lat="45.376241337696044" lon="10.591236275490376"><ele>112.0</ele><time>2026-04-02T09:36:02.999Z</time></trkpt><trkpt lat="45.37628906762244" lon="10.591583403791624"><ele>112.0</ele><time>2026-04-02T09:36:03.999Z</time></trkpt><trkpt lat="45.376311248055025" lon="10.591965249960706"><ele>112.0</ele><time>2026-04-02T09:36:04.999Z</time></trkpt><trkpt lat="45.376312944626186" lon="10.592325786296346"><ele>112.33333333333334</ele><time>2026-04-02T09:36:05.999Z</time></trkpt><trkpt lat="45.37631405397327" lon="10.592595372761362"><ele>112.66666666666666</ele><time>2026-04-02T09:36:06.999Z</time></trkpt><trkpt lat="45.37631619477687" lon="10.592826481519088"><ele>113.0</ele><time>2026-04-02T09:36:07.999Z</time></trkpt><trkpt lat="45.3763138717681" lon="10.593080542507442"><ele>112.66666666666666</ele><time>2026-04-02T09:36:08.999Z</time></trkpt><trkpt lat="45.3763096704578" lon="10.593338931356032"><ele>112.33333333333334</ele><time>2026-04-02T09:36:09.999Z</time></trkpt><trkpt lat="45.37631455594731" lon="10.59360978009096"><ele>112.0</ele><time>2026-04-02T09:36:10.999Z</time></trkpt><trkpt lat="45.37633211988617" lon="10.59384112765515"><ele>113.0</ele><time>2026-04-02T09:36:11.999Z</time></trkpt><trkpt lat="45.37635562784023" lon="10.594044610547309"><ele>114.0</ele><time>2026-04-02T09:36:12.999Z</time></trkpt><trkpt lat="45.37638147084986" lon="10.594240918107598"><ele>115.0</ele><time>2026-04-02T09:36:13.999Z</time></trkpt><trkpt lat="45.3764123373153" lon="10.594442112261392"><ele>116.0</ele><time>2026-04-02T09:36:14.999Z</time></trkpt><trkpt lat="45.37645051419606" lon="10.594638562457604"><ele>116.0</ele><time>2026-04-02T09:36:15.999Z</time></trkpt><trkpt lat="45.376494254831826" lon="10.594826636371426"><ele>116.0</ele><time>2026-04-02T09:36:16.999Z</time></trkpt><trkpt lat="45.3765237968554" lon="10.595012253174467"><ele>116.0</ele><time>2026-04-02T09:36:17.999Z</time></trkpt><trkpt lat="45.376522488275796" lon="10.595200939505043"><ele>116.0</ele><time>2026-04-02T09:36:18.999Z</time></trkpt><trkpt lat="45.37650167430192" lon="10.595419245256675"><ele>116.0</ele><time>2026-04-02T09:36:19.999Z</time></trkpt><trkpt lat="45.37648222789375" lon="10.595636171866422"><ele>116.0</ele><time>2026-04-02T09:36:20.999Z</time></trkpt><trkpt lat="45.37646619555286" lon="10.595851859890391"><ele>116.0</ele><time>2026-04-02T09:36:21.999Z</time></trkpt><trkpt lat="45.37644775903431" lon="10.596072669286798"><ele>116.0</ele><time>2026-04-02T09:36:22.999Z</time></trkpt><trkpt lat="45.376424746656085" lon="10.596312078443463"><ele>116.0</ele><time>2026-04-02T09:36:23.999Z</time></trkpt><trkpt lat="45.37642529697499" lon="10.596485505129452"><ele>116.0</ele><time>2026-04-02T09:36:24.999Z</time></trkpt><trkpt lat="45.37640516025274" lon="10.596613262596138"><ele>116.0</ele><time>2026-04-02T09:36:25.999Z</time></trkpt><trkpt lat="45.376380187398034" lon="10.596746717129694"><ele>115.8</ele><time>2026-04-02T09:36:26.999Z</time></trkpt><trkpt lat="45.376327285595245" lon="10.59686478258827"><ele>115.6</ele><time>2026-04-02T09:36:27.999Z</time></trkpt><trkpt lat="45.376227469747356" lon="10.59693919594236"><ele>115.4</ele><time>2026-04-02T09:36:28.999Z</time></trkpt><trkpt lat="45.37612144929312" lon="10.597008850495696"><ele>115.2</ele><time>2026-04-02T09:36:29.999Z</time></trkpt><trkpt lat="45.37601957384151" lon="10.597097333526754"><ele>115.0</ele><time>2026-04-02T09:36:30.999Z</time></trkpt><trkpt lat="45.37591927086871" lon="10.597170095360054"><ele>115.0</ele><time>2026-04-02T09:36:31.999Z</time></trkpt><trkpt lat="45.375873655368956" lon="10.59733066808056"><ele>115.0</ele><time>2026-04-02T09:36:32.999Z</time></trkpt><trkpt lat="45.37583869240867" lon="10.597499353394422"><ele>115.0</ele><time>2026-04-02T09:36:33.999Z</time></trkpt><trkpt lat="45.37580697194311" lon="10.597675073832276"><ele>115.0</ele><time>2026-04-02T09:36:34.999Z</time></trkpt><trkpt lat="45.37577364354479" lon="10.597858897815511"><ele>114.66666666666667</ele><time>2026-04-02T09:36:35.999Z</time></trkpt><trkpt lat="45.37574964268586" lon="10.598057763829408"><ele>114.33333333333334</ele><time>2026-04-02T09:36:36.999Z</time></trkpt><trkpt lat="45.37575189932591" lon="10.598276065814144"><ele>114.0</ele><time>2026-04-02T09:36:37.999Z</time></trkpt><trkpt lat="45.37578273428271" lon="10.598518052254335"><ele>114.5</ele><time>2026-04-02T09:36:38.999Z</time></trkpt><trkpt lat="45.375824743055325" lon="10.598733796810306"><ele>115.0</ele><time>2026-04-02T09:36:39.999Z</time></trkpt><trkpt lat="45.37585288082518" lon="10.598930558207366"><ele>115.5</ele><time>2026-04-02T09:36:40.999Z</time></trkpt><trkpt lat="45.37585076079287" lon="10.599126798930163"><ele>116.0</ele><time>2026-04-02T09:36:41.999Z</time></trkpt><trkpt lat="45.37581447934156" lon="10.599326082068766"><ele>116.0</ele><time>2026-04-02T09:36:42.999Z</time></trkpt><trkpt lat="45.375768321814675" lon="10.599528446716336"><ele>116.0</ele><time>2026-04-02T09:36:43.999Z</time></trkpt><trkpt lat="45.375712346950735" lon="10.599707887388739"><ele>116.0</ele><time>2026-04-02T09:36:45Z</time></trkpt><trkpt lat="45.375670091606416" lon="10.59989783919434"><ele>116.0</ele><time>2026-04-02T09:36:46Z</time></trkpt><trkpt lat="45.37563052834893" lon="10.600088834276924"><ele>116.0</ele><time>2026-04-02T09:36:47Z</time></trkpt><trkpt lat="45.37559217704506" lon="10.600277072976972"><ele>116.0</ele><time>2026-04-02T09:36:48Z</time></trkpt><trkpt lat="45.375572110280096" lon="10.60046597866507"><ele>116.0</ele><time>2026-04-02T09:36:49Z</time></trkpt><trkpt lat="45.37553614914193" lon="10.600646676899892"><ele>116.0</ele><time>2026-04-02T09:36:50Z</time></trkpt><trkpt lat="45.37549378591699" lon="10.600824161021885"><ele>116.0</ele><time>2026-04-02T09:36:51Z</time></trkpt><trkpt lat="45.37546362560696" lon="10.600996918861926"><ele>116.0</ele><time>2026-04-02T09:36:52Z</time></trkpt><trkpt lat="45.37543454037911" lon="10.601136073353585"><ele>116.0</ele><time>2026-04-02T09:36:53Z</time></trkpt><trkpt lat="45.37541178265842" lon="10.601241515236618"><ele>116.0</ele><time>2026-04-02T09:36:54Z</time></trkpt><trkpt lat="45.37538520002142" lon="10.601351234633647"><ele>116.0</ele><time>2026-04-02T09:36:56Z</time></trkpt><trkpt lat="45.37533937424997" lon="10.601421202659239"><ele>115.5</ele><time>2026-04-02T09:36:59Z</time></trkpt><trkpt lat="45.37519026437932" lon="10.601369440309298"><ele>115.0</ele><time>2026-04-02T09:37:04Z</time></trkpt><trkpt lat="45.37510960992818" lon="10.601297605808949"><ele>114.5</ele><time>2026-04-02T09:37:05Z</time></trkpt><trkpt lat="45.3750137414779" lon="10.601233204798186"><ele>114.0</ele><time>2026-04-02T09:37:06Z</time></trkpt><trkpt lat="45.37491610243957" lon="10.60116637673632"><ele>114.4</ele><time>2026-04-02T09:37:07Z</time></trkpt><trkpt lat="45.37481642591253" lon="10.601100110382076"><ele>114.80000000000001</ele><time>2026-04-02T09:37:08Z</time></trkpt><trkpt lat="45.374723715901816" lon="10.601027943499972"><ele>115.19999999999999</ele><time>2026-04-02T09:37:09Z</time></trkpt><trkpt lat="45.37462601054324" lon="10.60095999305952"><ele>115.6</ele><time>2026-04-02T09:37:10Z</time></trkpt><trkpt lat="45.37452613553509" lon="10.60088827731841"><ele>116.0</ele><time>2026-04-02T09:37:11Z</time></trkpt><trkpt lat="45.374425740043925" lon="10.600816752543846"><ele>115.0</ele><time>2026-04-02T09:37:12Z</time></trkpt><trkpt lat="45.374327731587286" lon="10.600745204775519"><ele>114.0</ele><time>2026-04-02T09:37:13Z</time></trkpt><trkpt lat="45.37423256833196" lon="10.600678732105173"><ele>113.0</ele><time>2026-04-02T09:37:14Z</time></trkpt><trkpt lat="45.374147751294984" lon="10.600619760117292"><ele>112.0</ele><time>2026-04-02T09:37:15Z</time></trkpt><trkpt lat="45.37406856358573" lon="10.60056297293908"><ele>111.0</ele><time>2026-04-02T09:37:16Z</time></trkpt><trkpt lat="45.37398343433403" lon="10.600501263301568"><ele>111.0</ele><time>2026-04-02T09:37:17Z</time></trkpt><trkpt lat="45.373898375447645" lon="10.600433526522549"><ele>111.0</ele><time>2026-04-02T09:37:18Z</time></trkpt><trkpt lat="45.37381354039422" lon="10.600361776954848"><ele>111.0</ele><time>2026-04-02T09:37:18.999Z</time></trkpt><trkpt lat="45.37372891515823" lon="10.600287429998348"><ele>111.0</ele><time>2026-04-02T09:37:19.999Z</time></trkpt><trkpt lat="45.37364550385821" lon="10.600207725556722"><ele>111.0</ele><time>2026-04-02T09:37:20.999Z</time></trkpt><trkpt lat="45.37356186705848" lon="10.60012854670277"><ele>111.19999999999999</ele><time>2026-04-02T09:37:21.999Z</time></trkpt><trkpt lat="45.37348013982309" lon="10.600048495716466"><ele>111.39999999999999</ele><time>2026-04-02T09:37:22.999Z</time></trkpt><trkpt lat="45.37340150086349" lon="10.599967772466199"><ele>111.6</ele><time>2026-04-02T09:37:23.999Z</time></trkpt><trkpt lat="45.373321901457714" lon="10.599885752611643"><ele>111.8</ele><time>2026-04-02T09:37:24.999Z</time></trkpt><trkpt lat="45.373239599471695" lon="10.599799867014932"><ele>112.0</ele><time>2026-04-02T09:37:25.999Z</time></trkpt><trkpt lat="45.37316571219507" lon="10.599689349078913"><ele>112.0</ele><time>2026-04-02T09:37:26.999Z</time></trkpt><trkpt lat="45.37310810342813" lon="10.599552726887602"><ele>112.0</ele><time>2026-04-02T09:37:27.999Z</time></trkpt><trkpt lat="45.37307270909995" lon="10.59938415122082"><ele>112.0</ele><time>2026-04-02T09:37:28.999Z</time></trkpt><trkpt lat="45.37305500677116" lon="10.59919753134333"><ele>112.0</ele><time>2026-04-02T09:37:29.999Z</time></trkpt><trkpt lat="45.373039449319734" lon="10.599014128332586"><ele>111.0</ele><time>2026-04-02T09:37:30.999Z</time></trkpt><trkpt lat="45.37302196251166" lon="10.598837630522462"><ele>110.0</ele><time>2026-04-02T09:37:31.999Z</time></trkpt><trkpt lat="45.37300173743" lon="10.598676611223382"><ele>109.0</ele><time>2026-04-02T09:37:32.999Z</time></trkpt><trkpt lat="45.37297471164539" lon="10.598515697880737"><ele>108.0</ele><time>2026-04-02T09:37:33.999Z</time></trkpt><trkpt lat="45.372934018782566" lon="10.598340691975226"><ele>108.0</ele><time>2026-04-02T09:37:34.999Z</time></trkpt><trkpt lat="45.37288061466233" lon="10.598169225738934"><ele>108.0</ele><time>2026-04-02T09:37:35.999Z</time></trkpt><trkpt lat="45.37281688184526" lon="10.59799025860007"><ele>108.0</ele><time>2026-04-02T09:37:36.999Z</time></trkpt><trkpt lat="45.3727595171969" lon="10.59780215741727"><ele>108.0</ele><time>2026-04-02T09:37:37.999Z</time></trkpt><trkpt lat="45.37269835545926" lon="10.597616036801984"><ele>108.25</ele><time>2026-04-02T09:37:38.999Z</time></trkpt><trkpt lat="45.372641208860024" lon="10.597430956729074"><ele>108.5</ele><time>2026-04-02T09:37:39.999Z</time></trkpt><trkpt lat="45.37255253864807" lon="10.597272293636966"><ele>108.75</ele><time>2026-04-02T09:37:40.999Z</time></trkpt><trkpt lat="45.37244492884034" lon="10.597139945663812"><ele>109.0</ele><time>2026-04-02T09:37:41.999Z</time></trkpt><trkpt lat="45.372314150715845" lon="10.597045190516646"><ele>109.75</ele><time>2026-04-02T09:37:42.999Z</time></trkpt><trkpt lat="45.37218531069704" lon="10.596967492038901"><ele>110.5</ele><time>2026-04-02T09:37:43.999Z</time></trkpt><trkpt lat="45.372062666254386" lon="10.596893513059834"><ele>111.25</ele><time>2026-04-02T09:37:44.999Z</time></trkpt><trkpt lat="45.37195583020191" lon="10.596830720474685"><ele>112.0</ele><time>2026-04-02T09:37:45.999Z</time></trkpt><trkpt lat="45.37188302144849" lon="10.59678430022387"><ele>112.0</ele><time>2026-04-02T09:37:46.999Z</time></trkpt><trkpt lat="45.371824921262046" lon="10.596748086545553"><ele>112.0</ele><time>2026-04-02T09:37:47.999Z</time></trkpt><trkpt lat="45.37174931702045" lon="10.596700331353794"><ele>112.0</ele><time>2026-04-02T09:37:49.999Z</time></trkpt><trkpt lat="45.37168862806308" lon="10.596668931315115"><ele>112.0</ele><time>2026-04-02T09:37:52.999Z</time></trkpt><trkpt lat="45.3715449543589" lon="10.596983032336654"><ele>112.0</ele><time>2026-04-02T09:38:00.999Z</time></trkpt><trkpt lat="45.3715243683515" lon="10.59710688126922"><ele>112.0</ele><time>2026-04-02T09:38:01.999Z</time></trkpt><trkpt lat="45.37150085775262" lon="10.597257186147283"><ele>112.0</ele><time>2026-04-02T09:38:02.999Z</time></trkpt><trkpt lat="45.37145826208629" lon="10.597436439200294"><ele>112.0</ele><time>2026-04-02T09:38:03.999Z</time></trkpt><trkpt lat="45.37140625335518" lon="10.597595546888341"><ele>112.0</ele><time>2026-04-02T09:38:04.999Z</time></trkpt><trkpt lat="45.371358921297514" lon="10.597719561420444"><ele>111.99999999999999</ele><time>2026-04-02T09:38:05.999Z</time></trkpt><trkpt lat="45.37131684890656" lon="10.597837109009287"><ele>111.99999999999999</ele><time>2026-04-02T09:38:06.999Z</time></trkpt><trkpt lat="45.37127717448849" lon="10.597949182600697"><ele>112.0</ele><time>2026-04-02T09:38:07.999Z</time></trkpt><trkpt lat="45.37123728818805" lon="10.598065752681862"><ele>112.0</ele><time>2026-04-02T09:38:08.999Z</time></trkpt><trkpt lat="45.37120348870997" lon="10.598167994550204"><ele>111.33333333333334</ele><time>2026-04-02T09:38:09.999Z</time></trkpt><trkpt lat="45.37115602662587" lon="10.598264145193525"><ele>110.66666666666667</ele><time>2026-04-02T09:38:11.999Z</time></trkpt><trkpt lat="45.37104324669226" lon="10.598272002683727"><ele>110.0</ele><time>2026-04-02T09:38:13.999Z</time></trkpt><trkpt lat="45.37096295489858" lon="10.598267958633926"><ele>109.33333333333334</ele><time>2026-04-02T09:38:14.999Z</time></trkpt><trkpt lat="45.370883867415536" lon="10.598267311174062"><ele>108.66666666666667</ele><time>2026-04-02T09:38:15.999Z</time></trkpt><trkpt lat="45.37079512602939" lon="10.598258847433067"><ele>108.0</ele><time>2026-04-02T09:38:16.999Z</time></trkpt><trkpt lat="45.37069694181366" lon="10.5982620489056"><ele>108.0</ele><time>2026-04-02T09:38:17.999Z</time></trkpt><trkpt lat="45.37059353607545" lon="10.598271093127009"><ele>108.00000000000001</ele><time>2026-04-02T09:38:18.999Z</time></trkpt><trkpt lat="45.37051273926929" lon="10.598267946992737"><ele>108.00000000000001</ele><time>2026-04-02T09:38:19.999Z</time></trkpt><trkpt lat="45.370374801288044" lon="10.598271371738589"><ele>108.0</ele><time>2026-04-02T09:38:28.999Z</time></trkpt><trkpt lat="45.37028583910067" lon="10.59829219419555"><ele>108.0</ele><time>2026-04-02T09:38:29.999Z</time></trkpt><trkpt lat="45.37018635718206" lon="10.598336777349303"><ele>110.80000000000001</ele><time>2026-04-02T09:38:30.999Z</time></trkpt><trkpt lat="45.37010474202829" lon="10.598365730978525"><ele>113.60000000000001</ele><time>2026-04-02T09:38:31.999Z</time></trkpt><trkpt lat="45.37003914852625" lon="10.598314641279368"><ele>116.39999999999999</ele><time>2026-04-02T09:38:33.999Z</time></trkpt><trkpt lat="45.37000423453749" lon="10.598164127375076"><ele>119.19999999999999</ele><time>2026-04-02T09:38:35.999Z</time></trkpt><trkpt lat="45.36996718402505" lon="10.59801533023371"><ele>122.0</ele><time>2026-04-02T09:38:37.999Z</time></trkpt><trkpt lat="45.369928486256896" lon="10.597932752061315"><ele>121.99999999999999</ele><time>2026-04-02T09:38:39.999Z</time></trkpt><trkpt lat="45.369860990886544" lon="10.597891003316288"><ele>122.0</ele><time>2026-04-02T09:38:43.999Z</time></trkpt><trkpt lat="45.369869265779535" lon="10.597791123340631"><ele>122.0</ele><time>2026-04-02T09:39:55.999Z</time></trkpt><trkpt lat="45.36988274559062" lon="10.597634416272667"><ele>122.0</ele><time>2026-04-02T09:39:58.999Z</time></trkpt><trkpt lat="45.36986998502934" lon="10.597530076782524"><ele>121.99999999999999</ele><time>2026-04-02T09:39:59.999Z</time></trkpt><trkpt lat="45.36985245659748" lon="10.597415437668007"><ele>122.0</ele><time>2026-04-02T09:40:00.999Z</time></trkpt><trkpt lat="45.369847094740116" lon="10.597300373283314"><ele>121.0</ele><time>2026-04-02T09:40:01.999Z</time></trkpt><trkpt lat="45.36985418826704" lon="10.597185430553425"><ele>119.99999999999999</ele><time>2026-04-02T09:40:02.999Z</time></trkpt><trkpt lat="45.36986835287607" lon="10.59706366384526"><ele>118.99999999999999</ele><time>2026-04-02T09:40:03.999Z</time></trkpt><trkpt lat="45.36989690251307" lon="10.596938598259781"><ele>118.0</ele><time>2026-04-02T09:40:04.999Z</time></trkpt><trkpt lat="45.36992260929718" lon="10.596805120725106"><ele>117.0</ele><time>2026-04-02T09:40:05.999Z</time></trkpt><trkpt lat="45.36994986046212" lon="10.596673015033392"><ele>117.0</ele><time>2026-04-02T09:40:06.999Z</time></trkpt><trkpt lat="45.369977215045196" lon="10.596536150293806"><ele>117.0</ele><time>2026-04-02T09:40:07.999Z</time></trkpt><trkpt lat="45.370001580287614" lon="10.596410101986057"><ele>117.0</ele><time>2026-04-02T09:40:08.999Z</time></trkpt><trkpt lat="45.37002780114097" lon="10.59632005398241"><ele>117.0</ele><time>2026-04-02T09:40:09.999Z</time></trkpt><trkpt lat="45.37005155956903" lon="10.596201206883666"><ele>117.0</ele><time>2026-04-02T09:40:11.999Z</time></trkpt><trkpt lat="45.37006885770643" lon="10.596086586919458"><ele>117.0</ele><time>2026-04-02T09:40:19.999Z</time></trkpt><trkpt lat="45.370096194765566" lon="10.595961702484356"><ele>117.6</ele><time>2026-04-02T09:40:21.999Z</time></trkpt><trkpt lat="45.37009932607617" lon="10.595785631991005"><ele>118.19999999999999</ele><time>2026-04-02T09:40:23.999Z</time></trkpt><trkpt lat="45.37011140959641" lon="10.595671301206227"><ele>118.8</ele><time>2026-04-02T09:40:24.999Z</time></trkpt><trkpt lat="45.370125003171985" lon="10.595551432021672"><ele>119.4</ele><time>2026-04-02T09:40:25.999Z</time></trkpt><trkpt lat="45.37013763783664" lon="10.595423653414166"><ele>120.0</ele><time>2026-04-02T09:40:26.999Z</time></trkpt><trkpt lat="45.370147226682114" lon="10.59528845755154"><ele>120.2</ele><time>2026-04-02T09:40:27.999Z</time></trkpt><trkpt lat="45.37015686450989" lon="10.595149084408863"><ele>120.4</ele><time>2026-04-02T09:40:28.999Z</time></trkpt><trkpt lat="45.37016591027526" lon="10.59500156094862"><ele>120.6</ele><time>2026-04-02T09:40:29.999Z</time></trkpt><trkpt lat="45.370170270553245" lon="10.594851413000324"><ele>120.8</ele><time>2026-04-02T09:40:30.999Z</time></trkpt><trkpt lat="45.3701650552096" lon="10.594701849195658"><ele>121.0</ele><time>2026-04-02T09:40:31.999Z</time></trkpt><trkpt lat="45.370153641057605" lon="10.594557920192807"><ele>121.4</ele><time>2026-04-02T09:40:32.999Z</time></trkpt><trkpt lat="45.370141841634414" lon="10.594418054696332"><ele>121.8</ele><time>2026-04-02T09:40:33.999Z</time></trkpt><trkpt lat="45.37012985162655" lon="10.594286792919927"><ele>122.20000000000002</ele><time>2026-04-02T09:40:34.999Z</time></trkpt><trkpt lat="45.37012106315776" lon="10.594172369501974"><ele>122.60000000000001</ele><time>2026-04-02T09:40:35.999Z</time></trkpt><trkpt lat="45.37011311016842" lon="10.59407159887938"><ele>123.0</ele><time>2026-04-02T09:40:36.999Z</time></trkpt><trkpt lat="45.37016716821782" lon="10.593917670739456"><ele>123.0</ele><time>2026-04-02T09:40:38.999Z</time></trkpt><trkpt lat="45.37024220438729" lon="10.593827982221297"><ele>123.0</ele><time>2026-04-02T09:40:40.999Z</time></trkpt><trkpt lat="45.37019270287132" lon="10.593634153174198"><ele>123.0</ele><time>2026-04-02T09:40:41.999Z</time></trkpt><trkpt lat="45.370106808454025" lon="10.59340057693292"><ele>123.0</ele><time>2026-04-02T09:40:43.999Z</time></trkpt><trkpt lat="45.3701358948763" lon="10.593282482644403"><ele>123.16666666666667</ele><time>2026-04-02T09:40:44.999Z</time></trkpt><trkpt lat="45.37016919847108" lon="10.59318121993392"><ele>123.33333333333334</ele><time>2026-04-02T09:40:45.999Z</time></trkpt><trkpt lat="45.37020113620897" lon="10.593077838053354"><ele>123.5</ele><time>2026-04-02T09:40:46.999Z</time></trkpt><trkpt lat="45.37023415686051" lon="10.59298038440306"><ele>123.66666666666667</ele><time>2026-04-02T09:40:47.999Z</time></trkpt><trkpt lat="45.3702787389998" lon="10.592868550860453"><ele>123.83333333333334</ele><time>2026-04-02T09:40:48.999Z</time></trkpt><trkpt lat="45.3703290200277" lon="10.59274366131194"><ele>124.0</ele><time>2026-04-02T09:40:49.999Z</time></trkpt><trkpt lat="45.37038671019002" lon="10.592612306634729"><ele>125.0</ele><time>2026-04-02T09:40:50.999Z</time></trkpt><trkpt lat="45.37044699845577" lon="10.592467468003939"><ele>126.0</ele><time>2026-04-02T09:40:51.999Z</time></trkpt><trkpt lat="45.37050583894898" lon="10.592317343089505"><ele>127.0</ele><time>2026-04-02T09:40:52.999Z</time></trkpt><trkpt lat="45.370564990254444" lon="10.592161336051714"><ele>128.0</ele><time>2026-04-02T09:40:53.999Z</time></trkpt><trkpt lat="45.37062136370551" lon="10.592003865828346"><ele>125.2</ele><time>2026-04-02T09:40:54.999Z</time></trkpt><trkpt lat="45.37066671694869" lon="10.59184693928697"><ele>122.4</ele><time>2026-04-02T09:40:55.999Z</time></trkpt><trkpt lat="45.37069806810094" lon="10.591701363649882"><ele>119.60000000000001</ele><time>2026-04-02T09:40:57Z</time></trkpt><trkpt lat="45.37072527298631" lon="10.591557163639898"><ele>116.80000000000001</ele><time>2026-04-02T09:40:58Z</time></trkpt><trkpt lat="45.37074463807284" lon="10.591407216860405"><ele>114.0</ele><time>2026-04-02T09:40:59Z</time></trkpt><trkpt lat="45.37075097042143" lon="10.591255237866902"><ele>113.6</ele><time>2026-04-02T09:41:00Z</time></trkpt><trkpt lat="45.37075901450401" lon="10.591106211485648"><ele>113.2</ele><time>2026-04-02T09:41:01Z</time></trkpt><trkpt lat="45.37075022227556" lon="10.590981753144755"><ele>112.79999999999998</ele><time>2026-04-02T09:41:02Z</time></trkpt><trkpt lat="45.37072452157283" lon="10.590868676108832"><ele>112.39999999999999</ele><time>2026-04-02T09:41:03Z</time></trkpt><trkpt lat="45.37067631246219" lon="10.59075765306451"><ele>112.0</ele><time>2026-04-02T09:41:04Z</time></trkpt><trkpt lat="45.370625420681115" lon="10.590639630865006"><ele>112.0</ele><time>2026-04-02T09:41:05Z</time></trkpt><trkpt lat="45.370567193505394" lon="10.590528359472248"><ele>112.0</ele><time>2026-04-02T09:41:06Z</time></trkpt><trkpt lat="45.370480180923074" lon="10.590403894365291"><ele>112.0</ele><time>2026-04-02T09:41:07Z</time></trkpt><trkpt lat="45.37038390301041" lon="10.590270305540496"><ele>112.0</ele><time>2026-04-02T09:41:08Z</time></trkpt><trkpt lat="45.37031608700442" lon="10.59014460496223"><ele>114.19999999999999</ele><time>2026-04-02T09:41:09Z</time></trkpt><trkpt lat="45.370261936033266" lon="10.589989111250318"><ele>116.39999999999999</ele><time>2026-04-02T09:41:10Z</time></trkpt><trkpt lat="45.37022958406073" lon="10.589810487623126"><ele>118.60000000000001</ele><time>2026-04-02T09:41:11Z</time></trkpt><trkpt lat="45.37018074944639" lon="10.589683309036714"><ele>120.80000000000001</ele><time>2026-04-02T09:41:12Z</time></trkpt><trkpt lat="45.37011241370633" lon="10.589619062510769"><ele>123.0</ele><time>2026-04-02T09:41:13Z</time></trkpt><trkpt lat="45.37001018079808" lon="10.58955478324915"><ele>123.25</ele><time>2026-04-02T09:41:14Z</time></trkpt><trkpt lat="45.369884780163524" lon="10.589481715042652"><ele>123.5</ele><time>2026-04-02T09:41:15Z</time></trkpt><trkpt lat="45.369772592317105" lon="10.589412010329246"><ele>123.75</ele><time>2026-04-02T09:41:16Z</time></trkpt><trkpt lat="45.369645200560974" lon="10.589327125464456"><ele>124.0</ele><time>2026-04-02T09:41:17Z</time></trkpt><trkpt lat="45.36954787231082" lon="10.589255453955282"><ele>124.0</ele><time>2026-04-02T09:41:18Z</time></trkpt><trkpt lat="45.36949241639827" lon="10.589206354717625"><ele>124.0</ele><time>2026-04-02T09:41:19Z</time></trkpt><trkpt lat="45.369424939358055" lon="10.589048884062107"><ele>124.0</ele><time>2026-04-02T09:41:21Z</time></trkpt><trkpt lat="45.36938128781546" lon="10.588962676171384"><ele>124.0</ele><time>2026-04-02T09:41:22Z</time></trkpt><trkpt lat="45.36931463606257" lon="10.588858011614562"><ele>124.0</ele><time>2026-04-02T09:41:23Z</time></trkpt><trkpt lat="45.36924412303456" lon="10.588732440576669"><ele>122.83333333333334</ele><time>2026-04-02T09:41:24Z</time></trkpt><trkpt lat="45.369187262978784" lon="10.588605786464608"><ele>121.66666666666667</ele><time>2026-04-02T09:41:25Z</time></trkpt><trkpt lat="45.36914344904826" lon="10.588500718229824"><ele>120.5</ele><time>2026-04-02T09:41:26Z</time></trkpt><trkpt lat="45.36910646894182" lon="10.588411401785724"><ele>119.33333333333334</ele><time>2026-04-02T09:41:27Z</time></trkpt><trkpt lat="45.36906747772654" lon="10.588331846339589"><ele>118.16666666666667</ele><time>2026-04-02T09:41:28Z</time></trkpt><trkpt lat="45.36902406964398" lon="10.588258819726299"><ele>117.0</ele><time>2026-04-02T09:41:29Z</time></trkpt><trkpt lat="45.36896220363442" lon="10.588184285483967"><ele>117.0</ele><time>2026-04-02T09:41:30Z</time></trkpt><trkpt lat="45.368887085839155" lon="10.588131334751054"><ele>116.99999999999999</ele><time>2026-04-02T09:41:31Z</time></trkpt><trkpt lat="45.36880086326772" lon="10.588089282742002"><ele>116.99999999999999</ele><time>2026-04-02T09:41:32Z</time></trkpt><trkpt lat="45.368703521746276" lon="10.588016503858944"><ele>117.0</ele><time>2026-04-02T09:41:33Z</time></trkpt><trkpt lat="45.36860139346027" lon="10.587930524419715"><ele>117.0</ele><time>2026-04-02T09:41:34Z</time></trkpt><trkpt lat="45.36852805301364" lon="10.587846534567184"><ele>118.39999999999999</ele><time>2026-04-02T09:41:35Z</time></trkpt><trkpt lat="45.36846241946453" lon="10.58774184949013"><ele>119.79999999999998</ele><time>2026-04-02T09:41:36Z</time></trkpt><trkpt lat="45.36840070656872" lon="10.587616909085462"><ele>121.2</ele><time>2026-04-02T09:41:37Z</time></trkpt><trkpt lat="45.368340791150324" lon="10.587494521397305"><ele>122.6</ele><time>2026-04-02T09:41:38Z</time></trkpt><trkpt lat="45.36830049977374" lon="10.587371063174507"><ele>124.0</ele><time>2026-04-02T09:41:39Z</time></trkpt><trkpt lat="45.36827517850706" lon="10.587276394710006"><ele>124.0</ele><time>2026-04-02T09:41:40Z</time></trkpt><trkpt lat="45.36823446071473" lon="10.587197143609195"><ele>124.0</ele><time>2026-04-02T09:41:41Z</time></trkpt><trkpt lat="45.368170348992095" lon="10.587123520909312"><ele>124.0</ele><time>2026-04-02T09:41:42Z</time></trkpt><trkpt lat="45.36809326385261" lon="10.58701719131337"><ele>124.0</ele><time>2026-04-02T09:41:43Z</time></trkpt><trkpt lat="45.36801906964741" lon="10.586884888764317"><ele>124.0</ele><time>2026-04-02T09:41:44Z</time></trkpt><trkpt lat="45.36796999600585" lon="10.586725020258951"><ele>123.25</ele><time>2026-04-02T09:41:45Z</time></trkpt><trkpt lat="45.36792451649718" lon="10.586577101100984"><ele>122.5</ele><time>2026-04-02T09:41:46Z</time></trkpt><trkpt lat="45.36785175630756" lon="10.586440821045683"><ele>121.75</ele><time>2026-04-02T09:41:47Z</time></trkpt><trkpt lat="45.367765875630255" lon="10.58629529481237"><ele>121.0</ele><time>2026-04-02T09:41:48Z</time></trkpt><trkpt lat="45.367674693426224" lon="10.586150083478257"><ele>121.0</ele><time>2026-04-02T09:41:49Z</time></trkpt><trkpt lat="45.36758836720792" lon="10.586006305319414"><ele>121.0</ele><time>2026-04-02T09:41:50Z</time></trkpt><trkpt lat="45.367516069934595" lon="10.58586764946308"><ele>121.0</ele><time>2026-04-02T09:41:51Z</time></trkpt><trkpt lat="45.36745228005038" lon="10.585736942835034"><ele>121.0</ele><time>2026-04-02T09:41:52Z</time></trkpt><trkpt lat="45.36738680994551" lon="10.585601040790277"><ele>121.0</ele><time>2026-04-02T09:41:53Z</time></trkpt><trkpt lat="45.36731476499178" lon="10.585463956965343"><ele>121.0</ele><time>2026-04-02T09:41:54Z</time></trkpt><trkpt lat="45.367256180856614" lon="10.585354486441936"><ele>121.0</ele><time>2026-04-02T09:41:55Z</time></trkpt><trkpt lat="45.36721792740341" lon="10.585263926330539"><ele>121.0</ele><time>2026-04-02T09:41:56Z</time></trkpt><trkpt lat="45.36721148036158" lon="10.585116451097715"><ele>121.0</ele><time>2026-04-02T09:41:58Z</time></trkpt><trkpt lat="45.367249308826594" lon="10.584987881404079"><ele>121.19999999999999</ele><time>2026-04-02T09:42:00Z</time></trkpt><trkpt lat="45.36727869424158" lon="10.584900123979665"><ele>121.39999999999999</ele><time>2026-04-02T09:42:01Z</time></trkpt><trkpt lat="45.36732770154474" lon="10.58476524962284"><ele>121.6</ele><time>2026-04-02T09:42:02Z</time></trkpt><trkpt lat="45.36739742160572" lon="10.58459094436218"><ele>121.8</ele><time>2026-04-02T09:42:02.999Z</time></trkpt><trkpt lat="45.367466417451745" lon="10.584449592071902"><ele>122.0</ele><time>2026-04-02T09:42:03.999Z</time></trkpt><trkpt lat="45.36754611962491" lon="10.584309301634304"><ele>123.25</ele><time>2026-04-02T09:42:04.999Z</time></trkpt><trkpt lat="45.36760625883407" lon="10.584177442142945"><ele>124.5</ele><time>2026-04-02T09:42:05.999Z</time></trkpt><trkpt lat="45.36766162155785" lon="10.584040126347372"><ele>125.75</ele><time>2026-04-02T09:42:06.999Z</time></trkpt><trkpt lat="45.367725970084344" lon="10.583893133818055"><ele>127.0</ele><time>2026-04-02T09:42:07.999Z</time></trkpt><trkpt lat="45.36779228769988" lon="10.583743413750145"><ele>127.75</ele><time>2026-04-02T09:42:08.999Z</time></trkpt><trkpt lat="45.36784164542789" lon="10.583579395833446"><ele>128.5</ele><time>2026-04-02T09:42:09.999Z</time></trkpt><trkpt lat="45.36788072192618" lon="10.583413113581772"><ele>129.25</ele><time>2026-04-02T09:42:10.999Z</time></trkpt><trkpt lat="45.367900833562864" lon="10.583257696630195"><ele>130.0</ele><time>2026-04-02T09:42:11.999Z</time></trkpt><trkpt lat="45.367909110899156" lon="10.583118349026194"><ele>130.0</ele><time>2026-04-02T09:42:12.999Z</time></trkpt><trkpt lat="45.36791697746734" lon="10.582975464831478"><ele>130.0</ele><time>2026-04-02T09:42:13.999Z</time></trkpt><trkpt lat="45.36794659643956" lon="10.582817395211535"><ele>130.0</ele><time>2026-04-02T09:42:14.999Z</time></trkpt><trkpt lat="45.367975417763276" lon="10.582645677952382"><ele>130.0</ele><time>2026-04-02T09:42:15.999Z</time></trkpt><trkpt lat="45.36801688457211" lon="10.582471680792258"><ele>126.4</ele><time>2026-04-02T09:42:16.999Z</time></trkpt><trkpt lat="45.36805635650671" lon="10.582304141382693"><ele>122.8</ele><time>2026-04-02T09:42:17.999Z</time></trkpt><trkpt lat="45.36809568834334" lon="10.582167721716418"><ele>119.19999999999999</ele><time>2026-04-02T09:42:18.999Z</time></trkpt><trkpt lat="45.36812926575399" lon="10.582060401741963"><ele>115.6</ele><time>2026-04-02T09:42:19.999Z</time></trkpt><trkpt lat="45.36820376529816" lon="10.581933550337968"><ele>112.0</ele><time>2026-04-02T09:42:21.999Z</time></trkpt><trkpt lat="45.368338707933766" lon="10.58189245336368"><ele>112.0</ele><time>2026-04-02T09:42:23.999Z</time></trkpt><trkpt lat="45.36844941751287" lon="10.581877026220623"><ele>112.0</ele><time>2026-04-02T09:42:24.999Z</time></trkpt><trkpt lat="45.368580518438286" lon="10.581847035816939"><ele>112.0</ele><time>2026-04-02T09:42:25.999Z</time></trkpt><trkpt lat="45.3687031641686" lon="10.58179390609066"><ele>112.0</ele><time>2026-04-02T09:42:26.999Z</time></trkpt><trkpt lat="45.368820514607684" lon="10.58172418031874"><ele>111.75</ele><time>2026-04-02T09:42:27.999Z</time></trkpt><trkpt lat="45.368940551980494" lon="10.581654786481096"><ele>111.5</ele><time>2026-04-02T09:42:28.999Z</time></trkpt><trkpt lat="45.3690533497184" lon="10.58158922407714"><ele>111.25</ele><time>2026-04-02T09:42:29.999Z</time></trkpt><trkpt lat="45.36915641169836" lon="10.5815336562651"><ele>111.0</ele><time>2026-04-02T09:42:30.999Z</time></trkpt><trkpt lat="45.36924383524799" lon="10.5814925549407"><ele>111.0</ele><time>2026-04-02T09:42:31.999Z</time></trkpt><trkpt lat="45.369312122853216" lon="10.581453571382536"><ele>111.0</ele><time>2026-04-02T09:42:32.999Z</time></trkpt><trkpt lat="45.36939981008428" lon="10.581361536177303"><ele>111.0</ele><time>2026-04-02T09:42:34.999Z</time></trkpt><trkpt lat="45.369384090391534" lon="10.581260890149512"><ele>111.0</ele><time>2026-04-02T09:42:37.999Z</time></trkpt><trkpt lat="45.36930732179101" lon="10.581224329351647"><ele>111.0</ele><time>2026-04-02T09:42:40.999Z</time></trkpt><trkpt lat="45.36924293140159" lon="10.581241449111344"><ele>111.0</ele><time>2026-04-02T09:42:41.999Z</time></trkpt><trkpt lat="45.36917065146514" lon="10.581272446705729"><ele>111.0</ele><time>2026-04-02T09:42:42.999Z</time></trkpt><trkpt lat="45.36908491263591" lon="10.581308620189008"><ele>111.0</ele><time>2026-04-02T09:42:43.999Z</time></trkpt><trkpt lat="45.368983431372335" lon="10.581342597383976"><ele>111.0</ele><time>2026-04-02T09:42:44.999Z</time></trkpt><trkpt lat="45.368881111335035" lon="10.58137587840792"><ele>111.0</ele><time>2026-04-02T09:42:45.999Z</time></trkpt><trkpt lat="45.36878345751652" lon="10.581405516283366"><ele>111.0</ele><time>2026-04-02T09:42:46.999Z</time></trkpt><trkpt lat="45.368685000233825" lon="10.581431074346686"><ele>111.25</ele><time>2026-04-02T09:42:47.999Z</time></trkpt><trkpt lat="45.36858339868809" lon="10.58145425323242"><ele>111.5</ele><time>2026-04-02T09:42:48.999Z</time></trkpt><trkpt lat="45.36847515537954" lon="10.581475028031717"><ele>111.75</ele><time>2026-04-02T09:42:49.999Z</time></trkpt><trkpt lat="45.3683568830328" lon="10.581489499907281"><ele>112.0</ele><time>2026-04-02T09:42:50.999Z</time></trkpt><trkpt lat="45.36823578943413" lon="10.581494885491681"><ele>112.0</ele><time>2026-04-02T09:42:51.999Z</time></trkpt><trkpt lat="45.36811236535774" lon="10.581504201878527"><ele>112.0</ele><time>2026-04-02T09:42:52.999Z</time></trkpt><trkpt lat="45.367986237039" lon="10.581511191860635"><ele>112.0</ele><time>2026-04-02T09:42:53.999Z</time></trkpt><trkpt lat="45.3678554893015" lon="10.581521004637455"><ele>112.0</ele><time>2026-04-02T09:42:54.999Z</time></trkpt><trkpt lat="45.36772634242934" lon="10.581533999023044"><ele>115.0</ele><time>2026-04-02T09:42:55.999Z</time></trkpt><trkpt lat="45.36760385488275" lon="10.581543305913637"><ele>118.0</ele><time>2026-04-02T09:42:56.999Z</time></trkpt><trkpt lat="45.367481058719115" lon="10.581551358139098"><ele>121.0</ele><time>2026-04-02T09:42:57.999Z</time></trkpt><trkpt lat="45.36735305165131" lon="10.581563903080372"><ele>124.0</ele><time>2026-04-02T09:42:58.999Z</time></trkpt><trkpt lat="45.3672225453936" lon="10.581574570824122"><ele>125.25</ele><time>2026-04-02T09:42:59.999Z</time></trkpt><trkpt lat="45.367089011703776" lon="10.581585340976527"><ele>126.5</ele><time>2026-04-02T09:43:00.999Z</time></trkpt><trkpt lat="45.366951759662655" lon="10.581597869913695"><ele>127.75</ele><time>2026-04-02T09:43:02Z</time></trkpt><trkpt lat="45.36681137543701" lon="10.581608571822397"><ele>129.0</ele><time>2026-04-02T09:43:03Z</time></trkpt><trkpt lat="45.3666697689726" lon="10.581621072340964"><ele>129.0</ele><time>2026-04-02T09:43:04Z</time></trkpt><trkpt lat="45.36652583190026" lon="10.58163661907153"><ele>129.0</ele><time>2026-04-02T09:43:05Z</time></trkpt><trkpt lat="45.36638526376174" lon="10.581648335840393"><ele>129.0</ele><time>2026-04-02T09:43:06Z</time></trkpt><trkpt lat="45.3662610040819" lon="10.581653369588667"><ele>129.0</ele><time>2026-04-02T09:43:07Z</time></trkpt><trkpt lat="45.366153576948726" lon="10.58164673044344"><ele>129.5</ele><time>2026-04-02T09:43:08Z</time></trkpt><trkpt lat="45.36606115766157" lon="10.581630656446068"><ele>130.0</ele><time>2026-04-02T09:43:09Z</time></trkpt><trkpt lat="45.365984151229675" lon="10.58160385746972"><ele>130.5</ele><time>2026-04-02T09:43:10Z</time></trkpt><trkpt lat="45.365908673581494" lon="10.581574459109481"><ele>131.0</ele><time>2026-04-02T09:43:11Z</time></trkpt><trkpt lat="45.36583006793931" lon="10.581543118806565"><ele>131.5</ele><time>2026-04-02T09:43:12Z</time></trkpt><trkpt lat="45.36574910271137" lon="10.581514902602045"><ele>132.0</ele><time>2026-04-02T09:43:13Z</time></trkpt><trkpt lat="45.36566740166121" lon="10.5814781228215"><ele>132.0</ele><time>2026-04-02T09:43:14Z</time></trkpt><trkpt lat="45.365592823164576" lon="10.581528899629964"><ele>132.0</ele><time>2026-04-02T09:43:15Z</time></trkpt><trkpt lat="45.36553789540964" lon="10.581591375050827"><ele>132.0</ele><time>2026-04-02T09:43:16Z</time></trkpt><trkpt lat="45.365488543606254" lon="10.581665456834697"><ele>132.0</ele><time>2026-04-02T09:43:17Z</time></trkpt><trkpt lat="45.365512046838106" lon="10.581812477018"><ele>132.0</ele><time>2026-04-02T09:43:18Z</time></trkpt><trkpt lat="45.36554204259214" lon="10.581936526041112"><ele>132.0</ele><time>2026-04-02T09:43:19Z</time></trkpt><trkpt lat="45.36559131416409" lon="10.58206157320522"><ele>131.75</ele><time>2026-04-02T09:43:20Z</time></trkpt><trkpt lat="45.365643958379586" lon="10.582198877650157"><ele>131.5</ele><time>2026-04-02T09:43:21Z</time></trkpt><trkpt lat="45.36569859483244" lon="10.582348089206034"><ele>131.25</ele><time>2026-04-02T09:43:22Z</time></trkpt><trkpt lat="45.365777557138856" lon="10.582481379287707"><ele>131.0</ele><time>2026-04-02T09:43:23Z</time></trkpt><trkpt lat="45.36579760433761" lon="10.582699500488106"><ele>130.75</ele><time>2026-04-02T09:43:24Z</time></trkpt><trkpt lat="45.36583185036463" lon="10.582899330245885"><ele>130.5</ele><time>2026-04-02T09:43:25Z</time></trkpt><trkpt lat="45.36586436129484" lon="10.583106525791903"><ele>130.25</ele><time>2026-04-02T09:43:26Z</time></trkpt><trkpt lat="45.36589765068958" lon="10.58331653159232"><ele>130.0</ele><time>2026-04-02T09:43:27Z</time></trkpt><trkpt lat="45.365930929854386" lon="10.583532870386756"><ele>131.0</ele><time>2026-04-02T09:43:28Z</time></trkpt><trkpt lat="45.36596320447269" lon="10.583749466206749"><ele>132.0</ele><time>2026-04-02T09:43:29Z</time></trkpt><trkpt lat="45.36599710670986" lon="10.583967732014493"><ele>133.0</ele><time>2026-04-02T09:43:30Z</time></trkpt><trkpt lat="45.366031081698154" lon="10.584184228074735"><ele>133.0</ele><time>2026-04-02T09:43:31Z</time></trkpt><trkpt lat="45.36606226357584" lon="10.584402495486044"><ele>133.0</ele><time>2026-04-02T09:43:32Z</time></trkpt><trkpt lat="45.366097998329316" lon="10.58461877433506"><ele>133.0</ele><time>2026-04-02T09:43:33Z</time></trkpt><trkpt lat="45.3661329148525" lon="10.584838835398727"><ele>133.66666666666669</ele><time>2026-04-02T09:43:34Z</time></trkpt><trkpt lat="45.36616476364245" lon="10.585062928824605"><ele>134.33333333333334</ele><time>2026-04-02T09:43:35Z</time></trkpt><trkpt lat="45.36619465834597" lon="10.58529305124296"><ele>135.0</ele><time>2026-04-02T09:43:36Z</time></trkpt><trkpt lat="45.36621982425624" lon="10.585528567927009"><ele>135.33333333333334</ele><time>2026-04-02T09:43:37Z</time></trkpt><trkpt lat="45.36624295647327" lon="10.58576788390013"><ele>135.66666666666669</ele><time>2026-04-02T09:43:38Z</time></trkpt><trkpt lat="45.36626420311841" lon="10.586009491819404"><ele>136.0</ele><time>2026-04-02T09:43:39Z</time></trkpt><trkpt lat="45.36627924692108" lon="10.586256879065544"><ele>138.0</ele><time>2026-04-02T09:43:40Z</time></trkpt><trkpt lat="45.366290454584075" lon="10.586506264650072"><ele>140.0</ele><time>2026-04-02T09:43:41Z</time></trkpt><trkpt lat="45.36629879220743" lon="10.58675743828182"><ele>142.0</ele><time>2026-04-02T09:43:42Z</time></trkpt><trkpt lat="45.36630526428625" lon="10.587009945398945"><ele>142.0</ele><time>2026-04-02T09:43:43Z</time></trkpt><trkpt lat="45.36630504104489" lon="10.587261889923166"><ele>142.0</ele><time>2026-04-02T09:43:44Z</time></trkpt><trkpt lat="45.36629877518359" lon="10.58751510702835"><ele>142.0</ele><time>2026-04-02T09:43:45Z</time></trkpt><trkpt lat="45.36629077741732" lon="10.587766371421212"><ele>142.33333333333334</ele><time>2026-04-02T09:43:46Z</time></trkpt><trkpt lat="45.366278279396894" lon="10.588015605500221"><ele>142.66666666666666</ele><time>2026-04-02T09:43:47Z</time></trkpt><trkpt lat="45.366260485967615" lon="10.5882613022784"><ele>143.0</ele><time>2026-04-02T09:43:48Z</time></trkpt><trkpt lat="45.36623944888367" lon="10.58850738208502"><ele>143.33333333333331</ele><time>2026-04-02T09:43:49Z</time></trkpt><trkpt lat="45.36621522122553" lon="10.588752338545694"><ele>143.66666666666666</ele><time>2026-04-02T09:43:50Z</time></trkpt><trkpt lat="45.36618592201464" lon="10.588995674187801"><ele>144.0</ele><time>2026-04-02T09:43:51Z</time></trkpt><trkpt lat="45.36615374639037" lon="10.589239726674888"><ele>144.0</ele><time>2026-04-02T09:43:52Z</time></trkpt><trkpt lat="45.36612173047718" lon="10.589486646989728"><ele>144.0</ele><time>2026-04-02T09:43:53Z</time></trkpt><trkpt lat="45.366092779674894" lon="10.5897104928681"><ele>144.0</ele><time>2026-04-02T09:43:54Z</time></trkpt><trkpt lat="45.36606886911138" lon="10.5899003668536"><ele>144.0</ele><time>2026-04-02T09:43:55Z</time></trkpt><trkpt lat="45.366053713056274" lon="10.59005055353488"><ele>144.0</ele><time>2026-04-02T09:43:56Z</time></trkpt><trkpt lat="45.36604799743575" lon="10.590163353639031"><ele>144.0</ele><time>2026-04-02T09:43:57Z</time></trkpt><trkpt lat="45.36601474858112" lon="10.590298882110107"><ele>144.0</ele><time>2026-04-02T09:43:59Z</time></trkpt><trkpt lat="45.36618755291223" lon="10.590227903021354"><ele>144.0</ele><time>2026-04-02T09:44:04Z</time></trkpt><trkpt lat="45.3662006166831" lon="10.590115864369853"><ele>144.0</ele><time>2026-04-02T09:44:05Z</time></trkpt><trkpt lat="45.366259157373385" lon="10.589983796675869"><ele>144.0</ele><time>2026-04-02T09:44:07Z</time></trkpt><trkpt lat="45.366387994655604" lon="10.589963285156434"><ele>144.0</ele><time>2026-04-02T09:44:09Z</time></trkpt><trkpt lat="45.366476351862424" lon="10.58996905830157"><ele>144.0</ele><time>2026-04-02T09:44:10Z</time></trkpt><trkpt lat="45.36658467765733" lon="10.589982567474706"><ele>144.75</ele><time>2026-04-02T09:44:11Z</time></trkpt><trkpt lat="45.366700956126344" lon="10.589998922128224"><ele>145.5</ele><time>2026-04-02T09:44:12Z</time></trkpt><trkpt lat="45.36681338853318" lon="10.59003079964099"><ele>146.25</ele><time>2026-04-02T09:44:13Z</time></trkpt><trkpt lat="45.36692387945518" lon="10.59006513698863"><ele>147.0</ele><time>2026-04-02T09:44:14Z</time></trkpt><trkpt lat="45.3670278305872" lon="10.59009330894963"><ele>147.0</ele><time>2026-04-02T09:44:15Z</time></trkpt><trkpt lat="45.36712587996" lon="10.59012033406924"><ele>147.0</ele><time>2026-04-02T09:44:16Z</time></trkpt><trkpt lat="45.36722223514981" lon="10.590148242484933"><ele>147.0</ele><time>2026-04-02T09:44:17Z</time></trkpt><trkpt lat="45.36731857471532" lon="10.590170822237619"><ele>147.0</ele><time>2026-04-02T09:44:18Z</time></trkpt><trkpt lat="45.367417919604705" lon="10.590183538662375"><ele>147.0</ele><time>2026-04-02T09:44:19Z</time></trkpt><trkpt lat="45.36750029914825" lon="10.590196487749541"><ele>147.28571428571428</ele><time>2026-04-02T09:44:20Z</time></trkpt><trkpt lat="45.3675677544205" lon="10.590219212495763"><ele>147.57142857142856</ele><time>2026-04-02T09:44:21Z</time></trkpt><trkpt lat="45.367629395286116" lon="10.590264509969625"><ele>147.85714285714286</ele><time>2026-04-02T09:44:21.999Z</time></trkpt><trkpt lat="45.36767311074498" lon="10.59033660979908"><ele>148.14285714285714</ele><time>2026-04-02T09:44:22.999Z</time></trkpt><trkpt lat="45.367708863453096" lon="10.590423809827003"><ele>148.42857142857142</ele><time>2026-04-02T09:44:23.999Z</time></trkpt><trkpt lat="45.36775194439723" lon="10.590491669190012"><ele>148.71428571428572</ele><time>2026-04-02T09:44:24.999Z</time></trkpt><trkpt lat="45.36781526717322" lon="10.59051438656802"><ele>149.0</ele><time>2026-04-02T09:44:25.999Z</time></trkpt><trkpt lat="45.367883900991565" lon="10.59050545222543"><ele>149.5</ele><time>2026-04-02T09:44:26.999Z</time></trkpt><trkpt lat="45.36797631208247" lon="10.59047470484123"><ele>150.0</ele><time>2026-04-02T09:44:27.999Z</time></trkpt><trkpt lat="45.36807211578878" lon="10.59044832232956"><ele>150.5</ele><time>2026-04-02T09:44:28.999Z</time></trkpt><trkpt lat="45.36816240013723" lon="10.590449511954095"><ele>151.0</ele><time>2026-04-02T09:44:29.999Z</time></trkpt><trkpt lat="45.36825257771065" lon="10.590470916035908"><ele>151.5</ele><time>2026-04-02T09:44:30.999Z</time></trkpt><trkpt lat="45.368324069433555" lon="10.590488509653897"><ele>152.0</ele><time>2026-04-02T09:44:31.999Z</time></trkpt><trkpt lat="45.3683908897652" lon="10.590519187978572"><ele>151.16666666666666</ele><time>2026-04-02T09:44:33.999Z</time></trkpt><trkpt lat="45.36840458804382" lon="10.590606796205638"><ele>150.33333333333331</ele><time>2026-04-02T09:44:35.999Z</time></trkpt><trkpt lat="45.368379662859475" lon="10.590744355529665"><ele>149.5</ele><time>2026-04-02T09:44:37.999Z</time></trkpt><trkpt lat="45.368362066372434" lon="10.590834332503404"><ele>148.66666666666666</ele><time>2026-04-02T09:44:38.999Z</time></trkpt><trkpt lat="45.36833494428557" lon="10.591013776083347"><ele>147.83333333333334</ele><time>2026-04-02T09:44:40.999Z</time></trkpt><trkpt lat="45.36832982747072" lon="10.591122520097173"><ele>147.0</ele><time>2026-04-02T09:44:41.999Z</time></trkpt><trkpt lat="45.368311195994586" lon="10.591251144453658"><ele>147.0</ele><time>2026-04-02T09:44:42.999Z</time></trkpt><trkpt lat="45.368283548288204" lon="10.591383171329964"><ele>147.0</ele><time>2026-04-02T09:44:43.999Z</time></trkpt><trkpt lat="45.36825456904033" lon="10.591550856571436"><ele>147.0</ele><time>2026-04-02T09:44:44.999Z</time></trkpt><trkpt lat="45.368222899248686" lon="10.591752637527424"><ele>147.0</ele><time>2026-04-02T09:44:45.999Z</time></trkpt><trkpt lat="45.3682013411484" lon="10.591991122822552"><ele>147.5</ele><time>2026-04-02T09:44:46.999Z</time></trkpt><trkpt lat="45.368171278190296" lon="10.592198707239394"><ele>148.0</ele><time>2026-04-02T09:44:47.999Z</time></trkpt><trkpt lat="45.36813658961185" lon="10.592385884389397"><ele>148.5</ele><time>2026-04-02T09:44:48.999Z</time></trkpt><trkpt lat="45.36810324176977" lon="10.592558054829174"><ele>149.0</ele><time>2026-04-02T09:44:49.999Z</time></trkpt><trkpt lat="45.36808334499601" lon="10.592709665810634"><ele>148.66666666666666</ele><time>2026-04-02T09:44:50.999Z</time></trkpt><trkpt lat="45.368083447427324" lon="10.592856254837018"><ele>148.33333333333331</ele><time>2026-04-02T09:44:51.999Z</time></trkpt><trkpt lat="45.36808577651827" lon="10.593002091081942"><ele>148.0</ele><time>2026-04-02T09:44:52.999Z</time></trkpt><trkpt lat="45.368089629549964" lon="10.593114779049849"><ele>147.66666666666666</ele><time>2026-04-02T09:44:53.999Z</time></trkpt><trkpt lat="45.36813032708736" lon="10.593222456618307"><ele>147.33333333333334</ele><time>2026-04-02T09:44:55.999Z</time></trkpt><trkpt lat="45.36819674944142" lon="10.593237644775202"><ele>147.0</ele><time>2026-04-02T09:44:56.999Z</time></trkpt><trkpt lat="45.36829880007333" lon="10.593249308477052"><ele>147.0</ele><time>2026-04-02T09:44:57.999Z</time></trkpt><trkpt lat="45.36839581469534" lon="10.593250909947011"><ele>147.0</ele><time>2026-04-02T09:44:58.999Z</time></trkpt><trkpt lat="45.368459977796974" lon="10.59326867013988"><ele>147.0</ele><time>2026-04-02T09:44:59.999Z</time></trkpt><trkpt lat="45.36857174892648" lon="10.593327395447048"><ele>147.0</ele><time>2026-04-02T09:45:01.999Z</time></trkpt><trkpt lat="45.36861443490924" lon="10.59339795287534"><ele>147.0</ele><time>2026-04-02T09:45:02.999Z</time></trkpt><trkpt lat="45.36864877009274" lon="10.593484026382072"><ele>147.0</ele><time>2026-04-02T09:45:03.999Z</time></trkpt><trkpt lat="45.36868904848189" lon="10.59361257599995"><ele>147.5</ele><time>2026-04-02T09:45:04.999Z</time></trkpt><trkpt lat="45.36873892578802" lon="10.593740050140072"><ele>148.0</ele><time>2026-04-02T09:45:05.999Z</time></trkpt><trkpt lat="45.36879437601202" lon="10.593873957583348"><ele>148.5</ele><time>2026-04-02T09:45:06.999Z</time></trkpt><trkpt lat="45.368869745097406" lon="10.594014059789723"><ele>149.0</ele><time>2026-04-02T09:45:08Z</time></trkpt><trkpt lat="45.36894305200208" lon="10.594150520254212"><ele>146.0</ele><time>2026-04-02T09:45:09Z</time></trkpt><trkpt lat="45.36897718204926" lon="10.59428363852631"><ele>143.0</ele><time>2026-04-02T09:45:10Z</time></trkpt><trkpt lat="45.36898924154802" lon="10.594403357770558"><ele>140.0</ele><time>2026-04-02T09:45:11Z</time></trkpt><trkpt lat="45.368984141194005" lon="10.594544262412095"><ele>137.0</ele><time>2026-04-02T09:45:12Z</time></trkpt><trkpt lat="45.368972623121586" lon="10.594719811916342"><ele>134.0</ele><time>2026-04-02T09:45:13Z</time></trkpt><trkpt lat="45.36894962132298" lon="10.594937707135495"><ele>133.5</ele><time>2026-04-02T09:45:14Z</time></trkpt><trkpt lat="45.3689347354734" lon="10.595137455000055"><ele>133.0</ele><time>2026-04-02T09:45:15Z</time></trkpt><trkpt lat="45.36892407876297" lon="10.595301502226437"><ele>132.5</ele><time>2026-04-02T09:45:16Z</time></trkpt><trkpt lat="45.3689264627695" lon="10.595446967385271"><ele>132.0</ele><time>2026-04-02T09:45:17Z</time></trkpt><trkpt lat="45.368954224250686" lon="10.595571802652845"><ele>132.0</ele><time>2026-04-02T09:45:18Z</time></trkpt><trkpt lat="45.36899038672689" lon="10.595662077279941"><ele>132.0</ele><time>2026-04-02T09:45:19Z</time></trkpt><trkpt lat="45.36903288900078" lon="10.595736688538127"><ele>132.0</ele><time>2026-04-02T09:45:20Z</time></trkpt><trkpt lat="45.369070430833965" lon="10.595813879821474"><ele>132.0</ele><time>2026-04-02T09:45:21Z</time></trkpt><trkpt lat="45.3691153497039" lon="10.595954230977345"><ele>132.0</ele><time>2026-04-02T09:45:23Z</time></trkpt><trkpt lat="45.36915127287985" lon="10.596044287792163"><ele>132.0</ele><time>2026-04-02T09:45:24Z</time></trkpt><trkpt lat="45.36918141255204" lon="10.596143305225375"><ele>131.2</ele><time>2026-04-02T09:45:25Z</time></trkpt><trkpt lat="45.36921017655262" lon="10.596225667906133"><ele>130.39999999999998</ele><time>2026-04-02T09:45:26Z</time></trkpt><trkpt lat="45.36924632562029" lon="10.596349831333145"><ele>129.60000000000002</ele><time>2026-04-02T09:45:28Z</time></trkpt><trkpt lat="45.36920560904142" lon="10.596458657568183"><ele>128.8</ele><time>2026-04-02T09:45:32Z</time></trkpt><trkpt lat="45.36912314919436" lon="10.596541771781096"><ele>128.0</ele><time>2026-04-02T09:45:34Z</time></trkpt><trkpt lat="45.36901590488025" lon="10.596639178931678"><ele>128.0</ele><time>2026-04-02T09:45:36Z</time></trkpt><trkpt lat="45.36895089779096" lon="10.5967087133906"><ele>128.0</ele><time>2026-04-02T09:45:37Z</time></trkpt><trkpt lat="45.36888599425242" lon="10.596790600787665"><ele>128.0</ele><time>2026-04-02T09:45:38Z</time></trkpt><trkpt lat="45.36881231168273" lon="10.596882183378284"><ele>128.0</ele><time>2026-04-02T09:45:39Z</time></trkpt><trkpt lat="45.36872448593893" lon="10.596980707566905"><ele>128.0</ele><time>2026-04-02T09:45:40Z</time></trkpt><trkpt lat="45.36862954633286" lon="10.597051388956448"><ele>131.25</ele><time>2026-04-02T09:45:41Z</time></trkpt><trkpt lat="45.36852562139368" lon="10.59706353294121"><ele>134.5</ele><time>2026-04-02T09:45:42Z</time></trkpt><trkpt lat="45.36841315636171" lon="10.597021500375643"><ele>137.75</ele><time>2026-04-02T09:45:43Z</time></trkpt><trkpt lat="45.368301027803" lon="10.59693205246096"><ele>141.0</ele><time>2026-04-02T09:45:44Z</time></trkpt><trkpt lat="45.3681931206343" lon="10.596822125072276"><ele>141.0</ele><time>2026-04-02T09:45:45Z</time></trkpt><trkpt lat="45.3680757450016" lon="10.59671701053042"><ele>141.0</ele><time>2026-04-02T09:45:46Z</time></trkpt><trkpt lat="45.36794657534608" lon="10.596615725320065"><ele>141.0</ele><time>2026-04-02T09:45:47Z</time></trkpt><trkpt lat="45.36781092560332" lon="10.596536538048626"><ele>141.0</ele><time>2026-04-02T09:45:48Z</time></trkpt><trkpt lat="45.3676727205641" lon="10.596496892195466"><ele>143.0</ele><time>2026-04-02T09:45:49Z</time></trkpt><trkpt lat="45.367537149483965" lon="10.59650190548662"><ele>145.0</ele><time>2026-04-02T09:45:50Z</time></trkpt><trkpt lat="45.36741304017619" lon="10.59654887881302"><ele>147.0</ele><time>2026-04-02T09:45:51Z</time></trkpt><trkpt lat="45.367302008421014" lon="10.596635693796285"><ele>149.0</ele><time>2026-04-02T09:45:52Z</time></trkpt><trkpt lat="45.367189468536324" lon="10.596748385490153"><ele>149.0</ele><time>2026-04-02T09:45:53Z</time></trkpt><trkpt lat="45.367064513397146" lon="10.596864624310633"><ele>149.0</ele><time>2026-04-02T09:45:54Z</time></trkpt><trkpt lat="45.36691419010341" lon="10.59699506256686"><ele>149.0</ele><time>2026-04-02T09:45:55Z</time></trkpt><trkpt lat="45.36674764217859" lon="10.59714583148199"><ele>149.33333333333331</ele><time>2026-04-02T09:45:56Z</time></trkpt><trkpt lat="45.366601410843785" lon="10.597273677224507"><ele>149.66666666666666</ele><time>2026-04-02T09:45:57Z</time></trkpt><trkpt lat="45.36646424813683" lon="10.597388099683442"><ele>150.0</ele><time>2026-04-02T09:45:58Z</time></trkpt><trkpt lat="45.3663362115894" lon="10.59749617249507"><ele>149.5</ele><time>2026-04-02T09:45:59Z</time></trkpt><trkpt lat="45.36621436720815" lon="10.597602867275318"><ele>149.0</ele><time>2026-04-02T09:46:00Z</time></trkpt><trkpt lat="45.36608810904639" lon="10.597709457363825"><ele>148.5</ele><time>2026-04-02T09:46:01Z</time></trkpt><trkpt lat="45.365960672025466" lon="10.59781333085824"><ele>148.0</ele><time>2026-04-02T09:46:02Z</time></trkpt><trkpt lat="45.365835743773864" lon="10.597904800597112"><ele>148.0</ele><time>2026-04-02T09:46:03Z</time></trkpt><trkpt lat="45.3657096795894" lon="10.597973131124107"><ele>148.0</ele><time>2026-04-02T09:46:04Z</time></trkpt><trkpt lat="45.36558065572539" lon="10.598012123951358"><ele>148.0</ele><time>2026-04-02T09:46:05Z</time></trkpt><trkpt lat="45.36545975706225" lon="10.59803252747696"><ele>148.0</ele><time>2026-04-02T09:46:06Z</time></trkpt><trkpt lat="45.365345290312526" lon="10.598042560933644"><ele>147.20000000000002</ele><time>2026-04-02T09:46:07Z</time></trkpt><trkpt lat="45.36522779988102" lon="10.598045334483396"><ele>146.4</ele><time>2026-04-02T09:46:08Z</time></trkpt><trkpt lat="45.36512831041168" lon="10.598045628852404"><ele>145.60000000000002</ele><time>2026-04-02T09:46:09Z</time></trkpt><trkpt lat="45.36505907803904" lon="10.598031464973603"><ele>144.8</ele><time>2026-04-02T09:46:10Z</time></trkpt><trkpt lat="45.36495496041209" lon="10.597950598595487"><ele>144.0</ele><time>2026-04-02T09:46:12Z</time></trkpt><trkpt lat="45.364895046097374" lon="10.59788753999451"><ele>144.0</ele><time>2026-04-02T09:46:13Z</time></trkpt><trkpt lat="45.36481505041787" lon="10.597858009170288"><ele>144.0</ele><time>2026-04-02T09:46:14Z</time></trkpt><trkpt lat="45.36472839429261" lon="10.597870641879434"><ele>144.0</ele><time>2026-04-02T09:46:15Z</time></trkpt><trkpt lat="45.36465769523724" lon="10.597932692899743"><ele>144.0</ele><time>2026-04-02T09:46:16Z</time></trkpt><trkpt lat="45.36461184304809" lon="10.59803245352528"><ele>144.0</ele><time>2026-04-02T09:46:17Z</time></trkpt><trkpt lat="45.364597162522095" lon="10.598163205238977"><ele>144.0</ele><time>2026-04-02T09:46:18Z</time></trkpt><trkpt lat="45.364611227041195" lon="10.59830462845899"><ele>143.5</ele><time>2026-04-02T09:46:19Z</time></trkpt><trkpt lat="45.36461220656204" lon="10.598453577154805"><ele>143.0</ele><time>2026-04-02T09:46:20Z</time></trkpt><trkpt lat="45.364576055497224" lon="10.598602094652664"><ele>142.5</ele><time>2026-04-02T09:46:21Z</time></trkpt><trkpt lat="45.36451648210606" lon="10.598758875211017"><ele>142.0</ele><time>2026-04-02T09:46:22Z</time></trkpt><trkpt lat="45.36443945470566" lon="10.59893195467048"><ele>142.0</ele><time>2026-04-02T09:46:23Z</time></trkpt><trkpt lat="45.364352706565214" lon="10.599129343346252"><ele>142.0</ele><time>2026-04-02T09:46:24Z</time></trkpt><trkpt lat="45.36426298228743" lon="10.599341690262452"><ele>142.0</ele><time>2026-04-02T09:46:25Z</time></trkpt><trkpt lat="45.36416200340913" lon="10.599581269900508"><ele>143.66666666666669</ele><time>2026-04-02T09:46:26Z</time></trkpt><trkpt lat="45.3640574879281" lon="10.599828975679598"><ele>145.33333333333334</ele><time>2026-04-02T09:46:27Z</time></trkpt><trkpt lat="45.36396227393155" lon="10.600053374178847"><ele>147.0</ele><time>2026-04-02T09:46:28Z</time></trkpt><trkpt lat="45.36387570405044" lon="10.600259226479274"><ele>145.66666666666666</ele><time>2026-04-02T09:46:29Z</time></trkpt><trkpt lat="45.363790502893835" lon="10.600464717819946"><ele>144.33333333333331</ele><time>2026-04-02T09:46:30Z</time></trkpt><trkpt lat="45.363705503908044" lon="10.600672674960045"><ele>143.0</ele><time>2026-04-02T09:46:31Z</time></trkpt><trkpt lat="45.36362108319665" lon="10.600881894790534"><ele>143.0</ele><time>2026-04-02T09:46:32Z</time></trkpt><trkpt lat="45.36353477859" lon="10.601090375999014"><ele>143.0</ele><time>2026-04-02T09:46:33Z</time></trkpt><trkpt lat="45.36344760983987" lon="10.601297607660419"><ele>143.0</ele><time>2026-04-02T09:46:34Z</time></trkpt><trkpt lat="45.363361778820526" lon="10.601509396211705"><ele>144.33333333333331</ele><time>2026-04-02T09:46:35Z</time></trkpt><trkpt lat="45.36327963453356" lon="10.601722467291022"><ele>145.66666666666666</ele><time>2026-04-02T09:46:36Z</time></trkpt><trkpt lat="45.36319865866889" lon="10.601940341087335"><ele>147.0</ele><time>2026-04-02T09:46:37Z</time></trkpt><trkpt lat="45.36312243097669" lon="10.602163306220268"><ele>148.66666666666666</ele><time>2026-04-02T09:46:38Z</time></trkpt><trkpt lat="45.36304820332024" lon="10.602392301629793"><ele>150.33333333333331</ele><time>2026-04-02T09:46:39Z</time></trkpt><trkpt lat="45.362975314746016" lon="10.602623795861064"><ele>152.0</ele><time>2026-04-02T09:46:40Z</time></trkpt><trkpt lat="45.36289772469464" lon="10.602854758325977"><ele>148.66666666666666</ele><time>2026-04-02T09:46:41Z</time></trkpt><trkpt lat="45.36281958665109" lon="10.603083175702595"><ele>145.33333333333334</ele><time>2026-04-02T09:46:42Z</time></trkpt><trkpt lat="45.362739117447795" lon="10.603310594709875"><ele>142.0</ele><time>2026-04-02T09:46:43Z</time></trkpt><trkpt lat="45.36265514994231" lon="10.603534847601278"><ele>143.5</ele><time>2026-04-02T09:46:44Z</time></trkpt><trkpt lat="45.36257380650499" lon="10.603739174429775"><ele>145.0</ele><time>2026-04-02T09:46:45Z</time></trkpt><trkpt lat="45.36249996823834" lon="10.603911824641356"><ele>146.5</ele><time>2026-04-02T09:46:46Z</time></trkpt><trkpt lat="45.362439977348316" lon="10.604042310083704"><ele>148.0</ele><time>2026-04-02T09:46:47Z</time></trkpt><trkpt lat="45.36238444940619" lon="10.604159020263257"><ele>148.0</ele><time>2026-04-02T09:46:48Z</time></trkpt><trkpt lat="45.36231251964486" lon="10.604287055675803"><ele>148.0</ele><time>2026-04-02T09:46:49Z</time></trkpt><trkpt lat="45.362234449301994" lon="10.604418587966235"><ele>148.0</ele><time>2026-04-02T09:46:50Z</time></trkpt><trkpt lat="45.362158677960366" lon="10.604551754289012"><ele>148.0</ele><time>2026-04-02T09:46:50.999Z</time></trkpt><trkpt lat="45.36209000494448" lon="10.604673710846937"><ele>147.5</ele><time>2026-04-02T09:46:51.999Z</time></trkpt><trkpt lat="45.36203011713662" lon="10.604781145249794"><ele>147.0</ele><time>2026-04-02T09:46:52.999Z</time></trkpt><trkpt lat="45.36198068393081" lon="10.604876455004892"><ele>146.5</ele><time>2026-04-02T09:46:53.999Z</time></trkpt><trkpt lat="45.36193580555484" lon="10.604958133636126"><ele>146.0</ele><time>2026-04-02T09:46:54.999Z</time></trkpt><trkpt lat="45.3618958966967" lon="10.605043622384985"><ele>145.5</ele><time>2026-04-02T09:46:55.999Z</time></trkpt><trkpt lat="45.36186127620833" lon="10.605122685480579"><ele>145.0</ele><time>2026-04-02T09:46:56.999Z</time></trkpt><trkpt lat="45.3618002829663" lon="10.605277472620115"><ele>145.0</ele><time>2026-04-02T09:46:58.999Z</time></trkpt><trkpt lat="45.36193743683809" lon="10.60513892667971"><ele>145.0</ele><time>2026-04-02T09:47:04.999Z</time></trkpt><trkpt lat="45.36198207559739" lon="10.605029413163818"><ele>145.0</ele><time>2026-04-02T09:47:05.999Z</time></trkpt><trkpt lat="45.36203635838375" lon="10.60490996654037"><ele>145.0</ele><time>2026-04-02T09:47:06.999Z</time></trkpt><trkpt lat="45.362092080385445" lon="10.604803664725713"><ele>145.0</ele><time>2026-04-02T09:47:07.999Z</time></trkpt><trkpt lat="45.36214871212325" lon="10.60469955827783"><ele>145.0</ele><time>2026-04-02T09:47:08.999Z</time></trkpt><trkpt lat="45.36220498466551" lon="10.604596086943042"><ele>145.0</ele><time>2026-04-02T09:47:09.999Z</time></trkpt><trkpt lat="45.362260356405756" lon="10.604498084866453"><ele>145.0</ele><time>2026-04-02T09:47:10.999Z</time></trkpt><trkpt lat="45.36231074501326" lon="10.604422169625426"><ele>145.0</ele><time>2026-04-02T09:47:11.999Z</time></trkpt><trkpt lat="45.36238725805094" lon="10.604330322163197"><ele>145.0</ele><time>2026-04-02T09:47:14Z</time></trkpt><trkpt lat="45.3624607637625" lon="10.604286619932603"><ele>145.5</ele><time>2026-04-02T09:47:16Z</time></trkpt><trkpt lat="45.362536929712775" lon="10.604290428810607"><ele>146.0</ele><time>2026-04-02T09:47:19Z</time></trkpt><trkpt lat="45.36261448067074" lon="10.604296301818069"><ele>146.5</ele><time>2026-04-02T09:47:21Z</time></trkpt><trkpt lat="45.36271517892282" lon="10.60430374128552"><ele>147.0</ele><time>2026-04-02T09:47:23Z</time></trkpt><trkpt lat="45.36278907663125" lon="10.604316251503747"><ele>147.5</ele><time>2026-04-02T09:47:24Z</time></trkpt><trkpt lat="45.362875822464844" lon="10.604331545687737"><ele>148.0</ele><time>2026-04-02T09:47:25Z</time></trkpt><trkpt lat="45.36295399388117" lon="10.604348733371356"><ele>149.20000000000002</ele><time>2026-04-02T09:47:26Z</time></trkpt><trkpt lat="45.36303565048321" lon="10.60436551290577"><ele>150.4</ele><time>2026-04-02T09:47:27Z</time></trkpt><trkpt lat="45.36312387632732" lon="10.60437338960029"><ele>151.60000000000002</ele><time>2026-04-02T09:47:28Z</time></trkpt><trkpt lat="45.3632215254711" lon="10.604368907047862"><ele>152.8</ele><time>2026-04-02T09:47:29Z</time></trkpt><trkpt lat="45.36332546762676" lon="10.604355746973868"><ele>154.0</ele><time>2026-04-02T09:47:30Z</time></trkpt><trkpt lat="45.36344416171537" lon="10.604340783887945"><ele>154.0</ele><time>2026-04-02T09:47:31Z</time></trkpt><trkpt lat="45.36356879890609" lon="10.60433503842952"><ele>154.0</ele><time>2026-04-02T09:47:32Z</time></trkpt><trkpt lat="45.3637024845283" lon="10.604345288996754"><ele>154.0</ele><time>2026-04-02T09:47:33Z</time></trkpt><trkpt lat="45.36383888990965" lon="10.604376712503502"><ele>154.0</ele><time>2026-04-02T09:47:34Z</time></trkpt><trkpt lat="45.363964634314364" lon="10.604415532616304"><ele>152.83333333333334</ele><time>2026-04-02T09:47:35Z</time></trkpt><trkpt lat="45.36405860422504" lon="10.60445335539318"><ele>151.66666666666669</ele><time>2026-04-02T09:47:36Z</time></trkpt><trkpt lat="45.364135976744784" lon="10.604487678588281"><ele>150.5</ele><time>2026-04-02T09:47:37Z</time></trkpt><trkpt lat="45.364214688437116" lon="10.604524334565626"><ele>149.33333333333334</ele><time>2026-04-02T09:47:38Z</time></trkpt><trkpt lat="45.364285185519634" lon="10.60455607030202"><ele>148.16666666666666</ele><time>2026-04-02T09:47:39Z</time></trkpt><trkpt lat="45.36434883687904" lon="10.604587944577743"><ele>147.0</ele><time>2026-04-02T09:47:40Z</time></trkpt><trkpt lat="45.36440375672681" lon="10.604633525214505"><ele>146.0</ele><time>2026-04-02T09:47:41Z</time></trkpt><trkpt lat="45.36445595932597" lon="10.604687425841712"><ele>145.0</ele><time>2026-04-02T09:47:42Z</time></trkpt><trkpt lat="45.36450684207594" lon="10.604746901241858"><ele>144.0</ele><time>2026-04-02T09:47:43Z</time></trkpt><trkpt lat="45.36460525422044" lon="10.604847495702867"><ele>143.0</ele><time>2026-04-02T09:47:45Z</time></trkpt><trkpt lat="45.36471303306254" lon="10.604938292584286"><ele>142.0</ele><time>2026-04-02T09:47:47Z</time></trkpt><trkpt lat="45.36480896183288" lon="10.605047941119324"><ele>141.0</ele><time>2026-04-02T09:47:49Z</time></trkpt><trkpt lat="45.36486373922717" lon="10.605105305450348"><ele>140.0</ele><time>2026-04-02T09:47:50Z</time></trkpt><trkpt lat="45.364915896427206" lon="10.605171620811953"><ele>139.0</ele><time>2026-04-02T09:47:51Z</time></trkpt><trkpt lat="45.36496896434245" lon="10.605251837239281"><ele>138.0</ele><time>2026-04-02T09:47:52Z</time></trkpt><trkpt lat="45.36502769359535" lon="10.60530898057462"><ele>137.0</ele><time>2026-04-02T09:47:53Z</time></trkpt><trkpt lat="45.365098105406844" lon="10.605349065590802"><ele>136.0</ele><time>2026-04-02T09:47:54Z</time></trkpt><trkpt lat="45.36516772853451" lon="10.605371986842293"><ele>135.0</ele><time>2026-04-02T09:47:55Z</time></trkpt><trkpt lat="45.36524031763346" lon="10.605379647366183"><ele>135.0</ele><time>2026-04-02T09:47:56Z</time></trkpt><trkpt lat="45.365311796856375" lon="10.605389750854902"><ele>135.0</ele><time>2026-04-02T09:47:57Z</time></trkpt><trkpt lat="45.36538521315108" lon="10.60539989295409"><ele>135.0</ele><time>2026-04-02T09:47:58Z</time></trkpt><trkpt lat="45.36546259229744" lon="10.605416208690713"><ele>135.0</ele><time>2026-04-02T09:47:59Z</time></trkpt><trkpt lat="45.36552977650945" lon="10.605440971133108"><ele>135.0</ele><time>2026-04-02T09:48:00Z</time></trkpt><trkpt lat="45.365596964288315" lon="10.605473295601183"><ele>135.0</ele><time>2026-04-02T09:48:01Z</time></trkpt><trkpt lat="45.3656658125717" lon="10.60550780617784"><ele>135.0</ele><time>2026-04-02T09:48:02Z</time></trkpt><trkpt lat="45.36573453284015" lon="10.60554583755969"><ele>135.16666666666666</ele><time>2026-04-02T09:48:03Z</time></trkpt><trkpt lat="45.36580348999988" lon="10.605580019321938"><ele>135.33333333333334</ele><time>2026-04-02T09:48:04Z</time></trkpt><trkpt lat="45.36587276303655" lon="10.605614538114102"><ele>135.5</ele><time>2026-04-02T09:48:05Z</time></trkpt><trkpt lat="45.36594874803143" lon="10.605656064661098"><ele>135.66666666666669</ele><time>2026-04-02T09:48:06Z</time></trkpt><trkpt lat="45.366022006262526" lon="10.605703772182789"><ele>135.83333333333334</ele><time>2026-04-02T09:48:07Z</time></trkpt><trkpt lat="45.366091205201435" lon="10.60576692316107"><ele>136.0</ele><time>2026-04-02T09:48:08Z</time></trkpt><trkpt lat="45.366157681661356" lon="10.60584414202692"><ele>136.0</ele><time>2026-04-02T09:48:09Z</time></trkpt><trkpt lat="45.36622084151346" lon="10.605917174849443"><ele>136.0</ele><time>2026-04-02T09:48:10Z</time></trkpt><trkpt lat="45.36628436873428" lon="10.605994284542902"><ele>136.0</ele><time>2026-04-02T09:48:11Z</time></trkpt><trkpt lat="45.36634488768694" lon="10.606068084690602"><ele>136.0</ele><time>2026-04-02T09:48:12Z</time></trkpt><trkpt lat="45.36641199318318" lon="10.606136591630717"><ele>136.0</ele><time>2026-04-02T09:48:13Z</time></trkpt><trkpt lat="45.366464947659026" lon="10.606222031952775"><ele>136.0</ele><time>2026-04-02T09:48:14Z</time></trkpt><trkpt lat="45.36651933391069" lon="10.606305537035556"><ele>137.0</ele><time>2026-04-02T09:48:15Z</time></trkpt><trkpt lat="45.36657456490781" lon="10.606390080793172"><ele>138.0</ele><time>2026-04-02T09:48:16Z</time></trkpt><trkpt lat="45.3666328674396" lon="10.60647561646336"><ele>139.0</ele><time>2026-04-02T09:48:17Z</time></trkpt><trkpt lat="45.36670128727092" lon="10.606574714285616"><ele>140.0</ele><time>2026-04-02T09:48:18Z</time></trkpt><trkpt lat="45.366790498848694" lon="10.606668428711972"><ele>141.0</ele><time>2026-04-02T09:48:19Z</time></trkpt><trkpt lat="45.366893295315656" lon="10.606753788169385"><ele>141.0</ele><time>2026-04-02T09:48:20Z</time></trkpt><trkpt lat="45.36699523317709" lon="10.606842044913634"><ele>141.0</ele><time>2026-04-02T09:48:21Z</time></trkpt><trkpt lat="45.367089730209074" lon="10.606930150509502"><ele>141.0</ele><time>2026-04-02T09:48:22Z</time></trkpt><trkpt lat="45.36718492121344" lon="10.607015670777045"><ele>141.0</ele><time>2026-04-02T09:48:23Z</time></trkpt><trkpt lat="45.36727125370301" lon="10.607101048044472"><ele>141.0</ele><time>2026-04-02T09:48:24Z</time></trkpt><trkpt lat="45.36734776734219" lon="10.607175577566675"><ele>141.0</ele><time>2026-04-02T09:48:25Z</time></trkpt><trkpt lat="45.36741933196632" lon="10.60724144966161"><ele>141.0</ele><time>2026-04-02T09:48:26Z</time></trkpt><trkpt lat="45.367483050562974" lon="10.607301166342275"><ele>141.0</ele><time>2026-04-02T09:48:27Z</time></trkpt><trkpt lat="45.36754147721808" lon="10.607343729358865"><ele>141.0</ele><time>2026-04-02T09:48:28Z</time></trkpt><trkpt lat="45.36762626162729" lon="10.60740591679288"><ele>141.0</ele><time>2026-04-02T09:48:30Z</time></trkpt><trkpt lat="45.36774889812309" lon="10.607475968598825"><ele>141.0</ele><time>2026-04-02T09:48:32Z</time></trkpt><trkpt lat="45.36783200778875" lon="10.607520913301094"><ele>141.0</ele><time>2026-04-02T09:48:33Z</time></trkpt><trkpt lat="45.36791958244958" lon="10.607575734537216"><ele>141.0</ele><time>2026-04-02T09:48:34Z</time></trkpt><trkpt lat="45.36800332564375" lon="10.60762779512901"><ele>141.0</ele><time>2026-04-02T09:48:35Z</time></trkpt><trkpt lat="45.368069353810384" lon="10.60767519545287"><ele>141.0</ele><time>2026-04-02T09:48:36Z</time></trkpt><trkpt lat="45.36813771726641" lon="10.607710189581395"><ele>141.0</ele><time>2026-04-02T09:48:37Z</time></trkpt><trkpt lat="45.36820420300793" lon="10.607731425563278"><ele>139.83333333333334</ele><time>2026-04-02T09:48:38Z</time></trkpt><trkpt lat="45.368276400422374" lon="10.607717223810699"><ele>138.66666666666666</ele><time>2026-04-02T09:48:39Z</time></trkpt><trkpt lat="45.368348204102666" lon="10.607664384906775"><ele>137.5</ele><time>2026-04-02T09:48:40Z</time></trkpt><trkpt lat="45.36841231036932" lon="10.60758056815908"><ele>136.33333333333331</ele><time>2026-04-02T09:48:41Z</time></trkpt><trkpt lat="45.36847291658645" lon="10.607486535408679"><ele>135.16666666666666</ele><time>2026-04-02T09:48:42Z</time></trkpt><trkpt lat="45.368536068577605" lon="10.607393991396162"><ele>134.0</ele><time>2026-04-02T09:48:43Z</time></trkpt><trkpt lat="45.368593897647365" lon="10.607297624020005"><ele>134.0</ele><time>2026-04-02T09:48:44Z</time></trkpt><trkpt lat="45.36863845162298" lon="10.607192479832827"><ele>134.0</ele><time>2026-04-02T09:48:45Z</time></trkpt><trkpt lat="45.368679730657405" lon="10.607084825535795"><ele>134.0</ele><time>2026-04-02T09:48:46Z</time></trkpt><trkpt lat="45.368723198985336" lon="10.606992075159365"><ele>134.0</ele><time>2026-04-02T09:48:47Z</time></trkpt><trkpt lat="45.36876967247133" lon="10.606908994645158"><ele>134.0</ele><time>2026-04-02T09:48:48Z</time></trkpt><trkpt lat="45.3688111288786" lon="10.606841151449062"><ele>134.0</ele><time>2026-04-02T09:48:49Z</time></trkpt><trkpt lat="45.36891215428667" lon="10.60681000722144"><ele>132.0</ele><time>2026-04-02T09:48:51Z</time></trkpt><trkpt lat="45.36897542203862" lon="10.60682226720835"><ele>130.0</ele><time>2026-04-02T09:48:52Z</time></trkpt><trkpt lat="45.36903964496505" lon="10.60685228841099"><ele>128.0</ele><time>2026-04-02T09:48:53Z</time></trkpt><trkpt lat="45.36911490065565" lon="10.606906550144068"><ele>126.0</ele><time>2026-04-02T09:48:54Z</time></trkpt><trkpt lat="45.369187198320766" lon="10.60696940309844"><ele>123.99999999999999</ele><time>2026-04-02T09:48:55Z</time></trkpt><trkpt lat="45.369267507426805" lon="10.607041469949007"><ele>122.0</ele><time>2026-04-02T09:48:56Z</time></trkpt><trkpt lat="45.36934238583698" lon="10.607101443820465"><ele>122.0</ele><time>2026-04-02T09:48:57Z</time></trkpt><trkpt lat="45.369413750641996" lon="10.607142880084416"><ele>121.99999999999999</ele><time>2026-04-02T09:48:58Z</time></trkpt><trkpt lat="45.369479745056466" lon="10.607170348941267"><ele>121.99999999999999</ele><time>2026-04-02T09:48:59Z</time></trkpt><trkpt lat="45.369589397784615" lon="10.607199880053969"><ele>122.0</ele><time>2026-04-02T09:49:01Z</time></trkpt><trkpt lat="45.36966616227272" lon="10.60726236749663"><ele>122.0</ele><time>2026-04-02T09:49:03Z</time></trkpt><trkpt lat="45.36968093923479" lon="10.607455211993301"><ele>122.0</ele><time>2026-04-02T09:49:05Z</time></trkpt><trkpt lat="45.36968443173998" lon="10.607613327732102"><ele>121.99999999999999</ele><time>2026-04-02T09:49:06Z</time></trkpt><trkpt lat="45.36968515075235" lon="10.607752348439137"><ele>121.99999999999999</ele><time>2026-04-02T09:49:07Z</time></trkpt><trkpt lat="45.369689954192914" lon="10.6078788457808"><ele>122.0</ele><time>2026-04-02T09:49:08Z</time></trkpt><trkpt lat="45.36970868786521" lon="10.607980264379938"><ele>122.0</ele><time>2026-04-02T09:49:09Z</time></trkpt><trkpt lat="45.36974529730681" lon="10.608084201599913"><ele>122.39999999999999</ele><time>2026-04-02T09:49:10Z</time></trkpt><trkpt lat="45.369792325689005" lon="10.608186942207759"><ele>122.79999999999998</ele><time>2026-04-02T09:49:10.999Z</time></trkpt><trkpt lat="45.36983589791858" lon="10.608304043601615"><ele>123.2</ele><time>2026-04-02T09:49:11.999Z</time></trkpt><trkpt lat="45.369862056511664" lon="10.608432134624618"><ele>123.6</ele><time>2026-04-02T09:49:12.999Z</time></trkpt><trkpt lat="45.369870355222496" lon="10.608571684807382"><ele>124.0</ele><time>2026-04-02T09:49:13.999Z</time></trkpt><trkpt lat="45.36987245739931" lon="10.608717520296349"><ele>124.0</ele><time>2026-04-02T09:49:14.999Z</time></trkpt><trkpt lat="45.36987657661536" lon="10.608874678523893"><ele>124.0</ele><time>2026-04-02T09:49:15.999Z</time></trkpt><trkpt lat="45.3698868300351" lon="10.609039731477637"><ele>124.0</ele><time>2026-04-02T09:49:16.999Z</time></trkpt><trkpt lat="45.36990658148882" lon="10.609220032610446"><ele>124.0</ele><time>2026-04-02T09:49:17.999Z</time></trkpt><trkpt lat="45.369936884772656" lon="10.60940403234935"><ele>124.75</ele><time>2026-04-02T09:49:19Z</time></trkpt><trkpt lat="45.36997545584285" lon="10.609582838661114"><ele>125.5</ele><time>2026-04-02T09:49:20Z</time></trkpt><trkpt lat="45.37001619730227" lon="10.609742887695347"><ele>126.25</ele><time>2026-04-02T09:49:21Z</time></trkpt><trkpt lat="45.37005944892277" lon="10.609898789350504"><ele>127.0</ele><time>2026-04-02T09:49:22Z</time></trkpt><trkpt lat="45.37009076952653" lon="10.610016642424046"><ele>127.0</ele><time>2026-04-02T09:49:23Z</time></trkpt><trkpt lat="45.37011626867067" lon="10.610154896841316"><ele>126.99999999999999</ele><time>2026-04-02T09:49:25Z</time></trkpt><trkpt lat="45.37025867094592" lon="10.610164556248163"><ele>126.99999999999999</ele><time>2026-04-02T09:51:54.999Z</time></trkpt><trkpt lat="45.37033181825713" lon="10.61013223362658"><ele>127.0</ele><time>2026-04-02T09:51:55.999Z</time></trkpt><trkpt lat="45.370418986754615" lon="10.610115109910474"><ele>127.0</ele><time>2026-04-02T09:51:56.999Z</time></trkpt><trkpt lat="45.37051046872886" lon="10.610137283148521"><ele>126.16666666666667</ele><time>2026-04-02T09:51:57.999Z</time></trkpt><trkpt lat="45.37060284092575" lon="10.610125504849092"><ele>125.33333333333334</ele><time>2026-04-02T09:51:58.999Z</time></trkpt><trkpt lat="45.37068606487002" lon="10.610068478756622"><ele>124.5</ele><time>2026-04-02T09:51:59.999Z</time></trkpt><trkpt lat="45.37076657530372" lon="10.610044152579887"><ele>123.66666666666666</ele><time>2026-04-02T09:52:00.999Z</time></trkpt><trkpt lat="45.37083642394369" lon="10.610012103145587"><ele>122.83333333333333</ele><time>2026-04-02T09:52:01.999Z</time></trkpt><trkpt lat="45.370903580671644" lon="10.609963174451073"><ele>122.0</ele><time>2026-04-02T09:52:02.999Z</time></trkpt><trkpt lat="45.37098149420894" lon="10.60989961865974"><ele>122.0</ele><time>2026-04-02T09:52:03.999Z</time></trkpt><trkpt lat="45.371062542220294" lon="10.609825695003622"><ele>121.99999999999999</ele><time>2026-04-02T09:52:04.999Z</time></trkpt><trkpt lat="45.37114466220229" lon="10.60975103115537"><ele>121.99999999999999</ele><time>2026-04-02T09:52:05.999Z</time></trkpt><trkpt lat="45.371236108526396" lon="10.609687405703067"><ele>122.0</ele><time>2026-04-02T09:52:06.999Z</time></trkpt><trkpt lat="45.37133657672913" lon="10.609632145581083"><ele>122.0</ele><time>2026-04-02T09:52:07.999Z</time></trkpt><trkpt lat="45.37143927883863" lon="10.609583839903491"><ele>121.6</ele><time>2026-04-02T09:52:08.999Z</time></trkpt><trkpt lat="45.37154643563607" lon="10.609551717848387"><ele>121.19999999999999</ele><time>2026-04-02T09:52:09.999Z</time></trkpt><trkpt lat="45.37165745763005" lon="10.609536265344493"><ele>120.8</ele><time>2026-04-02T09:52:10.999Z</time></trkpt><trkpt lat="45.37176730472878" lon="10.609518766081031"><ele>120.4</ele><time>2026-04-02T09:52:11.999Z</time></trkpt><trkpt lat="45.37187610816701" lon="10.609486791806168"><ele>120.0</ele><time>2026-04-02T09:52:12.999Z</time></trkpt><trkpt lat="45.37198278809346" lon="10.609435763278826"><ele>119.75</ele><time>2026-04-02T09:52:13.999Z</time></trkpt><trkpt lat="45.37208677823257" lon="10.60935602408998"><ele>119.5</ele><time>2026-04-02T09:52:14.999Z</time></trkpt><trkpt lat="45.37218655425281" lon="10.609239528453477"><ele>119.25</ele><time>2026-04-02T09:52:15.999Z</time></trkpt><trkpt lat="45.372280334437235" lon="10.609111756616183"><ele>119.0</ele><time>2026-04-02T09:52:16.999Z</time></trkpt><trkpt lat="45.37236937336961" lon="10.609002330334393"><ele>119.25</ele><time>2026-04-02T09:52:17.999Z</time></trkpt><trkpt lat="45.37245766604464" lon="10.608891381306819"><ele>119.5</ele><time>2026-04-02T09:52:18.999Z</time></trkpt><trkpt lat="45.3725441593847" lon="10.608778580919365"><ele>119.75</ele><time>2026-04-02T09:52:19.999Z</time></trkpt><trkpt lat="45.37263033295461" lon="10.608661118862004"><ele>120.0</ele><time>2026-04-02T09:52:20.999Z</time></trkpt><trkpt lat="45.3727186613374" lon="10.608546449499176"><ele>120.0</ele><time>2026-04-02T09:52:21.999Z</time></trkpt><trkpt lat="45.372802445960396" lon="10.608430095720928"><ele>120.0</ele><time>2026-04-02T09:52:22.999Z</time></trkpt><trkpt lat="45.37288752115045" lon="10.608316519843438"><ele>120.0</ele><time>2026-04-02T09:52:23.999Z</time></trkpt><trkpt lat="45.37298168972171" lon="10.608228273298344"><ele>120.0</ele><time>2026-04-02T09:52:24.999Z</time></trkpt><trkpt lat="45.373084535704805" lon="10.60816734284947"><ele>120.0</ele><time>2026-04-02T09:52:25.999Z</time></trkpt><trkpt lat="45.37319815529878" lon="10.60813492177127"><ele>120.0</ele><time>2026-04-02T09:52:26.999Z</time></trkpt><trkpt lat="45.37332068648724" lon="10.608112497131437"><ele>120.0</ele><time>2026-04-02T09:52:27.999Z</time></trkpt><trkpt lat="45.373459193872385" lon="10.608075803110177"><ele>120.0</ele><time>2026-04-02T09:52:28.999Z</time></trkpt><trkpt lat="45.37362643417045" lon="10.60802862804745"><ele>120.0</ele><time>2026-04-02T09:52:29.999Z</time></trkpt><trkpt lat="45.373836387083166" lon="10.608008075909126"><ele>120.0</ele><time>2026-04-02T09:52:30.999Z</time></trkpt><trkpt lat="45.374063824289024" lon="10.607959009794477"><ele>120.0</ele><time>2026-04-02T09:52:31.999Z</time></trkpt><trkpt lat="45.37426189037678" lon="10.607895649947006"><ele>119.75</ele><time>2026-04-02T09:52:32.999Z</time></trkpt><trkpt lat="45.37438628389132" lon="10.60786627205295"><ele>119.5</ele><time>2026-04-02T09:52:33.999Z</time></trkpt><trkpt lat="45.374519018031705" lon="10.607859832796143"><ele>119.25</ele><time>2026-04-02T09:52:34.999Z</time></trkpt><trkpt lat="45.37464450235022" lon="10.607830825882123"><ele>119.0</ele><time>2026-04-02T09:52:35.999Z</time></trkpt><trkpt lat="45.37475195126014" lon="10.607791917370893"><ele>119.0</ele><time>2026-04-02T09:52:36.999Z</time></trkpt><trkpt lat="45.37484189803171" lon="10.607755640414728"><ele>119.0</ele><time>2026-04-02T09:52:37.999Z</time></trkpt><trkpt lat="45.374903575144586" lon="10.607676461677935"><ele>119.0</ele><time>2026-04-02T09:52:38.999Z</time></trkpt><trkpt lat="45.37498951347512" lon="10.607610073506788"><ele>119.0</ele><time>2026-04-02T09:52:39.999Z</time></trkpt><trkpt lat="45.375128414904154" lon="10.607592736273523"><ele>119.0</ele><time>2026-04-02T09:52:40.999Z</time></trkpt><trkpt lat="45.37517308690038" lon="10.607486498542412"><ele>119.0</ele><time>2026-04-02T09:52:41.999Z</time></trkpt><trkpt lat="45.375259745196864" lon="10.607435677222464"><ele>119.0</ele><time>2026-04-02T09:52:42.999Z</time></trkpt><trkpt lat="45.37554241662353" lon="10.607841303159324"><ele>117.75</ele><time>2026-04-02T09:52:43.999Z</time></trkpt><trkpt lat="45.375659840694254" lon="10.607869380886592"><ele>116.5</ele><time>2026-04-02T09:52:44.999Z</time></trkpt><trkpt lat="45.37576345834938" lon="10.607916868661095"><ele>115.25</ele><time>2026-04-02T09:52:45.999Z</time></trkpt><trkpt lat="45.37585847684236" lon="10.608001537916357"><ele>114.0</ele><time>2026-04-02T09:52:46.999Z</time></trkpt><trkpt lat="45.375950511536104" lon="10.608123732531544"><ele>114.0</ele><time>2026-04-02T09:52:47.999Z</time></trkpt><trkpt lat="45.376041282573084" lon="10.608237154935905"><ele>114.0</ele><time>2026-04-02T09:52:48.999Z</time></trkpt><trkpt lat="45.37612177491933" lon="10.608320982227227"><ele>114.0</ele><time>2026-04-02T09:52:49.999Z</time></trkpt><trkpt lat="45.376199440222614" lon="10.608372523876557"><ele>114.0</ele><time>2026-04-02T09:52:50.999Z</time></trkpt><trkpt lat="45.37629248703047" lon="10.608420670851052"><ele>114.0</ele><time>2026-04-02T09:52:51.999Z</time></trkpt><trkpt lat="45.37638184467465" lon="10.608438239330004"><ele>114.33333333333333</ele><time>2026-04-02T09:52:52.999Z</time></trkpt><trkpt lat="45.376469427034635" lon="10.608451289179627"><ele>114.66666666666666</ele><time>2026-04-02T09:52:53.999Z</time></trkpt><trkpt lat="45.37654946411488" lon="10.608466472213909"><ele>115.0</ele><time>2026-04-02T09:52:54.999Z</time></trkpt><trkpt lat="45.376613719252056" lon="10.608502385364272"><ele>115.33333333333333</ele><time>2026-04-02T09:52:55.999Z</time></trkpt><trkpt lat="45.3766568615627" lon="10.60857210057107"><ele>115.66666666666666</ele><time>2026-04-02T09:52:56.999Z</time></trkpt><trkpt lat="45.37668558534091" lon="10.608688828978494"><ele>116.0</ele><time>2026-04-02T09:52:57.999Z</time></trkpt><trkpt lat="45.37673247298541" lon="10.608844422315558"><ele>116.0</ele><time>2026-04-02T09:52:58.999Z</time></trkpt><trkpt lat="45.37681842617362" lon="10.608986143596248"><ele>116.0</ele><time>2026-04-02T09:52:59.999Z</time></trkpt><trkpt lat="45.37691155192121" lon="10.609115144935524"><ele>116.0</ele><time>2026-04-02T09:53:00.999Z</time></trkpt><trkpt lat="45.37700134056581" lon="10.609230821022896"><ele>116.0</ele><time>2026-04-02T09:53:01.999Z</time></trkpt><trkpt lat="45.37709951877439" lon="10.609330304274728"><ele>118.4</ele><time>2026-04-02T09:53:02.999Z</time></trkpt><trkpt lat="45.37719100195113" lon="10.609435199183912"><ele>120.8</ele><time>2026-04-02T09:53:03.999Z</time></trkpt><trkpt lat="45.37727377316866" lon="10.609555162693642"><ele>123.20000000000002</ele><time>2026-04-02T09:53:04.999Z</time></trkpt><trkpt lat="45.377363405165035" lon="10.609639661288243"><ele>125.60000000000001</ele><time>2026-04-02T09:53:05.999Z</time></trkpt><trkpt lat="45.37741170901457" lon="10.609702779077056"><ele>128.0</ele><time>2026-04-02T09:53:07.999Z</time></trkpt><trkpt lat="45.37739903350958" lon="10.609810435933078"><ele>128.0</ele><time>2026-04-02T09:53:09.999Z</time></trkpt><trkpt lat="45.377401182302044" lon="10.609903429047767"><ele>128.0</ele><time>2026-04-02T09:53:10.999Z</time></trkpt><trkpt lat="45.377424142393004" lon="10.610035936736422"><ele>128.0</ele><time>2026-04-02T09:53:11.999Z</time></trkpt><trkpt lat="45.37743715516993" lon="10.610197768739372"><ele>128.0</ele><time>2026-04-02T09:53:12.999Z</time></trkpt><trkpt lat="45.37744320502796" lon="10.61037588272358"><ele>128.0</ele><time>2026-04-02T09:53:13.999Z</time></trkpt><trkpt lat="45.37745194609612" lon="10.610570005092839"><ele>128.0</ele><time>2026-04-02T09:53:14.999Z</time></trkpt><trkpt lat="45.3774638390428" lon="10.610759065278804"><ele>128.0</ele><time>2026-04-02T09:53:15.999Z</time></trkpt><trkpt lat="45.37747050719758" lon="10.6109375000685"><ele>128.0</ele><time>2026-04-02T09:53:16.999Z</time></trkpt><trkpt lat="45.37745374589662" lon="10.611113827750362"><ele>128.0</ele><time>2026-04-02T09:53:17.999Z</time></trkpt><trkpt lat="45.377433001800306" lon="10.61127644269828"><ele>126.80000000000001</ele><time>2026-04-02T09:53:18.999Z</time></trkpt><trkpt lat="45.377402042839755" lon="10.611418337402409"><ele>125.60000000000001</ele><time>2026-04-02T09:53:19.999Z</time></trkpt><trkpt lat="45.37736055516901" lon="10.611552316406582"><ele>124.39999999999999</ele><time>2026-04-02T09:53:20.999Z</time></trkpt><trkpt lat="45.37732495935874" lon="10.611691266801618"><ele>123.19999999999999</ele><time>2026-04-02T09:53:21.999Z</time></trkpt><trkpt lat="45.3772947010271" lon="10.611828410234368"><ele>122.0</ele><time>2026-04-02T09:53:22.999Z</time></trkpt><trkpt lat="45.377263866689965" lon="10.61196429945092"><ele>121.0</ele><time>2026-04-02T09:53:23.999Z</time></trkpt><trkpt lat="45.37723388196952" lon="10.612118399437644"><ele>119.99999999999999</ele><time>2026-04-02T09:53:24.999Z</time></trkpt><trkpt lat="45.37720801862981" lon="10.612287715812013"><ele>118.99999999999999</ele><time>2026-04-02T09:53:25.999Z</time></trkpt><trkpt lat="45.37717734633002" lon="10.612424886287027"><ele>118.0</ele><time>2026-04-02T09:53:26.999Z</time></trkpt><trkpt lat="45.37714050403842" lon="10.612544861433802"><ele>117.0</ele><time>2026-04-02T09:53:27.999Z</time></trkpt><trkpt lat="45.377098219519546" lon="10.61267313892718"><ele>117.0</ele><time>2026-04-02T09:53:28.999Z</time></trkpt><trkpt lat="45.37706718173342" lon="10.61276085217356"><ele>117.00000000000001</ele><time>2026-04-02T09:53:29.999Z</time></trkpt><trkpt lat="45.37710226897909" lon="10.61283888804789"><ele>117.0</ele><time>2026-04-02T09:53:39Z</time></trkpt><trkpt lat="45.377168519763444" lon="10.612788365276892"><ele>117.0</ele><time>2026-04-02T09:53:41Z</time></trkpt><trkpt lat="45.37724240081876" lon="10.61270794116969"><ele>117.00000000000001</ele><time>2026-04-02T09:53:43Z</time></trkpt><trkpt lat="45.377303395649335" lon="10.612636703394616"><ele>117.0</ele><time>2026-04-02T09:56:38.999Z</time></trkpt><trkpt lat="45.37735551081507" lon="10.612585647087966"><ele>117.0</ele><time>2026-04-02T09:57:27.999Z</time></trkpt><trkpt lat="45.377294388085" lon="10.612609701544763"><ele>117.0</ele><time>2026-04-02T09:58:45Z</time></trkpt><trkpt lat="45.37723714431184" lon="10.612682898332956"><ele>116.99999999999999</ele><time>2026-04-02T09:59:12.999Z</time></trkpt><trkpt lat="45.3773054782915" lon="10.6126105037438"><ele>116.99999999999999</ele><time>2026-04-02T10:08:36Z</time></trkpt><trkpt lat="45.37739908107658" lon="10.612506864722349"><ele>117.0</ele><time>2026-04-02T10:08:38Z</time></trkpt><trkpt lat="45.37750574882572" lon="10.612483089619527"><ele>117.0</ele><time>2026-04-02T10:08:40Z</time></trkpt><trkpt lat="45.37758097099266" lon="10.612601892289815"><ele>117.0</ele><time>2026-04-02T10:08:42Z</time></trkpt><trkpt lat="45.37760524465484" lon="10.612703130441394"><ele>117.0</ele><time>2026-04-02T10:08:43Z</time></trkpt><trkpt lat="45.37762763570775" lon="10.61281305212938"><ele>117.0</ele><time>2026-04-02T10:08:44Z</time></trkpt><trkpt lat="45.37764943468667" lon="10.612931945232347"><ele>117.0</ele><time>2026-04-02T10:08:45Z</time></trkpt><trkpt lat="45.37766890052798" lon="10.613060045055029"><ele>117.0</ele><time>2026-04-02T10:08:46Z</time></trkpt><trkpt lat="45.37769088044626" lon="10.61321071550054"><ele>117.0</ele><time>2026-04-02T10:08:47Z</time></trkpt><trkpt lat="45.37770180594151" lon="10.613367063136758"><ele>116.5</ele><time>2026-04-02T10:08:48Z</time></trkpt><trkpt lat="45.377709113716094" lon="10.613498995943711"><ele>116.0</ele><time>2026-04-02T10:08:49Z</time></trkpt><trkpt lat="45.37773562013623" lon="10.613610315089218"><ele>115.5</ele><time>2026-04-02T10:08:50Z</time></trkpt><trkpt lat="45.377789598074656" lon="10.613710061504499"><ele>115.0</ele><time>2026-04-02T10:08:51Z</time></trkpt><trkpt lat="45.37784925460234" lon="10.613809213867874"><ele>114.5</ele><time>2026-04-02T10:08:52Z</time></trkpt><trkpt lat="45.37791991939257" lon="10.613894684544865"><ele>114.0</ele><time>2026-04-02T10:08:53Z</time></trkpt><trkpt lat="45.37799935716029" lon="10.613964159713309"><ele>113.4</ele><time>2026-04-02T10:08:54Z</time></trkpt><trkpt lat="45.37809103117314" lon="10.614005705792358"><ele>112.80000000000001</ele><time>2026-04-02T10:08:55Z</time></trkpt><trkpt lat="45.378188408236895" lon="10.614034845283172"><ele>112.19999999999999</ele><time>2026-04-02T10:08:56Z</time></trkpt><trkpt lat="45.37829011387613" lon="10.614059100510735"><ele>111.6</ele><time>2026-04-02T10:08:57Z</time></trkpt><trkpt lat="45.37839355174117" lon="10.61408524737155"><ele>111.0</ele><time>2026-04-02T10:08:58Z</time></trkpt><trkpt lat="45.378477500577084" lon="10.614118089538515"><ele>111.0</ele><time>2026-04-02T10:08:59Z</time></trkpt><trkpt lat="45.378548877770065" lon="10.614143987976185"><ele>111.0</ele><time>2026-04-02T10:09:00Z</time></trkpt><trkpt lat="45.37862392646576" lon="10.61417377472146"><ele>111.0</ele><time>2026-04-02T10:09:01Z</time></trkpt><trkpt lat="45.378700420369526" lon="10.614203739438253"><ele>111.0</ele><time>2026-04-02T10:09:02Z</time></trkpt><trkpt lat="45.37877778817122" lon="10.61423421183992"><ele>111.0</ele><time>2026-04-02T10:09:03Z</time></trkpt><trkpt lat="45.37885711365418" lon="10.614264208725807"><ele>111.0</ele><time>2026-04-02T10:09:04Z</time></trkpt><trkpt lat="45.37894048343111" lon="10.61429460500192"><ele>111.5</ele><time>2026-04-02T10:09:05Z</time></trkpt><trkpt lat="45.37901977060737" lon="10.614328657000671"><ele>112.0</ele><time>2026-04-02T10:09:06Z</time></trkpt><trkpt lat="45.3790991937199" lon="10.614364634856459"><ele>112.5</ele><time>2026-04-02T10:09:07Z</time></trkpt><trkpt lat="45.37918110830726" lon="10.614393333326037"><ele>113.0</ele><time>2026-04-02T10:09:08Z</time></trkpt><trkpt lat="45.37926910904048" lon="10.614421130168276"><ele>113.5</ele><time>2026-04-02T10:09:09Z</time></trkpt><trkpt lat="45.37936520468243" lon="10.61445410628647"><ele>114.0</ele><time>2026-04-02T10:09:10Z</time></trkpt><trkpt lat="45.37945941789674" lon="10.61448260126285"><ele>114.16666666666667</ele><time>2026-04-02T10:09:11Z</time></trkpt><trkpt lat="45.37954212055064" lon="10.61450318338067"><ele>114.33333333333334</ele><time>2026-04-02T10:09:12Z</time></trkpt><trkpt lat="45.379613486427615" lon="10.614507857904536"><ele>114.5</ele><time>2026-04-02T10:09:13Z</time></trkpt><trkpt lat="45.37968667551448" lon="10.61449933275788"><ele>114.66666666666667</ele><time>2026-04-02T10:09:14Z</time></trkpt><trkpt lat="45.37975444178847" lon="10.614497036374773"><ele>114.83333333333334</ele><time>2026-04-02T10:09:15Z</time></trkpt><trkpt lat="45.37985652882784" lon="10.614479345453308"><ele>115.0</ele><time>2026-04-02T10:09:17Z</time></trkpt><trkpt lat="45.379857946101" lon="10.614727657207476"><ele>114.50000000000001</ele><time>2026-04-02T10:09:24Z</time></trkpt><trkpt lat="45.379821605196604" lon="10.614821144082292"><ele>114.0</ele><time>2026-04-02T10:09:25Z</time></trkpt><trkpt lat="45.37977965670252" lon="10.614922827549291"><ele>113.5</ele><time>2026-04-02T10:09:26Z</time></trkpt><trkpt lat="45.379731302488274" lon="10.615027860760902"><ele>113.0</ele><time>2026-04-02T10:09:27Z</time></trkpt><trkpt lat="45.37968474353577" lon="10.61513370727582"><ele>112.50000000000001</ele><time>2026-04-02T10:09:28Z</time></trkpt><trkpt lat="45.379639213899566" lon="10.615237154776672"><ele>112.0</ele><time>2026-04-02T10:09:29Z</time></trkpt><trkpt lat="45.379595024158256" lon="10.615336255535544"><ele>111.83333333333334</ele><time>2026-04-02T10:09:30Z</time></trkpt><trkpt lat="45.379552688980155" lon="10.615427272545022"><ele>111.66666666666667</ele><time>2026-04-02T10:09:31Z</time></trkpt><trkpt lat="45.37950614218695" lon="10.615513717143346"><ele>111.5</ele><time>2026-04-02T10:09:32Z</time></trkpt><trkpt lat="45.37946095456912" lon="10.615593187196986"><ele>111.33333333333334</ele><time>2026-04-02T10:09:33Z</time></trkpt><trkpt lat="45.37941387167587" lon="10.615682071905365"><ele>111.16666666666667</ele><time>2026-04-02T10:09:35Z</time></trkpt><trkpt lat="45.379357178133795" lon="10.615751898043479"><ele>111.0</ele><time>2026-04-02T10:09:38Z</time></trkpt><trkpt lat="45.37926058243016" lon="10.615737257193791"><ele>111.0</ele><time>2026-04-02T10:09:41Z</time></trkpt><trkpt lat="45.37920772118817" lon="10.61568224205528"><ele>111.0</ele><time>2026-04-02T10:09:42Z</time></trkpt><trkpt lat="45.37916081332045" lon="10.615614900197444"><ele>111.0</ele><time>2026-04-02T10:09:43Z</time></trkpt><trkpt lat="45.37910895578497" lon="10.615549840651056"><ele>111.0</ele><time>2026-04-02T10:09:44Z</time></trkpt><trkpt lat="45.37905727918173" lon="10.615460744236255"><ele>111.0</ele><time>2026-04-02T10:09:45Z</time></trkpt><trkpt lat="45.37897605560725" lon="10.615443469767332"><ele>111.0</ele><time>2026-04-02T10:09:46Z</time></trkpt><trkpt lat="45.3788999577589" lon="10.615418249972736"><ele>111.0</ele><time>2026-04-02T10:09:47Z</time></trkpt><trkpt lat="45.378819877216465" lon="10.61542738473058"><ele>111.16666666666667</ele><time>2026-04-02T10:09:48Z</time></trkpt><trkpt lat="45.37874096108227" lon="10.615461999510577"><ele>111.33333333333334</ele><time>2026-04-02T10:09:49Z</time></trkpt><trkpt lat="45.37867145589115" lon="10.61552581675541"><ele>111.5</ele><time>2026-04-02T10:09:50Z</time></trkpt><trkpt lat="45.37861127983978" lon="10.615629023698801"><ele>111.66666666666667</ele><time>2026-04-02T10:09:51Z</time></trkpt><trkpt lat="45.378547822513546" lon="10.615730118219027"><ele>111.83333333333334</ele><time>2026-04-02T10:09:52Z</time></trkpt><trkpt lat="45.37848664654167" lon="10.615828594626283"><ele>112.0</ele><time>2026-04-02T10:09:53Z</time></trkpt><trkpt lat="45.37842212338723" lon="10.615932388108844"><ele>112.0</ele><time>2026-04-02T10:09:54Z</time></trkpt><trkpt lat="45.37835454669472" lon="10.616033142592984"><ele>111.99999999999999</ele><time>2026-04-02T10:09:55Z</time></trkpt><trkpt lat="45.378283471303845" lon="10.616141176646783"><ele>111.99999999999999</ele><time>2026-04-02T10:09:56Z</time></trkpt><trkpt lat="45.378210718801924" lon="10.616255827703199"><ele>112.0</ele><time>2026-04-02T10:09:57Z</time></trkpt><trkpt lat="45.378135235888124" lon="10.616367613053312"><ele>112.0</ele><time>2026-04-02T10:09:58Z</time></trkpt><trkpt lat="45.37804765783737" lon="10.61646971973609"><ele>113.75</ele><time>2026-04-02T10:09:59Z</time></trkpt><trkpt lat="45.37794785791472" lon="10.616546406608148"><ele>115.5</ele><time>2026-04-02T10:10:00Z</time></trkpt><trkpt lat="45.37783009882276" lon="10.616496926748958"><ele>117.25</ele><time>2026-04-02T10:10:01Z</time></trkpt><trkpt lat="45.3777076414969" lon="10.61645477451982"><ele>119.0</ele><time>2026-04-02T10:10:02Z</time></trkpt><trkpt lat="45.3775763597309" lon="10.616399974304048"><ele>119.0</ele><time>2026-04-02T10:10:03Z</time></trkpt><trkpt lat="45.37746853700129" lon="10.61635588766895"><ele>119.0</ele><time>2026-04-02T10:10:04Z</time></trkpt><trkpt lat="45.37736333501466" lon="10.616313932787778"><ele>119.0</ele><time>2026-04-02T10:10:05Z</time></trkpt><trkpt lat="45.37725427224051" lon="10.616274201662911"><ele>119.0</ele><time>2026-04-02T10:10:06Z</time></trkpt><trkpt lat="45.3771437178912" lon="10.61623949049892"><ele>119.0</ele><time>2026-04-02T10:10:07Z</time></trkpt><trkpt lat="45.37703715201995" lon="10.616210488194865"><ele>119.0</ele><time>2026-04-02T10:10:08Z</time></trkpt><trkpt lat="45.37692873148744" lon="10.616182555881622"><ele>119.0</ele><time>2026-04-02T10:10:09Z</time></trkpt><trkpt lat="45.376821469406785" lon="10.616182415624746"><ele>119.0</ele><time>2026-04-02T10:10:10Z</time></trkpt><trkpt lat="45.37671853194991" lon="10.616168572289961"><ele>119.0</ele><time>2026-04-02T10:10:11Z</time></trkpt><trkpt lat="45.3766186282407" lon="10.61617612023112"><ele>119.0</ele><time>2026-04-02T10:10:12Z</time></trkpt><trkpt lat="45.37651408663659" lon="10.61621267899024"><ele>118.99999999999999</ele><time>2026-04-02T10:10:13Z</time></trkpt><trkpt lat="45.376411322610984" lon="10.616257093156335"><ele>119.0</ele><time>2026-04-02T10:10:14Z</time></trkpt><trkpt lat="45.376306713717085" lon="10.616304032827244"><ele>119.0</ele><time>2026-04-02T10:10:15Z</time></trkpt><trkpt lat="45.376220566640285" lon="10.616342192628192"><ele>119.0</ele><time>2026-04-02T10:10:16Z</time></trkpt><trkpt lat="45.37614971343905" lon="10.61636701235776"><ele>118.99999999999999</ele><time>2026-04-02T10:10:17Z</time></trkpt><trkpt lat="45.37608726163671" lon="10.616386151548951"><ele>119.0</ele><time>2026-04-02T10:10:18Z</time></trkpt><trkpt lat="45.37601329030923" lon="10.616408534232757"><ele>118.71428571428572</ele><time>2026-04-02T10:10:20Z</time></trkpt><trkpt lat="45.375934889862535" lon="10.61644522551273"><ele>118.42857142857143</ele><time>2026-04-02T10:10:23Z</time></trkpt><trkpt lat="45.375873223774256" lon="10.616493136329868"><ele>118.14285714285714</ele><time>2026-04-02T10:10:27Z</time></trkpt><trkpt lat="45.37583461252672" lon="10.616566313399447"><ele>117.85714285714286</ele><time>2026-04-02T10:10:29Z</time></trkpt><trkpt lat="45.375897176795476" lon="10.616493056974566"><ele>117.57142857142858</ele><time>2026-04-02T10:10:51Z</time></trkpt><trkpt lat="45.37594328179539" lon="10.61641168162565"><ele>117.28571428571429</ele><time>2026-04-02T10:10:54Z</time></trkpt><trkpt lat="45.37601275694885" lon="10.616420435852685"><ele>117.0</ele><time>2026-04-02T10:10:56Z</time></trkpt><trkpt lat="45.375939709608836" lon="10.616419285290442"><ele>117.0</ele><time>2026-04-02T10:11:00Z</time></trkpt><trkpt lat="45.37588720230704" lon="10.616472009384992"><ele>116.99999999999999</ele><time>2026-04-02T10:11:07Z</time></trkpt><trkpt lat="45.375766438472716" lon="10.616265668864921"><ele>116.99999999999999</ele><time>2026-04-02T10:11:13Z</time></trkpt><trkpt lat="45.375707383185954" lon="10.616214997544187"><ele>117.0</ele><time>2026-04-02T10:11:14Z</time></trkpt><trkpt lat="45.375627577617045" lon="10.616146608469217"><ele>117.0</ele><time>2026-04-02T10:11:15Z</time></trkpt><trkpt lat="45.37553005069626" lon="10.616063761139428"><ele>116.5</ele><time>2026-04-02T10:11:16Z</time></trkpt><trkpt lat="45.37543495234535" lon="10.615982641868975"><ele>116.0</ele><time>2026-04-02T10:11:17Z</time></trkpt><trkpt lat="45.37533740786881" lon="10.615897993567364"><ele>115.5</ele><time>2026-04-02T10:11:18Z</time></trkpt><trkpt lat="45.375239721574" lon="10.615814531238986"><ele>115.0</ele><time>2026-04-02T10:11:19Z</time></trkpt><trkpt lat="45.37513798326341" lon="10.615727630031204"><ele>115.0</ele><time>2026-04-02T10:11:20Z</time></trkpt><trkpt lat="45.37503263766188" lon="10.61563816128544"><ele>115.0</ele><time>2026-04-02T10:11:21Z</time></trkpt><trkpt lat="45.3749262303368" lon="10.615550445723326"><ele>115.0</ele><time>2026-04-02T10:11:22Z</time></trkpt><trkpt lat="45.374815388649445" lon="10.615459074771469"><ele>115.0</ele><time>2026-04-02T10:11:23Z</time></trkpt><trkpt lat="45.37469869295581" lon="10.615362877999685"><ele>114.75</ele><time>2026-04-02T10:11:24Z</time></trkpt><trkpt lat="45.37457483272477" lon="10.615260777048302"><ele>114.5</ele><time>2026-04-02T10:11:25Z</time></trkpt><trkpt lat="45.37445163018218" lon="10.615157231737456"><ele>114.25</ele><time>2026-04-02T10:11:26Z</time></trkpt><trkpt lat="45.37432703543414" lon="10.615052134348518"><ele>114.0</ele><time>2026-04-02T10:11:27Z</time></trkpt><trkpt lat="45.37420059492308" lon="10.614945480039204"><ele>114.0</ele><time>2026-04-02T10:11:28Z</time></trkpt><trkpt lat="45.37407184888412" lon="10.614836880979691"><ele>114.0</ele><time>2026-04-02T10:11:29Z</time></trkpt><trkpt lat="45.373939824099864" lon="10.614725516259186"><ele>114.0</ele><time>2026-04-02T10:11:30Z</time></trkpt><trkpt lat="45.37380730944944" lon="10.614619781788425"><ele>113.75</ele><time>2026-04-02T10:11:31Z</time></trkpt><trkpt lat="45.373681911882024" lon="10.614533799484233"><ele>113.5</ele><time>2026-04-02T10:11:32Z</time></trkpt><trkpt lat="45.3735530322931" lon="10.614479285823005"><ele>113.25</ele><time>2026-04-02T10:11:33Z</time></trkpt><trkpt lat="45.37342277243911" lon="10.614425653666473"><ele>113.0</ele><time>2026-04-02T10:11:34Z</time></trkpt><trkpt lat="45.37328147071977" lon="10.614389310792008"><ele>113.0</ele><time>2026-04-02T10:11:35Z</time></trkpt><trkpt lat="45.373144918526904" lon="10.614360816533509"><ele>113.0</ele><time>2026-04-02T10:11:36Z</time></trkpt><trkpt lat="45.37300439584702" lon="10.614351326804572"><ele>113.0</ele><time>2026-04-02T10:11:37Z</time></trkpt><trkpt lat="45.372865545755275" lon="10.6143530155955"><ele>113.0</ele><time>2026-04-02T10:11:38Z</time></trkpt><trkpt lat="45.37272617892685" lon="10.614357559233813"><ele>113.0</ele><time>2026-04-02T10:11:39Z</time></trkpt><trkpt lat="45.37258836215348" lon="10.614360703560152"><ele>113.0</ele><time>2026-04-02T10:11:40Z</time></trkpt><trkpt lat="45.37245729649318" lon="10.614354826873157"><ele>113.0</ele><time>2026-04-02T10:11:41Z</time></trkpt><trkpt lat="45.37234292249742" lon="10.614297843854887"><ele>113.0</ele><time>2026-04-02T10:11:42Z</time></trkpt><trkpt lat="45.37223329361867" lon="10.614232678681079"><ele>113.25</ele><time>2026-04-02T10:11:43Z</time></trkpt><trkpt lat="45.3721195655848" lon="10.614146276340596"><ele>113.5</ele><time>2026-04-02T10:11:44Z</time></trkpt><trkpt lat="45.371997337583615" lon="10.614045171640717"><ele>113.75</ele><time>2026-04-02T10:11:45Z</time></trkpt><trkpt lat="45.37187280498777" lon="10.613943199544455"><ele>114.0</ele><time>2026-04-02T10:11:46Z</time></trkpt><trkpt lat="45.371748041781956" lon="10.613842424896118"><ele>114.0</ele><time>2026-04-02T10:11:47Z</time></trkpt><trkpt lat="45.3716230600775" lon="10.613741473776507"><ele>114.0</ele><time>2026-04-02T10:11:48Z</time></trkpt><trkpt lat="45.371497972596586" lon="10.613640437204477"><ele>114.0</ele><time>2026-04-02T10:11:49Z</time></trkpt><trkpt lat="45.371373027871584" lon="10.613538364006306"><ele>114.0</ele><time>2026-04-02T10:11:50Z</time></trkpt><trkpt lat="45.37125015658853" lon="10.613437726650206"><ele>114.25</ele><time>2026-04-02T10:11:51Z</time></trkpt><trkpt lat="45.37112848677604" lon="10.613338816155084"><ele>114.5</ele><time>2026-04-02T10:11:52Z</time></trkpt><trkpt lat="45.37101083967903" lon="10.613245292134957"><ele>114.75</ele><time>2026-04-02T10:11:53Z</time></trkpt><trkpt lat="45.370909640625634" lon="10.61316484355301"><ele>115.0</ele><time>2026-04-02T10:11:54Z</time></trkpt><trkpt lat="45.370823050868886" lon="10.613093907461183"><ele>115.00000000000001</ele><time>2026-04-02T10:11:55Z</time></trkpt><trkpt lat="45.370746352090315" lon="10.613032962810122"><ele>115.0</ele><time>2026-04-02T10:11:56Z</time></trkpt><trkpt lat="45.370680229823144" lon="10.612985510351281"><ele>115.0</ele><time>2026-04-02T10:11:57Z</time></trkpt><trkpt lat="45.37061217929688" lon="10.612967369912832"><ele>115.0</ele><time>2026-04-02T10:11:58Z</time></trkpt><trkpt lat="45.37056619847418" lon="10.612893472531033"><ele>115.00000000000001</ele><time>2026-04-02T10:11:59Z</time></trkpt><trkpt lat="45.370591727589684" lon="10.612774721955002"><ele>115.0</ele><time>2026-04-02T10:12:00Z</time></trkpt><trkpt lat="45.37058475815541" lon="10.612665564841524"><ele>115.83333333333334</ele><time>2026-04-02T10:12:01Z</time></trkpt><trkpt lat="45.370581355706" lon="10.612562274520881"><ele>116.66666666666667</ele><time>2026-04-02T10:12:02Z</time></trkpt><trkpt lat="45.370586860799655" lon="10.612468779951369"><ele>117.5</ele><time>2026-04-02T10:12:03Z</time></trkpt><trkpt lat="45.37059549677987" lon="10.612351504060635"><ele>118.33333333333334</ele><time>2026-04-02T10:12:04Z</time></trkpt><trkpt lat="45.370602582629346" lon="10.6122279322182"><ele>119.16666666666667</ele><time>2026-04-02T10:12:05Z</time></trkpt><trkpt lat="45.370597149841274" lon="10.612091051166242"><ele>120.0</ele><time>2026-04-02T10:12:06Z</time></trkpt><trkpt lat="45.37057174580219" lon="10.611968216588698"><ele>122.8</ele><time>2026-04-02T10:12:07Z</time></trkpt><trkpt lat="45.370504759253855" lon="10.611875252543072"><ele>125.6</ele><time>2026-04-02T10:12:08Z</time></trkpt><trkpt lat="45.37045248070228" lon="10.611807244244817"><ele>128.4</ele><time>2026-04-02T10:12:09Z</time></trkpt><trkpt lat="45.370323024766215" lon="10.611864982790495"><ele>131.2</ele><time>2026-04-02T10:12:10Z</time></trkpt><trkpt lat="45.3702408230685" lon="10.611864298013133"><ele>134.0</ele><time>2026-04-02T10:12:11Z</time></trkpt><trkpt lat="45.370164751097114" lon="10.611828225111505"><ele>134.0</ele><time>2026-04-02T10:12:12Z</time></trkpt><trkpt lat="45.37009256533089" lon="10.611795816818756"><ele>134.0</ele><time>2026-04-02T10:12:13Z</time></trkpt><trkpt lat="45.37002932212763" lon="10.61172129360974"><ele>134.0</ele><time>2026-04-02T10:12:14Z</time></trkpt><trkpt lat="45.36998566636465" lon="10.611611708606636"><ele>134.0</ele><time>2026-04-02T10:12:15Z</time></trkpt><trkpt lat="45.36993942137426" lon="10.611486972026759"><ele>134.0</ele><time>2026-04-02T10:12:16Z</time></trkpt><trkpt lat="45.36990027719274" lon="10.611383794046743"><ele>134.0</ele><time>2026-04-02T10:12:17Z</time></trkpt><trkpt lat="45.36986221958754" lon="10.611309964213486"><ele>134.0</ele><time>2026-04-02T10:12:18Z</time></trkpt><trkpt lat="45.36981923242919" lon="10.611228450878318"><ele>134.0</ele><time>2026-04-02T10:12:19Z</time></trkpt><trkpt lat="45.36979003683152" lon="10.611121587260689"><ele>134.0</ele><time>2026-04-02T10:12:20Z</time></trkpt><trkpt lat="45.369710118847884" lon="10.61106184257422"><ele>134.0</ele><time>2026-04-02T10:12:21Z</time></trkpt><trkpt lat="45.36964925682377" lon="10.610984747326324"><ele>134.0</ele><time>2026-04-02T10:12:22Z</time></trkpt><trkpt lat="45.36957639486081" lon="10.610933181868754"><ele>134.0</ele><time>2026-04-02T10:12:23Z</time></trkpt><trkpt lat="45.36948840507654" lon="10.61090599470287"><ele>135.4</ele><time>2026-04-02T10:12:24Z</time></trkpt><trkpt lat="45.36939799278799" lon="10.610887374914643"><ele>136.8</ele><time>2026-04-02T10:12:25Z</time></trkpt><trkpt lat="45.369302027921265" lon="10.610861226205143"><ele>138.2</ele><time>2026-04-02T10:12:26Z</time></trkpt><trkpt lat="45.36918965300732" lon="10.610828038519378"><ele>139.6</ele><time>2026-04-02T10:12:27Z</time></trkpt><trkpt lat="45.36906370174955" lon="10.610786559796272"><ele>141.0</ele><time>2026-04-02T10:12:28Z</time></trkpt><trkpt lat="45.36892747501613" lon="10.61074435971729"><ele>144.33333333333334</ele><time>2026-04-02T10:12:29Z</time></trkpt><trkpt lat="45.36878350660667" lon="10.610697495901084"><ele>147.66666666666669</ele><time>2026-04-02T10:12:30Z</time></trkpt><trkpt lat="45.36863254042358" lon="10.610649474511376"><ele>151.0</ele><time>2026-04-02T10:12:31Z</time></trkpt><trkpt lat="45.36848120420977" lon="10.610611837460382"><ele>151.0</ele><time>2026-04-02T10:12:32Z</time></trkpt><trkpt lat="45.36833712100687" lon="10.6105780035273"><ele>151.0</ele><time>2026-04-02T10:12:33Z</time></trkpt><trkpt lat="45.36820076468155" lon="10.610555334905223"><ele>151.0</ele><time>2026-04-02T10:12:34Z</time></trkpt><trkpt lat="45.36808563867966" lon="10.610552569876443"><ele>151.0</ele><time>2026-04-02T10:12:35Z</time></trkpt><trkpt lat="45.367991505594006" lon="10.610558330228736"><ele>149.83333333333334</ele><time>2026-04-02T10:12:36Z</time></trkpt><trkpt lat="45.367910212259" lon="10.61056480231962"><ele>148.66666666666669</ele><time>2026-04-02T10:12:37Z</time></trkpt><trkpt lat="45.36782611706973" lon="10.610581446817697"><ele>147.5</ele><time>2026-04-02T10:12:38Z</time></trkpt><trkpt lat="45.36774298198378" lon="10.61061071846482"><ele>146.33333333333334</ele><time>2026-04-02T10:12:39Z</time></trkpt><trkpt lat="45.36765833541463" lon="10.61065355198645"><ele>145.16666666666666</ele><time>2026-04-02T10:12:40Z</time></trkpt><trkpt lat="45.36757949771216" lon="10.610691822423234"><ele>144.0</ele><time>2026-04-02T10:12:41Z</time></trkpt><trkpt lat="45.367510100443546" lon="10.61072585210956"><ele>144.0</ele><time>2026-04-02T10:12:42Z</time></trkpt><trkpt lat="45.36745190116082" lon="10.610766545946033"><ele>144.0</ele><time>2026-04-02T10:12:43Z</time></trkpt><trkpt lat="45.367375632951884" lon="10.610791205479188"><ele>144.0</ele><time>2026-04-02T10:12:45Z</time></trkpt><trkpt lat="45.367388048153394" lon="10.610974988850169"><ele>144.0</ele><time>2026-04-02T10:12:47Z</time></trkpt><trkpt lat="45.36740856655424" lon="10.611144973341789"><ele>144.0</ele><time>2026-04-02T10:12:49Z</time></trkpt><trkpt lat="45.36740672014681" lon="10.611265408511928"><ele>144.25</ele><time>2026-04-02T10:12:50Z</time></trkpt><trkpt lat="45.36740738664544" lon="10.61141629568964"><ele>144.5</ele><time>2026-04-02T10:12:51Z</time></trkpt><trkpt lat="45.36741120528605" lon="10.611620754673885"><ele>144.75</ele><time>2026-04-02T10:12:52Z</time></trkpt><trkpt lat="45.367413230540144" lon="10.611829224229307"><ele>145.0</ele><time>2026-04-02T10:12:53Z</time></trkpt><trkpt lat="45.3673980741698" lon="10.612024226116652"><ele>145.0</ele><time>2026-04-02T10:12:54Z</time></trkpt><trkpt lat="45.367359672702115" lon="10.612230223202914"><ele>145.0</ele><time>2026-04-02T10:12:55Z</time></trkpt><trkpt lat="45.367306282687494" lon="10.612460289002511"><ele>145.0</ele><time>2026-04-02T10:12:56Z</time></trkpt><trkpt lat="45.36726173971218" lon="10.612653409144498"><ele>145.0</ele><time>2026-04-02T10:12:57Z</time></trkpt><trkpt lat="45.36722550999508" lon="10.612812426026577"><ele>145.0</ele><time>2026-04-02T10:12:58Z</time></trkpt><trkpt lat="45.36719568711778" lon="10.612937607500292"><ele>145.0</ele><time>2026-04-02T10:12:59Z</time></trkpt><trkpt lat="45.367166260462355" lon="10.613045944145735"><ele>145.0</ele><time>2026-04-02T10:13:00Z</time></trkpt><trkpt lat="45.36714465625751" lon="10.613139311603549"><ele>145.0</ele><time>2026-04-02T10:13:01Z</time></trkpt><trkpt lat="45.367131399574795" lon="10.613229346028751"><ele>145.0</ele><time>2026-04-02T10:13:02Z</time></trkpt><trkpt lat="45.36711541545226" lon="10.613317679196893"><ele>143.4</ele><time>2026-04-02T10:13:03Z</time></trkpt><trkpt lat="45.367098258617055" lon="10.61340536076098"><ele>141.8</ele><time>2026-04-02T10:13:04Z</time></trkpt><trkpt lat="45.367085088066055" lon="10.613518163100789"><ele>140.2</ele><time>2026-04-02T10:13:05Z</time></trkpt><trkpt lat="45.367065633672" lon="10.613674317138697"><ele>138.6</ele><time>2026-04-02T10:13:06Z</time></trkpt><trkpt lat="45.36705031555272" lon="10.613819878832478"><ele>137.0</ele><time>2026-04-02T10:13:07Z</time></trkpt><trkpt lat="45.36703721405586" lon="10.613968229996448"><ele>136.83333333333331</ele><time>2026-04-02T10:13:08Z</time></trkpt><trkpt lat="45.367027052682396" lon="10.614106359199338"><ele>136.66666666666666</ele><time>2026-04-02T10:13:09Z</time></trkpt><trkpt lat="45.36702329155463" lon="10.614224204212713"><ele>136.5</ele><time>2026-04-02T10:13:10Z</time></trkpt><trkpt lat="45.36701543743264" lon="10.614328339576955"><ele>136.33333333333334</ele><time>2026-04-02T10:13:11Z</time></trkpt><trkpt lat="45.366992632069724" lon="10.614470579080912"><ele>136.16666666666669</ele><time>2026-04-02T10:13:13Z</time></trkpt><trkpt lat="45.36699974196227" lon="10.614589111521115"><ele>136.0</ele><time>2026-04-02T10:13:15Z</time></trkpt><trkpt lat="45.36707152069951" lon="10.614698688175546"><ele>136.33333333333334</ele><time>2026-04-02T10:13:17Z</time></trkpt><trkpt lat="45.3671838160543" lon="10.61477763141632"><ele>136.66666666666669</ele><time>2026-04-02T10:13:19Z</time></trkpt><trkpt lat="45.36724336932235" lon="10.614807036332252"><ele>137.0</ele><time>2026-04-02T10:13:20Z</time></trkpt><trkpt lat="45.36732513232082" lon="10.614827964207473"><ele>137.33333333333334</ele><time>2026-04-02T10:13:22Z</time></trkpt><trkpt lat="45.36739088538043" lon="10.614844682322854"><ele>137.66666666666666</ele><time>2026-04-02T10:13:26Z</time></trkpt><trkpt lat="45.36747432286997" lon="10.614876899923177"><ele>138.0</ele><time>2026-04-02T10:13:28Z</time></trkpt><trkpt lat="45.367545155068015" lon="10.614905493106717"><ele>137.20000000000002</ele><time>2026-04-02T10:13:30Z</time></trkpt><trkpt lat="45.36765992732629" lon="10.614957814794346"><ele>136.4</ele><time>2026-04-02T10:13:32Z</time></trkpt><trkpt lat="45.36772206021764" lon="10.614983807792523"><ele>135.60000000000002</ele><time>2026-04-02T10:13:33Z</time></trkpt><trkpt lat="45.3677824741471" lon="10.615016002497935"><ele>134.8</ele><time>2026-04-02T10:13:34Z</time></trkpt><trkpt lat="45.36788624256396" lon="10.615068513600242"><ele>134.0</ele><time>2026-04-02T10:13:36Z</time></trkpt><trkpt lat="45.36792750904284" lon="10.615222833133068"><ele>132.2</ele><time>2026-04-02T10:13:37Z</time></trkpt><trkpt lat="45.36798349464219" lon="10.615334229055374"><ele>130.4</ele><time>2026-04-02T10:13:38Z</time></trkpt><trkpt lat="45.36802427775003" lon="10.615451104410793"><ele>128.6</ele><time>2026-04-02T10:13:39Z</time></trkpt><trkpt lat="45.36806389938451" lon="10.615573633810815"><ele>126.8</ele><time>2026-04-02T10:13:40Z</time></trkpt><trkpt lat="45.368098657173796" lon="10.61569925806812"><ele>125.0</ele><time>2026-04-02T10:13:41Z</time></trkpt><trkpt lat="45.368147247640074" lon="10.615828509373786"><ele>124.0</ele><time>2026-04-02T10:13:42Z</time></trkpt><trkpt lat="45.36816951826851" lon="10.615980804532462"><ele>123.0</ele><time>2026-04-02T10:13:43Z</time></trkpt><trkpt lat="45.36818004010131" lon="10.616126787366643"><ele>122.0</ele><time>2026-04-02T10:13:44Z</time></trkpt><trkpt lat="45.368189050962236" lon="10.616258567727908"><ele>121.0</ele><time>2026-04-02T10:13:45Z</time></trkpt><trkpt lat="45.36817919371827" lon="10.616384026933224"><ele>120.0</ele><time>2026-04-02T10:13:46Z</time></trkpt><trkpt lat="45.36818462890016" lon="10.616503399626003"><ele>119.83333333333333</ele><time>2026-04-02T10:13:47Z</time></trkpt><trkpt lat="45.36818458613941" lon="10.616611115072445"><ele>119.66666666666666</ele><time>2026-04-02T10:13:48Z</time></trkpt><trkpt lat="45.36820011884171" lon="10.616703434029104"><ele>119.5</ele><time>2026-04-02T10:13:49Z</time></trkpt><trkpt lat="45.36819952431254" lon="10.616861181661049"><ele>119.33333333333333</ele><time>2026-04-02T10:13:51Z</time></trkpt><trkpt lat="45.36819915202382" lon="10.616959962558646"><ele>119.16666666666666</ele><time>2026-04-02T10:13:53Z</time></trkpt><trkpt lat="45.36821305855505" lon="10.617111637725223"><ele>119.0</ele><time>2026-04-02T10:13:55Z</time></trkpt><trkpt lat="45.36821559131157" lon="10.617302573472177"><ele>118.99999999999999</ele><time>2026-04-02T10:13:57Z</time></trkpt><trkpt lat="45.368218639502956" lon="10.617422469025442"><ele>119.0</ele><time>2026-04-02T10:13:58Z</time></trkpt><trkpt lat="45.36822072910935" lon="10.617543208057581"><ele>119.0</ele><time>2026-04-02T10:13:59Z</time></trkpt><trkpt lat="45.36822026249576" lon="10.617643882373399"><ele>119.0</ele><time>2026-04-02T10:14:00Z</time></trkpt><trkpt lat="45.36816889342723" lon="10.617812651447823"><ele>118.99999999999999</ele><time>2026-04-02T10:14:02Z</time></trkpt><trkpt lat="45.368094168997864" lon="10.61784433757661"><ele>119.0</ele><time>2026-04-02T10:14:03Z</time></trkpt><trkpt lat="45.368028397942524" lon="10.617807720348877"><ele>118.99999999999999</ele><time>2026-04-02T10:14:04Z</time></trkpt><trkpt lat="45.36790056964502" lon="10.61779585673972"><ele>119.0</ele><time>2026-04-02T10:14:06Z</time></trkpt><trkpt lat="45.36782015922901" lon="10.617819158326103"><ele>119.0</ele><time>2026-04-02T10:14:07Z</time></trkpt><trkpt lat="45.36775101750104" lon="10.617810954967053"><ele>119.0</ele><time>2026-04-02T10:14:08Z</time></trkpt><trkpt lat="45.36768171207003" lon="10.617775130684393"><ele>118.99999999999999</ele><time>2026-04-02T10:14:09Z</time></trkpt><trkpt lat="45.36760362957346" lon="10.617759108984872"><ele>119.0</ele><time>2026-04-02T10:14:10Z</time></trkpt><trkpt lat="45.367531481748415" lon="10.61772282944473"><ele>119.33333333333333</ele><time>2026-04-02T10:14:11Z</time></trkpt><trkpt lat="45.36747087839931" lon="10.617669969483783"><ele>119.66666666666666</ele><time>2026-04-02T10:14:12Z</time></trkpt><trkpt lat="45.36740561003005" lon="10.617622279715638"><ele>120.0</ele><time>2026-04-02T10:14:13Z</time></trkpt><trkpt lat="45.36734508024438" lon="10.61757805219141"><ele>120.33333333333334</ele><time>2026-04-02T10:14:14Z</time></trkpt><trkpt lat="45.36721963369212" lon="10.617707036635506"><ele>120.66666666666667</ele><time>2026-04-02T10:14:15Z</time></trkpt><trkpt lat="45.367146392917896" lon="10.617698665485559"><ele>121.0</ele><time>2026-04-02T10:14:16Z</time></trkpt><trkpt lat="45.367029074458145" lon="10.617691695797703"><ele>122.0</ele><time>2026-04-02T10:14:18Z</time></trkpt><trkpt lat="45.36690744526793" lon="10.617691232120476"><ele>123.0</ele><time>2026-04-02T10:14:20Z</time></trkpt><trkpt lat="45.36680626519593" lon="10.617696028895452"><ele>124.0</ele><time>2026-04-02T10:14:22Z</time></trkpt><trkpt lat="45.36670829823254" lon="10.617692486288778"><ele>125.0</ele><time>2026-04-02T10:14:24Z</time></trkpt><trkpt lat="45.3666361260523" lon="10.6176891675895"><ele>126.0</ele><time>2026-04-02T10:14:26Z</time></trkpt><trkpt lat="45.36656431973522" lon="10.617676828490945"><ele>126.0</ele><time>2026-04-02T10:14:29Z</time></trkpt><trkpt lat="45.366492197337536" lon="10.617685902742606"><ele>126.0</ele><time>2026-04-02T10:15:19Z</time></trkpt><trkpt lat="45.36640503073909" lon="10.617653473686198"><ele>126.0</ele><time>2026-04-02T10:15:21Z</time></trkpt><trkpt lat="45.36629652801058" lon="10.617599868708966"><ele>126.0</ele><time>2026-04-02T10:15:23Z</time></trkpt><trkpt lat="45.3662238305808" lon="10.617572290985356"><ele>126.0</ele><time>2026-04-02T10:15:24Z</time></trkpt><trkpt lat="45.36614917323233" lon="10.617547705773406"><ele>126.0</ele><time>2026-04-02T10:15:25Z</time></trkpt><trkpt lat="45.36607382709718" lon="10.617512303916685"><ele>126.85714285714286</ele><time>2026-04-02T10:15:26Z</time></trkpt><trkpt lat="45.36600011492586" lon="10.617469354383829"><ele>127.71428571428572</ele><time>2026-04-02T10:15:27Z</time></trkpt><trkpt lat="45.365927124526706" lon="10.617425713651247"><ele>128.57142857142856</ele><time>2026-04-02T10:15:28Z</time></trkpt><trkpt lat="45.3658564210053" lon="10.617381596760445"><ele>129.42857142857144</ele><time>2026-04-02T10:15:29Z</time></trkpt><trkpt lat="45.365787151965144" lon="10.617337514271915"><ele>130.28571428571428</ele><time>2026-04-02T10:15:30Z</time></trkpt><trkpt lat="45.36572644146364" lon="10.617293403566089"><ele>131.14285714285714</ele><time>2026-04-02T10:15:31Z</time></trkpt><trkpt lat="45.36567344296123" lon="10.61723529544236"><ele>132.0</ele><time>2026-04-02T10:15:32Z</time></trkpt><trkpt lat="45.36561083092438" lon="10.617123462684583"><ele>132.0</ele><time>2026-04-02T10:15:34Z</time></trkpt><trkpt lat="45.36558005481446" lon="10.617018765544277"><ele>132.0</ele><time>2026-04-02T10:15:35Z</time></trkpt><trkpt lat="45.36554468718754" lon="10.616919148521053"><ele>132.0</ele><time>2026-04-02T10:15:36Z</time></trkpt><trkpt lat="45.365510750761864" lon="10.616820019367333"><ele>132.0</ele><time>2026-04-02T10:15:37Z</time></trkpt><trkpt lat="45.3654693046371" lon="10.616731817571523"><ele>132.0</ele><time>2026-04-02T10:15:38Z</time></trkpt><trkpt lat="45.365420160940594" lon="10.61666830599842"><ele>132.0</ele><time>2026-04-02T10:15:39Z</time></trkpt><trkpt lat="45.36532650828626" lon="10.616605335340322"><ele>133.0</ele><time>2026-04-02T10:15:41Z</time></trkpt><trkpt lat="45.36526961049993" lon="10.616544177346276"><ele>134.0</ele><time>2026-04-02T10:15:44Z</time></trkpt><trkpt lat="45.365239732896306" lon="10.616410070122878"><ele>135.0</ele><time>2026-04-02T10:15:48Z</time></trkpt><trkpt lat="45.36519712586337" lon="10.616267132438072"><ele>136.0</ele><time>2026-04-02T10:15:50Z</time></trkpt><trkpt lat="45.365167480563485" lon="10.616181874891717"><ele>137.0</ele><time>2026-04-02T10:15:51Z</time></trkpt><trkpt lat="45.365134736763636" lon="10.616088616593235"><ele>138.0</ele><time>2026-04-02T10:15:52Z</time></trkpt><trkpt lat="45.365103766344305" lon="10.615987606740623"><ele>138.0</ele><time>2026-04-02T10:15:53Z</time></trkpt><trkpt lat="45.36507700926255" lon="10.615871635879769"><ele>138.0</ele><time>2026-04-02T10:15:55Z</time></trkpt><trkpt lat="45.36506522357942" lon="10.615666354461561"><ele>138.0</ele><time>2026-04-02T10:16:32Z</time></trkpt><trkpt lat="45.36503300435653" lon="10.615410778509796"><ele>138.0</ele><time>2026-04-02T10:16:34Z</time></trkpt><trkpt lat="45.36501971847231" lon="10.61526805148131"><ele>138.20000000000002</ele><time>2026-04-02T10:16:35Z</time></trkpt><trkpt lat="45.36500648374409" lon="10.61509608506852"><ele>138.4</ele><time>2026-04-02T10:16:36Z</time></trkpt><trkpt lat="45.365005875663336" lon="10.614919551508128"><ele>138.60000000000002</ele><time>2026-04-02T10:16:37Z</time></trkpt><trkpt lat="45.36500487181258" lon="10.614800551901487"><ele>138.8</ele><time>2026-04-02T10:16:38Z</time></trkpt><trkpt lat="45.365010453708095" lon="10.614682537978863"><ele>139.0</ele><time>2026-04-02T10:16:39Z</time></trkpt><trkpt lat="45.36501026006621" lon="10.614566893540983"><ele>138.83333333333334</ele><time>2026-04-02T10:16:40Z</time></trkpt><trkpt lat="45.365005699560164" lon="10.614444525245883"><ele>138.66666666666669</ele><time>2026-04-02T10:16:41Z</time></trkpt><trkpt lat="45.365045001659794" lon="10.61432542092647"><ele>138.5</ele><time>2026-04-02T10:16:42Z</time></trkpt><trkpt lat="45.365042257599555" lon="10.61422682792525"><ele>138.33333333333334</ele><time>2026-04-02T10:16:43Z</time></trkpt><trkpt lat="45.36503913634344" lon="10.614114685125172"><ele>138.16666666666666</ele><time>2026-04-02T10:16:44Z</time></trkpt><trkpt lat="45.36503732752998" lon="10.614004716648031"><ele>138.0</ele><time>2026-04-02T10:16:45Z</time></trkpt><trkpt lat="45.365040886950915" lon="10.613900979641333"><ele>138.0</ele><time>2026-04-02T10:16:46Z</time></trkpt><trkpt lat="45.365046137621995" lon="10.61380234310709"><ele>138.0</ele><time>2026-04-02T10:16:47Z</time></trkpt><trkpt lat="45.36502017700411" lon="10.613691819601778"><ele>138.0</ele><time>2026-04-02T10:16:48Z</time></trkpt><trkpt lat="45.365041238501355" lon="10.613584466959454"><ele>138.0</ele><time>2026-04-02T10:16:49Z</time></trkpt><trkpt lat="45.36505938820254" lon="10.613473719730818"><ele>138.0</ele><time>2026-04-02T10:16:50Z</time></trkpt><trkpt lat="45.365066117888304" lon="10.613352534582098"><ele>138.0</ele><time>2026-04-02T10:16:51Z</time></trkpt><trkpt lat="45.36506654310422" lon="10.613230217197044"><ele>138.33333333333334</ele><time>2026-04-02T10:16:52Z</time></trkpt><trkpt lat="45.365050021621016" lon="10.613120418156397"><ele>138.66666666666666</ele><time>2026-04-02T10:16:53Z</time></trkpt><trkpt lat="45.36502513426128" lon="10.613027853195423"><ele>139.0</ele><time>2026-04-02T10:16:54Z</time></trkpt><trkpt lat="45.36495908766095" lon="10.612869683421495"><ele>139.33333333333331</ele><time>2026-04-02T10:16:56Z</time></trkpt><trkpt lat="45.364921469877665" lon="10.612781870089579"><ele>139.66666666666666</ele><time>2026-04-02T10:16:57Z</time></trkpt><trkpt lat="45.364887023983556" lon="10.61269291372612"><ele>140.0</ele><time>2026-04-02T10:16:58Z</time></trkpt><trkpt lat="45.364848183720866" lon="10.612604199385805"><ele>140.0</ele><time>2026-04-02T10:16:59Z</time></trkpt><trkpt lat="45.364804931991934" lon="10.612518712217337"><ele>140.0</ele><time>2026-04-02T10:17:00Z</time></trkpt><trkpt lat="45.36476326340959" lon="10.612431036339423"><ele>140.0</ele><time>2026-04-02T10:17:01Z</time></trkpt><trkpt lat="45.36472532113006" lon="10.612331759134534"><ele>140.0</ele><time>2026-04-02T10:17:02Z</time></trkpt><trkpt lat="45.36468431817289" lon="10.612236915905113"><ele>140.0</ele><time>2026-04-02T10:17:03Z</time></trkpt><trkpt lat="45.36464757365118" lon="10.612132395107233"><ele>140.0</ele><time>2026-04-02T10:17:04Z</time></trkpt><trkpt lat="45.36462677925502" lon="10.61200541921231"><ele>140.8</ele><time>2026-04-02T10:17:05Z</time></trkpt><trkpt lat="45.36460936627216" lon="10.61186148372957"><ele>141.6</ele><time>2026-04-02T10:17:06Z</time></trkpt><trkpt lat="45.36459109303285" lon="10.611718131590408"><ele>142.4</ele><time>2026-04-02T10:17:07Z</time></trkpt><trkpt lat="45.36457654895802" lon="10.611573097895134"><ele>143.2</ele><time>2026-04-02T10:17:08Z</time></trkpt><trkpt lat="45.364554730702956" lon="10.61142714871734"><ele>144.0</ele><time>2026-04-02T10:17:09Z</time></trkpt><trkpt lat="45.364530933806634" lon="10.61128330791984"><ele>142.8</ele><time>2026-04-02T10:17:10Z</time></trkpt><trkpt lat="45.36455270465793" lon="10.611121651558186"><ele>141.60000000000002</ele><time>2026-04-02T10:17:11Z</time></trkpt><trkpt lat="45.364529833179574" lon="10.610977121268785"><ele>140.4</ele><time>2026-04-02T10:17:12Z</time></trkpt><trkpt lat="45.36451035288272" lon="10.610854020513992"><ele>139.20000000000002</ele><time>2026-04-02T10:17:13Z</time></trkpt><trkpt lat="45.36449439336158" lon="10.61075316839808"><ele>138.0</ele><time>2026-04-02T10:17:14Z</time></trkpt><trkpt lat="45.36447809079282" lon="10.61065224649816"><ele>138.0</ele><time>2026-04-02T10:17:16Z</time></trkpt><trkpt lat="45.36445506150148" lon="10.610561169127612"><ele>138.0</ele><time>2026-04-02T10:17:20Z</time></trkpt><trkpt lat="45.364435631330615" lon="10.610438758739495"><ele>138.0</ele><time>2026-04-02T10:17:24Z</time></trkpt><trkpt lat="45.36435840440524" lon="10.610412429761547"><ele>138.0</ele><time>2026-04-02T10:17:25Z</time></trkpt><trkpt lat="45.364290588363474" lon="10.61037832205637"><ele>138.0</ele><time>2026-04-02T10:17:26Z</time></trkpt><trkpt lat="45.364210010387275" lon="10.610339437621406"><ele>138.0</ele><time>2026-04-02T10:17:27Z</time></trkpt><trkpt lat="45.36411274232543" lon="10.610304416528955"><ele>137.8</ele><time>2026-04-02T10:17:28Z</time></trkpt><trkpt lat="45.36401127095314" lon="10.61028140984118"><ele>137.60000000000002</ele><time>2026-04-02T10:17:29Z</time></trkpt><trkpt lat="45.36390589883889" lon="10.610271750704062"><ele>137.39999999999998</ele><time>2026-04-02T10:17:30Z</time></trkpt><trkpt lat="45.36379875240971" lon="10.610271658424038"><ele>137.2</ele><time>2026-04-02T10:17:31Z</time></trkpt><trkpt lat="45.36369190288042" lon="10.610268745232867"><ele>137.0</ele><time>2026-04-02T10:17:32Z</time></trkpt><trkpt lat="45.36358500177879" lon="10.610263021631113"><ele>137.4</ele><time>2026-04-02T10:17:33Z</time></trkpt><trkpt lat="45.363474828490375" lon="10.610258620707125"><ele>137.79999999999998</ele><time>2026-04-02T10:17:34Z</time></trkpt><trkpt lat="45.363364663440315" lon="10.610251866377423"><ele>138.2</ele><time>2026-04-02T10:17:35Z</time></trkpt><trkpt lat="45.363253379394735" lon="10.610242474189798"><ele>138.6</ele><time>2026-04-02T10:17:36Z</time></trkpt><trkpt lat="45.36313861005643" lon="10.610231753104326"><ele>139.0</ele><time>2026-04-02T10:17:37Z</time></trkpt><trkpt lat="45.36302120788389" lon="10.610219617464383"><ele>139.0</ele><time>2026-04-02T10:17:38Z</time></trkpt><trkpt lat="45.36290001171927" lon="10.610212667763617"><ele>139.0</ele><time>2026-04-02T10:17:39Z</time></trkpt><trkpt lat="45.36277522573746" lon="10.610208694702738"><ele>139.0</ele><time>2026-04-02T10:17:40Z</time></trkpt><trkpt lat="45.362648077477196" lon="10.610210276390994"><ele>139.0</ele><time>2026-04-02T10:17:41Z</time></trkpt><trkpt lat="45.36251931381179" lon="10.610213849149448"><ele>139.0</ele><time>2026-04-02T10:17:42Z</time></trkpt><trkpt lat="45.36239110745867" lon="10.610209865700332"><ele>139.0</ele><time>2026-04-02T10:17:43Z</time></trkpt><trkpt lat="45.36226967168202" lon="10.610194446899934"><ele>139.0</ele><time>2026-04-02T10:17:44Z</time></trkpt><trkpt lat="45.36216489042276" lon="10.610172873082075"><ele>139.0</ele><time>2026-04-02T10:17:45Z</time></trkpt><trkpt lat="45.362071470810015" lon="10.61014569397583"><ele>137.4</ele><time>2026-04-02T10:17:46Z</time></trkpt><trkpt lat="45.361992179213736" lon="10.61011245901609"><ele>135.8</ele><time>2026-04-02T10:17:47Z</time></trkpt><trkpt lat="45.36191477328139" lon="10.610121433873832"><ele>134.2</ele><time>2026-04-02T10:17:48Z</time></trkpt><trkpt lat="45.36181124993154" lon="10.610095654390827"><ele>132.6</ele><time>2026-04-02T10:17:50Z</time></trkpt><trkpt lat="45.36174724237056" lon="10.610084299730259"><ele>131.0</ele><time>2026-04-02T10:17:54Z</time></trkpt><trkpt lat="45.36166218166388" lon="10.610288140803885"><ele>131.4</ele><time>2026-04-02T10:17:58Z</time></trkpt><trkpt lat="45.36166235845125" lon="10.610424302831344"><ele>131.8</ele><time>2026-04-02T10:17:59Z</time></trkpt><trkpt lat="45.36166235147491" lon="10.61056206230833"><ele>132.20000000000002</ele><time>2026-04-02T10:18:00Z</time></trkpt><trkpt lat="45.36166396370047" lon="10.61067323807205"><ele>132.6</ele><time>2026-04-02T10:18:01Z</time></trkpt><trkpt lat="45.36166414017165" lon="10.610797260559718"><ele>133.0</ele><time>2026-04-02T10:18:02Z</time></trkpt><trkpt lat="45.36165617130847" lon="10.610938447117247"><ele>133.0</ele><time>2026-04-02T10:18:03Z</time></trkpt><trkpt lat="45.36164583970899" lon="10.611081124579067"><ele>133.0</ele><time>2026-04-02T10:18:04Z</time></trkpt><trkpt lat="45.361635392352284" lon="10.611230364411227"><ele>133.0</ele><time>2026-04-02T10:18:05Z</time></trkpt><trkpt lat="45.36162481080287" lon="10.611385578891587"><ele>133.0</ele><time>2026-04-02T10:18:06Z</time></trkpt><trkpt lat="45.36161533643009" lon="10.61154513214222"><ele>133.0</ele><time>2026-04-02T10:18:07Z</time></trkpt><trkpt lat="45.36160581911977" lon="10.611708369680333"><ele>133.0</ele><time>2026-04-02T10:18:08Z</time></trkpt><trkpt lat="45.36159046104355" lon="10.611877301148793"><ele>133.0</ele><time>2026-04-02T10:18:09Z</time></trkpt><trkpt lat="45.36156958275703" lon="10.612054029095212"><ele>133.0</ele><time>2026-04-02T10:18:10Z</time></trkpt><trkpt lat="45.36154905906576" lon="10.612237929206826"><ele>133.0</ele><time>2026-04-02T10:18:11Z</time></trkpt><trkpt lat="45.36152662797605" lon="10.612426416578872"><ele>133.25</ele><time>2026-04-02T10:18:12Z</time></trkpt><trkpt lat="45.36149525592703" lon="10.612618280373718"><ele>133.5</ele><time>2026-04-02T10:18:13Z</time></trkpt><trkpt lat="45.36145297815287" lon="10.612809417321854"><ele>133.75</ele><time>2026-04-02T10:18:14Z</time></trkpt><trkpt lat="45.36140759433633" lon="10.613004993195473"><ele>134.0</ele><time>2026-04-02T10:18:15Z</time></trkpt><trkpt lat="45.36135649428446" lon="10.61318898679498"><ele>134.25</ele><time>2026-04-02T10:18:16Z</time></trkpt><trkpt lat="45.36130028941291" lon="10.613360043146129"><ele>134.5</ele><time>2026-04-02T10:18:17Z</time></trkpt><trkpt lat="45.36124169045336" lon="10.613522738311781"><ele>134.75</ele><time>2026-04-02T10:18:18Z</time></trkpt><trkpt lat="45.36118145177774" lon="10.613679717628072"><ele>135.0</ele><time>2026-04-02T10:18:19Z</time></trkpt><trkpt lat="45.361121709124276" lon="10.613824605770514"><ele>135.0</ele><time>2026-04-02T10:18:20Z</time></trkpt><trkpt lat="45.361067915701405" lon="10.613955895870715"><ele>135.0</ele><time>2026-04-02T10:18:21Z</time></trkpt><trkpt lat="45.36101666740678" lon="10.61408144805182"><ele>135.0</ele><time>2026-04-02T10:18:22Z</time></trkpt><trkpt lat="45.360966287362594" lon="10.614197130009268"><ele>135.0</ele><time>2026-04-02T10:18:23Z</time></trkpt><trkpt lat="45.360923475526654" lon="10.614296105794633"><ele>135.0</ele><time>2026-04-02T10:18:24Z</time></trkpt><trkpt lat="45.360888193743804" lon="10.614378000822903"><ele>135.0</ele><time>2026-04-02T10:18:25Z</time></trkpt><trkpt lat="45.36084260328791" lon="10.61448085016902"><ele>135.0</ele><time>2026-04-02T10:18:27Z</time></trkpt><trkpt lat="45.36080604378423" lon="10.614585311999964"><ele>135.0</ele><time>2026-04-02T10:18:33Z</time></trkpt><trkpt lat="45.361042018705184" lon="10.614850513378592"><ele>135.6</ele><time>2026-04-02T10:18:39Z</time></trkpt><trkpt lat="45.36111727980879" lon="10.614899288343818"><ele>136.2</ele><time>2026-04-02T10:18:40Z</time></trkpt><trkpt lat="45.36120577997334" lon="10.6149617212432"><ele>136.8</ele><time>2026-04-02T10:18:41Z</time></trkpt><trkpt lat="45.361304462178566" lon="10.615024040458575"><ele>137.4</ele><time>2026-04-02T10:18:42.001Z</time></trkpt><trkpt lat="45.361402002675284" lon="10.615089549293074"><ele>138.0</ele><time>2026-04-02T10:18:43.001Z</time></trkpt><trkpt lat="45.36149060810085" lon="10.615183005277691"><ele>139.20000000000002</ele><time>2026-04-02T10:18:44.001Z</time></trkpt><trkpt lat="45.36158340585607" lon="10.615277212323601"><ele>140.4</ele><time>2026-04-02T10:18:45.001Z</time></trkpt><trkpt lat="45.361680416548786" lon="10.615347969208127"><ele>141.60000000000002</ele><time>2026-04-02T10:18:46.001Z</time></trkpt><trkpt lat="45.36177119473078" lon="10.615388666009215"><ele>142.8</ele><time>2026-04-02T10:18:47.001Z</time></trkpt><trkpt lat="45.36184638737927" lon="10.615425401370036"><ele>144.0</ele><time>2026-04-02T10:18:48.001Z</time></trkpt><trkpt lat="45.36191470367274" lon="10.615473597033642"><ele>144.83333333333334</ele><time>2026-04-02T10:18:49.001Z</time></trkpt><trkpt lat="45.3619708412357" lon="10.615537970276252"><ele>145.66666666666666</ele><time>2026-04-02T10:18:50.001Z</time></trkpt><trkpt lat="45.36200936554235" lon="10.61561279999318"><ele>146.5</ele><time>2026-04-02T10:18:51.001Z</time></trkpt><trkpt lat="45.362033954300614" lon="10.615720218396504"><ele>147.33333333333331</ele><time>2026-04-02T10:18:52.001Z</time></trkpt><trkpt lat="45.36206162714007" lon="10.615817113085898"><ele>148.16666666666666</ele><time>2026-04-02T10:18:53.001Z</time></trkpt><trkpt lat="45.362130226768905" lon="10.615893583161418"><ele>149.0</ele><time>2026-04-02T10:18:54.001Z</time></trkpt><trkpt lat="45.362222056780396" lon="10.615969324511832"><ele>151.0</ele><time>2026-04-02T10:18:55.001Z</time></trkpt><trkpt lat="45.362309669244226" lon="10.616040813653152"><ele>153.0</ele><time>2026-04-02T10:18:56.001Z</time></trkpt><trkpt lat="45.36238546641807" lon="10.616111496155606"><ele>155.0</ele><time>2026-04-02T10:18:57.001Z</time></trkpt><trkpt lat="45.36244897301861" lon="10.61617655506952"><ele>157.0</ele><time>2026-04-02T10:18:58.001Z</time></trkpt><trkpt lat="45.36250316528017" lon="10.616237166011308"><ele>159.0</ele><time>2026-04-02T10:19:00Z</time></trkpt><trkpt lat="45.36258547453943" lon="10.616068562471693"><ele>159.0</ele><time>2026-04-02T10:19:14Z</time></trkpt><trkpt lat="45.36261606976794" lon="10.615986091240972"><ele>159.0</ele><time>2026-04-02T10:19:15Z</time></trkpt><trkpt lat="45.36263942643995" lon="10.615896701019507"><ele>159.0</ele><time>2026-04-02T10:19:16Z</time></trkpt><trkpt lat="45.36266037811179" lon="10.615800484405915"><ele>159.0</ele><time>2026-04-02T10:19:17Z</time></trkpt><trkpt lat="45.36266732541447" lon="10.615695910434926"><ele>159.0</ele><time>2026-04-02T10:19:18Z</time></trkpt><trkpt lat="45.36267182995623" lon="10.61559621438283"><ele>159.0</ele><time>2026-04-02T10:19:19Z</time></trkpt><trkpt lat="45.36266772346642" lon="10.615498355210077"><ele>159.0</ele><time>2026-04-02T10:19:20Z</time></trkpt><trkpt lat="45.36266322346575" lon="10.61539438819457"><ele>159.0</ele><time>2026-04-02T10:19:21Z</time></trkpt><trkpt lat="45.36265243891337" lon="10.615284508259768"><ele>159.0</ele><time>2026-04-02T10:19:22Z</time></trkpt><trkpt lat="45.36263854811115" lon="10.615189820536925"><ele>159.0</ele><time>2026-04-02T10:19:23Z</time></trkpt><trkpt lat="45.362600444578966" lon="10.615062095977427"><ele>159.0</ele><time>2026-04-02T10:19:25Z</time></trkpt><trkpt lat="45.362652788816376" lon="10.61525229376473"><ele>159.0</ele><time>2026-04-02T10:19:43Z</time></trkpt><trkpt lat="45.36266261508917" lon="10.615377860932904"><ele>159.0</ele><time>2026-04-02T10:19:44Z</time></trkpt><trkpt lat="45.362664119749724" lon="10.615552158101956"><ele>159.0</ele><time>2026-04-02T10:19:45Z</time></trkpt><trkpt lat="45.36265962169191" lon="10.615728838402083"><ele>159.0</ele><time>2026-04-02T10:19:46Z</time></trkpt><trkpt lat="45.36263569819445" lon="10.61590105042577"><ele>159.0</ele><time>2026-04-02T10:19:47Z</time></trkpt><trkpt lat="45.36260710818194" lon="10.616049680601012"><ele>159.0</ele><time>2026-04-02T10:19:48Z</time></trkpt><trkpt lat="45.36256430594308" lon="10.616164300480298"><ele>159.0</ele><time>2026-04-02T10:19:49Z</time></trkpt><trkpt lat="45.36252618183082" lon="10.616266229564795"><ele>159.0</ele><time>2026-04-02T10:19:50Z</time></trkpt><trkpt lat="45.362468811857" lon="10.616383159740954"><ele>159.0</ele><time>2026-04-02T10:19:53Z</time></trkpt><trkpt lat="45.362544616345666" lon="10.616273902560955"><ele>159.0</ele><time>2026-04-02T10:19:54Z</time></trkpt><trkpt lat="45.362615151613646" lon="10.616253600949317"><ele>159.0</ele><time>2026-04-02T10:21:13Z</time></trkpt><trkpt lat="45.362664440838124" lon="10.61615202826585"><ele>159.0</ele><time>2026-04-02T10:21:15Z</time></trkpt><trkpt lat="45.36269604626646" lon="10.615944641291524"><ele>159.0</ele><time>2026-04-02T10:21:17Z</time></trkpt><trkpt lat="45.362725929601865" lon="10.615824585912717"><ele>159.0</ele><time>2026-04-02T10:21:18Z</time></trkpt><trkpt lat="45.36275203440776" lon="10.615711051649503"><ele>159.0</ele><time>2026-04-02T10:21:19Z</time></trkpt><trkpt lat="45.362758754121586" lon="10.61560110525758"><ele>159.0</ele><time>2026-04-02T10:21:20Z</time></trkpt><trkpt lat="45.362753830157004" lon="10.615506948187221"><ele>159.0</ele><time>2026-04-02T10:21:21Z</time></trkpt><trkpt lat="45.362755886689875" lon="10.615397617407025"><ele>159.0</ele><time>2026-04-02T10:21:22Z</time></trkpt><trkpt lat="45.36275814802209" lon="10.615295068803936"><ele>159.0</ele><time>2026-04-02T10:21:23Z</time></trkpt><trkpt lat="45.36276834349" lon="10.615187445663668"><ele>159.0</ele><time>2026-04-02T10:21:24Z</time></trkpt><trkpt lat="45.36278790298636" lon="10.615100919458786"><ele>159.0</ele><time>2026-04-02T10:21:24.999Z</time></trkpt><trkpt lat="45.3628887570814" lon="10.615003424713134"><ele>158.66666666666666</ele><time>2026-04-02T10:21:26.999Z</time></trkpt><trkpt lat="45.362967576275786" lon="10.61496581497968"><ele>158.33333333333334</ele><time>2026-04-02T10:21:27.999Z</time></trkpt><trkpt lat="45.36305169016562" lon="10.614930291108521"><ele>158.0</ele><time>2026-04-02T10:21:28.999Z</time></trkpt><trkpt lat="45.36313378073824" lon="10.614885831972668"><ele>157.66666666666669</ele><time>2026-04-02T10:21:29.999Z</time></trkpt><trkpt lat="45.36320814610013" lon="10.614845595962219"><ele>157.33333333333334</ele><time>2026-04-02T10:21:30.999Z</time></trkpt><trkpt lat="45.36328358150727" lon="10.614801029200345"><ele>157.0</ele><time>2026-04-02T10:21:31.999Z</time></trkpt><trkpt lat="45.363358400409595" lon="10.614751282811516"><ele>157.0</ele><time>2026-04-02T10:21:32.999Z</time></trkpt><trkpt lat="45.363428022603316" lon="10.614713320875971"><ele>157.0</ele><time>2026-04-02T10:21:33.999Z</time></trkpt><trkpt lat="45.36351782514357" lon="10.614725428526924"><ele>157.0</ele><time>2026-04-02T10:21:35.999Z</time></trkpt><trkpt lat="45.363592296749424" lon="10.614806426252633"><ele>157.0</ele><time>2026-04-02T10:21:37.999Z</time></trkpt><trkpt lat="45.3636831248563" lon="10.614871956941178"><ele>157.0</ele><time>2026-04-02T10:21:39.999Z</time></trkpt><trkpt lat="45.36374608467708" lon="10.614900021815522"><ele>157.0</ele><time>2026-04-02T10:21:40.999Z</time></trkpt><trkpt lat="45.36381913837246" lon="10.61492671889696"><ele>156.4</ele><time>2026-04-02T10:21:41.999Z</time></trkpt><trkpt lat="45.3639360912843" lon="10.614931918364524"><ele>155.79999999999998</ele><time>2026-04-02T10:21:43.999Z</time></trkpt><trkpt lat="45.36404417440591" lon="10.614939130169544"><ele>155.2</ele><time>2026-04-02T10:21:45.999Z</time></trkpt><trkpt lat="45.364104414108006" lon="10.615058191553173"><ele>154.6</ele><time>2026-04-02T10:21:47.999Z</time></trkpt><trkpt lat="45.364135992347244" lon="10.615162738655906"><ele>154.0</ele><time>2026-04-02T10:21:49.999Z</time></trkpt><trkpt lat="45.36419565409876" lon="10.615267850788682"><ele>154.0</ele><time>2026-04-02T10:21:51.999Z</time></trkpt><trkpt lat="45.3642480127517" lon="10.615319670332818"><ele>154.0</ele><time>2026-04-02T10:21:52.999Z</time></trkpt><trkpt lat="45.36427554122271" lon="10.615402732301416"><ele>154.0</ele><time>2026-04-02T10:21:53.999Z</time></trkpt><trkpt lat="45.36429978586313" lon="10.615507550295016"><ele>154.0</ele><time>2026-04-02T10:21:54.999Z</time></trkpt><trkpt lat="45.36431258889594" lon="10.615630321498333"><ele>154.0</ele><time>2026-04-02T10:21:55.999Z</time></trkpt><trkpt lat="45.36433293521874" lon="10.615731806696571"><ele>154.0</ele><time>2026-04-02T10:21:56.999Z</time></trkpt><trkpt lat="45.36439520855767" lon="10.615860025683768"><ele>153.4</ele><time>2026-04-02T10:21:58.999Z</time></trkpt><trkpt lat="45.36450994151629" lon="10.615866539066118"><ele>152.8</ele><time>2026-04-02T10:22:00.999Z</time></trkpt><trkpt lat="45.364611307693906" lon="10.615894143465452"><ele>152.2</ele><time>2026-04-02T10:22:02.999Z</time></trkpt><trkpt lat="45.3646742824042" lon="10.615904993252258"><ele>151.6</ele><time>2026-04-02T10:22:04.999Z</time></trkpt><trkpt lat="45.36470269002173" lon="10.616011041473058"><ele>151.0</ele><time>2026-04-02T10:22:08.999Z</time></trkpt><trkpt lat="45.364698428992796" lon="10.61619916910867"><ele>150.0</ele><time>2026-04-02T10:22:10.999Z</time></trkpt><trkpt lat="45.364708209267214" lon="10.61632050293051"><ele>149.0</ele><time>2026-04-02T10:22:11.999Z</time></trkpt><trkpt lat="45.36473060638886" lon="10.616442378053522"><ele>148.0</ele><time>2026-04-02T10:22:12.999Z</time></trkpt><trkpt lat="45.36474796469261" lon="10.616533441341963"><ele>147.0</ele><time>2026-04-02T10:22:13.999Z</time></trkpt><trkpt lat="45.36474566502716" lon="10.616655650899537"><ele>146.0</ele><time>2026-04-02T10:22:15.999Z</time></trkpt><trkpt lat="45.36465611858446" lon="10.616682389085588"><ele>145.0</ele><time>2026-04-02T10:22:18.999Z</time></trkpt><trkpt lat="45.36457653085576" lon="10.61668813066281"><ele>145.0</ele><time>2026-04-02T10:22:19.999Z</time></trkpt><trkpt lat="45.364481662833526" lon="10.61669584907902"><ele>145.0</ele><time>2026-04-02T10:22:20.999Z</time></trkpt><trkpt lat="45.36441147661799" lon="10.616791250777451"><ele>145.0</ele><time>2026-04-02T10:22:22.999Z</time></trkpt><trkpt lat="45.3643806816533" lon="10.61690751596479"><ele>145.0</ele><time>2026-04-02T10:22:23.999Z</time></trkpt><trkpt lat="45.36434021849197" lon="10.617032461256597"><ele>145.0</ele><time>2026-04-02T10:22:24.999Z</time></trkpt><trkpt lat="45.36428907226323" lon="10.617191622169827"><ele>145.66666666666669</ele><time>2026-04-02T10:22:25.999Z</time></trkpt><trkpt lat="45.36422567272984" lon="10.61740719199112"><ele>146.33333333333334</ele><time>2026-04-02T10:22:26.999Z</time></trkpt><trkpt lat="45.36414890463012" lon="10.617665037674755"><ele>147.0</ele><time>2026-04-02T10:22:27.999Z</time></trkpt><trkpt lat="45.36406676621261" lon="10.617901046680203"><ele>147.0</ele><time>2026-04-02T10:22:28.999Z</time></trkpt><trkpt lat="45.36400343407" lon="10.618105597483607"><ele>147.0</ele><time>2026-04-02T10:22:29.999Z</time></trkpt><trkpt lat="45.36393333335032" lon="10.61831172561116"><ele>147.0</ele><time>2026-04-02T10:22:30.999Z</time></trkpt><trkpt lat="45.36385775910715" lon="10.61851183419216"><ele>148.5</ele><time>2026-04-02T10:22:31.999Z</time></trkpt><trkpt lat="45.36378524759044" lon="10.618708129261487"><ele>150.0</ele><time>2026-04-02T10:22:32.999Z</time></trkpt><trkpt lat="45.36371931755788" lon="10.61889870330278"><ele>151.5</ele><time>2026-04-02T10:22:33.999Z</time></trkpt><trkpt lat="45.36367080374259" lon="10.61907558341365"><ele>153.0</ele><time>2026-04-02T10:22:34.999Z</time></trkpt><trkpt lat="45.36362077383189" lon="10.619211612015372"><ele>153.0</ele><time>2026-04-02T10:22:35.999Z</time></trkpt><trkpt lat="45.363596714916746" lon="10.619313962647764"><ele>153.0</ele><time>2026-04-02T10:22:36.999Z</time></trkpt><trkpt lat="45.36359422129297" lon="10.619428743683873"><ele>153.0</ele><time>2026-04-02T10:22:37.999Z</time></trkpt><trkpt lat="45.363612877637664" lon="10.619567174730765"><ele>153.0</ele><time>2026-04-02T10:22:38.999Z</time></trkpt><trkpt lat="45.363635640986395" lon="10.619719662548329"><ele>153.0</ele><time>2026-04-02T10:22:39.999Z</time></trkpt><trkpt lat="45.36364926129866" lon="10.619887331298596"><ele>152.8</ele><time>2026-04-02T10:22:40.999Z</time></trkpt><trkpt lat="45.36365543821447" lon="10.620032184857427"><ele>152.60000000000002</ele><time>2026-04-02T10:22:41.999Z</time></trkpt><trkpt lat="45.36366175055939" lon="10.620151966145595"><ele>152.39999999999998</ele><time>2026-04-02T10:22:42.999Z</time></trkpt><trkpt lat="45.36367397889116" lon="10.620248074617969"><ele>152.2</ele><time>2026-04-02T10:22:43.999Z</time></trkpt><trkpt lat="45.363729931321124" lon="10.620373867499575"><ele>152.0</ele><time>2026-04-02T10:22:45.999Z</time></trkpt><trkpt lat="45.3638057315623" lon="10.620475484052587"><ele>150.6</ele><time>2026-04-02T10:22:47.999Z</time></trkpt><trkpt lat="45.36386938704984" lon="10.620576137693545"><ele>149.2</ele><time>2026-04-02T10:22:49.999Z</time></trkpt><trkpt lat="45.363907151249585" lon="10.620762437414657"><ele>147.8</ele><time>2026-04-02T10:22:51.999Z</time></trkpt><trkpt lat="45.36392073803294" lon="10.620879270093841"><ele>146.4</ele><time>2026-04-02T10:22:52.999Z</time></trkpt><trkpt lat="45.36393596598149" lon="10.620988167629287"><ele>145.0</ele><time>2026-04-02T10:22:54Z</time></trkpt><trkpt lat="45.36394659435447" lon="10.621106893488708"><ele>144.8</ele><time>2026-04-02T10:22:55Z</time></trkpt><trkpt lat="45.36395291652825" lon="10.621238720855358"><ele>144.6</ele><time>2026-04-02T10:22:56Z</time></trkpt><trkpt lat="45.36394840227346" lon="10.62137610216436"><ele>144.4</ele><time>2026-04-02T10:22:57Z</time></trkpt><trkpt lat="45.36392565179952" lon="10.621530160544008"><ele>144.2</ele><time>2026-04-02T10:22:58Z</time></trkpt><trkpt lat="45.36388984555078" lon="10.621697256374357"><ele>144.0</ele><time>2026-04-02T10:22:59Z</time></trkpt><trkpt lat="45.363858727583626" lon="10.621846247606767"><ele>144.2</ele><time>2026-04-02T10:23:00Z</time></trkpt><trkpt lat="45.36385289234623" lon="10.62199388069186"><ele>144.4</ele><time>2026-04-02T10:23:01Z</time></trkpt><trkpt lat="45.36386115045531" lon="10.622138917452697"><ele>144.6</ele><time>2026-04-02T10:23:02Z</time></trkpt><trkpt lat="45.36387962221354" lon="10.62229056641195"><ele>144.8</ele><time>2026-04-02T10:23:03Z</time></trkpt><trkpt lat="45.36391513477969" lon="10.622426944821619"><ele>145.0</ele><time>2026-04-02T10:23:04Z</time></trkpt><trkpt lat="45.36396942220247" lon="10.62255187798638"><ele>145.0</ele><time>2026-04-02T10:23:05Z</time></trkpt><trkpt lat="45.36403273389513" lon="10.622677060400378"><ele>145.0</ele><time>2026-04-02T10:23:06Z</time></trkpt><trkpt lat="45.36408789076099" lon="10.622805616222493"><ele>145.0</ele><time>2026-04-02T10:23:07Z</time></trkpt><trkpt lat="45.36413476207346" lon="10.622925698149132"><ele>145.0</ele><time>2026-04-02T10:23:08Z</time></trkpt><trkpt lat="45.364183445590896" lon="10.623045454529437"><ele>145.0</ele><time>2026-04-02T10:23:09Z</time></trkpt><trkpt lat="45.364222771166666" lon="10.623166225275726"><ele>145.4</ele><time>2026-04-02T10:23:10Z</time></trkpt><trkpt lat="45.36423988928893" lon="10.62325891050146"><ele>145.8</ele><time>2026-04-02T10:23:11Z</time></trkpt><trkpt lat="45.36419325528723" lon="10.623382218007277"><ele>146.2</ele><time>2026-04-02T10:23:13Z</time></trkpt><trkpt lat="45.36412892625233" lon="10.623485786207196"><ele>146.6</ele><time>2026-04-02T10:23:14Z</time></trkpt><trkpt lat="45.36404919712045" lon="10.623598680645744"><ele>147.0</ele><time>2026-04-02T10:23:15Z</time></trkpt><trkpt lat="45.36396877449167" lon="10.623715822623643"><ele>147.0</ele><time>2026-04-02T10:23:16Z</time></trkpt><trkpt lat="45.363896844436496" lon="10.623838390486648"><ele>147.0</ele><time>2026-04-02T10:23:17Z</time></trkpt><trkpt lat="45.36382062633519" lon="10.623963479904724"><ele>147.0</ele><time>2026-04-02T10:23:18Z</time></trkpt><trkpt lat="45.36374790632699" lon="10.624116315954998"><ele>147.0</ele><time>2026-04-02T10:23:19Z</time></trkpt><trkpt lat="45.363679794691855" lon="10.624263509142965"><ele>147.6</ele><time>2026-04-02T10:23:20Z</time></trkpt><trkpt lat="45.363619073281214" lon="10.624396400534193"><ele>148.2</ele><time>2026-04-02T10:23:21Z</time></trkpt><trkpt lat="45.363582540856996" lon="10.624510466618828"><ele>148.8</ele><time>2026-04-02T10:23:22Z</time></trkpt><trkpt lat="45.36354736066077" lon="10.624608805953134"><ele>149.4</ele><time>2026-04-02T10:23:23Z</time></trkpt><trkpt lat="45.36350124248912" lon="10.624720880902847"><ele>150.0</ele><time>2026-04-02T10:23:24Z</time></trkpt><trkpt lat="45.36345229353664" lon="10.624831172326168"><ele>150.0</ele><time>2026-04-02T10:23:25Z</time></trkpt><trkpt lat="45.363398344731735" lon="10.624950482061191"><ele>150.0</ele><time>2026-04-02T10:23:26Z</time></trkpt><trkpt lat="45.36334038324798" lon="10.625080248345833"><ele>150.0</ele><time>2026-04-02T10:23:27Z</time></trkpt><trkpt lat="45.36326940806037" lon="10.625218715669629"><ele>150.0</ele><time>2026-04-02T10:23:28Z</time></trkpt><trkpt lat="45.36319332717818" lon="10.625361073019377"><ele>150.0</ele><time>2026-04-02T10:23:29Z</time></trkpt><trkpt lat="45.3631238110207" lon="10.625508027227243"><ele>150.0</ele><time>2026-04-02T10:23:30Z</time></trkpt><trkpt lat="45.36307722040274" lon="10.625642708285184"><ele>150.0</ele><time>2026-04-02T10:23:31Z</time></trkpt><trkpt lat="45.36305270795161" lon="10.62574999621652"><ele>150.0</ele><time>2026-04-02T10:23:32Z</time></trkpt><trkpt lat="45.363039906423474" lon="10.625857291906273"><ele>150.0</ele><time>2026-04-02T10:23:33Z</time></trkpt><trkpt lat="45.36304362633777" lon="10.625994599676641"><ele>150.0</ele><time>2026-04-02T10:23:34Z</time></trkpt><trkpt lat="45.36304696969926" lon="10.62614458549061"><ele>150.0</ele><time>2026-04-02T10:23:35Z</time></trkpt><trkpt lat="45.363054980243035" lon="10.626294214041156"><ele>150.0</ele><time>2026-04-02T10:23:36Z</time></trkpt><trkpt lat="45.36306539978737" lon="10.626456494377386"><ele>150.0</ele><time>2026-04-02T10:23:37Z</time></trkpt><trkpt lat="45.36306981943767" lon="10.62662128465397"><ele>150.0</ele><time>2026-04-02T10:23:38Z</time></trkpt><trkpt lat="45.36307837221087" lon="10.626774423075718"><ele>150.0</ele><time>2026-04-02T10:23:39Z</time></trkpt><trkpt lat="45.36308754842089" lon="10.626892870140091"><ele>150.0</ele><time>2026-04-02T10:23:40Z</time></trkpt><trkpt lat="45.36309074415553" lon="10.626997843515019"><ele>150.0</ele><time>2026-04-02T10:23:41Z</time></trkpt><trkpt lat="45.363069350958035" lon="10.627158852434299"><ele>150.0</ele><time>2026-04-02T10:23:43Z</time></trkpt><trkpt lat="45.36294319988341" lon="10.627242681274675"><ele>150.0</ele><time>2026-04-02T10:23:45Z</time></trkpt><trkpt lat="45.362854642002965" lon="10.627278762775267"><ele>150.5</ele><time>2026-04-02T10:23:46Z</time></trkpt><trkpt lat="45.3627678742511" lon="10.627326243741697"><ele>151.0</ele><time>2026-04-02T10:23:46.999Z</time></trkpt><trkpt lat="45.36268691744625" lon="10.627391259183906"><ele>151.5</ele><time>2026-04-02T10:23:47.999Z</time></trkpt><trkpt lat="45.36261059410173" lon="10.627466513174602"><ele>152.0</ele><time>2026-04-02T10:23:48.999Z</time></trkpt><trkpt lat="45.362539889021214" lon="10.627546022252373"><ele>152.5</ele><time>2026-04-02T10:23:49.999Z</time></trkpt><trkpt lat="45.3624788379172" lon="10.627610937272967"><ele>153.0</ele><time>2026-04-02T10:23:50.999Z</time></trkpt><trkpt lat="45.36239907234917" lon="10.62764692809012"><ele>153.0</ele><time>2026-04-02T10:23:52.999Z</time></trkpt><trkpt lat="45.36230703192536" lon="10.627609274369776"><ele>153.0</ele><time>2026-04-02T10:23:55.999Z</time></trkpt><trkpt lat="45.362230993671815" lon="10.62757349038477"><ele>153.0</ele><time>2026-04-02T10:23:58.999Z</time></trkpt><trkpt lat="45.36211385968732" lon="10.627513181601604"><ele>153.0</ele><time>2026-04-02T10:24:00.999Z</time></trkpt><trkpt lat="45.36201700936876" lon="10.627479907676921"><ele>153.0</ele><time>2026-04-02T10:24:01.999Z</time></trkpt><trkpt lat="45.36191615162225" lon="10.627443359018821"><ele>153.0</ele><time>2026-04-02T10:24:02.999Z</time></trkpt><trkpt lat="45.361811046029366" lon="10.627375605582861"><ele>153.0</ele><time>2026-04-02T10:24:03.999Z</time></trkpt><trkpt lat="45.36170266327673" lon="10.627292827008931"><ele>153.0</ele><time>2026-04-02T10:24:04.999Z</time></trkpt><trkpt lat="45.36159353003721" lon="10.627212254153763"><ele>153.0</ele><time>2026-04-02T10:24:05.999Z</time></trkpt><trkpt lat="45.3614811609827" lon="10.62712505392799"><ele>153.0</ele><time>2026-04-02T10:24:06.999Z</time></trkpt><trkpt lat="45.361369571894244" lon="10.62703289434591"><ele>153.0</ele><time>2026-04-02T10:24:07.999Z</time></trkpt><trkpt lat="45.36127182193162" lon="10.626952962649542"><ele>153.0</ele><time>2026-04-02T10:24:08.999Z</time></trkpt><trkpt lat="45.361177715808374" lon="10.62686853701495"><ele>153.0</ele><time>2026-04-02T10:24:09.999Z</time></trkpt><trkpt lat="45.36106587182287" lon="10.626766587364083"><ele>153.0</ele><time>2026-04-02T10:24:10.999Z</time></trkpt><trkpt lat="45.36096320859991" lon="10.626645839555067"><ele>153.0</ele><time>2026-04-02T10:24:11.999Z</time></trkpt><trkpt lat="45.36086252218639" lon="10.626539921946756"><ele>153.0</ele><time>2026-04-02T10:24:12.999Z</time></trkpt><trkpt lat="45.36078098833854" lon="10.626452736559203"><ele>153.0</ele><time>2026-04-02T10:24:13.999Z</time></trkpt><trkpt lat="45.360704273518444" lon="10.626371649180518"><ele>153.0</ele><time>2026-04-02T10:24:14.999Z</time></trkpt><trkpt lat="45.36062706525726" lon="10.626297283265142"><ele>153.0</ele><time>2026-04-02T10:24:15.999Z</time></trkpt><trkpt lat="45.36054691790399" lon="10.626218530354324"><ele>153.0</ele><time>2026-04-02T10:24:16.999Z</time></trkpt><trkpt lat="45.36046813421854" lon="10.626134894407778"><ele>153.0</ele><time>2026-04-02T10:24:17.999Z</time></trkpt><trkpt lat="45.36038437937977" lon="10.626048483653507"><ele>153.0</ele><time>2026-04-02T10:24:18.999Z</time></trkpt><trkpt lat="45.36030328609608" lon="10.625972397158295"><ele>152.20000000000002</ele><time>2026-04-02T10:24:19.999Z</time></trkpt><trkpt lat="45.36022319600416" lon="10.62590429186738"><ele>151.4</ele><time>2026-04-02T10:24:20.999Z</time></trkpt><trkpt lat="45.36013633609674" lon="10.62584349735538"><ele>150.60000000000002</ele><time>2026-04-02T10:24:21.999Z</time></trkpt><trkpt lat="45.360042228389645" lon="10.62579473839683"><ele>149.8</ele><time>2026-04-02T10:24:22.999Z</time></trkpt><trkpt lat="45.35994984240356" lon="10.625748661331354"><ele>149.0</ele><time>2026-04-02T10:24:23.999Z</time></trkpt><trkpt lat="45.3598623690756" lon="10.625702615300728"><ele>149.0</ele><time>2026-04-02T10:24:24.999Z</time></trkpt><trkpt lat="45.359777987615985" lon="10.625660731889168"><ele>149.0</ele><time>2026-04-02T10:24:25.999Z</time></trkpt><trkpt lat="45.35970084382745" lon="10.625618129623643"><ele>149.0</ele><time>2026-04-02T10:24:26.999Z</time></trkpt><trkpt lat="45.35962619291623" lon="10.625577015696251"><ele>149.0</ele><time>2026-04-02T10:24:27.999Z</time></trkpt><trkpt lat="45.35955717444974" lon="10.625537747257702"><ele>149.0</ele><time>2026-04-02T10:24:28.999Z</time></trkpt><trkpt lat="45.35947896451042" lon="10.625501658765465"><ele>149.0</ele><time>2026-04-02T10:24:30.999Z</time></trkpt><trkpt lat="45.35941374019175" lon="10.625484146310114"><ele>148.75</ele><time>2026-04-02T10:24:39.999Z</time></trkpt><trkpt lat="45.35929949175171" lon="10.62551723792396"><ele>148.5</ele><time>2026-04-02T10:24:41.999Z</time></trkpt><trkpt lat="45.35935085789626" lon="10.625767330220025"><ele>148.25</ele><time>2026-04-02T10:24:42.999Z</time></trkpt><trkpt lat="45.35934941792454" lon="10.625890162484538"><ele>148.0</ele><time>2026-04-02T10:24:43.999Z</time></trkpt><trkpt lat="45.35934302868899" lon="10.626032999794061"><ele>147.0</ele><time>2026-04-02T10:24:44.999Z</time></trkpt><trkpt lat="45.35933346884969" lon="10.626187918729242"><ele>146.0</ele><time>2026-04-02T10:24:45.999Z</time></trkpt><trkpt lat="45.35932271086396" lon="10.626358374050085"><ele>145.0</ele><time>2026-04-02T10:24:46.999Z</time></trkpt><trkpt lat="45.35931329611004" lon="10.626537769722203"><ele>144.0</ele><time>2026-04-02T10:24:47.999Z</time></trkpt><trkpt lat="45.35930443647695" lon="10.626709355593928"><ele>144.0</ele><time>2026-04-02T10:24:48.999Z</time></trkpt><trkpt lat="45.359293463994454" lon="10.626881050600373"><ele>144.0</ele><time>2026-04-02T10:24:49.999Z</time></trkpt><trkpt lat="45.359285929248635" lon="10.627057936538574"><ele>144.0</ele><time>2026-04-02T10:24:50.999Z</time></trkpt><trkpt lat="45.359273533203606" lon="10.627237953047288"><ele>144.0</ele><time>2026-04-02T10:24:51.999Z</time></trkpt><trkpt lat="45.35926265654698" lon="10.627425511843485"><ele>144.0</ele><time>2026-04-02T10:24:52.999Z</time></trkpt><trkpt lat="45.359251849094335" lon="10.627618653375523"><ele>144.0</ele><time>2026-04-02T10:24:53.999Z</time></trkpt><trkpt lat="45.35923627833005" lon="10.627815547741587"><ele>144.0</ele><time>2026-04-02T10:24:54.999Z</time></trkpt><trkpt lat="45.35921762482061" lon="10.628019793816925"><ele>144.0</ele><time>2026-04-02T10:24:55.999Z</time></trkpt><trkpt lat="45.359196987419836" lon="10.628227577727056"><ele>143.33333333333334</ele><time>2026-04-02T10:24:56.999Z</time></trkpt><trkpt lat="45.35917422226406" lon="10.628444983568498"><ele>142.66666666666669</ele><time>2026-04-02T10:24:57.999Z</time></trkpt><trkpt lat="45.3591497286442" lon="10.628667775059654"><ele>142.0</ele><time>2026-04-02T10:24:58.999Z</time></trkpt><trkpt lat="45.359124904514296" lon="10.62889332879396"><ele>141.33333333333334</ele><time>2026-04-02T10:25:00Z</time></trkpt><trkpt lat="45.35910001348085" lon="10.629117820119628"><ele>140.66666666666666</ele><time>2026-04-02T10:25:01Z</time></trkpt><trkpt lat="45.35907524936583" lon="10.629339070113618"><ele>140.0</ele><time>2026-04-02T10:25:02Z</time></trkpt><trkpt lat="45.35905094133567" lon="10.629559743749091"><ele>139.66666666666666</ele><time>2026-04-02T10:25:03Z</time></trkpt><trkpt lat="45.35902429321233" lon="10.629776806393537"><ele>139.33333333333334</ele><time>2026-04-02T10:25:04Z</time></trkpt><trkpt lat="45.358999581750254" lon="10.629991302592053"><ele>139.0</ele><time>2026-04-02T10:25:05Z</time></trkpt><trkpt lat="45.35897662322001" lon="10.630207115042726"><ele>138.0</ele><time>2026-04-02T10:25:06Z</time></trkpt><trkpt lat="45.35895402748678" lon="10.630417682842602"><ele>137.0</ele><time>2026-04-02T10:25:07Z</time></trkpt><trkpt lat="45.35893435356431" lon="10.630623211603519"><ele>136.0</ele><time>2026-04-02T10:25:08Z</time></trkpt><trkpt lat="45.35891065206837" lon="10.630827233442472"><ele>135.0</ele><time>2026-04-02T10:25:09Z</time></trkpt><trkpt lat="45.358885327771596" lon="10.631028667928035"><ele>135.0</ele><time>2026-04-02T10:25:10Z</time></trkpt><trkpt lat="45.35886099821195" lon="10.631229341790414"><ele>135.0</ele><time>2026-04-02T10:25:11Z</time></trkpt><trkpt lat="45.35883936913139" lon="10.631428367278989"><ele>135.0</ele><time>2026-04-02T10:25:12Z</time></trkpt><trkpt lat="45.358820039149926" lon="10.631629193149811"><ele>135.0</ele><time>2026-04-02T10:25:13Z</time></trkpt><trkpt lat="45.35880134504809" lon="10.631830899419933"><ele>134.75</ele><time>2026-04-02T10:25:14Z</time></trkpt><trkpt lat="45.35878234448486" lon="10.632029487205443"><ele>134.5</ele><time>2026-04-02T10:25:15Z</time></trkpt><trkpt lat="45.35876430475172" lon="10.632226106777777"><ele>134.25</ele><time>2026-04-02T10:25:16Z</time></trkpt><trkpt lat="45.35874779105623" lon="10.63240274401866"><ele>134.0</ele><time>2026-04-02T10:25:17Z</time></trkpt><trkpt lat="45.358732029602336" lon="10.632566072354047"><ele>134.0</ele><time>2026-04-02T10:25:18Z</time></trkpt><trkpt lat="45.35871761902594" lon="10.63271454331856"><ele>134.0</ele><time>2026-04-02T10:25:19Z</time></trkpt><trkpt lat="45.358698544781355" lon="10.632849622889877"><ele>134.0</ele><time>2026-04-02T10:25:20Z</time></trkpt><trkpt lat="45.35868398810331" lon="10.632968863952792"><ele>134.0</ele><time>2026-04-02T10:25:21Z</time></trkpt><trkpt lat="45.35867430289934" lon="10.633076066705028"><ele>134.0</ele><time>2026-04-02T10:25:22Z</time></trkpt><trkpt lat="45.3586653213632" lon="10.633175480831275"><ele>134.0</ele><time>2026-04-02T10:25:23Z</time></trkpt><trkpt lat="45.3586559055014" lon="10.633279702081282"><ele>133.8</ele><time>2026-04-02T10:25:24Z</time></trkpt><trkpt lat="45.358646091387556" lon="10.633388331550808"><ele>133.60000000000002</ele><time>2026-04-02T10:25:25Z</time></trkpt><trkpt lat="45.358636503847464" lon="10.633494453256372"><ele>133.4</ele><time>2026-04-02T10:25:26Z</time></trkpt><trkpt lat="45.358591013546004" lon="10.63360574923252"><ele>133.20000000000002</ele><time>2026-04-02T10:25:27Z</time></trkpt><trkpt lat="45.358560934650654" lon="10.633720225261843"><ele>133.0</ele><time>2026-04-02T10:25:28Z</time></trkpt><trkpt lat="45.358110220626166" lon="10.633764443538741"><ele>132.0</ele><time>2026-04-02T10:25:29Z</time></trkpt><trkpt lat="45.35804286312753" lon="10.633919035004789"><ele>131.0</ele><time>2026-04-02T10:25:30Z</time></trkpt><trkpt lat="45.35796265214404" lon="10.634115208712453"><ele>130.0</ele><time>2026-04-02T10:25:31Z</time></trkpt><trkpt lat="45.35788005355767" lon="10.634309310584696"><ele>129.0</ele><time>2026-04-02T10:25:32Z</time></trkpt><trkpt lat="45.35779295773558" lon="10.634488217429217"><ele>127.66666666666666</ele><time>2026-04-02T10:25:33Z</time></trkpt><trkpt lat="45.35770270414145" lon="10.634683185523947"><ele>126.33333333333333</ele><time>2026-04-02T10:25:34Z</time></trkpt><trkpt lat="45.357616485870516" lon="10.634876290067806"><ele>125.0</ele><time>2026-04-02T10:25:35Z</time></trkpt><trkpt lat="45.35753048310298" lon="10.635036848840972"><ele>125.0</ele><time>2026-04-02T10:25:36Z</time></trkpt><trkpt lat="45.357439349537906" lon="10.635184244961756"><ele>125.0</ele><time>2026-04-02T10:25:37Z</time></trkpt><trkpt lat="45.35735363706939" lon="10.63533557019016"><ele>125.0</ele><time>2026-04-02T10:25:38Z</time></trkpt><trkpt lat="45.357274559474924" lon="10.635501342386181"><ele>125.0</ele><time>2026-04-02T10:25:39Z</time></trkpt><trkpt lat="45.35720348190676" lon="10.635669030340512"><ele>124.75</ele><time>2026-04-02T10:25:40Z</time></trkpt><trkpt lat="45.35714188835519" lon="10.635821927648927"><ele>124.5</ele><time>2026-04-02T10:25:41Z</time></trkpt><trkpt lat="45.35708697832222" lon="10.635967511842315"><ele>124.25</ele><time>2026-04-02T10:25:42Z</time></trkpt><trkpt lat="45.35703276038452" lon="10.636114634243699"><ele>124.0</ele><time>2026-04-02T10:25:43Z</time></trkpt><trkpt lat="45.356972994025526" lon="10.63626879273558"><ele>124.0</ele><time>2026-04-02T10:25:44Z</time></trkpt><trkpt lat="45.356897596817326" lon="10.636417221684887"><ele>124.0</ele><time>2026-04-02T10:25:45Z</time></trkpt><trkpt lat="45.356802797937505" lon="10.63654756411824"><ele>124.0</ele><time>2026-04-02T10:25:46Z</time></trkpt><trkpt lat="45.356708503853916" lon="10.63667504844072"><ele>124.0</ele><time>2026-04-02T10:25:47Z</time></trkpt><trkpt lat="45.35661892664132" lon="10.636802372949555"><ele>124.0</ele><time>2026-04-02T10:25:48Z</time></trkpt><trkpt lat="45.35652409691737" lon="10.6369400524785"><ele>124.0</ele><time>2026-04-02T10:25:49Z</time></trkpt><trkpt lat="45.35642058788545" lon="10.637090626192258"><ele>124.0</ele><time>2026-04-02T10:25:50Z</time></trkpt><trkpt lat="45.356306303824795" lon="10.637234791149686"><ele>124.0</ele><time>2026-04-02T10:25:51Z</time></trkpt><trkpt lat="45.35618995867336" lon="10.63737367531225"><ele>123.0</ele><time>2026-04-02T10:25:52Z</time></trkpt><trkpt lat="45.35607086510198" lon="10.63751213874146"><ele>122.0</ele><time>2026-04-02T10:25:53Z</time></trkpt><trkpt lat="45.35594450965054" lon="10.637655120664409"><ele>121.0</ele><time>2026-04-02T10:25:54Z</time></trkpt><trkpt lat="45.35581882362637" lon="10.63780697928383"><ele>120.5</ele><time>2026-04-02T10:25:55Z</time></trkpt><trkpt lat="45.35570399818556" lon="10.637953212605227"><ele>120.0</ele><time>2026-04-02T10:25:55.999Z</time></trkpt><trkpt lat="45.35560781076552" lon="10.638077846620812"><ele>119.5</ele><time>2026-04-02T10:25:57Z</time></trkpt><trkpt lat="45.355514231491675" lon="10.638181661103273"><ele>119.0</ele><time>2026-04-02T10:25:57.999Z</time></trkpt><trkpt lat="45.35539977073082" lon="10.638266872227833"><ele>118.75</ele><time>2026-04-02T10:25:58.999Z</time></trkpt><trkpt lat="45.35526585965486" lon="10.638356993553542"><ele>118.5</ele><time>2026-04-02T10:25:59.999Z</time></trkpt><trkpt lat="45.35514632421684" lon="10.638446593524533"><ele>118.25</ele><time>2026-04-02T10:26:00.999Z</time></trkpt><trkpt lat="45.35503735545679" lon="10.638556570537949"><ele>118.0</ele><time>2026-04-02T10:26:01.999Z</time></trkpt><trkpt lat="45.35494023209538" lon="10.638688494837993"><ele>118.0</ele><time>2026-04-02T10:26:02.999Z</time></trkpt><trkpt lat="45.35485970443436" lon="10.638805329656996"><ele>118.00000000000001</ele><time>2026-04-02T10:26:03.999Z</time></trkpt><trkpt lat="45.35479215933367" lon="10.63890702116544"><ele>118.00000000000001</ele><time>2026-04-02T10:26:04.999Z</time></trkpt><trkpt lat="45.35473348638604" lon="10.638997445406208"><ele>118.0</ele><time>2026-04-02T10:26:05.999Z</time></trkpt><trkpt lat="45.354664042977184" lon="10.639113280251696"><ele>118.0</ele><time>2026-04-02T10:26:07.999Z</time></trkpt><trkpt lat="45.35464926209904" lon="10.63920803631938"><ele>118.4</ele><time>2026-04-02T10:26:11.999Z</time></trkpt><trkpt lat="45.35474830531514" lon="10.639297957834899"><ele>118.80000000000001</ele><time>2026-04-02T10:26:13.999Z</time></trkpt><trkpt lat="45.354822694497116" lon="10.63931632179454"><ele>119.2</ele><time>2026-04-02T10:26:14.999Z</time></trkpt><trkpt lat="45.354902997694246" lon="10.63940205583771"><ele>119.6</ele><time>2026-04-02T10:26:15.999Z</time></trkpt><trkpt lat="45.354963621871605" lon="10.639531403472512"><ele>120.0</ele><time>2026-04-02T10:26:16.999Z</time></trkpt><trkpt lat="45.35503238324667" lon="10.63970627824262"><ele>120.25</ele><time>2026-04-02T10:26:17.999Z</time></trkpt><trkpt lat="45.355084250911155" lon="10.639897977499896"><ele>120.5</ele><time>2026-04-02T10:26:18.999Z</time></trkpt><trkpt lat="45.355141110460714" lon="10.640082462791927"><ele>120.75</ele><time>2026-04-02T10:26:19.999Z</time></trkpt><trkpt lat="45.355204304427055" lon="10.640255135517693"><ele>121.0</ele><time>2026-04-02T10:26:20.999Z</time></trkpt><trkpt lat="45.35530709844655" lon="10.640397645450614"><ele>121.25</ele><time>2026-04-02T10:26:21.999Z</time></trkpt><trkpt lat="45.35541388351767" lon="10.640516136181759"><ele>121.5</ele><time>2026-04-02T10:26:22.999Z</time></trkpt><trkpt lat="45.355525061342234" lon="10.640626347627425"><ele>121.75</ele><time>2026-04-02T10:26:23.999Z</time></trkpt><trkpt lat="45.35562584849747" lon="10.640738282764138"><ele>122.0</ele><time>2026-04-02T10:26:24.999Z</time></trkpt><trkpt lat="45.35572867049543" lon="10.640837683980617"><ele>122.19999999999999</ele><time>2026-04-02T10:26:25.999Z</time></trkpt><trkpt lat="45.355815344093415" lon="10.64092326128601"><ele>122.39999999999999</ele><time>2026-04-02T10:26:26.999Z</time></trkpt><trkpt lat="45.35588358827657" lon="10.641025454337258"><ele>122.60000000000001</ele><time>2026-04-02T10:26:27.999Z</time></trkpt><trkpt lat="45.355925984872364" lon="10.641154730491056"><ele>122.80000000000001</ele><time>2026-04-02T10:26:28.999Z</time></trkpt><trkpt lat="45.355951202354355" lon="10.641310359039045"><ele>123.0</ele><time>2026-04-02T10:26:29.999Z</time></trkpt><trkpt lat="45.35595957971328" lon="10.641465988432769"><ele>123.0</ele><time>2026-04-02T10:26:30.999Z</time></trkpt><trkpt lat="45.355932854343244" lon="10.641618882432834"><ele>123.0</ele><time>2026-04-02T10:26:31.999Z</time></trkpt><trkpt lat="45.355871188979094" lon="10.641758933927317"><ele>123.0</ele><time>2026-04-02T10:26:32.999Z</time></trkpt><trkpt lat="45.35577280655102" lon="10.641894072580005"><ele>123.0</ele><time>2026-04-02T10:26:33.999Z</time></trkpt><trkpt lat="45.35568158753479" lon="10.6420320020913"><ele>122.5</ele><time>2026-04-02T10:26:34.999Z</time></trkpt><trkpt lat="45.35557978990916" lon="10.642180913751785"><ele>122.0</ele><time>2026-04-02T10:26:35.999Z</time></trkpt><trkpt lat="45.35549051657364" lon="10.642351608315675"><ele>121.5</ele><time>2026-04-02T10:26:36.999Z</time></trkpt><trkpt lat="45.35540620315517" lon="10.64252709297315"><ele>121.0</ele><time>2026-04-02T10:26:37.999Z</time></trkpt><trkpt lat="45.355331894134686" lon="10.642700704882555"><ele>120.4</ele><time>2026-04-02T10:26:38.999Z</time></trkpt><trkpt lat="45.355283177443994" lon="10.642874535535736"><ele>119.8</ele><time>2026-04-02T10:26:39.999Z</time></trkpt><trkpt lat="45.355261775297286" lon="10.643023588363452"><ele>119.20000000000002</ele><time>2026-04-02T10:26:40.999Z</time></trkpt><trkpt lat="45.355237656535174" lon="10.643152877539107"><ele>118.60000000000001</ele><time>2026-04-02T10:26:41.999Z</time></trkpt><trkpt lat="45.35521677523737" lon="10.643267295889627"><ele>118.0</ele><time>2026-04-02T10:26:42.999Z</time></trkpt><trkpt lat="45.355183417232375" lon="10.643416451867639"><ele>118.0</ele><time>2026-04-02T10:26:44.999Z</time></trkpt><trkpt lat="45.355046270304676" lon="10.643422831985378"><ele>118.00000000000001</ele><time>2026-04-02T10:26:47.999Z</time></trkpt><trkpt lat="45.35496909834629" lon="10.64340079224522"><ele>118.00000000000001</ele><time>2026-04-02T10:26:48.999Z</time></trkpt><trkpt lat="45.35486764859412" lon="10.643408557796775"><ele>118.0</ele><time>2026-04-02T10:26:50.999Z</time></trkpt><trkpt lat="45.35478773436483" lon="10.643454617249823"><ele>118.0</ele><time>2026-04-02T10:26:52.999Z</time></trkpt><trkpt lat="45.35472297635893" lon="10.643473598824569"><ele>118.0</ele><time>2026-04-02T10:26:55.999Z</time></trkpt><trkpt lat="45.35483365765115" lon="10.643450249264754"><ele>118.00000000000001</ele><time>2026-04-02T10:26:58.999Z</time></trkpt><trkpt lat="45.354921190617965" lon="10.643427552931367"><ele>118.00000000000001</ele><time>2026-04-02T10:26:59.999Z</time></trkpt><trkpt lat="45.355022241182134" lon="10.643445048330527"><ele>118.0</ele><time>2026-04-02T10:27:00.999Z</time></trkpt><trkpt lat="45.35512462472909" lon="10.643482808647622"><ele>118.0</ele><time>2026-04-02T10:27:01.999Z</time></trkpt><trkpt lat="45.35523150985163" lon="10.643540871473643"><ele>118.0</ele><time>2026-04-02T10:27:02.999Z</time></trkpt><trkpt lat="45.355339073777486" lon="10.643612840328695"><ele>118.0</ele><time>2026-04-02T10:27:03.999Z</time></trkpt><trkpt lat="45.35546383078905" lon="10.643690048330582"><ele>118.0</ele><time>2026-04-02T10:27:04.999Z</time></trkpt><trkpt lat="45.35561188430128" lon="10.643772968074765"><ele>118.0</ele><time>2026-04-02T10:27:06Z</time></trkpt><trkpt lat="45.35579567473434" lon="10.643872058743758"><ele>119.0</ele><time>2026-04-02T10:27:07Z</time></trkpt><trkpt lat="45.355996840980445" lon="10.643978224688304"><ele>120.0</ele><time>2026-04-02T10:27:08Z</time></trkpt><trkpt lat="45.356224581340605" lon="10.6441118652725"><ele>119.5</ele><time>2026-04-02T10:27:09Z</time></trkpt><trkpt lat="45.35650218926949" lon="10.644177627392779"><ele>119.0</ele><time>2026-04-02T10:27:10Z</time></trkpt><trkpt lat="45.356736707509235" lon="10.644192855340487"><ele>119.0</ele><time>2026-04-02T10:27:11Z</time></trkpt><trkpt lat="45.35691924100452" lon="10.644192909076969"><ele>119.0</ele><time>2026-04-02T10:27:12Z</time></trkpt><trkpt lat="45.357049171301156" lon="10.644198355563512"><ele>119.0</ele><time>2026-04-02T10:27:13Z</time></trkpt><trkpt lat="45.35716979546479" lon="10.644184262637104"><ele>119.0</ele><time>2026-04-02T10:27:14Z</time></trkpt><trkpt lat="45.357283718188704" lon="10.644207994159796"><ele>119.2</ele><time>2026-04-02T10:27:15Z</time></trkpt><trkpt lat="45.35738278555031" lon="10.644246895555872"><ele>119.4</ele><time>2026-04-02T10:27:16Z</time></trkpt><trkpt lat="45.35746880624612" lon="10.644288611528891"><ele>119.6</ele><time>2026-04-02T10:27:17Z</time></trkpt><trkpt lat="45.35753135853964" lon="10.64430769849617"><ele>119.8</ele><time>2026-04-02T10:27:18Z</time></trkpt><trkpt lat="45.357607758724086" lon="10.64431692440816"><ele>120.0</ele><time>2026-04-02T10:27:20Z</time></trkpt><trkpt lat="45.35773950480133" lon="10.64410122913839"><ele>120.0</ele><time>2026-04-02T10:27:23Z</time></trkpt><trkpt lat="45.35775567248709" lon="10.6439801107143"><ele>120.0</ele><time>2026-04-02T10:27:24Z</time></trkpt><trkpt lat="45.3577694773864" lon="10.643870078674587"><ele>120.0</ele><time>2026-04-02T10:27:25Z</time></trkpt><trkpt lat="45.357784579997194" lon="10.643752905551095"><ele>120.0</ele><time>2026-04-02T10:27:26Z</time></trkpt><trkpt lat="45.3578008362851" lon="10.643626781842936"><ele>120.0</ele><time>2026-04-02T10:27:27Z</time></trkpt><trkpt lat="45.35781818848592" lon="10.643492002710357"><ele>120.0</ele><time>2026-04-02T10:27:28Z</time></trkpt><trkpt lat="45.35783556776479" lon="10.643351903847075"><ele>120.25</ele><time>2026-04-02T10:27:29Z</time></trkpt><trkpt lat="45.3578545017752" lon="10.643199272007168"><ele>120.5</ele><time>2026-04-02T10:27:30Z</time></trkpt><trkpt lat="45.35787417623877" lon="10.64304067093563"><ele>120.75</ele><time>2026-04-02T10:27:31Z</time></trkpt><trkpt lat="45.357894309803555" lon="10.642871455508226"><ele>121.0</ele><time>2026-04-02T10:27:32Z</time></trkpt><trkpt lat="45.35791556829233" lon="10.642691015090874"><ele>121.5</ele><time>2026-04-02T10:27:33Z</time></trkpt><trkpt lat="45.35793711834917" lon="10.642496400191677"><ele>122.0</ele><time>2026-04-02T10:27:34Z</time></trkpt><trkpt lat="45.35795827161815" lon="10.642289459331472"><ele>122.5</ele><time>2026-04-02T10:27:35Z</time></trkpt><trkpt lat="45.35797777471115" lon="10.642081928303913"><ele>123.0</ele><time>2026-04-02T10:27:36Z</time></trkpt><trkpt lat="45.35799653528522" lon="10.64187254941388"><ele>123.33333333333334</ele><time>2026-04-02T10:27:37Z</time></trkpt><trkpt lat="45.35801442592635" lon="10.641665524323633"><ele>123.66666666666667</ele><time>2026-04-02T10:27:38Z</time></trkpt><trkpt lat="45.358032556968624" lon="10.6414550932056"><ele>124.0</ele><time>2026-04-02T10:27:39Z</time></trkpt><trkpt lat="45.35805167906916" lon="10.641235384674044"><ele>127.0</ele><time>2026-04-02T10:27:40Z</time></trkpt><trkpt lat="45.35807157796266" lon="10.641013733043971"><ele>130.0</ele><time>2026-04-02T10:27:41Z</time></trkpt><trkpt lat="45.3580914610557" lon="10.640792257313405"><ele>133.0</ele><time>2026-04-02T10:27:42Z</time></trkpt><trkpt lat="45.35811140996192" lon="10.64057004884465"><ele>133.0</ele><time>2026-04-02T10:27:43Z</time></trkpt><trkpt lat="45.35813175505911" lon="10.640343427015122"><ele>133.0</ele><time>2026-04-02T10:27:44Z</time></trkpt><trkpt lat="45.35815215951716" lon="10.640116144036876"><ele>133.0</ele><time>2026-04-02T10:27:45Z</time></trkpt><trkpt lat="45.35817030724086" lon="10.639913998560472"><ele>132.0</ele><time>2026-04-02T10:27:46Z</time></trkpt><trkpt lat="45.35818842825769" lon="10.639712150021165"><ele>131.0</ele><time>2026-04-02T10:27:47Z</time></trkpt><trkpt lat="45.35820645987404" lon="10.639504385526612"><ele>130.0</ele><time>2026-04-02T10:27:48Z</time></trkpt><trkpt lat="45.35822509056516" lon="10.639290132507519"><ele>129.0</ele><time>2026-04-02T10:27:49Z</time></trkpt><trkpt lat="45.35824370521225" lon="10.639076064072494"><ele>128.75</ele><time>2026-04-02T10:27:50Z</time></trkpt><trkpt lat="45.35826166432144" lon="10.638869534382932"><ele>128.5</ele><time>2026-04-02T10:27:51Z</time></trkpt><trkpt lat="45.35827936213222" lon="10.638666009524105"><ele>128.25</ele><time>2026-04-02T10:27:52Z</time></trkpt><trkpt lat="45.3582969263268" lon="10.638464021268469"><ele>128.0</ele><time>2026-04-02T10:27:53Z</time></trkpt><trkpt lat="45.35831504065555" lon="10.638255706402457"><ele>128.0</ele><time>2026-04-02T10:27:54Z</time></trkpt><trkpt lat="45.35833312315241" lon="10.638047757714121"><ele>128.0</ele><time>2026-04-02T10:27:55Z</time></trkpt><trkpt lat="45.35833431484309" lon="10.637843842093828"><ele>128.0</ele><time>2026-04-02T10:27:56Z</time></trkpt><trkpt lat="45.358367343125664" lon="10.637651773722943"><ele>128.0</ele><time>2026-04-02T10:27:57Z</time></trkpt><trkpt lat="45.35838365571486" lon="10.637462484022118"><ele>128.4</ele><time>2026-04-02T10:27:58Z</time></trkpt><trkpt lat="45.35839825569596" lon="10.637293067347693"><ele>128.8</ele><time>2026-04-02T10:27:59Z</time></trkpt><trkpt lat="45.35841085399223" lon="10.637146877909231"><ele>129.2</ele><time>2026-04-02T10:28:00Z</time></trkpt><trkpt lat="45.35842149592342" lon="10.637023389894274"><ele>129.6</ele><time>2026-04-02T10:28:01Z</time></trkpt><trkpt lat="45.358430435933705" lon="10.63691965074729"><ele>130.0</ele><time>2026-04-02T10:28:02Z</time></trkpt><trkpt lat="45.3584397005062" lon="10.636799490900817"><ele>130.0</ele><time>2026-04-02T10:28:04Z</time></trkpt><trkpt lat="45.35851069494388" lon="10.636820263210636"><ele>130.0</ele><time>2026-04-02T10:28:06Z</time></trkpt><trkpt lat="45.35861186389791" lon="10.637012017152534"><ele>130.0</ele><time>2026-04-02T10:28:08Z</time></trkpt><trkpt lat="45.35865858814881" lon="10.637177866339574"><ele>130.0</ele><time>2026-04-02T10:28:09Z</time></trkpt><trkpt lat="45.358704508631114" lon="10.637352550233048"><ele>130.0</ele><time>2026-04-02T10:28:10Z</time></trkpt><trkpt lat="45.358748764007174" lon="10.637502813677807"><ele>130.0</ele><time>2026-04-02T10:28:11Z</time></trkpt><trkpt lat="45.35879147118114" lon="10.637631487307862"><ele>130.0</ele><time>2026-04-02T10:28:12Z</time></trkpt><trkpt lat="45.35883416782667" lon="10.637748424334932"><ele>130.0</ele><time>2026-04-02T10:28:13Z</time></trkpt><trkpt lat="45.35886316239996" lon="10.637831073919788"><ele>130.0</ele><time>2026-04-02T10:28:14Z</time></trkpt><trkpt lat="45.35901004725138" lon="10.638057369270296"><ele>130.6</ele><time>2026-04-02T10:30:26Z</time></trkpt><trkpt lat="45.35907256181695" lon="10.63814450023685"><ele>131.2</ele><time>2026-04-02T10:30:27Z</time></trkpt><trkpt lat="45.35912719031278" lon="10.63824736027327"><ele>131.8</ele><time>2026-04-02T10:30:28Z</time></trkpt><trkpt lat="45.359171310528865" lon="10.63836750580513"><ele>132.4</ele><time>2026-04-02T10:30:29Z</time></trkpt><trkpt lat="45.35921838788758" lon="10.638491247440337"><ele>133.0</ele><time>2026-04-02T10:30:30Z</time></trkpt><trkpt lat="45.359268696115535" lon="10.638612591508483"><ele>132.4</ele><time>2026-04-02T10:30:31Z</time></trkpt><trkpt lat="45.35931385971731" lon="10.638728156018864"><ele>131.8</ele><time>2026-04-02T10:30:32Z</time></trkpt><trkpt lat="45.35934971779032" lon="10.638820871438842"><ele>131.2</ele><time>2026-04-02T10:30:33Z</time></trkpt><trkpt lat="45.35939173981851" lon="10.638911853005917"><ele>130.6</ele><time>2026-04-02T10:30:35Z</time></trkpt><trkpt lat="45.35946897164534" lon="10.63917730530237"><ele>130.0</ele><time>2026-04-02T10:31:55Z</time></trkpt><trkpt lat="45.359496581196254" lon="10.639266445046502"><ele>130.0</ele><time>2026-04-02T10:31:56Z</time></trkpt><trkpt lat="45.359524721924686" lon="10.639353565402136"><ele>130.0</ele><time>2026-04-02T10:31:57Z</time></trkpt><trkpt lat="45.35956612556128" lon="10.639500853309524"><ele>130.0</ele><time>2026-04-02T10:31:59Z</time></trkpt><trkpt lat="45.35959357229723" lon="10.639633010853276"><ele>130.0</ele><time>2026-04-02T10:32:01Z</time></trkpt><trkpt lat="45.35964285573003" lon="10.639784813024761"><ele>130.0</ele><time>2026-04-02T10:32:03Z</time></trkpt><trkpt lat="45.35969205506788" lon="10.639858533363787"><ele>130.2</ele><time>2026-04-02T10:32:04Z</time></trkpt><trkpt lat="45.35971877763851" lon="10.639954348502096"><ele>130.4</ele><time>2026-04-02T10:32:05Z</time></trkpt><trkpt lat="45.359747935088585" lon="10.640073253881484"><ele>130.6</ele><time>2026-04-02T10:32:06Z</time></trkpt><trkpt lat="45.35978111810245" lon="10.640207980588801"><ele>130.8</ele><time>2026-04-02T10:32:07Z</time></trkpt><trkpt lat="45.359809374381484" lon="10.640352072650508"><ele>131.0</ele><time>2026-04-02T10:32:08Z</time></trkpt><trkpt lat="45.359824549036894" lon="10.64047532314123"><ele>131.0</ele><time>2026-04-02T10:32:09Z</time></trkpt><trkpt lat="45.35981049960701" lon="10.640585341451331"><ele>131.0</ele><time>2026-04-02T10:32:10Z</time></trkpt><trkpt lat="45.359785464590594" lon="10.64071680179597"><ele>131.0</ele><time>2026-04-02T10:32:11Z</time></trkpt><trkpt lat="45.35976465996452" lon="10.64086846688376"><ele>131.0</ele><time>2026-04-02T10:32:12Z</time></trkpt><trkpt lat="45.35975656404749" lon="10.641028973354576"><ele>131.0</ele><time>2026-04-02T10:32:13Z</time></trkpt><trkpt lat="45.35975525702125" lon="10.641168075687057"><ele>130.33333333333331</ele><time>2026-04-02T10:32:14Z</time></trkpt><trkpt lat="45.35974400438557" lon="10.641273380708247"><ele>129.66666666666666</ele><time>2026-04-02T10:32:15Z</time></trkpt><trkpt lat="45.35973632668617" lon="10.641365001336624"><ele>129.0</ele><time>2026-04-02T10:32:16Z</time></trkpt><trkpt lat="45.35971838423289" lon="10.641469320696109"><ele>128.33333333333334</ele><time>2026-04-02T10:32:17Z</time></trkpt><trkpt lat="45.35968085967533" lon="10.64158621336057"><ele>127.66666666666667</ele><time>2026-04-02T10:32:18Z</time></trkpt><trkpt lat="45.359619358267246" lon="10.641720746696356"><ele>127.0</ele><time>2026-04-02T10:32:19Z</time></trkpt><trkpt lat="45.35956979869836" lon="10.641866903987731"><ele>128.75</ele><time>2026-04-02T10:32:20Z</time></trkpt><trkpt lat="45.35954569274926" lon="10.64204216737932"><ele>130.5</ele><time>2026-04-02T10:32:21Z</time></trkpt><trkpt lat="45.3595321517934" lon="10.642252461006752"><ele>132.25</ele><time>2026-04-02T10:32:22Z</time></trkpt><trkpt lat="45.35952550128471" lon="10.642460933858917"><ele>134.0</ele><time>2026-04-02T10:32:23Z</time></trkpt><trkpt lat="45.359520656670526" lon="10.64263988048016"><ele>133.25</ele><time>2026-04-02T10:32:24Z</time></trkpt><trkpt lat="45.359516654683105" lon="10.642801877656911"><ele>132.5</ele><time>2026-04-02T10:32:25Z</time></trkpt><trkpt lat="45.35952049393109" lon="10.64295697811231"><ele>131.75</ele><time>2026-04-02T10:32:26Z</time></trkpt><trkpt lat="45.359530073630566" lon="10.643131853521904"><ele>131.0</ele><time>2026-04-02T10:32:27Z</time></trkpt><trkpt lat="45.35954651497054" lon="10.64330142939793"><ele>131.0</ele><time>2026-04-02T10:32:28Z</time></trkpt><trkpt lat="45.35956655274389" lon="10.643466547758159"><ele>131.0</ele><time>2026-04-02T10:32:29Z</time></trkpt><trkpt lat="45.359602790372534" lon="10.643629388708762"><ele>131.0</ele><time>2026-04-02T10:32:30Z</time></trkpt><trkpt lat="45.359645833131104" lon="10.643781479915122"><ele>131.0</ele><time>2026-04-02T10:32:31Z</time></trkpt><trkpt lat="45.35969265501153" lon="10.643924218993705"><ele>130.33333333333331</ele><time>2026-04-02T10:32:32Z</time></trkpt><trkpt lat="45.35973587157286" lon="10.644053514322021"><ele>129.66666666666666</ele><time>2026-04-02T10:32:33Z</time></trkpt><trkpt lat="45.35976507206158" lon="10.644157635661262"><ele>129.0</ele><time>2026-04-02T10:32:34Z</time></trkpt><trkpt lat="45.35978042863087" lon="10.644254791734173"><ele>128.33333333333334</ele><time>2026-04-02T10:32:35Z</time></trkpt><trkpt lat="45.35977465491715" lon="10.644346675388972"><ele>127.66666666666667</ele><time>2026-04-02T10:32:36Z</time></trkpt><trkpt lat="45.3597465869281" lon="10.644471122690454"><ele>127.0</ele><time>2026-04-02T10:32:38Z</time></trkpt><trkpt lat="45.35954549087721" lon="10.644516402972881"><ele>126.6</ele><time>2026-04-02T10:33:38.001Z</time></trkpt><trkpt lat="45.3594489197979" lon="10.644477384603608"><ele>126.19999999999999</ele><time>2026-04-02T10:33:39.001Z</time></trkpt><trkpt lat="45.35935268938349" lon="10.644444584766527"><ele>125.8</ele><time>2026-04-02T10:33:40.001Z</time></trkpt><trkpt lat="45.35925091239926" lon="10.644412250260228"><ele>125.4</ele><time>2026-04-02T10:33:41Z</time></trkpt><trkpt lat="45.35914107789232" lon="10.644378397084264"><ele>125.0</ele><time>2026-04-02T10:33:42Z</time></trkpt><trkpt lat="45.359026638112816" lon="10.644348730243735"><ele>124.75</ele><time>2026-04-02T10:33:43Z</time></trkpt><trkpt lat="45.35890517850393" lon="10.644316161485"><ele>124.5</ele><time>2026-04-02T10:33:44Z</time></trkpt><trkpt lat="45.358782881215554" lon="10.644281537724348"><ele>124.25</ele><time>2026-04-02T10:33:45Z</time></trkpt><trkpt lat="45.35865823466857" lon="10.644250565198634"><ele>124.0</ele><time>2026-04-02T10:33:46Z</time></trkpt><trkpt lat="45.3585338851351" lon="10.644223230235756"><ele>123.80000000000001</ele><time>2026-04-02T10:33:47Z</time></trkpt><trkpt lat="45.35841000647468" lon="10.644205397924539"><ele>123.60000000000001</ele><time>2026-04-02T10:33:48Z</time></trkpt><trkpt lat="45.35829032261786" lon="10.644189310751365"><ele>123.4</ele><time>2026-04-02T10:33:49Z</time></trkpt><trkpt lat="45.358184621374285" lon="10.644165559480891"><ele>123.2</ele><time>2026-04-02T10:33:50Z</time></trkpt><trkpt lat="45.3580901602925" lon="10.644137007884204"><ele>123.0</ele><time>2026-04-02T10:33:51Z</time></trkpt><trkpt lat="45.3580050296988" lon="10.64410338684781"><ele>122.5</ele><time>2026-04-02T10:33:52Z</time></trkpt><trkpt lat="45.35792620082998" lon="10.644072316320182"><ele>122.0</ele><time>2026-04-02T10:33:53Z</time></trkpt><trkpt lat="45.35785678591068" lon="10.644044709941937"><ele>121.5</ele><time>2026-04-02T10:33:54Z</time></trkpt><trkpt lat="45.35778839080821" lon="10.644023582924444"><ele>121.0</ele><time>2026-04-02T10:33:56Z</time></trkpt><trkpt lat="45.35772896448441" lon="10.644062048468365"><ele>120.5</ele><time>2026-04-02T10:34:06Z</time></trkpt><trkpt lat="45.357657200061695" lon="10.64418548512688"><ele>120.0</ele><time>2026-04-02T10:34:08Z</time></trkpt><trkpt lat="45.35763839020133" lon="10.64430511866878"><ele>120.0</ele><time>2026-04-02T10:34:09Z</time></trkpt><trkpt lat="45.35762349873425" lon="10.64443710103266"><ele>120.0</ele><time>2026-04-02T10:34:10Z</time></trkpt><trkpt lat="45.357607601313546" lon="10.644584036626606"><ele>120.0</ele><time>2026-04-02T10:34:11Z</time></trkpt><trkpt lat="45.3575890042377" lon="10.644736619011876"><ele>120.0</ele><time>2026-04-02T10:34:12Z</time></trkpt><trkpt lat="45.35756728126916" lon="10.644890741839442"><ele>120.0</ele><time>2026-04-02T10:34:13Z</time></trkpt><trkpt lat="45.35754676200873" lon="10.64505207162826"><ele>119.25</ele><time>2026-04-02T10:34:14Z</time></trkpt><trkpt lat="45.35752693123691" lon="10.6452229794797"><ele>118.5</ele><time>2026-04-02T10:34:15Z</time></trkpt><trkpt lat="45.357506582396965" lon="10.645394180275494"><ele>117.75</ele><time>2026-04-02T10:34:16Z</time></trkpt><trkpt lat="45.35748326483518" lon="10.645569817270177"><ele>117.0</ele><time>2026-04-02T10:34:17Z</time></trkpt><trkpt lat="45.35745596987961" lon="10.64575788819166"><ele>116.5</ele><time>2026-04-02T10:34:18Z</time></trkpt><trkpt lat="45.35742996777276" lon="10.645950864109727"><ele>116.0</ele><time>2026-04-02T10:34:19Z</time></trkpt><trkpt lat="45.357404585171345" lon="10.646145546845663"><ele>115.5</ele><time>2026-04-02T10:34:20Z</time></trkpt><trkpt lat="45.35737862591367" lon="10.64634195516319"><ele>115.0</ele><time>2026-04-02T10:34:21Z</time></trkpt><trkpt lat="45.35735391597369" lon="10.646540987826867"><ele>114.75</ele><time>2026-04-02T10:34:22Z</time></trkpt><trkpt lat="45.357329122445094" lon="10.646741089892371"><ele>114.5</ele><time>2026-04-02T10:34:23Z</time></trkpt><trkpt lat="45.35730205330453" lon="10.646943104261629"><ele>114.25</ele><time>2026-04-02T10:34:24Z</time></trkpt><trkpt lat="45.357274822713634" lon="10.647147876345109"><ele>114.0</ele><time>2026-04-02T10:34:25Z</time></trkpt><trkpt lat="45.357251077787915" lon="10.647353349072517"><ele>114.0</ele><time>2026-04-02T10:34:26Z</time></trkpt><trkpt lat="45.35722914696171" lon="10.647557934044032"><ele>114.0</ele><time>2026-04-02T10:34:27Z</time></trkpt><trkpt lat="45.35720136837881" lon="10.647764807900376"><ele>114.0</ele><time>2026-04-02T10:34:28Z</time></trkpt><trkpt lat="45.35716974362958" lon="10.64797650585005"><ele>114.0</ele><time>2026-04-02T10:34:29Z</time></trkpt><trkpt lat="45.35714053634149" lon="10.648187492445826"><ele>114.0</ele><time>2026-04-02T10:34:30Z</time></trkpt><trkpt lat="45.35711120006341" lon="10.648399869352867"><ele>114.0</ele><time>2026-04-02T10:34:31Z</time></trkpt><trkpt lat="45.35708119467505" lon="10.648615242188297"><ele>114.0</ele><time>2026-04-02T10:34:32Z</time></trkpt><trkpt lat="45.35705233603516" lon="10.648838725951157"><ele>113.75</ele><time>2026-04-02T10:34:33Z</time></trkpt><trkpt lat="45.357022822436065" lon="10.649057473675851"><ele>113.5</ele><time>2026-04-02T10:34:34Z</time></trkpt><trkpt lat="45.35699745450452" lon="10.64925921037044"><ele>113.25</ele><time>2026-04-02T10:34:35Z</time></trkpt><trkpt lat="45.35697249972011" lon="10.649450604712726"><ele>113.0</ele><time>2026-04-02T10:34:36Z</time></trkpt><trkpt lat="45.356947740193355" lon="10.649629207606255"><ele>112.60000000000001</ele><time>2026-04-02T10:34:37Z</time></trkpt><trkpt lat="45.35692615554724" lon="10.649798576728532"><ele>112.20000000000002</ele><time>2026-04-02T10:34:38Z</time></trkpt><trkpt lat="45.35690634481554" lon="10.649958831463586"><ele>111.8</ele><time>2026-04-02T10:34:39Z</time></trkpt><trkpt lat="45.35688570232351" lon="10.650108321826634"><ele>111.4</ele><time>2026-04-02T10:34:40Z</time></trkpt><trkpt lat="45.35686956157035" lon="10.650226946643716"><ele>111.0</ele><time>2026-04-02T10:34:41Z</time></trkpt><trkpt lat="45.3568391504913" lon="10.65035584433247"><ele>111.0</ele><time>2026-04-02T10:34:43Z</time></trkpt><trkpt lat="45.356800390576936" lon="10.650493386789924"><ele>111.0</ele><time>2026-04-02T10:34:47Z</time></trkpt><trkpt lat="45.35678352848612" lon="10.650587655612494"><ele>111.0</ele><time>2026-04-02T10:34:48Z</time></trkpt><trkpt lat="45.35679197273954" lon="10.650720691355176"><ele>111.0</ele><time>2026-04-02T10:34:49Z</time></trkpt><trkpt lat="45.35678191019109" lon="10.650862634144259"><ele>111.0</ele><time>2026-04-02T10:34:50Z</time></trkpt><trkpt lat="45.35676021914533" lon="10.6510177451094"><ele>110.0</ele><time>2026-04-02T10:34:51Z</time></trkpt><trkpt lat="45.35622247398523" lon="10.65110966109327"><ele>108.6</ele><time>2026-04-02T10:34:52Z</time></trkpt><trkpt lat="45.35615485680317" lon="10.651249348940123"><ele>107.2</ele><time>2026-04-02T10:34:53Z</time></trkpt><trkpt lat="45.35609785080238" lon="10.65136363314267"><ele>105.80000000000001</ele><time>2026-04-02T10:34:54Z</time></trkpt><trkpt lat="45.35604807477965" lon="10.651443109695606"><ele>104.4</ele><time>2026-04-02T10:34:55Z</time></trkpt><trkpt lat="45.35593278960423" lon="10.651488906723298"><ele>103.0</ele><time>2026-04-02T10:34:57Z</time></trkpt><trkpt lat="45.35584788999188" lon="10.651463643488386"><ele>103.0</ele><time>2026-04-02T10:34:58Z</time></trkpt><trkpt lat="45.35575320636779" lon="10.651409325291313"><ele>103.0</ele><time>2026-04-02T10:34:59Z</time></trkpt><trkpt lat="45.355666789250314" lon="10.651377940467937"><ele>103.0</ele><time>2026-04-02T10:35:00Z</time></trkpt><trkpt lat="45.3555761964027" lon="10.651339405649635"><ele>103.0</ele><time>2026-04-02T10:35:01Z</time></trkpt><trkpt lat="45.355487865331746" lon="10.651308557924212"><ele>103.0</ele><time>2026-04-02T10:35:02Z</time></trkpt><trkpt lat="45.35541393401642" lon="10.651312425065747"><ele>102.80000000000001</ele><time>2026-04-02T10:35:03Z</time></trkpt><trkpt lat="45.3553440084069" lon="10.651370926568461"><ele>102.6</ele><time>2026-04-02T10:35:04Z</time></trkpt><trkpt lat="45.355263136857076" lon="10.65145821777328"><ele>102.4</ele><time>2026-04-02T10:35:05Z</time></trkpt><trkpt lat="45.35518678506006" lon="10.651561506297556"><ele>102.19999999999999</ele><time>2026-04-02T10:35:06Z</time></trkpt><trkpt lat="45.35510703283504" lon="10.651692437858758"><ele>102.0</ele><time>2026-04-02T10:35:07Z</time></trkpt><trkpt lat="45.355041895589835" lon="10.651825356767556"><ele>102.0</ele><time>2026-04-02T10:35:08Z</time></trkpt><trkpt lat="45.3549904365492" lon="10.65192618602647"><ele>102.0</ele><time>2026-04-02T10:35:09Z</time></trkpt><trkpt lat="45.35487731206249" lon="10.651958884070499"><ele>102.0</ele><time>2026-04-02T10:35:11Z</time></trkpt><trkpt lat="45.354793056602986" lon="10.651925062725413"><ele>102.0</ele><time>2026-04-02T10:35:12Z</time></trkpt><trkpt lat="45.354695229332386" lon="10.651893248197299"><ele>102.0</ele><time>2026-04-02T10:35:13Z</time></trkpt><trkpt lat="45.35461679395212" lon="10.65187688349527"><ele>101.6</ele><time>2026-04-02T10:35:14Z</time></trkpt><trkpt lat="45.354520817982355" lon="10.651942332497192"><ele>101.19999999999999</ele><time>2026-04-02T10:35:16Z</time></trkpt><trkpt lat="45.354472997965644" lon="10.652037598829216"><ele>100.8</ele><time>2026-04-02T10:35:17Z</time></trkpt><trkpt lat="45.354409613038904" lon="10.652172858807177"><ele>100.4</ele><time>2026-04-02T10:35:18Z</time></trkpt><trkpt lat="45.35432547488019" lon="10.652313476510196"><ele>100.0</ele><time>2026-04-02T10:35:19Z</time></trkpt><trkpt lat="45.354239658668654" lon="10.652426220491778"><ele>100.0</ele><time>2026-04-02T10:35:20Z</time></trkpt><trkpt lat="45.35416605090734" lon="10.652554795769344"><ele>100.0</ele><time>2026-04-02T10:35:21Z</time></trkpt><trkpt lat="45.354111279710175" lon="10.652694850439724"><ele>100.0</ele><time>2026-04-02T10:35:22Z</time></trkpt><trkpt lat="45.354067575369605" lon="10.652806405869006"><ele>100.0</ele><time>2026-04-02T10:35:23Z</time></trkpt><trkpt lat="45.35395640865483" lon="10.652850230740105"><ele>100.0</ele><time>2026-04-02T10:35:25Z</time></trkpt><trkpt lat="45.353862351917535" lon="10.652804326822126"><ele>100.0</ele><time>2026-04-02T10:35:26Z</time></trkpt><trkpt lat="45.353748528698866" lon="10.652754677137361"><ele>100.0</ele><time>2026-04-02T10:35:27Z</time></trkpt><trkpt lat="45.353615498927994" lon="10.652699619745048"><ele>100.0</ele><time>2026-04-02T10:35:28Z</time></trkpt><trkpt lat="45.35349914888653" lon="10.652658141432681"><ele>100.0</ele><time>2026-04-02T10:35:29.001Z</time></trkpt><trkpt lat="45.35340704109853" lon="10.6526395206701"><ele>100.0</ele><time>2026-04-02T10:35:30.001Z</time></trkpt><trkpt lat="45.35333794191299" lon="10.652650897437011"><ele>100.0</ele><time>2026-04-02T10:35:31.001Z</time></trkpt><trkpt lat="45.35324117457015" lon="10.652693887849345"><ele>100.0</ele><time>2026-04-02T10:35:33.001Z</time></trkpt><trkpt lat="45.35322090434618" lon="10.652853296625183"><ele>100.0</ele><time>2026-04-02T10:35:35.001Z</time></trkpt><trkpt lat="45.3532343394315" lon="10.652988817564015"><ele>100.0</ele><time>2026-04-02T10:35:36.001Z</time></trkpt><trkpt lat="45.35323962692695" lon="10.653170853383303"><ele>99.66666666666667</ele><time>2026-04-02T10:35:37.001Z</time></trkpt><trkpt lat="45.35323277562206" lon="10.653379249374053"><ele>99.33333333333334</ele><time>2026-04-02T10:35:38.001Z</time></trkpt><trkpt lat="45.353216116722514" lon="10.653616304935467"><ele>99.0</ele><time>2026-04-02T10:35:39.001Z</time></trkpt><trkpt lat="45.35320370732317" lon="10.653810930998137"><ele>99.0</ele><time>2026-04-02T10:35:40.001Z</time></trkpt><trkpt lat="45.353194336898426" lon="10.653944699286935"><ele>99.0</ele><time>2026-04-02T10:35:41.001Z</time></trkpt><trkpt lat="45.353165021949984" lon="10.654057897625483"><ele>99.0</ele><time>2026-04-02T10:35:43.001Z</time></trkpt><trkpt lat="45.35304343690569" lon="10.654070480614314"><ele>99.0</ele><time>2026-04-02T10:35:45.001Z</time></trkpt><trkpt lat="45.35294156037575" lon="10.654065772488092"><ele>99.0</ele><time>2026-04-02T10:35:46.001Z</time></trkpt><trkpt lat="45.352824917567396" lon="10.654065141502233"><ele>99.0</ele><time>2026-04-02T10:35:47.001Z</time></trkpt><trkpt lat="45.352702609954974" lon="10.65407474757722"><ele>99.0</ele><time>2026-04-02T10:35:48.001Z</time></trkpt><trkpt lat="45.35257991764473" lon="10.654089046400909"><ele>99.0</ele><time>2026-04-02T10:35:49.001Z</time></trkpt><trkpt lat="45.35245287426411" lon="10.65409454536223"><ele>99.0</ele><time>2026-04-02T10:35:50.001Z</time></trkpt><trkpt lat="45.352317251634815" lon="10.654085521820264"><ele>99.5</ele><time>2026-04-02T10:35:51.001Z</time></trkpt><trkpt lat="45.352167686514726" lon="10.654064973630565"><ele>100.0</ele><time>2026-04-02T10:35:52.001Z</time></trkpt><trkpt lat="45.3520303544715" lon="10.654043508603214"><ele>100.5</ele><time>2026-04-02T10:35:53.001Z</time></trkpt><trkpt lat="45.351908617712084" lon="10.654041397479576"><ele>101.0</ele><time>2026-04-02T10:35:54.001Z</time></trkpt><trkpt lat="45.35177654555349" lon="10.654074234695951"><ele>101.0</ele><time>2026-04-02T10:35:55.001Z</time></trkpt><trkpt lat="45.35163005104204" lon="10.654130941133532"><ele>101.0</ele><time>2026-04-02T10:35:56.001Z</time></trkpt><trkpt lat="45.35150330334575" lon="10.654161958151578"><ele>101.0</ele><time>2026-04-02T10:35:57.001Z</time></trkpt><trkpt lat="45.35141036555897" lon="10.65419684278383"><ele>101.0</ele><time>2026-04-02T10:35:58.001Z</time></trkpt><trkpt lat="45.35133899937657" lon="10.6542515015172"><ele>100.49999999999999</ele><time>2026-04-02T10:36:00Z</time></trkpt><trkpt lat="45.3513267344967" lon="10.654394646008052"><ele>100.0</ele><time>2026-04-02T10:36:02Z</time></trkpt><trkpt lat="45.35133131382816" lon="10.65449686267702"><ele>99.5</ele><time>2026-04-02T10:36:03Z</time></trkpt><trkpt lat="45.35133248502347" lon="10.654608204375696"><ele>99.0</ele><time>2026-04-02T10:36:04Z</time></trkpt><trkpt lat="45.35131365131776" lon="10.654735629301666"><ele>98.49999999999999</ele><time>2026-04-02T10:36:05Z</time></trkpt><trkpt lat="45.35129032614871" lon="10.654825745580583"><ele>98.0</ele><time>2026-04-02T10:36:06Z</time></trkpt><trkpt lat="45.351289021689716" lon="10.654936250774709"><ele>98.60000000000001</ele><time>2026-04-02T10:36:09Z</time></trkpt><trkpt lat="45.35137948011534" lon="10.654926013208575"><ele>99.2</ele><time>2026-04-02T10:36:11Z</time></trkpt><trkpt lat="45.35144620386227" lon="10.65493028149715"><ele>99.8</ele><time>2026-04-02T10:36:12Z</time></trkpt><trkpt lat="45.35153815111125" lon="10.654952084431928"><ele>100.4</ele><time>2026-04-02T10:36:13Z</time></trkpt><trkpt lat="45.35163956407254" lon="10.654963515661745"><ele>101.0</ele><time>2026-04-02T10:36:14Z</time></trkpt><trkpt lat="45.351749057614526" lon="10.654990636709677"><ele>101.0</ele><time>2026-04-02T10:36:15Z</time></trkpt><trkpt lat="45.35187062140957" lon="10.655009972937304"><ele>101.0</ele><time>2026-04-02T10:36:16Z</time></trkpt><trkpt lat="45.35199755373022" lon="10.655022485257636"><ele>101.0</ele><time>2026-04-02T10:36:17Z</time></trkpt><trkpt lat="45.35212802905178" lon="10.655019004705915"><ele>101.0</ele><time>2026-04-02T10:36:18Z</time></trkpt><trkpt lat="45.35226776765886" lon="10.654997631447289"><ele>101.75</ele><time>2026-04-02T10:36:19Z</time></trkpt><trkpt lat="45.35240615522427" lon="10.654982597641691"><ele>102.5</ele><time>2026-04-02T10:36:19.999Z</time></trkpt><trkpt lat="45.35254224224901" lon="10.654983467083397"><ele>103.25</ele><time>2026-04-02T10:36:20.999Z</time></trkpt><trkpt lat="45.352670732026795" lon="10.654993516613786"><ele>104.0</ele><time>2026-04-02T10:36:21.999Z</time></trkpt><trkpt lat="45.3528185975254" lon="10.655001007701681"><ele>104.0</ele><time>2026-04-02T10:36:22.999Z</time></trkpt><trkpt lat="45.35295269557973" lon="10.655014558300854"><ele>104.0</ele><time>2026-04-02T10:36:23.999Z</time></trkpt><trkpt lat="45.35307286370988" lon="10.655043818914448"><ele>104.0</ele><time>2026-04-02T10:36:24.999Z</time></trkpt><trkpt lat="45.35319505746933" lon="10.655086491776373"><ele>104.0</ele><time>2026-04-02T10:36:25.999Z</time></trkpt><trkpt lat="45.3533085150921" lon="10.655162588919975"><ele>103.5</ele><time>2026-04-02T10:36:26.999Z</time></trkpt><trkpt lat="45.353430159586" lon="10.655231621391529"><ele>103.0</ele><time>2026-04-02T10:36:27.999Z</time></trkpt><trkpt lat="45.35355377899127" lon="10.65529876210755"><ele>102.5</ele><time>2026-04-02T10:36:28.999Z</time></trkpt><trkpt lat="45.353686910589964" lon="10.655363435951326"><ele>102.0</ele><time>2026-04-02T10:36:29.999Z</time></trkpt><trkpt lat="45.35378740316195" lon="10.655424569656716"><ele>102.6</ele><time>2026-04-02T10:36:30.999Z</time></trkpt><trkpt lat="45.35388537900115" lon="10.655473469880647"><ele>103.19999999999999</ele><time>2026-04-02T10:36:31.999Z</time></trkpt><trkpt lat="45.353966515783796" lon="10.655511725567123"><ele>103.8</ele><time>2026-04-02T10:36:32.999Z</time></trkpt><trkpt lat="45.35405384597745" lon="10.655512973000464"><ele>104.4</ele><time>2026-04-02T10:36:33.999Z</time></trkpt><trkpt lat="45.354145573287205" lon="10.655477960211384"><ele>105.0</ele><time>2026-04-02T10:36:34.999Z</time></trkpt><trkpt lat="45.35425753801163" lon="10.655408489973697"><ele>105.0</ele><time>2026-04-02T10:36:35.999Z</time></trkpt><trkpt lat="45.3543868423037" lon="10.655346732515843"><ele>105.0</ele><time>2026-04-02T10:36:36.999Z</time></trkpt><trkpt lat="45.35449659157761" lon="10.655281683356128"><ele>105.0</ele><time>2026-04-02T10:36:37.999Z</time></trkpt><trkpt lat="45.35459703540171" lon="10.655247728611586"><ele>105.0</ele><time>2026-04-02T10:36:38.999Z</time></trkpt><trkpt lat="45.35471633409855" lon="10.655241556851859"><ele>104.75</ele><time>2026-04-02T10:36:39.999Z</time></trkpt><trkpt lat="45.35485665991078" lon="10.655250620297688"><ele>104.5</ele><time>2026-04-02T10:36:40.999Z</time></trkpt><trkpt lat="45.35498256067323" lon="10.655257203828903"><ele>104.25</ele><time>2026-04-02T10:36:41.999Z</time></trkpt><trkpt lat="45.355082157330045" lon="10.655263018403149"><ele>104.0</ele><time>2026-04-02T10:36:42.999Z</time></trkpt><trkpt lat="45.355170996551095" lon="10.655262714837354"><ele>104.0</ele><time>2026-04-02T10:36:43.999Z</time></trkpt><trkpt lat="45.35524555981534" lon="10.655248354932558"><ele>104.0</ele><time>2026-04-02T10:36:44.999Z</time></trkpt><trkpt lat="45.35533167758333" lon="10.655192255638907"><ele>104.0</ele><time>2026-04-02T10:36:45.999Z</time></trkpt><trkpt lat="45.35542306808546" lon="10.65513438178604"><ele>104.0</ele><time>2026-04-02T10:36:46.999Z</time></trkpt><trkpt lat="45.35551436885957" lon="10.655088355009012"><ele>104.0</ele><time>2026-04-02T10:36:47.999Z</time></trkpt><trkpt lat="45.35560870443918" lon="10.655040560653907"><ele>104.49999999999999</ele><time>2026-04-02T10:36:48.999Z</time></trkpt><trkpt lat="45.355697018741765" lon="10.654984681671463"><ele>105.0</ele><time>2026-04-02T10:36:49.999Z</time></trkpt><trkpt lat="45.355775798272425" lon="10.654931187129256"><ele>105.5</ele><time>2026-04-02T10:36:50.999Z</time></trkpt><trkpt lat="45.35585139311142" lon="10.65488645936549"><ele>106.0</ele><time>2026-04-02T10:36:51.999Z</time></trkpt><trkpt lat="45.35593057006291" lon="10.654836853308376"><ele>106.49999999999999</ele><time>2026-04-02T10:36:52.999Z</time></trkpt><trkpt lat="45.35600491529544" lon="10.654765458592024"><ele>107.0</ele><time>2026-04-02T10:36:53.999Z</time></trkpt><trkpt lat="45.35605885888702" lon="10.654661304402467"><ele>107.0</ele><time>2026-04-02T10:36:54.999Z</time></trkpt><trkpt lat="45.35610072556193" lon="10.654543469497213"><ele>106.99999999999999</ele><time>2026-04-02T10:36:55.999Z</time></trkpt><trkpt lat="45.356133453723125" lon="10.654428022799394"><ele>106.99999999999999</ele><time>2026-04-02T10:36:56.999Z</time></trkpt><trkpt lat="45.35619957501672" lon="10.654355088165653"><ele>107.0</ele><time>2026-04-02T10:36:57.999Z</time></trkpt><trkpt lat="45.35628735225426" lon="10.654303880415004"><ele>107.0</ele><time>2026-04-02T10:36:58.999Z</time></trkpt><trkpt lat="45.35637839223731" lon="10.654261708987843"><ele>106.6</ele><time>2026-04-02T10:36:59.999Z</time></trkpt><trkpt lat="45.35649127453864" lon="10.654201175421166"><ele>106.19999999999999</ele><time>2026-04-02T10:37:00.999Z</time></trkpt><trkpt lat="45.35660921685698" lon="10.654151606630625"><ele>105.8</ele><time>2026-04-02T10:37:01.999Z</time></trkpt><trkpt lat="45.35671284566834" lon="10.654114748071917"><ele>105.4</ele><time>2026-04-02T10:37:02.999Z</time></trkpt><trkpt lat="45.3567886171433" lon="10.654090602298693"><ele>105.0</ele><time>2026-04-02T10:37:03.999Z</time></trkpt><trkpt lat="45.35687413061532" lon="10.654084831597492"><ele>105.0</ele><time>2026-04-02T10:37:05.999Z</time></trkpt><trkpt lat="45.357092755346244" lon="10.654030547806933"><ele>105.0</ele><time>2026-04-02T10:37:12.999Z</time></trkpt><trkpt lat="45.357177356353354" lon="10.653998940894418"><ele>105.0</ele><time>2026-04-02T10:37:13.999Z</time></trkpt><trkpt lat="45.35727637424833" lon="10.65396149691128"><ele>105.0</ele><time>2026-04-02T10:37:14.999Z</time></trkpt><trkpt lat="45.35738332840878" lon="10.653926510546878"><ele>106.6</ele><time>2026-04-02T10:37:15.999Z</time></trkpt><trkpt lat="45.35748858838506" lon="10.65388423711809"><ele>108.2</ele><time>2026-04-02T10:37:16.999Z</time></trkpt><trkpt lat="45.35759283900888" lon="10.65383176606484"><ele>109.80000000000001</ele><time>2026-04-02T10:37:17.999Z</time></trkpt><trkpt lat="45.35769146237242" lon="10.653774508765514"><ele>111.4</ele><time>2026-04-02T10:37:18.999Z</time></trkpt><trkpt lat="45.3577909966236" lon="10.653721868723295"><ele>113.0</ele><time>2026-04-02T10:37:19.999Z</time></trkpt><trkpt lat="45.35789593878145" lon="10.65366228012603"><ele>113.75</ele><time>2026-04-02T10:37:20.999Z</time></trkpt><trkpt lat="45.35799777209452" lon="10.653579238426483"><ele>114.5</ele><time>2026-04-02T10:37:21.999Z</time></trkpt><trkpt lat="45.35808735246131" lon="10.653469768090659"><ele>115.25</ele><time>2026-04-02T10:37:22.999Z</time></trkpt><trkpt lat="45.35817395062713" lon="10.653328705559744"><ele>116.0</ele><time>2026-04-02T10:37:23.999Z</time></trkpt><trkpt lat="45.35825882365835" lon="10.653191612377796"><ele>116.0</ele><time>2026-04-02T10:37:24.999Z</time></trkpt><trkpt lat="45.35833379285026" lon="10.653075990514878"><ele>116.0</ele><time>2026-04-02T10:37:25.999Z</time></trkpt><trkpt lat="45.35841093673888" lon="10.652967420829105"><ele>116.0</ele><time>2026-04-02T10:37:26.999Z</time></trkpt><trkpt lat="45.35849364983934" lon="10.652856138751886"><ele>116.0</ele><time>2026-04-02T10:37:27.999Z</time></trkpt><trkpt lat="45.358592346048106" lon="10.652770896226606"><ele>116.0</ele><time>2026-04-02T10:37:28.999Z</time></trkpt><trkpt lat="45.358683902526295" lon="10.652688174515893"><ele>116.75</ele><time>2026-04-02T10:37:29.999Z</time></trkpt><trkpt lat="45.358790485594724" lon="10.652680752486196"><ele>117.5</ele><time>2026-04-02T10:37:30.999Z</time></trkpt><trkpt lat="45.35890955702421" lon="10.652692515504391"><ele>118.25</ele><time>2026-04-02T10:37:31.999Z</time></trkpt><trkpt lat="45.35903665529934" lon="10.65269518194374"><ele>119.0</ele><time>2026-04-02T10:37:32.999Z</time></trkpt><trkpt lat="45.35915343008642" lon="10.652733326496591"><ele>119.0</ele><time>2026-04-02T10:37:33.999Z</time></trkpt><trkpt lat="45.35925610990887" lon="10.652770809665425"><ele>119.0</ele><time>2026-04-02T10:37:35Z</time></trkpt><trkpt lat="45.35935567419273" lon="10.652822809354678"><ele>119.0</ele><time>2026-04-02T10:37:36Z</time></trkpt><trkpt lat="45.359468574005" lon="10.652824100912303"><ele>119.0</ele><time>2026-04-02T10:37:37Z</time></trkpt><trkpt lat="45.359566625899866" lon="10.652778725370984"><ele>119.0</ele><time>2026-04-02T10:37:38Z</time></trkpt><trkpt lat="45.35965996220378" lon="10.652697172093207"><ele>119.6</ele><time>2026-04-02T10:37:39Z</time></trkpt><trkpt lat="45.35973869683211" lon="10.652601878511565"><ele>120.2</ele><time>2026-04-02T10:37:40Z</time></trkpt><trkpt lat="45.359815500577135" lon="10.652507922620398"><ele>120.79999999999998</ele><time>2026-04-02T10:37:41Z</time></trkpt><trkpt lat="45.35989191487101" lon="10.65241610853647"><ele>121.39999999999999</ele><time>2026-04-02T10:37:42Z</time></trkpt><trkpt lat="45.35997527801638" lon="10.652316076968026"><ele>122.0</ele><time>2026-04-02T10:37:43Z</time></trkpt><trkpt lat="45.36005829984767" lon="10.652212266887528"><ele>121.99999999999999</ele><time>2026-04-02T10:37:44Z</time></trkpt><trkpt lat="45.36013706166771" lon="10.652109725456347"><ele>122.0</ele><time>2026-04-02T10:37:45Z</time></trkpt><trkpt lat="45.3602069488112" lon="10.652018738140235"><ele>122.0</ele><time>2026-04-02T10:37:46Z</time></trkpt><trkpt lat="45.360261608323015" lon="10.65193453093228"><ele>122.0</ele><time>2026-04-02T10:37:47Z</time></trkpt><trkpt lat="45.360327025505505" lon="10.651906904402619"><ele>121.99999999999999</ele><time>2026-04-02T10:37:48Z</time></trkpt><trkpt lat="45.36038784483611" lon="10.651936057450516"><ele>122.0</ele><time>2026-04-02T10:37:49Z</time></trkpt><trkpt lat="45.36044226221443" lon="10.652012903817837"><ele>121.99999999999999</ele><time>2026-04-02T10:37:50Z</time></trkpt><trkpt lat="45.36048809075846" lon="10.652113659232777"><ele>122.0</ele><time>2026-04-02T10:37:51Z</time></trkpt><trkpt lat="45.36053093675988" lon="10.65221529573022"><ele>122.0</ele><time>2026-04-02T10:37:52Z</time></trkpt><trkpt lat="45.36057658454103" lon="10.6523217282393"><ele>122.0</ele><time>2026-04-02T10:37:53Z</time></trkpt><trkpt lat="45.360630026663785" lon="10.652432211846136"><ele>121.99999999999999</ele><time>2026-04-02T10:37:54Z</time></trkpt><trkpt lat="45.36068511958486" lon="10.652550719515766"><ele>122.0</ele><time>2026-04-02T10:37:55Z</time></trkpt><trkpt lat="45.3607421585486" lon="10.65266572764379"><ele>122.6</ele><time>2026-04-02T10:37:56Z</time></trkpt><trkpt lat="45.36079495329855" lon="10.652779919059256"><ele>123.19999999999999</ele><time>2026-04-02T10:37:57Z</time></trkpt><trkpt lat="45.36084450522032" lon="10.65289480408784"><ele>123.8</ele><time>2026-04-02T10:37:58Z</time></trkpt><trkpt lat="45.360888770958695" lon="10.652999971575419"><ele>124.4</ele><time>2026-04-02T10:37:59Z</time></trkpt><trkpt lat="45.36091875203702" lon="10.653146982351076"><ele>125.0</ele><time>2026-04-02T10:38:01Z</time></trkpt><trkpt lat="45.360920172057654" lon="10.653314035293262"><ele>125.49999999999999</ele><time>2026-04-02T10:38:03Z</time></trkpt><trkpt lat="45.360918779893105" lon="10.653407413897238"><ele>126.0</ele><time>2026-04-02T10:38:04Z</time></trkpt><trkpt lat="45.36091877370149" lon="10.653509545703256"><ele>126.5</ele><time>2026-04-02T10:38:05Z</time></trkpt><trkpt lat="45.36092268003184" lon="10.653624703362564"><ele>127.0</ele><time>2026-04-02T10:38:06Z</time></trkpt><trkpt lat="45.360937053422546" lon="10.653748768775033"><ele>127.49999999999999</ele><time>2026-04-02T10:38:07Z</time></trkpt><trkpt lat="45.360971448795326" lon="10.653873125881649"><ele>128.0</ele><time>2026-04-02T10:38:08Z</time></trkpt><trkpt lat="45.36102398410587" lon="10.653990537403708"><ele>128.6</ele><time>2026-04-02T10:38:09Z</time></trkpt><trkpt lat="45.36108563168577" lon="10.654096958217458"><ele>129.20000000000002</ele><time>2026-04-02T10:38:10Z</time></trkpt><trkpt lat="45.36115485258546" lon="10.654196127942605"><ele>129.8</ele><time>2026-04-02T10:38:11Z</time></trkpt><trkpt lat="45.36122064141507" lon="10.654297307127836"><ele>130.4</ele><time>2026-04-02T10:38:12Z</time></trkpt><trkpt lat="45.361279254751445" lon="10.654399161932613"><ele>131.0</ele><time>2026-04-02T10:38:13Z</time></trkpt><trkpt lat="45.361343277005446" lon="10.654491354071101"><ele>132.2</ele><time>2026-04-02T10:38:14Z</time></trkpt><trkpt lat="45.361409209495775" lon="10.65458432719934"><ele>133.39999999999998</ele><time>2026-04-02T10:38:15Z</time></trkpt><trkpt lat="45.361473507731496" lon="10.654672705711556"><ele>134.6</ele><time>2026-04-02T10:38:16Z</time></trkpt><trkpt lat="45.36153965878555" lon="10.654774472292305"><ele>135.79999999999998</ele><time>2026-04-02T10:38:16.999Z</time></trkpt><trkpt lat="45.36160909276409" lon="10.654866376526753"><ele>137.0</ele><time>2026-04-02T10:38:17.999Z</time></trkpt><trkpt lat="45.36168262833674" lon="10.654952325174909"><ele>137.0</ele><time>2026-04-02T10:38:18.999Z</time></trkpt><trkpt lat="45.36175946890659" lon="10.655034741671725"><ele>137.0</ele><time>2026-04-02T10:38:19.999Z</time></trkpt><trkpt lat="45.36183958747284" lon="10.655116237599858"><ele>137.0</ele><time>2026-04-02T10:38:20.999Z</time></trkpt><trkpt lat="45.361917835196685" lon="10.65520903195552"><ele>137.0</ele><time>2026-04-02T10:38:21.999Z</time></trkpt><trkpt lat="45.361998871149595" lon="10.655297958506567"><ele>137.0</ele><time>2026-04-02T10:38:22.999Z</time></trkpt><trkpt lat="45.362079622884956" lon="10.655392618914279"><ele>137.2</ele><time>2026-04-02T10:38:23.999Z</time></trkpt><trkpt lat="45.36215798431486" lon="10.65548974669709"><ele>137.39999999999998</ele><time>2026-04-02T10:38:24.999Z</time></trkpt><trkpt lat="45.3622325103493" lon="10.655594479529972"><ele>137.60000000000002</ele><time>2026-04-02T10:38:25.999Z</time></trkpt><trkpt lat="45.36230531973357" lon="10.655699059211406"><ele>137.8</ele><time>2026-04-02T10:38:26.999Z</time></trkpt><trkpt lat="45.36237425311417" lon="10.655804717706589"><ele>138.0</ele><time>2026-04-02T10:38:27.999Z</time></trkpt><trkpt lat="45.36243312963885" lon="10.65589964424853"><ele>138.0</ele><time>2026-04-02T10:38:28.999Z</time></trkpt><trkpt lat="45.36247715008911" lon="10.655976146674726"><ele>138.0</ele><time>2026-04-02T10:38:29.999Z</time></trkpt><trkpt lat="45.36253007678615" lon="10.656100175243244"><ele>138.0</ele><time>2026-04-02T10:38:31.999Z</time></trkpt><trkpt lat="45.36270533488934" lon="10.65612865859253"><ele>138.0</ele><time>2026-04-02T10:38:33.999Z</time></trkpt><trkpt lat="45.362810714445125" lon="10.656169304982154"><ele>138.0</ele><time>2026-04-02T10:38:35.999Z</time></trkpt><trkpt lat="45.36287510041131" lon="10.656225943414821"><ele>138.0</ele><time>2026-04-02T10:38:36.999Z</time></trkpt><trkpt lat="45.362940577860954" lon="10.65630831727972"><ele>138.0</ele><time>2026-04-02T10:38:37.999Z</time></trkpt><trkpt lat="45.36299121290628" lon="10.656395839575772"><ele>138.0</ele><time>2026-04-02T10:38:38.999Z</time></trkpt><trkpt lat="45.36305063932003" lon="10.656468000140306"><ele>138.0</ele><time>2026-04-02T10:38:39.999Z</time></trkpt><trkpt lat="45.36310812020817" lon="10.656537994926342"><ele>138.0</ele><time>2026-04-02T10:38:40.999Z</time></trkpt><trkpt lat="45.36315680423496" lon="10.656597767568803"><ele>138.16666666666666</ele><time>2026-04-02T10:38:41.999Z</time></trkpt><trkpt lat="45.363209040550736" lon="10.656661901754896"><ele>138.33333333333334</ele><time>2026-04-02T10:38:42.999Z</time></trkpt><trkpt lat="45.363257926102584" lon="10.656721921823868"><ele>138.5</ele><time>2026-04-02T10:38:43.999Z</time></trkpt><trkpt lat="45.36330831674093" lon="10.656783844980872"><ele>138.66666666666669</ele><time>2026-04-02T10:38:44.999Z</time></trkpt><trkpt lat="45.36336852761891" lon="10.656827218542336"><ele>138.83333333333334</ele><time>2026-04-02T10:38:45.999Z</time></trkpt><trkpt lat="45.363461275777574" lon="10.656940344575014"><ele>139.0</ele><time>2026-04-02T10:38:47.999Z</time></trkpt><trkpt lat="45.36355539622804" lon="10.657057046220844"><ele>139.0</ele><time>2026-04-02T10:38:49.999Z</time></trkpt><trkpt lat="45.36364560279844" lon="10.657172332835652"><ele>139.0</ele><time>2026-04-02T10:38:51.999Z</time></trkpt><trkpt lat="45.36370668568347" lon="10.65728080036582"><ele>139.0</ele><time>2026-04-02T10:38:53.999Z</time></trkpt><trkpt lat="45.36378961346482" lon="10.657381368071766"><ele>139.0</ele><time>2026-04-02T10:38:55.999Z</time></trkpt><trkpt lat="45.36386435640515" lon="10.657440873543765"><ele>139.0</ele><time>2026-04-02T10:38:57.999Z</time></trkpt><trkpt lat="45.36393880955085" lon="10.657429594602029"><ele>139.16666666666669</ele><time>2026-04-02T10:38:58.999Z</time></trkpt><trkpt lat="45.36400204883601" lon="10.657446590529583"><ele>139.33333333333334</ele><time>2026-04-02T10:38:59.999Z</time></trkpt><trkpt lat="45.36406437943194" lon="10.657488736014116"><ele>139.5</ele><time>2026-04-02T10:39:00.999Z</time></trkpt><trkpt lat="45.3641163156094" lon="10.657569528372916"><ele>139.66666666666666</ele><time>2026-04-02T10:39:01.999Z</time></trkpt><trkpt lat="45.364234383020126" lon="10.657623238873331"><ele>139.83333333333331</ele><time>2026-04-02T10:39:03.999Z</time></trkpt><trkpt lat="45.364298612995526" lon="10.657646623499408"><ele>140.0</ele><time>2026-04-02T10:39:04.999Z</time></trkpt><trkpt lat="45.36436458772377" lon="10.657678289158738"><ele>140.0</ele><time>2026-04-02T10:39:05.999Z</time></trkpt><trkpt lat="45.36443259534564" lon="10.657730660563747"><ele>140.0</ele><time>2026-04-02T10:39:06.999Z</time></trkpt><trkpt lat="45.36449352619867" lon="10.657780074213814"><ele>140.0</ele><time>2026-04-02T10:39:07.999Z</time></trkpt><trkpt lat="45.364562823840586" lon="10.657838594947837"><ele>140.0</ele><time>2026-04-02T10:39:08.999Z</time></trkpt><trkpt lat="45.364624847403945" lon="10.657903369980456"><ele>140.0</ele><time>2026-04-02T10:39:09.999Z</time></trkpt><trkpt lat="45.36466785270357" lon="10.657985060081518"><ele>140.0</ele><time>2026-04-02T10:39:10.999Z</time></trkpt><trkpt lat="45.36472543850091" lon="10.658121011205647"><ele>141.0</ele><time>2026-04-02T10:39:12.999Z</time></trkpt><trkpt lat="45.364986441530036" lon="10.658049747708803"><ele>142.0</ele><time>2026-04-02T10:39:14.999Z</time></trkpt><trkpt lat="45.36505921935072" lon="10.65807686442219"><ele>143.0</ele><time>2026-04-02T10:39:15.999Z</time></trkpt><trkpt lat="45.365149195891405" lon="10.658106811544378"><ele>144.0</ele><time>2026-04-02T10:39:16.999Z</time></trkpt><trkpt lat="45.36523351050033" lon="10.65813165342759"><ele>144.0</ele><time>2026-04-02T10:39:17.999Z</time></trkpt><trkpt lat="45.36535424180071" lon="10.658193014438321"><ele>144.0</ele><time>2026-04-02T10:39:18.999Z</time></trkpt><trkpt lat="45.365481521441275" lon="10.658257846257637"><ele>144.0</ele><time>2026-04-02T10:39:19.999Z</time></trkpt><trkpt lat="45.3656328789173" lon="10.658328373014852"><ele>144.0</ele><time>2026-04-02T10:39:20.999Z</time></trkpt><trkpt lat="45.36579320247315" lon="10.658391425302122"><ele>142.4</ele><time>2026-04-02T10:39:21.999Z</time></trkpt><trkpt lat="45.36590127543903" lon="10.658440149477288"><ele>140.8</ele><time>2026-04-02T10:39:22.999Z</time></trkpt><trkpt lat="45.36601289574404" lon="10.658469367564008"><ele>139.2</ele><time>2026-04-02T10:39:23.999Z</time></trkpt><trkpt lat="45.36612072990771" lon="10.658487588516877"><ele>137.6</ele><time>2026-04-02T10:39:24.999Z</time></trkpt><trkpt lat="45.366230256932134" lon="10.658497010598099"><ele>136.0</ele><time>2026-04-02T10:39:25.999Z</time></trkpt><trkpt lat="45.36633444772584" lon="10.658481361584355"><ele>133.8</ele><time>2026-04-02T10:39:26.999Z</time></trkpt><trkpt lat="45.3664341374084" lon="10.658445127134453"><ele>131.6</ele><time>2026-04-02T10:39:27.999Z</time></trkpt><trkpt lat="45.36654183244297" lon="10.658392598894816"><ele>129.4</ele><time>2026-04-02T10:39:28.999Z</time></trkpt><trkpt lat="45.3666506239305" lon="10.65835101582391"><ele>127.2</ele><time>2026-04-02T10:39:29.999Z</time></trkpt><trkpt lat="45.36675706276581" lon="10.658303338403186"><ele>125.0</ele><time>2026-04-02T10:39:30.999Z</time></trkpt><trkpt lat="45.366852693396446" lon="10.658225971736673"><ele>125.0</ele><time>2026-04-02T10:39:31.999Z</time></trkpt><trkpt lat="45.36693632715242" lon="10.658115981134053"><ele>125.0</ele><time>2026-04-02T10:39:32.999Z</time></trkpt><trkpt lat="45.36701922319453" lon="10.657998624634551"><ele>125.0</ele><time>2026-04-02T10:39:33.999Z</time></trkpt><trkpt lat="45.367090022143444" lon="10.65791409665441"><ele>125.0</ele><time>2026-04-02T10:39:34.999Z</time></trkpt><trkpt lat="45.36714350296202" lon="10.657850923501202"><ele>125.0</ele><time>2026-04-02T10:39:35.999Z</time></trkpt><trkpt lat="45.36722024051798" lon="10.657769745101433"><ele>123.75</ele><time>2026-04-02T10:39:37.999Z</time></trkpt><trkpt lat="45.36728262680234" lon="10.657797255204615"><ele>122.5</ele><time>2026-04-02T10:39:39.999Z</time></trkpt><trkpt lat="45.36737611104498" lon="10.657968080469674"><ele>121.25</ele><time>2026-04-02T10:39:42Z</time></trkpt><trkpt lat="45.36745309069853" lon="10.658115211817952"><ele>120.0</ele><time>2026-04-02T10:39:43Z</time></trkpt><trkpt lat="45.36756600345247" lon="10.65830947347094"><ele>120.0</ele><time>2026-04-02T10:39:44Z</time></trkpt><trkpt lat="45.36770750027423" lon="10.658527712909452"><ele>120.0</ele><time>2026-04-02T10:39:45Z</time></trkpt><trkpt lat="45.36788168820207" lon="10.658748239282156"><ele>120.0</ele><time>2026-04-02T10:39:46Z</time></trkpt><trkpt lat="45.368039302678426" lon="10.658909271604825"><ele>120.66666666666666</ele><time>2026-04-02T10:39:47Z</time></trkpt><trkpt lat="45.36818153879134" lon="10.65906187335979"><ele>121.33333333333333</ele><time>2026-04-02T10:39:48Z</time></trkpt><trkpt lat="45.368314015256345" lon="10.659208348084796"><ele>122.0</ele><time>2026-04-02T10:39:49Z</time></trkpt><trkpt lat="45.368422830086445" lon="10.659333579149626"><ele>122.0</ele><time>2026-04-02T10:39:50Z</time></trkpt><trkpt lat="45.36851277455967" lon="10.659423139443518"><ele>121.99999999999999</ele><time>2026-04-02T10:39:51Z</time></trkpt><trkpt lat="45.368594703467686" lon="10.659487605117716"><ele>121.99999999999999</ele><time>2026-04-02T10:39:52Z</time></trkpt><trkpt lat="45.36867629311664" lon="10.659551463416479"><ele>122.0</ele><time>2026-04-02T10:39:53Z</time></trkpt><trkpt lat="45.368742683752735" lon="10.659615234407612"><ele>122.0</ele><time>2026-04-02T10:39:54Z</time></trkpt><trkpt lat="45.368801182978785" lon="10.659681164298904"><ele>122.8</ele><time>2026-04-02T10:39:55Z</time></trkpt><trkpt lat="45.36885330521662" lon="10.659734230894157"><ele>123.6</ele><time>2026-04-02T10:39:56Z</time></trkpt><trkpt lat="45.36891308082546" lon="10.659800305756713"><ele>124.39999999999999</ele><time>2026-04-02T10:39:58Z</time></trkpt><trkpt lat="45.36902503703645" lon="10.65987148258471"><ele>125.19999999999999</ele><time>2026-04-02T10:40:04Z</time></trkpt><trkpt lat="45.36911745952848" lon="10.659886694348288"><ele>126.0</ele><time>2026-04-02T10:40:05Z</time></trkpt><trkpt lat="45.36922810385364" lon="10.659909021552899"><ele>126.0</ele><time>2026-04-02T10:40:06Z</time></trkpt><trkpt lat="45.369343012439465" lon="10.659967744754058"><ele>126.0</ele><time>2026-04-02T10:40:07Z</time></trkpt><trkpt lat="45.36946061534122" lon="10.66005051550703"><ele>126.0</ele><time>2026-04-02T10:40:08Z</time></trkpt><trkpt lat="45.369577657565216" lon="10.66013358220559"><ele>126.0</ele><time>2026-04-02T10:40:09Z</time></trkpt><trkpt lat="45.36970091506666" lon="10.660207565957144"><ele>126.75</ele><time>2026-04-02T10:40:10Z</time></trkpt><trkpt lat="45.36982979555663" lon="10.660281337786124"><ele>127.5</ele><time>2026-04-02T10:40:11Z</time></trkpt><trkpt lat="45.369959401910236" lon="10.660353629825215"><ele>128.25</ele><time>2026-04-02T10:40:12Z</time></trkpt><trkpt lat="45.370088033708655" lon="10.660421590597089"><ele>129.0</ele><time>2026-04-02T10:40:13Z</time></trkpt><trkpt lat="45.37021251400991" lon="10.660482779720658"><ele>129.0</ele><time>2026-04-02T10:40:14Z</time></trkpt><trkpt lat="45.370326358880455" lon="10.66051988768539"><ele>129.0</ele><time>2026-04-02T10:40:15Z</time></trkpt><trkpt lat="45.37043574468284" lon="10.66051865852323"><ele>129.0</ele><time>2026-04-02T10:40:16Z</time></trkpt><trkpt lat="45.370551193418166" lon="10.660484686487042"><ele>129.0</ele><time>2026-04-02T10:40:17Z</time></trkpt><trkpt lat="45.37067002779647" lon="10.660452260822112"><ele>126.5</ele><time>2026-04-02T10:40:18Z</time></trkpt><trkpt lat="45.3707886351847" lon="10.66043096216544"><ele>124.0</ele><time>2026-04-02T10:40:19Z</time></trkpt><trkpt lat="45.37090579255907" lon="10.660426281859637"><ele>121.5</ele><time>2026-04-02T10:40:20Z</time></trkpt><trkpt lat="45.37102219920436" lon="10.660445484837911"><ele>119.0</ele><time>2026-04-02T10:40:21Z</time></trkpt><trkpt lat="45.37113946324139" lon="10.660480718276913"><ele>119.0</ele><time>2026-04-02T10:40:22Z</time></trkpt><trkpt lat="45.3712586800303" lon="10.660517596880311"><ele>119.0</ele><time>2026-04-02T10:40:23Z</time></trkpt><trkpt lat="45.371379001028274" lon="10.660530004593879"><ele>119.0</ele><time>2026-04-02T10:40:24Z</time></trkpt><trkpt lat="45.37150037283076" lon="10.66049101088043"><ele>119.0</ele><time>2026-04-02T10:40:25Z</time></trkpt><trkpt lat="45.37161845192787" lon="10.660403224506377"><ele>119.0</ele><time>2026-04-02T10:40:26Z</time></trkpt><trkpt lat="45.37172929185749" lon="10.660284219077651"><ele>119.0</ele><time>2026-04-02T10:40:27Z</time></trkpt><trkpt lat="45.37182628653485" lon="10.660128198109867"><ele>119.0</ele><time>2026-04-02T10:40:28Z</time></trkpt><trkpt lat="45.371926325251636" lon="10.659960157158775"><ele>119.0</ele><time>2026-04-02T10:40:29Z</time></trkpt><trkpt lat="45.37201584513947" lon="10.659777183634416"><ele>118.66666666666666</ele><time>2026-04-02T10:40:30Z</time></trkpt><trkpt lat="45.37210790748864" lon="10.659594213735813"><ele>118.33333333333334</ele><time>2026-04-02T10:40:31Z</time></trkpt><trkpt lat="45.37220005907563" lon="10.659414801403255"><ele>118.0</ele><time>2026-04-02T10:40:32Z</time></trkpt><trkpt lat="45.37230262782385" lon="10.659254453726911"><ele>117.66666666666667</ele><time>2026-04-02T10:40:33Z</time></trkpt><trkpt lat="45.372425271519" lon="10.659127046271582"><ele>117.33333333333334</ele><time>2026-04-02T10:40:34Z</time></trkpt><trkpt lat="45.372550888862754" lon="10.65899535306447"><ele>117.0</ele><time>2026-04-02T10:40:35Z</time></trkpt><trkpt lat="45.372671581031966" lon="10.658853912431363"><ele>117.0</ele><time>2026-04-02T10:40:36Z</time></trkpt><trkpt lat="45.3727803362811" lon="10.65870422296718"><ele>116.99999999999999</ele><time>2026-04-02T10:40:37Z</time></trkpt><trkpt lat="45.37285780084213" lon="10.658561187522906"><ele>116.99999999999999</ele><time>2026-04-02T10:40:38Z</time></trkpt><trkpt lat="45.372903370277996" lon="10.658450022876156"><ele>117.0</ele><time>2026-04-02T10:40:39Z</time></trkpt><trkpt lat="45.37294478212179" lon="10.658352711623145"><ele>117.0</ele><time>2026-04-02T10:40:41Z</time></trkpt><trkpt lat="45.37305086016611" lon="10.658400299513174"><ele>118.75</ele><time>2026-04-02T10:40:45.999Z</time></trkpt><trkpt lat="45.37311998497118" lon="10.658547121451189"><ele>120.5</ele><time>2026-04-02T10:40:46.999Z</time></trkpt><trkpt lat="45.37318074465452" lon="10.658665150732183"><ele>122.25</ele><time>2026-04-02T10:40:47.999Z</time></trkpt><trkpt lat="45.373246443280685" lon="10.658788848210506"><ele>124.0</ele><time>2026-04-02T10:40:48.999Z</time></trkpt><trkpt lat="45.373315623744226" lon="10.658925782322017"><ele>124.0</ele><time>2026-04-02T10:40:49.999Z</time></trkpt><trkpt lat="45.37338667776384" lon="10.65907008805525"><ele>124.0</ele><time>2026-04-02T10:40:50.999Z</time></trkpt><trkpt lat="45.37345796204756" lon="10.659225297039525"><ele>124.0</ele><time>2026-04-02T10:40:51.999Z</time></trkpt><trkpt lat="45.37353300966292" lon="10.659391409709292"><ele>124.0</ele><time>2026-04-02T10:40:52.999Z</time></trkpt><trkpt lat="45.373613390469785" lon="10.65956206731934"><ele>122.66666666666667</ele><time>2026-04-02T10:40:53.999Z</time></trkpt><trkpt lat="45.373697038521904" lon="10.659740170598967"><ele>121.33333333333334</ele><time>2026-04-02T10:40:54.999Z</time></trkpt><trkpt lat="45.373787684808214" lon="10.659919040736353"><ele>120.0</ele><time>2026-04-02T10:40:55.999Z</time></trkpt><trkpt lat="45.37388163660342" lon="10.660101343227645"><ele>121.66666666666666</ele><time>2026-04-02T10:40:56.999Z</time></trkpt><trkpt lat="45.37397945965298" lon="10.66028182025103"><ele>123.33333333333333</ele><time>2026-04-02T10:40:57.999Z</time></trkpt><trkpt lat="45.374078210778876" lon="10.660462259127797"><ele>125.0</ele><time>2026-04-02T10:40:58.999Z</time></trkpt><trkpt lat="45.3741761985856" lon="10.660634852799754"><ele>125.0</ele><time>2026-04-02T10:40:59.999Z</time></trkpt><trkpt lat="45.3742702963505" lon="10.660800914979038"><ele>125.0</ele><time>2026-04-02T10:41:00.999Z</time></trkpt><trkpt lat="45.37436086599153" lon="10.660962806655403"><ele>125.0</ele><time>2026-04-02T10:41:01.999Z</time></trkpt><trkpt lat="45.37445565952729" lon="10.661117822673903"><ele>125.0</ele><time>2026-04-02T10:41:02.999Z</time></trkpt><trkpt lat="45.37455705974109" lon="10.661266781307903"><ele>125.0</ele><time>2026-04-02T10:41:03.999Z</time></trkpt><trkpt lat="45.37466574129413" lon="10.661422254027416"><ele>125.0</ele><time>2026-04-02T10:41:04.999Z</time></trkpt><trkpt lat="45.374771831623626" lon="10.66158278339544"><ele>125.0</ele><time>2026-04-02T10:41:05.999Z</time></trkpt><trkpt lat="45.37486737727849" lon="10.661745545262688"><ele>125.0</ele><time>2026-04-02T10:41:06.999Z</time></trkpt><trkpt lat="45.37495725256101" lon="10.661898135726776"><ele>125.0</ele><time>2026-04-02T10:41:07.999Z</time></trkpt><trkpt lat="45.37504892784852" lon="10.662061956571764"><ele>125.0</ele><time>2026-04-02T10:41:08.999Z</time></trkpt><trkpt lat="45.37513535930704" lon="10.662223902151155"><ele>125.0</ele><time>2026-04-02T10:41:09.999Z</time></trkpt><trkpt lat="45.37522809562306" lon="10.662375107402953"><ele>125.25</ele><time>2026-04-02T10:41:10.999Z</time></trkpt><trkpt lat="45.37531947263257" lon="10.662532294905246"><ele>125.5</ele><time>2026-04-02T10:41:11.999Z</time></trkpt><trkpt lat="45.37541020637086" lon="10.662694956068814"><ele>125.75</ele><time>2026-04-02T10:41:12.999Z</time></trkpt><trkpt lat="45.375505338867185" lon="10.662858590728108"><ele>126.0</ele><time>2026-04-02T10:41:13.999Z</time></trkpt><trkpt lat="45.37559918449841" lon="10.663022899199644"><ele>126.0</ele><time>2026-04-02T10:41:14.999Z</time></trkpt><trkpt lat="45.375694802366056" lon="10.663185236044628"><ele>126.0</ele><time>2026-04-02T10:41:15.999Z</time></trkpt><trkpt lat="45.375786721383" lon="10.663347164193706"><ele>126.0</ele><time>2026-04-02T10:41:16.999Z</time></trkpt><trkpt lat="45.37588264183299" lon="10.663507261474138"><ele>126.0</ele><time>2026-04-02T10:41:17.999Z</time></trkpt><trkpt lat="45.37595278546119" lon="10.66364125158944"><ele>125.25</ele><time>2026-04-02T10:41:18.999Z</time></trkpt><trkpt lat="45.376032564297134" lon="10.663785250910482"><ele>124.5</ele><time>2026-04-02T10:41:19.999Z</time></trkpt><trkpt lat="45.37611330884206" lon="10.663933806722026"><ele>123.75</ele><time>2026-04-02T10:41:20.999Z</time></trkpt><trkpt lat="45.37618909017166" lon="10.66407156498923"><ele>123.0</ele><time>2026-04-02T10:41:21.999Z</time></trkpt><trkpt lat="45.37624227855959" lon="10.66416373705271"><ele>123.0</ele><time>2026-04-02T10:41:22.999Z</time></trkpt><trkpt lat="45.376316901727876" lon="10.664286322452455"><ele>123.00000000000001</ele><time>2026-04-02T10:41:24.999Z</time></trkpt><trkpt lat="45.376250828487336" lon="10.664382827523477"><ele>123.00000000000001</ele><time>2026-04-02T10:41:28.999Z</time></trkpt><trkpt lat="45.37614768983829" lon="10.66435046076123"><ele>123.0</ele><time>2026-04-02T10:41:30.999Z</time></trkpt><trkpt lat="45.376075903051515" lon="10.664333901352792"><ele>123.0</ele><time>2026-04-02T10:41:31.999Z</time></trkpt><trkpt lat="45.375984272678224" lon="10.664312764567148"><ele>123.0</ele><time>2026-04-02T10:41:32.999Z</time></trkpt><trkpt lat="45.37587659328989" lon="10.664290328625249"><ele>123.0</ele><time>2026-04-02T10:41:33.999Z</time></trkpt><trkpt lat="45.37574515977064" lon="10.664264076256709"><ele>123.0</ele><time>2026-04-02T10:41:34.999Z</time></trkpt><trkpt lat="45.375596065058154" lon="10.664243710049664"><ele>123.0</ele><time>2026-04-02T10:41:35.999Z</time></trkpt><trkpt lat="45.375441083743674" lon="10.664245095479561"><ele>122.25</ele><time>2026-04-02T10:41:36.999Z</time></trkpt><trkpt lat="45.37528070711544" lon="10.664252526353406"><ele>121.5</ele><time>2026-04-02T10:41:37.999Z</time></trkpt><trkpt lat="45.37513830837468" lon="10.66424863937389"><ele>120.75</ele><time>2026-04-02T10:41:38.999Z</time></trkpt><trkpt lat="45.37501538165929" lon="10.664211806421978"><ele>120.0</ele><time>2026-04-02T10:41:39.999Z</time></trkpt><trkpt lat="45.3748983999455" lon="10.664168490684508"><ele>120.0</ele><time>2026-04-02T10:41:40.999Z</time></trkpt><trkpt lat="45.3747950931298" lon="10.664105636464347"><ele>120.0</ele><time>2026-04-02T10:41:41.999Z</time></trkpt><trkpt lat="45.3747164513476" lon="10.66401759477268"><ele>120.0</ele><time>2026-04-02T10:41:42.999Z</time></trkpt><trkpt lat="45.37464553987517" lon="10.66392447830013"><ele>120.0</ele><time>2026-04-02T10:41:43.999Z</time></trkpt><trkpt lat="45.37458173155821" lon="10.663827579855216"><ele>120.0</ele><time>2026-04-02T10:41:44.999Z</time></trkpt><trkpt lat="45.3745416935279" lon="10.663741148730063"><ele>119.75</ele><time>2026-04-02T10:41:45.999Z</time></trkpt><trkpt lat="45.37450456368902" lon="10.663666733202403"><ele>119.5</ele><time>2026-04-02T10:41:47Z</time></trkpt><trkpt lat="45.37444960219047" lon="10.663552377314529"><ele>119.25</ele><time>2026-04-02T10:41:49Z</time></trkpt><trkpt lat="45.37423394682321" lon="10.663758868220503"><ele>119.0</ele><time>2026-04-02T10:41:50Z</time></trkpt><trkpt lat="45.37415957997126" lon="10.663801364605602"><ele>118.4</ele><time>2026-04-02T10:41:51Z</time></trkpt><trkpt lat="45.37409677976537" lon="10.66386900627486"><ele>117.80000000000001</ele><time>2026-04-02T10:41:52Z</time></trkpt><trkpt lat="45.37402691132597" lon="10.663939515006762"><ele>117.19999999999999</ele><time>2026-04-02T10:41:53Z</time></trkpt><trkpt lat="45.37395239050807" lon="10.664018772119851"><ele>116.6</ele><time>2026-04-02T10:41:54Z</time></trkpt><trkpt lat="45.37386133505353" lon="10.664087621223246"><ele>116.0</ele><time>2026-04-02T10:41:55Z</time></trkpt><trkpt lat="45.3737786718862" lon="10.664209908183267"><ele>115.75</ele><time>2026-04-02T10:41:56Z</time></trkpt><trkpt lat="45.37368485756425" lon="10.664311455807091"><ele>115.5</ele><time>2026-04-02T10:41:57Z</time></trkpt><trkpt lat="45.373594661499936" lon="10.664430339240969"><ele>115.25</ele><time>2026-04-02T10:41:58Z</time></trkpt><trkpt lat="45.37350952823787" lon="10.664565212168538"><ele>115.0</ele><time>2026-04-02T10:41:59Z</time></trkpt><trkpt lat="45.37342223908649" lon="10.664692383776663"><ele>115.5</ele><time>2026-04-02T10:42:00Z</time></trkpt><trkpt lat="45.37331218458396" lon="10.664796502734452"><ele>116.0</ele><time>2026-04-02T10:42:01Z</time></trkpt><trkpt lat="45.373189835528294" lon="10.664907180139712"><ele>116.5</ele><time>2026-04-02T10:42:02Z</time></trkpt><trkpt lat="45.37305924664228" lon="10.665023312771272"><ele>117.0</ele><time>2026-04-02T10:42:03Z</time></trkpt><trkpt lat="45.37293345879219" lon="10.665132286674151"><ele>118.75</ele><time>2026-04-02T10:42:04Z</time></trkpt><trkpt lat="45.3728027295665" lon="10.6652323501452"><ele>120.5</ele><time>2026-04-02T10:42:05Z</time></trkpt><trkpt lat="45.37267229808939" lon="10.665332019912936"><ele>122.25</ele><time>2026-04-02T10:42:06Z</time></trkpt><trkpt lat="45.37254682429228" lon="10.665430342204969"><ele>124.0</ele><time>2026-04-02T10:42:07Z</time></trkpt><trkpt lat="45.37242844041544" lon="10.665528398946918"><ele>124.00000000000001</ele><time>2026-04-02T10:42:08Z</time></trkpt><trkpt lat="45.372335449851136" lon="10.665616334947675"><ele>124.0</ele><time>2026-04-02T10:42:09Z</time></trkpt><trkpt lat="45.37226641623185" lon="10.665665879243624"><ele>124.0</ele><time>2026-04-02T10:42:10Z</time></trkpt><trkpt lat="45.37219563585615" lon="10.665715597249458"><ele>124.0</ele><time>2026-04-02T10:42:12Z</time></trkpt><trkpt lat="45.37217127633347" lon="10.66586054985076"><ele>124.00000000000001</ele><time>2026-04-02T10:42:20Z</time></trkpt><trkpt lat="45.37222254122723" lon="10.665919802484519"><ele>124.0</ele><time>2026-04-02T10:42:21Z</time></trkpt><trkpt lat="45.37225078850994" lon="10.666025950818453"><ele>124.0</ele><time>2026-04-02T10:42:23Z</time></trkpt><trkpt lat="45.37228590493403" lon="10.666102389996198"><ele>124.0</ele><time>2026-04-02T10:42:24Z</time></trkpt><trkpt lat="45.37234619867776" lon="10.666215696543095"><ele>124.0</ele><time>2026-04-02T10:42:25Z</time></trkpt><trkpt lat="45.37243577942213" lon="10.666376601177951"><ele>124.0</ele><time>2026-04-02T10:42:26Z</time></trkpt><trkpt lat="45.37252719971557" lon="10.666540484077887"><ele>125.0</ele><time>2026-04-02T10:42:27Z</time></trkpt><trkpt lat="45.37261672971082" lon="10.666703716479635"><ele>126.0</ele><time>2026-04-02T10:42:28Z</time></trkpt><trkpt lat="45.372700758724605" lon="10.666868384483761"><ele>127.0</ele><time>2026-04-02T10:42:29Z</time></trkpt><trkpt lat="45.372779839472926" lon="10.66703701468814"><ele>128.0</ele><time>2026-04-02T10:42:30Z</time></trkpt><trkpt lat="45.37285712097629" lon="10.667216523445735"><ele>127.66666666666666</ele><time>2026-04-02T10:42:31Z</time></trkpt><trkpt lat="45.372931386192626" lon="10.667399908729864"><ele>127.33333333333334</ele><time>2026-04-02T10:42:32Z</time></trkpt><trkpt lat="45.37300872159331" lon="10.667599149535562"><ele>127.0</ele><time>2026-04-02T10:42:33Z</time></trkpt><trkpt lat="45.37309054482034" lon="10.667792752440274"><ele>127.0</ele><time>2026-04-02T10:42:34Z</time></trkpt><trkpt lat="45.37317428381358" lon="10.667978196493214"><ele>127.0</ele><time>2026-04-02T10:42:35Z</time></trkpt><trkpt lat="45.37325040919111" lon="10.668156771263225"><ele>127.0</ele><time>2026-04-02T10:42:36Z</time></trkpt><trkpt lat="45.37331556936263" lon="10.66833379409456"><ele>127.0</ele><time>2026-04-02T10:42:37Z</time></trkpt><trkpt lat="45.37335728691944" lon="10.668541863427164"><ele>126.25</ele><time>2026-04-02T10:42:38Z</time></trkpt><trkpt lat="45.373408361164444" lon="10.668723103102117"><ele>125.5</ele><time>2026-04-02T10:42:39Z</time></trkpt><trkpt lat="45.37345142477511" lon="10.668911109218735"><ele>124.75</ele><time>2026-04-02T10:42:40Z</time></trkpt><trkpt lat="45.37347511113933" lon="10.669103570403616"><ele>124.0</ele><time>2026-04-02T10:42:41Z</time></trkpt><trkpt lat="45.37348006670401" lon="10.669291374532355"><ele>124.0</ele><time>2026-04-02T10:42:42Z</time></trkpt><trkpt lat="45.373480423665264" lon="10.669482341826967"><ele>124.0</ele><time>2026-04-02T10:42:43Z</time></trkpt><trkpt lat="45.373485907009055" lon="10.669670163952539"><ele>124.0</ele><time>2026-04-02T10:42:44Z</time></trkpt><trkpt lat="45.373498796931685" lon="10.66985209136575"><ele>124.0</ele><time>2026-04-02T10:42:45Z</time></trkpt><trkpt lat="45.37352709311121" lon="10.670026422735194"><ele>124.0</ele><time>2026-04-02T10:42:46Z</time></trkpt><trkpt lat="45.37359363089084" lon="10.670199810681762"><ele>124.0</ele><time>2026-04-02T10:42:47Z</time></trkpt><trkpt lat="45.37368961398133" lon="10.670380496186521"><ele>124.0</ele><time>2026-04-02T10:42:48Z</time></trkpt><trkpt lat="45.37377670192565" lon="10.670563769755779"><ele>124.0</ele><time>2026-04-02T10:42:49Z</time></trkpt><trkpt lat="45.37383748548024" lon="10.670774329532623"><ele>124.0</ele><time>2026-04-02T10:42:50Z</time></trkpt><trkpt lat="45.373884100679355" lon="10.67098638260908"><ele>124.0</ele><time>2026-04-02T10:42:51Z</time></trkpt><trkpt lat="45.37390797251693" lon="10.67119594138749"><ele>123.75</ele><time>2026-04-02T10:42:52Z</time></trkpt><trkpt lat="45.37392131507526" lon="10.67140054981325"><ele>123.5</ele><time>2026-04-02T10:42:53Z</time></trkpt><trkpt lat="45.373925590888255" lon="10.671606228792397"><ele>123.25</ele><time>2026-04-02T10:42:54Z</time></trkpt><trkpt lat="45.373923846462" lon="10.67181479369177"><ele>123.0</ele><time>2026-04-02T10:42:55Z</time></trkpt><trkpt lat="45.37390973147666" lon="10.672026476405486"><ele>122.66666666666666</ele><time>2026-04-02T10:42:56Z</time></trkpt><trkpt lat="45.37388466221737" lon="10.672239979515874"><ele>122.33333333333333</ele><time>2026-04-02T10:42:57Z</time></trkpt><trkpt lat="45.373850669225554" lon="10.67245615596597"><ele>122.0</ele><time>2026-04-02T10:42:58Z</time></trkpt><trkpt lat="45.37383594140811" lon="10.672675639320435"><ele>122.0</ele><time>2026-04-02T10:42:59Z</time></trkpt><trkpt lat="45.373807481770726" lon="10.672894448691531"><ele>122.0</ele><time>2026-04-02T10:43:00Z</time></trkpt><trkpt lat="45.373775260032374" lon="10.6731093994169"><ele>122.0</ele><time>2026-04-02T10:43:01Z</time></trkpt><trkpt lat="45.37372334160531" lon="10.673320389600217"><ele>122.0</ele><time>2026-04-02T10:43:02Z</time></trkpt><trkpt lat="45.373685892356846" lon="10.673525280193852"><ele>122.0</ele><time>2026-04-02T10:43:03Z</time></trkpt><trkpt lat="45.373645960223335" lon="10.673716177405758"><ele>122.0</ele><time>2026-04-02T10:43:04Z</time></trkpt><trkpt lat="45.37360253132605" lon="10.67390008234237"><ele>122.0</ele><time>2026-04-02T10:43:05Z</time></trkpt><trkpt lat="45.37355818144466" lon="10.674088453683936"><ele>122.25</ele><time>2026-04-02T10:43:06Z</time></trkpt><trkpt lat="45.373514955171515" lon="10.674277551886771"><ele>122.5</ele><time>2026-04-02T10:43:07Z</time></trkpt><trkpt lat="45.373489715619336" lon="10.67447712935028"><ele>122.75</ele><time>2026-04-02T10:43:08Z</time></trkpt><trkpt lat="45.37343332416797" lon="10.674668092067213"><ele>123.0</ele><time>2026-04-02T10:43:08.999Z</time></trkpt><trkpt lat="45.37339753746706" lon="10.67486852737676"><ele>123.66666666666666</ele><time>2026-04-02T10:43:09.999Z</time></trkpt><trkpt lat="45.37335590508056" lon="10.675071757584591"><ele>124.33333333333333</ele><time>2026-04-02T10:43:10.999Z</time></trkpt><trkpt lat="45.37330817584599" lon="10.675278629865074"><ele>125.0</ele><time>2026-04-02T10:43:11.999Z</time></trkpt><trkpt lat="45.37326109961435" lon="10.675481371241052"><ele>125.5</ele><time>2026-04-02T10:43:12.999Z</time></trkpt><trkpt lat="45.37321640024952" lon="10.67567192561268"><ele>126.0</ele><time>2026-04-02T10:43:13.999Z</time></trkpt><trkpt lat="45.37319544396423" lon="10.675845524291274"><ele>126.5</ele><time>2026-04-02T10:43:14.999Z</time></trkpt><trkpt lat="45.37317314265283" lon="10.675997232437823"><ele>127.0</ele><time>2026-04-02T10:43:15.999Z</time></trkpt><trkpt lat="45.373165468805944" lon="10.676139116515218"><ele>127.39999999999999</ele><time>2026-04-02T10:43:16.999Z</time></trkpt><trkpt lat="45.373169969364156" lon="10.676245048575918"><ele>127.79999999999998</ele><time>2026-04-02T10:43:17.999Z</time></trkpt><trkpt lat="45.37317890886265" lon="10.676370823934885"><ele>128.2</ele><time>2026-04-02T10:43:29.999Z</time></trkpt><trkpt lat="45.37318688147348" lon="10.676522011609691"><ele>128.6</ele><time>2026-04-02T10:43:31.999Z</time></trkpt><trkpt lat="45.37321815822434" lon="10.676631880522628"><ele>129.0</ele><time>2026-04-02T10:43:32.999Z</time></trkpt><trkpt lat="45.37326202339712" lon="10.676754283100873"><ele>129.0</ele><time>2026-04-02T10:43:33.999Z</time></trkpt><trkpt lat="45.37331205750034" lon="10.67687358168191"><ele>129.0</ele><time>2026-04-02T10:43:34.999Z</time></trkpt><trkpt lat="45.37336978876245" lon="10.676995425090047"><ele>129.0</ele><time>2026-04-02T10:43:35.999Z</time></trkpt><trkpt lat="45.37342880113152" lon="10.677125049021349"><ele>129.0</ele><time>2026-04-02T10:43:36.999Z</time></trkpt><trkpt lat="45.37348761191318" lon="10.677262087402399"><ele>129.0</ele><time>2026-04-02T10:43:37.999Z</time></trkpt><trkpt lat="45.37353326046201" lon="10.677411198374543"><ele>128.0</ele><time>2026-04-02T10:43:38.999Z</time></trkpt><trkpt lat="45.37356327417897" lon="10.677572318414795"><ele>127.0</ele><time>2026-04-02T10:43:39.999Z</time></trkpt><trkpt lat="45.3735801939952" lon="10.67773313333605"><ele>126.0</ele><time>2026-04-02T10:43:40.999Z</time></trkpt><trkpt lat="45.37361878906373" lon="10.677884355119387"><ele>125.0</ele><time>2026-04-02T10:43:41.999Z</time></trkpt><trkpt lat="45.37363236788088" lon="10.67801955064036"><ele>124.0</ele><time>2026-04-02T10:43:42.999Z</time></trkpt><trkpt lat="45.37366193120002" lon="10.6781161675"><ele>123.75</ele><time>2026-04-02T10:43:43.999Z</time></trkpt><trkpt lat="45.373689091757036" lon="10.678198049550046"><ele>123.5</ele><time>2026-04-02T10:43:44.999Z</time></trkpt><trkpt lat="45.37373967295667" lon="10.678296977279798"><ele>123.25</ele><time>2026-04-02T10:43:46.999Z</time></trkpt><trkpt lat="45.373584040935036" lon="10.67850154883388"><ele>123.0</ele><time>2026-04-02T10:43:48.999Z</time></trkpt><trkpt lat="45.37353940563465" lon="10.678614895970405"><ele>122.0</ele><time>2026-04-02T10:43:49.999Z</time></trkpt><trkpt lat="45.37350686723022" lon="10.67876443176765"><ele>121.0</ele><time>2026-04-02T10:43:50.999Z</time></trkpt><trkpt lat="45.3734690961685" lon="10.678936411673012"><ele>120.0</ele><time>2026-04-02T10:43:51.999Z</time></trkpt><trkpt lat="45.37343272011246" lon="10.679098103510606"><ele>119.0</ele><time>2026-04-02T10:43:53Z</time></trkpt><trkpt lat="45.3733996974923" lon="10.67924767558121"><ele>118.99999999999999</ele><time>2026-04-02T10:43:54Z</time></trkpt><trkpt lat="45.37337411039495" lon="10.679376025190889"><ele>119.0</ele><time>2026-04-02T10:43:55Z</time></trkpt><trkpt lat="45.373348326320325" lon="10.679459985779827"><ele>119.0</ele><time>2026-04-02T10:43:56Z</time></trkpt><trkpt lat="45.3732625528309" lon="10.67953299334635"><ele>119.0</ele><time>2026-04-02T10:43:58Z</time></trkpt><trkpt lat="45.37319329658117" lon="10.679515304147147"><ele>118.99999999999999</ele><time>2026-04-02T10:43:59Z</time></trkpt><trkpt lat="45.37310161789798" lon="10.679458217954057"><ele>119.0</ele><time>2026-04-02T10:44:00Z</time></trkpt><trkpt lat="45.37297538629338" lon="10.679380344826045"><ele>118.6</ele><time>2026-04-02T10:44:01Z</time></trkpt><trkpt lat="45.37286052953769" lon="10.679306430813003"><ele>118.2</ele><time>2026-04-02T10:44:02Z</time></trkpt><trkpt lat="45.37277764724933" lon="10.679255912348593"><ele>117.79999999999998</ele><time>2026-04-02T10:44:03Z</time></trkpt><trkpt lat="45.372683475474545" lon="10.67919007638916"><ele>117.39999999999999</ele><time>2026-04-02T10:44:05Z</time></trkpt><trkpt lat="45.37260010564001" lon="10.679216246174601"><ele>117.0</ele><time>2026-04-02T10:44:07Z</time></trkpt><trkpt lat="45.372560705167324" lon="10.679293307290816"><ele>117.0</ele><time>2026-04-02T10:44:08Z</time></trkpt><trkpt lat="45.37252540262849" lon="10.679367624521998"><ele>117.0</ele><time>2026-04-02T10:44:09Z</time></trkpt><trkpt lat="45.3724843145848" lon="10.679445177602329"><ele>117.0</ele><time>2026-04-02T10:44:10Z</time></trkpt><trkpt lat="45.37243763301335" lon="10.679538143489284"><ele>117.0</ele><time>2026-04-02T10:44:11Z</time></trkpt><trkpt lat="45.37239006814216" lon="10.67963036018576"><ele>117.0</ele><time>2026-04-02T10:44:12Z</time></trkpt><trkpt lat="45.372335999533874" lon="10.679712500275029"><ele>117.0</ele><time>2026-04-02T10:44:13Z</time></trkpt><trkpt lat="45.37226118490164" lon="10.679770358760871"><ele>116.16666666666667</ele><time>2026-04-02T10:44:14Z</time></trkpt><trkpt lat="45.37217517023633" lon="10.679820792981307"><ele>115.33333333333334</ele><time>2026-04-02T10:44:15Z</time></trkpt><trkpt lat="45.372086392677154" lon="10.679875865834273"><ele>114.5</ele><time>2026-04-02T10:44:16Z</time></trkpt><trkpt lat="45.37200838416047" lon="10.6799363373628"><ele>113.66666666666667</ele><time>2026-04-02T10:44:17Z</time></trkpt><trkpt lat="45.371941376354755" lon="10.679992345714581"><ele>112.83333333333334</ele><time>2026-04-02T10:44:18Z</time></trkpt><trkpt lat="45.371885651056374" lon="10.68003736179573"><ele>112.0</ele><time>2026-04-02T10:44:19Z</time></trkpt><trkpt lat="45.37176841651758" lon="10.680040783676596"><ele>112.0</ele><time>2026-04-02T10:44:21Z</time></trkpt><trkpt lat="45.37168775039306" lon="10.679967773069878"><ele>111.99999999999999</ele><time>2026-04-02T10:44:23Z</time></trkpt><trkpt lat="45.37162518032904" lon="10.679957185436633"><ele>111.99999999999999</ele><time>2026-04-02T10:44:27Z</time></trkpt><trkpt lat="45.37158418513435" lon="10.680163820665456"><ele>112.0</ele><time>2026-04-02T10:44:29Z</time></trkpt><trkpt lat="45.37156068015225" lon="10.680266796972107"><ele>112.0</ele><time>2026-04-02T10:44:30Z</time></trkpt><trkpt lat="45.37154227298388" lon="10.680379778797676"><ele>111.66666666666667</ele><time>2026-04-02T10:44:31Z</time></trkpt><trkpt lat="45.3715381192006" lon="10.6804753866881"><ele>111.33333333333334</ele><time>2026-04-02T10:44:32Z</time></trkpt><trkpt lat="45.371533587873266" lon="10.680565412498765"><ele>111.0</ele><time>2026-04-02T10:44:33Z</time></trkpt><trkpt lat="45.37151400262606" lon="10.6807260400868"><ele>110.66666666666666</ele><time>2026-04-02T10:44:35Z</time></trkpt><trkpt lat="45.371515345269664" lon="10.680837144316806"><ele>110.33333333333333</ele><time>2026-04-02T10:44:53Z</time></trkpt><trkpt lat="45.37158883756572" lon="10.680889036895445"><ele>110.0</ele><time>2026-04-02T10:44:55Z</time></trkpt><trkpt lat="45.371663755561364" lon="10.680835738120823"><ele>109.99999999999999</ele><time>2026-04-02T10:44:57Z</time></trkpt><trkpt lat="45.37166045291255" lon="10.680678784456788"><ele>110.0</ele><time>2026-04-02T10:44:59Z</time></trkpt><trkpt lat="45.371624369350705" lon="10.680598526948332"><ele>110.0</ele><time>2026-04-02T10:45:00Z</time></trkpt><trkpt lat="45.37157935881691" lon="10.680516025382815"><ele>110.0</ele><time>2026-04-02T10:45:01Z</time></trkpt><trkpt lat="45.371549302625894" lon="10.680427221727093"><ele>109.99999999999999</ele><time>2026-04-02T10:45:02Z</time></trkpt><trkpt lat="45.371542374962786" lon="10.680325788824401"><ele>110.0</ele><time>2026-04-02T10:45:03Z</time></trkpt><trkpt lat="45.37156452264144" lon="10.680224071704824"><ele>110.33333333333333</ele><time>2026-04-02T10:45:04Z</time></trkpt><trkpt lat="45.37159848700596" lon="10.68012330498563"><ele>110.66666666666666</ele><time>2026-04-02T10:45:05Z</time></trkpt><trkpt lat="45.371627018406635" lon="10.68002887925055"><ele>111.0</ele><time>2026-04-02T10:45:06Z</time></trkpt><trkpt lat="45.37165404192801" lon="10.679902783267693"><ele>111.33333333333334</ele><time>2026-04-02T10:45:08Z</time></trkpt><trkpt lat="45.37178049212916" lon="10.67997936750319"><ele>111.66666666666667</ele><time>2026-04-02T10:48:35Z</time></trkpt><trkpt lat="45.37183974031938" lon="10.680020640205093"><ele>112.0</ele><time>2026-04-02T10:48:36Z</time></trkpt><trkpt lat="45.37195132576519" lon="10.679965128757193"><ele>112.0</ele><time>2026-04-02T10:48:38Z</time></trkpt><trkpt lat="45.372007246268794" lon="10.679899729427369"><ele>112.0</ele><time>2026-04-02T10:48:39Z</time></trkpt><trkpt lat="45.372064932616226" lon="10.679853633955002"><ele>112.0</ele><time>2026-04-02T10:48:40Z</time></trkpt><trkpt lat="45.3721305584571" lon="10.679808898809211"><ele>112.0</ele><time>2026-04-02T10:48:41Z</time></trkpt><trkpt lat="45.37219808330618" lon="10.679770993414962"><ele>112.0</ele><time>2026-04-02T10:48:42Z</time></trkpt><trkpt lat="45.37225721483729" lon="10.679730511600898"><ele>112.0</ele><time>2026-04-02T10:48:43Z</time></trkpt><trkpt lat="45.37231237373794" lon="10.679682781581857"><ele>112.0</ele><time>2026-04-02T10:48:44Z</time></trkpt><trkpt lat="45.372367476903534" lon="10.679623929924281"><ele>112.42857142857143</ele><time>2026-04-02T10:48:45Z</time></trkpt><trkpt lat="45.372421346930224" lon="10.679558543446158"><ele>112.85714285714286</ele><time>2026-04-02T10:48:46Z</time></trkpt><trkpt lat="45.37246675023239" lon="10.67947632736048"><ele>113.28571428571428</ele><time>2026-04-02T10:48:47Z</time></trkpt><trkpt lat="45.37251041240976" lon="10.679389951208302"><ele>113.71428571428571</ele><time>2026-04-02T10:48:48Z</time></trkpt><trkpt lat="45.37255649917716" lon="10.679308314942766"><ele>114.14285714285714</ele><time>2026-04-02T10:48:49Z</time></trkpt><trkpt lat="45.37260094063785" lon="10.679239192112734"><ele>114.57142857142856</ele><time>2026-04-02T10:48:50Z</time></trkpt><trkpt lat="45.372663812078194" lon="10.679156427823793"><ele>114.99999999999999</ele><time>2026-04-02T10:48:52Z</time></trkpt><trkpt lat="45.372713038013714" lon="10.67924354685785"><ele>115.2</ele><time>2026-04-02T10:50:17Z</time></trkpt><trkpt lat="45.37280178305261" lon="10.679284310532786"><ele>115.4</ele><time>2026-04-02T10:50:18Z</time></trkpt><trkpt lat="45.37291075358623" lon="10.679331611412415"><ele>115.6</ele><time>2026-04-02T10:50:19Z</time></trkpt><trkpt lat="45.37301814983439" lon="10.67938806769607"><ele>115.8</ele><time>2026-04-02T10:50:20Z</time></trkpt><trkpt lat="45.373113874168666" lon="10.679443512530728"><ele>116.0</ele><time>2026-04-02T10:50:21Z</time></trkpt><trkpt lat="45.373186636511" lon="10.679484200398683"><ele>116.0</ele><time>2026-04-02T10:50:22Z</time></trkpt><trkpt lat="45.37328821693111" lon="10.679508215186772"><ele>116.0</ele><time>2026-04-02T10:50:24Z</time></trkpt><trkpt lat="45.373354560125726" lon="10.679418443459252"><ele>116.0</ele><time>2026-04-02T10:50:26Z</time></trkpt><trkpt lat="45.37337431044493" lon="10.679320517624166"><ele>116.0</ele><time>2026-04-02T10:50:27Z</time></trkpt><trkpt lat="45.37339636115153" lon="10.679198378990243"><ele>116.0</ele><time>2026-04-02T10:50:28Z</time></trkpt><trkpt lat="45.373421086907555" lon="10.679053232587838"><ele>116.6</ele><time>2026-04-02T10:50:29Z</time></trkpt><trkpt lat="45.37344811819458" lon="10.678899458751326"><ele>117.19999999999999</ele><time>2026-04-02T10:50:30Z</time></trkpt><trkpt lat="45.37347872246547" lon="10.678747340784335"><ele>117.80000000000001</ele><time>2026-04-02T10:50:31Z</time></trkpt><trkpt lat="45.37351019502408" lon="10.6786171569394"><ele>118.4</ele><time>2026-04-02T10:50:32Z</time></trkpt><trkpt lat="45.373542936988024" lon="10.678504952594752"><ele>119.0</ele><time>2026-04-02T10:50:33Z</time></trkpt><trkpt lat="45.3735783548964" lon="10.678420658575146"><ele>119.80000000000001</ele><time>2026-04-02T10:50:34Z</time></trkpt><trkpt lat="45.373646570973456" lon="10.678319648299533"><ele>120.60000000000001</ele><time>2026-04-02T10:50:36Z</time></trkpt><trkpt lat="45.373698342603966" lon="10.67823264310637"><ele>121.4</ele><time>2026-04-02T10:50:39Z</time></trkpt><trkpt lat="45.37368228824328" lon="10.678108401270105"><ele>122.2</ele><time>2026-04-02T10:50:41Z</time></trkpt><trkpt lat="45.37363710699633" lon="10.677927474580946"><ele>123.0</ele><time>2026-04-02T10:50:43Z</time></trkpt><trkpt lat="45.373604046630035" lon="10.677791065298306"><ele>123.0</ele><time>2026-04-02T10:50:45Z</time></trkpt><trkpt lat="45.373560513664" lon="10.677890034399015"><ele>123.0</ele><time>2026-04-02T10:50:48Z</time></trkpt><trkpt lat="45.373614539594456" lon="10.678019838208304"><ele>123.0</ele><time>2026-04-02T10:50:50Z</time></trkpt><trkpt lat="45.37364561603337" lon="10.678097930723652"><ele>123.0</ele><time>2026-04-02T10:50:51Z</time></trkpt><trkpt lat="45.37369020950558" lon="10.678224932103728"><ele>123.0</ele><time>2026-04-02T10:50:53Z</time></trkpt><trkpt lat="45.37367094749509" lon="10.678320775891565"><ele>123.0</ele><time>2026-04-02T10:50:56Z</time></trkpt><trkpt lat="45.37363092633064" lon="10.678390865787717"><ele>123.0</ele><time>2026-04-02T10:51:26Z</time></trkpt><trkpt lat="45.37356240410466" lon="10.678533392032309"><ele>123.00000000000001</ele><time>2026-04-02T10:51:28Z</time></trkpt><trkpt lat="45.373523477133745" lon="10.678651577219288"><ele>123.00000000000001</ele><time>2026-04-02T10:51:29Z</time></trkpt><trkpt lat="45.37348700948871" lon="10.678787250275656"><ele>123.0</ele><time>2026-04-02T10:51:30Z</time></trkpt><trkpt lat="45.37345631601489" lon="10.678931350919516"><ele>123.0</ele><time>2026-04-02T10:51:31Z</time></trkpt><trkpt lat="45.37342930822826" lon="10.679077340687822"><ele>122.33333333333333</ele><time>2026-04-02T10:51:32Z</time></trkpt><trkpt lat="45.373403181370826" lon="10.679223870189658"><ele>121.66666666666666</ele><time>2026-04-02T10:51:33Z</time></trkpt><trkpt lat="45.37337921978768" lon="10.679349109382967"><ele>121.0</ele><time>2026-04-02T10:51:34Z</time></trkpt><trkpt lat="45.373358602077836" lon="10.679444309327964"><ele>120.33333333333333</ele><time>2026-04-02T10:51:35Z</time></trkpt><trkpt lat="45.37331303059872" lon="10.67953306212162"><ele>119.66666666666666</ele><time>2026-04-02T10:51:37Z</time></trkpt><trkpt lat="45.373237950170754" lon="10.679552012291369"><ele>119.0</ele><time>2026-04-02T10:51:39Z</time></trkpt><trkpt lat="45.37312212212425" lon="10.67949890000134"><ele>118.66666666666666</ele><time>2026-04-02T10:51:41Z</time></trkpt><trkpt lat="45.37304651067729" lon="10.679449308884877"><ele>118.33333333333333</ele><time>2026-04-02T10:51:42Z</time></trkpt><trkpt lat="45.37296288599397" lon="10.679395917594519"><ele>118.0</ele><time>2026-04-02T10:51:43Z</time></trkpt><trkpt lat="45.37287900119486" lon="10.679346397652141"><ele>117.66666666666666</ele><time>2026-04-02T10:51:44Z</time></trkpt><trkpt lat="45.37280883970696" lon="10.67930349283804"><ele>117.33333333333333</ele><time>2026-04-02T10:51:45Z</time></trkpt><trkpt lat="45.37274911594163" lon="10.679266013667798"><ele>117.0</ele><time>2026-04-02T10:51:46Z</time></trkpt><trkpt lat="45.372672948779666" lon="10.679204695078715"><ele>117.0</ele><time>2026-04-02T10:51:47.999Z</time></trkpt><trkpt lat="45.37255085275942" lon="10.679301059016991"><ele>116.99999999999999</ele><time>2026-04-02T10:52:23Z</time></trkpt><trkpt lat="45.37251388142882" lon="10.679387747922993"><ele>116.99999999999999</ele><time>2026-04-02T10:52:24Z</time></trkpt><trkpt lat="45.3724680384" lon="10.679479181401154"><ele>117.0</ele><time>2026-04-02T10:52:25Z</time></trkpt><trkpt lat="45.372418869516736" lon="10.679576176164494"><ele>117.0</ele><time>2026-04-02T10:52:26Z</time></trkpt><trkpt lat="45.37236385151231" lon="10.67967359430129"><ele>116.6</ele><time>2026-04-02T10:52:27Z</time></trkpt><trkpt lat="45.3723106431297" lon="10.679746565242256"><ele>116.19999999999999</ele><time>2026-04-02T10:52:28Z</time></trkpt><trkpt lat="45.37220336504607" lon="10.679807339126413"><ele>115.8</ele><time>2026-04-02T10:52:30Z</time></trkpt><trkpt lat="45.372092210315444" lon="10.679872865473344"><ele>115.4</ele><time>2026-04-02T10:52:32Z</time></trkpt><trkpt lat="45.371995530801364" lon="10.679948932946584"><ele>115.0</ele><time>2026-04-02T10:52:34Z</time></trkpt><trkpt lat="45.371898566795196" lon="10.680030364777886"><ele>114.57142857142856</ele><time>2026-04-02T10:52:36Z</time></trkpt><trkpt lat="45.37186691069719" lon="10.680121713095081"><ele>114.14285714285714</ele><time>2026-04-02T10:52:39Z</time></trkpt><trkpt lat="45.371915223882276" lon="10.680202104129332"><ele>113.71428571428571</ele><time>2026-04-02T10:52:40.999Z</time></trkpt><trkpt lat="45.37194999746628" lon="10.68027735656744"><ele>113.28571428571428</ele><time>2026-04-02T10:52:42.999Z</time></trkpt><trkpt lat="45.37197622643825" lon="10.680393731496919"><ele>112.85714285714286</ele><time>2026-04-02T10:52:44.999Z</time></trkpt><trkpt lat="45.37198118713057" lon="10.680488841552968"><ele>112.42857142857143</ele><time>2026-04-02T10:52:45.999Z</time></trkpt><trkpt lat="45.37196556750985" lon="10.680597135734985"><ele>112.0</ele><time>2026-04-02T10:52:46.999Z</time></trkpt><trkpt lat="45.37192713515284" lon="10.680700567092138"><ele>111.66666666666667</ele><time>2026-04-02T10:52:47.999Z</time></trkpt><trkpt lat="45.371883685028415" lon="10.680793542174472"><ele>111.33333333333334</ele><time>2026-04-02T10:52:48.999Z</time></trkpt><trkpt lat="45.37184708359263" lon="10.6808809906325"><ele>111.0</ele><time>2026-04-02T10:52:49.999Z</time></trkpt><trkpt lat="45.37181420974126" lon="10.681010150892275"><ele>110.66666666666666</ele><time>2026-04-02T10:52:51.999Z</time></trkpt><trkpt lat="45.371882070252326" lon="10.681092832632864"><ele>110.33333333333333</ele><time>2026-04-02T10:52:54.999Z</time></trkpt><trkpt lat="45.37195394842143" lon="10.681129116932985"><ele>110.0</ele><time>2026-04-02T10:52:56.999Z</time></trkpt><trkpt lat="45.3720118925384" lon="10.681180177226338"><ele>109.0</ele><time>2026-04-02T10:52:58.999Z</time></trkpt><trkpt lat="45.37210297023885" lon="10.681242976754739"><ele>108.0</ele><time>2026-04-02T10:53:00.999Z</time></trkpt><trkpt lat="45.372212894611735" lon="10.681301547404928"><ele>107.0</ele><time>2026-04-02T10:53:02.999Z</time></trkpt><trkpt lat="45.37229731803719" lon="10.681242898453025"><ele>106.0</ele><time>2026-04-02T10:53:04.999Z</time></trkpt><trkpt lat="45.37235931905875" lon="10.681150033807393"><ele>105.0</ele><time>2026-04-02T10:53:06.999Z</time></trkpt><trkpt lat="45.372388395375246" lon="10.681232907648841"><ele>105.0</ele><time>2026-04-02T10:53:11.999Z</time></trkpt><trkpt lat="45.37233792067592" lon="10.681333119870008"><ele>105.0</ele><time>2026-04-02T10:53:14.999Z</time></trkpt><trkpt lat="45.37226837684084" lon="10.681518522084156"><ele>105.0</ele><time>2026-04-02T10:53:16.999Z</time></trkpt><trkpt lat="45.3722197635925" lon="10.681666930980027"><ele>105.0</ele><time>2026-04-02T10:53:17.999Z</time></trkpt><trkpt lat="45.37218016679717" lon="10.681791967390875"><ele>105.0</ele><time>2026-04-02T10:53:18.999Z</time></trkpt><trkpt lat="45.372154568218306" lon="10.68188399705605"><ele>104.0</ele><time>2026-04-02T10:53:19.999Z</time></trkpt><trkpt lat="45.37217220312003" lon="10.682061268613737"><ele>103.0</ele><time>2026-04-02T10:53:21.999Z</time></trkpt><trkpt lat="45.372218021593405" lon="10.682159734853244"><ele>102.0</ele><time>2026-04-02T10:53:22.999Z</time></trkpt><trkpt lat="45.3722805829351" lon="10.682260348005096"><ele>101.0</ele><time>2026-04-02T10:53:23.999Z</time></trkpt><trkpt lat="45.37234992680538" lon="10.682387120266187"><ele>100.0</ele><time>2026-04-02T10:53:24.999Z</time></trkpt><trkpt lat="45.37241056107554" lon="10.68250226545489"><ele>99.50000000000001</ele><time>2026-04-02T10:53:25.999Z</time></trkpt><trkpt lat="45.37246373482762" lon="10.682580537814315"><ele>99.0</ele><time>2026-04-02T10:53:26.999Z</time></trkpt><trkpt lat="45.372573796177086" lon="10.682609681150034"><ele>98.5</ele><time>2026-04-02T10:53:28.999Z</time></trkpt><trkpt lat="45.372650610419015" lon="10.68255539628174"><ele>98.0</ele><time>2026-04-02T10:53:29.999Z</time></trkpt><trkpt lat="45.37271874525036" lon="10.682520134165355"><ele>97.50000000000001</ele><time>2026-04-02T10:53:30.999Z</time></trkpt><trkpt lat="45.37280995249423" lon="10.68249964462692"><ele>97.0</ele><time>2026-04-02T10:53:31.999Z</time></trkpt><trkpt lat="45.37289126140828" lon="10.682488336848095"><ele>97.00000000000001</ele><time>2026-04-02T10:53:32.999Z</time></trkpt><trkpt lat="45.372960571780325" lon="10.682493139080679"><ele>97.0</ele><time>2026-04-02T10:53:33.999Z</time></trkpt><trkpt lat="45.3730220711348" lon="10.682532819807069"><ele>97.0</ele><time>2026-04-02T10:53:34.999Z</time></trkpt><trkpt lat="45.37308075389491" lon="10.682573271372538"><ele>97.0</ele><time>2026-04-02T10:53:35.999Z</time></trkpt><trkpt lat="45.373138891278025" lon="10.682623269963049"><ele>97.00000000000001</ele><time>2026-04-02T10:53:36.999Z</time></trkpt><trkpt lat="45.373180586069495" lon="10.682750050510387"><ele>97.0</ele><time>2026-04-02T10:53:38.999Z</time></trkpt><trkpt lat="45.37324191324408" lon="10.68301727432466"><ele>97.5</ele><time>2026-04-02T10:53:40.999Z</time></trkpt><trkpt lat="45.37323744802206" lon="10.683134012340489"><ele>98.0</ele><time>2026-04-02T10:53:41.999Z</time></trkpt><trkpt lat="45.37324074646979" lon="10.683348754611112"><ele>98.5</ele><time>2026-04-02T10:53:42.999Z</time></trkpt><trkpt lat="45.373236742880025" lon="10.683623249630008"><ele>99.0</ele><time>2026-04-02T10:53:43.999Z</time></trkpt><trkpt lat="45.37322652816585" lon="10.683846119682062"><ele>99.0</ele><time>2026-04-02T10:53:44.999Z</time></trkpt><trkpt lat="45.373228402454295" lon="10.684045769928883"><ele>99.0</ele><time>2026-04-02T10:53:45.999Z</time></trkpt><trkpt lat="45.37324107459125" lon="10.684211124795942"><ele>99.0</ele><time>2026-04-02T10:53:46.999Z</time></trkpt><trkpt lat="45.37324394568109" lon="10.684376616941401"><ele>99.0</ele><time>2026-04-02T10:53:47.999Z</time></trkpt><trkpt lat="45.373236722012265" lon="10.684544518760593"><ele>99.0</ele><time>2026-04-02T10:53:48.999Z</time></trkpt><trkpt lat="45.37322303248673" lon="10.684704630640146"><ele>99.0</ele><time>2026-04-02T10:53:49.999Z</time></trkpt><trkpt lat="45.373206215446245" lon="10.68485452814021"><ele>99.0</ele><time>2026-04-02T10:53:50.999Z</time></trkpt><trkpt lat="45.37317159905636" lon="10.684953714040262"><ele>99.0</ele><time>2026-04-02T10:53:51.999Z</time></trkpt><trkpt lat="45.37310544269413" lon="10.685010369928538"><ele>99.0</ele><time>2026-04-02T10:54:48Z</time></trkpt><trkpt lat="45.372957858004746" lon="10.684996483009158"><ele>98.6</ele><time>2026-04-02T10:54:50Z</time></trkpt><trkpt lat="45.3728681714246" lon="10.68498706312684"><ele>98.2</ele><time>2026-04-02T10:54:51Z</time></trkpt><trkpt lat="45.37277348177903" lon="10.684944547305838"><ele>97.8</ele><time>2026-04-02T10:54:52Z</time></trkpt><trkpt lat="45.372669216004766" lon="10.684937931393804"><ele>97.39999999999999</ele><time>2026-04-02T10:54:53Z</time></trkpt><trkpt lat="45.37255789303269" lon="10.684932661383275"><ele>97.0</ele><time>2026-04-02T10:54:54Z</time></trkpt><trkpt lat="45.37244374121362" lon="10.684926822929736"><ele>97.0</ele><time>2026-04-02T10:54:55Z</time></trkpt><trkpt lat="45.37232487575464" lon="10.684921064930435"><ele>97.0</ele><time>2026-04-02T10:54:56Z</time></trkpt><trkpt lat="45.3722013972843" lon="10.68491569298841"><ele>97.0</ele><time>2026-04-02T10:54:57Z</time></trkpt><trkpt lat="45.37206742239997" lon="10.684909864398463"><ele>97.0</ele><time>2026-04-02T10:54:58Z</time></trkpt><trkpt lat="45.37192740076499" lon="10.684903772743747"><ele>97.0</ele><time>2026-04-02T10:54:59Z</time></trkpt><trkpt lat="45.3717858952155" lon="10.684897616530156"><ele>97.0</ele><time>2026-04-02T10:55:00Z</time></trkpt><trkpt lat="45.37164381084146" lon="10.684891514880425"><ele>97.0</ele><time>2026-04-02T10:55:01Z</time></trkpt><trkpt lat="45.371500633327884" lon="10.684885186133565"><ele>97.0</ele><time>2026-04-02T10:55:02Z</time></trkpt><trkpt lat="45.37135607450343" lon="10.684877819690822"><ele>97.0</ele><time>2026-04-02T10:55:02.999Z</time></trkpt><trkpt lat="45.371212634713935" lon="10.684870510271592"><ele>97.0</ele><time>2026-04-02T10:55:03.999Z</time></trkpt><trkpt lat="45.37106926810032" lon="10.684863204580589"><ele>97.0</ele><time>2026-04-02T10:55:04.999Z</time></trkpt><trkpt lat="45.3709244357277" lon="10.68485474975895"><ele>97.0</ele><time>2026-04-02T10:55:05.999Z</time></trkpt><trkpt lat="45.37077679080957" lon="10.684846015185895"><ele>97.0</ele><time>2026-04-02T10:55:06.999Z</time></trkpt><trkpt lat="45.37062885618373" lon="10.684836009943508"><ele>97.0</ele><time>2026-04-02T10:55:07.999Z</time></trkpt><trkpt lat="45.37048082182103" lon="10.684822773612536"><ele>97.0</ele><time>2026-04-02T10:55:08.999Z</time></trkpt><trkpt lat="45.37033104168956" lon="10.684831395002382"><ele>97.0</ele><time>2026-04-02T10:55:09.999Z</time></trkpt><trkpt lat="45.37018300510021" lon="10.684817282053844"><ele>96.66666666666667</ele><time>2026-04-02T10:55:10.999Z</time></trkpt><trkpt lat="45.370032815282194" lon="10.684802405714874"><ele>96.33333333333334</ele><time>2026-04-02T10:55:11.999Z</time></trkpt><trkpt lat="45.369882253514405" lon="10.684763811995138"><ele>96.0</ele><time>2026-04-02T10:55:12.999Z</time></trkpt><trkpt lat="45.36973414786016" lon="10.684748529261693"><ele>95.75</ele><time>2026-04-02T10:55:13.999Z</time></trkpt><trkpt lat="45.36958539160925" lon="10.684733179392712"><ele>95.5</ele><time>2026-04-02T10:55:14.999Z</time></trkpt><trkpt lat="45.369436860526285" lon="10.684717852759022"><ele>95.25</ele><time>2026-04-02T10:55:15.999Z</time></trkpt><trkpt lat="45.369291861524516" lon="10.68470289059731"><ele>95.0</ele><time>2026-04-02T10:55:16.999Z</time></trkpt><trkpt lat="45.36916902600914" lon="10.68469031259496"><ele>95.0</ele><time>2026-04-02T10:55:17.999Z</time></trkpt><trkpt lat="45.36906555653048" lon="10.684679726532444"><ele>95.0</ele><time>2026-04-02T10:55:18.999Z</time></trkpt><trkpt lat="45.36898045433547" lon="10.684671019648398"><ele>95.0</ele><time>2026-04-02T10:55:19.999Z</time></trkpt><trkpt lat="45.36890793447464" lon="10.68466360006642"><ele>95.0</ele><time>2026-04-02T10:55:20.999Z</time></trkpt><trkpt lat="45.36879937345105" lon="10.684652493036523"><ele>95.0</ele><time>2026-04-02T10:55:22.999Z</time></trkpt><trkpt lat="45.36878132342413" lon="10.684886443456469"><ele>94.5</ele><time>2026-04-02T10:55:24.999Z</time></trkpt><trkpt lat="45.36877265183476" lon="10.68498591569832"><ele>94.0</ele><time>2026-04-02T10:55:25.999Z</time></trkpt><trkpt lat="45.36874745911369" lon="10.685092142793385"><ele>93.5</ele><time>2026-04-02T10:55:26.999Z</time></trkpt><trkpt lat="45.36874268266451" lon="10.685213877978375"><ele>93.0</ele><time>2026-04-02T10:55:27.999Z</time></trkpt><trkpt lat="45.36873078984793" lon="10.685342123615232"><ele>92.5</ele><time>2026-04-02T10:55:28.999Z</time></trkpt><trkpt lat="45.36871321600364" lon="10.68547343802443"><ele>92.0</ele><time>2026-04-02T10:55:29.999Z</time></trkpt><trkpt lat="45.36870243890613" lon="10.685611328853566"><ele>92.0</ele><time>2026-04-02T10:55:30.999Z</time></trkpt><trkpt lat="45.3686902000203" lon="10.685758113059258"><ele>92.0</ele><time>2026-04-02T10:55:31.999Z</time></trkpt><trkpt lat="45.36868018422224" lon="10.685891761496906"><ele>92.0</ele><time>2026-04-02T10:55:32.999Z</time></trkpt><trkpt lat="45.36867022751048" lon="10.685989593240333"><ele>92.0</ele><time>2026-04-02T10:55:33.999Z</time></trkpt><trkpt lat="45.36866055137547" lon="10.68611393149521"><ele>92.0</ele><time>2026-04-02T10:55:35.999Z</time></trkpt><trkpt lat="45.3686939483524" lon="10.686196810981263"><ele>92.0</ele><time>2026-04-02T10:55:37.999Z</time></trkpt><trkpt lat="45.3687783041877" lon="10.686246181763304"><ele>91.8</ele><time>2026-04-02T10:55:39.999Z</time></trkpt><trkpt lat="45.36884277106095" lon="10.686288571497194"><ele>91.6</ele><time>2026-04-02T10:55:40.999Z</time></trkpt><trkpt lat="45.36892942987478" lon="10.686349808722905"><ele>91.39999999999999</ele><time>2026-04-02T10:55:41.999Z</time></trkpt><trkpt lat="45.36903763837932" lon="10.686430492503568"><ele>91.19999999999999</ele><time>2026-04-02T10:55:42.999Z</time></trkpt><trkpt lat="45.369140646549404" lon="10.686515631473362"><ele>91.0</ele><time>2026-04-02T10:55:43.999Z</time></trkpt><trkpt lat="45.369236309359586" lon="10.686602897401967"><ele>90.6</ele><time>2026-04-02T10:55:44.999Z</time></trkpt><trkpt lat="45.36932627365059" lon="10.68669415607539"><ele>90.19999999999999</ele><time>2026-04-02T10:55:45.999Z</time></trkpt><trkpt lat="45.36940900231548" lon="10.686777895691675"><ele>89.80000000000001</ele><time>2026-04-02T10:55:46.999Z</time></trkpt><trkpt lat="45.3694934016454" lon="10.686851971865405"><ele>89.4</ele><time>2026-04-02T10:55:47.999Z</time></trkpt><trkpt lat="45.36958937205475" lon="10.686907045542151"><ele>89.0</ele><time>2026-04-02T10:55:48.999Z</time></trkpt><trkpt lat="45.36968866655277" lon="10.686945494642051"><ele>87.25</ele><time>2026-04-02T10:55:49.999Z</time></trkpt><trkpt lat="45.3698024540674" lon="10.686975988242667"><ele>85.5</ele><time>2026-04-02T10:55:50.999Z</time></trkpt><trkpt lat="45.36992254105245" lon="10.686997007777709"><ele>83.75</ele><time>2026-04-02T10:55:51.999Z</time></trkpt><trkpt lat="45.37004086670357" lon="10.687034157436159"><ele>82.0</ele><time>2026-04-02T10:55:52.999Z</time></trkpt><trkpt lat="45.37016854436475" lon="10.687044523196443"><ele>82.0</ele><time>2026-04-02T10:55:53.999Z</time></trkpt><trkpt lat="45.37031516893008" lon="10.687040479398606"><ele>82.0</ele><time>2026-04-02T10:55:54.999Z</time></trkpt><trkpt lat="45.370475950562955" lon="10.687028175550783"><ele>82.0</ele><time>2026-04-02T10:55:55.999Z</time></trkpt><trkpt lat="45.37059650425888" lon="10.68701758448689"><ele>82.0</ele><time>2026-04-02T10:55:56.999Z</time></trkpt><trkpt lat="45.37068343900961" lon="10.687014930472992"><ele>82.8</ele><time>2026-04-02T10:55:57.999Z</time></trkpt><trkpt lat="45.370756650541644" lon="10.687022321575053"><ele>83.6</ele><time>2026-04-02T10:55:58.999Z</time></trkpt><trkpt lat="45.37082734400014" lon="10.687167923597954"><ele>84.39999999999999</ele><time>2026-04-02T10:56:00.999Z</time></trkpt><trkpt lat="45.370832715594744" lon="10.687316227372468"><ele>85.19999999999999</ele><time>2026-04-02T10:56:01.999Z</time></trkpt><trkpt lat="45.37085772006103" lon="10.687484599171237"><ele>86.0</ele><time>2026-04-02T10:56:02.999Z</time></trkpt><trkpt lat="45.370910619649315" lon="10.687659507867913"><ele>85.0</ele><time>2026-04-02T10:56:03.999Z</time></trkpt><trkpt lat="45.37096347604325" lon="10.68783178531364"><ele>84.0</ele><time>2026-04-02T10:56:04.999Z</time></trkpt><trkpt lat="45.37102986650264" lon="10.687993512439807"><ele>83.0</ele><time>2026-04-02T10:56:05.999Z</time></trkpt><trkpt lat="45.371115591929644" lon="10.68815804192836"><ele>82.0</ele><time>2026-04-02T10:56:06.999Z</time></trkpt><trkpt lat="45.3712151665616" lon="10.688326466768599"><ele>82.0</ele><time>2026-04-02T10:56:07.999Z</time></trkpt><trkpt lat="45.37131016396351" lon="10.688489397853221"><ele>82.0</ele><time>2026-04-02T10:56:08.999Z</time></trkpt><trkpt lat="45.37139794896319" lon="10.68864752289976"><ele>82.0</ele><time>2026-04-02T10:56:09.999Z</time></trkpt><trkpt lat="45.371464351762334" lon="10.68878298422775"><ele>82.0</ele><time>2026-04-02T10:56:10.999Z</time></trkpt><trkpt lat="45.37152754016458" lon="10.68889220124255"><ele>82.6</ele><time>2026-04-02T10:56:11.999Z</time></trkpt><trkpt lat="45.371582133708266" lon="10.689003490850617"><ele>83.19999999999999</ele><time>2026-04-02T10:56:12.999Z</time></trkpt><trkpt lat="45.37163544275183" lon="10.689098792577047"><ele>83.8</ele><time>2026-04-02T10:56:13.999Z</time></trkpt><trkpt lat="45.37170226152928" lon="10.68917667882517"><ele>84.4</ele><time>2026-04-02T10:56:14.999Z</time></trkpt><trkpt lat="45.3717868003778" lon="10.68926253285687"><ele>85.0</ele><time>2026-04-02T10:56:15.999Z</time></trkpt><trkpt lat="45.371869464183455" lon="10.689358943043722"><ele>85.0</ele><time>2026-04-02T10:56:16.999Z</time></trkpt><trkpt lat="45.371949105385845" lon="10.689457889022206"><ele>85.0</ele><time>2026-04-02T10:56:17.999Z</time></trkpt><trkpt lat="45.372035934529606" lon="10.689561838415868"><ele>85.0</ele><time>2026-04-02T10:56:18.999Z</time></trkpt><trkpt lat="45.37212196452106" lon="10.689677154040558"><ele>85.0</ele><time>2026-04-02T10:56:19.999Z</time></trkpt><trkpt lat="45.372203273345136" lon="10.689808232522203"><ele>85.0</ele><time>2026-04-02T10:56:20.999Z</time></trkpt><trkpt lat="45.37227485016638" lon="10.689948160659918"><ele>85.0</ele><time>2026-04-02T10:56:21.999Z</time></trkpt><trkpt lat="45.37234927578855" lon="10.690092291327876"><ele>85.0</ele><time>2026-04-02T10:56:22.999Z</time></trkpt><trkpt lat="45.37241746820846" lon="10.69023744030244"><ele>85.0</ele><time>2026-04-02T10:56:23.999Z</time></trkpt><trkpt lat="45.37248487507097" lon="10.690387076949687"><ele>84.4</ele><time>2026-04-02T10:56:24.999Z</time></trkpt><trkpt lat="45.372538874650225" lon="10.690530308577424"><ele>83.8</ele><time>2026-04-02T10:56:25.999Z</time></trkpt><trkpt lat="45.37258562207043" lon="10.690659755466525"><ele>83.19999999999999</ele><time>2026-04-02T10:56:26.999Z</time></trkpt><trkpt lat="45.372631338542774" lon="10.690766737538706"><ele>82.6</ele><time>2026-04-02T10:56:28Z</time></trkpt><trkpt lat="45.37267991536705" lon="10.69085818873195"><ele>82.0</ele><time>2026-04-02T10:56:29Z</time></trkpt><trkpt lat="45.37273187316159" lon="10.690948106176934"><ele>82.0</ele><time>2026-04-02T10:56:30Z</time></trkpt><trkpt lat="45.37278389900124" lon="10.691037787956999"><ele>82.0</ele><time>2026-04-02T10:56:31Z</time></trkpt><trkpt lat="45.37284325625612" lon="10.691127032204248"><ele>82.0</ele><time>2026-04-02T10:56:32Z</time></trkpt><trkpt lat="45.37291510081429" lon="10.691219179094707"><ele>82.0</ele><time>2026-04-02T10:56:33Z</time></trkpt><trkpt lat="45.372982130974115" lon="10.69129854250797"><ele>82.0</ele><time>2026-04-02T10:56:34Z</time></trkpt><trkpt lat="45.373043620286076" lon="10.691367382137235"><ele>82.0</ele><time>2026-04-02T10:56:35Z</time></trkpt><trkpt lat="45.37313414198926" lon="10.691444308882133"><ele>81.75</ele><time>2026-04-02T10:56:37Z</time></trkpt><trkpt lat="45.373006038996735" lon="10.691558958158607"><ele>81.5</ele><time>2026-04-02T10:56:42Z</time></trkpt><trkpt lat="45.37292560153311" lon="10.691607282003819"><ele>81.25</ele><time>2026-04-02T10:56:43Z</time></trkpt><trkpt lat="45.37280314168822" lon="10.691622168296224"><ele>81.0</ele><time>2026-04-02T10:56:44Z</time></trkpt><trkpt lat="45.37265118099887" lon="10.691664197129304"><ele>81.0</ele><time>2026-04-02T10:56:45Z</time></trkpt><trkpt lat="45.372478101755654" lon="10.691728993841778"><ele>81.0</ele><time>2026-04-02T10:56:46Z</time></trkpt><trkpt lat="45.37229414275606" lon="10.691816524562128"><ele>81.0</ele><time>2026-04-02T10:56:47Z</time></trkpt><trkpt lat="45.372141235085984" lon="10.691835704602422"><ele>81.0</ele><time>2026-04-02T10:56:48Z</time></trkpt><trkpt lat="45.37200756270049" lon="10.691841321688349"><ele>81.0</ele><time>2026-04-02T10:56:49Z</time></trkpt><trkpt lat="45.37187268293691" lon="10.691812107547655"><ele>81.0</ele><time>2026-04-02T10:56:50Z</time></trkpt><trkpt lat="45.37173587105537" lon="10.691769523261085"><ele>81.0</ele><time>2026-04-02T10:56:51Z</time></trkpt><trkpt lat="45.371599195733644" lon="10.691726517420959"><ele>81.0</ele><time>2026-04-02T10:56:52Z</time></trkpt><trkpt lat="45.371458838898626" lon="10.691687072157501"><ele>81.0</ele><time>2026-04-02T10:56:53Z</time></trkpt><trkpt lat="45.37133388305013" lon="10.69166456010923"><ele>81.0</ele><time>2026-04-02T10:56:54Z</time></trkpt><trkpt lat="45.371214804213885" lon="10.691645744677988"><ele>81.0</ele><time>2026-04-02T10:56:55Z</time></trkpt><trkpt lat="45.37110834924121" lon="10.691629476808732"><ele>81.25</ele><time>2026-04-02T10:56:56Z</time></trkpt><trkpt lat="45.37099876073222" lon="10.691612957661519"><ele>81.5</ele><time>2026-04-02T10:56:57Z</time></trkpt><trkpt lat="45.37088661803154" lon="10.691596589594734"><ele>81.75</ele><time>2026-04-02T10:56:58Z</time></trkpt><trkpt lat="45.370773306425654" lon="10.691583270622656"><ele>82.0</ele><time>2026-04-02T10:56:59Z</time></trkpt><trkpt lat="45.37065520635251" lon="10.691580884500057"><ele>82.0</ele><time>2026-04-02T10:57:00Z</time></trkpt><trkpt lat="45.370536777953454" lon="10.691582598850179"><ele>82.0</ele><time>2026-04-02T10:57:01Z</time></trkpt><trkpt lat="45.37041633015784" lon="10.691589130205639"><ele>82.0</ele><time>2026-04-02T10:57:02Z</time></trkpt><trkpt lat="45.3702944694776" lon="10.691600347182499"><ele>82.0</ele><time>2026-04-02T10:57:03Z</time></trkpt><trkpt lat="45.37017306415098" lon="10.691613620726766"><ele>82.0</ele><time>2026-04-02T10:57:04Z</time></trkpt><trkpt lat="45.37004994916027" lon="10.69163237212706"><ele>82.0</ele><time>2026-04-02T10:57:05Z</time></trkpt><trkpt lat="45.3699307996563" lon="10.691683825150704"><ele>82.0</ele><time>2026-04-02T10:57:06Z</time></trkpt><trkpt lat="45.36980968070724" lon="10.691706941672933"><ele>82.0</ele><time>2026-04-02T10:57:07Z</time></trkpt><trkpt lat="45.36968715521652" lon="10.691733123441631"><ele>82.0</ele><time>2026-04-02T10:57:08Z</time></trkpt><trkpt lat="45.36956024821914" lon="10.691749096390835"><ele>82.0</ele><time>2026-04-02T10:57:09Z</time></trkpt><trkpt lat="45.36942352516535" lon="10.691731114284087"><ele>82.0</ele><time>2026-04-02T10:57:10Z</time></trkpt><trkpt lat="45.369277900187264" lon="10.691705621948135"><ele>82.0</ele><time>2026-04-02T10:57:11Z</time></trkpt><trkpt lat="45.369110654842466" lon="10.691662789266115"><ele>82.0</ele><time>2026-04-02T10:57:12Z</time></trkpt><trkpt lat="45.368926558197515" lon="10.691622537042303"><ele>82.0</ele><time>2026-04-02T10:57:13Z</time></trkpt><trkpt lat="45.36877394573826" lon="10.691604326559487"><ele>82.0</ele><time>2026-04-02T10:57:14Z</time></trkpt><trkpt lat="45.36864956799969" lon="10.691595965898152"><ele>82.39999999999999</ele><time>2026-04-02T10:57:15Z</time></trkpt><trkpt lat="45.368549395984445" lon="10.691612047164782"><ele>82.8</ele><time>2026-04-02T10:57:16Z</time></trkpt><trkpt lat="45.36845978183952" lon="10.69160364218436"><ele>83.2</ele><time>2026-04-02T10:57:17Z</time></trkpt><trkpt lat="45.36837157598407" lon="10.691594327818203"><ele>83.6</ele><time>2026-04-02T10:57:18Z</time></trkpt><trkpt lat="45.36828642914818" lon="10.691552780001645"><ele>84.0</ele><time>2026-04-02T10:57:19Z</time></trkpt><trkpt lat="45.36820148158456" lon="10.691526998171181"><ele>84.0</ele><time>2026-04-02T10:57:20Z</time></trkpt><trkpt lat="45.36811558122303" lon="10.691494234506361"><ele>84.0</ele><time>2026-04-02T10:57:21Z</time></trkpt><trkpt lat="45.36802530526153" lon="10.69146679838433"><ele>84.0</ele><time>2026-04-02T10:57:22Z</time></trkpt><trkpt lat="45.36793436245708" lon="10.691457470096381"><ele>84.0</ele><time>2026-04-02T10:57:23Z</time></trkpt><trkpt lat="45.367839181866124" lon="10.69147850910573"><ele>84.0</ele><time>2026-04-02T10:57:24Z</time></trkpt><trkpt lat="45.36774439467939" lon="10.691481794963178"><ele>84.0</ele><time>2026-04-02T10:57:25Z</time></trkpt><trkpt lat="45.36764693217325" lon="10.691480043649966"><ele>84.0</ele><time>2026-04-02T10:57:26Z</time></trkpt><trkpt lat="45.36755020272626" lon="10.691478619248766"><ele>84.0</ele><time>2026-04-02T10:57:27Z</time></trkpt><trkpt lat="45.367451472715494" lon="10.69147319828689"><ele>84.0</ele><time>2026-04-02T10:57:28Z</time></trkpt><trkpt lat="45.367349393878136" lon="10.691466581612074"><ele>84.0</ele><time>2026-04-02T10:57:29Z</time></trkpt><trkpt lat="45.367245436204655" lon="10.691463228846342"><ele>83.6</ele><time>2026-04-02T10:57:30Z</time></trkpt><trkpt lat="45.36713906604391" lon="10.69143016333613"><ele>83.2</ele><time>2026-04-02T10:57:31Z</time></trkpt><trkpt lat="45.36703125257829" lon="10.691430075310437"><ele>82.8</ele><time>2026-04-02T10:57:32Z</time></trkpt><trkpt lat="45.36691847805192" lon="10.691434571231085"><ele>82.39999999999999</ele><time>2026-04-02T10:57:32.999Z</time></trkpt><trkpt lat="45.36680128756948" lon="10.691448210411602"><ele>82.0</ele><time>2026-04-02T10:57:33.999Z</time></trkpt><trkpt lat="45.366683191108756" lon="10.691465414964695"><ele>82.0</ele><time>2026-04-02T10:57:34.999Z</time></trkpt><trkpt lat="45.36656150168579" lon="10.691483160738274"><ele>82.0</ele><time>2026-04-02T10:57:35.999Z</time></trkpt><trkpt lat="45.366443424549814" lon="10.691500379738946"><ele>82.0</ele><time>2026-04-02T10:57:36.999Z</time></trkpt><trkpt lat="45.36633044264537" lon="10.691513967842896"><ele>82.0</ele><time>2026-04-02T10:57:37.999Z</time></trkpt><trkpt lat="45.36620976416284" lon="10.69152181476884"><ele>82.5</ele><time>2026-04-02T10:57:38.999Z</time></trkpt><trkpt lat="45.366091299903054" lon="10.69152328451142"><ele>83.0</ele><time>2026-04-02T10:57:39.999Z</time></trkpt><trkpt lat="45.36597129550126" lon="10.6915044992871"><ele>83.5</ele><time>2026-04-02T10:57:40.999Z</time></trkpt><trkpt lat="45.36584607068138" lon="10.691489699871623"><ele>84.0</ele><time>2026-04-02T10:57:41.999Z</time></trkpt><trkpt lat="45.365725057598134" lon="10.69147617345818"><ele>84.0</ele><time>2026-04-02T10:57:42.999Z</time></trkpt><trkpt lat="45.36560510350974" lon="10.691463122518856"><ele>84.0</ele><time>2026-04-02T10:57:43.999Z</time></trkpt><trkpt lat="45.365497780049516" lon="10.691452143592304"><ele>84.0</ele><time>2026-04-02T10:57:44.999Z</time></trkpt><trkpt lat="45.36540696835588" lon="10.69144473897777"><ele>84.0</ele><time>2026-04-02T10:57:45.999Z</time></trkpt><trkpt lat="45.3653352009531" lon="10.691440666062757"><ele>84.0</ele><time>2026-04-02T10:57:46.999Z</time></trkpt><trkpt lat="45.36524234965653" lon="10.691440000174673"><ele>84.0</ele><time>2026-04-02T10:57:48.999Z</time></trkpt><trkpt lat="45.36519296260053" lon="10.69193416537825"><ele>84.0</ele><time>2026-04-02T10:57:53.999Z</time></trkpt><trkpt lat="45.3651736676924" lon="10.692071324512215"><ele>84.0</ele><time>2026-04-02T10:57:54.999Z</time></trkpt><trkpt lat="45.36515562589949" lon="10.692231230063193"><ele>84.0</ele><time>2026-04-02T10:57:55.999Z</time></trkpt><trkpt lat="45.365132246350946" lon="10.692399261180638"><ele>84.0</ele><time>2026-04-02T10:57:56.999Z</time></trkpt><trkpt lat="45.365106095580764" lon="10.69257504593497"><ele>84.0</ele><time>2026-04-02T10:57:57.999Z</time></trkpt><trkpt lat="45.36507839104205" lon="10.692758337306111"><ele>84.0</ele><time>2026-04-02T10:57:58.999Z</time></trkpt><trkpt lat="45.3650470608671" lon="10.69295330010893"><ele>83.33333333333333</ele><time>2026-04-02T10:57:59.999Z</time></trkpt><trkpt lat="45.36501675822431" lon="10.693160756116223"><ele>82.66666666666666</ele><time>2026-04-02T10:58:00.999Z</time></trkpt><trkpt lat="45.36498510631004" lon="10.693386415897084"><ele>82.0</ele><time>2026-04-02T10:58:01.999Z</time></trkpt><trkpt lat="45.364953448795276" lon="10.693621137233118"><ele>82.0</ele><time>2026-04-02T10:58:02.999Z</time></trkpt><trkpt lat="45.36492000086554" lon="10.693862109853033"><ele>82.0</ele><time>2026-04-02T10:58:03.999Z</time></trkpt><trkpt lat="45.36488658465193" lon="10.694104615257983"><ele>82.0</ele><time>2026-04-02T10:58:04.999Z</time></trkpt><trkpt lat="45.364853376109956" lon="10.694362221138785"><ele>81.66666666666666</ele><time>2026-04-02T10:58:05.999Z</time></trkpt><trkpt lat="45.3648171084216" lon="10.694610723582285"><ele>81.33333333333333</ele><time>2026-04-02T10:58:06.999Z</time></trkpt><trkpt lat="45.364783907824915" lon="10.69483545205253"><ele>81.0</ele><time>2026-04-02T10:58:07.999Z</time></trkpt><trkpt lat="45.3647520667625" lon="10.695033923743235"><ele>81.0</ele><time>2026-04-02T10:58:08.999Z</time></trkpt><trkpt lat="45.364726757396454" lon="10.695210404943147"><ele>81.0</ele><time>2026-04-02T10:58:09.999Z</time></trkpt><trkpt lat="45.36470547468401" lon="10.695375198929538"><ele>81.0</ele><time>2026-04-02T10:58:10.999Z</time></trkpt><trkpt lat="45.364683217454335" lon="10.695530563542919"><ele>81.0</ele><time>2026-04-02T10:58:11.999Z</time></trkpt><trkpt lat="45.36465492704351" lon="10.69567808512299"><ele>80.6</ele><time>2026-04-02T10:58:12.999Z</time></trkpt><trkpt lat="45.364624254836535" lon="10.695821646827284"><ele>80.19999999999999</ele><time>2026-04-02T10:58:13.999Z</time></trkpt><trkpt lat="45.36459347653074" lon="10.695949815386488"><ele>79.80000000000001</ele><time>2026-04-02T10:58:14.999Z</time></trkpt><trkpt lat="45.364562993096015" lon="10.696077824677568"><ele>79.4</ele><time>2026-04-02T10:58:15.999Z</time></trkpt><trkpt lat="45.364550786722795" lon="10.69618654796743"><ele>79.0</ele><time>2026-04-02T10:58:16.999Z</time></trkpt><trkpt lat="45.364571638363365" lon="10.696294131580018"><ele>79.0</ele><time>2026-04-02T10:58:17.999Z</time></trkpt><trkpt lat="45.36462673300361" lon="10.696401508685973"><ele>79.0</ele><time>2026-04-02T10:58:18.999Z</time></trkpt><trkpt lat="45.36470723366358" lon="10.696522925628454"><ele>79.0</ele><time>2026-04-02T10:58:19.999Z</time></trkpt><trkpt lat="45.36480610115215" lon="10.696662787286435"><ele>79.0</ele><time>2026-04-02T10:58:20.999Z</time></trkpt><trkpt lat="45.36489811058929" lon="10.696805848152163"><ele>79.0</ele><time>2026-04-02T10:58:21.999Z</time></trkpt><trkpt lat="45.364988905767305" lon="10.696956520374975"><ele>79.0</ele><time>2026-04-02T10:58:22.999Z</time></trkpt><trkpt lat="45.3650751120714" lon="10.697090626979131"><ele>79.0</ele><time>2026-04-02T10:58:23.999Z</time></trkpt><trkpt lat="45.365147371748144" lon="10.697215470068178"><ele>79.0</ele><time>2026-04-02T10:58:24.999Z</time></trkpt><trkpt lat="45.3652022317816" lon="10.69733545343081"><ele>79.0</ele><time>2026-04-02T10:58:25.999Z</time></trkpt><trkpt lat="45.36523360764731" lon="10.697468632164245"><ele>79.0</ele><time>2026-04-02T10:58:26.999Z</time></trkpt><trkpt lat="45.365248269752605" lon="10.697617749551052"><ele>79.0</ele><time>2026-04-02T10:58:27.999Z</time></trkpt><trkpt lat="45.36525019763837" lon="10.697792479485036"><ele>79.0</ele><time>2026-04-02T10:58:28.999Z</time></trkpt><trkpt lat="45.36525201496446" lon="10.69797456951299"><ele>79.25</ele><time>2026-04-02T10:58:29.999Z</time></trkpt><trkpt lat="45.36525341234037" lon="10.698163946390165"><ele>79.5</ele><time>2026-04-02T10:58:30.999Z</time></trkpt><trkpt lat="45.365255501170815" lon="10.698366405449113"><ele>79.75</ele><time>2026-04-02T10:58:31.999Z</time></trkpt><trkpt lat="45.365254265613615" lon="10.698578123481497"><ele>80.0</ele><time>2026-04-02T10:58:33Z</time></trkpt><trkpt lat="45.36526391646881" lon="10.69879063605395"><ele>80.66666666666667</ele><time>2026-04-02T10:58:34Z</time></trkpt><trkpt lat="45.36528305788004" lon="10.699012128855145"><ele>81.33333333333333</ele><time>2026-04-02T10:58:35Z</time></trkpt><trkpt lat="45.365304362349875" lon="10.699223023061894"><ele>82.0</ele><time>2026-04-02T10:58:36Z</time></trkpt><trkpt lat="45.36532294616671" lon="10.69943996803657"><ele>82.0</ele><time>2026-04-02T10:58:37Z</time></trkpt><trkpt lat="45.36532766953879" lon="10.699658181300807"><ele>82.0</ele><time>2026-04-02T10:58:38Z</time></trkpt><trkpt lat="45.36532418821926" lon="10.69988387909084"><ele>82.0</ele><time>2026-04-02T10:58:39Z</time></trkpt><trkpt lat="45.36531608671789" lon="10.700117210718794"><ele>81.33333333333333</ele><time>2026-04-02T10:58:40Z</time></trkpt><trkpt lat="45.36530943004764" lon="10.700362342015572"><ele>80.66666666666667</ele><time>2026-04-02T10:58:41Z</time></trkpt><trkpt lat="45.3652966731889" lon="10.700603210721255"><ele>80.0</ele><time>2026-04-02T10:58:42Z</time></trkpt><trkpt lat="45.365282428283095" lon="10.70081213522769"><ele>80.0</ele><time>2026-04-02T10:58:43Z</time></trkpt><trkpt lat="45.365269039334706" lon="10.700992889511355"><ele>80.0</ele><time>2026-04-02T10:58:44Z</time></trkpt><trkpt lat="45.36525852756113" lon="10.701157034770285"><ele>80.0</ele><time>2026-04-02T10:58:45Z</time></trkpt><trkpt lat="45.36524675973359" lon="10.701303510531808"><ele>80.0</ele><time>2026-04-02T10:58:46Z</time></trkpt><trkpt lat="45.36523567120857" lon="10.70144439241113"><ele>80.0</ele><time>2026-04-02T10:58:47Z</time></trkpt><trkpt lat="45.36522477535639" lon="10.701554601664833"><ele>80.2</ele><time>2026-04-02T10:58:48Z</time></trkpt><trkpt lat="45.3652002236235" lon="10.7017125915275"><ele>80.4</ele><time>2026-04-02T10:58:50Z</time></trkpt><trkpt lat="45.36519745981054" lon="10.70181396623844"><ele>80.6</ele><time>2026-04-02T10:58:53Z</time></trkpt><trkpt lat="45.365280126064" lon="10.701924729135765"><ele>80.8</ele><time>2026-04-02T10:58:55Z</time></trkpt><trkpt lat="45.36535426352135" lon="10.702006673711844"><ele>81.0</ele><time>2026-04-02T10:58:56Z</time></trkpt><trkpt lat="45.3654284801355" lon="10.702097523117672"><ele>81.16666666666667</ele><time>2026-04-02T10:58:57Z</time></trkpt><trkpt lat="45.36551092087663" lon="10.70219370065693"><ele>81.33333333333333</ele><time>2026-04-02T10:58:58Z</time></trkpt><trkpt lat="45.36559581153638" lon="10.702274684066998"><ele>81.5</ele><time>2026-04-02T10:58:59Z</time></trkpt><trkpt lat="45.365665759306154" lon="10.702341436165973"><ele>81.66666666666666</ele><time>2026-04-02T10:59:00Z</time></trkpt><trkpt lat="45.36572656541248" lon="10.702404564841919"><ele>81.83333333333333</ele><time>2026-04-02T10:59:01Z</time></trkpt><trkpt lat="45.3657889733622" lon="10.702460315279515"><ele>82.0</ele><time>2026-04-02T10:59:03Z</time></trkpt><trkpt lat="45.365845613385915" lon="10.702527425680882"><ele>82.25</ele><time>2026-04-02T10:59:07Z</time></trkpt><trkpt lat="45.36574365654928" lon="10.702580815494834"><ele>82.5</ele><time>2026-04-02T10:59:09Z</time></trkpt><trkpt lat="45.365633282357045" lon="10.702700985975119"><ele>82.75</ele><time>2026-04-02T11:00:48Z</time></trkpt><trkpt lat="45.36553081172078" lon="10.702773116118033"><ele>83.0</ele><time>2026-04-02T11:00:49Z</time></trkpt><trkpt lat="45.365415955744496" lon="10.702850278293203"><ele>83.0</ele><time>2026-04-02T11:00:50Z</time></trkpt><trkpt lat="45.36528717578427" lon="10.702942240725315"><ele>83.0</ele><time>2026-04-02T11:00:51Z</time></trkpt><trkpt lat="45.36514807218906" lon="10.703043947743284"><ele>83.0</ele><time>2026-04-02T11:00:52Z</time></trkpt><trkpt lat="45.36501194764246" lon="10.70314634633697"><ele>83.0</ele><time>2026-04-02T11:00:53Z</time></trkpt><trkpt lat="45.36488322323549" lon="10.703248858808017"><ele>83.0</ele><time>2026-04-02T11:00:54Z</time></trkpt><trkpt lat="45.36476691389406" lon="10.703362067231076"><ele>83.0</ele><time>2026-04-02T11:00:55Z</time></trkpt><trkpt lat="45.36466289333369" lon="10.703494842557044"><ele>83.0</ele><time>2026-04-02T11:00:56Z</time></trkpt><trkpt lat="45.36456125395377" lon="10.703631699285076"><ele>85.0</ele><time>2026-04-02T11:00:57Z</time></trkpt><trkpt lat="45.36446610243235" lon="10.703775120405245"><ele>87.0</ele><time>2026-04-02T11:00:58Z</time></trkpt><trkpt lat="45.36437361652635" lon="10.703925440579901"><ele>89.0</ele><time>2026-04-02T11:00:59Z</time></trkpt><trkpt lat="45.36427968519134" lon="10.704076708981162"><ele>91.0</ele><time>2026-04-02T11:01:00Z</time></trkpt><trkpt lat="45.3641841071228" lon="10.704217254694443"><ele>91.0</ele><time>2026-04-02T11:01:01Z</time></trkpt><trkpt lat="45.364087256164076" lon="10.704331791120447"><ele>91.0</ele><time>2026-04-02T11:01:02Z</time></trkpt><trkpt lat="45.36397621375756" lon="10.70445043802618"><ele>91.0</ele><time>2026-04-02T11:01:03Z</time></trkpt><trkpt lat="45.363842480368575" lon="10.704571433065897"><ele>91.0</ele><time>2026-04-02T11:01:04Z</time></trkpt><trkpt lat="45.36370301839223" lon="10.704708962988695"><ele>92.25</ele><time>2026-04-02T11:01:05Z</time></trkpt><trkpt lat="45.36359211264346" lon="10.704853480655276"><ele>93.5</ele><time>2026-04-02T11:01:06Z</time></trkpt><trkpt lat="45.36349081235593" lon="10.70500387110866"><ele>94.75</ele><time>2026-04-02T11:01:07Z</time></trkpt><trkpt lat="45.36340066177891" lon="10.705162765787938"><ele>96.0</ele><time>2026-04-02T11:01:08Z</time></trkpt><trkpt lat="45.363315410197806" lon="10.705310116037346"><ele>96.0</ele><time>2026-04-02T11:01:09Z</time></trkpt><trkpt lat="45.36322525056457" lon="10.705423844235849"><ele>96.0</ele><time>2026-04-02T11:01:10Z</time></trkpt><trkpt lat="45.36313753860235" lon="10.705528159075536"><ele>96.0</ele><time>2026-04-02T11:01:11Z</time></trkpt><trkpt lat="45.36306455674023" lon="10.705612805747174"><ele>96.0</ele><time>2026-04-02T11:01:12Z</time></trkpt><trkpt lat="45.36299944120003" lon="10.7056950010899"><ele>96.0</ele><time>2026-04-02T11:01:13Z</time></trkpt><trkpt lat="45.362947587667435" lon="10.705757328217805"><ele>95.83333333333333</ele><time>2026-04-02T11:01:14Z</time></trkpt><trkpt lat="45.36287918869685" lon="10.705836835897374"><ele>95.66666666666667</ele><time>2026-04-02T11:01:16Z</time></trkpt><trkpt lat="45.36283139221473" lon="10.705916913918896"><ele>95.5</ele><time>2026-04-02T11:01:18Z</time></trkpt><trkpt lat="45.362790668123985" lon="10.705993395979018"><ele>95.33333333333334</ele><time>2026-04-02T11:01:20Z</time></trkpt><trkpt lat="45.36272816795195" lon="10.706098509110161"><ele>95.16666666666667</ele><time>2026-04-02T11:01:22Z</time></trkpt><trkpt lat="45.36263709577355" lon="10.706170884621292"><ele>95.0</ele><time>2026-04-02T11:01:24Z</time></trkpt><trkpt lat="45.36253187407236" lon="10.70619201172513"><ele>95.0</ele><time>2026-04-02T11:01:26Z</time></trkpt><trkpt lat="45.36245638912743" lon="10.706166118963658"><ele>95.0</ele><time>2026-04-02T11:01:27Z</time></trkpt><trkpt lat="45.3623429949167" lon="10.70614221339693"><ele>95.0</ele><time>2026-04-02T11:01:28Z</time></trkpt><trkpt lat="45.362208080232804" lon="10.70611377091104"><ele>95.0</ele><time>2026-04-02T11:01:29Z</time></trkpt><trkpt lat="45.36204933073878" lon="10.706078931429763"><ele>95.66666666666667</ele><time>2026-04-02T11:01:30Z</time></trkpt><trkpt lat="45.36187627658447" lon="10.706039057463165"><ele>96.33333333333334</ele><time>2026-04-02T11:01:31Z</time></trkpt><trkpt lat="45.361725102032736" lon="10.706009520481102"><ele>97.0</ele><time>2026-04-02T11:01:32Z</time></trkpt><trkpt lat="45.361593062155315" lon="10.706002286690754"><ele>97.0</ele><time>2026-04-02T11:01:33Z</time></trkpt><trkpt lat="45.361456695926876" lon="10.706022113118301"><ele>97.0</ele><time>2026-04-02T11:01:34Z</time></trkpt><trkpt lat="45.361310476283776" lon="10.706050521583986"><ele>97.0</ele><time>2026-04-02T11:01:35Z</time></trkpt><trkpt lat="45.36115285897362" lon="10.706060694587874"><ele>97.0</ele><time>2026-04-02T11:01:36Z</time></trkpt><trkpt lat="45.36097293697768" lon="10.706073982070146"><ele>95.0</ele><time>2026-04-02T11:01:37Z</time></trkpt><trkpt lat="45.36082136302609" lon="10.70610534779042"><ele>93.0</ele><time>2026-04-02T11:01:38Z</time></trkpt><trkpt lat="45.3606561165935" lon="10.706147173611019"><ele>91.0</ele><time>2026-04-02T11:01:39Z</time></trkpt><trkpt lat="45.360482865658184" lon="10.706228315080928"><ele>90.0</ele><time>2026-04-02T11:01:40Z</time></trkpt><trkpt lat="45.360332315545214" lon="10.706325549096308"><ele>89.0</ele><time>2026-04-02T11:01:41Z</time></trkpt><trkpt lat="45.36021500853791" lon="10.706439207586254"><ele>88.0</ele><time>2026-04-02T11:01:42Z</time></trkpt><trkpt lat="45.36011435068098" lon="10.706548717584107"><ele>87.0</ele><time>2026-04-02T11:01:43Z</time></trkpt><trkpt lat="45.36001973927233" lon="10.706631555559293"><ele>87.0</ele><time>2026-04-02T11:01:44Z</time></trkpt><trkpt lat="45.35992430233873" lon="10.706657206347312"><ele>87.0</ele><time>2026-04-02T11:01:45Z</time></trkpt><trkpt lat="45.359812054975386" lon="10.706655574655631"><ele>87.0</ele><time>2026-04-02T11:01:46Z</time></trkpt><trkpt lat="45.35968781760617" lon="10.706629584889203"><ele>87.0</ele><time>2026-04-02T11:01:47Z</time></trkpt><trkpt lat="45.359538044313304" lon="10.706603884589573"><ele>87.5</ele><time>2026-04-02T11:01:48Z</time></trkpt><trkpt lat="45.359379356778334" lon="10.706593442933036"><ele>88.0</ele><time>2026-04-02T11:01:49Z</time></trkpt><trkpt lat="45.359249693201754" lon="10.706560131273427"><ele>88.5</ele><time>2026-04-02T11:01:50Z</time></trkpt><trkpt lat="45.359128404959165" lon="10.706505028452876"><ele>89.0</ele><time>2026-04-02T11:01:51Z</time></trkpt><trkpt lat="45.35902012513455" lon="10.706472454781288"><ele>89.0</ele><time>2026-04-02T11:01:52Z</time></trkpt><trkpt lat="45.35891729637524" lon="10.706485943000867"><ele>89.0</ele><time>2026-04-02T11:01:52.999Z</time></trkpt><trkpt lat="45.3588032693447" lon="10.706545217470161"><ele>89.0</ele><time>2026-04-02T11:01:53.999Z</time></trkpt><trkpt lat="45.35866405749955" lon="10.706616652270196"><ele>89.0</ele><time>2026-04-02T11:01:54.999Z</time></trkpt><trkpt lat="45.358515885370046" lon="10.70665689230195"><ele>89.0</ele><time>2026-04-02T11:01:55.999Z</time></trkpt><trkpt lat="45.35837232124572" lon="10.706680718901518"><ele>89.0</ele><time>2026-04-02T11:01:56.999Z</time></trkpt><trkpt lat="45.35822673345187" lon="10.706716552196019"><ele>89.0</ele><time>2026-04-02T11:01:57.999Z</time></trkpt><trkpt lat="45.358083931967656" lon="10.706786153666243"><ele>89.0</ele><time>2026-04-02T11:01:58.999Z</time></trkpt><trkpt lat="45.35793399720206" lon="10.70688041867735"><ele>87.75</ele><time>2026-04-02T11:01:59.999Z</time></trkpt><trkpt lat="45.35780728383829" lon="10.706963815434408"><ele>86.5</ele><time>2026-04-02T11:02:00.999Z</time></trkpt><trkpt lat="45.3576817591961" lon="10.707040027292665"><ele>85.25</ele><time>2026-04-02T11:02:01.999Z</time></trkpt><trkpt lat="45.3575536999826" lon="10.707129274333095"><ele>84.0</ele><time>2026-04-02T11:02:02.999Z</time></trkpt><trkpt lat="45.3574243229326" lon="10.70724413875178"><ele>84.0</ele><time>2026-04-02T11:02:03.999Z</time></trkpt><trkpt lat="45.357299759570466" lon="10.707367018509117"><ele>84.0</ele><time>2026-04-02T11:02:04.999Z</time></trkpt><trkpt lat="45.35717263357057" lon="10.70749933786686"><ele>84.0</ele><time>2026-04-02T11:02:05.999Z</time></trkpt><trkpt lat="45.357051295386185" lon="10.707638315312375"><ele>84.0</ele><time>2026-04-02T11:02:06.999Z</time></trkpt><trkpt lat="45.356933324610694" lon="10.707779765001913"><ele>84.0</ele><time>2026-04-02T11:02:07.999Z</time></trkpt><trkpt lat="45.35682080727246" lon="10.707928562996"><ele>84.0</ele><time>2026-04-02T11:02:08.999Z</time></trkpt><trkpt lat="45.35672621035704" lon="10.708077831887353"><ele>84.0</ele><time>2026-04-02T11:02:09.999Z</time></trkpt><trkpt lat="45.356651281579445" lon="10.70820532552031"><ele>84.0</ele><time>2026-04-02T11:02:10.999Z</time></trkpt><trkpt lat="45.35658663063876" lon="10.708287845222179"><ele>84.0</ele><time>2026-04-02T11:02:11.999Z</time></trkpt><trkpt lat="45.35651040729247" lon="10.708321475344878"><ele>84.0</ele><time>2026-04-02T11:02:12.999Z</time></trkpt><trkpt lat="45.35641575267045" lon="10.708330287814736"><ele>84.0</ele><time>2026-04-02T11:02:13.999Z</time></trkpt><trkpt lat="45.35632250478652" lon="10.708313041457126"><ele>84.0</ele><time>2026-04-02T11:02:14.999Z</time></trkpt><trkpt lat="45.35621878569374" lon="10.70826524111216"><ele>85.0</ele><time>2026-04-02T11:02:15.999Z</time></trkpt><trkpt lat="45.35609478985062" lon="10.708205473784584"><ele>86.0</ele><time>2026-04-02T11:02:16.999Z</time></trkpt><trkpt lat="45.355961752679725" lon="10.708144332441787"><ele>87.0</ele><time>2026-04-02T11:02:17.999Z</time></trkpt><trkpt lat="45.355864766484984" lon="10.708093842268358"><ele>88.0</ele><time>2026-04-02T11:02:18.999Z</time></trkpt><trkpt lat="45.35577614788" lon="10.708051686907183"><ele>88.0</ele><time>2026-04-02T11:02:19.999Z</time></trkpt><trkpt lat="45.35570671942502" lon="10.708029724027126"><ele>88.0</ele><time>2026-04-02T11:02:20.999Z</time></trkpt><trkpt lat="45.355631378551216" lon="10.708017010486289"><ele>88.0</ele><time>2026-04-02T11:02:21.999Z</time></trkpt><trkpt lat="45.35552727639717" lon="10.707992940164816"><ele>88.0</ele><time>2026-04-02T11:02:23.999Z</time></trkpt><trkpt lat="45.35550879800255" lon="10.707703174514965"><ele>87.25</ele><time>2026-04-02T11:02:33.999Z</time></trkpt><trkpt lat="45.35553795053953" lon="10.707568162714349"><ele>86.5</ele><time>2026-04-02T11:02:34.999Z</time></trkpt><trkpt lat="45.355559624230445" lon="10.707421320629493"><ele>85.75</ele><time>2026-04-02T11:02:35.999Z</time></trkpt><trkpt lat="45.35557726451612" lon="10.707260754257534"><ele>85.0</ele><time>2026-04-02T11:02:36.999Z</time></trkpt><trkpt lat="45.355593736934125" lon="10.70706962790225"><ele>84.66666666666666</ele><time>2026-04-02T11:02:37.999Z</time></trkpt><trkpt lat="45.35561186731632" lon="10.706840931777448"><ele>84.33333333333333</ele><time>2026-04-02T11:02:38.999Z</time></trkpt><trkpt lat="45.35562988825808" lon="10.706625614150205"><ele>84.0</ele><time>2026-04-02T11:02:39.999Z</time></trkpt><trkpt lat="45.35564451563595" lon="10.706424772862192"><ele>84.0</ele><time>2026-04-02T11:02:40.999Z</time></trkpt><trkpt lat="45.355657822004886" lon="10.706232219748985"><ele>84.0</ele><time>2026-04-02T11:02:41.999Z</time></trkpt><trkpt lat="45.35566889231036" lon="10.706040234026531"><ele>84.0</ele><time>2026-04-02T11:02:42.999Z</time></trkpt><trkpt lat="45.35568196609193" lon="10.705851399263874"><ele>84.0</ele><time>2026-04-02T11:02:43.999Z</time></trkpt><trkpt lat="45.35569750166916" lon="10.705659706095501"><ele>84.0</ele><time>2026-04-02T11:02:45Z</time></trkpt><trkpt lat="45.35571497247008" lon="10.705461790525078"><ele>84.0</ele><time>2026-04-02T11:02:46Z</time></trkpt><trkpt lat="45.3557260687505" lon="10.70526219456235"><ele>84.0</ele><time>2026-04-02T11:02:47Z</time></trkpt><trkpt lat="45.35574009339061" lon="10.705062415699274"><ele>84.0</ele><time>2026-04-02T11:02:48Z</time></trkpt><trkpt lat="45.35575681151083" lon="10.704865089948038"><ele>85.25</ele><time>2026-04-02T11:02:49Z</time></trkpt><trkpt lat="45.35577903468687" lon="10.704671424992679"><ele>86.5</ele><time>2026-04-02T11:02:50Z</time></trkpt><trkpt lat="45.355801014125184" lon="10.704481144351256"><ele>87.75</ele><time>2026-04-02T11:02:51Z</time></trkpt><trkpt lat="45.35583836636854" lon="10.70429649201821"><ele>89.0</ele><time>2026-04-02T11:02:52Z</time></trkpt><trkpt lat="45.35585694056002" lon="10.704105651143797"><ele>89.75</ele><time>2026-04-02T11:02:53Z</time></trkpt><trkpt lat="45.35587002393731" lon="10.703912119771886"><ele>90.5</ele><time>2026-04-02T11:02:54Z</time></trkpt><trkpt lat="45.3558772281869" lon="10.703709692168092"><ele>91.25</ele><time>2026-04-02T11:02:55Z</time></trkpt><trkpt lat="45.35588018422077" lon="10.70350742751388"><ele>92.0</ele><time>2026-04-02T11:02:56Z</time></trkpt><trkpt lat="45.355880245597234" lon="10.70331383766178"><ele>92.0</ele><time>2026-04-02T11:02:57Z</time></trkpt><trkpt lat="45.355878524733235" lon="10.7031455693875"><ele>92.0</ele><time>2026-04-02T11:02:58Z</time></trkpt><trkpt lat="45.35587651198203" lon="10.703009315055516"><ele>92.0</ele><time>2026-04-02T11:02:59Z</time></trkpt><trkpt lat="45.35586457936718" lon="10.702877876165156"><ele>92.0</ele><time>2026-04-02T11:03:01Z</time></trkpt><trkpt lat="45.35591263071438" lon="10.702815958781095"><ele>92.0</ele><time>2026-04-02T11:03:03Z</time></trkpt><trkpt lat="45.35609456281398" lon="10.702853063589346"><ele>92.0</ele><time>2026-04-02T11:03:06Z</time></trkpt><trkpt lat="45.3561769352931" lon="10.70287614358983"><ele>92.0</ele><time>2026-04-02T11:03:07Z</time></trkpt><trkpt lat="45.35627284345468" lon="10.702894730315627"><ele>92.0</ele><time>2026-04-02T11:03:08Z</time></trkpt><trkpt lat="45.35638074960052" lon="10.702910284647452"><ele>92.0</ele><time>2026-04-02T11:03:09Z</time></trkpt><trkpt lat="45.35651222471976" lon="10.70292978912523"><ele>92.0</ele><time>2026-04-02T11:03:10Z</time></trkpt><trkpt lat="45.35665587601342" lon="10.702947116146689"><ele>92.0</ele><time>2026-04-02T11:03:11Z</time></trkpt><trkpt lat="45.35678332684567" lon="10.702967497620323"><ele>92.0</ele><time>2026-04-02T11:03:12Z</time></trkpt><trkpt lat="45.35688912552159" lon="10.702996128057173"><ele>92.0</ele><time>2026-04-02T11:03:13Z</time></trkpt><trkpt lat="45.356980889218306" lon="10.703025743312454"><ele>92.0</ele><time>2026-04-02T11:03:14Z</time></trkpt><trkpt lat="45.35705510772456" lon="10.703046491835382"><ele>92.0</ele><time>2026-04-02T11:03:15Z</time></trkpt><trkpt lat="45.35715738424125" lon="10.702987204046616"><ele>92.0</ele><time>2026-04-02T11:03:17Z</time></trkpt><trkpt lat="45.35718877696396" lon="10.702881904764688"><ele>92.0</ele><time>2026-04-02T11:03:18Z</time></trkpt><trkpt lat="45.35722744982676" lon="10.702735122459494"><ele>92.0</ele><time>2026-04-02T11:03:19Z</time></trkpt><trkpt lat="45.35728181721652" lon="10.702542902504893"><ele>92.0</ele><time>2026-04-02T11:03:20Z</time></trkpt><trkpt lat="45.35735100783621" lon="10.702362126163683"><ele>92.66666666666667</ele><time>2026-04-02T11:03:21Z</time></trkpt><trkpt lat="45.35742897537567" lon="10.702185753802212"><ele>93.33333333333333</ele><time>2026-04-02T11:03:22Z</time></trkpt><trkpt lat="45.35750532968707" lon="10.702001210829431"><ele>94.0</ele><time>2026-04-02T11:03:23Z</time></trkpt><trkpt lat="45.35757842064825" lon="10.701803890863733"><ele>94.0</ele><time>2026-04-02T11:03:24Z</time></trkpt><trkpt lat="45.35764272757823" lon="10.70164223871215"><ele>94.0</ele><time>2026-04-02T11:03:25Z</time></trkpt><trkpt lat="45.35770566521753" lon="10.701501912346306"><ele>94.0</ele><time>2026-04-02T11:03:26Z</time></trkpt><trkpt lat="45.35776907831078" lon="10.701379110362458"><ele>94.0</ele><time>2026-04-02T11:03:27Z</time></trkpt><trkpt lat="45.3578345070762" lon="10.701258315597906"><ele>94.0</ele><time>2026-04-02T11:03:28Z</time></trkpt><trkpt lat="45.35789580755223" lon="10.701157964140377"><ele>94.0</ele><time>2026-04-02T11:03:29Z</time></trkpt><trkpt lat="45.35794641600222" lon="10.701064940593017"><ele>94.0</ele><time>2026-04-02T11:03:30Z</time></trkpt><trkpt lat="45.35800144710431" lon="10.70096235945159"><ele>94.0</ele><time>2026-04-02T11:03:31Z</time></trkpt><trkpt lat="45.358064350745025" lon="10.700839659775706"><ele>94.0</ele><time>2026-04-02T11:03:32Z</time></trkpt><trkpt lat="45.35814410501771" lon="10.70068672142924"><ele>94.0</ele><time>2026-04-02T11:03:33Z</time></trkpt><trkpt lat="45.3582514907264" lon="10.700485851812925"><ele>94.0</ele><time>2026-04-02T11:03:34Z</time></trkpt><trkpt lat="45.35834831543619" lon="10.700297101287898"><ele>94.0</ele><time>2026-04-02T11:03:35Z</time></trkpt><trkpt lat="45.35842489416395" lon="10.700134656853198"><ele>94.0</ele><time>2026-04-02T11:03:36Z</time></trkpt><trkpt lat="45.358488076036906" lon="10.699999301155131"><ele>94.0</ele><time>2026-04-02T11:03:37Z</time></trkpt><trkpt lat="45.358547279472994" lon="10.699894717038802"><ele>94.0</ele><time>2026-04-02T11:03:38Z</time></trkpt><trkpt lat="45.35860340326481" lon="10.699809752207507"><ele>94.0</ele><time>2026-04-02T11:03:39Z</time></trkpt><trkpt lat="45.35865678103143" lon="10.699735280465907"><ele>94.0</ele><time>2026-04-02T11:03:40Z</time></trkpt><trkpt lat="45.35870150387082" lon="10.699657468447638"><ele>94.0</ele><time>2026-04-02T11:03:41Z</time></trkpt><trkpt lat="45.358749377446074" lon="10.69957751182571"><ele>94.0</ele><time>2026-04-02T11:03:42Z</time></trkpt><trkpt lat="45.35878271071018" lon="10.699482477322967"><ele>94.0</ele><time>2026-04-02T11:03:43Z</time></trkpt><trkpt lat="45.35880903090523" lon="10.699373014900607"><ele>94.0</ele><time>2026-04-02T11:03:44Z</time></trkpt><trkpt lat="45.35883756991806" lon="10.699279236447893"><ele>94.0</ele><time>2026-04-02T11:03:45Z</time></trkpt><trkpt lat="45.35886535611225" lon="10.699189205083545"><ele>94.0</ele><time>2026-04-02T11:03:46Z</time></trkpt><trkpt lat="45.358908114918236" lon="10.699069862619986"><ele>94.0</ele><time>2026-04-02T11:03:48Z</time></trkpt><trkpt lat="45.35891288558332" lon="10.698968656342382"><ele>93.80000000000001</ele><time>2026-04-02T11:03:53Z</time></trkpt><trkpt lat="45.358805035511104" lon="10.698894606758058"><ele>93.60000000000001</ele><time>2026-04-02T11:03:55Z</time></trkpt><trkpt lat="45.35873023706605" lon="10.698821930376322"><ele>93.4</ele><time>2026-04-02T11:03:56Z</time></trkpt><trkpt lat="45.3586639432528" lon="10.698738066858605"><ele>93.2</ele><time>2026-04-02T11:03:57Z</time></trkpt><trkpt lat="45.3586502270544" lon="10.698599528699823"><ele>93.0</ele><time>2026-04-02T11:03:59Z</time></trkpt><trkpt lat="45.35866962567741" lon="10.698505907518538"><ele>93.0</ele><time>2026-04-02T11:04:00Z</time></trkpt><trkpt lat="45.35871296535397" lon="10.698413509047965"><ele>93.0</ele><time>2026-04-02T11:04:01Z</time></trkpt><trkpt lat="45.35876693434442" lon="10.698329888361501"><ele>93.0</ele><time>2026-04-02T11:04:02Z</time></trkpt><trkpt lat="45.35883769518374" lon="10.69826222092069"><ele>93.0</ele><time>2026-04-02T11:04:03Z</time></trkpt><trkpt lat="45.35893717144981" lon="10.698194099019394"><ele>93.0</ele><time>2026-04-02T11:04:04Z</time></trkpt><trkpt lat="45.35904172430842" lon="10.698115828522578"><ele>93.0</ele><time>2026-04-02T11:04:05Z</time></trkpt><trkpt lat="45.359123062506875" lon="10.698039532798415"><ele>93.0</ele><time>2026-04-02T11:04:06Z</time></trkpt><trkpt lat="45.35919391002329" lon="10.697956226073298"><ele>93.0</ele><time>2026-04-02T11:04:07Z</time></trkpt><trkpt lat="45.359239251115675" lon="10.697881903743518"><ele>93.0</ele><time>2026-04-02T11:04:08Z</time></trkpt><trkpt lat="45.359260917435215" lon="10.697795719467505"><ele>93.0</ele><time>2026-04-02T11:04:09Z</time></trkpt><trkpt lat="45.359267836727724" lon="10.697699772115854"><ele>93.0</ele><time>2026-04-02T11:04:10Z</time></trkpt><trkpt lat="45.35925948514743" lon="10.697583807152771"><ele>93.0</ele><time>2026-04-02T11:04:11Z</time></trkpt><trkpt lat="45.35924703272017" lon="10.697428066215696"><ele>93.0</ele><time>2026-04-02T11:04:12Z</time></trkpt><trkpt lat="45.359224817001746" lon="10.6972307486189"><ele>93.0</ele><time>2026-04-02T11:04:13Z</time></trkpt><trkpt lat="45.359193707231114" lon="10.697043380036646"><ele>93.0</ele><time>2026-04-02T11:04:14Z</time></trkpt><trkpt lat="45.35916805267859" lon="10.696848556396535"><ele>92.25</ele><time>2026-04-02T11:04:15Z</time></trkpt><trkpt lat="45.359126643609116" lon="10.696599396965674"><ele>91.5</ele><time>2026-04-02T11:04:16Z</time></trkpt><trkpt lat="45.35908866018901" lon="10.696378064877093"><ele>90.75</ele><time>2026-04-02T11:04:17Z</time></trkpt><trkpt lat="45.35906334777666" lon="10.6962296876058"><ele>90.0</ele><time>2026-04-02T11:04:18Z</time></trkpt><trkpt lat="45.35904458489202" lon="10.696094887628048"><ele>89.2</ele><time>2026-04-02T11:04:19Z</time></trkpt><trkpt lat="45.359014238186965" lon="10.695981894264149"><ele>88.4</ele><time>2026-04-02T11:04:20Z</time></trkpt><trkpt lat="45.358990549073226" lon="10.695894549317222"><ele>87.6</ele><time>2026-04-02T11:04:21Z</time></trkpt><trkpt lat="45.358952776550005" lon="10.695800018368047"><ele>86.8</ele><time>2026-04-02T11:04:23Z</time></trkpt><trkpt lat="45.35902226000467" lon="10.695561985360904"><ele>86.0</ele><time>2026-04-02T11:04:49.999Z</time></trkpt><trkpt lat="45.359089003342994" lon="10.695540013636597"><ele>86.0</ele><time>2026-04-02T11:04:51Z</time></trkpt><trkpt lat="45.359175231391006" lon="10.695533699399839"><ele>86.0</ele><time>2026-04-02T11:04:52Z</time></trkpt><trkpt lat="45.35927575847805" lon="10.695544297932981"><ele>86.0</ele><time>2026-04-02T11:04:53Z</time></trkpt><trkpt lat="45.35937453996135" lon="10.695556100878571"><ele>86.0</ele><time>2026-04-02T11:04:54Z</time></trkpt><trkpt lat="45.35946869369855" lon="10.69557019778299"><ele>86.0</ele><time>2026-04-02T11:04:55Z</time></trkpt><trkpt lat="45.359554850335186" lon="10.69558664771046"><ele>86.0</ele><time>2026-04-02T11:04:56Z</time></trkpt><trkpt lat="45.359640949604106" lon="10.695616514775718"><ele>86.0</ele><time>2026-04-02T11:04:57Z</time></trkpt><trkpt lat="45.35972825370924" lon="10.695643624022015"><ele>86.0</ele><time>2026-04-02T11:04:58Z</time></trkpt><trkpt lat="45.35981356485291" lon="10.695651475410772"><ele>86.0</ele><time>2026-04-02T11:04:59Z</time></trkpt><trkpt lat="45.359907775355545" lon="10.695643307333508"><ele>86.0</ele><time>2026-04-02T11:05:00Z</time></trkpt><trkpt lat="45.3599988004369" lon="10.695639078246005"><ele>86.0</ele><time>2026-04-02T11:05:01Z</time></trkpt><trkpt lat="45.36006913309106" lon="10.69564326362378"><ele>85.6</ele><time>2026-04-02T11:05:02Z</time></trkpt><trkpt lat="45.36018951812296" lon="10.69564987768739"><ele>85.19999999999999</ele><time>2026-04-02T11:05:04Z</time></trkpt><trkpt lat="45.360313354402926" lon="10.69565868348985"><ele>84.80000000000001</ele><time>2026-04-02T11:05:06Z</time></trkpt><trkpt lat="45.360379967826454" lon="10.69566657294916"><ele>84.4</ele><time>2026-04-02T11:05:07Z</time></trkpt><trkpt lat="45.360498655592544" lon="10.695671045748051"><ele>84.0</ele><time>2026-04-02T11:05:09Z</time></trkpt><trkpt lat="45.36059780403256" lon="10.695675131014236"><ele>84.0</ele><time>2026-04-02T11:05:11Z</time></trkpt><trkpt lat="45.36067472191854" lon="10.695663470319849"><ele>84.0</ele><time>2026-04-02T11:05:13Z</time></trkpt><trkpt lat="45.36075102510845" lon="10.695651490496527"><ele>84.0</ele><time>2026-04-02T11:05:16Z</time></trkpt><trkpt lat="45.36059312160189" lon="10.695690089927728"><ele>84.0</ele><time>2026-04-02T11:05:23Z</time></trkpt><trkpt lat="45.36046308522035" lon="10.695687362121289"><ele>84.0</ele><time>2026-04-02T11:05:24Z</time></trkpt><trkpt lat="45.36030497519065" lon="10.695663336399436"><ele>83.0</ele><time>2026-04-02T11:05:25Z</time></trkpt><trkpt lat="45.36014612476018" lon="10.695652067330249"><ele>82.0</ele><time>2026-04-02T11:05:26Z</time></trkpt><trkpt lat="45.36003579294639" lon="10.695653574706315"><ele>81.0</ele><time>2026-04-02T11:05:27Z</time></trkpt><trkpt lat="45.359944992765726" lon="10.695652664041953"><ele>80.0</ele><time>2026-04-02T11:05:28Z</time></trkpt><trkpt lat="45.35983397269283" lon="10.69566364924658"><ele>80.0</ele><time>2026-04-02T11:05:29Z</time></trkpt><trkpt lat="45.359712460107" lon="10.695658410140076"><ele>80.0</ele><time>2026-04-02T11:05:30Z</time></trkpt><trkpt lat="45.35960945833267" lon="10.695645724416416"><ele>80.0</ele><time>2026-04-02T11:05:31Z</time></trkpt><trkpt lat="45.35951929487338" lon="10.695617013428311"><ele>80.0</ele><time>2026-04-02T11:05:32Z</time></trkpt><trkpt lat="45.35942686521392" lon="10.69558053195469"><ele>80.0</ele><time>2026-04-02T11:05:33Z</time></trkpt><trkpt lat="45.359331041220486" lon="10.695560000908836"><ele>81.2</ele><time>2026-04-02T11:05:34Z</time></trkpt><trkpt lat="45.35921386441326" lon="10.695559809206896"><ele>82.4</ele><time>2026-04-02T11:05:35Z</time></trkpt><trkpt lat="45.359107636626845" lon="10.695560660762137"><ele>83.6</ele><time>2026-04-02T11:05:36Z</time></trkpt><trkpt lat="45.35902376520746" lon="10.695568751247459"><ele>84.8</ele><time>2026-04-02T11:05:37Z</time></trkpt><trkpt lat="45.35896052467069" lon="10.695599316067685"><ele>86.0</ele><time>2026-04-02T11:05:38Z</time></trkpt><trkpt lat="45.35889900551613" lon="10.695710818881654"><ele>86.0</ele><time>2026-04-02T11:05:40Z</time></trkpt><trkpt lat="45.35897771601141" lon="10.695735992097935"><ele>86.0</ele><time>2026-04-02T11:05:58Z</time></trkpt><trkpt lat="45.35909104932079" lon="10.695709779073345"><ele>86.0</ele><time>2026-04-02T11:06:32Z</time></trkpt><trkpt lat="45.359273216187496" lon="10.695721785794337"><ele>86.0</ele><time>2026-04-02T11:06:38Z</time></trkpt><trkpt lat="45.359385927452976" lon="10.695732760257169"><ele>86.00000000000001</ele><time>2026-04-02T11:06:40Z</time></trkpt><trkpt lat="45.359452524279" lon="10.695742523918558"><ele>86.0</ele><time>2026-04-02T11:06:41Z</time></trkpt><trkpt lat="45.3595215255098" lon="10.695753486663499"><ele>86.0</ele><time>2026-04-02T11:06:42Z</time></trkpt><trkpt lat="45.35959017296323" lon="10.695754773885827"><ele>86.0</ele><time>2026-04-02T11:06:43Z</time></trkpt><trkpt lat="45.35966526333783" lon="10.69575459077884"><ele>86.0</ele><time>2026-04-02T11:06:44Z</time></trkpt><trkpt lat="45.35974459135206" lon="10.695753206562744"><ele>86.00000000000001</ele><time>2026-04-02T11:06:45Z</time></trkpt><trkpt lat="45.359822436594726" lon="10.695754253059093"><ele>86.0</ele><time>2026-04-02T11:06:46Z</time></trkpt><trkpt lat="45.35991356244498" lon="10.695743214560489"><ele>85.0</ele><time>2026-04-02T11:06:47Z</time></trkpt><trkpt lat="45.359999368378176" lon="10.695745304027621"><ele>84.0</ele><time>2026-04-02T11:06:48Z</time></trkpt><trkpt lat="45.360089548432505" lon="10.69574773768573"><ele>83.0</ele><time>2026-04-02T11:06:49Z</time></trkpt><trkpt lat="45.36018920734474" lon="10.695752892925576"><ele>82.0</ele><time>2026-04-02T11:06:50Z</time></trkpt><trkpt lat="45.360269336673305" lon="10.695757568285963"><ele>81.0</ele><time>2026-04-02T11:06:51Z</time></trkpt><trkpt lat="45.36035466246212" lon="10.695764427865285"><ele>80.0</ele><time>2026-04-02T11:06:52Z</time></trkpt><trkpt lat="45.36043935628395" lon="10.695772606713895"><ele>80.66666666666667</ele><time>2026-04-02T11:06:53Z</time></trkpt><trkpt lat="45.360533814909886" lon="10.69578191570404"><ele>81.33333333333334</ele><time>2026-04-02T11:06:54Z</time></trkpt><trkpt lat="45.36062090865545" lon="10.695771372996298"><ele>82.0</ele><time>2026-04-02T11:06:55Z</time></trkpt><trkpt lat="45.360704072895565" lon="10.695763810156192"><ele>82.66666666666667</ele><time>2026-04-02T11:06:56Z</time></trkpt><trkpt lat="45.36078016746184" lon="10.695745227981527"><ele>83.33333333333333</ele><time>2026-04-02T11:06:57.001Z</time></trkpt><trkpt lat="45.36083951681392" lon="10.695687281461364"><ele>84.0</ele><time>2026-04-02T11:06:59.001Z</time></trkpt><trkpt lat="45.36085265673545" lon="10.695586198220102"><ele>84.0</ele><time>2026-04-02T11:07:02.001Z</time></trkpt><trkpt lat="45.360825017931404" lon="10.695497139121276"><ele>84.0</ele><time>2026-04-02T11:07:05Z</time></trkpt><trkpt lat="45.36080337677515" lon="10.695357976195128"><ele>84.0</ele><time>2026-04-02T11:07:08Z</time></trkpt><trkpt lat="45.36079692253415" lon="10.695259734936435"><ele>84.0</ele><time>2026-04-02T11:07:09Z</time></trkpt><trkpt lat="45.36079556402316" lon="10.695128224991533"><ele>84.0</ele><time>2026-04-02T11:07:10Z</time></trkpt><trkpt lat="45.36079474617139" lon="10.694997599884886"><ele>84.0</ele><time>2026-04-02T11:07:11Z</time></trkpt><trkpt lat="45.360793759643606" lon="10.69485602659056"><ele>84.25</ele><time>2026-04-02T11:07:12Z</time></trkpt><trkpt lat="45.36079838397669" lon="10.694696178917068"><ele>84.5</ele><time>2026-04-02T11:07:13Z</time></trkpt><trkpt lat="45.360798971124275" lon="10.694522233675352"><ele>84.75</ele><time>2026-04-02T11:07:14Z</time></trkpt><trkpt lat="45.360798607487695" lon="10.69432453786362"><ele>85.0</ele><time>2026-04-02T11:07:15Z</time></trkpt><trkpt lat="45.360809986942655" lon="10.694077955034496"><ele>84.0</ele><time>2026-04-02T11:07:16Z</time></trkpt><trkpt lat="45.360828392173964" lon="10.693800572186577"><ele>83.0</ele><time>2026-04-02T11:07:17Z</time></trkpt><trkpt lat="45.36084247275746" lon="10.693529602942146"><ele>82.0</ele><time>2026-04-02T11:07:18Z</time></trkpt><trkpt lat="45.360853768516634" lon="10.693311574052178"><ele>82.0</ele><time>2026-04-02T11:07:19Z</time></trkpt><trkpt lat="45.36084983566162" lon="10.693085735479603"><ele>82.0</ele><time>2026-04-02T11:07:20Z</time></trkpt><trkpt lat="45.36084941527218" lon="10.692871306209097"><ele>82.0</ele><time>2026-04-02T11:07:20.999Z</time></trkpt><trkpt lat="45.36086511328827" lon="10.69270486600957"><ele>82.0</ele><time>2026-04-02T11:07:21.999Z</time></trkpt><trkpt lat="45.360885560995705" lon="10.692606515696863"><ele>82.0</ele><time>2026-04-02T11:07:22.999Z</time></trkpt><trkpt lat="45.36095873422654" lon="10.69253335320703"><ele>82.0</ele><time>2026-04-02T11:07:24.999Z</time></trkpt><trkpt lat="45.36102739641496" lon="10.692522950150577"><ele>82.0</ele><time>2026-04-02T11:07:25.999Z</time></trkpt><trkpt lat="45.36112692886126" lon="10.692499651992106"><ele>82.0</ele><time>2026-04-02T11:07:26.999Z</time></trkpt><trkpt lat="45.36125219389825" lon="10.692455392515333"><ele>82.0</ele><time>2026-04-02T11:07:27.999Z</time></trkpt><trkpt lat="45.36140223870335" lon="10.692404790832725"><ele>82.0</ele><time>2026-04-02T11:07:28.999Z</time></trkpt><trkpt lat="45.36157323143546" lon="10.692346619114646"><ele>82.0</ele><time>2026-04-02T11:07:29.999Z</time></trkpt><trkpt lat="45.36173884044846" lon="10.69229087331299"><ele>82.0</ele><time>2026-04-02T11:07:30.999Z</time></trkpt><trkpt lat="45.36188649149453" lon="10.692238952335087"><ele>82.0</ele><time>2026-04-02T11:07:31.999Z</time></trkpt><trkpt lat="45.36202909047339" lon="10.692185174192446"><ele>82.0</ele><time>2026-04-02T11:07:32.999Z</time></trkpt><trkpt lat="45.36217074918293" lon="10.692124102825263"><ele>82.0</ele><time>2026-04-02T11:07:33.999Z</time></trkpt><trkpt lat="45.36231004933773" lon="10.692066646123136"><ele>82.0</ele><time>2026-04-02T11:07:34.999Z</time></trkpt><trkpt lat="45.362445647313045" lon="10.692007377210503"><ele>81.75</ele><time>2026-04-02T11:07:35.999Z</time></trkpt><trkpt lat="45.36257830169978" lon="10.691939841471042"><ele>81.5</ele><time>2026-04-02T11:07:36.999Z</time></trkpt><trkpt lat="45.36271037178248" lon="10.69187113585529"><ele>81.25</ele><time>2026-04-02T11:07:37.999Z</time></trkpt><trkpt lat="45.36284203818707" lon="10.69179988278226"><ele>81.0</ele><time>2026-04-02T11:07:38.999Z</time></trkpt><trkpt lat="45.362976096193755" lon="10.69172186273386"><ele>81.5</ele><time>2026-04-02T11:07:39.999Z</time></trkpt><trkpt lat="45.36311040529835" lon="10.691656601796408"><ele>82.0</ele><time>2026-04-02T11:07:40.999Z</time></trkpt><trkpt lat="45.36324086469961" lon="10.691594416898498"><ele>82.5</ele><time>2026-04-02T11:07:41.999Z</time></trkpt><trkpt lat="45.36335995113759" lon="10.691545692102963"><ele>83.0</ele><time>2026-04-02T11:07:42.999Z</time></trkpt><trkpt lat="45.36346784824425" lon="10.691516289969188"><ele>83.0</ele><time>2026-04-02T11:07:43.999Z</time></trkpt><trkpt lat="45.363558860131036" lon="10.691486600140221"><ele>83.0</ele><time>2026-04-02T11:07:44.999Z</time></trkpt><trkpt lat="45.36363886347652" lon="10.691461437468844"><ele>83.0</ele><time>2026-04-02T11:07:45.999Z</time></trkpt><trkpt lat="45.363703399868676" lon="10.691446519175624"><ele>83.0</ele><time>2026-04-02T11:07:46.999Z</time></trkpt><trkpt lat="45.3637593582418" lon="10.691388491396411"><ele>83.0</ele><time>2026-04-02T11:07:48.999Z</time></trkpt><trkpt lat="45.36371660808987" lon="10.691289583872221"><ele>83.0</ele><time>2026-04-02T11:07:50.999Z</time></trkpt><trkpt lat="45.36366214702317" lon="10.691215519713815"><ele>83.0</ele><time>2026-04-02T11:07:51.999Z</time></trkpt><trkpt lat="45.36360572200861" lon="10.69112105981138"><ele>83.0</ele><time>2026-04-02T11:07:52.999Z</time></trkpt><trkpt lat="45.363553544872005" lon="10.691025783131488"><ele>83.0</ele><time>2026-04-02T11:07:53.999Z</time></trkpt><trkpt lat="45.36350533547825" lon="10.69094721493233"><ele>83.0</ele><time>2026-04-02T11:07:54.999Z</time></trkpt><trkpt lat="45.36345116048327" lon="10.690864699659548"><ele>83.0</ele><time>2026-04-02T11:07:55.999Z</time></trkpt><trkpt lat="45.36341115871209" lon="10.690774699060627"><ele>83.0</ele><time>2026-04-02T11:07:56.999Z</time></trkpt><trkpt lat="45.363375211981314" lon="10.690689990331487"><ele>83.16666666666667</ele><time>2026-04-02T11:07:57.999Z</time></trkpt><trkpt lat="45.363331581991744" lon="10.690592760256244"><ele>83.33333333333334</ele><time>2026-04-02T11:07:58.999Z</time></trkpt><trkpt lat="45.363285665058974" lon="10.690490940645807"><ele>83.5</ele><time>2026-04-02T11:07:59.999Z</time></trkpt><trkpt lat="45.363240110077406" lon="10.690387849865823"><ele>83.66666666666667</ele><time>2026-04-02T11:08:00.999Z</time></trkpt><trkpt lat="45.36320113266578" lon="10.690280085717369"><ele>83.83333333333333</ele><time>2026-04-02T11:08:01.999Z</time></trkpt><trkpt lat="45.3631614357568" lon="10.690171795955282"><ele>84.0</ele><time>2026-04-02T11:08:02.999Z</time></trkpt><trkpt lat="45.3631236271305" lon="10.690064618330343"><ele>84.0</ele><time>2026-04-02T11:08:03.999Z</time></trkpt><trkpt lat="45.36308553172752" lon="10.689955115465104"><ele>84.0</ele><time>2026-04-02T11:08:04.999Z</time></trkpt><trkpt lat="45.36305029678653" lon="10.689846853435872"><ele>84.0</ele><time>2026-04-02T11:08:05.999Z</time></trkpt><trkpt lat="45.36301427077327" lon="10.689739349110381"><ele>84.0</ele><time>2026-04-02T11:08:06.999Z</time></trkpt><trkpt lat="45.362970801758195" lon="10.689641204876272"><ele>84.0</ele><time>2026-04-02T11:08:07.999Z</time></trkpt><trkpt lat="45.36292287540559" lon="10.68955505839434"><ele>84.0</ele><time>2026-04-02T11:08:08.999Z</time></trkpt><trkpt lat="45.36287844504493" lon="10.689484088373733"><ele>84.2</ele><time>2026-04-02T11:08:09.999Z</time></trkpt><trkpt lat="45.36279850243286" lon="10.6893611166264"><ele>84.4</ele><time>2026-04-02T11:08:11.999Z</time></trkpt><trkpt lat="45.36273211136457" lon="10.689256164324618"><ele>84.6</ele><time>2026-04-02T11:08:13.999Z</time></trkpt><trkpt lat="45.36265168631062" lon="10.689132876758444"><ele>84.8</ele><time>2026-04-02T11:08:15.999Z</time></trkpt><trkpt lat="45.362612496810485" lon="10.68905787049348"><ele>85.0</ele><time>2026-04-02T11:08:16.999Z</time></trkpt><trkpt lat="45.36255685278466" lon="10.688946640489826"><ele>85.0</ele><time>2026-04-02T11:08:18.999Z</time></trkpt><trkpt lat="45.362474099961794" lon="10.688862681580268"><ele>85.0</ele><time>2026-04-02T11:08:20.999Z</time></trkpt><trkpt lat="45.36239112611135" lon="10.688791800403136"><ele>85.0</ele><time>2026-04-02T11:08:22.999Z</time></trkpt><trkpt lat="45.36232212974732" lon="10.68876342290928"><ele>85.0</ele><time>2026-04-02T11:08:24.999Z</time></trkpt><trkpt lat="45.36224247746293" lon="10.68869416064557"><ele>85.0</ele><time>2026-04-02T11:08:31.999Z</time></trkpt><trkpt lat="45.36219335932735" lon="10.68860540893378"><ele>85.0</ele><time>2026-04-02T11:08:33.999Z</time></trkpt><trkpt lat="45.36220325869796" lon="10.688475515446044"><ele>85.5</ele><time>2026-04-02T11:08:35.999Z</time></trkpt><trkpt lat="45.362232244576795" lon="10.688351232272622"><ele>86.0</ele><time>2026-04-02T11:08:37.999Z</time></trkpt><trkpt lat="45.3622452425882" lon="10.688231370135457"><ele>86.5</ele><time>2026-04-02T11:08:39.999Z</time></trkpt><trkpt lat="45.36230778825428" lon="10.688167187327393"><ele>87.0</ele><time>2026-04-02T11:08:42.999Z</time></trkpt><trkpt lat="45.36238398501627" lon="10.6881341321809"><ele>87.5</ele><time>2026-04-02T11:08:44.999Z</time></trkpt><trkpt lat="45.362435274844614" lon="10.688045885358383"><ele>88.0</ele><time>2026-04-02T11:08:46.999Z</time></trkpt><trkpt lat="45.3624471609004" lon="10.687904461247854"><ele>88.0</ele><time>2026-04-02T11:08:48.999Z</time></trkpt><trkpt lat="45.36247622041894" lon="10.687743772248234"><ele>88.0</ele><time>2026-04-02T11:08:50.999Z</time></trkpt><trkpt lat="45.362496090614265" lon="10.687606232462324"><ele>88.0</ele><time>2026-04-02T11:08:52.999Z</time></trkpt><trkpt lat="45.36250896116218" lon="10.687473422062789"><ele>88.0</ele><time>2026-04-02T11:08:54.999Z</time></trkpt><trkpt lat="45.36253500643793" lon="10.687318006113282"><ele>88.0</ele><time>2026-04-02T11:08:56.999Z</time></trkpt><trkpt lat="45.362550517063575" lon="10.687230621841579"><ele>88.0</ele><time>2026-04-02T11:08:57.999Z</time></trkpt><trkpt lat="45.36257215621084" lon="10.687091462879021"><ele>88.0</ele><time>2026-04-02T11:08:59.999Z</time></trkpt><trkpt lat="45.362582411137694" lon="10.68698123706994"><ele>88.0</ele><time>2026-04-02T11:09:01.999Z</time></trkpt><trkpt lat="45.36259119497693" lon="10.68685712350879"><ele>88.0</ele><time>2026-04-02T11:09:04Z</time></trkpt><trkpt lat="45.362564421071994" lon="10.686755167727103"><ele>88.0</ele><time>2026-04-02T11:09:06Z</time></trkpt><trkpt lat="45.36252934713726" lon="10.686680013441974"><ele>88.0</ele><time>2026-04-02T11:09:08Z</time></trkpt><trkpt lat="45.36250807472705" lon="10.686566617147491"><ele>87.4</ele><time>2026-04-02T11:09:11Z</time></trkpt><trkpt lat="45.36255164097371" lon="10.686420619944597"><ele>86.80000000000001</ele><time>2026-04-02T11:09:13Z</time></trkpt><trkpt lat="45.362586925806475" lon="10.686323700061372"><ele>86.2</ele><time>2026-04-02T11:09:14Z</time></trkpt><trkpt lat="45.36263280731693" lon="10.686217521578783"><ele>85.6</ele><time>2026-04-02T11:09:15Z</time></trkpt><trkpt lat="45.36270022659572" lon="10.686097976689874"><ele>85.0</ele><time>2026-04-02T11:09:16Z</time></trkpt><trkpt lat="45.362783181721866" lon="10.685964770503132"><ele>84.75</ele><time>2026-04-02T11:09:17Z</time></trkpt><trkpt lat="45.36286158081538" lon="10.685846348961949"><ele>84.5</ele><time>2026-04-02T11:09:18Z</time></trkpt><trkpt lat="45.36294033196365" lon="10.685730994526946"><ele>84.25</ele><time>2026-04-02T11:09:19Z</time></trkpt><trkpt lat="45.363019755497156" lon="10.685611636402534"><ele>84.0</ele><time>2026-04-02T11:09:20Z</time></trkpt><trkpt lat="45.36309723817877" lon="10.68550064959728"><ele>84.0</ele><time>2026-04-02T11:09:21Z</time></trkpt><trkpt lat="45.3631756980419" lon="10.685397524080905"><ele>84.0</ele><time>2026-04-02T11:09:22Z</time></trkpt><trkpt lat="45.363261134719586" lon="10.685323942510864"><ele>84.0</ele><time>2026-04-02T11:09:23Z</time></trkpt><trkpt lat="45.36335483925164" lon="10.685282235622203"><ele>84.0</ele><time>2026-04-02T11:09:24Z</time></trkpt><trkpt lat="45.36344391373468" lon="10.685246037859004"><ele>84.0</ele><time>2026-04-02T11:09:25Z</time></trkpt><trkpt lat="45.363526442285654" lon="10.685214380014939"><ele>84.80000000000001</ele><time>2026-04-02T11:09:26Z</time></trkpt><trkpt lat="45.36362090883252" lon="10.685217485899955"><ele>85.60000000000001</ele><time>2026-04-02T11:09:27Z</time></trkpt><trkpt lat="45.363706060211726" lon="10.685176399451338"><ele>86.4</ele><time>2026-04-02T11:09:28Z</time></trkpt><trkpt lat="45.36379989416637" lon="10.685128757779047"><ele>87.2</ele><time>2026-04-02T11:09:29Z</time></trkpt><trkpt lat="45.36389962624531" lon="10.685077971378849"><ele>88.0</ele><time>2026-04-02T11:09:30Z</time></trkpt><trkpt lat="45.36399756618053" lon="10.685025948111768"><ele>88.2</ele><time>2026-04-02T11:09:31Z</time></trkpt><trkpt lat="45.3641005547677" lon="10.684970681502598"><ele>88.4</ele><time>2026-04-02T11:09:32Z</time></trkpt><trkpt lat="45.36419918309261" lon="10.68491529054399"><ele>88.60000000000001</ele><time>2026-04-02T11:09:33Z</time></trkpt><trkpt lat="45.36430095842041" lon="10.684854987530565"><ele>88.80000000000001</ele><time>2026-04-02T11:09:34Z</time></trkpt><trkpt lat="45.36440097539954" lon="10.684792637268002"><ele>89.0</ele><time>2026-04-02T11:09:35Z</time></trkpt><trkpt lat="45.36450427221279" lon="10.684723759373107"><ele>89.0</ele><time>2026-04-02T11:09:36Z</time></trkpt><trkpt lat="45.36459675801824" lon="10.68465575669995"><ele>89.0</ele><time>2026-04-02T11:09:37Z</time></trkpt><trkpt lat="45.364671961975716" lon="10.684597423466899"><ele>89.0</ele><time>2026-04-02T11:09:38Z</time></trkpt><trkpt lat="45.364730710505306" lon="10.684528058747485"><ele>89.0</ele><time>2026-04-02T11:09:39Z</time></trkpt><trkpt lat="45.36480703054262" lon="10.684484059582305"><ele>89.0</ele><time>2026-04-02T11:09:41Z</time></trkpt><trkpt lat="45.364723491202554" lon="10.684357510150416"><ele>89.2</ele><time>2026-04-02T11:09:45Z</time></trkpt><trkpt lat="45.36465553535498" lon="10.684362551803787"><ele>89.4</ele><time>2026-04-02T11:09:47Z</time></trkpt><trkpt lat="45.364599233485414" lon="10.684416608075406"><ele>89.6</ele><time>2026-04-02T11:09:49Z</time></trkpt><trkpt lat="45.36449746092593" lon="10.684412207008288"><ele>89.8</ele><time>2026-04-02T11:09:51.999Z</time></trkpt><trkpt lat="45.364355658667996" lon="10.684377144890632"><ele>90.0</ele><time>2026-04-02T11:09:53.999Z</time></trkpt><trkpt lat="45.36425918423821" lon="10.684357739979738"><ele>90.0</ele><time>2026-04-02T11:09:54.999Z</time></trkpt><trkpt lat="45.36414827197087" lon="10.68432711321301"><ele>90.0</ele><time>2026-04-02T11:09:55.999Z</time></trkpt><trkpt lat="45.36398925621011" lon="10.684278696749335"><ele>90.0</ele><time>2026-04-02T11:09:56.999Z</time></trkpt><trkpt lat="45.3638385995435" lon="10.684238321828603"><ele>90.0</ele><time>2026-04-02T11:09:57.999Z</time></trkpt><trkpt lat="45.363743338171545" lon="10.684210478646612"><ele>90.0</ele><time>2026-04-02T11:09:58.999Z</time></trkpt><trkpt lat="45.36366571066382" lon="10.68418389461567"><ele>90.0</ele><time>2026-04-02T11:09:59.999Z</time></trkpt><trkpt lat="45.363588486778845" lon="10.684158953951712"><ele>90.0</ele><time>2026-04-02T11:10:00.999Z</time></trkpt><trkpt lat="45.36351882652321" lon="10.68413840454354"><ele>90.0</ele><time>2026-04-02T11:10:01.999Z</time></trkpt><trkpt lat="45.36343930957587" lon="10.684108795976071"><ele>90.0</ele><time>2026-04-02T11:10:02.999Z</time></trkpt><trkpt lat="45.36335266515996" lon="10.684069374774404"><ele>90.0</ele><time>2026-04-02T11:10:03.999Z</time></trkpt><trkpt lat="45.36325052816012" lon="10.684022236438414"><ele>90.0</ele><time>2026-04-02T11:10:04.999Z</time></trkpt><trkpt lat="45.36314336315072" lon="10.683963053491821"><ele>90.0</ele><time>2026-04-02T11:10:05.999Z</time></trkpt><trkpt lat="45.36305849777792" lon="10.683835772094326"><ele>90.0</ele><time>2026-04-02T11:10:06.999Z</time></trkpt><trkpt lat="45.36297006361339" lon="10.683752466331928"><ele>90.0</ele><time>2026-04-02T11:10:07.999Z</time></trkpt><trkpt lat="45.362891901138575" lon="10.683664231841353"><ele>90.0</ele><time>2026-04-02T11:10:08.999Z</time></trkpt><trkpt lat="45.36282334397317" lon="10.683569919365196"><ele>89.5</ele><time>2026-04-02T11:10:09.999Z</time></trkpt><trkpt lat="45.362753633415906" lon="10.683472545380157"><ele>89.0</ele><time>2026-04-02T11:10:10.999Z</time></trkpt><trkpt lat="45.36272412488877" lon="10.68331606570036"><ele>88.5</ele><time>2026-04-02T11:10:11.999Z</time></trkpt><trkpt lat="45.36263347317152" lon="10.6831726956094"><ele>88.0</ele><time>2026-04-02T11:10:12.999Z</time></trkpt><trkpt lat="45.36256118703327" lon="10.682988552748085"><ele>88.0</ele><time>2026-04-02T11:10:13.999Z</time></trkpt><trkpt lat="45.36249098089597" lon="10.68283187660346"><ele>88.0</ele><time>2026-04-02T11:10:14.999Z</time></trkpt><trkpt lat="45.36241726800524" lon="10.682700144357135"><ele>88.0</ele><time>2026-04-02T11:10:15.999Z</time></trkpt><trkpt lat="45.36237171512858" lon="10.682563964226588"><ele>88.0</ele><time>2026-04-02T11:10:16.999Z</time></trkpt><trkpt lat="45.36229040833199" lon="10.682497645189915"><ele>88.0</ele><time>2026-04-02T11:10:17.999Z</time></trkpt><trkpt lat="45.3622019738192" lon="10.682452541386438"><ele>94.0</ele><time>2026-04-02T11:10:18.999Z</time></trkpt><trkpt lat="45.362108291519164" lon="10.68242927451521"><ele>100.0</ele><time>2026-04-02T11:10:19.999Z</time></trkpt><trkpt lat="45.361994588368795" lon="10.682448371486055"><ele>106.0</ele><time>2026-04-02T11:10:20.999Z</time></trkpt><trkpt lat="45.36188564005939" lon="10.682491056958577"><ele>112.0</ele><time>2026-04-02T11:10:21.999Z</time></trkpt><trkpt lat="45.36175593224703" lon="10.682527326378263"><ele>112.0</ele><time>2026-04-02T11:10:22.999Z</time></trkpt><trkpt lat="45.36160765541844" lon="10.682568914185145"><ele>112.0</ele><time>2026-04-02T11:10:23.999Z</time></trkpt><trkpt lat="45.36144354872005" lon="10.68262445085957"><ele>112.0</ele><time>2026-04-02T11:10:24.999Z</time></trkpt><trkpt lat="45.361314509346485" lon="10.682684608497603"><ele>113.0</ele><time>2026-04-02T11:10:25.999Z</time></trkpt><trkpt lat="45.36120231654252" lon="10.682791582727166"><ele>114.0</ele><time>2026-04-02T11:10:26.999Z</time></trkpt><trkpt lat="45.36109264731932" lon="10.68289537186033"><ele>115.0</ele><time>2026-04-02T11:10:27.999Z</time></trkpt><trkpt lat="45.36099352196433" lon="10.683019536769342"><ele>116.0</ele><time>2026-04-02T11:10:28.999Z</time></trkpt><trkpt lat="45.360901337089146" lon="10.683181917919699"><ele>116.0</ele><time>2026-04-02T11:10:29.999Z</time></trkpt><trkpt lat="45.36082356996002" lon="10.683319928997658"><ele>116.0</ele><time>2026-04-02T11:10:30.999Z</time></trkpt><trkpt lat="45.36074667672122" lon="10.683430498760988"><ele>116.0</ele><time>2026-04-02T11:10:31.999Z</time></trkpt><trkpt lat="45.36065704922507" lon="10.683522158208234"><ele>116.0</ele><time>2026-04-02T11:10:32.999Z</time></trkpt><trkpt lat="45.36056557035997" lon="10.683591104613726"><ele>116.0</ele><time>2026-04-02T11:10:33.999Z</time></trkpt><trkpt lat="45.36046910080381" lon="10.683636643344464"><ele>116.6</ele><time>2026-04-02T11:10:34.999Z</time></trkpt><trkpt lat="45.360382058373965" lon="10.68362602081965"><ele>117.19999999999999</ele><time>2026-04-02T11:10:35.999Z</time></trkpt><trkpt lat="45.360317798336744" lon="10.683620239112278"><ele>117.80000000000001</ele><time>2026-04-02T11:10:36.999Z</time></trkpt><trkpt lat="45.360238375699545" lon="10.683573934147828"><ele>118.4</ele><time>2026-04-02T11:10:38.999Z</time></trkpt><trkpt lat="45.3601729277585" lon="10.683552476177631"><ele>119.0</ele><time>2026-04-02T11:10:46.999Z</time></trkpt><trkpt lat="45.360099538585025" lon="10.683745418118972"><ele>119.0</ele><time>2026-04-02T11:10:47.999Z</time></trkpt><trkpt lat="45.360024274489476" lon="10.683869754767175"><ele>119.0</ele><time>2026-04-02T11:13:03.998Z</time></trkpt><trkpt lat="45.35997381087363" lon="10.683980506614933"><ele>119.0</ele><time>2026-04-02T11:13:04.998Z</time></trkpt><trkpt lat="45.35992051804514" lon="10.684081431581648"><ele>119.0</ele><time>2026-04-02T11:13:05.998Z</time></trkpt><trkpt lat="45.359869282133594" lon="10.684175562718348"><ele>119.0</ele><time>2026-04-02T11:13:06.998Z</time></trkpt><trkpt lat="45.35982240440096" lon="10.684268975699952"><ele>118.99999999999999</ele><time>2026-04-02T11:13:07.998Z</time></trkpt><trkpt lat="45.3597744164414" lon="10.684360518978647"><ele>119.0</ele><time>2026-04-02T11:13:08.998Z</time></trkpt><trkpt lat="45.35972506584751" lon="10.684453545029633"><ele>119.0</ele><time>2026-04-02T11:13:09.998Z</time></trkpt><trkpt lat="45.3596753096427" lon="10.684548672730385"><ele>119.0</ele><time>2026-04-02T11:13:10.998Z</time></trkpt><trkpt lat="45.35962630050295" lon="10.684647715710108"><ele>118.99999999999999</ele><time>2026-04-02T11:13:11.998Z</time></trkpt><trkpt lat="45.359582806086856" lon="10.684747782646568"><ele>119.0</ele><time>2026-04-02T11:13:12.998Z</time></trkpt><trkpt lat="45.35953947843585" lon="10.68486004590359"><ele>119.2</ele><time>2026-04-02T11:13:13.998Z</time></trkpt><trkpt lat="45.359495789837695" lon="10.68497761681129"><ele>119.4</ele><time>2026-04-02T11:13:14.999Z</time></trkpt><trkpt lat="45.35945162959431" lon="10.685095876982077"><ele>119.6</ele><time>2026-04-02T11:13:15.999Z</time></trkpt><trkpt lat="45.35940748112433" lon="10.685208400228701"><ele>119.8</ele><time>2026-04-02T11:13:16.999Z</time></trkpt><trkpt lat="45.35936653146973" lon="10.68532662382847"><ele>120.0</ele><time>2026-04-02T11:13:17.999Z</time></trkpt><trkpt lat="45.35932473062685" lon="10.685449979316264"><ele>120.0</ele><time>2026-04-02T11:13:18.999Z</time></trkpt><trkpt lat="45.35928077458291" lon="10.685569230391755"><ele>120.0</ele><time>2026-04-02T11:13:19.999Z</time></trkpt><trkpt lat="45.3592383315143" lon="10.685688786044233"><ele>120.0</ele><time>2026-04-02T11:13:20.999Z</time></trkpt><trkpt lat="45.35919653534704" lon="10.68580958088642"><ele>120.0</ele><time>2026-04-02T11:13:21.999Z</time></trkpt><trkpt lat="45.35915285996344" lon="10.68592316867986"><ele>120.0</ele><time>2026-04-02T11:13:22.999Z</time></trkpt><trkpt lat="45.359096589746414" lon="10.686026176151536"><ele>118.6</ele><time>2026-04-02T11:13:23.999Z</time></trkpt><trkpt lat="45.35902611346654" lon="10.686117011245827"><ele>117.2</ele><time>2026-04-02T11:13:25Z</time></trkpt><trkpt lat="45.35894692281843" lon="10.68619893718419"><ele>115.80000000000001</ele><time>2026-04-02T11:13:26Z</time></trkpt><trkpt lat="45.35886301359913" lon="10.68628998117435"><ele>114.4</ele><time>2026-04-02T11:13:27Z</time></trkpt><trkpt lat="45.3587771659139" lon="10.686368723190173"><ele>113.0</ele><time>2026-04-02T11:13:28Z</time></trkpt><trkpt lat="45.35868859608508" lon="10.686429981711138"><ele>113.0</ele><time>2026-04-02T11:13:29Z</time></trkpt><trkpt lat="45.3586032137736" lon="10.68649636982544"><ele>113.00000000000001</ele><time>2026-04-02T11:13:30Z</time></trkpt><trkpt lat="45.35851515832065" lon="10.686564056889308"><ele>113.00000000000001</ele><time>2026-04-02T11:13:31Z</time></trkpt><trkpt lat="45.35842907345221" lon="10.68663056407568"><ele>113.0</ele><time>2026-04-02T11:13:32Z</time></trkpt><trkpt lat="45.35834664897549" lon="10.686694307023524"><ele>113.0</ele><time>2026-04-02T11:13:33Z</time></trkpt><trkpt lat="45.35826207943158" lon="10.686760204168712"><ele>113.0</ele><time>2026-04-02T11:13:34Z</time></trkpt><trkpt lat="45.358177495727425" lon="10.68682413148731"><ele>113.00000000000001</ele><time>2026-04-02T11:13:35Z</time></trkpt><trkpt lat="45.358091592780816" lon="10.6869004143859"><ele>113.00000000000001</ele><time>2026-04-02T11:13:36Z</time></trkpt><trkpt lat="45.35800808097111" lon="10.686978566851346"><ele>113.0</ele><time>2026-04-02T11:13:37Z</time></trkpt><trkpt lat="45.35792733245935" lon="10.687059983722845"><ele>113.0</ele><time>2026-04-02T11:13:38Z</time></trkpt><trkpt lat="45.35784950207946" lon="10.68714728746452"><ele>112.16666666666666</ele><time>2026-04-02T11:13:39Z</time></trkpt><trkpt lat="45.35778076743713" lon="10.687235654186283"><ele>111.33333333333333</ele><time>2026-04-02T11:13:40Z</time></trkpt><trkpt lat="45.3577267245673" lon="10.687336201555286"><ele>110.5</ele><time>2026-04-02T11:13:41Z</time></trkpt><trkpt lat="45.357684805240524" lon="10.68743333780404"><ele>109.66666666666666</ele><time>2026-04-02T11:13:42Z</time></trkpt><trkpt lat="45.35764932032829" lon="10.687516759485542"><ele>108.83333333333333</ele><time>2026-04-02T11:13:43Z</time></trkpt><trkpt lat="45.35761715274609" lon="10.687599682332445"><ele>108.0</ele><time>2026-04-02T11:13:44Z</time></trkpt><trkpt lat="45.357581010988994" lon="10.687692106902421"><ele>107.80000000000001</ele><time>2026-04-02T11:13:45Z</time></trkpt><trkpt lat="45.35754643099162" lon="10.687790647016795"><ele>107.60000000000001</ele><time>2026-04-02T11:13:46Z</time></trkpt><trkpt lat="45.35752035306944" lon="10.687881499793967"><ele>107.39999999999999</ele><time>2026-04-02T11:13:47Z</time></trkpt><trkpt lat="45.35749173142428" lon="10.688022839722198"><ele>107.19999999999999</ele><time>2026-04-02T11:13:49Z</time></trkpt><trkpt lat="45.35748727612448" lon="10.688144294371673"><ele>107.0</ele><time>2026-04-02T11:13:51Z</time></trkpt><trkpt lat="45.3574745178043" lon="10.688394797764092"><ele>107.0</ele><time>2026-04-02T11:15:29Z</time></trkpt><trkpt lat="45.35746187189738" lon="10.688508875166356"><ele>106.99999999999999</ele><time>2026-04-02T11:15:30Z</time></trkpt><trkpt lat="45.357448023092395" lon="10.688639642544132"><ele>106.99999999999999</ele><time>2026-04-02T11:15:31Z</time></trkpt><trkpt lat="45.35742358314034" lon="10.68877260123737"><ele>107.0</ele><time>2026-04-02T11:15:32Z</time></trkpt><trkpt lat="45.35739539026801" lon="10.688918818053928"><ele>107.0</ele><time>2026-04-02T11:15:33Z</time></trkpt><trkpt lat="45.357381918485316" lon="10.689069054119948"><ele>107.0</ele><time>2026-04-02T11:15:34Z</time></trkpt><trkpt lat="45.357379921135674" lon="10.68922271531382"><ele>106.99999999999999</ele><time>2026-04-02T11:15:35Z</time></trkpt><trkpt lat="45.357387519687805" lon="10.689387754436698"><ele>106.99999999999999</ele><time>2026-04-02T11:15:36Z</time></trkpt><trkpt lat="45.35738166218056" lon="10.689546559997419"><ele>107.0</ele><time>2026-04-02T11:15:37Z</time></trkpt><trkpt lat="45.3573584201473" lon="10.689702015791775"><ele>107.0</ele><time>2026-04-02T11:15:38Z</time></trkpt><trkpt lat="45.357325376122304" lon="10.689852109549332"><ele>106.8</ele><time>2026-04-02T11:15:39Z</time></trkpt><trkpt lat="45.35729276475439" lon="10.690001672921733"><ele>106.6</ele><time>2026-04-02T11:15:40Z</time></trkpt><trkpt lat="45.35727043148479" lon="10.690140823300062"><ele>106.39999999999999</ele><time>2026-04-02T11:15:41Z</time></trkpt><trkpt lat="45.357261225501205" lon="10.690278650255998"><ele>106.19999999999999</ele><time>2026-04-02T11:15:42Z</time></trkpt><trkpt lat="45.35726350571574" lon="10.69042391478995"><ele>106.0</ele><time>2026-04-02T11:15:43Z</time></trkpt><trkpt lat="45.35727416964885" lon="10.6905801370906"><ele>105.6</ele><time>2026-04-02T11:15:44Z</time></trkpt><trkpt lat="45.35728541234525" lon="10.690735527167405"><ele>105.19999999999999</ele><time>2026-04-02T11:15:45Z</time></trkpt><trkpt lat="45.35729082778266" lon="10.690880174356971"><ele>104.80000000000001</ele><time>2026-04-02T11:15:46Z</time></trkpt><trkpt lat="45.35729977210767" lon="10.691004203964912"><ele>104.4</ele><time>2026-04-02T11:15:47Z</time></trkpt><trkpt lat="45.35731258730957" lon="10.691122709955367"><ele>104.0</ele><time>2026-04-02T11:15:48Z</time></trkpt><trkpt lat="45.35733146096306" lon="10.691222319870688"><ele>103.16666666666666</ele><time>2026-04-02T11:15:49Z</time></trkpt><trkpt lat="45.35734439391487" lon="10.691310868052472"><ele>102.33333333333333</ele><time>2026-04-02T11:15:50Z</time></trkpt><trkpt lat="45.35735999546735" lon="10.691406132388938"><ele>101.5</ele><time>2026-04-02T11:15:52Z</time></trkpt><trkpt lat="45.357365533303984" lon="10.691522360721448"><ele>100.66666666666666</ele><time>2026-04-02T11:15:55Z</time></trkpt><trkpt lat="45.35737342716858" lon="10.691615981263944"><ele>99.83333333333333</ele><time>2026-04-02T11:15:57Z</time></trkpt><trkpt lat="45.35738248726792" lon="10.691801433765743"><ele>99.0</ele><time>2026-04-02T11:15:59Z</time></trkpt><trkpt lat="45.357383580236785" lon="10.691909681655709"><ele>98.16666666666667</ele><time>2026-04-02T11:16:00Z</time></trkpt><trkpt lat="45.357384652746674" lon="10.69203438165816"><ele>97.33333333333333</ele><time>2026-04-02T11:16:01Z</time></trkpt><trkpt lat="45.35738185698834" lon="10.692144825976609"><ele>96.5</ele><time>2026-04-02T11:16:02Z</time></trkpt><trkpt lat="45.35736683652576" lon="10.692270745744748"><ele>95.66666666666666</ele><time>2026-04-02T11:16:03Z</time></trkpt><trkpt lat="45.357340175709155" lon="10.69239019887945"><ele>94.83333333333333</ele><time>2026-04-02T11:16:04Z</time></trkpt><trkpt lat="45.3573071668097" lon="10.692507719344286"><ele>94.0</ele><time>2026-04-02T11:16:05Z</time></trkpt><trkpt lat="45.357271578498946" lon="10.692619863431892"><ele>94.0</ele><time>2026-04-02T11:16:06Z</time></trkpt><trkpt lat="45.35723413365052" lon="10.69271906644481"><ele>94.0</ele><time>2026-04-02T11:16:07Z</time></trkpt><trkpt lat="45.35718940102949" lon="10.692812152921604"><ele>94.0</ele><time>2026-04-02T11:16:08Z</time></trkpt><trkpt lat="45.357134217844944" lon="10.692900021319009"><ele>94.0</ele><time>2026-04-02T11:16:09Z</time></trkpt><trkpt lat="45.35706650944431" lon="10.692979911880117"><ele>94.0</ele><time>2026-04-02T11:16:10Z</time></trkpt><trkpt lat="45.35699085570973" lon="10.69305423895938"><ele>94.0</ele><time>2026-04-02T11:16:11Z</time></trkpt><trkpt lat="45.356914553036795" lon="10.69314121781068"><ele>94.0</ele><time>2026-04-02T11:16:12Z</time></trkpt><trkpt lat="45.35683691982208" lon="10.693227135083301"><ele>94.0</ele><time>2026-04-02T11:16:13Z</time></trkpt><trkpt lat="45.35675489288264" lon="10.69331369535568"><ele>94.0</ele><time>2026-04-02T11:16:14Z</time></trkpt><trkpt lat="45.35666426351539" lon="10.693424891017587"><ele>94.0</ele><time>2026-04-02T11:16:15Z</time></trkpt><trkpt lat="45.35657721714256" lon="10.693540922090095"><ele>94.0</ele><time>2026-04-02T11:16:16Z</time></trkpt><trkpt lat="45.356492162397814" lon="10.69365807633888"><ele>94.6</ele><time>2026-04-02T11:16:17Z</time></trkpt><trkpt lat="45.356420312828554" lon="10.693778598035724"><ele>95.2</ele><time>2026-04-02T11:16:18Z</time></trkpt><trkpt lat="45.35636429811727" lon="10.693881403228538"><ele>95.8</ele><time>2026-04-02T11:16:19Z</time></trkpt><trkpt lat="45.35632674635589" lon="10.693957147105507"><ele>96.39999999999999</ele><time>2026-04-02T11:16:20Z</time></trkpt><trkpt lat="45.35629145348537" lon="10.69407906012836"><ele>97.0</ele><time>2026-04-02T11:16:22Z</time></trkpt><trkpt lat="45.35625638472709" lon="10.69421551125816"><ele>97.0</ele><time>2026-04-02T11:16:24Z</time></trkpt><trkpt lat="45.35621363886315" lon="10.694314517054721"><ele>97.0</ele><time>2026-04-02T11:16:25Z</time></trkpt><trkpt lat="45.356146963954394" lon="10.694453730601142"><ele>97.0</ele><time>2026-04-02T11:16:26Z</time></trkpt><trkpt lat="45.35607650527263" lon="10.694631876408279"><ele>97.0</ele><time>2026-04-02T11:16:27Z</time></trkpt><trkpt lat="45.35601678517229" lon="10.694797863084974"><ele>97.0</ele><time>2026-04-02T11:16:28Z</time></trkpt><trkpt lat="45.355970591167456" lon="10.694951054716745"><ele>97.0</ele><time>2026-04-02T11:16:29Z</time></trkpt><trkpt lat="45.355933958940376" lon="10.695111154708837"><ele>97.0</ele><time>2026-04-02T11:16:30Z</time></trkpt><trkpt lat="45.355894142810975" lon="10.695262999142555"><ele>97.0</ele><time>2026-04-02T11:16:31Z</time></trkpt><trkpt lat="45.35584580170707" lon="10.695391262541435"><ele>96.83333333333334</ele><time>2026-04-02T11:16:32Z</time></trkpt><trkpt lat="45.35579075822302" lon="10.695508368217915"><ele>96.66666666666667</ele><time>2026-04-02T11:16:33Z</time></trkpt><trkpt lat="45.35574405721891" lon="10.695621330945112"><ele>96.5</ele><time>2026-04-02T11:16:34Z</time></trkpt><trkpt lat="45.35569898862481" lon="10.695729942631255"><ele>96.33333333333334</ele><time>2026-04-02T11:16:35Z</time></trkpt><trkpt lat="45.3556631205068" lon="10.695826119780973"><ele>96.16666666666667</ele><time>2026-04-02T11:16:36Z</time></trkpt><trkpt lat="45.35563625239654" lon="10.695924470325808"><ele>96.0</ele><time>2026-04-02T11:16:37Z</time></trkpt><trkpt lat="45.355607500097456" lon="10.696029335684173"><ele>96.14285714285714</ele><time>2026-04-02T11:16:38Z</time></trkpt><trkpt lat="45.35558741597067" lon="10.696118852378776"><ele>96.28571428571428</ele><time>2026-04-02T11:16:39Z</time></trkpt><trkpt lat="45.35555389809048" lon="10.696201189554277"><ele>96.42857142857142</ele><time>2026-04-02T11:16:42Z</time></trkpt><trkpt lat="45.355505423731074" lon="10.696261122866765"><ele>96.57142857142857</ele><time>2026-04-02T11:16:45Z</time></trkpt><trkpt lat="45.355429001580156" lon="10.696250743316531"><ele>96.71428571428572</ele><time>2026-04-02T11:16:49Z</time></trkpt><trkpt lat="45.35538834965903" lon="10.6961813849228"><ele>96.85714285714285</ele><time>2026-04-02T11:16:50Z</time></trkpt><trkpt lat="45.35534588813018" lon="10.696072323972995"><ele>97.0</ele><time>2026-04-02T11:16:51Z</time></trkpt><trkpt lat="45.355298234573695" lon="10.695953816958038"><ele>97.0</ele><time>2026-04-02T11:16:52Z</time></trkpt><trkpt lat="45.35524599547639" lon="10.695819916294026"><ele>97.0</ele><time>2026-04-02T11:16:53Z</time></trkpt><trkpt lat="45.35518723629281" lon="10.69566399446594"><ele>97.0</ele><time>2026-04-02T11:16:54Z</time></trkpt><trkpt lat="45.35512550007418" lon="10.6954900204076"><ele>97.0</ele><time>2026-04-02T11:16:55Z</time></trkpt><trkpt lat="45.355065164207744" lon="10.695288866400993"><ele>97.0</ele><time>2026-04-02T11:16:56Z</time></trkpt><trkpt lat="45.35500686610944" lon="10.69506746065166"><ele>97.0</ele><time>2026-04-02T11:16:57Z</time></trkpt><trkpt lat="45.35495599298054" lon="10.694872406555634"><ele>97.0</ele><time>2026-04-02T11:16:58Z</time></trkpt><trkpt lat="45.35490570286997" lon="10.69467903091073"><ele>97.0</ele><time>2026-04-02T11:16:59Z</time></trkpt><trkpt lat="45.35485653324196" lon="10.694475639053827"><ele>97.0</ele><time>2026-04-02T11:17:00Z</time></trkpt><trkpt lat="45.354810978452974" lon="10.694271279816428"><ele>97.0</ele><time>2026-04-02T11:17:01Z</time></trkpt><trkpt lat="45.3547668266953" lon="10.694062766336074"><ele>97.0</ele><time>2026-04-02T11:17:02Z</time></trkpt><trkpt lat="45.35472384617664" lon="10.693865673573178"><ele>97.0</ele><time>2026-04-02T11:17:03Z</time></trkpt><trkpt lat="45.3546826440726" lon="10.693672677341405"><ele>97.0</ele><time>2026-04-02T11:17:04Z</time></trkpt><trkpt lat="45.35464300302178" lon="10.693474363979078"><ele>97.0</ele><time>2026-04-02T11:17:05Z</time></trkpt><trkpt lat="45.354599245166895" lon="10.693273831051588"><ele>97.0</ele><time>2026-04-02T11:17:06Z</time></trkpt><trkpt lat="45.35455358298616" lon="10.693071109497343"><ele>97.0</ele><time>2026-04-02T11:17:07Z</time></trkpt><trkpt lat="45.35451003232101" lon="10.692868120391799"><ele>97.0</ele><time>2026-04-02T11:17:08Z</time></trkpt><trkpt lat="45.35446816534994" lon="10.692660628082333"><ele>97.0</ele><time>2026-04-02T11:17:09Z</time></trkpt><trkpt lat="45.35442607665339" lon="10.6924540793045"><ele>97.0</ele><time>2026-04-02T11:17:10Z</time></trkpt><trkpt lat="45.354385620785315" lon="10.69224505977384"><ele>97.0</ele><time>2026-04-02T11:17:11Z</time></trkpt><trkpt lat="45.35434307410638" lon="10.692033321417842"><ele>97.0</ele><time>2026-04-02T11:17:12Z</time></trkpt><trkpt lat="45.35430088774601" lon="10.69181963163402"><ele>97.0</ele><time>2026-04-02T11:17:13Z</time></trkpt><trkpt lat="45.354260596923886" lon="10.691602299828226"><ele>97.0</ele><time>2026-04-02T11:17:14Z</time></trkpt><trkpt lat="45.354220531458935" lon="10.691383509497678"><ele>97.0</ele><time>2026-04-02T11:17:15Z</time></trkpt><trkpt lat="45.354178864170116" lon="10.691162036007695"><ele>97.0</ele><time>2026-04-02T11:17:16Z</time></trkpt><trkpt lat="45.35413949667563" lon="10.690937901566926"><ele>97.0</ele><time>2026-04-02T11:17:17Z</time></trkpt><trkpt lat="45.354099877113725" lon="10.690710865672317"><ele>97.66666666666667</ele><time>2026-04-02T11:17:18Z</time></trkpt><trkpt lat="45.3540614471554" lon="10.690486355594231"><ele>98.33333333333334</ele><time>2026-04-02T11:17:19Z</time></trkpt><trkpt lat="45.35402268872953" lon="10.690267325651098"><ele>99.0</ele><time>2026-04-02T11:17:20Z</time></trkpt><trkpt lat="45.353989117991524" lon="10.690078526047802"><ele>99.25</ele><time>2026-04-02T11:17:21Z</time></trkpt><trkpt lat="45.35395684282363" lon="10.68988082086825"><ele>99.5</ele><time>2026-04-02T11:17:22Z</time></trkpt><trkpt lat="45.35392863420271" lon="10.689679512017612"><ele>99.75</ele><time>2026-04-02T11:17:23Z</time></trkpt><trkpt lat="45.35390098749064" lon="10.689477150152896"><ele>100.0</ele><time>2026-04-02T11:17:24Z</time></trkpt><trkpt lat="45.35387111852777" lon="10.68927591364764"><ele>99.25</ele><time>2026-04-02T11:17:25Z</time></trkpt><trkpt lat="45.353840836895806" lon="10.689073469094295"><ele>98.5</ele><time>2026-04-02T11:17:26Z</time></trkpt><trkpt lat="45.35380962717651" lon="10.688870835439214"><ele>97.75</ele><time>2026-04-02T11:17:27Z</time></trkpt><trkpt lat="45.35377855822216" lon="10.68866698914882"><ele>97.0</ele><time>2026-04-02T11:17:28Z</time></trkpt><trkpt lat="45.35374856184387" lon="10.688463183483298"><ele>97.0</ele><time>2026-04-02T11:17:29Z</time></trkpt><trkpt lat="45.35371881327704" lon="10.6882610022816"><ele>97.0</ele><time>2026-04-02T11:17:30Z</time></trkpt><trkpt lat="45.35369685022098" lon="10.688076367770947"><ele>97.0</ele><time>2026-04-02T11:17:31Z</time></trkpt><trkpt lat="45.35367864657902" lon="10.687884988289294"><ele>97.0</ele><time>2026-04-02T11:17:32Z</time></trkpt><trkpt lat="45.35366643953449" lon="10.687689480576912"><ele>97.0</ele><time>2026-04-02T11:17:33Z</time></trkpt><trkpt lat="45.35365902399156" lon="10.687496361726947"><ele>97.0</ele><time>2026-04-02T11:17:34Z</time></trkpt><trkpt lat="45.353652007653444" lon="10.687305805167949"><ele>97.0</ele><time>2026-04-02T11:17:35Z</time></trkpt><trkpt lat="45.35364820173017" lon="10.687114182351593"><ele>97.0</ele><time>2026-04-02T11:17:36Z</time></trkpt><trkpt lat="45.35364656913971" lon="10.6869207039026"><ele>97.25</ele><time>2026-04-02T11:17:37Z</time></trkpt><trkpt lat="45.353645814885155" lon="10.686723517376391"><ele>97.5</ele><time>2026-04-02T11:17:38Z</time></trkpt><trkpt lat="45.353644499765025" lon="10.6865225273274"><ele>97.75</ele><time>2026-04-02T11:17:39Z</time></trkpt><trkpt lat="45.353642425265626" lon="10.686316251971675"><ele>98.0</ele><time>2026-04-02T11:17:40Z</time></trkpt><trkpt lat="45.353642243909036" lon="10.68610566437044"><ele>98.0</ele><time>2026-04-02T11:17:41Z</time></trkpt><trkpt lat="45.35364323056181" lon="10.685886895903543"><ele>98.0</ele><time>2026-04-02T11:17:42Z</time></trkpt><trkpt lat="45.35364054120519" lon="10.685661487562038"><ele>98.0</ele><time>2026-04-02T11:17:43Z</time></trkpt><trkpt lat="45.35363780489315" lon="10.685432842607224"><ele>97.66666666666666</ele><time>2026-04-02T11:17:44Z</time></trkpt><trkpt lat="45.353634201890294" lon="10.68520106957256"><ele>97.33333333333334</ele><time>2026-04-02T11:17:45Z</time></trkpt><trkpt lat="45.353630875420805" lon="10.684967170895753"><ele>97.0</ele><time>2026-04-02T11:17:46Z</time></trkpt><trkpt lat="45.35362901361648" lon="10.684730368063075"><ele>97.0</ele><time>2026-04-02T11:17:47Z</time></trkpt><trkpt lat="45.35362630800815" lon="10.684491682502575"><ele>97.0</ele><time>2026-04-02T11:17:48Z</time></trkpt><trkpt lat="45.35362441534616" lon="10.684249056668884"><ele>97.0</ele><time>2026-04-02T11:17:49Z</time></trkpt><trkpt lat="45.353620635787586" lon="10.684007063390087"><ele>97.0</ele><time>2026-04-02T11:17:50Z</time></trkpt><trkpt lat="45.35361802612969" lon="10.683779537835338"><ele>97.0</ele><time>2026-04-02T11:17:51Z</time></trkpt><trkpt lat="45.353617108213804" lon="10.683565447508863"><ele>97.0</ele><time>2026-04-02T11:17:52Z</time></trkpt><trkpt lat="45.353611601144785" lon="10.683368750595033"><ele>97.0</ele><time>2026-04-02T11:17:53Z</time></trkpt><trkpt lat="45.35360925985216" lon="10.683183854238452"><ele>97.0</ele><time>2026-04-02T11:17:54Z</time></trkpt><trkpt lat="45.353608812140436" lon="10.68301683891955"><ele>97.0</ele><time>2026-04-02T11:17:55Z</time></trkpt><trkpt lat="45.353609033289125" lon="10.682861513869584"><ele>97.0</ele><time>2026-04-02T11:17:56Z</time></trkpt><trkpt lat="45.353610129285116" lon="10.682718717044093"><ele>97.0</ele><time>2026-04-02T11:17:57Z</time></trkpt><trkpt lat="45.35361199401802" lon="10.682589301699393"><ele>97.0</ele><time>2026-04-02T11:17:58Z</time></trkpt><trkpt lat="45.3536188730094" lon="10.682469436279533"><ele>96.83333333333334</ele><time>2026-04-02T11:17:59Z</time></trkpt><trkpt lat="45.35363365151849" lon="10.682358849826416"><ele>96.66666666666667</ele><time>2026-04-02T11:18:00Z</time></trkpt><trkpt lat="45.35365457825074" lon="10.68225431551467"><ele>96.5</ele><time>2026-04-02T11:18:01Z</time></trkpt><trkpt lat="45.35368487042517" lon="10.682153081199043"><ele>96.33333333333334</ele><time>2026-04-02T11:18:02Z</time></trkpt><trkpt lat="45.35373115721339" lon="10.682060981021031"><ele>96.16666666666667</ele><time>2026-04-02T11:18:03Z</time></trkpt><trkpt lat="45.35379068815282" lon="10.68197479734042"><ele>96.0</ele><time>2026-04-02T11:18:04Z</time></trkpt><trkpt lat="45.35386300647137" lon="10.681895651941138"><ele>96.6</ele><time>2026-04-02T11:18:05Z</time></trkpt><trkpt lat="45.35395083974008" lon="10.681840386303218"><ele>97.19999999999999</ele><time>2026-04-02T11:18:06Z</time></trkpt><trkpt lat="45.35403572833887" lon="10.681770462832203"><ele>97.80000000000001</ele><time>2026-04-02T11:18:07Z</time></trkpt><trkpt lat="45.3541679133405" lon="10.681774898444834"><ele>98.4</ele><time>2026-04-02T11:18:08Z</time></trkpt><trkpt lat="45.35429049756767" lon="10.68175828961418"><ele>99.0</ele><time>2026-04-02T11:18:09Z</time></trkpt><trkpt lat="45.35441450845021" lon="10.681745585668873"><ele>99.0</ele><time>2026-04-02T11:18:10Z</time></trkpt><trkpt lat="45.35453969096343" lon="10.68174053282256"><ele>99.0</ele><time>2026-04-02T11:18:11Z</time></trkpt><trkpt lat="45.354668167687144" lon="10.681741708901821"><ele>99.0</ele><time>2026-04-02T11:18:12Z</time></trkpt><trkpt lat="45.35480517465732" lon="10.681756334198408"><ele>99.0</ele><time>2026-04-02T11:18:13Z</time></trkpt><trkpt lat="45.354948167588745" lon="10.6817800597602"><ele>99.66666666666666</ele><time>2026-04-02T11:18:14Z</time></trkpt><trkpt lat="45.355103631751945" lon="10.681799027116712"><ele>100.33333333333333</ele><time>2026-04-02T11:18:15Z</time></trkpt><trkpt lat="45.35527735965243" lon="10.681842260387766"><ele>101.0</ele><time>2026-04-02T11:18:16Z</time></trkpt><trkpt lat="45.355453110477065" lon="10.681866190492592"><ele>101.66666666666666</ele><time>2026-04-02T11:18:17Z</time></trkpt><trkpt lat="45.35562693777491" lon="10.681889858691026"><ele>102.33333333333334</ele><time>2026-04-02T11:18:18Z</time></trkpt><trkpt lat="45.35579924552141" lon="10.681913449615866"><ele>103.0</ele><time>2026-04-02T11:18:19Z</time></trkpt><trkpt lat="45.355972449973024" lon="10.681937239285633"><ele>104.0</ele><time>2026-04-02T11:18:20Z</time></trkpt><trkpt lat="45.35614226382856" lon="10.681960563255444"><ele>105.0</ele><time>2026-04-02T11:18:21Z</time></trkpt><trkpt lat="45.35631068138938" lon="10.681983695468642"><ele>106.0</ele><time>2026-04-02T11:18:22Z</time></trkpt><trkpt lat="45.35647614693541" lon="10.682006755563917"><ele>106.66666666666667</ele><time>2026-04-02T11:18:23Z</time></trkpt><trkpt lat="45.356642231658235" lon="10.68203568543387"><ele>107.33333333333334</ele><time>2026-04-02T11:18:24Z</time></trkpt><trkpt lat="45.356809491238195" lon="10.682049867024542"><ele>108.0</ele><time>2026-04-02T11:18:25Z</time></trkpt><trkpt lat="45.356972039001754" lon="10.682095624078478"><ele>108.0</ele><time>2026-04-02T11:18:26Z</time></trkpt><trkpt lat="45.357127130185454" lon="10.682171817728538"><ele>108.0</ele><time>2026-04-02T11:18:27Z</time></trkpt><trkpt lat="45.35728702657477" lon="10.682231876120758"><ele>108.0</ele><time>2026-04-02T11:18:28Z</time></trkpt><trkpt lat="45.35745011220519" lon="10.682294715352048"><ele>109.0</ele><time>2026-04-02T11:18:29Z</time></trkpt><trkpt lat="45.35761494613349" lon="10.682334646059102"><ele>110.0</ele><time>2026-04-02T11:18:30Z</time></trkpt><trkpt lat="45.35777243584781" lon="10.682421132693078"><ele>111.0</ele><time>2026-04-02T11:18:31Z</time></trkpt><trkpt lat="45.35793523903277" lon="10.682485960036423"><ele>112.33333333333334</ele><time>2026-04-02T11:18:32Z</time></trkpt><trkpt lat="45.358098815289026" lon="10.682551095212226"><ele>113.66666666666667</ele><time>2026-04-02T11:18:33Z</time></trkpt><trkpt lat="45.358265901255436" lon="10.682612183379051"><ele>115.0</ele><time>2026-04-02T11:18:34Z</time></trkpt><trkpt lat="45.35843676070372" lon="10.682664724742873"><ele>115.0</ele><time>2026-04-02T11:18:35Z</time></trkpt><trkpt lat="45.358614000184375" lon="10.682673302513116"><ele>115.0</ele><time>2026-04-02T11:18:36Z</time></trkpt><trkpt lat="45.358788531550076" lon="10.682682552564906"><ele>115.0</ele><time>2026-04-02T11:18:37Z</time></trkpt><trkpt lat="45.35896057564442" lon="10.68266649028457"><ele>118.66666666666667</ele><time>2026-04-02T11:18:38Z</time></trkpt><trkpt lat="45.359132105988294" lon="10.682623669884881"><ele>122.33333333333334</ele><time>2026-04-02T11:18:39Z</time></trkpt><trkpt lat="45.359308933404165" lon="10.682554515041824"><ele>126.0</ele><time>2026-04-02T11:18:40Z</time></trkpt><trkpt lat="45.35950724533264" lon="10.682475613288151"><ele>126.0</ele><time>2026-04-02T11:18:41Z</time></trkpt><trkpt lat="45.359709662029175" lon="10.68239494870178"><ele>126.0</ele><time>2026-04-02T11:18:42Z</time></trkpt><trkpt lat="45.35988804408383" lon="10.6823277757348"><ele>126.0</ele><time>2026-04-02T11:18:43Z</time></trkpt><trkpt lat="45.36006372494392" lon="10.682260088016209"><ele>126.0</ele><time>2026-04-02T11:18:44Z</time></trkpt><trkpt lat="45.360238681716176" lon="10.682190150774167"><ele>126.0</ele><time>2026-04-02T11:18:45Z</time></trkpt><trkpt lat="45.36041223691977" lon="10.682125659690527"><ele>126.0</ele><time>2026-04-02T11:18:46Z</time></trkpt><trkpt lat="45.360582602624426" lon="10.682059334797959"><ele>125.66666666666666</ele><time>2026-04-02T11:18:47Z</time></trkpt><trkpt lat="45.36074113727207" lon="10.681996043628196"><ele>125.33333333333333</ele><time>2026-04-02T11:18:48Z</time></trkpt><trkpt lat="45.360896113712144" lon="10.681932747323646"><ele>125.0</ele><time>2026-04-02T11:18:49Z</time></trkpt><trkpt lat="45.36105680959593" lon="10.68186589765235"><ele>126.0</ele><time>2026-04-02T11:18:50Z</time></trkpt><trkpt lat="45.36121592171895" lon="10.681803017730921"><ele>127.0</ele><time>2026-04-02T11:18:51Z</time></trkpt><trkpt lat="45.361375918540006" lon="10.681740383197345"><ele>128.0</ele><time>2026-04-02T11:18:52Z</time></trkpt><trkpt lat="45.3615382079952" lon="10.681677100521195"><ele>128.0</ele><time>2026-04-02T11:18:53Z</time></trkpt><trkpt lat="45.3617027684468" lon="10.681607942074537"><ele>128.0</ele><time>2026-04-02T11:18:54Z</time></trkpt><trkpt lat="45.36186762828381" lon="10.681530136785485"><ele>128.0</ele><time>2026-04-02T11:18:55Z</time></trkpt><trkpt lat="45.36203387393299" lon="10.68143590284466"><ele>127.66666666666666</ele><time>2026-04-02T11:18:56Z</time></trkpt><trkpt lat="45.362199142331065" lon="10.681328766970664"><ele>127.33333333333334</ele><time>2026-04-02T11:18:57Z</time></trkpt><trkpt lat="45.362363423890955" lon="10.681209881263932"><ele>127.0</ele><time>2026-04-02T11:18:58Z</time></trkpt><trkpt lat="45.36252837227183" lon="10.681081271644327"><ele>127.0</ele><time>2026-04-02T11:18:59Z</time></trkpt><trkpt lat="45.362695962175955" lon="10.68094829098148"><ele>127.0</ele><time>2026-04-02T11:19:00Z</time></trkpt><trkpt lat="45.3628619983685" lon="10.680811445465299"><ele>127.0</ele><time>2026-04-02T11:19:01Z</time></trkpt><trkpt lat="45.363027042368685" lon="10.680681132725525"><ele>122.66666666666667</ele><time>2026-04-02T11:19:02Z</time></trkpt><trkpt lat="45.363183665131906" lon="10.680562584038983"><ele>118.33333333333334</ele><time>2026-04-02T11:19:03Z</time></trkpt><trkpt lat="45.363334555070814" lon="10.680451062262302"><ele>114.0</ele><time>2026-04-02T11:19:04Z</time></trkpt><trkpt lat="45.36347944464379" lon="10.680352276532878"><ele>114.0</ele><time>2026-04-02T11:19:05Z</time></trkpt><trkpt lat="45.36363137118467" lon="10.680274120442348"><ele>114.0</ele><time>2026-04-02T11:19:06Z</time></trkpt><trkpt lat="45.363788746284456" lon="10.680213568399324"><ele>114.0</ele><time>2026-04-02T11:19:07Z</time></trkpt><trkpt lat="45.363948556064436" lon="10.680179554416062"><ele>115.0</ele><time>2026-04-02T11:19:08Z</time></trkpt><trkpt lat="45.36411478602266" lon="10.68017624576155"><ele>116.0</ele><time>2026-04-02T11:19:09Z</time></trkpt><trkpt lat="45.364284765710366" lon="10.68020451147388"><ele>117.0</ele><time>2026-04-02T11:19:10Z</time></trkpt><trkpt lat="45.36445632555144" lon="10.68024733986697"><ele>112.33333333333334</ele><time>2026-04-02T11:19:11Z</time></trkpt><trkpt lat="45.364625701727675" lon="10.680299600754601"><ele>107.66666666666667</ele><time>2026-04-02T11:19:12Z</time></trkpt><trkpt lat="45.364789072231574" lon="10.680363312787861"><ele>103.0</ele><time>2026-04-02T11:19:13Z</time></trkpt><trkpt lat="45.364948484622225" lon="10.680446278627072"><ele>102.66666666666667</ele><time>2026-04-02T11:19:14Z</time></trkpt><trkpt lat="45.36510063890735" lon="10.680552921840926"><ele>102.33333333333334</ele><time>2026-04-02T11:19:15Z</time></trkpt><trkpt lat="45.365242711040494" lon="10.680691113004327"><ele>102.0</ele><time>2026-04-02T11:19:16Z</time></trkpt><trkpt lat="45.36537603077308" lon="10.680852552735468"><ele>102.0</ele><time>2026-04-02T11:19:17Z</time></trkpt><trkpt lat="45.36548287871284" lon="10.681053261761347"><ele>102.0</ele><time>2026-04-02T11:19:18Z</time></trkpt><trkpt lat="45.36560898518152" lon="10.681229649537068"><ele>102.0</ele><time>2026-04-02T11:19:19Z</time></trkpt><trkpt lat="45.36572335998843" lon="10.681419342613923"><ele>101.0</ele><time>2026-04-02T11:19:20Z</time></trkpt><trkpt lat="45.365837753698685" lon="10.68160866438212"><ele>100.0</ele><time>2026-04-02T11:19:21Z</time></trkpt><trkpt lat="45.36595138848699" lon="10.681796982615113"><ele>99.0</ele><time>2026-04-02T11:19:22Z</time></trkpt><trkpt lat="45.36606680199712" lon="10.681984403670157"><ele>99.33333333333334</ele><time>2026-04-02T11:19:23Z</time></trkpt><trkpt lat="45.366185106975514" lon="10.682171903430444"><ele>99.66666666666667</ele><time>2026-04-02T11:19:24Z</time></trkpt><trkpt lat="45.36629045893605" lon="10.682343684984565"><ele>100.0</ele><time>2026-04-02T11:19:25Z</time></trkpt><trkpt lat="45.36637074363782" lon="10.682471760843582"><ele>100.0</ele><time>2026-04-02T11:19:26Z</time></trkpt><trkpt lat="45.36643488818399" lon="10.682611966324329"><ele>100.0</ele><time>2026-04-02T11:19:27Z</time></trkpt><trkpt lat="45.36650639468459" lon="10.682730048995806"><ele>100.0</ele><time>2026-04-02T11:19:28Z</time></trkpt><trkpt lat="45.36656766564639" lon="10.682831213337874"><ele>100.0</ele><time>2026-04-02T11:19:29Z</time></trkpt><trkpt lat="45.366618291159675" lon="10.682914801010291"><ele>100.0</ele><time>2026-04-02T11:19:30Z</time></trkpt><trkpt lat="45.366660205094284" lon="10.68298400505327"><ele>100.0</ele><time>2026-04-02T11:19:31Z</time></trkpt><trkpt lat="45.366706335155015" lon="10.68306017030449"><ele>100.0</ele><time>2026-04-02T11:19:33Z</time></trkpt><trkpt lat="45.36686471836675" lon="10.68296992644813"><ele>100.0</ele><time>2026-04-02T11:19:37Z</time></trkpt><trkpt lat="45.366934586602156" lon="10.682844383024557"><ele>100.0</ele><time>2026-04-02T11:19:39Z</time></trkpt><trkpt lat="45.366975742399426" lon="10.682731175441546"><ele>100.0</ele><time>2026-04-02T11:19:40Z</time></trkpt><trkpt lat="45.36700180389603" lon="10.682613069762239"><ele>100.00000000000001</ele><time>2026-04-02T11:19:41Z</time></trkpt><trkpt lat="45.36698567910948" lon="10.68247015852219"><ele>100.0</ele><time>2026-04-02T11:19:42Z</time></trkpt><trkpt lat="45.36698123194687" lon="10.682319224395842"><ele>100.0</ele><time>2026-04-02T11:19:43Z</time></trkpt><trkpt lat="45.36698357828046" lon="10.682206373485833"><ele>100.0</ele><time>2026-04-02T11:19:44Z</time></trkpt><trkpt lat="45.367004409402625" lon="10.6821203893981"><ele>100.00000000000001</ele><time>2026-04-02T11:19:45Z</time></trkpt><trkpt lat="45.3670317029837" lon="10.682010685547455"><ele>100.0</ele><time>2026-04-02T11:19:46Z</time></trkpt><trkpt lat="45.36709675418523" lon="10.681903392390101"><ele>101.0</ele><time>2026-04-02T11:19:47Z</time></trkpt><trkpt lat="45.367165399262774" lon="10.681825331699212"><ele>102.0</ele><time>2026-04-02T11:19:48Z</time></trkpt><trkpt lat="45.367238678882856" lon="10.681795871456425"><ele>103.0</ele><time>2026-04-02T11:19:49Z</time></trkpt><trkpt lat="45.36732203596282" lon="10.681762665711151"><ele>104.0</ele><time>2026-04-02T11:19:50Z</time></trkpt><trkpt lat="45.36740737436419" lon="10.68168122412725"><ele>105.0</ele><time>2026-04-02T11:19:51Z</time></trkpt><trkpt lat="45.367490675623" lon="10.68157282934532"><ele>104.5</ele><time>2026-04-02T11:19:52Z</time></trkpt><trkpt lat="45.36756012953126" lon="10.681448853800784"><ele>104.0</ele><time>2026-04-02T11:19:53Z</time></trkpt><trkpt lat="45.367640185397654" lon="10.68133183279869"><ele>103.5</ele><time>2026-04-02T11:19:54Z</time></trkpt><trkpt lat="45.36772112743165" lon="10.681209654836454"><ele>103.0</ele><time>2026-04-02T11:19:55Z</time></trkpt><trkpt lat="45.36779398659701" lon="10.681082329300438"><ele>103.0</ele><time>2026-04-02T11:19:56Z</time></trkpt><trkpt lat="45.36787925802701" lon="10.680953636649127"><ele>103.0</ele><time>2026-04-02T11:19:57Z</time></trkpt><trkpt lat="45.367948138852505" lon="10.680807530413041"><ele>103.0</ele><time>2026-04-02T11:19:58Z</time></trkpt><trkpt lat="45.36801309472117" lon="10.680682498288173"><ele>103.0</ele><time>2026-04-02T11:19:59Z</time></trkpt><trkpt lat="45.36806600267464" lon="10.680570309912879"><ele>103.66666666666667</ele><time>2026-04-02T11:20:00Z</time></trkpt><trkpt lat="45.36809863258435" lon="10.680464748544473"><ele>104.33333333333334</ele><time>2026-04-02T11:20:01Z</time></trkpt><trkpt lat="45.36812013976175" lon="10.680341499471663"><ele>105.0</ele><time>2026-04-02T11:20:02Z</time></trkpt><trkpt lat="45.368131843898944" lon="10.680235618257074"><ele>105.66666666666666</ele><time>2026-04-02T11:20:03Z</time></trkpt><trkpt lat="45.36816195984707" lon="10.680062516039936"><ele>106.33333333333333</ele><time>2026-04-02T11:20:05Z</time></trkpt><trkpt lat="45.36818285616636" lon="10.679967049432886"><ele>107.0</ele><time>2026-04-02T11:20:06Z</time></trkpt><trkpt lat="45.36821850083866" lon="10.679882609784514"><ele>106.99999999999999</ele><time>2026-04-02T11:20:07Z</time></trkpt><trkpt lat="45.36825430616193" lon="10.679808838070947"><ele>107.0</ele><time>2026-04-02T11:20:08Z</time></trkpt><trkpt lat="45.36829798066978" lon="10.679725030665407"><ele>107.0</ele><time>2026-04-02T11:20:09Z</time></trkpt><trkpt lat="45.36835730765976" lon="10.679605771239032"><ele>107.0</ele><time>2026-04-02T11:20:10Z</time></trkpt><trkpt lat="45.368417420475666" lon="10.67946128783325"><ele>106.99999999999999</ele><time>2026-04-02T11:20:11Z</time></trkpt><trkpt lat="45.36844773420607" lon="10.679340003882917"><ele>107.0</ele><time>2026-04-02T11:20:12Z</time></trkpt><trkpt lat="45.368446765080876" lon="10.679215410630231"><ele>107.75</ele><time>2026-04-02T11:20:13Z</time></trkpt><trkpt lat="45.36843678730095" lon="10.679041192126101"><ele>108.5</ele><time>2026-04-02T11:20:14Z</time></trkpt><trkpt lat="45.368425529283286" lon="10.678852422539649"><ele>109.25</ele><time>2026-04-02T11:20:15Z</time></trkpt><trkpt lat="45.36841550111819" lon="10.678652297660543"><ele>110.0</ele><time>2026-04-02T11:20:16Z</time></trkpt><trkpt lat="45.36841067222733" lon="10.678469243822274"><ele>110.2</ele><time>2026-04-02T11:20:17Z</time></trkpt><trkpt lat="45.368412218872706" lon="10.67832404638822"><ele>110.4</ele><time>2026-04-02T11:20:18Z</time></trkpt><trkpt lat="45.368424475869816" lon="10.678198278618389"><ele>110.6</ele><time>2026-04-02T11:20:19Z</time></trkpt><trkpt lat="45.36844348070775" lon="10.678059825757092"><ele>110.8</ele><time>2026-04-02T11:20:20Z</time></trkpt><trkpt lat="45.36847502230541" lon="10.677932791779615"><ele>111.0</ele><time>2026-04-02T11:20:21Z</time></trkpt><trkpt lat="45.36852349092094" lon="10.677798669164044"><ele>111.75</ele><time>2026-04-02T11:20:22Z</time></trkpt><trkpt lat="45.3685773008132" lon="10.677639380512515"><ele>112.5</ele><time>2026-04-02T11:20:23Z</time></trkpt><trkpt lat="45.368628566497044" lon="10.677462671406667"><ele>113.25</ele><time>2026-04-02T11:20:24Z</time></trkpt><trkpt lat="45.36867400138739" lon="10.677282104732635"><ele>114.0</ele><time>2026-04-02T11:20:25Z</time></trkpt><trkpt lat="45.368714809264084" lon="10.67708962861395"><ele>115.25</ele><time>2026-04-02T11:20:26Z</time></trkpt><trkpt lat="45.36873851968071" lon="10.67688556497451"><ele>116.5</ele><time>2026-04-02T11:20:27Z</time></trkpt><trkpt lat="45.36875940785164" lon="10.676699837318493"><ele>117.75</ele><time>2026-04-02T11:20:28Z</time></trkpt><trkpt lat="45.36879518231225" lon="10.676555443836397"><ele>119.0</ele><time>2026-04-02T11:20:29Z</time></trkpt><trkpt lat="45.368842546441364" lon="10.676423476785297"><ele>119.4</ele><time>2026-04-02T11:20:30Z</time></trkpt><trkpt lat="45.36888964729479" lon="10.676274275621846"><ele>119.80000000000001</ele><time>2026-04-02T11:20:31Z</time></trkpt><trkpt lat="45.368945246364355" lon="10.676124466475612"><ele>120.19999999999999</ele><time>2026-04-02T11:20:32Z</time></trkpt><trkpt lat="45.3690032461548" lon="10.67598366282892"><ele>120.6</ele><time>2026-04-02T11:20:33Z</time></trkpt><trkpt lat="45.369057156444754" lon="10.675865755867296"><ele>121.0</ele><time>2026-04-02T11:20:34Z</time></trkpt><trkpt lat="45.3691425829409" lon="10.67579311853366"><ele>121.0</ele><time>2026-04-02T11:20:36Z</time></trkpt><trkpt lat="45.3692434809988" lon="10.67584024234401"><ele>121.0</ele><time>2026-04-02T11:20:38Z</time></trkpt><trkpt lat="45.36931002471814" lon="10.675911946296242"><ele>121.0</ele><time>2026-04-02T11:20:39Z</time></trkpt><trkpt lat="45.3693846052657" lon="10.675997946290682"><ele>121.0</ele><time>2026-04-02T11:20:40Z</time></trkpt><trkpt lat="45.36947349857454" lon="10.676066633932257"><ele>121.0</ele><time>2026-04-02T11:20:41Z</time></trkpt><trkpt lat="45.36955637805104" lon="10.676129010939112"><ele>121.0</ele><time>2026-04-02T11:20:42Z</time></trkpt><trkpt lat="45.36962225727312" lon="10.676172272619826"><ele>121.0</ele><time>2026-04-02T11:20:43Z</time></trkpt><trkpt lat="45.369725030275056" lon="10.676215260656393"><ele>121.0</ele><time>2026-04-02T11:20:45Z</time></trkpt><trkpt lat="45.36980239582562" lon="10.67612627332698"><ele>121.0</ele><time>2026-04-02T11:20:49Z</time></trkpt><trkpt lat="45.36973812884135" lon="10.675953069928143"><ele>121.0</ele><time>2026-04-02T11:20:51Z</time></trkpt><trkpt lat="45.3697045132924" lon="10.675832975922418"><ele>121.6</ele><time>2026-04-02T11:20:52Z</time></trkpt><trkpt lat="45.369669139895215" lon="10.675716320390578"><ele>122.19999999999999</ele><time>2026-04-02T11:20:53Z</time></trkpt><trkpt lat="45.36963477162607" lon="10.675597567218531"><ele>122.80000000000001</ele><time>2026-04-02T11:20:54Z</time></trkpt><trkpt lat="45.36960327525386" lon="10.675469614657953"><ele>123.4</ele><time>2026-04-02T11:20:55Z</time></trkpt><trkpt lat="45.36957313803164" lon="10.675333791498698"><ele>124.0</ele><time>2026-04-02T11:20:56Z</time></trkpt><trkpt lat="45.369552283240125" lon="10.675187271881335"><ele>124.4</ele><time>2026-04-02T11:20:57Z</time></trkpt><trkpt lat="45.36953747987643" lon="10.67503398758518"><ele>124.80000000000001</ele><time>2026-04-02T11:20:58Z</time></trkpt><trkpt lat="45.369531883669794" lon="10.674878387035124"><ele>125.19999999999999</ele><time>2026-04-02T11:20:59Z</time></trkpt><trkpt lat="45.36954360701044" lon="10.674723010221115"><ele>125.6</ele><time>2026-04-02T11:21:00Z</time></trkpt><trkpt lat="45.36956221387622" lon="10.67457522240793"><ele>126.0</ele><time>2026-04-02T11:21:01Z</time></trkpt><trkpt lat="45.36957324938479" lon="10.674424795894549"><ele>127.25</ele><time>2026-04-02T11:21:02Z</time></trkpt><trkpt lat="45.36958682967273" lon="10.674267889288398"><ele>128.5</ele><time>2026-04-02T11:21:03Z</time></trkpt><trkpt lat="45.3695550737332" lon="10.674115992525548"><ele>129.75</ele><time>2026-04-02T11:21:04Z</time></trkpt><trkpt lat="45.369531455746454" lon="10.673958097235598"><ele>131.0</ele><time>2026-04-02T11:21:05Z</time></trkpt><trkpt lat="45.36949972751439" lon="10.673796316547143"><ele>131.0</ele><time>2026-04-02T11:21:06Z</time></trkpt><trkpt lat="45.36947132956147" lon="10.673625650050722"><ele>131.0</ele><time>2026-04-02T11:21:07Z</time></trkpt><trkpt lat="45.369447829904466" lon="10.673448648507211"><ele>131.0</ele><time>2026-04-02T11:21:08Z</time></trkpt><trkpt lat="45.369425583079874" lon="10.673268071472148"><ele>131.0</ele><time>2026-04-02T11:21:09Z</time></trkpt><trkpt lat="45.36940572742571" lon="10.6731002361746"><ele>131.25</ele><time>2026-04-02T11:21:10Z</time></trkpt><trkpt lat="45.36938679510051" lon="10.672935483243661"><ele>131.5</ele><time>2026-04-02T11:21:11Z</time></trkpt><trkpt lat="45.36937033068159" lon="10.672765858899329"><ele>131.75</ele><time>2026-04-02T11:21:12Z</time></trkpt><trkpt lat="45.36935540675146" lon="10.672596444077927"><ele>132.0</ele><time>2026-04-02T11:21:13Z</time></trkpt><trkpt lat="45.36933530717435" lon="10.672421786239749"><ele>132.75</ele><time>2026-04-02T11:21:14Z</time></trkpt><trkpt lat="45.36931541106401" lon="10.672248326563812"><ele>133.5</ele><time>2026-04-02T11:21:15Z</time></trkpt><trkpt lat="45.36929353954012" lon="10.672071909167146"><ele>134.25</ele><time>2026-04-02T11:21:16Z</time></trkpt><trkpt lat="45.36926797378431" lon="10.671894099983184"><ele>135.0</ele><time>2026-04-02T11:21:17Z</time></trkpt><trkpt lat="45.36923703950617" lon="10.671715300621237"><ele>136.0</ele><time>2026-04-02T11:21:18Z</time></trkpt><trkpt lat="45.3691974448617" lon="10.67153667610339"><ele>137.0</ele><time>2026-04-02T11:21:19Z</time></trkpt><trkpt lat="45.369153198305284" lon="10.671360801294384"><ele>138.0</ele><time>2026-04-02T11:21:20Z</time></trkpt><trkpt lat="45.36911667709064" lon="10.671158695322182"><ele>139.0</ele><time>2026-04-02T11:21:21Z</time></trkpt><trkpt lat="45.36909740010208" lon="10.67093785880603"><ele>139.5</ele><time>2026-04-02T11:21:22Z</time></trkpt><trkpt lat="45.36910700557562" lon="10.670742276847108"><ele>140.0</ele><time>2026-04-02T11:21:23Z</time></trkpt><trkpt lat="45.36912398881203" lon="10.670553830783252"><ele>140.5</ele><time>2026-04-02T11:21:24Z</time></trkpt><trkpt lat="45.36913293183409" lon="10.670373089350026"><ele>141.0</ele><time>2026-04-02T11:21:25Z</time></trkpt><trkpt lat="45.36913670239455" lon="10.670200325037714"><ele>142.5</ele><time>2026-04-02T11:21:26Z</time></trkpt><trkpt lat="45.369139741680236" lon="10.67003645967675"><ele>144.0</ele><time>2026-04-02T11:21:27Z</time></trkpt><trkpt lat="45.36913598779473" lon="10.669872753449924"><ele>145.5</ele><time>2026-04-02T11:21:28Z</time></trkpt><trkpt lat="45.369126499755865" lon="10.669705180908585"><ele>147.0</ele><time>2026-04-02T11:21:29Z</time></trkpt><trkpt lat="45.36911176757415" lon="10.669533716021943"><ele>148.25</ele><time>2026-04-02T11:21:30Z</time></trkpt><trkpt lat="45.36908490723178" lon="10.669359247787245"><ele>149.5</ele><time>2026-04-02T11:21:31Z</time></trkpt><trkpt lat="45.36904434373965" lon="10.669178238700242"><ele>150.75</ele><time>2026-04-02T11:21:32Z</time></trkpt><trkpt lat="45.36899357567815" lon="10.668987879836976"><ele>152.0</ele><time>2026-04-02T11:21:33Z</time></trkpt><trkpt lat="45.36894086112398" lon="10.668800834063727"><ele>152.0</ele><time>2026-04-02T11:21:34Z</time></trkpt><trkpt lat="45.36888997661945" lon="10.6686158974188"><ele>152.0</ele><time>2026-04-02T11:21:35Z</time></trkpt><trkpt lat="45.368842699536785" lon="10.668431655168716"><ele>152.0</ele><time>2026-04-02T11:21:36Z</time></trkpt><trkpt lat="45.36879751364448" lon="10.668240662801047"><ele>152.0</ele><time>2026-04-02T11:21:37Z</time></trkpt><trkpt lat="45.36875154001312" lon="10.668054344662067"><ele>152.0</ele><time>2026-04-02T11:21:38Z</time></trkpt><trkpt lat="45.368705344641626" lon="10.667865993467366"><ele>152.0</ele><time>2026-04-02T11:21:39Z</time></trkpt><trkpt lat="45.36866273907632" lon="10.66769107283696"><ele>152.0</ele><time>2026-04-02T11:21:40Z</time></trkpt><trkpt lat="45.3686246797706" lon="10.667541901913111"><ele>152.0</ele><time>2026-04-02T11:21:41Z</time></trkpt><trkpt lat="45.36858773781967" lon="10.667420272466206"><ele>152.0</ele><time>2026-04-02T11:21:42Z</time></trkpt><trkpt lat="45.36855452206596" lon="10.667320587803566"><ele>152.0</ele><time>2026-04-02T11:21:43.001Z</time></trkpt><trkpt lat="45.368516270149385" lon="10.667245686801248"><ele>152.0</ele><time>2026-04-02T11:21:44Z</time></trkpt><trkpt lat="45.368474021051775" lon="10.66714406769106"><ele>152.0</ele><time>2026-04-02T11:21:46.001Z</time></trkpt><trkpt lat="45.36833213707766" lon="10.667276064177203"><ele>152.0</ele><time>2026-04-02T11:21:48.001Z</time></trkpt><trkpt lat="45.36826742787435" lon="10.66736676611096"><ele>152.0</ele><time>2026-04-02T11:21:49.001Z</time></trkpt><trkpt lat="45.3681909629202" lon="10.667468842319668"><ele>152.0</ele><time>2026-04-02T11:21:50Z</time></trkpt><trkpt lat="45.36810716650523" lon="10.66757213289212"><ele>152.0</ele><time>2026-04-02T11:21:51.001Z</time></trkpt><trkpt lat="45.36801761048319" lon="10.667683038745167"><ele>152.0</ele><time>2026-04-02T11:21:52.001Z</time></trkpt><trkpt lat="45.36793406518386" lon="10.667814574299518"><ele>152.75</ele><time>2026-04-02T11:21:53.001Z</time></trkpt><trkpt lat="45.36786935009694" lon="10.6679748761688"><ele>153.5</ele><time>2026-04-02T11:21:54Z</time></trkpt><trkpt lat="45.36782784316452" lon="10.668160805327974"><ele>154.25</ele><time>2026-04-02T11:21:55Z</time></trkpt><trkpt lat="45.36778766487958" lon="10.66834886898502"><ele>155.0</ele><time>2026-04-02T11:21:56Z</time></trkpt><trkpt lat="45.36775283875572" lon="10.668536113634811"><ele>155.4</ele><time>2026-04-02T11:21:57Z</time></trkpt><trkpt lat="45.36772242977112" lon="10.668705383883188"><ele>155.8</ele><time>2026-04-02T11:21:58Z</time></trkpt><trkpt lat="45.36769984940782" lon="10.668827833410612"><ele>156.2</ele><time>2026-04-02T11:21:59Z</time></trkpt><trkpt lat="45.36768419262042" lon="10.668915682661842"><ele>156.6</ele><time>2026-04-02T11:22:00Z</time></trkpt><trkpt lat="45.36764041564827" lon="10.669019956355106"><ele>157.0</ele><time>2026-04-02T11:22:02Z</time></trkpt><trkpt lat="45.36737021849362" lon="10.668834267379076"><ele>157.0</ele><time>2026-04-02T11:22:07Z</time></trkpt><trkpt lat="45.36728403170696" lon="10.668743403290197"><ele>157.0</ele><time>2026-04-02T11:22:08Z</time></trkpt><trkpt lat="45.367201283867175" lon="10.668637188333639"><ele>157.0</ele><time>2026-04-02T11:22:09Z</time></trkpt><trkpt lat="45.36712457725649" lon="10.668524736121558"><ele>157.0</ele><time>2026-04-02T11:22:10Z</time></trkpt><trkpt lat="45.36705859884676" lon="10.668404772212286"><ele>157.0</ele><time>2026-04-02T11:22:11Z</time></trkpt><trkpt lat="45.366996175879926" lon="10.66827784036414"><ele>159.0</ele><time>2026-04-02T11:22:12Z</time></trkpt><trkpt lat="45.36692675590367" lon="10.668157922917196"><ele>161.0</ele><time>2026-04-02T11:22:13Z</time></trkpt><trkpt lat="45.366845363746314" lon="10.668045509697764"><ele>163.0</ele><time>2026-04-02T11:22:14Z</time></trkpt><trkpt lat="45.36676062607796" lon="10.667949394180676"><ele>165.0</ele><time>2026-04-02T11:22:15Z</time></trkpt><trkpt lat="45.36668431518603" lon="10.667878485513958"><ele>167.0</ele><time>2026-04-02T11:22:16Z</time></trkpt><trkpt lat="45.36660532741734" lon="10.667821422376669"><ele>167.0</ele><time>2026-04-02T11:22:17Z</time></trkpt><trkpt lat="45.36652028846233" lon="10.667783437686746"><ele>167.0</ele><time>2026-04-02T11:22:18Z</time></trkpt><trkpt lat="45.36642786006209" lon="10.66777003355598"><ele>167.0</ele><time>2026-04-02T11:22:19Z</time></trkpt><trkpt lat="45.36634604781617" lon="10.667760572633602"><ele>167.0</ele><time>2026-04-02T11:22:20Z</time></trkpt><trkpt lat="45.366279044912716" lon="10.667747740491466"><ele>167.0</ele><time>2026-04-02T11:22:21Z</time></trkpt><trkpt lat="45.36619112429128" lon="10.667773700733862"><ele>167.0</ele><time>2026-04-02T11:22:23Z</time></trkpt><trkpt lat="45.3661532219466" lon="10.66794548361346"><ele>167.0</ele><time>2026-04-02T11:22:25Z</time></trkpt><trkpt lat="45.366147741387536" lon="10.668048930163854"><ele>167.0</ele><time>2026-04-02T11:22:25.999Z</time></trkpt><trkpt lat="45.366119630741714" lon="10.668205939412525"><ele>167.0</ele><time>2026-04-02T11:22:27.999Z</time></trkpt><trkpt lat="45.366120972339054" lon="10.668309773054398"><ele>167.0</ele><time>2026-04-02T11:22:29.999Z</time></trkpt><trkpt lat="45.36619467674384" lon="10.668353254988006"><ele>167.0</ele><time>2026-04-02T11:22:31.999Z</time></trkpt><trkpt lat="45.36631622055227" lon="10.66835998696326"><ele>167.0</ele><time>2026-04-02T11:22:33.999Z</time></trkpt><trkpt lat="45.36639020932406" lon="10.668369091846921"><ele>167.0</ele><time>2026-04-02T11:22:34.999Z</time></trkpt><trkpt lat="45.36645255044567" lon="10.66838514465094"><ele>167.0</ele><time>2026-04-02T11:22:35.999Z</time></trkpt><trkpt lat="45.366573098064755" lon="10.66842772747722"><ele>167.0</ele><time>2026-04-02T11:22:37.999Z</time></trkpt><trkpt lat="45.36660567422899" lon="10.668544035287473"><ele>167.0</ele><time>2026-04-02T11:22:39.999Z</time></trkpt><trkpt lat="45.36658658960875" lon="10.668635715649012"><ele>167.0</ele><time>2026-04-02T11:22:40.999Z</time></trkpt><trkpt lat="45.36655681389352" lon="10.668752554786629"><ele>167.6</ele><time>2026-04-02T11:22:41.999Z</time></trkpt><trkpt lat="45.36653708638515" lon="10.668881345354635"><ele>168.2</ele><time>2026-04-02T11:22:42.999Z</time></trkpt><trkpt lat="45.36653422376029" lon="10.669021808384517"><ele>168.8</ele><time>2026-04-02T11:22:43.999Z</time></trkpt><trkpt lat="45.366534676337025" lon="10.669164256116838"><ele>169.4</ele><time>2026-04-02T11:22:44.999Z</time></trkpt><trkpt lat="45.366530356743475" lon="10.669303481830697"><ele>170.0</ele><time>2026-04-02T11:22:45.999Z</time></trkpt><trkpt lat="45.3665297667295" lon="10.669439483464112"><ele>169.6</ele><time>2026-04-02T11:22:46.999Z</time></trkpt><trkpt lat="45.36653380115818" lon="10.669570467088947"><ele>169.2</ele><time>2026-04-02T11:22:47.999Z</time></trkpt><trkpt lat="45.36654233144069" lon="10.669692425802843"><ele>168.8</ele><time>2026-04-02T11:22:48.999Z</time></trkpt><trkpt lat="45.36654865767015" lon="10.669797525932307"><ele>168.4</ele><time>2026-04-02T11:22:49.999Z</time></trkpt><trkpt lat="45.36651818084788" lon="10.669913909306686"><ele>168.0</ele><time>2026-04-02T11:22:51.999Z</time></trkpt><trkpt lat="45.36639222451412" lon="10.669895042364821"><ele>166.60000000000002</ele><time>2026-04-02T11:22:53.999Z</time></trkpt><trkpt lat="45.36630855532409" lon="10.669860192192283"><ele>165.20000000000002</ele><time>2026-04-02T11:22:54.999Z</time></trkpt><trkpt lat="45.366231554908" lon="10.669850347637155"><ele>163.8</ele><time>2026-04-02T11:22:55.999Z</time></trkpt><trkpt lat="45.36613682944494" lon="10.669910886159721"><ele>162.4</ele><time>2026-04-02T11:22:57.999Z</time></trkpt><trkpt lat="45.36613005553297" lon="10.67010112715539"><ele>161.0</ele><time>2026-04-02T11:22:59.999Z</time></trkpt><trkpt lat="45.36614350889032" lon="10.67020425367697"><ele>160.28571428571428</ele><time>2026-04-02T11:23:00.999Z</time></trkpt><trkpt lat="45.3661421568126" lon="10.670316087403966"><ele>159.57142857142856</ele><time>2026-04-02T11:23:01.999Z</time></trkpt><trkpt lat="45.36613372227482" lon="10.67041530052157"><ele>158.85714285714286</ele><time>2026-04-02T11:23:02.999Z</time></trkpt><trkpt lat="45.366114777891774" lon="10.670510673093103"><ele>158.14285714285714</ele><time>2026-04-02T11:23:03.999Z</time></trkpt><trkpt lat="45.36608426409038" lon="10.670612387537357"><ele>157.42857142857142</ele><time>2026-04-02T11:23:04.999Z</time></trkpt><trkpt lat="45.36605782426728" lon="10.670712666303771"><ele>156.71428571428572</ele><time>2026-04-02T11:23:05.999Z</time></trkpt><trkpt lat="45.36605495983984" lon="10.670819503987802"><ele>156.0</ele><time>2026-04-02T11:23:06.999Z</time></trkpt><trkpt lat="45.36606792120858" lon="10.670957880437085"><ele>155.0</ele><time>2026-04-02T11:23:07.999Z</time></trkpt><trkpt lat="45.366082426985436" lon="10.671132635586552"><ele>154.0</ele><time>2026-04-02T11:23:08.999Z</time></trkpt><trkpt lat="45.366094719260936" lon="10.671325309173458"><ele>153.0</ele><time>2026-04-02T11:23:09.999Z</time></trkpt><trkpt lat="45.36609756397022" lon="10.671469313361296"><ele>152.0</ele><time>2026-04-02T11:23:10.999Z</time></trkpt><trkpt lat="45.36611938772555" lon="10.671557946501975"><ele>151.0</ele><time>2026-04-02T11:23:11.999Z</time></trkpt><trkpt lat="45.36621313692613" lon="10.671657922339014"><ele>151.0</ele><time>2026-04-02T11:23:13.999Z</time></trkpt><trkpt lat="45.36627527731722" lon="10.671703192398287"><ele>151.0</ele><time>2026-04-02T11:23:14.999Z</time></trkpt><trkpt lat="45.36637413559214" lon="10.67170912950342"><ele>151.0</ele><time>2026-04-02T11:23:16.999Z</time></trkpt><trkpt lat="45.3663276293661" lon="10.671863080843835"><ele>151.0</ele><time>2026-04-02T11:23:27.999Z</time></trkpt><trkpt lat="45.36622391762624" lon="10.67184376389929"><ele>151.0</ele><time>2026-04-02T11:23:28.999Z</time></trkpt><trkpt lat="45.36610947633431" lon="10.671816025446192"><ele>151.0</ele><time>2026-04-02T11:23:29.999Z</time></trkpt><trkpt lat="45.36599754206115" lon="10.671795432904323"><ele>151.0</ele><time>2026-04-02T11:23:30.999Z</time></trkpt><trkpt lat="45.36587580739583" lon="10.671776805104564"><ele>151.0</ele><time>2026-04-02T11:23:31.999Z</time></trkpt><trkpt lat="45.36573660694766" lon="10.6717512196407"><ele>151.0</ele><time>2026-04-02T11:23:32.999Z</time></trkpt><trkpt lat="45.36558030778251" lon="10.671714249691837"><ele>150.0</ele><time>2026-04-02T11:23:33.999Z</time></trkpt><trkpt lat="45.36541344238049" lon="10.671675771251211"><ele>149.0</ele><time>2026-04-02T11:23:34.999Z</time></trkpt><trkpt lat="45.365248654474925" lon="10.671641224090145"><ele>148.0</ele><time>2026-04-02T11:23:35.999Z</time></trkpt><trkpt lat="45.36510764190161" lon="10.67160975595958"><ele>148.0</ele><time>2026-04-02T11:23:36.999Z</time></trkpt><trkpt lat="45.36497965683186" lon="10.671586323445187"><ele>148.0</ele><time>2026-04-02T11:23:37.999Z</time></trkpt><trkpt lat="45.364860096265396" lon="10.671585776237281"><ele>148.0</ele><time>2026-04-02T11:23:38.999Z</time></trkpt><trkpt lat="45.36474538247502" lon="10.671610920164929"><ele>148.0</ele><time>2026-04-02T11:23:39.999Z</time></trkpt><trkpt lat="45.364630374126904" lon="10.671647659511224"><ele>146.75</ele><time>2026-04-02T11:23:40.999Z</time></trkpt><trkpt lat="45.36451305145678" lon="10.671683670442045"><ele>145.5</ele><time>2026-04-02T11:23:41.999Z</time></trkpt><trkpt lat="45.36439413387376" lon="10.671714259630082"><ele>144.25</ele><time>2026-04-02T11:23:42.999Z</time></trkpt><trkpt lat="45.36427393366419" lon="10.671742638494498"><ele>143.0</ele><time>2026-04-02T11:23:43.999Z</time></trkpt><trkpt lat="45.364150156516196" lon="10.671743242998959"><ele>143.0</ele><time>2026-04-02T11:23:45Z</time></trkpt><trkpt lat="45.364022257972294" lon="10.67168374021269"><ele>143.0</ele><time>2026-04-02T11:23:46Z</time></trkpt><trkpt lat="45.36388920828272" lon="10.671659427764267"><ele>143.0</ele><time>2026-04-02T11:23:47Z</time></trkpt><trkpt lat="45.36378381217875" lon="10.6715993960214"><ele>143.0</ele><time>2026-04-02T11:23:48Z</time></trkpt><trkpt lat="45.36368564914844" lon="10.671561798154684"><ele>141.8</ele><time>2026-04-02T11:23:49Z</time></trkpt><trkpt lat="45.363611143421174" lon="10.67152995784042"><ele>140.60000000000002</ele><time>2026-04-02T11:23:50Z</time></trkpt><trkpt lat="45.363526018720194" lon="10.67153470165221"><ele>139.39999999999998</ele><time>2026-04-02T11:23:51Z</time></trkpt><trkpt lat="45.36343254029623" lon="10.671506243123742"><ele>138.2</ele><time>2026-04-02T11:23:52Z</time></trkpt><trkpt lat="45.36333095252134" lon="10.671464673156045"><ele>137.0</ele><time>2026-04-02T11:23:53Z</time></trkpt><trkpt lat="45.36322752777527" lon="10.671418516909942"><ele>137.0</ele><time>2026-04-02T11:23:54Z</time></trkpt><trkpt lat="45.36312608228258" lon="10.671353545371634"><ele>137.0</ele><time>2026-04-02T11:23:55Z</time></trkpt><trkpt lat="45.3630601461223" lon="10.671241305295817"><ele>137.0</ele><time>2026-04-02T11:23:56Z</time></trkpt><trkpt lat="45.36302806704469" lon="10.671114066304979"><ele>137.0</ele><time>2026-04-02T11:23:57Z</time></trkpt><trkpt lat="45.36302766705217" lon="10.6709614033881"><ele>137.0</ele><time>2026-04-02T11:23:58Z</time></trkpt><trkpt lat="45.36304361740757" lon="10.6707922343615"><ele>137.0</ele><time>2026-04-02T11:23:59Z</time></trkpt><trkpt lat="45.36306022495451" lon="10.670604146031806"><ele>137.0</ele><time>2026-04-02T11:24:00Z</time></trkpt><trkpt lat="45.36307775448472" lon="10.670403378518657"><ele>137.0</ele><time>2026-04-02T11:24:01Z</time></trkpt><trkpt lat="45.36309310851988" lon="10.67021616828541"><ele>137.0</ele><time>2026-04-02T11:24:02Z</time></trkpt><trkpt lat="45.36310216225511" lon="10.670063632858518"><ele>137.0</ele><time>2026-04-02T11:24:03Z</time></trkpt><trkpt lat="45.36310694548829" lon="10.669929400941914"><ele>137.0</ele><time>2026-04-02T11:24:04Z</time></trkpt><trkpt lat="45.36309212536478" lon="10.669807155556754"><ele>137.0</ele><time>2026-04-02T11:24:05Z</time></trkpt><trkpt lat="45.36304303270488" lon="10.669710394148044"><ele>137.0</ele><time>2026-04-02T11:24:06Z</time></trkpt><trkpt lat="45.36294597901571" lon="10.66968167814188"><ele>137.0</ele><time>2026-04-02T11:24:07Z</time></trkpt><trkpt lat="45.36286016892687" lon="10.669631669965954"><ele>135.6</ele><time>2026-04-02T11:24:08Z</time></trkpt><trkpt lat="45.362760778673035" lon="10.669597020589375"><ele>134.2</ele><time>2026-04-02T11:24:09Z</time></trkpt><trkpt lat="45.36265238792274" lon="10.669567757317363"><ele>132.8</ele><time>2026-04-02T11:24:10Z</time></trkpt><trkpt lat="45.36254288493845" lon="10.669538964285284"><ele>131.4</ele><time>2026-04-02T11:24:11Z</time></trkpt><trkpt lat="45.36242667913911" lon="10.66950894222458"><ele>130.0</ele><time>2026-04-02T11:24:12Z</time></trkpt><trkpt lat="45.36229658505992" lon="10.669480120989341"><ele>129.25</ele><time>2026-04-02T11:24:13Z</time></trkpt><trkpt lat="45.362160086134956" lon="10.66946021683138"><ele>128.5</ele><time>2026-04-02T11:24:13.999Z</time></trkpt><trkpt lat="45.36203350850498" lon="10.669429472406756"><ele>127.75</ele><time>2026-04-02T11:24:14.999Z</time></trkpt><trkpt lat="45.36190333860885" lon="10.669337640339572"><ele>127.0</ele><time>2026-04-02T11:24:15.999Z</time></trkpt><trkpt lat="45.36173092664236" lon="10.669244005486206"><ele>126.66666666666667</ele><time>2026-04-02T11:24:16.999Z</time></trkpt><trkpt lat="45.36152622546073" lon="10.669166740279326"><ele>126.33333333333334</ele><time>2026-04-02T11:24:17.999Z</time></trkpt><trkpt lat="45.36135671046323" lon="10.669105143747498"><ele>126.0</ele><time>2026-04-02T11:24:18.999Z</time></trkpt><trkpt lat="45.36122645764265" lon="10.669057689991853"><ele>126.0</ele><time>2026-04-02T11:24:19.999Z</time></trkpt><trkpt lat="45.36112972026451" lon="10.66893037978202"><ele>126.0</ele><time>2026-04-02T11:24:20.999Z</time></trkpt><trkpt lat="45.36105037122304" lon="10.66881199069659"><ele>126.0</ele><time>2026-04-02T11:24:21.999Z</time></trkpt><trkpt lat="45.36098466870663" lon="10.668717853283008"><ele>126.0</ele><time>2026-04-02T11:24:22.999Z</time></trkpt><trkpt lat="45.36092265088666" lon="10.668658131637212"><ele>126.0</ele><time>2026-04-02T11:24:23.999Z</time></trkpt><trkpt lat="45.36082322766599" lon="10.66867744837594"><ele>126.0</ele><time>2026-04-02T11:24:25.999Z</time></trkpt><trkpt lat="45.360790937110934" lon="10.66882216932459"><ele>126.0</ele><time>2026-04-02T11:24:27.999Z</time></trkpt><trkpt lat="45.360808551483586" lon="10.668937041315441"><ele>126.0</ele><time>2026-04-02T11:24:28.999Z</time></trkpt><trkpt lat="45.36077734976074" lon="10.669056156836351"><ele>126.0</ele><time>2026-04-02T11:24:30.999Z</time></trkpt><trkpt lat="45.360673116744614" lon="10.669042951591788"><ele>126.0</ele><time>2026-04-02T11:24:32.999Z</time></trkpt><trkpt lat="45.36056755066831" lon="10.669024471809546"><ele>125.5</ele><time>2026-04-02T11:24:34.999Z</time></trkpt><trkpt lat="45.36044386367961" lon="10.669002819878504"><ele>125.0</ele><time>2026-04-02T11:24:36.999Z</time></trkpt><trkpt lat="45.36033178053737" lon="10.669272470928574"><ele>124.5</ele><time>2026-04-02T11:24:37.999Z</time></trkpt><trkpt lat="45.36022904926511" lon="10.669298162680462"><ele>124.0</ele><time>2026-04-02T11:24:38.999Z</time></trkpt><trkpt lat="45.36010935397055" lon="10.669290475096027"><ele>124.0</ele><time>2026-04-02T11:24:39.999Z</time></trkpt><trkpt lat="45.35997723370472" lon="10.669262262038622"><ele>124.0</ele><time>2026-04-02T11:24:40.999Z</time></trkpt><trkpt lat="45.359870272641096" lon="10.66925348226047"><ele>124.0</ele><time>2026-04-02T11:24:41.999Z</time></trkpt><trkpt lat="45.359782617133845" lon="10.669241004433117"><ele>124.0</ele><time>2026-04-02T11:24:42.999Z</time></trkpt><trkpt lat="45.35970477430505" lon="10.669254223896075"><ele>124.0</ele><time>2026-04-02T11:24:43.999Z</time></trkpt><trkpt lat="45.359635961957935" lon="10.669300354405427"><ele>124.75</ele><time>2026-04-02T11:24:44.999Z</time></trkpt><trkpt lat="45.35954479946783" lon="10.669387157278988"><ele>125.5</ele><time>2026-04-02T11:24:45.999Z</time></trkpt><trkpt lat="45.35942623835998" lon="10.66946814790256"><ele>126.25</ele><time>2026-04-02T11:24:46.999Z</time></trkpt><trkpt lat="45.35929552015841" lon="10.669512307088086"><ele>127.0</ele><time>2026-04-02T11:24:47.999Z</time></trkpt><trkpt lat="45.359181543927946" lon="10.66952059871279"><ele>127.0</ele><time>2026-04-02T11:24:48.999Z</time></trkpt><trkpt lat="45.3590837263888" lon="10.669598023903541"><ele>126.99999999999999</ele><time>2026-04-02T11:24:49.999Z</time></trkpt><trkpt lat="45.358976893621715" lon="10.66970742768239"><ele>126.99999999999999</ele><time>2026-04-02T11:24:50.999Z</time></trkpt><trkpt lat="45.3588943027244" lon="10.669762172992137"><ele>127.0</ele><time>2026-04-02T11:24:51.999Z</time></trkpt><trkpt lat="45.35878762114313" lon="10.669788929308009"><ele>127.0</ele><time>2026-04-02T11:24:52.999Z</time></trkpt><trkpt lat="45.358671628810704" lon="10.669788930505192"><ele>126.39999999999999</ele><time>2026-04-02T11:24:53.999Z</time></trkpt><trkpt lat="45.35856132384384" lon="10.66978455136062"><ele>125.79999999999998</ele><time>2026-04-02T11:24:54.999Z</time></trkpt><trkpt lat="45.35845945265516" lon="10.669806124320134"><ele>125.2</ele><time>2026-04-02T11:24:55.999Z</time></trkpt><trkpt lat="45.358377447966426" lon="10.66983664387586"><ele>124.6</ele><time>2026-04-02T11:24:56.999Z</time></trkpt><trkpt lat="45.3583007330625" lon="10.669868524625064"><ele>124.0</ele><time>2026-04-02T11:24:57.999Z</time></trkpt><trkpt lat="45.35822194078565" lon="10.669922534592022"><ele>124.0</ele><time>2026-04-02T11:24:58.999Z</time></trkpt><trkpt lat="45.35814825554111" lon="10.669994329761728"><ele>124.0</ele><time>2026-04-02T11:24:59.999Z</time></trkpt><trkpt lat="45.35806810661243" lon="10.670048411015557"><ele>124.0</ele><time>2026-04-02T11:25:00.999Z</time></trkpt><trkpt lat="45.35796448458594" lon="10.670096017048763"><ele>124.0</ele><time>2026-04-02T11:25:01.999Z</time></trkpt><trkpt lat="45.35784766853537" lon="10.670123160906005"><ele>124.0</ele><time>2026-04-02T11:25:02.999Z</time></trkpt><trkpt lat="45.35774262899866" lon="10.670141194974025"><ele>123.16666666666667</ele><time>2026-04-02T11:25:03.999Z</time></trkpt><trkpt lat="45.357649073278736" lon="10.67016160821208"><ele>122.33333333333334</ele><time>2026-04-02T11:25:04.999Z</time></trkpt><trkpt lat="45.35756262480965" lon="10.670164271887334"><ele>121.5</ele><time>2026-04-02T11:25:05.999Z</time></trkpt><trkpt lat="45.35748164873208" lon="10.670157124145922"><ele>120.66666666666666</ele><time>2026-04-02T11:25:06.999Z</time></trkpt><trkpt lat="45.35740828478682" lon="10.67011231237989"><ele>119.83333333333333</ele><time>2026-04-02T11:25:07.999Z</time></trkpt><trkpt lat="45.35734367592456" lon="10.670035886672533"><ele>119.0</ele><time>2026-04-02T11:25:08.999Z</time></trkpt><trkpt lat="45.35730360782679" lon="10.669918966531851"><ele>119.0</ele><time>2026-04-02T11:25:09.999Z</time></trkpt><trkpt lat="45.35725893975873" lon="10.669780536929371"><ele>119.0</ele><time>2026-04-02T11:25:10.999Z</time></trkpt><trkpt lat="45.357223226221066" lon="10.669678070046219"><ele>119.0</ele><time>2026-04-02T11:25:11.999Z</time></trkpt><trkpt lat="45.3571544840544" lon="10.66952753924059"><ele>119.0</ele><time>2026-04-02T11:25:12.999Z</time></trkpt><trkpt lat="45.35709302576253" lon="10.669387268110835"><ele>119.0</ele><time>2026-04-02T11:25:13.999Z</time></trkpt><trkpt lat="45.35703615296053" lon="10.669265352489022"><ele>118.0</ele><time>2026-04-02T11:25:14.999Z</time></trkpt><trkpt lat="45.35697327389326" lon="10.669175221873724"><ele>117.0</ele><time>2026-04-02T11:25:15.999Z</time></trkpt><trkpt lat="45.35690017130945" lon="10.669102202500435"><ele>116.0</ele><time>2026-04-02T11:25:16.999Z</time></trkpt><trkpt lat="45.35680899691432" lon="10.669014673208435"><ele>115.0</ele><time>2026-04-02T11:25:17.999Z</time></trkpt><trkpt lat="45.356713077160926" lon="10.668920015609753"><ele>114.0</ele><time>2026-04-02T11:25:18.999Z</time></trkpt><trkpt lat="45.35661089120755" lon="10.668823896597639"><ele>114.0</ele><time>2026-04-02T11:25:19.999Z</time></trkpt><trkpt lat="45.3565023078805" lon="10.668719217847283"><ele>114.0</ele><time>2026-04-02T11:25:20.999Z</time></trkpt><trkpt lat="45.35639518160305" lon="10.668610593790866"><ele>114.0</ele><time>2026-04-02T11:25:21.999Z</time></trkpt><trkpt lat="45.356303439891015" lon="10.668535317403004"><ele>114.0</ele><time>2026-04-02T11:25:22.999Z</time></trkpt><trkpt lat="45.35620846232895" lon="10.668492254424894"><ele>113.75</ele><time>2026-04-02T11:25:23.999Z</time></trkpt><trkpt lat="45.35609277889913" lon="10.668481424741334"><ele>113.5</ele><time>2026-04-02T11:25:24.999Z</time></trkpt><trkpt lat="45.35595512295877" lon="10.66847647598507"><ele>113.25</ele><time>2026-04-02T11:25:25.999Z</time></trkpt><trkpt lat="45.355819653334315" lon="10.668465088027347"><ele>113.0</ele><time>2026-04-02T11:25:26.999Z</time></trkpt><trkpt lat="45.35568207685842" lon="10.668432364275834"><ele>113.0</ele><time>2026-04-02T11:25:27.999Z</time></trkpt><trkpt lat="45.35555370723777" lon="10.66838897442726"><ele>113.00000000000001</ele><time>2026-04-02T11:25:28.999Z</time></trkpt><trkpt lat="45.35544239338806" lon="10.668341164856747"><ele>113.00000000000001</ele><time>2026-04-02T11:25:29.999Z</time></trkpt><trkpt lat="45.35534727774151" lon="10.668290231382194"><ele>113.0</ele><time>2026-04-02T11:25:30.999Z</time></trkpt><trkpt lat="45.35527021633084" lon="10.668238723140071"><ele>113.0</ele><time>2026-04-02T11:25:31.999Z</time></trkpt><trkpt lat="45.35520732861104" lon="10.668193106112858"><ele>112.2</ele><time>2026-04-02T11:25:32.999Z</time></trkpt><trkpt lat="45.35511073570602" lon="10.66815219314127"><ele>111.4</ele><time>2026-04-02T11:25:34.999Z</time></trkpt><trkpt lat="45.35506110001242" lon="10.66808890971511"><ele>110.60000000000001</ele><time>2026-04-02T11:25:39.999Z</time></trkpt><trkpt lat="45.35509433376638" lon="10.667920502709519"><ele>109.80000000000001</ele><time>2026-04-02T11:25:41.999Z</time></trkpt><trkpt lat="45.3551334927686" lon="10.667788838926295"><ele>109.0</ele><time>2026-04-02T11:25:42.999Z</time></trkpt><trkpt lat="45.35517244876721" lon="10.667644678011683"><ele>109.0</ele><time>2026-04-02T11:25:43.999Z</time></trkpt><trkpt lat="45.35521250866388" lon="10.66749761855811"><ele>109.0</ele><time>2026-04-02T11:25:44.999Z</time></trkpt><trkpt lat="45.3552507499613" lon="10.667358318403824"><ele>109.0</ele><time>2026-04-02T11:25:45.999Z</time></trkpt><trkpt lat="45.35529022345176" lon="10.667216973519043"><ele>109.0</ele><time>2026-04-02T11:25:46.999Z</time></trkpt><trkpt lat="45.35533106107512" lon="10.667068254925917"><ele>109.0</ele><time>2026-04-02T11:25:47.999Z</time></trkpt><trkpt lat="45.35536944775525" lon="10.666910911654162"><ele>108.5</ele><time>2026-04-02T11:25:48.999Z</time></trkpt><trkpt lat="45.35540966794124" lon="10.666753194612227"><ele>108.0</ele><time>2026-04-02T11:25:49.999Z</time></trkpt><trkpt lat="45.35545287556847" lon="10.666593735405964"><ele>107.5</ele><time>2026-04-02T11:25:51Z</time></trkpt><trkpt lat="45.35549591918353" lon="10.666440062061747"><ele>107.0</ele><time>2026-04-02T11:25:52Z</time></trkpt><trkpt lat="45.35553252790809" lon="10.666290017752797"><ele>107.83333333333333</ele><time>2026-04-02T11:25:53Z</time></trkpt><trkpt lat="45.35556162492296" lon="10.666148633019354"><ele>108.66666666666666</ele><time>2026-04-02T11:25:54Z</time></trkpt><trkpt lat="45.3555852393276" lon="10.666025076695801"><ele>109.5</ele><time>2026-04-02T11:25:55Z</time></trkpt><trkpt lat="45.355605677668386" lon="10.665922914743126"><ele>110.33333333333334</ele><time>2026-04-02T11:25:56Z</time></trkpt><trkpt lat="45.355639812598206" lon="10.665821726083745"><ele>111.16666666666667</ele><time>2026-04-02T11:25:58Z</time></trkpt><trkpt lat="45.35571827196522" lon="10.665796667269996"><ele>112.0</ele><time>2026-04-02T11:26:00Z</time></trkpt><trkpt lat="45.355845034797525" lon="10.665815377930278"><ele>112.00000000000001</ele><time>2026-04-02T11:26:02Z</time></trkpt><trkpt lat="45.35593597227275" lon="10.665842921944801"><ele>112.0</ele><time>2026-04-02T11:26:03Z</time></trkpt><trkpt lat="45.35602976953269" lon="10.665870770590686"><ele>112.0</ele><time>2026-04-02T11:26:04Z</time></trkpt><trkpt lat="45.35611721339384" lon="10.665895200866862"><ele>112.0</ele><time>2026-04-02T11:26:05Z</time></trkpt><trkpt lat="45.35618920610398" lon="10.665918536594715"><ele>112.00000000000001</ele><time>2026-04-02T11:26:06Z</time></trkpt><trkpt lat="45.356266902627674" lon="10.665919898768417"><ele>112.0</ele><time>2026-04-02T11:26:08Z</time></trkpt><trkpt lat="45.35630851253417" lon="10.665808054704337"><ele>112.00000000000001</ele><time>2026-04-02T11:26:10Z</time></trkpt><trkpt lat="45.35632014209179" lon="10.66571680880265"><ele>112.0</ele><time>2026-04-02T11:26:11Z</time></trkpt><trkpt lat="45.35633676169098" lon="10.665621772538744"><ele>112.0</ele><time>2026-04-02T11:26:12Z</time></trkpt><trkpt lat="45.35636305478592" lon="10.665519371454256"><ele>112.0</ele><time>2026-04-02T11:26:13Z</time></trkpt><trkpt lat="45.35639619131012" lon="10.665404360297115"><ele>112.00000000000001</ele><time>2026-04-02T11:26:14Z</time></trkpt><trkpt lat="45.356440210642226" lon="10.665261933178657"><ele>112.0</ele><time>2026-04-02T11:26:15Z</time></trkpt><trkpt lat="45.35648741031444" lon="10.665095047204009"><ele>113.19999999999999</ele><time>2026-04-02T11:26:16Z</time></trkpt><trkpt lat="45.35653355165431" lon="10.664921311675998"><ele>114.39999999999999</ele><time>2026-04-02T11:26:17Z</time></trkpt><trkpt lat="45.35658126577239" lon="10.664767189905495"><ele>115.60000000000001</ele><time>2026-04-02T11:26:18Z</time></trkpt><trkpt lat="45.35662116473394" lon="10.664646798564123"><ele>116.80000000000001</ele><time>2026-04-02T11:26:19Z</time></trkpt><trkpt lat="45.35665605470182" lon="10.664548874419268"><ele>118.0</ele><time>2026-04-02T11:26:20Z</time></trkpt><trkpt lat="45.35668631309104" lon="10.664452251213172"><ele>118.00000000000001</ele><time>2026-04-02T11:26:21Z</time></trkpt><trkpt lat="45.35672786417353" lon="10.664325244573018"><ele>118.0</ele><time>2026-04-02T11:26:23Z</time></trkpt><trkpt lat="45.356782844391674" lon="10.664255579681292"><ele>118.0</ele><time>2026-04-02T11:26:26Z</time></trkpt><trkpt lat="45.35679196952988" lon="10.664415770610857"><ele>118.0</ele><time>2026-04-02T11:26:29Z</time></trkpt><trkpt lat="45.35677858441536" lon="10.66450631176458"><ele>118.00000000000001</ele><time>2026-04-02T11:26:30Z</time></trkpt><trkpt lat="45.3568232978959" lon="10.664623767336494"><ele>118.0</ele><time>2026-04-02T11:26:32Z</time></trkpt><trkpt lat="45.356927390965936" lon="10.664661251984466"><ele>118.0</ele><time>2026-04-02T11:26:34Z</time></trkpt><trkpt lat="45.356995388992445" lon="10.664665186060212"><ele>118.0</ele><time>2026-04-02T11:26:35Z</time></trkpt><trkpt lat="45.35706430868481" lon="10.66468615352617"><ele>118.0</ele><time>2026-04-02T11:26:36Z</time></trkpt><trkpt lat="45.35712587192668" lon="10.6647327512999"><ele>118.0</ele><time>2026-04-02T11:26:37Z</time></trkpt><trkpt lat="45.357175610244994" lon="10.664809679335017"><ele>118.0</ele><time>2026-04-02T11:26:38Z</time></trkpt><trkpt lat="45.35722637644203" lon="10.664897157575696"><ele>118.0</ele><time>2026-04-02T11:26:39Z</time></trkpt><trkpt lat="45.35727140683224" lon="10.664983927983123"><ele>118.0</ele><time>2026-04-02T11:26:39.999Z</time></trkpt><trkpt lat="45.35731814424572" lon="10.665063023180908"><ele>119.0</ele><time>2026-04-02T11:26:40.999Z</time></trkpt><trkpt lat="45.35740346054996" lon="10.665174144849873"><ele>120.00000000000001</ele><time>2026-04-02T11:26:42.999Z</time></trkpt><trkpt lat="45.35754566396286" lon="10.665187493696944"><ele>121.00000000000001</ele><time>2026-04-02T11:26:44.999Z</time></trkpt><trkpt lat="45.35763710690841" lon="10.665170138383544"><ele>122.0</ele><time>2026-04-02T11:26:45.999Z</time></trkpt><trkpt lat="45.35772750483651" lon="10.665155133493398"><ele>123.0</ele><time>2026-04-02T11:26:46.999Z</time></trkpt><trkpt lat="45.35781429255373" lon="10.665139564134774"><ele>123.0</ele><time>2026-04-02T11:26:47.999Z</time></trkpt><trkpt lat="45.357903797575815" lon="10.665133433750485"><ele>123.00000000000001</ele><time>2026-04-02T11:26:48.999Z</time></trkpt><trkpt lat="45.3580034094141" lon="10.665122680721874"><ele>123.00000000000001</ele><time>2026-04-02T11:26:49.999Z</time></trkpt><trkpt lat="45.35811874636006" lon="10.665118135132184"><ele>123.0</ele><time>2026-04-02T11:26:50.999Z</time></trkpt><trkpt lat="45.35823934107057" lon="10.665141571022211"><ele>123.0</ele><time>2026-04-02T11:26:51.999Z</time></trkpt><trkpt lat="45.3583619054171" lon="10.665187850794757"><ele>123.2</ele><time>2026-04-02T11:26:52.999Z</time></trkpt><trkpt lat="45.358462561913086" lon="10.665266378328647"><ele>123.4</ele><time>2026-04-02T11:26:53.999Z</time></trkpt><trkpt lat="45.3585365692244" lon="10.665345435617338"><ele>123.60000000000001</ele><time>2026-04-02T11:26:54.999Z</time></trkpt><trkpt lat="45.35859536160606" lon="10.665420573267545"><ele>123.80000000000001</ele><time>2026-04-02T11:26:55.999Z</time></trkpt><trkpt lat="45.35866829837787" lon="10.665477234181123"><ele>124.0</ele><time>2026-04-02T11:26:57.999Z</time></trkpt><trkpt lat="45.35878321239205" lon="10.665481050640011"><ele>124.6</ele><time>2026-04-02T11:26:59.999Z</time></trkpt><trkpt lat="45.358852389620765" lon="10.665453324309267"><ele>125.2</ele><time>2026-04-02T11:27:00.999Z</time></trkpt><trkpt lat="45.35893119213239" lon="10.665401907529755"><ele>125.79999999999998</ele><time>2026-04-02T11:27:01.999Z</time></trkpt><trkpt lat="45.35901290651096" lon="10.665357283334506"><ele>126.39999999999999</ele><time>2026-04-02T11:27:02.999Z</time></trkpt><trkpt lat="45.35911300883017" lon="10.665303432835765"><ele>127.0</ele><time>2026-04-02T11:27:03.999Z</time></trkpt><trkpt lat="45.35923244894314" lon="10.665242211885829"><ele>127.0</ele><time>2026-04-02T11:27:04.999Z</time></trkpt><trkpt lat="45.35934064473164" lon="10.66519939171258"><ele>126.99999999999999</ele><time>2026-04-02T11:27:05.999Z</time></trkpt><trkpt lat="45.359447933096234" lon="10.665167709711532"><ele>126.99999999999999</ele><time>2026-04-02T11:27:06.999Z</time></trkpt><trkpt lat="45.35953649946737" lon="10.665150144584295"><ele>127.0</ele><time>2026-04-02T11:27:07.999Z</time></trkpt><trkpt lat="45.359599229075734" lon="10.665140638265138"><ele>127.0</ele><time>2026-04-02T11:27:08.999Z</time></trkpt><trkpt lat="45.359674587194924" lon="10.665125809814572"><ele>127.0</ele><time>2026-04-02T11:27:10.999Z</time></trkpt><trkpt lat="45.35960721705584" lon="10.665058739155496"><ele>126.99999999999999</ele><time>2026-04-02T11:27:15.999Z</time></trkpt><trkpt lat="45.359516505170625" lon="10.665028995962668"><ele>126.99999999999999</ele><time>2026-04-02T11:27:17.999Z</time></trkpt><trkpt lat="45.35943720597442" lon="10.664982727399652"><ele>127.0</ele><time>2026-04-02T11:27:19.999Z</time></trkpt><trkpt lat="45.35936172684563" lon="10.664907233220895"><ele>127.0</ele><time>2026-04-02T11:27:21.999Z</time></trkpt><trkpt lat="45.35934125522168" lon="10.664769036389451"><ele>127.0</ele><time>2026-04-02T11:27:23.999Z</time></trkpt><trkpt lat="45.35928211219277" lon="10.664651566810312"><ele>126.99999999999999</ele><time>2026-04-02T11:27:25.999Z</time></trkpt><trkpt lat="45.359226503393614" lon="10.664597513293678"><ele>126.99999999999999</ele><time>2026-04-02T11:27:26.999Z</time></trkpt><trkpt lat="45.35916930336027" lon="10.664543129544462"><ele>127.0</ele><time>2026-04-02T11:27:27.999Z</time></trkpt><trkpt lat="45.3590650558261" lon="10.664436485395315"><ele>127.0</ele><time>2026-04-02T11:27:29.999Z</time></trkpt><trkpt lat="45.359002982319694" lon="10.664354958627786"><ele>126.8</ele><time>2026-04-02T11:27:30.999Z</time></trkpt><trkpt lat="45.35892398706749" lon="10.664250043007453"><ele>126.6</ele><time>2026-04-02T11:27:31.999Z</time></trkpt><trkpt lat="45.35885145670063" lon="10.664177244065685"><ele>126.39999999999999</ele><time>2026-04-02T11:27:32.999Z</time></trkpt><trkpt lat="45.35876741296148" lon="10.664108951851768"><ele>126.19999999999999</ele><time>2026-04-02T11:27:33.999Z</time></trkpt><trkpt lat="45.358706269960436" lon="10.66400912116747"><ele>126.0</ele><time>2026-04-02T11:27:35.999Z</time></trkpt><trkpt lat="45.35874711702998" lon="10.663902453570923"><ele>126.0</ele><time>2026-04-02T11:27:37.999Z</time></trkpt><trkpt lat="45.35885931737741" lon="10.663809843858653"><ele>126.0</ele><time>2026-04-02T11:27:39.999Z</time></trkpt><trkpt lat="45.358872825789604" lon="10.663673512857924"><ele>126.0</ele><time>2026-04-02T11:27:41.999Z</time></trkpt><trkpt lat="45.35878555032742" lon="10.663520177313451"><ele>126.0</ele><time>2026-04-02T11:27:43.999Z</time></trkpt><trkpt lat="45.358720275318916" lon="10.66342597315697"><ele>124.4</ele><time>2026-04-02T11:27:44.999Z</time></trkpt><trkpt lat="45.358656152815165" lon="10.663313575845885"><ele>122.8</ele><time>2026-04-02T11:27:45.999Z</time></trkpt><trkpt lat="45.35859781322092" lon="10.66320404694739"><ele>121.20000000000002</ele><time>2026-04-02T11:27:46.999Z</time></trkpt><trkpt lat="45.3585390988986" lon="10.663085487587102"><ele>119.60000000000001</ele><time>2026-04-02T11:27:47.999Z</time></trkpt><trkpt lat="45.35848722402973" lon="10.66296784332544"><ele>118.0</ele><time>2026-04-02T11:27:48.999Z</time></trkpt><trkpt lat="45.358424914150646" lon="10.662846319742547"><ele>117.60000000000001</ele><time>2026-04-02T11:27:49.999Z</time></trkpt><trkpt lat="45.358362365472196" lon="10.662713917615887"><ele>117.20000000000002</ele><time>2026-04-02T11:27:50.999Z</time></trkpt><trkpt lat="45.358298795182044" lon="10.66258420615679"><ele>116.8</ele><time>2026-04-02T11:27:51.999Z</time></trkpt><trkpt lat="45.35824610635148" lon="10.662461189180554"><ele>116.4</ele><time>2026-04-02T11:27:52.999Z</time></trkpt><trkpt lat="45.3582153080978" lon="10.662360041561191"><ele>116.0</ele><time>2026-04-02T11:27:53.999Z</time></trkpt><trkpt lat="45.35818315957965" lon="10.662244608361883"><ele>116.0</ele><time>2026-04-02T11:27:55.999Z</time></trkpt><trkpt lat="45.35809684553727" lon="10.662220965111349"><ele>116.0</ele><time>2026-04-02T11:28:00Z</time></trkpt><trkpt lat="45.35803057951538" lon="10.662228982191442"><ele>116.0</ele><time>2026-04-02T11:28:01Z</time></trkpt><trkpt lat="45.357929915695806" lon="10.6622498812773"><ele>116.0</ele><time>2026-04-02T11:28:02Z</time></trkpt><trkpt lat="45.35780383321129" lon="10.66227131521496"><ele>116.0</ele><time>2026-04-02T11:28:03Z</time></trkpt><trkpt lat="45.35767275242143" lon="10.66229147529827"><ele>115.25</ele><time>2026-04-02T11:28:04Z</time></trkpt><trkpt lat="45.35753452074876" lon="10.662297598603825"><ele>114.5</ele><time>2026-04-02T11:28:05Z</time></trkpt><trkpt lat="45.35739741117217" lon="10.662292897607774"><ele>113.75</ele><time>2026-04-02T11:28:06Z</time></trkpt><trkpt lat="45.357263101389485" lon="10.662272309612938"><ele>113.0</ele><time>2026-04-02T11:28:07Z</time></trkpt><trkpt lat="45.357138010663576" lon="10.662239531554198"><ele>112.4</ele><time>2026-04-02T11:28:08Z</time></trkpt><trkpt lat="45.357023207054986" lon="10.662220448190732"><ele>111.80000000000001</ele><time>2026-04-02T11:28:09Z</time></trkpt><trkpt lat="45.35690394060664" lon="10.662222012612535"><ele>111.2</ele><time>2026-04-02T11:28:10Z</time></trkpt><trkpt lat="45.356794117778506" lon="10.662229788792345"><ele>110.6</ele><time>2026-04-02T11:28:11Z</time></trkpt><trkpt lat="45.35669527464009" lon="10.662227351878283"><ele>110.0</ele><time>2026-04-02T11:28:12Z</time></trkpt><trkpt lat="45.356606033955146" lon="10.662214325155174"><ele>109.99999999999999</ele><time>2026-04-02T11:28:13Z</time></trkpt><trkpt lat="45.356514449485424" lon="10.662191980476681"><ele>110.0</ele><time>2026-04-02T11:28:14Z</time></trkpt><trkpt lat="45.356426201070754" lon="10.662167126716575"><ele>110.0</ele><time>2026-04-02T11:28:15Z</time></trkpt><trkpt lat="45.35635153480531" lon="10.662146300143"><ele>110.0</ele><time>2026-04-02T11:28:16Z</time></trkpt><trkpt lat="45.35628602440899" lon="10.662128849065068"><ele>109.99999999999999</ele><time>2026-04-02T11:28:17Z</time></trkpt><trkpt lat="45.356211424543034" lon="10.662106168865058"><ele>110.0</ele><time>2026-04-02T11:28:19Z</time></trkpt><trkpt lat="45.35614863056328" lon="10.662076022607527"><ele>109.8</ele><time>2026-04-02T11:28:26Z</time></trkpt><trkpt lat="45.35610266325094" lon="10.66193329759568"><ele>109.6</ele><time>2026-04-02T11:28:28Z</time></trkpt><trkpt lat="45.35600981319704" lon="10.661841855135071"><ele>109.4</ele><time>2026-04-02T11:28:30Z</time></trkpt><trkpt lat="45.35593617391609" lon="10.661818721264135"><ele>109.2</ele><time>2026-04-02T11:28:31Z</time></trkpt><trkpt lat="45.355853714392246" lon="10.661797540223201"><ele>109.0</ele><time>2026-04-02T11:28:32Z</time></trkpt><trkpt lat="45.355761723574815" lon="10.66177802830061"><ele>109.0</ele><time>2026-04-02T11:28:33Z</time></trkpt><trkpt lat="45.35565490743741" lon="10.661756531837623"><ele>109.0</ele><time>2026-04-02T11:28:34Z</time></trkpt><trkpt lat="45.355532278543954" lon="10.661734346864192"><ele>109.0</ele><time>2026-04-02T11:28:35Z</time></trkpt><trkpt lat="45.3553974855659" lon="10.661712771387219"><ele>109.0</ele><time>2026-04-02T11:28:36Z</time></trkpt><trkpt lat="45.35526094312056" lon="10.661694961515382"><ele>107.75</ele><time>2026-04-02T11:28:37Z</time></trkpt><trkpt lat="45.355136740497606" lon="10.661653972612578"><ele>106.5</ele><time>2026-04-02T11:28:38Z</time></trkpt><trkpt lat="45.35501319714681" lon="10.66162638662656"><ele>105.25</ele><time>2026-04-02T11:28:39Z</time></trkpt><trkpt lat="45.354884356893834" lon="10.661576260794051"><ele>104.0</ele><time>2026-04-02T11:28:40Z</time></trkpt><trkpt lat="45.354747425122" lon="10.661530322750158"><ele>103.75</ele><time>2026-04-02T11:28:41Z</time></trkpt><trkpt lat="45.35460932029385" lon="10.661502726036025"><ele>103.5</ele><time>2026-04-02T11:28:42Z</time></trkpt><trkpt lat="45.35447183042318" lon="10.661478147526838"><ele>103.25</ele><time>2026-04-02T11:28:43Z</time></trkpt><trkpt lat="45.35433968375528" lon="10.661447670119307"><ele>103.0</ele><time>2026-04-02T11:28:44Z</time></trkpt><trkpt lat="45.35422208558792" lon="10.66142078803864"><ele>103.00000000000001</ele><time>2026-04-02T11:28:45Z</time></trkpt><trkpt lat="45.354117884387016" lon="10.661397907991653"><ele>103.0</ele><time>2026-04-02T11:28:46Z</time></trkpt><trkpt lat="45.35402402364922" lon="10.661371555257912"><ele>103.0</ele><time>2026-04-02T11:28:47Z</time></trkpt><trkpt lat="45.35394065360281" lon="10.661350244814376"><ele>103.0</ele><time>2026-04-02T11:28:48Z</time></trkpt><trkpt lat="45.35386509623359" lon="10.661335656318812"><ele>103.00000000000001</ele><time>2026-04-02T11:28:49Z</time></trkpt><trkpt lat="45.353797756231096" lon="10.661329690068081"><ele>103.0</ele><time>2026-04-02T11:28:50Z</time></trkpt><trkpt lat="45.353703219829946" lon="10.66134905761562"><ele>103.00000000000001</ele><time>2026-04-02T11:28:52Z</time></trkpt><trkpt lat="45.353648141421" lon="10.661427866711879"><ele>103.0</ele><time>2026-04-02T11:28:54Z</time></trkpt><trkpt lat="45.353637581732926" lon="10.66152618966389"><ele>103.0</ele><time>2026-04-02T11:28:56Z</time></trkpt><trkpt lat="45.35361815285838" lon="10.661612703194661"><ele>103.0</ele><time>2026-04-02T11:29:06Z</time></trkpt><trkpt lat="45.35361331685723" lon="10.661772093545439"><ele>103.00000000000001</ele><time>2026-04-02T11:29:09Z</time></trkpt><trkpt lat="45.35351064413924" lon="10.661865638299915"><ele>103.0</ele><time>2026-04-02T11:29:11Z</time></trkpt><trkpt lat="45.35342618499889" lon="10.661868634753748"><ele>103.0</ele><time>2026-04-02T11:29:12Z</time></trkpt><trkpt lat="45.35332123942321" lon="10.66187469550406"><ele>103.0</ele><time>2026-04-02T11:29:13Z</time></trkpt><trkpt lat="45.35321102263157" lon="10.661885550329902"><ele>103.0</ele><time>2026-04-02T11:29:14Z</time></trkpt><trkpt lat="45.35309793206545" lon="10.661896438958085"><ele>103.0</ele><time>2026-04-02T11:29:15Z</time></trkpt><trkpt lat="45.35299384388119" lon="10.661908146667272"><ele>103.0</ele><time>2026-04-02T11:29:15.999Z</time></trkpt><trkpt lat="45.352903890235105" lon="10.661922802242124"><ele>103.16666666666667</ele><time>2026-04-02T11:29:16.999Z</time></trkpt><trkpt lat="45.35282487751682" lon="10.661946101434188"><ele>103.33333333333334</ele><time>2026-04-02T11:29:17.999Z</time></trkpt><trkpt lat="45.35275188208236" lon="10.661974203093333"><ele>103.5</ele><time>2026-04-02T11:29:18.999Z</time></trkpt><trkpt lat="45.3526761530596" lon="10.66199071159164"><ele>103.66666666666666</ele><time>2026-04-02T11:29:19.999Z</time></trkpt><trkpt lat="45.35260420295491" lon="10.661980616715654"><ele>103.83333333333333</ele><time>2026-04-02T11:29:20.999Z</time></trkpt><trkpt lat="45.35252843444262" lon="10.661935607252232"><ele>104.0</ele><time>2026-04-02T11:29:21.999Z</time></trkpt><trkpt lat="45.352449128525826" lon="10.661857765537297"><ele>104.0</ele><time>2026-04-02T11:29:22.999Z</time></trkpt><trkpt lat="45.35234863341046" lon="10.661756940768228"><ele>104.0</ele><time>2026-04-02T11:29:23.999Z</time></trkpt><trkpt lat="45.352224492220564" lon="10.66164622683387"><ele>104.0</ele><time>2026-04-02T11:29:24.999Z</time></trkpt><trkpt lat="45.352083625532124" lon="10.661525575684564"><ele>104.0</ele><time>2026-04-02T11:29:25.999Z</time></trkpt><trkpt lat="45.35196633160429" lon="10.661428338857302"><ele>103.80000000000001</ele><time>2026-04-02T11:29:26.999Z</time></trkpt><trkpt lat="45.35186586327098" lon="10.661359747750094"><ele>103.60000000000001</ele><time>2026-04-02T11:29:27.999Z</time></trkpt><trkpt lat="45.35176955330103" lon="10.661285063288021"><ele>103.4</ele><time>2026-04-02T11:29:28.999Z</time></trkpt><trkpt lat="45.35168083922988" lon="10.661195182342672"><ele>103.2</ele><time>2026-04-02T11:29:29.999Z</time></trkpt><trkpt lat="45.351594461956445" lon="10.66109027725659"><ele>103.0</ele><time>2026-04-02T11:29:30.999Z</time></trkpt><trkpt lat="45.35151458045364" lon="10.660975153252677"><ele>103.0</ele><time>2026-04-02T11:29:31.999Z</time></trkpt><trkpt lat="45.35143417497744" lon="10.66085911233208"><ele>103.0</ele><time>2026-04-02T11:29:32.999Z</time></trkpt><trkpt lat="45.35136007321733" lon="10.66074358138694"><ele>103.0</ele><time>2026-04-02T11:29:33.999Z</time></trkpt><trkpt lat="45.35128663042649" lon="10.660630525315169"><ele>103.0</ele><time>2026-04-02T11:29:34.999Z</time></trkpt><trkpt lat="45.351219453389774" lon="10.660500202889052"><ele>103.0</ele><time>2026-04-02T11:29:35.999Z</time></trkpt><trkpt lat="45.35115016958543" lon="10.660354827586563"><ele>102.5</ele><time>2026-04-02T11:29:36.999Z</time></trkpt><trkpt lat="45.35107817962078" lon="10.660202531295713"><ele>102.0</ele><time>2026-04-02T11:29:37.999Z</time></trkpt><trkpt lat="45.351007936925626" lon="10.660049421653857"><ele>101.5</ele><time>2026-04-02T11:29:38.999Z</time></trkpt><trkpt lat="45.35094597304128" lon="10.659898060626796"><ele>101.0</ele><time>2026-04-02T11:29:39.999Z</time></trkpt><trkpt lat="45.35089204431686" lon="10.659751461366575"><ele>101.0</ele><time>2026-04-02T11:29:40.999Z</time></trkpt><trkpt lat="45.35085856996622" lon="10.659622263312823"><ele>101.0</ele><time>2026-04-02T11:29:41.999Z</time></trkpt><trkpt lat="45.350838703021346" lon="10.65953519550694"><ele>101.0</ele><time>2026-04-02T11:29:42.999Z</time></trkpt><trkpt lat="45.35080818744473" lon="10.65938836882673"><ele>101.0</ele><time>2026-04-02T11:29:44.999Z</time></trkpt><trkpt lat="45.3507926376727" lon="10.659262300323864"><ele>101.0</ele><time>2026-04-02T11:29:45.999Z</time></trkpt><trkpt lat="45.350763616683885" lon="10.659091812237051"><ele>101.0</ele><time>2026-04-02T11:29:46.999Z</time></trkpt><trkpt lat="45.35073920749139" lon="10.658935981937294"><ele>101.0</ele><time>2026-04-02T11:29:47.999Z</time></trkpt><trkpt lat="45.35071174253644" lon="10.658818477626065"><ele>101.0</ele><time>2026-04-02T11:29:48.999Z</time></trkpt><trkpt lat="45.35069372425888" lon="10.658725914654324"><ele>101.0</ele><time>2026-04-02T11:29:49.999Z</time></trkpt><trkpt lat="45.35065816049107" lon="10.658569031759436"><ele>101.0</ele><time>2026-04-02T11:29:51.999Z</time></trkpt><trkpt lat="45.35061427858439" lon="10.658473555063283"><ele>101.16666666666666</ele><time>2026-04-02T11:29:53.999Z</time></trkpt><trkpt lat="45.35056325793629" lon="10.658420634266195"><ele>101.33333333333333</ele><time>2026-04-02T11:29:56.999Z</time></trkpt><trkpt lat="45.350541702267755" lon="10.658267781269176"><ele>101.5</ele><time>2026-04-02T11:30:03Z</time></trkpt><trkpt lat="45.35059169101456" lon="10.658180937858107"><ele>101.66666666666666</ele><time>2026-04-02T11:30:04Z</time></trkpt><trkpt lat="45.35064951806232" lon="10.658089847833246"><ele>101.83333333333333</ele><time>2026-04-02T11:30:05Z</time></trkpt><trkpt lat="45.350699113004886" lon="10.65799372861313"><ele>102.0</ele><time>2026-04-02T11:30:06Z</time></trkpt><trkpt lat="45.35074891228096" lon="10.657895028766827"><ele>102.0</ele><time>2026-04-02T11:30:07Z</time></trkpt><trkpt lat="45.350803359272476" lon="10.657789782785459"><ele>102.0</ele><time>2026-04-02T11:30:08Z</time></trkpt><trkpt lat="45.35086134888331" lon="10.657675102883603"><ele>102.0</ele><time>2026-04-02T11:30:09Z</time></trkpt><trkpt lat="45.35091759405614" lon="10.657541280718155"><ele>102.0</ele><time>2026-04-02T11:30:10Z</time></trkpt><trkpt lat="45.350963768080994" lon="10.657420071478963"><ele>102.0</ele><time>2026-04-02T11:30:11Z</time></trkpt><trkpt lat="45.35100316445539" lon="10.657315142041373"><ele>101.8</ele><time>2026-04-02T11:30:12Z</time></trkpt><trkpt lat="45.35103713328814" lon="10.657209210979309"><ele>101.6</ele><time>2026-04-02T11:30:13Z</time></trkpt><trkpt lat="45.35107113708874" lon="10.657091733764354"><ele>101.39999999999999</ele><time>2026-04-02T11:30:14Z</time></trkpt><trkpt lat="45.351101814703576" lon="10.656959105258903"><ele>101.19999999999999</ele><time>2026-04-02T11:30:15Z</time></trkpt><trkpt lat="45.35112067672033" lon="10.656812192875863"><ele>101.0</ele><time>2026-04-02T11:30:16Z</time></trkpt><trkpt lat="45.351128710559585" lon="10.656661264618219"><ele>100.6</ele><time>2026-04-02T11:30:17Z</time></trkpt><trkpt lat="45.35113341338113" lon="10.656510572339249"><ele>100.19999999999999</ele><time>2026-04-02T11:30:18Z</time></trkpt><trkpt lat="45.35114099991274" lon="10.656354825076868"><ele>99.80000000000001</ele><time>2026-04-02T11:30:19Z</time></trkpt><trkpt lat="45.351145460694596" lon="10.656193865653991"><ele>99.4</ele><time>2026-04-02T11:30:20Z</time></trkpt><trkpt lat="45.3511463504275" lon="10.656031231684493"><ele>99.0</ele><time>2026-04-02T11:30:21Z</time></trkpt><trkpt lat="45.35115027874381" lon="10.655870292635162"><ele>99.0</ele><time>2026-04-02T11:30:22Z</time></trkpt><trkpt lat="45.3511660205578" lon="10.65571236018148"><ele>99.0</ele><time>2026-04-02T11:30:23Z</time></trkpt><trkpt lat="45.35119391923049" lon="10.655563595911278"><ele>99.0</ele><time>2026-04-02T11:30:24Z</time></trkpt><trkpt lat="45.351225977166656" lon="10.655430052493479"><ele>99.0</ele><time>2026-04-02T11:30:25Z</time></trkpt><trkpt lat="45.35125731327157" lon="10.65531669388603"><ele>99.0</ele><time>2026-04-02T11:30:26Z</time></trkpt><trkpt lat="45.351285285697095" lon="10.655215850480271"><ele>98.80000000000001</ele><time>2026-04-02T11:30:27Z</time></trkpt><trkpt lat="45.35130974398211" lon="10.655123322778575"><ele>98.60000000000001</ele><time>2026-04-02T11:30:28Z</time></trkpt><trkpt lat="45.35134994180365" lon="10.654985048081057"><ele>98.4</ele><time>2026-04-02T11:30:30Z</time></trkpt><trkpt lat="45.3513385393856" lon="10.654839309182979"><ele>98.2</ele><time>2026-04-02T11:30:32Z</time></trkpt><trkpt lat="45.35137469248706" lon="10.65469647089515"><ele>98.0</ele><time>2026-04-02T11:30:34Z</time></trkpt><trkpt lat="45.351404379735406" lon="10.654522590272542"><ele>97.83333333333333</ele><time>2026-04-02T11:30:36Z</time></trkpt><trkpt lat="45.35140874561108" lon="10.654426924210219"><ele>97.66666666666666</ele><time>2026-04-02T11:30:37Z</time></trkpt><trkpt lat="45.351401009121865" lon="10.654337503954393"><ele>97.5</ele><time>2026-04-02T11:30:38Z</time></trkpt><trkpt lat="45.35137282911135" lon="10.654256951362202"><ele>97.33333333333334</ele><time>2026-04-02T11:30:39Z</time></trkpt><trkpt lat="45.35132187678736" lon="10.654146176148407"><ele>97.16666666666667</ele><time>2026-04-02T11:30:41Z</time></trkpt><trkpt lat="45.3512641288785" lon="10.654069857891555"><ele>97.0</ele><time>2026-04-02T11:30:43Z</time></trkpt><trkpt lat="45.35118358324176" lon="10.654011220232011"><ele>97.0</ele><time>2026-04-02T11:30:45Z</time></trkpt><trkpt lat="45.35089998169927" lon="10.65420914771776"><ele>97.0</ele><time>2026-04-02T11:30:46Z</time></trkpt><trkpt lat="45.35083436455004" lon="10.654210505890765"><ele>97.0</ele><time>2026-04-02T11:30:47Z</time></trkpt><trkpt lat="45.350729977793264" lon="10.654208797447778"><ele>97.0</ele><time>2026-04-02T11:30:49Z</time></trkpt><trkpt lat="45.35063507525503" lon="10.654207478010447"><ele>97.0</ele><time>2026-04-02T11:30:51Z</time></trkpt><trkpt lat="45.350541590957036" lon="10.654205551910033"><ele>97.0</ele><time>2026-04-02T11:30:53Z</time></trkpt><trkpt lat="45.35046705853621" lon="10.654202726879879"><ele>97.0</ele><time>2026-04-02T11:30:56Z</time></trkpt><trkpt lat="45.35037512321959" lon="10.654235379999994"><ele>97.0</ele><time>2026-04-02T11:31:00Z</time></trkpt><trkpt lat="45.35026238644028" lon="10.654305843168974"><ele>97.00000000000001</ele><time>2026-04-02T11:31:02Z</time></trkpt><trkpt lat="45.3501912964651" lon="10.654350046111285"><ele>97.0</ele><time>2026-04-02T11:31:03Z</time></trkpt><trkpt lat="45.35011165067614" lon="10.654404679239795"><ele>97.0</ele><time>2026-04-02T11:31:04Z</time></trkpt><trkpt lat="45.350026695111225" lon="10.654451773765652"><ele>97.0</ele><time>2026-04-02T11:31:05Z</time></trkpt><trkpt lat="45.34993966856651" lon="10.65449653917195"><ele>97.00000000000001</ele><time>2026-04-02T11:31:06Z</time></trkpt><trkpt lat="45.34985330165686" lon="10.65453605973654"><ele>97.0</ele><time>2026-04-02T11:31:07Z</time></trkpt><trkpt lat="45.34975940075946" lon="10.65457773910297"><ele>96.5</ele><time>2026-04-02T11:31:08Z</time></trkpt><trkpt lat="45.3496445613737" lon="10.654608665208183"><ele>96.0</ele><time>2026-04-02T11:31:09Z</time></trkpt><trkpt lat="45.34949809030267" lon="10.654638589867256"><ele>95.5</ele><time>2026-04-02T11:31:10Z</time></trkpt><trkpt lat="45.349358873053035" lon="10.654664536572064"><ele>95.0</ele><time>2026-04-02T11:31:11Z</time></trkpt><trkpt lat="45.34924574546702" lon="10.654694885141797"><ele>95.0</ele><time>2026-04-02T11:31:12Z</time></trkpt><trkpt lat="45.34916306183505" lon="10.654732790247007"><ele>95.0</ele><time>2026-04-02T11:31:13Z</time></trkpt><trkpt lat="45.34910357092301" lon="10.6547622205971"><ele>95.0</ele><time>2026-04-02T11:31:14Z</time></trkpt><trkpt lat="45.34901298891848" lon="10.654779039243737"><ele>95.0</ele><time>2026-04-02T11:31:16Z</time></trkpt><trkpt lat="45.34897984713389" lon="10.654645691005497"><ele>95.0</ele><time>2026-04-02T11:31:18Z</time></trkpt><trkpt lat="45.34896766736057" lon="10.654518603437236"><ele>95.0</ele><time>2026-04-02T11:31:19Z</time></trkpt><trkpt lat="45.34893975683207" lon="10.654339295424803"><ele>95.25</ele><time>2026-04-02T11:31:20Z</time></trkpt><trkpt lat="45.34888722216425" lon="10.654175096348094"><ele>95.5</ele><time>2026-04-02T11:31:21Z</time></trkpt><trkpt lat="45.34881370712757" lon="10.654047125053493"><ele>95.75</ele><time>2026-04-02T11:31:22Z</time></trkpt><trkpt lat="45.34872888540661" lon="10.653936045097586"><ele>96.0</ele><time>2026-04-02T11:31:23Z</time></trkpt><trkpt lat="45.34865084920754" lon="10.65384256077078"><ele>96.0</ele><time>2026-04-02T11:31:24Z</time></trkpt><trkpt lat="45.348589083757076" lon="10.653766569383606"><ele>96.0</ele><time>2026-04-02T11:31:25Z</time></trkpt><trkpt lat="45.348531478434815" lon="10.653687463793517"><ele>96.0</ele><time>2026-04-02T11:31:26Z</time></trkpt><trkpt lat="45.34846991689829" lon="10.653594934894985"><ele>96.0</ele><time>2026-04-02T11:31:27Z</time></trkpt><trkpt lat="45.34839894037997" lon="10.65348828609863"><ele>96.0</ele><time>2026-04-02T11:31:28Z</time></trkpt><trkpt lat="45.34833335364553" lon="10.653355117056726"><ele>96.5</ele><time>2026-04-02T11:31:29Z</time></trkpt><trkpt lat="45.34827473754267" lon="10.653202111855503"><ele>97.0</ele><time>2026-04-02T11:31:30Z</time></trkpt><trkpt lat="45.34822654523759" lon="10.65308219737922"><ele>97.5</ele><time>2026-04-02T11:31:31Z</time></trkpt><trkpt lat="45.34817994766108" lon="10.653002709469824"><ele>98.0</ele><time>2026-04-02T11:31:32Z</time></trkpt><trkpt lat="45.34811856939276" lon="10.652938262610016"><ele>98.5</ele><time>2026-04-02T11:31:33Z</time></trkpt><trkpt lat="45.348045619797695" lon="10.65289745846846"><ele>99.0</ele><time>2026-04-02T11:31:34Z</time></trkpt><trkpt lat="45.34796784184727" lon="10.652870933788394"><ele>99.16666666666667</ele><time>2026-04-02T11:31:35Z</time></trkpt><trkpt lat="45.34788756375128" lon="10.652841825218117"><ele>99.33333333333334</ele><time>2026-04-02T11:31:36Z</time></trkpt><trkpt lat="45.347802603675355" lon="10.65280804696613"><ele>99.5</ele><time>2026-04-02T11:31:37Z</time></trkpt><trkpt lat="45.34771467521838" lon="10.652768562626848"><ele>99.66666666666667</ele><time>2026-04-02T11:31:38Z</time></trkpt><trkpt lat="45.34763098374889" lon="10.65272731544827"><ele>99.83333333333334</ele><time>2026-04-02T11:31:39Z</time></trkpt><trkpt lat="45.34754886347517" lon="10.65269869890443"><ele>100.0</ele><time>2026-04-02T11:31:40Z</time></trkpt><trkpt lat="45.3474650259397" lon="10.652683296869672"><ele>100.2</ele><time>2026-04-02T11:31:41Z</time></trkpt><trkpt lat="45.34737087978355" lon="10.65266197525655"><ele>100.4</ele><time>2026-04-02T11:31:42Z</time></trkpt><trkpt lat="45.34727823140534" lon="10.652643168704964"><ele>100.6</ele><time>2026-04-02T11:31:43Z</time></trkpt><trkpt lat="45.34720944571526" lon="10.652668886226442"><ele>100.8</ele><time>2026-04-02T11:31:44Z</time></trkpt><trkpt lat="45.347131750836226" lon="10.652814606514255"><ele>101.0</ele><time>2026-04-02T11:31:45.999Z</time></trkpt><trkpt lat="45.34708588830372" lon="10.652879842502958"><ele>101.0</ele><time>2026-04-02T11:31:46.999Z</time></trkpt><trkpt lat="45.3469519363819" lon="10.65285701925635"><ele>101.0</ele><time>2026-04-02T11:31:48.999Z</time></trkpt><trkpt lat="45.34685021845006" lon="10.652806977935207"><ele>101.0</ele><time>2026-04-02T11:31:49.999Z</time></trkpt><trkpt lat="45.34675505090452" lon="10.65274748031983"><ele>101.0</ele><time>2026-04-02T11:31:50.999Z</time></trkpt><trkpt lat="45.346657514356636" lon="10.65268614659409"><ele>101.25</ele><time>2026-04-02T11:31:51.999Z</time></trkpt><trkpt lat="45.34653742064709" lon="10.65261393550028"><ele>101.5</ele><time>2026-04-02T11:31:52.999Z</time></trkpt><trkpt lat="45.34639524558933" lon="10.652530580482727"><ele>101.75</ele><time>2026-04-02T11:31:53.999Z</time></trkpt><trkpt lat="45.34628205058043" lon="10.652467597109949"><ele>102.0</ele><time>2026-04-02T11:31:54.999Z</time></trkpt><trkpt lat="45.34620516864938" lon="10.652426128927566"><ele>102.0</ele><time>2026-04-02T11:31:55.999Z</time></trkpt><trkpt lat="45.34614895952092" lon="10.652379848877102"><ele>102.0</ele><time>2026-04-02T11:31:56.999Z</time></trkpt><trkpt lat="45.3460987914097" lon="10.652228158186738"><ele>102.0</ele><time>2026-04-02T11:31:58.999Z</time></trkpt><trkpt lat="45.34610002603468" lon="10.652100820485796"><ele>102.0</ele><time>2026-04-02T11:31:59.999Z</time></trkpt><trkpt lat="45.346081911785866" lon="10.652000183002595"><ele>102.0</ele><time>2026-04-02T11:32:00.999Z</time></trkpt><trkpt lat="45.34600975664858" lon="10.65190658553136"><ele>102.0</ele><time>2026-04-02T11:32:01.999Z</time></trkpt><trkpt lat="45.345915479195114" lon="10.651774757921228"><ele>102.5</ele><time>2026-04-02T11:32:02.999Z</time></trkpt><trkpt lat="45.345836325303004" lon="10.651610758019606"><ele>103.0</ele><time>2026-04-02T11:32:03.999Z</time></trkpt><trkpt lat="45.34576057495664" lon="10.65144689514503"><ele>103.5</ele><time>2026-04-02T11:32:04.999Z</time></trkpt><trkpt lat="45.34567671696939" lon="10.651294474164752"><ele>104.0</ele><time>2026-04-02T11:32:05.999Z</time></trkpt><trkpt lat="45.34559252302543" lon="10.651171343332962"><ele>103.80000000000001</ele><time>2026-04-02T11:32:06.999Z</time></trkpt><trkpt lat="45.345515760964" lon="10.651083589180747"><ele>103.60000000000001</ele><time>2026-04-02T11:32:07.999Z</time></trkpt><trkpt lat="45.345425171515934" lon="10.651008008884169"><ele>103.4</ele><time>2026-04-02T11:32:09Z</time></trkpt><trkpt lat="45.34532535036102" lon="10.650914910957749"><ele>103.2</ele><time>2026-04-02T11:32:10Z</time></trkpt><trkpt lat="45.34525359220715" lon="10.65080372420455"><ele>103.0</ele><time>2026-04-02T11:32:11Z</time></trkpt><trkpt lat="45.34522169110401" lon="10.650666603365949"><ele>103.0</ele><time>2026-04-02T11:32:12Z</time></trkpt><trkpt lat="45.345204150894915" lon="10.650504819173841"><ele>103.0</ele><time>2026-04-02T11:32:13Z</time></trkpt><trkpt lat="45.34518961780229" lon="10.650367986302843"><ele>103.0</ele><time>2026-04-02T11:32:14Z</time></trkpt><trkpt lat="45.345233791512655" lon="10.650260113920483"><ele>103.0</ele><time>2026-04-02T11:32:16Z</time></trkpt><trkpt lat="45.34531269831024" lon="10.650247565166683"><ele>103.0</ele><time>2026-04-02T11:32:17Z</time></trkpt><trkpt lat="45.34541649362997" lon="10.650223782989451"><ele>103.4</ele><time>2026-04-02T11:32:18Z</time></trkpt><trkpt lat="45.345527822434" lon="10.650175236241857"><ele>103.80000000000001</ele><time>2026-04-02T11:32:19Z</time></trkpt><trkpt lat="45.34560450731283" lon="10.650123060493787"><ele>104.2</ele><time>2026-04-02T11:32:20Z</time></trkpt><trkpt lat="45.34564995233532" lon="10.649993449719862"><ele>104.6</ele><time>2026-04-02T11:32:22Z</time></trkpt><trkpt lat="45.345640741525784" lon="10.649892645293976"><ele>105.0</ele><time>2026-04-02T11:32:23Z</time></trkpt><trkpt lat="45.34562571040147" lon="10.649767031194811"><ele>105.0</ele><time>2026-04-02T11:32:24Z</time></trkpt><trkpt lat="45.34562347075158" lon="10.649649898576891"><ele>105.0</ele><time>2026-04-02T11:32:25Z</time></trkpt><trkpt lat="45.345637568193126" lon="10.64956066756348"><ele>105.0</ele><time>2026-04-02T11:32:26Z</time></trkpt><trkpt lat="45.34566841743719" lon="10.649466948131113"><ele>105.0</ele><time>2026-04-02T11:32:28Z</time></trkpt><trkpt lat="45.34561629089735" lon="10.649403296504143"><ele>105.0</ele><time>2026-04-02T11:43:11Z</time></trkpt><trkpt lat="45.34551242874613" lon="10.649437054170624"><ele>105.0</ele><time>2026-04-02T11:43:13Z</time></trkpt><trkpt lat="45.34544655795485" lon="10.649474983750341"><ele>105.0</ele><time>2026-04-02T11:43:14Z</time></trkpt><trkpt lat="45.34537735404552" lon="10.649516262371742"><ele>105.0</ele><time>2026-04-02T11:43:15Z</time></trkpt><trkpt lat="45.34529754409346" lon="10.6495570586447"><ele>105.0</ele><time>2026-04-02T11:43:16Z</time></trkpt><trkpt lat="45.34520594659091" lon="10.649596527098467"><ele>105.0</ele><time>2026-04-02T11:43:17Z</time></trkpt><trkpt lat="45.34509479609484" lon="10.649641605872757"><ele>105.0</ele><time>2026-04-02T11:43:18Z</time></trkpt><trkpt lat="45.34496467234617" lon="10.649694842805939"><ele>105.0</ele><time>2026-04-02T11:43:19Z</time></trkpt><trkpt lat="45.34481903586383" lon="10.649757368782192"><ele>105.0</ele><time>2026-04-02T11:43:20Z</time></trkpt><trkpt lat="45.344660514430444" lon="10.649825812031965"><ele>105.0</ele><time>2026-04-02T11:43:21Z</time></trkpt><trkpt lat="45.34449305624813" lon="10.64989298384134"><ele>105.0</ele><time>2026-04-02T11:43:22Z</time></trkpt><trkpt lat="45.344323593778405" lon="10.649961154530224"><ele>105.0</ele><time>2026-04-02T11:43:23Z</time></trkpt><trkpt lat="45.344173939738106" lon="10.650023428997825"><ele>105.0</ele><time>2026-04-02T11:43:24Z</time></trkpt><trkpt lat="45.3440393266595" lon="10.65007431222577"><ele>105.0</ele><time>2026-04-02T11:43:25Z</time></trkpt><trkpt lat="45.34391336753685" lon="10.650121965827282"><ele>105.0</ele><time>2026-04-02T11:43:26Z</time></trkpt><trkpt lat="45.343784548769506" lon="10.650175173950435"><ele>105.0</ele><time>2026-04-02T11:43:27Z</time></trkpt><trkpt lat="45.3436509612536" lon="10.650226069484047"><ele>105.0</ele><time>2026-04-02T11:43:28Z</time></trkpt><trkpt lat="45.3435187800186" lon="10.650279564084169"><ele>105.0</ele><time>2026-04-02T11:43:28.999Z</time></trkpt><trkpt lat="45.34338840466752" lon="10.650334108570005"><ele>105.0</ele><time>2026-04-02T11:43:29.999Z</time></trkpt><trkpt lat="45.34325597660956" lon="10.650381052172962"><ele>105.0</ele><time>2026-04-02T11:43:30.999Z</time></trkpt><trkpt lat="45.343121551181596" lon="10.650428879597579"><ele>105.0</ele><time>2026-04-02T11:43:31.999Z</time></trkpt><trkpt lat="45.3429886882343" lon="10.650476953794653"><ele>105.0</ele><time>2026-04-02T11:43:32.999Z</time></trkpt><trkpt lat="45.34285643898747" lon="10.650535168649968"><ele>105.0</ele><time>2026-04-02T11:43:33.999Z</time></trkpt><trkpt lat="45.3427275505502" lon="10.650615189565405"><ele>105.0</ele><time>2026-04-02T11:43:34.999Z</time></trkpt><trkpt lat="45.34260181948136" lon="10.650711167864548"><ele>105.0</ele><time>2026-04-02T11:43:35.999Z</time></trkpt><trkpt lat="45.34248274347372" lon="10.650822880155886"><ele>105.0</ele><time>2026-04-02T11:43:36.999Z</time></trkpt><trkpt lat="45.34237819539413" lon="10.65093131898077"><ele>105.0</ele><time>2026-04-02T11:43:37.999Z</time></trkpt><trkpt lat="45.34228290743509" lon="10.651027765144612"><ele>105.0</ele><time>2026-04-02T11:43:38.999Z</time></trkpt><trkpt lat="45.34219160216413" lon="10.651114727555635"><ele>105.0</ele><time>2026-04-02T11:43:39.999Z</time></trkpt><trkpt lat="45.34210888706708" lon="10.651193995212827"><ele>104.4</ele><time>2026-04-02T11:43:40.999Z</time></trkpt><trkpt lat="45.34202520181853" lon="10.651252870253598"><ele>103.8</ele><time>2026-04-02T11:43:41.999Z</time></trkpt><trkpt lat="45.341968425205394" lon="10.651304524480317"><ele>103.19999999999999</ele><time>2026-04-02T11:43:42.999Z</time></trkpt><trkpt lat="45.34191145326336" lon="10.651374388199558"><ele>102.6</ele><time>2026-04-02T11:43:44.999Z</time></trkpt><trkpt lat="45.34197869286029" lon="10.651570942718685"><ele>102.0</ele><time>2026-04-02T11:43:45.999Z</time></trkpt><trkpt lat="45.342004164857535" lon="10.651665105875013"><ele>102.0</ele><time>2026-04-02T11:43:46.999Z</time></trkpt><trkpt lat="45.34204090258416" lon="10.651761291779868"><ele>102.0</ele><time>2026-04-02T11:43:47.999Z</time></trkpt><trkpt lat="45.3420436045913" lon="10.651906220746168"><ele>102.0</ele><time>2026-04-02T11:43:48.999Z</time></trkpt><trkpt lat="45.34206334699869" lon="10.652035868332353"><ele>102.0</ele><time>2026-04-02T11:43:49.999Z</time></trkpt><trkpt lat="45.34205739756549" lon="10.652171837785977"><ele>102.0</ele><time>2026-04-02T11:43:50.999Z</time></trkpt><trkpt lat="45.34206167237672" lon="10.65228987965911"><ele>101.8</ele><time>2026-04-02T11:43:51.999Z</time></trkpt><trkpt lat="45.342075646710995" lon="10.652417389068642"><ele>101.6</ele><time>2026-04-02T11:43:52.999Z</time></trkpt><trkpt lat="45.34206797675693" lon="10.652554269978559"><ele>101.39999999999999</ele><time>2026-04-02T11:43:53.999Z</time></trkpt><trkpt lat="45.342035868897554" lon="10.652680964404825"><ele>101.19999999999999</ele><time>2026-04-02T11:43:54.999Z</time></trkpt><trkpt lat="45.34201295075045" lon="10.652805646019305"><ele>101.0</ele><time>2026-04-02T11:43:55.999Z</time></trkpt><trkpt lat="45.34198290014126" lon="10.652937866764411"><ele>100.6</ele><time>2026-04-02T11:43:56.999Z</time></trkpt><trkpt lat="45.341949085464066" lon="10.653081073345604"><ele>100.19999999999999</ele><time>2026-04-02T11:43:57.999Z</time></trkpt><trkpt lat="45.34191210212152" lon="10.65323251187814"><ele>99.80000000000001</ele><time>2026-04-02T11:43:58.999Z</time></trkpt><trkpt lat="45.341889515063734" lon="10.653369512366272"><ele>99.4</ele><time>2026-04-02T11:43:59.999Z</time></trkpt><trkpt lat="45.341908791429" lon="10.653503366118116"><ele>99.0</ele><time>2026-04-02T11:44:00.999Z</time></trkpt><trkpt lat="45.341919050715" lon="10.653639797504773"><ele>99.0</ele><time>2026-04-02T11:44:01.999Z</time></trkpt><trkpt lat="45.34192378543058" lon="10.653775538417975"><ele>99.0</ele><time>2026-04-02T11:44:02.999Z</time></trkpt><trkpt lat="45.34192274279646" lon="10.653904999288127"><ele>99.0</ele><time>2026-04-02T11:44:03.999Z</time></trkpt><trkpt lat="45.34190453787204" lon="10.654049043107404"><ele>99.0</ele><time>2026-04-02T11:44:04.999Z</time></trkpt><trkpt lat="45.341871520754694" lon="10.654202493806658"><ele>99.0</ele><time>2026-04-02T11:44:05.999Z</time></trkpt><trkpt lat="45.34183314507027" lon="10.654363950332796"><ele>99.0</ele><time>2026-04-02T11:44:06.999Z</time></trkpt><trkpt lat="45.34179379321141" lon="10.654531088631932"><ele>99.0</ele><time>2026-04-02T11:44:07.999Z</time></trkpt><trkpt lat="45.341754460460834" lon="10.654698649552522"><ele>99.0</ele><time>2026-04-02T11:44:08.999Z</time></trkpt><trkpt lat="45.34170940271123" lon="10.654855813381854"><ele>99.0</ele><time>2026-04-02T11:44:09.999Z</time></trkpt><trkpt lat="45.34166759886395" lon="10.655005634731852"><ele>99.0</ele><time>2026-04-02T11:44:10.999Z</time></trkpt><trkpt lat="45.34162934585129" lon="10.655144993096993"><ele>99.0</ele><time>2026-04-02T11:44:11.999Z</time></trkpt><trkpt lat="45.34160030188594" lon="10.655265515749694"><ele>99.0</ele><time>2026-04-02T11:44:12.999Z</time></trkpt><trkpt lat="45.341588407047816" lon="10.655375033181917"><ele>99.0</ele><time>2026-04-02T11:44:13.999Z</time></trkpt><trkpt lat="45.34158788319469" lon="10.655465497137765"><ele>99.0</ele><time>2026-04-02T11:44:14.999Z</time></trkpt><trkpt lat="45.341584936802576" lon="10.655564729103638"><ele>99.0</ele><time>2026-04-02T11:44:15.999Z</time></trkpt><trkpt lat="45.34158312312511" lon="10.655687108079025"><ele>99.0</ele><time>2026-04-02T11:44:16.999Z</time></trkpt><trkpt lat="45.341582772475824" lon="10.655829480706965"><ele>99.0</ele><time>2026-04-02T11:44:17.999Z</time></trkpt><trkpt lat="45.34157887258734" lon="10.655981636254948"><ele>99.0</ele><time>2026-04-02T11:44:18.999Z</time></trkpt><trkpt lat="45.34156930348857" lon="10.656132773000522"><ele>99.0</ele><time>2026-04-02T11:44:19.999Z</time></trkpt><trkpt lat="45.34156236640097" lon="10.656280934599877"><ele>99.0</ele><time>2026-04-02T11:44:20.999Z</time></trkpt><trkpt lat="45.34155298735752" lon="10.656423687319514"><ele>98.83333333333333</ele><time>2026-04-02T11:44:21.999Z</time></trkpt><trkpt lat="45.3415386459681" lon="10.656558746216149"><ele>98.66666666666666</ele><time>2026-04-02T11:44:22.999Z</time></trkpt><trkpt lat="45.34152989265709" lon="10.656672697154795"><ele>98.5</ele><time>2026-04-02T11:44:23.999Z</time></trkpt><trkpt lat="45.34152934790646" lon="10.656772587988788"><ele>98.33333333333333</ele><time>2026-04-02T11:44:24.999Z</time></trkpt><trkpt lat="45.34153365595571" lon="10.65686387201983"><ele>98.16666666666666</ele><time>2026-04-02T11:44:25.999Z</time></trkpt><trkpt lat="45.34151277119157" lon="10.656980191812332"><ele>98.0</ele><time>2026-04-02T11:44:27.999Z</time></trkpt><trkpt lat="45.34141473409403" lon="10.656995649538413"><ele>97.66666666666666</ele><time>2026-04-02T11:44:29.999Z</time></trkpt><trkpt lat="45.341296086223686" lon="10.656983729249406"><ele>97.33333333333333</ele><time>2026-04-02T11:44:31.999Z</time></trkpt><trkpt lat="45.341220147006354" lon="10.656989183470289"><ele>97.0</ele><time>2026-04-02T11:44:32.999Z</time></trkpt><trkpt lat="45.34113587559593" lon="10.656996480056144"><ele>96.66666666666666</ele><time>2026-04-02T11:44:33.999Z</time></trkpt><trkpt lat="45.341059733057406" lon="10.657008014116094"><ele>96.33333333333333</ele><time>2026-04-02T11:44:34.999Z</time></trkpt><trkpt lat="45.34099270374387" lon="10.657013968120662"><ele>96.0</ele><time>2026-04-02T11:44:35.999Z</time></trkpt><trkpt lat="45.34091872364551" lon="10.657025728737796"><ele>96.0</ele><time>2026-04-02T11:44:36.999Z</time></trkpt><trkpt lat="45.34084279379768" lon="10.657046814499099"><ele>96.0</ele><time>2026-04-02T11:44:37.999Z</time></trkpt><trkpt lat="45.34077467970878" lon="10.657064868152606"><ele>96.0</ele><time>2026-04-02T11:44:38.999Z</time></trkpt><trkpt lat="45.34068208787242" lon="10.657108287568366"><ele>96.0</ele><time>2026-04-02T11:44:40.999Z</time></trkpt><trkpt lat="45.340657872402616" lon="10.657215700870852"><ele>96.0</ele><time>2026-04-02T11:44:42.999Z</time></trkpt><trkpt lat="45.340664331081335" lon="10.65740534992988"><ele>96.0</ele><time>2026-04-02T11:44:45Z</time></trkpt><trkpt lat="45.340658701903926" lon="10.657541804487765"><ele>96.0</ele><time>2026-04-02T11:44:46Z</time></trkpt><trkpt lat="45.34064564176429" lon="10.657712625901075"><ele>96.0</ele><time>2026-04-02T11:44:47Z</time></trkpt><trkpt lat="45.340622408947475" lon="10.657929251302559"><ele>96.0</ele><time>2026-04-02T11:44:48Z</time></trkpt><trkpt lat="45.34059172391687" lon="10.658157187815888"><ele>95.75</ele><time>2026-04-02T11:44:49Z</time></trkpt><trkpt lat="45.340565379955244" lon="10.658387230518732"><ele>95.5</ele><time>2026-04-02T11:44:50Z</time></trkpt><trkpt lat="45.34055031020659" lon="10.658604473811517"><ele>95.25</ele><time>2026-04-02T11:44:51Z</time></trkpt><trkpt lat="45.34053599775321" lon="10.65878957767292"><ele>95.0</ele><time>2026-04-02T11:44:52Z</time></trkpt><trkpt lat="45.3405199645401" lon="10.658951401361582"><ele>94.8</ele><time>2026-04-02T11:44:53Z</time></trkpt><trkpt lat="45.34051136641972" lon="10.659097759230093"><ele>94.6</ele><time>2026-04-02T11:44:54Z</time></trkpt><trkpt lat="45.34050072483161" lon="10.65922057709155"><ele>94.4</ele><time>2026-04-02T11:44:55Z</time></trkpt><trkpt lat="45.34057707708524" lon="10.659332659869003"><ele>94.2</ele><time>2026-04-02T11:45:01Z</time></trkpt><trkpt lat="45.340665939359795" lon="10.659312546854101"><ele>94.0</ele><time>2026-04-02T11:45:02Z</time></trkpt><trkpt lat="45.34077970718687" lon="10.659287261271194"><ele>94.0</ele><time>2026-04-02T11:45:03Z</time></trkpt><trkpt lat="45.340897656479115" lon="10.659265033996984"><ele>94.0</ele><time>2026-04-02T11:45:04Z</time></trkpt><trkpt lat="45.34102159493925" lon="10.659241175764167"><ele>94.0</ele><time>2026-04-02T11:45:05Z</time></trkpt><trkpt lat="45.34114737301593" lon="10.659226968655465"><ele>94.0</ele><time>2026-04-02T11:45:06Z</time></trkpt><trkpt lat="45.34127796114998" lon="10.659225724340033"><ele>95.0</ele><time>2026-04-02T11:45:07Z</time></trkpt><trkpt lat="45.34140625829827" lon="10.659249825539131"><ele>96.0</ele><time>2026-04-02T11:45:08Z</time></trkpt><trkpt lat="45.34153126353144" lon="10.659304370559285"><ele>97.0</ele><time>2026-04-02T11:45:09Z</time></trkpt><trkpt lat="45.341653428090375" lon="10.659354132854716"><ele>98.0</ele><time>2026-04-02T11:45:10Z</time></trkpt><trkpt lat="45.34177661904132" lon="10.65937313362533"><ele>98.0</ele><time>2026-04-02T11:45:11Z</time></trkpt><trkpt lat="45.34190168221354" lon="10.659355785163402"><ele>98.0</ele><time>2026-04-02T11:45:12Z</time></trkpt><trkpt lat="45.34202944409721" lon="10.659307317700849"><ele>98.0</ele><time>2026-04-02T11:45:13Z</time></trkpt><trkpt lat="45.342158637645" lon="10.659246336533313"><ele>98.0</ele><time>2026-04-02T11:45:14Z</time></trkpt><trkpt lat="45.34228863241476" lon="10.659183238808748"><ele>98.75</ele><time>2026-04-02T11:45:15Z</time></trkpt><trkpt lat="45.34241727455646" lon="10.659116573028113"><ele>99.5</ele><time>2026-04-02T11:45:16Z</time></trkpt><trkpt lat="45.34254845636716" lon="10.659046352396139"><ele>100.25</ele><time>2026-04-02T11:45:17Z</time></trkpt><trkpt lat="45.3426803691018" lon="10.658984088640679"><ele>101.0</ele><time>2026-04-02T11:45:18Z</time></trkpt><trkpt lat="45.34281675818934" lon="10.65894161732476"><ele>101.0</ele><time>2026-04-02T11:45:19Z</time></trkpt><trkpt lat="45.34295530155553" lon="10.658922807474504"><ele>101.0</ele><time>2026-04-02T11:45:20Z</time></trkpt><trkpt lat="45.34309011281735" lon="10.658921080449845"><ele>101.0</ele><time>2026-04-02T11:45:21Z</time></trkpt><trkpt lat="45.343220306905636" lon="10.658885666581467"><ele>101.0</ele><time>2026-04-02T11:45:22Z</time></trkpt><trkpt lat="45.34334598960305" lon="10.658826847236089"><ele>99.75</ele><time>2026-04-02T11:45:23Z</time></trkpt><trkpt lat="45.34345112946566" lon="10.658712527271549"><ele>98.5</ele><time>2026-04-02T11:45:24Z</time></trkpt><trkpt lat="45.3435137152834" lon="10.658546042535553"><ele>97.25</ele><time>2026-04-02T11:45:25Z</time></trkpt><trkpt lat="45.343560454837075" lon="10.658385539167577"><ele>96.0</ele><time>2026-04-02T11:45:26Z</time></trkpt><trkpt lat="45.3436027944347" lon="10.658218271623278"><ele>96.0</ele><time>2026-04-02T11:45:27Z</time></trkpt><trkpt lat="45.34367114409104" lon="10.658080199292696"><ele>96.0</ele><time>2026-04-02T11:45:28Z</time></trkpt><trkpt lat="45.343761618733616" lon="10.65797352588792"><ele>96.0</ele><time>2026-04-02T11:45:29Z</time></trkpt><trkpt lat="45.343878047490755" lon="10.65794311191914"><ele>96.0</ele><time>2026-04-02T11:45:30Z</time></trkpt><trkpt lat="45.3439929713768" lon="10.657948476264199"><ele>95.5</ele><time>2026-04-02T11:45:31Z</time></trkpt><trkpt lat="45.34411862298851" lon="10.657972773470144"><ele>95.0</ele><time>2026-04-02T11:45:32Z</time></trkpt><trkpt lat="45.34425163659842" lon="10.65798267901799"><ele>94.5</ele><time>2026-04-02T11:45:33Z</time></trkpt><trkpt lat="45.344386945497035" lon="10.658038209929519"><ele>94.0</ele><time>2026-04-02T11:45:34Z</time></trkpt><trkpt lat="45.34453229123305" lon="10.658086575954728"><ele>94.0</ele><time>2026-04-02T11:45:35Z</time></trkpt><trkpt lat="45.34470788559335" lon="10.65815183751865"><ele>94.0</ele><time>2026-04-02T11:45:36Z</time></trkpt><trkpt lat="45.344904294162816" lon="10.658224834917068"><ele>94.0</ele><time>2026-04-02T11:45:37Z</time></trkpt><trkpt lat="45.34506943607292" lon="10.658286211757362"><ele>94.33333333333333</ele><time>2026-04-02T11:45:38Z</time></trkpt><trkpt lat="45.345227025083055" lon="10.658344781454208"><ele>94.66666666666667</ele><time>2026-04-02T11:45:39Z</time></trkpt><trkpt lat="45.3453861563745" lon="10.658403924362704"><ele>95.0</ele><time>2026-04-02T11:45:40Z</time></trkpt><trkpt lat="45.3455461966113" lon="10.658463405081033"><ele>94.33333333333334</ele><time>2026-04-02T11:45:41Z</time></trkpt><trkpt lat="45.3457073197675" lon="10.658523288283456"><ele>93.66666666666667</ele><time>2026-04-02T11:45:42Z</time></trkpt><trkpt lat="45.345867463365835" lon="10.658583651485355"><ele>93.0</ele><time>2026-04-02T11:45:43Z</time></trkpt><trkpt lat="45.346026606164315" lon="10.658644844725766"><ele>92.66666666666667</ele><time>2026-04-02T11:45:44Z</time></trkpt><trkpt lat="45.34618509946144" lon="10.658705788202756"><ele>92.33333333333334</ele><time>2026-04-02T11:45:45Z</time></trkpt><trkpt lat="45.346344089664576" lon="10.658764401953075"><ele>92.0</ele><time>2026-04-02T11:45:46Z</time></trkpt><trkpt lat="45.34650139384493" lon="10.658821641888533"><ele>92.0</ele><time>2026-04-02T11:45:47Z</time></trkpt><trkpt lat="45.34666170227823" lon="10.658874841468648"><ele>92.0</ele><time>2026-04-02T11:45:48Z</time></trkpt><trkpt lat="45.34682126889382" lon="10.658920693992851"><ele>92.0</ele><time>2026-04-02T11:45:49Z</time></trkpt><trkpt lat="45.34697007120249" lon="10.658954761068488"><ele>92.0</ele><time>2026-04-02T11:45:50Z</time></trkpt><trkpt lat="45.34712053427061" lon="10.658980694822665"><ele>92.0</ele><time>2026-04-02T11:45:51Z</time></trkpt><trkpt lat="45.34727321407343" lon="10.658996293569741"><ele>92.0</ele><time>2026-04-02T11:45:52Z</time></trkpt><trkpt lat="45.34742696857284" lon="10.658994629445921"><ele>92.33333333333334</ele><time>2026-04-02T11:45:53Z</time></trkpt><trkpt lat="45.347575530318366" lon="10.658953415108577"><ele>92.66666666666667</ele><time>2026-04-02T11:45:54Z</time></trkpt><trkpt lat="45.347723755860194" lon="10.658917697622796"><ele>93.0</ele><time>2026-04-02T11:45:55Z</time></trkpt><trkpt lat="45.34786991695379" lon="10.658851415309261"><ele>93.0</ele><time>2026-04-02T11:45:55.999Z</time></trkpt><trkpt lat="45.34800996187229" lon="10.658778071729166"><ele>93.0</ele><time>2026-04-02T11:45:56.999Z</time></trkpt><trkpt lat="45.348135278073045" lon="10.658708566463233"><ele>93.0</ele><time>2026-04-02T11:45:57.999Z</time></trkpt><trkpt lat="45.348248434512016" lon="10.658639914119348"><ele>93.0</ele><time>2026-04-02T11:45:58.999Z</time></trkpt><trkpt lat="45.348355347716016" lon="10.658595198829389"><ele>92.80000000000001</ele><time>2026-04-02T11:45:59.999Z</time></trkpt><trkpt lat="45.34843980884897" lon="10.658517802964674"><ele>92.6</ele><time>2026-04-02T11:46:00.999Z</time></trkpt><trkpt lat="45.34850839396285" lon="10.658496929732863"><ele>92.4</ele><time>2026-04-02T11:46:01.999Z</time></trkpt><trkpt lat="45.348596725571625" lon="10.65862598553732"><ele>92.19999999999999</ele><time>2026-04-02T11:46:03.999Z</time></trkpt><trkpt lat="45.34863630714722" lon="10.65873989328591"><ele>92.0</ele><time>2026-04-02T11:46:04.999Z</time></trkpt><trkpt lat="45.348687758692485" lon="10.658875545594169"><ele>92.39999999999999</ele><time>2026-04-02T11:46:05.999Z</time></trkpt><trkpt lat="45.34873972498756" lon="10.659012553312294"><ele>92.8</ele><time>2026-04-02T11:46:06.999Z</time></trkpt><trkpt lat="45.34879290362053" lon="10.659151762150032"><ele>93.2</ele><time>2026-04-02T11:46:07.999Z</time></trkpt><trkpt lat="45.34885045484877" lon="10.659295767812262"><ele>93.6</ele><time>2026-04-02T11:46:08.999Z</time></trkpt><trkpt lat="45.34890658460437" lon="10.659421625876806"><ele>94.0</ele><time>2026-04-02T11:46:09.999Z</time></trkpt><trkpt lat="45.348959870261275" lon="10.659518021805905"><ele>94.25</ele><time>2026-04-02T11:46:10.999Z</time></trkpt><trkpt lat="45.349013087474766" lon="10.659587284237576"><ele>94.5</ele><time>2026-04-02T11:46:12.999Z</time></trkpt><trkpt lat="45.34881798340101" lon="10.659754859311835"><ele>94.75</ele><time>2026-04-02T11:46:16.999Z</time></trkpt><trkpt lat="45.34876656148672" lon="10.659822493136524"><ele>95.0</ele><time>2026-04-02T11:46:17.999Z</time></trkpt><trkpt lat="45.348712747210534" lon="10.65991702412758"><ele>95.0</ele><time>2026-04-02T11:46:18.999Z</time></trkpt><trkpt lat="45.348658277588285" lon="10.660051381500327"><ele>95.0</ele><time>2026-04-02T11:46:19.999Z</time></trkpt><trkpt lat="45.34860530754645" lon="10.66023497833235"><ele>95.0</ele><time>2026-04-02T11:46:20.999Z</time></trkpt><trkpt lat="45.348541488532284" lon="10.660435594132537"><ele>95.0</ele><time>2026-04-02T11:46:21.999Z</time></trkpt><trkpt lat="45.3484733324501" lon="10.660622212712529"><ele>95.5</ele><time>2026-04-02T11:46:22.999Z</time></trkpt><trkpt lat="45.348399067892295" lon="10.660764875005269"><ele>96.0</ele><time>2026-04-02T11:46:23.999Z</time></trkpt><trkpt lat="45.34831595726004" lon="10.660910844791667"><ele>96.5</ele><time>2026-04-02T11:46:24.999Z</time></trkpt><trkpt lat="45.34824109242078" lon="10.66104416296893"><ele>97.0</ele><time>2026-04-02T11:46:25.999Z</time></trkpt><trkpt lat="45.348189327817835" lon="10.661177193283761"><ele>97.0</ele><time>2026-04-02T11:46:26.999Z</time></trkpt><trkpt lat="45.348150060749575" lon="10.661331871809905"><ele>97.0</ele><time>2026-04-02T11:46:27.999Z</time></trkpt><trkpt lat="45.34812203715904" lon="10.66150497967621"><ele>97.0</ele><time>2026-04-02T11:46:28.999Z</time></trkpt><trkpt lat="45.34808404863309" lon="10.661661868175756"><ele>97.0</ele><time>2026-04-02T11:46:29.999Z</time></trkpt><trkpt lat="45.34803247540573" lon="10.661820794138505"><ele>96.0</ele><time>2026-04-02T11:46:30.999Z</time></trkpt><trkpt lat="45.347974824563686" lon="10.661994590006127"><ele>95.0</ele><time>2026-04-02T11:46:31.999Z</time></trkpt><trkpt lat="45.34791459174811" lon="10.662162845284353"><ele>94.0</ele><time>2026-04-02T11:46:32.999Z</time></trkpt><trkpt lat="45.34785375361711" lon="10.662303337221307"><ele>93.0</ele><time>2026-04-02T11:46:33.999Z</time></trkpt><trkpt lat="45.3477913223562" lon="10.662438680166577"><ele>93.0</ele><time>2026-04-02T11:46:34.999Z</time></trkpt><trkpt lat="45.34772837861271" lon="10.662582635089867"><ele>93.0</ele><time>2026-04-02T11:46:35.999Z</time></trkpt><trkpt lat="45.34766777246099" lon="10.662729335485055"><ele>93.0</ele><time>2026-04-02T11:46:36.999Z</time></trkpt><trkpt lat="45.347595732450145" lon="10.662869083018023"><ele>93.0</ele><time>2026-04-02T11:46:37.999Z</time></trkpt><trkpt lat="45.347506508981006" lon="10.663005929835002"><ele>93.0</ele><time>2026-04-02T11:46:38.999Z</time></trkpt><trkpt lat="45.347428261138965" lon="10.663120053321853"><ele>93.0</ele><time>2026-04-02T11:46:39.999Z</time></trkpt><trkpt lat="45.34735791638331" lon="10.663221975495588"><ele>93.0</ele><time>2026-04-02T11:46:40.999Z</time></trkpt><trkpt lat="45.347289971802226" lon="10.66332672274815"><ele>93.0</ele><time>2026-04-02T11:46:41.999Z</time></trkpt><trkpt lat="45.347214225143695" lon="10.66341091122929"><ele>93.0</ele><time>2026-04-02T11:46:42.999Z</time></trkpt><trkpt lat="45.347123715702025" lon="10.66349622018612"><ele>93.0</ele><time>2026-04-02T11:46:43.999Z</time></trkpt><trkpt lat="45.347019254843765" lon="10.663589985565554"><ele>93.0</ele><time>2026-04-02T11:46:44.999Z</time></trkpt><trkpt lat="45.346927692393535" lon="10.663672503954695"><ele>93.0</ele><time>2026-04-02T11:46:45.999Z</time></trkpt><trkpt lat="45.34684742797554" lon="10.663741907572597"><ele>93.0</ele><time>2026-04-02T11:46:46.999Z</time></trkpt><trkpt lat="45.34677969916012" lon="10.663806470523756"><ele>93.0</ele><time>2026-04-02T11:46:47.999Z</time></trkpt><trkpt lat="45.346718511457965" lon="10.663872432303451"><ele>93.60000000000001</ele><time>2026-04-02T11:46:48.999Z</time></trkpt><trkpt lat="45.346663079357896" lon="10.663931015073976"><ele>94.2</ele><time>2026-04-02T11:46:49.999Z</time></trkpt><trkpt lat="45.3465771377538" lon="10.664077261547845"><ele>94.8</ele><time>2026-04-02T11:46:52Z</time></trkpt><trkpt lat="45.34654400643119" lon="10.664195136108306"><ele>95.4</ele><time>2026-04-02T11:46:53Z</time></trkpt><trkpt lat="45.34650593051469" lon="10.664318538398339"><ele>96.0</ele><time>2026-04-02T11:46:54Z</time></trkpt><trkpt lat="45.34646043462492" lon="10.664445246004096"><ele>96.0</ele><time>2026-04-02T11:46:55Z</time></trkpt><trkpt lat="45.3464087804178" lon="10.664557405239337"><ele>96.0</ele><time>2026-04-02T11:46:56Z</time></trkpt><trkpt lat="45.34634659514613" lon="10.664646779522675"><ele>96.0</ele><time>2026-04-02T11:46:57Z</time></trkpt><trkpt lat="45.346268276718554" lon="10.664720508926226"><ele>96.0</ele><time>2026-04-02T11:46:58Z</time></trkpt><trkpt lat="45.346177931786066" lon="10.664779304701652"><ele>96.0</ele><time>2026-04-02T11:46:59Z</time></trkpt><trkpt lat="45.346084538185245" lon="10.664845360836042"><ele>95.5</ele><time>2026-04-02T11:47:00Z</time></trkpt><trkpt lat="45.34597666007596" lon="10.664914644729206"><ele>95.0</ele><time>2026-04-02T11:47:01Z</time></trkpt><trkpt lat="45.345858517409454" lon="10.664993429177727"><ele>94.5</ele><time>2026-04-02T11:47:02Z</time></trkpt><trkpt lat="45.34572326442854" lon="10.665058258986724"><ele>94.0</ele><time>2026-04-02T11:47:03Z</time></trkpt><trkpt lat="45.34558174610079" lon="10.66510993941041"><ele>93.80000000000001</ele><time>2026-04-02T11:47:04Z</time></trkpt><trkpt lat="45.3454629677924" lon="10.665143918567129"><ele>93.60000000000001</ele><time>2026-04-02T11:47:05Z</time></trkpt><trkpt lat="45.34536061218163" lon="10.665168930635135"><ele>93.4</ele><time>2026-04-02T11:47:06Z</time></trkpt><trkpt lat="45.3452754426779" lon="10.665211724731009"><ele>93.2</ele><time>2026-04-02T11:47:07Z</time></trkpt><trkpt lat="45.345205570421385" lon="10.66524463519888"><ele>93.0</ele><time>2026-04-02T11:47:08Z</time></trkpt><trkpt lat="45.34514177454692" lon="10.665266198363938"><ele>93.0</ele><time>2026-04-02T11:47:09Z</time></trkpt><trkpt lat="45.34505669223101" lon="10.665273802503812"><ele>93.0</ele><time>2026-04-02T11:47:11Z</time></trkpt><trkpt lat="45.344962777521225" lon="10.665266858349346"><ele>93.0</ele><time>2026-04-02T11:47:13Z</time></trkpt><trkpt lat="45.34489178308233" lon="10.665279349394241"><ele>93.0</ele><time>2026-04-02T11:47:14Z</time></trkpt><trkpt lat="45.344821683454825" lon="10.66529344372802"><ele>93.0</ele><time>2026-04-02T11:47:15Z</time></trkpt><trkpt lat="45.34474328731722" lon="10.665300780116237"><ele>93.0</ele><time>2026-04-02T11:47:16Z</time></trkpt><trkpt lat="45.34466206765469" lon="10.66530130657568"><ele>93.0</ele><time>2026-04-02T11:47:17Z</time></trkpt><trkpt lat="45.34457779912094" lon="10.665311721222864"><ele>93.0</ele><time>2026-04-02T11:47:18Z</time></trkpt><trkpt lat="45.34448531101719" lon="10.665353591996405"><ele>93.0</ele><time>2026-04-02T11:47:19Z</time></trkpt><trkpt lat="45.344392085541955" lon="10.66541414310804"><ele>93.0</ele><time>2026-04-02T11:47:20Z</time></trkpt><trkpt lat="45.34429830095177" lon="10.665492488474763"><ele>93.0</ele><time>2026-04-02T11:47:21Z</time></trkpt><trkpt lat="45.34420579544489" lon="10.665591028594502"><ele>93.0</ele><time>2026-04-02T11:47:22Z</time></trkpt><trkpt lat="45.344102891768614" lon="10.665673120752668"><ele>93.0</ele><time>2026-04-02T11:47:23Z</time></trkpt><trkpt lat="45.34402156198871" lon="10.665770364974197"><ele>93.0</ele><time>2026-04-02T11:47:24Z</time></trkpt><trkpt lat="45.34395721244487" lon="10.665851550653771"><ele>93.0</ele><time>2026-04-02T11:47:25Z</time></trkpt><trkpt lat="45.34390129482152" lon="10.665931983979934"><ele>93.0</ele><time>2026-04-02T11:47:26Z</time></trkpt><trkpt lat="45.343835938245604" lon="10.665988880957197"><ele>93.0</ele><time>2026-04-02T11:47:27Z</time></trkpt><trkpt lat="45.34375558442109" lon="10.66600643285514"><ele>93.0</ele><time>2026-04-02T11:47:28Z</time></trkpt><trkpt lat="45.34368438947669" lon="10.666012571405547"><ele>93.0</ele><time>2026-04-02T11:47:29Z</time></trkpt><trkpt lat="45.343623896976" lon="10.666045083999485"><ele>93.0</ele><time>2026-04-02T11:47:30Z</time></trkpt><trkpt lat="45.34359012190519" lon="10.666136351569076"><ele>93.0</ele><time>2026-04-02T11:47:31Z</time></trkpt><trkpt lat="45.343563846772646" lon="10.666242720932766"><ele>93.0</ele><time>2026-04-02T11:47:32Z</time></trkpt><trkpt lat="45.34354319524714" lon="10.666378619705629"><ele>92.75</ele><time>2026-04-02T11:47:33Z</time></trkpt><trkpt lat="45.34350848701841" lon="10.666532986974612"><ele>92.5</ele><time>2026-04-02T11:47:34Z</time></trkpt><trkpt lat="45.34346152909462" lon="10.666713477517767"><ele>92.25</ele><time>2026-04-02T11:47:35Z</time></trkpt><trkpt lat="45.34340367229336" lon="10.666921882014679"><ele>92.0</ele><time>2026-04-02T11:47:36Z</time></trkpt><trkpt lat="45.34334153487981" lon="10.667158494333663"><ele>92.0</ele><time>2026-04-02T11:47:37Z</time></trkpt><trkpt lat="45.34328607510951" lon="10.667364938352813"><ele>92.0</ele><time>2026-04-02T11:47:38Z</time></trkpt><trkpt lat="45.34323800563331" lon="10.667550813236447"><ele>92.0</ele><time>2026-04-02T11:47:39Z</time></trkpt><trkpt lat="45.34319253458208" lon="10.667710489934667"><ele>92.0</ele><time>2026-04-02T11:47:40Z</time></trkpt><trkpt lat="45.3431595221729" lon="10.66784290806554"><ele>92.16666666666667</ele><time>2026-04-02T11:47:41Z</time></trkpt><trkpt lat="45.34312544974393" lon="10.667937451888733"><ele>92.33333333333334</ele><time>2026-04-02T11:47:42Z</time></trkpt><trkpt lat="45.34309626908619" lon="10.668028221734229"><ele>92.5</ele><time>2026-04-02T11:47:45Z</time></trkpt><trkpt lat="45.34313545934954" lon="10.668103144172738"><ele>92.66666666666667</ele><time>2026-04-02T11:47:49Z</time></trkpt><trkpt lat="45.34316225193936" lon="10.668211982396691"><ele>92.83333333333333</ele><time>2026-04-02T11:47:50Z</time></trkpt><trkpt lat="45.34319519350906" lon="10.66834791856287"><ele>93.0</ele><time>2026-04-02T11:47:51Z</time></trkpt><trkpt lat="45.34322570801521" lon="10.668512668577932"><ele>93.0</ele><time>2026-04-02T11:47:52Z</time></trkpt><trkpt lat="45.34324679777149" lon="10.668695455150088"><ele>93.0</ele><time>2026-04-02T11:47:53Z</time></trkpt><trkpt lat="45.343271689599284" lon="10.66885737652773"><ele>93.0</ele><time>2026-04-02T11:47:54Z</time></trkpt><trkpt lat="45.3433018036359" lon="10.669014641602264"><ele>93.0</ele><time>2026-04-02T11:47:55Z</time></trkpt><trkpt lat="45.34333116363287" lon="10.669174619920808"><ele>93.0</ele><time>2026-04-02T11:47:56Z</time></trkpt><trkpt lat="45.343355268186606" lon="10.669342005553679"><ele>93.0</ele><time>2026-04-02T11:47:57Z</time></trkpt><trkpt lat="45.3433789808038" lon="10.669509048573829"><ele>93.0</ele><time>2026-04-02T11:47:58Z</time></trkpt><trkpt lat="45.343375419462575" lon="10.669680461942304"><ele>93.0</ele><time>2026-04-02T11:47:59Z</time></trkpt><trkpt lat="45.34339314502439" lon="10.669846989675676"><ele>93.25</ele><time>2026-04-02T11:48:00Z</time></trkpt><trkpt lat="45.343411120243104" lon="10.670015862908434"><ele>93.5</ele><time>2026-04-02T11:48:01Z</time></trkpt><trkpt lat="45.34342927906354" lon="10.670186461059924"><ele>93.75</ele><time>2026-04-02T11:48:02Z</time></trkpt><trkpt lat="45.34344964066557" lon="10.670365500737615"><ele>94.0</ele><time>2026-04-02T11:48:03Z</time></trkpt><trkpt lat="45.343472609692505" lon="10.670536865504788"><ele>94.4</ele><time>2026-04-02T11:48:04Z</time></trkpt><trkpt lat="45.34349972839025" lon="10.67068545682883"><ele>94.80000000000001</ele><time>2026-04-02T11:48:05Z</time></trkpt><trkpt lat="45.34353081511341" lon="10.670819981854"><ele>95.19999999999999</ele><time>2026-04-02T11:48:06Z</time></trkpt><trkpt lat="45.34356409328342" lon="10.670948589047045"><ele>95.6</ele><time>2026-04-02T11:48:07Z</time></trkpt><trkpt lat="45.343613415909125" lon="10.671067990533958"><ele>96.0</ele><time>2026-04-02T11:48:08Z</time></trkpt><trkpt lat="45.343652691849556" lon="10.67116969521959"><ele>96.8</ele><time>2026-04-02T11:48:09Z</time></trkpt><trkpt lat="45.34368723828104" lon="10.671256093887443"><ele>97.6</ele><time>2026-04-02T11:48:10Z</time></trkpt><trkpt lat="45.34373201119017" lon="10.67142020075484"><ele>98.4</ele><time>2026-04-02T11:48:12Z</time></trkpt><trkpt lat="45.34376857611333" lon="10.671576272077175"><ele>99.2</ele><time>2026-04-02T11:48:14Z</time></trkpt><trkpt lat="45.34380395289522" lon="10.671653986818663"><ele>100.0</ele><time>2026-04-02T11:48:16Z</time></trkpt><trkpt lat="45.34368490486014" lon="10.67167801322134"><ele>100.0</ele><time>2026-04-02T11:48:20Z</time></trkpt><trkpt lat="45.34357755400506" lon="10.671714400955077"><ele>100.0</ele><time>2026-04-02T11:48:22Z</time></trkpt><trkpt lat="45.34352068612542" lon="10.671776060538269"><ele>100.0</ele><time>2026-04-02T11:48:23Z</time></trkpt><trkpt lat="45.34343728021766" lon="10.671840941305314"><ele>100.0</ele><time>2026-04-02T11:48:24Z</time></trkpt><trkpt lat="45.343351206152995" lon="10.671931222438968"><ele>100.0</ele><time>2026-04-02T11:48:25Z</time></trkpt><trkpt lat="45.34328075725457" lon="10.672011444776393"><ele>100.2</ele><time>2026-04-02T11:48:26Z</time></trkpt><trkpt lat="45.34321486486933" lon="10.672096504638342"><ele>100.4</ele><time>2026-04-02T11:48:27Z</time></trkpt><trkpt lat="45.34315702784219" lon="10.672173908089862"><ele>100.6</ele><time>2026-04-02T11:48:27.999Z</time></trkpt><trkpt lat="45.343066330258516" lon="10.672312490971455"><ele>100.8</ele><time>2026-04-02T11:48:29.999Z</time></trkpt><trkpt lat="45.34300960605032" lon="10.672386075564537"><ele>101.0</ele><time>2026-04-02T11:48:30.999Z</time></trkpt><trkpt lat="45.342949889717126" lon="10.67246361189939"><ele>101.0</ele><time>2026-04-02T11:48:31.999Z</time></trkpt><trkpt lat="45.34288348029406" lon="10.672544567271824"><ele>101.0</ele><time>2026-04-02T11:48:32.999Z</time></trkpt><trkpt lat="45.342827880628676" lon="10.672621153141272"><ele>101.0</ele><time>2026-04-02T11:48:33.999Z</time></trkpt><trkpt lat="45.342767474248106" lon="10.672760121244313"><ele>101.0</ele><time>2026-04-02T11:48:35.999Z</time></trkpt><trkpt lat="45.34274313184989" lon="10.672922790168517"><ele>101.0</ele><time>2026-04-02T11:48:37.999Z</time></trkpt><trkpt lat="45.34272857548029" lon="10.673105461912241"><ele>100.66666666666666</ele><time>2026-04-02T11:48:39.999Z</time></trkpt><trkpt lat="45.342720903849596" lon="10.673210304236783"><ele>100.33333333333333</ele><time>2026-04-02T11:48:40.999Z</time></trkpt><trkpt lat="45.342690056178334" lon="10.673327621902056"><ele>100.0</ele><time>2026-04-02T11:48:42.999Z</time></trkpt><trkpt lat="45.34265597033393" lon="10.673403132054498"><ele>99.66666666666666</ele><time>2026-04-02T11:48:48.999Z</time></trkpt><trkpt lat="45.3425714077041" lon="10.673423453612747"><ele>99.33333333333333</ele><time>2026-04-02T11:48:50.999Z</time></trkpt><trkpt lat="45.34251144408323" lon="10.67345184801249"><ele>99.0</ele><time>2026-04-02T11:48:51.999Z</time></trkpt><trkpt lat="45.34243811778573" lon="10.67348203771165"><ele>99.0</ele><time>2026-04-02T11:48:52.999Z</time></trkpt><trkpt lat="45.34236506465824" lon="10.673537088170084"><ele>99.0</ele><time>2026-04-02T11:48:53.999Z</time></trkpt><trkpt lat="45.34231112473589" lon="10.673595663959835"><ele>99.0</ele><time>2026-04-02T11:48:54.999Z</time></trkpt><trkpt lat="45.342282966378185" lon="10.673692727437485"><ele>99.0</ele><time>2026-04-02T11:48:55.999Z</time></trkpt><trkpt lat="45.34229705691172" lon="10.673806198070038"><ele>99.0</ele><time>2026-04-02T11:48:57Z</time></trkpt><trkpt lat="45.342303516727256" lon="10.673915503810678"><ele>99.0</ele><time>2026-04-02T11:48:58Z</time></trkpt><trkpt lat="45.342303111855486" lon="10.674019766624562"><ele>99.0</ele><time>2026-04-02T11:48:59Z</time></trkpt><trkpt lat="45.342280044072425" lon="10.674151221771107"><ele>99.0</ele><time>2026-04-02T11:49:00Z</time></trkpt><trkpt lat="45.34229299130003" lon="10.67434736246278"><ele>99.0</ele><time>2026-04-02T11:49:01Z</time></trkpt><trkpt lat="45.34227587124723" lon="10.674523766963736"><ele>99.0</ele><time>2026-04-02T11:49:02Z</time></trkpt><trkpt lat="45.34226318867125" lon="10.674668993341967"><ele>98.6</ele><time>2026-04-02T11:49:03Z</time></trkpt><trkpt lat="45.342235306560525" lon="10.674797470572372"><ele>98.2</ele><time>2026-04-02T11:49:04Z</time></trkpt><trkpt lat="45.342180515640784" lon="10.67492127521804"><ele>97.8</ele><time>2026-04-02T11:49:05Z</time></trkpt><trkpt lat="45.3420997106445" lon="10.675036698532047"><ele>97.39999999999999</ele><time>2026-04-02T11:49:06Z</time></trkpt><trkpt lat="45.34201567673008" lon="10.675128302515454"><ele>97.0</ele><time>2026-04-02T11:49:07Z</time></trkpt><trkpt lat="45.34194668060754" lon="10.675196281203586"><ele>96.83333333333334</ele><time>2026-04-02T11:49:08Z</time></trkpt><trkpt lat="45.341883532095444" lon="10.675263261942735"><ele>96.66666666666667</ele><time>2026-04-02T11:49:09Z</time></trkpt><trkpt lat="45.34182586501121" lon="10.675320658101578"><ele>96.5</ele><time>2026-04-02T11:49:10Z</time></trkpt><trkpt lat="45.34177392414574" lon="10.675371753038696"><ele>96.33333333333334</ele><time>2026-04-02T11:49:11Z</time></trkpt><trkpt lat="45.341683445698365" lon="10.675481805417338"><ele>96.16666666666667</ele><time>2026-04-02T11:49:13Z</time></trkpt><trkpt lat="45.34160912527715" lon="10.675577904300829"><ele>96.0</ele><time>2026-04-02T11:49:15Z</time></trkpt><trkpt lat="45.34156622297115" lon="10.67564828747776"><ele>95.83333333333333</ele><time>2026-04-02T11:49:19Z</time></trkpt><trkpt lat="45.341519812491875" lon="10.675713923074683"><ele>95.66666666666667</ele><time>2026-04-02T11:49:21Z</time></trkpt><trkpt lat="45.341470314295684" lon="10.675777305289959"><ele>95.5</ele><time>2026-04-02T11:49:23Z</time></trkpt><trkpt lat="45.341392867195175" lon="10.675844056328751"><ele>95.33333333333334</ele><time>2026-04-02T11:49:25Z</time></trkpt><trkpt lat="45.3412987172558" lon="10.675943113433345"><ele>95.16666666666667</ele><time>2026-04-02T11:49:27Z</time></trkpt><trkpt lat="45.34123679228982" lon="10.676004426844537"><ele>95.0</ele><time>2026-04-02T11:49:28Z</time></trkpt><trkpt lat="45.341168312237" lon="10.676072877736223"><ele>95.0</ele><time>2026-04-02T11:49:29Z</time></trkpt><trkpt lat="45.34109443126818" lon="10.676138822189639"><ele>95.0</ele><time>2026-04-02T11:49:30Z</time></trkpt><trkpt lat="45.34100817675746" lon="10.67620592523535"><ele>95.0</ele><time>2026-04-02T11:49:31Z</time></trkpt><trkpt lat="45.34092815372639" lon="10.676271102896287"><ele>95.0</ele><time>2026-04-02T11:49:32Z</time></trkpt><trkpt lat="45.340830009487334" lon="10.67636330420147"><ele>95.0</ele><time>2026-04-02T11:49:33Z</time></trkpt><trkpt lat="45.34072748332386" lon="10.676456492086528"><ele>95.0</ele><time>2026-04-02T11:49:34Z</time></trkpt><trkpt lat="45.34061443216241" lon="10.676549542569733"><ele>95.0</ele><time>2026-04-02T11:49:35Z</time></trkpt><trkpt lat="45.34049075960954" lon="10.676645271366517"><ele>95.0</ele><time>2026-04-02T11:49:36Z</time></trkpt><trkpt lat="45.34035115250527" lon="10.676766337635677"><ele>95.0</ele><time>2026-04-02T11:49:37Z</time></trkpt><trkpt lat="45.34018484408695" lon="10.676917719675036"><ele>93.66666666666667</ele><time>2026-04-02T11:49:38Z</time></trkpt><trkpt lat="45.34001978622892" lon="10.677064223243777"><ele>92.33333333333333</ele><time>2026-04-02T11:49:39Z</time></trkpt><trkpt lat="45.3398693265478" lon="10.677197943074889"><ele>91.0</ele><time>2026-04-02T11:49:40Z</time></trkpt><trkpt lat="45.33973444428535" lon="10.67733338068936"><ele>91.0</ele><time>2026-04-02T11:49:41Z</time></trkpt><trkpt lat="45.33960768210944" lon="10.677485195316375"><ele>91.0</ele><time>2026-04-02T11:49:42Z</time></trkpt><trkpt lat="45.339482548507874" lon="10.677650375330645"><ele>91.0</ele><time>2026-04-02T11:49:43Z</time></trkpt><trkpt lat="45.339350290871" lon="10.677812546588527"><ele>91.0</ele><time>2026-04-02T11:49:44Z</time></trkpt><trkpt lat="45.339204539859345" lon="10.67795185514402"><ele>91.0</ele><time>2026-04-02T11:49:45Z</time></trkpt><trkpt lat="45.339050628841306" lon="10.678071267640105"><ele>91.0</ele><time>2026-04-02T11:49:46Z</time></trkpt><trkpt lat="45.338899428148906" lon="10.678147576078986"><ele>90.6</ele><time>2026-04-02T11:49:47Z</time></trkpt><trkpt lat="45.33879217446165" lon="10.67823205431097"><ele>90.19999999999999</ele><time>2026-04-02T11:49:48Z</time></trkpt><trkpt lat="45.33869826121121" lon="10.678306986369476"><ele>89.80000000000001</ele><time>2026-04-02T11:49:49Z</time></trkpt><trkpt lat="45.338624770277285" lon="10.67836756675738"><ele>89.4</ele><time>2026-04-02T11:49:50Z</time></trkpt><trkpt lat="45.338566668119036" lon="10.678415763350316"><ele>89.0</ele><time>2026-04-02T11:49:51Z</time></trkpt><trkpt lat="45.33850525475003" lon="10.678468327925119"><ele>88.75</ele><time>2026-04-02T11:49:53Z</time></trkpt><trkpt lat="45.33859550641971" lon="10.678727068365014"><ele>88.5</ele><time>2026-04-02T11:49:55Z</time></trkpt><trkpt lat="45.33864253830556" lon="10.67882126925279"><ele>88.25</ele><time>2026-04-02T11:49:56Z</time></trkpt><trkpt lat="45.33870322743759" lon="10.678932179439366"><ele>88.0</ele><time>2026-04-02T11:49:57Z</time></trkpt><trkpt lat="45.338775514674495" lon="10.679087196964643"><ele>88.0</ele><time>2026-04-02T11:49:58Z</time></trkpt><trkpt lat="45.33885933675347" lon="10.679284533487042"><ele>88.0</ele><time>2026-04-02T11:49:59Z</time></trkpt><trkpt lat="45.3389523137992" lon="10.679482535549159"><ele>88.0</ele><time>2026-04-02T11:50:00Z</time></trkpt><trkpt lat="45.339028106979654" lon="10.67964931554299"><ele>88.5</ele><time>2026-04-02T11:50:01Z</time></trkpt><trkpt lat="45.33909722973376" lon="10.679806815966495"><ele>89.0</ele><time>2026-04-02T11:50:02Z</time></trkpt><trkpt lat="45.33916624247969" lon="10.679977147860509"><ele>89.5</ele><time>2026-04-02T11:50:03Z</time></trkpt><trkpt lat="45.33923410441474" lon="10.680157841316436"><ele>90.0</ele><time>2026-04-02T11:50:04Z</time></trkpt><trkpt lat="45.33930223936251" lon="10.68033802549437"><ele>90.0</ele><time>2026-04-02T11:50:05Z</time></trkpt><trkpt lat="45.339366572236486" lon="10.680514318751024"><ele>90.0</ele><time>2026-04-02T11:50:06Z</time></trkpt><trkpt lat="45.33943835499548" lon="10.680688708854573"><ele>90.0</ele><time>2026-04-02T11:50:07Z</time></trkpt><trkpt lat="45.339517796476905" lon="10.680864818542032"><ele>90.0</ele><time>2026-04-02T11:50:08Z</time></trkpt><trkpt lat="45.339601140714365" lon="10.68104918933507"><ele>90.25</ele><time>2026-04-02T11:50:09Z</time></trkpt><trkpt lat="45.33967550360992" lon="10.681227990325143"><ele>90.5</ele><time>2026-04-02T11:50:10Z</time></trkpt><trkpt lat="45.33974445795422" lon="10.681384964414585"><ele>90.75</ele><time>2026-04-02T11:50:11Z</time></trkpt><trkpt lat="45.33981775666366" lon="10.681549111071158"><ele>91.0</ele><time>2026-04-02T11:50:12Z</time></trkpt><trkpt lat="45.339890471970094" lon="10.681723478007362"><ele>91.0</ele><time>2026-04-02T11:50:13Z</time></trkpt><trkpt lat="45.33995060039195" lon="10.681889054588696"><ele>91.0</ele><time>2026-04-02T11:50:14Z</time></trkpt><trkpt lat="45.339987791430005" lon="10.682023116352578"><ele>91.0</ele><time>2026-04-02T11:50:15Z</time></trkpt><trkpt lat="45.340005978846015" lon="10.68214201479853"><ele>91.0</ele><time>2026-04-02T11:50:16Z</time></trkpt><trkpt lat="45.340006260374786" lon="10.682282338646152"><ele>91.0</ele><time>2026-04-02T11:50:17Z</time></trkpt><trkpt lat="45.339996676016476" lon="10.682450747388119"><ele>91.0</ele><time>2026-04-02T11:50:18Z</time></trkpt><trkpt lat="45.340005836778914" lon="10.682620387917053"><ele>91.0</ele><time>2026-04-02T11:50:19Z</time></trkpt><trkpt lat="45.34003198941309" lon="10.682791289351952"><ele>91.0</ele><time>2026-04-02T11:50:20Z</time></trkpt><trkpt lat="45.340078538751214" lon="10.682957901026308"><ele>91.0</ele><time>2026-04-02T11:50:21Z</time></trkpt><trkpt lat="45.34013562275678" lon="10.683115503891282"><ele>91.25</ele><time>2026-04-02T11:50:22Z</time></trkpt><trkpt lat="45.34019658858317" lon="10.683274252029353"><ele>91.5</ele><time>2026-04-02T11:50:23Z</time></trkpt><trkpt lat="45.34025852169966" lon="10.683450243379259"><ele>91.75</ele><time>2026-04-02T11:50:24Z</time></trkpt><trkpt lat="45.34031755406952" lon="10.683624063221357"><ele>92.0</ele><time>2026-04-02T11:50:25Z</time></trkpt><trkpt lat="45.34037000879416" lon="10.683799002519356"><ele>91.6</ele><time>2026-04-02T11:50:26Z</time></trkpt><trkpt lat="45.34041829101129" lon="10.683962621699823"><ele>91.19999999999999</ele><time>2026-04-02T11:50:27Z</time></trkpt><trkpt lat="45.340458289010165" lon="10.684102184837432"><ele>90.8</ele><time>2026-04-02T11:50:28Z</time></trkpt><trkpt lat="45.34049831659587" lon="10.684233639730696"><ele>90.4</ele><time>2026-04-02T11:50:29Z</time></trkpt><trkpt lat="45.3405291641988" lon="10.684371556636918"><ele>90.0</ele><time>2026-04-02T11:50:30Z</time></trkpt><trkpt lat="45.340554806954245" lon="10.68451914858675"><ele>90.8</ele><time>2026-04-02T11:50:31Z</time></trkpt><trkpt lat="45.34056916051466" lon="10.68464763075596"><ele>91.6</ele><time>2026-04-02T11:50:32Z</time></trkpt><trkpt lat="45.3405784303968" lon="10.684766516175054"><ele>92.4</ele><time>2026-04-02T11:50:33Z</time></trkpt><trkpt lat="45.340584776546" lon="10.684894505132045"><ele>93.2</ele><time>2026-04-02T11:50:34Z</time></trkpt><trkpt lat="45.34059801886677" lon="10.685045110060448"><ele>94.0</ele><time>2026-04-02T11:50:35Z</time></trkpt><trkpt lat="45.340633114274056" lon="10.685240070227145"><ele>93.0</ele><time>2026-04-02T11:50:36Z</time></trkpt><trkpt lat="45.340678514199844" lon="10.685488046859575"><ele>92.0</ele><time>2026-04-02T11:50:37Z</time></trkpt><trkpt lat="45.34071861335008" lon="10.685706691699831"><ele>91.0</ele><time>2026-04-02T11:50:38Z</time></trkpt><trkpt lat="45.34075446883166" lon="10.685882979995984"><ele>91.0</ele><time>2026-04-02T11:50:39Z</time></trkpt><trkpt lat="45.340789139362904" lon="10.686036163738036"><ele>91.0</ele><time>2026-04-02T11:50:40Z</time></trkpt><trkpt lat="45.340822239080026" lon="10.686194676317227"><ele>91.0</ele><time>2026-04-02T11:50:41Z</time></trkpt><trkpt lat="45.34085650664224" lon="10.68636389303096"><ele>91.0</ele><time>2026-04-02T11:50:42Z</time></trkpt><trkpt lat="45.34089704101396" lon="10.686525132498101"><ele>91.0</ele><time>2026-04-02T11:50:43Z</time></trkpt><trkpt lat="45.34093031608456" lon="10.686667373251389"><ele>91.0</ele><time>2026-04-02T11:50:44Z</time></trkpt><trkpt lat="45.34095360211936" lon="10.686822664093647"><ele>91.0</ele><time>2026-04-02T11:50:45Z</time></trkpt><trkpt lat="45.340963238333835" lon="10.686967503340945"><ele>91.0</ele><time>2026-04-02T11:50:46Z</time></trkpt><trkpt lat="45.3409617478101" lon="10.687104152663403"><ele>91.0</ele><time>2026-04-02T11:50:47Z</time></trkpt><trkpt lat="45.34095755732725" lon="10.687228227008541"><ele>91.0</ele><time>2026-04-02T11:50:48Z</time></trkpt><trkpt lat="45.3409654836564" lon="10.687349313079102"><ele>91.0</ele><time>2026-04-02T11:50:49Z</time></trkpt><trkpt lat="45.3409940279565" lon="10.687496909122824"><ele>91.0</ele><time>2026-04-02T11:50:50Z</time></trkpt><trkpt lat="45.34103252729621" lon="10.687675754687108"><ele>91.0</ele><time>2026-04-02T11:50:51Z</time></trkpt><trkpt lat="45.341065989115144" lon="10.687846251162558"><ele>91.0</ele><time>2026-04-02T11:50:52Z</time></trkpt><trkpt lat="45.341092742980734" lon="10.687977644667614"><ele>91.0</ele><time>2026-04-02T11:50:53Z</time></trkpt><trkpt lat="45.34111173624101" lon="10.688070975881795"><ele>91.0</ele><time>2026-04-02T11:50:54Z</time></trkpt><trkpt lat="45.34112955269762" lon="10.688200427364094"><ele>91.0</ele><time>2026-04-02T11:50:56Z</time></trkpt><trkpt lat="45.34104499813232" lon="10.688215201336142"><ele>91.0</ele><time>2026-04-02T11:50:59Z</time></trkpt><trkpt lat="45.34097905020666" lon="10.688179596693216"><ele>91.0</ele><time>2026-04-02T11:51:00Z</time></trkpt><trkpt lat="45.3408902155245" lon="10.688149908922853"><ele>91.0</ele><time>2026-04-02T11:51:01Z</time></trkpt><trkpt lat="45.340783707991235" lon="10.688124273822654"><ele>91.0</ele><time>2026-04-02T11:51:02Z</time></trkpt><trkpt lat="45.34067041212159" lon="10.688083909535592"><ele>91.0</ele><time>2026-04-02T11:51:03Z</time></trkpt><trkpt lat="45.340537906513084" lon="10.688034716373947"><ele>91.0</ele><time>2026-04-02T11:51:04Z</time></trkpt><trkpt lat="45.34039106995486" lon="10.687976189330373"><ele>91.0</ele><time>2026-04-02T11:51:05Z</time></trkpt><trkpt lat="45.340246938699444" lon="10.68790137308261"><ele>90.33333333333333</ele><time>2026-04-02T11:51:06Z</time></trkpt><trkpt lat="45.34008531842831" lon="10.68780535690956"><ele>89.66666666666667</ele><time>2026-04-02T11:51:07Z</time></trkpt><trkpt lat="45.33993780067335" lon="10.687703869835204"><ele>89.0</ele><time>2026-04-02T11:51:08Z</time></trkpt><trkpt lat="45.339797373969866" lon="10.6876023253957"><ele>89.0</ele><time>2026-04-02T11:51:09Z</time></trkpt><trkpt lat="45.33966338741323" lon="10.687512436699267"><ele>89.0</ele><time>2026-04-02T11:51:10Z</time></trkpt><trkpt lat="45.3395358698676" lon="10.687419950614524"><ele>89.0</ele><time>2026-04-02T11:51:11Z</time></trkpt><trkpt lat="45.33941820134966" lon="10.687330767982969"><ele>89.0</ele><time>2026-04-02T11:51:12Z</time></trkpt><trkpt lat="45.339302473734385" lon="10.68724547433944"><ele>89.0</ele><time>2026-04-02T11:51:13Z</time></trkpt><trkpt lat="45.33918361922241" lon="10.687166146555997"><ele>89.0</ele><time>2026-04-02T11:51:14Z</time></trkpt><trkpt lat="45.33905475862819" lon="10.68708407556779"><ele>89.0</ele><time>2026-04-02T11:51:15Z</time></trkpt><trkpt lat="45.33892569906176" lon="10.687002598253184"><ele>89.0</ele><time>2026-04-02T11:51:16Z</time></trkpt><trkpt lat="45.338789124611104" lon="10.686919311888277"><ele>88.33333333333334</ele><time>2026-04-02T11:51:17Z</time></trkpt><trkpt lat="45.33864948277998" lon="10.686849665475991"><ele>87.66666666666667</ele><time>2026-04-02T11:51:18Z</time></trkpt><trkpt lat="45.3385030115694" lon="10.686783708793625"><ele>87.0</ele><time>2026-04-02T11:51:19Z</time></trkpt><trkpt lat="45.33835769176591" lon="10.68671160193885"><ele>87.0</ele><time>2026-04-02T11:51:20Z</time></trkpt><trkpt lat="45.33821212161327" lon="10.686646339068608"><ele>87.0</ele><time>2026-04-02T11:51:21Z</time></trkpt><trkpt lat="45.33806342420638" lon="10.686611509058933"><ele>87.0</ele><time>2026-04-02T11:51:22Z</time></trkpt><trkpt lat="45.337912218641094" lon="10.686578420873893"><ele>86.66666666666667</ele><time>2026-04-02T11:51:23Z</time></trkpt><trkpt lat="45.33776216520702" lon="10.686538282596127"><ele>86.33333333333334</ele><time>2026-04-02T11:51:24Z</time></trkpt><trkpt lat="45.33761201017823" lon="10.686489143693757"><ele>86.0</ele><time>2026-04-02T11:51:25Z</time></trkpt><trkpt lat="45.33746115325853" lon="10.686443970576503"><ele>86.0</ele><time>2026-04-02T11:51:26Z</time></trkpt><trkpt lat="45.337309366667824" lon="10.68641005871275"><ele>86.0</ele><time>2026-04-02T11:51:27Z</time></trkpt><trkpt lat="45.337154567964134" lon="10.686373358997576"><ele>86.0</ele><time>2026-04-02T11:51:28Z</time></trkpt><trkpt lat="45.33700218069578" lon="10.686335928713714"><ele>85.66666666666667</ele><time>2026-04-02T11:51:29Z</time></trkpt><trkpt lat="45.336847667792945" lon="10.686297257510038"><ele>85.33333333333333</ele><time>2026-04-02T11:51:30Z</time></trkpt><trkpt lat="45.3366949381555" lon="10.686260566934855"><ele>85.0</ele><time>2026-04-02T11:51:31Z</time></trkpt><trkpt lat="45.336544689597034" lon="10.686212264836154"><ele>85.0</ele><time>2026-04-02T11:51:32Z</time></trkpt><trkpt lat="45.33639889562022" lon="10.686155720533945"><ele>85.0</ele><time>2026-04-02T11:51:33Z</time></trkpt><trkpt lat="45.33625337484654" lon="10.686087313868097"><ele>85.0</ele><time>2026-04-02T11:51:34Z</time></trkpt><trkpt lat="45.336110786253805" lon="10.686029465425257"><ele>84.5</ele><time>2026-04-02T11:51:35Z</time></trkpt><trkpt lat="45.33597567799964" lon="10.685965944309183"><ele>84.0</ele><time>2026-04-02T11:51:36Z</time></trkpt><trkpt lat="45.33584329848499" lon="10.6858975540205"><ele>83.5</ele><time>2026-04-02T11:51:37Z</time></trkpt><trkpt lat="45.335714586765356" lon="10.68582982060524"><ele>83.0</ele><time>2026-04-02T11:51:38Z</time></trkpt><trkpt lat="45.33558907656246" lon="10.685754288390884"><ele>82.75</ele><time>2026-04-02T11:51:39Z</time></trkpt><trkpt lat="45.33547596879918" lon="10.685677847253743"><ele>82.5</ele><time>2026-04-02T11:51:40Z</time></trkpt><trkpt lat="45.335372616037375" lon="10.685619621331629"><ele>82.25</ele><time>2026-04-02T11:51:41Z</time></trkpt><trkpt lat="45.33526264992534" lon="10.685611975359715"><ele>82.0</ele><time>2026-04-02T11:51:42Z</time></trkpt><trkpt lat="45.33515018459826" lon="10.68562918499474"><ele>82.0</ele><time>2026-04-02T11:51:43Z</time></trkpt><trkpt lat="45.33503272296514" lon="10.685672320311273"><ele>82.0</ele><time>2026-04-02T11:51:44Z</time></trkpt><trkpt lat="45.33490339420671" lon="10.68573044085704"><ele>82.0</ele><time>2026-04-02T11:51:45Z</time></trkpt><trkpt lat="45.334768527982455" lon="10.68578174293147"><ele>82.0</ele><time>2026-04-02T11:51:46Z</time></trkpt><trkpt lat="45.33464978900865" lon="10.685793460026124"><ele>82.19999999999999</ele><time>2026-04-02T11:51:47Z</time></trkpt><trkpt lat="45.334545276265004" lon="10.685764677245176"><ele>82.4</ele><time>2026-04-02T11:51:48Z</time></trkpt><trkpt lat="45.334465678950544" lon="10.685701949626575"><ele>82.6</ele><time>2026-04-02T11:51:49Z</time></trkpt><trkpt lat="45.33440897491615" lon="10.685649574329451"><ele>82.80000000000001</ele><time>2026-04-02T11:51:50Z</time></trkpt><trkpt lat="45.334276649633885" lon="10.685614486717332"><ele>83.0</ele><time>2026-04-02T11:51:52Z</time></trkpt><trkpt lat="45.33417269582227" lon="10.685594281406306"><ele>83.0</ele><time>2026-04-02T11:51:53Z</time></trkpt><trkpt lat="45.33404939741994" lon="10.685572511937218"><ele>83.0</ele><time>2026-04-02T11:51:54Z</time></trkpt><trkpt lat="45.333912724269425" lon="10.685540971624139"><ele>83.0</ele><time>2026-04-02T11:51:55Z</time></trkpt><trkpt lat="45.33376746753933" lon="10.685511540765175"><ele>83.0</ele><time>2026-04-02T11:51:56Z</time></trkpt><trkpt lat="45.33361799652605" lon="10.68548872166175"><ele>84.33333333333334</ele><time>2026-04-02T11:51:57Z</time></trkpt><trkpt lat="45.333453874590376" lon="10.685459552293503"><ele>85.66666666666667</ele><time>2026-04-02T11:51:58Z</time></trkpt><trkpt lat="45.33327899007143" lon="10.685423845052025"><ele>87.0</ele><time>2026-04-02T11:51:59Z</time></trkpt><trkpt lat="45.333110121869886" lon="10.68538881292262"><ele>87.25</ele><time>2026-04-02T11:52:00Z</time></trkpt><trkpt lat="45.332950649210616" lon="10.685357932129413"><ele>87.5</ele><time>2026-04-02T11:52:01Z</time></trkpt><trkpt lat="45.33280947116543" lon="10.685328812258595"><ele>87.75</ele><time>2026-04-02T11:52:02Z</time></trkpt><trkpt lat="45.332681588046654" lon="10.685303009385402"><ele>88.0</ele><time>2026-04-02T11:52:03Z</time></trkpt><trkpt lat="45.33257408921413" lon="10.685288579220293"><ele>88.0</ele><time>2026-04-02T11:52:04Z</time></trkpt><trkpt lat="45.332484460969596" lon="10.685291281741172"><ele>88.0</ele><time>2026-04-02T11:52:05Z</time></trkpt><trkpt lat="45.33241327262673" lon="10.68531083541282"><ele>88.0</ele><time>2026-04-02T11:52:06Z</time></trkpt><trkpt lat="45.332346001329256" lon="10.685356138683225"><ele>88.0</ele><time>2026-04-02T11:52:08Z</time></trkpt><trkpt lat="45.33228207265854" lon="10.685366228681834"><ele>88.0</ele><time>2026-04-02T11:52:12Z</time></trkpt><trkpt lat="45.33218591272662" lon="10.685284626378563"><ele>88.0</ele><time>2026-04-02T11:52:14Z</time></trkpt><trkpt lat="45.33212229194283" lon="10.685256357892897"><ele>85.4</ele><time>2026-04-02T11:52:15Z</time></trkpt><trkpt lat="45.332045087961276" lon="10.68523488870047"><ele>82.80000000000001</ele><time>2026-04-02T11:52:16Z</time></trkpt><trkpt lat="45.33195817893028" lon="10.685200580552788"><ele>80.2</ele><time>2026-04-02T11:52:17Z</time></trkpt><trkpt lat="45.331861345169315" lon="10.685138602932359"><ele>77.6</ele><time>2026-04-02T11:52:18Z</time></trkpt><trkpt lat="45.3317682243278" lon="10.685050630738935"><ele>75.0</ele><time>2026-04-02T11:52:19Z</time></trkpt><trkpt lat="45.331672671995186" lon="10.684940927146762"><ele>75.0</ele><time>2026-04-02T11:52:20Z</time></trkpt><trkpt lat="45.33157205963021" lon="10.684837148358064"><ele>75.0</ele><time>2026-04-02T11:52:21Z</time></trkpt><trkpt lat="45.331470293118635" lon="10.684739755987524"><ele>75.0</ele><time>2026-04-02T11:52:22Z</time></trkpt><trkpt lat="45.33137492630804" lon="10.684664483411233"><ele>75.0</ele><time>2026-04-02T11:52:23Z</time></trkpt><trkpt lat="45.331264330006555" lon="10.684600172250615"><ele>75.0</ele><time>2026-04-02T11:52:24Z</time></trkpt><trkpt lat="45.33113182318309" lon="10.684534931262172"><ele>75.0</ele><time>2026-04-02T11:52:25Z</time></trkpt><trkpt lat="45.33099462733051" lon="10.684447632262355"><ele>75.0</ele><time>2026-04-02T11:52:26Z</time></trkpt><trkpt lat="45.330867169723845" lon="10.684369629396512"><ele>75.0</ele><time>2026-04-02T11:52:27Z</time></trkpt><trkpt lat="45.33076105816648" lon="10.684304475355562"><ele>75.0</ele><time>2026-04-02T11:52:28Z</time></trkpt><trkpt lat="45.330667896125355" lon="10.684245393039095"><ele>75.0</ele><time>2026-04-02T11:52:29Z</time></trkpt><trkpt lat="45.330590802340005" lon="10.684188094609746"><ele>75.0</ele><time>2026-04-02T11:52:30Z</time></trkpt><trkpt lat="45.33050623058087" lon="10.684132469754303"><ele>75.0</ele><time>2026-04-02T11:52:32Z</time></trkpt><trkpt lat="45.33045264028591" lon="10.684250122245572"><ele>75.0</ele><time>2026-04-02T11:52:34Z</time></trkpt><trkpt lat="45.33041932808045" lon="10.68436662362301"><ele>74.75</ele><time>2026-04-02T11:52:35Z</time></trkpt><trkpt lat="45.33037386434179" lon="10.684500568104829"><ele>74.5</ele><time>2026-04-02T11:52:36Z</time></trkpt><trkpt lat="45.33031844075678" lon="10.684642491763476"><ele>74.25</ele><time>2026-04-02T11:52:37Z</time></trkpt><trkpt lat="45.33026127166247" lon="10.68478415478005"><ele>74.0</ele><time>2026-04-02T11:52:38Z</time></trkpt><trkpt lat="45.33020052732253" lon="10.68492643852743"><ele>74.0</ele><time>2026-04-02T11:52:39Z</time></trkpt><trkpt lat="45.33012059767656" lon="10.685071055046283"><ele>74.0</ele><time>2026-04-02T11:52:40Z</time></trkpt><trkpt lat="45.330020823904135" lon="10.685204607438884"><ele>74.0</ele><time>2026-04-02T11:52:41Z</time></trkpt><trkpt lat="45.329903451373944" lon="10.685353963891593"><ele>74.0</ele><time>2026-04-02T11:52:42Z</time></trkpt><trkpt lat="45.32977225141826" lon="10.68553165481542"><ele>74.0</ele><time>2026-04-02T11:52:43Z</time></trkpt><trkpt lat="45.32965014003369" lon="10.685701963456347"><ele>74.0</ele><time>2026-04-02T11:52:44Z</time></trkpt><trkpt lat="45.32954802855201" lon="10.68584212567194"><ele>74.0</ele><time>2026-04-02T11:52:45Z</time></trkpt><trkpt lat="45.32945643469109" lon="10.685960902883423"><ele>74.0</ele><time>2026-04-02T11:52:46Z</time></trkpt><trkpt lat="45.32938122066739" lon="10.68605565329837"><ele>74.0</ele><time>2026-04-02T11:52:47Z</time></trkpt><trkpt lat="45.32932961004415" lon="10.68611464762153"><ele>74.0</ele><time>2026-04-02T11:52:48Z</time></trkpt><trkpt lat="45.32926121552483" lon="10.686099288619022"><ele>74.0</ele><time>2026-04-02T11:52:50Z</time></trkpt><trkpt lat="45.32919743038314" lon="10.68591849745386"><ele>74.0</ele><time>2026-04-02T11:52:52Z</time></trkpt><trkpt lat="45.32917016376151" lon="10.685785209704434"><ele>74.0</ele><time>2026-04-02T11:52:53Z</time></trkpt><trkpt lat="45.32913310326572" lon="10.685639231452136"><ele>74.0</ele><time>2026-04-02T11:52:54Z</time></trkpt><trkpt lat="45.3290881638295" lon="10.68546774676337"><ele>74.0</ele><time>2026-04-02T11:52:55Z</time></trkpt><trkpt lat="45.32903809379527" lon="10.685275499773498"><ele>74.0</ele><time>2026-04-02T11:52:56Z</time></trkpt><trkpt lat="45.32898273720724" lon="10.685066214586435"><ele>74.0</ele><time>2026-04-02T11:52:57Z</time></trkpt><trkpt lat="45.32892284122698" lon="10.684849137430897"><ele>75.0</ele><time>2026-04-02T11:52:58Z</time></trkpt><trkpt lat="45.328863180090444" lon="10.684638302104037"><ele>76.0</ele><time>2026-04-02T11:52:59Z</time></trkpt><trkpt lat="45.32880141403501" lon="10.684426017367874"><ele>77.0</ele><time>2026-04-02T11:53:00Z</time></trkpt><trkpt lat="45.32874211756866" lon="10.684214815316718"><ele>77.33333333333334</ele><time>2026-04-02T11:53:01Z</time></trkpt><trkpt lat="45.32868792460197" lon="10.68400734442742"><ele>77.66666666666667</ele><time>2026-04-02T11:53:02Z</time></trkpt><trkpt lat="45.32863928656643" lon="10.683801931179007"><ele>78.0</ele><time>2026-04-02T11:53:03Z</time></trkpt><trkpt lat="45.328595361289466" lon="10.683599602202095"><ele>79.33333333333333</ele><time>2026-04-02T11:53:04Z</time></trkpt><trkpt lat="45.328554200520635" lon="10.68339594473076"><ele>80.66666666666666</ele><time>2026-04-02T11:53:05Z</time></trkpt><trkpt lat="45.3285141735509" lon="10.683190737573502"><ele>82.0</ele><time>2026-04-02T11:53:06Z</time></trkpt><trkpt lat="45.32847090990033" lon="10.6829806945623"><ele>82.0</ele><time>2026-04-02T11:53:07Z</time></trkpt><trkpt lat="45.328424827330664" lon="10.682769857194138"><ele>82.0</ele><time>2026-04-02T11:53:08.001Z</time></trkpt><trkpt lat="45.328381852985075" lon="10.68255302218002"><ele>82.0</ele><time>2026-04-02T11:53:09.001Z</time></trkpt><trkpt lat="45.32832893409695" lon="10.682335424089008"><ele>82.66666666666666</ele><time>2026-04-02T11:53:10.001Z</time></trkpt><trkpt lat="45.328250618279284" lon="10.682125601500685"><ele>83.33333333333333</ele><time>2026-04-02T11:53:11.001Z</time></trkpt><trkpt lat="45.32816714734146" lon="10.681926413544698"><ele>84.0</ele><time>2026-04-02T11:53:12.001Z</time></trkpt><trkpt lat="45.32808286130244" lon="10.68173334216639"><ele>85.33333333333333</ele><time>2026-04-02T11:53:13.001Z</time></trkpt><trkpt lat="45.32799985117044" lon="10.681539255484747"><ele>86.66666666666666</ele><time>2026-04-02T11:53:14.001Z</time></trkpt><trkpt lat="45.327922525051825" lon="10.681353718760029"><ele>88.0</ele><time>2026-04-02T11:53:15.001Z</time></trkpt><trkpt lat="45.32784766609967" lon="10.681165450694817"><ele>87.33333333333333</ele><time>2026-04-02T11:53:16.001Z</time></trkpt><trkpt lat="45.32777546769788" lon="10.680973206142047"><ele>86.66666666666667</ele><time>2026-04-02T11:53:17.001Z</time></trkpt><trkpt lat="45.32770027979945" lon="10.680781976930621"><ele>86.0</ele><time>2026-04-02T11:53:18.001Z</time></trkpt><trkpt lat="45.327620820307025" lon="10.680590834722274"><ele>86.0</ele><time>2026-04-02T11:53:19.001Z</time></trkpt><trkpt lat="45.327538839418374" lon="10.68039759915694"><ele>86.0</ele><time>2026-04-02T11:53:20.001Z</time></trkpt><trkpt lat="45.32745430529824" lon="10.680205006848254"><ele>86.0</ele><time>2026-04-02T11:53:21Z</time></trkpt><trkpt lat="45.32735977207249" lon="10.680018816608795"><ele>86.33333333333334</ele><time>2026-04-02T11:53:22Z</time></trkpt><trkpt lat="45.32724247852294" lon="10.679835222678246"><ele>86.66666666666667</ele><time>2026-04-02T11:53:23Z</time></trkpt><trkpt lat="45.327139563726305" lon="10.679654838015994"><ele>87.0</ele><time>2026-04-02T11:53:24Z</time></trkpt><trkpt lat="45.32704519007316" lon="10.679476072953147"><ele>89.33333333333333</ele><time>2026-04-02T11:53:25Z</time></trkpt><trkpt lat="45.326963290687594" lon="10.679286846910918"><ele>91.66666666666666</ele><time>2026-04-02T11:53:26Z</time></trkpt><trkpt lat="45.32689416290638" lon="10.67908812977424"><ele>94.0</ele><time>2026-04-02T11:53:27Z</time></trkpt><trkpt lat="45.32683542929611" lon="10.678881049118269"><ele>94.0</ele><time>2026-04-02T11:53:27.999Z</time></trkpt><trkpt lat="45.326782848754924" lon="10.678673277447619"><ele>94.0</ele><time>2026-04-02T11:53:28.999Z</time></trkpt><trkpt lat="45.32673415909843" lon="10.67845642565007"><ele>94.0</ele><time>2026-04-02T11:53:29.999Z</time></trkpt><trkpt lat="45.32668604416444" lon="10.67822754340182"><ele>94.33333333333333</ele><time>2026-04-02T11:53:30.999Z</time></trkpt><trkpt lat="45.32664007326246" lon="10.67798955632927"><ele>94.66666666666667</ele><time>2026-04-02T11:53:31.999Z</time></trkpt><trkpt lat="45.326607895016956" lon="10.67775030289471"><ele>95.0</ele><time>2026-04-02T11:53:32.999Z</time></trkpt><trkpt lat="45.326583903895454" lon="10.677507270469079"><ele>95.0</ele><time>2026-04-02T11:53:33.999Z</time></trkpt><trkpt lat="45.32656537294166" lon="10.677257427511456"><ele>95.0</ele><time>2026-04-02T11:53:34.999Z</time></trkpt><trkpt lat="45.326548864805076" lon="10.67700208871369"><ele>95.0</ele><time>2026-04-02T11:53:35.999Z</time></trkpt><trkpt lat="45.32653119031766" lon="10.676756101568587"><ele>94.66666666666667</ele><time>2026-04-02T11:53:36.999Z</time></trkpt><trkpt lat="45.32651137152357" lon="10.676528148087694"><ele>94.33333333333333</ele><time>2026-04-02T11:53:37.999Z</time></trkpt><trkpt lat="45.326488619877615" lon="10.676307727231901"><ele>94.0</ele><time>2026-04-02T11:53:38.999Z</time></trkpt><trkpt lat="45.32645008650907" lon="10.67608786604201"><ele>93.33333333333333</ele><time>2026-04-02T11:53:39.999Z</time></trkpt><trkpt lat="45.3263832931496" lon="10.675872011188613"><ele>92.66666666666667</ele><time>2026-04-02T11:53:40.999Z</time></trkpt><trkpt lat="45.32630031206001" lon="10.67567146225313"><ele>92.0</ele><time>2026-04-02T11:53:41.999Z</time></trkpt><trkpt lat="45.32620289496439" lon="10.675480178927616"><ele>92.0</ele><time>2026-04-02T11:53:42.999Z</time></trkpt><trkpt lat="45.32608731235486" lon="10.675295743075262"><ele>92.0</ele><time>2026-04-02T11:53:43.999Z</time></trkpt><trkpt lat="45.325968103700035" lon="10.67510677092611"><ele>92.0</ele><time>2026-04-02T11:53:44.999Z</time></trkpt><trkpt lat="45.3258459201191" lon="10.674907857023218"><ele>91.66666666666667</ele><time>2026-04-02T11:53:45.999Z</time></trkpt><trkpt lat="45.32571666387139" lon="10.674706113969338"><ele>91.33333333333333</ele><time>2026-04-02T11:53:46.999Z</time></trkpt><trkpt lat="45.325591607363364" lon="10.67451100342105"><ele>91.0</ele><time>2026-04-02T11:53:47.999Z</time></trkpt><trkpt lat="45.32547851954787" lon="10.674331573154218"><ele>90.33333333333333</ele><time>2026-04-02T11:53:48.999Z</time></trkpt><trkpt lat="45.32537482132282" lon="10.674158643834364"><ele>89.66666666666667</ele><time>2026-04-02T11:53:49.999Z</time></trkpt><trkpt lat="45.325281595081606" lon="10.673979332005906"><ele>89.0</ele><time>2026-04-02T11:53:50.999Z</time></trkpt><trkpt lat="45.32521328517114" lon="10.673796686202705"><ele>89.0</ele><time>2026-04-02T11:53:51.999Z</time></trkpt><trkpt lat="45.32516568613102" lon="10.673626792854677"><ele>89.0</ele><time>2026-04-02T11:53:52.999Z</time></trkpt><trkpt lat="45.325133807566836" lon="10.673441292623913"><ele>89.0</ele><time>2026-04-02T11:53:53.999Z</time></trkpt><trkpt lat="45.325127685102416" lon="10.673236135156097"><ele>89.0</ele><time>2026-04-02T11:53:54.999Z</time></trkpt><trkpt lat="45.32513791842007" lon="10.673024656300107"><ele>89.0</ele><time>2026-04-02T11:53:55.999Z</time></trkpt><trkpt lat="45.325148484328366" lon="10.67281943925442"><ele>89.0</ele><time>2026-04-02T11:53:56.999Z</time></trkpt><trkpt lat="45.32516150748844" lon="10.672627629257633"><ele>89.0</ele><time>2026-04-02T11:53:57.999Z</time></trkpt><trkpt lat="45.32517254458054" lon="10.672435493059856"><ele>89.0</ele><time>2026-04-02T11:53:58.999Z</time></trkpt><trkpt lat="45.32517989326464" lon="10.672246764082805"><ele>89.0</ele><time>2026-04-02T11:53:59.999Z</time></trkpt><trkpt lat="45.325185049369985" lon="10.67208319445016"><ele>89.0</ele><time>2026-04-02T11:54:00.999Z</time></trkpt><trkpt lat="45.32519105581598" lon="10.671942634521235"><ele>89.0</ele><time>2026-04-02T11:54:01.999Z</time></trkpt><trkpt lat="45.32520257477045" lon="10.671793684555954"><ele>89.0</ele><time>2026-04-02T11:54:02.999Z</time></trkpt><trkpt lat="45.32521524201042" lon="10.671642566311295"><ele>89.0</ele><time>2026-04-02T11:54:03.999Z</time></trkpt><trkpt lat="45.32522261018627" lon="10.6715013011824"><ele>89.6</ele><time>2026-04-02T11:54:04.999Z</time></trkpt><trkpt lat="45.32522304843347" lon="10.671369805879907"><ele>90.2</ele><time>2026-04-02T11:54:05.999Z</time></trkpt><trkpt lat="45.325226195926604" lon="10.671249239949244"><ele>90.8</ele><time>2026-04-02T11:54:06.999Z</time></trkpt><trkpt lat="45.325236344070525" lon="10.671144822512975"><ele>91.39999999999999</ele><time>2026-04-02T11:54:07.999Z</time></trkpt><trkpt lat="45.325313868102796" lon="10.670988829827916"><ele>92.0</ele><time>2026-04-02T11:54:09.999Z</time></trkpt><trkpt lat="45.32537897903167" lon="10.670943038728208"><ele>92.16666666666667</ele><time>2026-04-02T11:54:10.999Z</time></trkpt><trkpt lat="45.325442325370815" lon="10.670885952752524"><ele>92.33333333333334</ele><time>2026-04-02T11:54:11.999Z</time></trkpt><trkpt lat="45.32548984277588" lon="10.670808896200803"><ele>92.5</ele><time>2026-04-02T11:54:12.999Z</time></trkpt><trkpt lat="45.32551284599887" lon="10.670721707002297"><ele>92.66666666666667</ele><time>2026-04-02T11:54:13.999Z</time></trkpt><trkpt lat="45.32554402137155" lon="10.670551364208302"><ele>92.83333333333333</ele><time>2026-04-02T11:54:15.999Z</time></trkpt><trkpt lat="45.32556961687353" lon="10.670468703919914"><ele>93.0</ele><time>2026-04-02T11:54:16.999Z</time></trkpt><trkpt lat="45.3256059393702" lon="10.670310790118648"><ele>91.0</ele><time>2026-04-02T11:54:18.999Z</time></trkpt><trkpt lat="45.32564402134533" lon="10.67014121562476"><ele>89.0</ele><time>2026-04-02T11:54:20.999Z</time></trkpt><trkpt lat="45.325674452822966" lon="10.67001419884068"><ele>87.0</ele><time>2026-04-02T11:54:21.999Z</time></trkpt><trkpt lat="45.325717469918054" lon="10.669834162806195"><ele>85.0</ele><time>2026-04-02T11:54:22.999Z</time></trkpt><trkpt lat="45.32577723581088" lon="10.669619109455077"><ele>85.0</ele><time>2026-04-02T11:54:23.999Z</time></trkpt><trkpt lat="45.325852991155095" lon="10.669370515116103"><ele>85.0</ele><time>2026-04-02T11:54:24.999Z</time></trkpt><trkpt lat="45.32595243567466" lon="10.669081721291484"><ele>85.0</ele><time>2026-04-02T11:54:25.999Z</time></trkpt><trkpt lat="45.32606426939871" lon="10.668759763281322"><ele>84.5</ele><time>2026-04-02T11:54:26.999Z</time></trkpt><trkpt lat="45.32618775382722" lon="10.668407703669942"><ele>84.0</ele><time>2026-04-02T11:54:27.999Z</time></trkpt><trkpt lat="45.326285670005014" lon="10.668116965747751"><ele>84.0</ele><time>2026-04-02T11:54:28.999Z</time></trkpt><trkpt lat="45.32636077032398" lon="10.667883259357989"><ele>84.0</ele><time>2026-04-02T11:54:29.999Z</time></trkpt><trkpt lat="45.32642198114145" lon="10.667662080593066"><ele>84.0</ele><time>2026-04-02T11:54:30.999Z</time></trkpt><trkpt lat="45.32645983895678" lon="10.667422553883064"><ele>84.66666666666667</ele><time>2026-04-02T11:54:31.999Z</time></trkpt><trkpt lat="45.32648069317852" lon="10.667118079110422"><ele>85.33333333333334</ele><time>2026-04-02T11:54:32.999Z</time></trkpt><trkpt lat="45.32648302124903" lon="10.66679589470481"><ele>86.0</ele><time>2026-04-02T11:54:33.999Z</time></trkpt><trkpt lat="45.32647698295002" lon="10.666432184635484"><ele>85.5</ele><time>2026-04-02T11:54:34.999Z</time></trkpt><trkpt lat="45.3264687458137" lon="10.666046516452097"><ele>85.0</ele><time>2026-04-02T11:54:35.999Z</time></trkpt><trkpt lat="45.32646138236401" lon="10.665627736822183"><ele>85.5</ele><time>2026-04-02T11:54:36.999Z</time></trkpt><trkpt lat="45.32645382215984" lon="10.665211948588523"><ele>86.0</ele><time>2026-04-02T11:54:37.999Z</time></trkpt><trkpt lat="45.326454955664204" lon="10.664852444531048"><ele>86.0</ele><time>2026-04-02T11:54:38.999Z</time></trkpt><trkpt lat="45.32646754886291" lon="10.664524286933949"><ele>86.0</ele><time>2026-04-02T11:54:39.999Z</time></trkpt><trkpt lat="45.3264990549009" lon="10.664206384904608"><ele>86.0</ele><time>2026-04-02T11:54:40.999Z</time></trkpt><trkpt lat="45.32654842906149" lon="10.663850310907772"><ele>86.0</ele><time>2026-04-02T11:54:41.999Z</time></trkpt><trkpt lat="45.3266024166947" lon="10.663491799182633"><ele>86.5</ele><time>2026-04-02T11:54:42.999Z</time></trkpt><trkpt lat="45.32664383371822" lon="10.66324581001835"><ele>87.0</ele><time>2026-04-02T11:54:43.999Z</time></trkpt><trkpt lat="45.32667427268874" lon="10.66306418177603"><ele>87.5</ele><time>2026-04-02T11:54:44.999Z</time></trkpt><trkpt lat="45.326708340477225" lon="10.662916393426112"><ele>88.0</ele><time>2026-04-02T11:54:45.999Z</time></trkpt><trkpt lat="45.32675238641166" lon="10.662818045546091"><ele>88.2</ele><time>2026-04-02T11:54:46.999Z</time></trkpt><trkpt lat="45.32682050887472" lon="10.662738854193218"><ele>88.4</ele><time>2026-04-02T11:54:47.999Z</time></trkpt><trkpt lat="45.3268614538416" lon="10.662633478946336"><ele>88.60000000000001</ele><time>2026-04-02T11:54:48.999Z</time></trkpt><trkpt lat="45.32685600468994" lon="10.662516228554527"><ele>88.80000000000001</ele><time>2026-04-02T11:54:49.999Z</time></trkpt><trkpt lat="45.32678201957004" lon="10.662398951966138"><ele>89.0</ele><time>2026-04-02T11:54:50.999Z</time></trkpt><trkpt lat="45.32683886721331" lon="10.66217195611259"><ele>89.0</ele><time>2026-04-02T11:54:51.999Z</time></trkpt><trkpt lat="45.32685831527298" lon="10.661954938320568"><ele>89.0</ele><time>2026-04-02T11:54:52.999Z</time></trkpt><trkpt lat="45.32687223243792" lon="10.661722923883524"><ele>89.0</ele><time>2026-04-02T11:54:53.999Z</time></trkpt><trkpt lat="45.326874235043135" lon="10.661481618903919"><ele>89.0</ele><time>2026-04-02T11:54:54.999Z</time></trkpt><trkpt lat="45.326861374665725" lon="10.661214135173342"><ele>89.0</ele><time>2026-04-02T11:54:55.999Z</time></trkpt><trkpt lat="45.32683747407846" lon="10.660911181973036"><ele>89.0</ele><time>2026-04-02T11:54:56.999Z</time></trkpt><trkpt lat="45.32679268922623" lon="10.660572201430757"><ele>89.75</ele><time>2026-04-02T11:54:57.999Z</time></trkpt><trkpt lat="45.326758400358855" lon="10.660309408658758"><ele>90.5</ele><time>2026-04-02T11:54:58.999Z</time></trkpt><trkpt lat="45.32673837741596" lon="10.660127003215134"><ele>91.25</ele><time>2026-04-02T11:54:59.999Z</time></trkpt><trkpt lat="45.326728764637274" lon="10.659993968000618"><ele>92.0</ele><time>2026-04-02T11:55:00.999Z</time></trkpt><trkpt lat="45.326734268142715" lon="10.659856316354421"><ele>93.0</ele><time>2026-04-02T11:55:01.999Z</time></trkpt><trkpt lat="45.326742719287196" lon="10.65967438959468"><ele>94.0</ele><time>2026-04-02T11:55:02.999Z</time></trkpt><trkpt lat="45.32676079375319" lon="10.65945446789502"><ele>95.0</ele><time>2026-04-02T11:55:03.999Z</time></trkpt><trkpt lat="45.32679547436376" lon="10.659197345675523"><ele>95.66666666666667</ele><time>2026-04-02T11:55:04.999Z</time></trkpt><trkpt lat="45.326832325100845" lon="10.658905307330038"><ele>96.33333333333334</ele><time>2026-04-02T11:55:05.999Z</time></trkpt><trkpt lat="45.32684203421187" lon="10.658679450999442"><ele>97.0</ele><time>2026-04-02T11:55:06.999Z</time></trkpt><trkpt lat="45.32683640347939" lon="10.658521760401431"><ele>97.8</ele><time>2026-04-02T11:55:07.999Z</time></trkpt><trkpt lat="45.326813223628605" lon="10.65842239190813"><ele>98.6</ele><time>2026-04-02T11:55:08.999Z</time></trkpt><trkpt lat="45.32682934347001" lon="10.658333944328055"><ele>99.39999999999999</ele><time>2026-04-02T11:55:09.999Z</time></trkpt><trkpt lat="45.32684768233524" lon="10.658175488168446"><ele>100.19999999999999</ele><time>2026-04-02T11:55:11.999Z</time></trkpt><trkpt lat="45.326915725670965" lon="10.658107159213987"><ele>101.0</ele><time>2026-04-02T11:55:12.999Z</time></trkpt><trkpt lat="45.32703137137892" lon="10.658097598488196"><ele>101.0</ele><time>2026-04-02T11:55:14Z</time></trkpt><trkpt lat="45.32714469822403" lon="10.658120343244509"><ele>101.0</ele><time>2026-04-02T11:55:15Z</time></trkpt><trkpt lat="45.32727109489405" lon="10.658104570055945"><ele>101.0</ele><time>2026-04-02T11:55:16Z</time></trkpt><trkpt lat="45.3274018208702" lon="10.658144918540312"><ele>101.0</ele><time>2026-04-02T11:55:17Z</time></trkpt><trkpt lat="45.32753906168502" lon="10.65821015411523"><ele>101.25</ele><time>2026-04-02T11:55:18Z</time></trkpt><trkpt lat="45.32768022589489" lon="10.658280400272144"><ele>101.5</ele><time>2026-04-02T11:55:19Z</time></trkpt><trkpt lat="45.32781086382089" lon="10.658387894731852"><ele>101.75</ele><time>2026-04-02T11:55:20Z</time></trkpt><trkpt lat="45.32794534306108" lon="10.658472857769713"><ele>102.0</ele><time>2026-04-02T11:55:21Z</time></trkpt><trkpt lat="45.328078605361654" lon="10.658559608232208"><ele>101.33333333333334</ele><time>2026-04-02T11:55:22Z</time></trkpt><trkpt lat="45.32821235448476" lon="10.65864302036636"><ele>100.66666666666667</ele><time>2026-04-02T11:55:23Z</time></trkpt><trkpt lat="45.3283585265125" lon="10.658731816393407"><ele>100.0</ele><time>2026-04-02T11:55:24Z</time></trkpt><trkpt lat="45.32851741725831" lon="10.658818284905452"><ele>100.0</ele><time>2026-04-02T11:55:25Z</time></trkpt><trkpt lat="45.32870470326045" lon="10.65891137061091"><ele>100.0</ele><time>2026-04-02T11:55:26Z</time></trkpt><trkpt lat="45.32891917096658" lon="10.659005748578842"><ele>100.0</ele><time>2026-04-02T11:55:27Z</time></trkpt><trkpt lat="45.329154491464074" lon="10.65910744926617"><ele>100.0</ele><time>2026-04-02T11:55:28Z</time></trkpt><trkpt lat="45.32935565129704" lon="10.659194017746993"><ele>100.0</ele><time>2026-04-02T11:55:29Z</time></trkpt><trkpt lat="45.329517357860794" lon="10.659275943792302"><ele>100.0</ele><time>2026-04-02T11:55:30Z</time></trkpt><trkpt lat="45.329647771327764" lon="10.65936492129175"><ele>99.8</ele><time>2026-04-02T11:55:31Z</time></trkpt><trkpt lat="45.329749850181344" lon="10.659448119373504"><ele>99.6</ele><time>2026-04-02T11:55:32Z</time></trkpt><trkpt lat="45.32983654322187" lon="10.659528221868726"><ele>99.4</ele><time>2026-04-02T11:55:33Z</time></trkpt><trkpt lat="45.32991042052138" lon="10.659599808402444"><ele>99.2</ele><time>2026-04-02T11:55:34Z</time></trkpt><trkpt lat="45.33003219403361" lon="10.65963575859615"><ele>99.0</ele><time>2026-04-02T11:55:35Z</time></trkpt><trkpt lat="45.330150906517524" lon="10.65963419154739"><ele>98.5</ele><time>2026-04-02T11:55:36Z</time></trkpt><trkpt lat="45.33028246342353" lon="10.659624442746841"><ele>98.0</ele><time>2026-04-02T11:55:37Z</time></trkpt><trkpt lat="45.330431336769614" lon="10.659616198289365"><ele>97.5</ele><time>2026-04-02T11:55:38Z</time></trkpt><trkpt lat="45.33058609003998" lon="10.659616496944297"><ele>97.0</ele><time>2026-04-02T11:55:39Z</time></trkpt><trkpt lat="45.33070848383676" lon="10.659633896417295"><ele>97.0</ele><time>2026-04-02T11:55:40Z</time></trkpt><trkpt lat="45.33082924409543" lon="10.659651986961626"><ele>97.0</ele><time>2026-04-02T11:55:41Z</time></trkpt><trkpt lat="45.33096470352323" lon="10.659669009381695"><ele>97.0</ele><time>2026-04-02T11:55:42Z</time></trkpt><trkpt lat="45.33110673165558" lon="10.659676569505686"><ele>97.0</ele><time>2026-04-02T11:55:43Z</time></trkpt><trkpt lat="45.331277995628916" lon="10.659669522302838"><ele>97.33333333333334</ele><time>2026-04-02T11:55:44Z</time></trkpt><trkpt lat="45.33147044828266" lon="10.659660078574797"><ele>97.66666666666666</ele><time>2026-04-02T11:55:45Z</time></trkpt><trkpt lat="45.33167024780652" lon="10.659648293970506"><ele>98.0</ele><time>2026-04-02T11:55:45.999Z</time></trkpt><trkpt lat="45.33184760275856" lon="10.659631009235135"><ele>98.0</ele><time>2026-04-02T11:55:46.999Z</time></trkpt><trkpt lat="45.33202603050776" lon="10.659654963469634"><ele>98.0</ele><time>2026-04-02T11:55:47.999Z</time></trkpt><trkpt lat="45.33219717606742" lon="10.659714874835277"><ele>98.0</ele><time>2026-04-02T11:55:48.999Z</time></trkpt><trkpt lat="45.33235496194229" lon="10.65976312946422"><ele>97.5</ele><time>2026-04-02T11:55:49.999Z</time></trkpt><trkpt lat="45.3324929676584" lon="10.65977943926456"><ele>97.0</ele><time>2026-04-02T11:55:50.999Z</time></trkpt><trkpt lat="45.3326322492467" lon="10.659762747725937"><ele>96.5</ele><time>2026-04-02T11:55:51.999Z</time></trkpt><trkpt lat="45.33275436182191" lon="10.659692026905589"><ele>96.0</ele><time>2026-04-02T11:55:52.999Z</time></trkpt><trkpt lat="45.33286590253367" lon="10.659589258377725"><ele>97.66666666666666</ele><time>2026-04-02T11:55:53.999Z</time></trkpt><trkpt lat="45.33299586250041" lon="10.65943242878215"><ele>99.33333333333333</ele><time>2026-04-02T11:55:54.999Z</time></trkpt><trkpt lat="45.33315318977631" lon="10.659258506048037"><ele>101.0</ele><time>2026-04-02T11:55:55.999Z</time></trkpt><trkpt lat="45.33329989856539" lon="10.659177489782032"><ele>101.0</ele><time>2026-04-02T11:55:56.999Z</time></trkpt><trkpt lat="45.33343978717203" lon="10.659130492650993"><ele>101.0</ele><time>2026-04-02T11:55:57.999Z</time></trkpt><trkpt lat="45.3336054225974" lon="10.659100946321328"><ele>101.0</ele><time>2026-04-02T11:55:58.999Z</time></trkpt><trkpt lat="45.33378314436342" lon="10.659103544867621"><ele>99.33333333333333</ele><time>2026-04-02T11:55:59.999Z</time></trkpt><trkpt lat="45.33396250563889" lon="10.65913477200247"><ele>97.66666666666666</ele><time>2026-04-02T11:56:00.999Z</time></trkpt><trkpt lat="45.33413347810655" lon="10.659201789165756"><ele>96.0</ele><time>2026-04-02T11:56:01.999Z</time></trkpt><trkpt lat="45.33433585596961" lon="10.659298177643656"><ele>96.0</ele><time>2026-04-02T11:56:02.999Z</time></trkpt><trkpt lat="45.3345749581695" lon="10.659413429274785"><ele>96.0</ele><time>2026-04-02T11:56:03.999Z</time></trkpt><trkpt lat="45.33477534175197" lon="10.659509407033147"><ele>94.5</ele><time>2026-04-02T11:56:04.999Z</time></trkpt><trkpt lat="45.33492500640766" lon="10.659585072298814"><ele>93.0</ele><time>2026-04-02T11:56:05.999Z</time></trkpt><trkpt lat="45.33505893779707" lon="10.659631311797536"><ele>91.5</ele><time>2026-04-02T11:56:06.999Z</time></trkpt><trkpt lat="45.33518620159114" lon="10.659601878500782"><ele>90.0</ele><time>2026-04-02T11:56:07.999Z</time></trkpt><trkpt lat="45.33531840781499" lon="10.659556101788267"><ele>90.0</ele><time>2026-04-02T11:56:08.999Z</time></trkpt><trkpt lat="45.33545720065177" lon="10.659477871632914"><ele>90.0</ele><time>2026-04-02T11:56:09.999Z</time></trkpt><trkpt lat="45.33561532850588" lon="10.659352197201486"><ele>90.0</ele><time>2026-04-02T11:56:10.999Z</time></trkpt><trkpt lat="45.33580106285854" lon="10.659219293037115"><ele>91.0</ele><time>2026-04-02T11:56:11.999Z</time></trkpt><trkpt lat="45.33598710229504" lon="10.65914044221253"><ele>92.0</ele><time>2026-04-02T11:56:12.999Z</time></trkpt><trkpt lat="45.336184231667495" lon="10.659043474957532"><ele>93.0</ele><time>2026-04-02T11:56:13.999Z</time></trkpt><trkpt lat="45.336384995571386" lon="10.658942681309522"><ele>92.66666666666667</ele><time>2026-04-02T11:56:14.999Z</time></trkpt><trkpt lat="45.336552513916224" lon="10.658843912306995"><ele>92.33333333333334</ele><time>2026-04-02T11:56:15.999Z</time></trkpt><trkpt lat="45.33670509685698" lon="10.658745514286965"><ele>92.0</ele><time>2026-04-02T11:56:16.999Z</time></trkpt><trkpt lat="45.33686623917699" lon="10.65862913936741"><ele>92.0</ele><time>2026-04-02T11:56:17.999Z</time></trkpt><trkpt lat="45.33705685709349" lon="10.65857279212664"><ele>92.0</ele><time>2026-04-02T11:56:18.999Z</time></trkpt><trkpt lat="45.337243925427956" lon="10.658515912665383"><ele>92.0</ele><time>2026-04-02T11:56:19.999Z</time></trkpt><trkpt lat="45.3374147041489" lon="10.658476434189598"><ele>91.8</ele><time>2026-04-02T11:56:20.999Z</time></trkpt><trkpt lat="45.33755720197714" lon="10.658453178970266"><ele>91.6</ele><time>2026-04-02T11:56:21.999Z</time></trkpt><trkpt lat="45.337668262687295" lon="10.658444159742254"><ele>91.39999999999999</ele><time>2026-04-02T11:56:22.999Z</time></trkpt><trkpt lat="45.33774489142902" lon="10.65844894819826"><ele>91.19999999999999</ele><time>2026-04-02T11:56:23.999Z</time></trkpt><trkpt lat="45.33781144292425" lon="10.658474477431088"><ele>91.0</ele><time>2026-04-02T11:56:25.999Z</time></trkpt><trkpt lat="45.33783732085683" lon="10.658169677407992"><ele>91.0</ele><time>2026-04-02T11:56:32.999Z</time></trkpt><trkpt lat="45.33780257988379" lon="10.657988645259909"><ele>91.0</ele><time>2026-04-02T11:56:33.999Z</time></trkpt><trkpt lat="45.33776317545221" lon="10.657764292278173"><ele>91.0</ele><time>2026-04-02T11:56:34.999Z</time></trkpt><trkpt lat="45.33771335429679" lon="10.657493266863725"><ele>91.66666666666666</ele><time>2026-04-02T11:56:35.999Z</time></trkpt><trkpt lat="45.337662006558" lon="10.657195611806811"><ele>92.33333333333333</ele><time>2026-04-02T11:56:36.999Z</time></trkpt><trkpt lat="45.337616278335005" lon="10.65687020755786"><ele>93.0</ele><time>2026-04-02T11:56:37.999Z</time></trkpt><trkpt lat="45.33757629514956" lon="10.656528217798583"><ele>93.33333333333333</ele><time>2026-04-02T11:56:38.999Z</time></trkpt><trkpt lat="45.33754156620744" lon="10.656234088322897"><ele>93.66666666666666</ele><time>2026-04-02T11:56:39.999Z</time></trkpt><trkpt lat="45.337509667083104" lon="10.65594659257101"><ele>94.0</ele><time>2026-04-02T11:56:40.999Z</time></trkpt><trkpt lat="45.33748622462769" lon="10.655671052536134"><ele>93.66666666666666</ele><time>2026-04-02T11:56:41.999Z</time></trkpt><trkpt lat="45.33747566692915" lon="10.655404233530879"><ele>93.33333333333333</ele><time>2026-04-02T11:56:42.999Z</time></trkpt><trkpt lat="45.33747171379266" lon="10.655165360493294"><ele>93.0</ele><time>2026-04-02T11:56:43.999Z</time></trkpt><trkpt lat="45.33746062314618" lon="10.654948313396424"><ele>93.0</ele><time>2026-04-02T11:56:44.999Z</time></trkpt><trkpt lat="45.33744586297019" lon="10.65475983197184"><ele>93.0</ele><time>2026-04-02T11:56:45.999Z</time></trkpt><trkpt lat="45.337412120718724" lon="10.654586632888028"><ele>93.0</ele><time>2026-04-02T11:56:46.999Z</time></trkpt><trkpt lat="45.33741308875239" lon="10.654407136115593"><ele>93.0</ele><time>2026-04-02T11:56:47.999Z</time></trkpt><trkpt lat="45.3373989722768" lon="10.654253077383911"><ele>93.2</ele><time>2026-04-02T11:56:48.999Z</time></trkpt><trkpt lat="45.33739468587451" lon="10.654107070869522"><ele>93.4</ele><time>2026-04-02T11:56:49.999Z</time></trkpt><trkpt lat="45.33740717797336" lon="10.6539665500084"><ele>93.60000000000001</ele><time>2026-04-02T11:56:50.999Z</time></trkpt><trkpt lat="45.33742814861635" lon="10.653825936862368"><ele>93.80000000000001</ele><time>2026-04-02T11:56:51.999Z</time></trkpt><trkpt lat="45.33743636860765" lon="10.653695989387618"><ele>94.0</ele><time>2026-04-02T11:56:52.999Z</time></trkpt><trkpt lat="45.33741539934577" lon="10.653566028118503"><ele>94.0</ele><time>2026-04-02T11:56:53.999Z</time></trkpt><trkpt lat="45.33737048847139" lon="10.653449604758586"><ele>94.0</ele><time>2026-04-02T11:56:54.999Z</time></trkpt><trkpt lat="45.337304843838375" lon="10.65332389529334"><ele>94.0</ele><time>2026-04-02T11:56:55.999Z</time></trkpt><trkpt lat="45.33720740509174" lon="10.653167681930215"><ele>94.0</ele><time>2026-04-02T11:56:56.999Z</time></trkpt><trkpt lat="45.33712124376112" lon="10.653008520089527"><ele>94.0</ele><time>2026-04-02T11:56:57.999Z</time></trkpt><trkpt lat="45.33703710756045" lon="10.652855249025626"><ele>94.0</ele><time>2026-04-02T11:56:58.999Z</time></trkpt><trkpt lat="45.33699684423944" lon="10.652662075347683"><ele>94.0</ele><time>2026-04-02T11:56:59.999Z</time></trkpt><trkpt lat="45.336944252826044" lon="10.652479816523254"><ele>94.0</ele><time>2026-04-02T11:57:00.999Z</time></trkpt><trkpt lat="45.33689543955862" lon="10.652299637517014"><ele>94.0</ele><time>2026-04-02T11:57:01.999Z</time></trkpt><trkpt lat="45.33684921679331" lon="10.65211248103754"><ele>94.0</ele><time>2026-04-02T11:57:02.999Z</time></trkpt><trkpt lat="45.33679659140746" lon="10.651885704961224"><ele>94.0</ele><time>2026-04-02T11:57:03.999Z</time></trkpt><trkpt lat="45.33674690344706" lon="10.651648399311672"><ele>94.0</ele><time>2026-04-02T11:57:04.999Z</time></trkpt><trkpt lat="45.336704499658886" lon="10.651429546877807"><ele>94.0</ele><time>2026-04-02T11:57:05.999Z</time></trkpt><trkpt lat="45.336662927860374" lon="10.651194082171079"><ele>94.0</ele><time>2026-04-02T11:57:06.999Z</time></trkpt><trkpt lat="45.33662378007046" lon="10.650943140594363"><ele>94.0</ele><time>2026-04-02T11:57:07.999Z</time></trkpt><trkpt lat="45.33658831042598" lon="10.650699318663445"><ele>94.0</ele><time>2026-04-02T11:57:08.999Z</time></trkpt><trkpt lat="45.336555492432616" lon="10.650470259902338"><ele>94.0</ele><time>2026-04-02T11:57:09.999Z</time></trkpt><trkpt lat="45.33652480556874" lon="10.650264428561744"><ele>94.4</ele><time>2026-04-02T11:57:10.999Z</time></trkpt><trkpt lat="45.336501779685506" lon="10.650102367312126"><ele>94.80000000000001</ele><time>2026-04-02T11:57:11.999Z</time></trkpt><trkpt lat="45.33649000156142" lon="10.649978502278815"><ele>95.19999999999999</ele><time>2026-04-02T11:57:12.999Z</time></trkpt><trkpt lat="45.33651909293707" lon="10.64988055326833"><ele>95.6</ele><time>2026-04-02T11:57:14.999Z</time></trkpt><trkpt lat="45.336657558836755" lon="10.649902937773547"><ele>96.0</ele><time>2026-04-02T11:57:16.999Z</time></trkpt><trkpt lat="45.33677029093396" lon="10.649880529933048"><ele>96.0</ele><time>2026-04-02T11:57:17.999Z</time></trkpt><trkpt lat="45.33689988194638" lon="10.649878001334425"><ele>96.0</ele><time>2026-04-02T11:57:18.999Z</time></trkpt><trkpt lat="45.337068808686766" lon="10.649903258396735"><ele>96.0</ele><time>2026-04-02T11:57:20Z</time></trkpt><trkpt lat="45.33727388912252" lon="10.649909195520413"><ele>95.0</ele><time>2026-04-02T11:57:21Z</time></trkpt><trkpt lat="45.33750973960849" lon="10.649895438996575"><ele>94.0</ele><time>2026-04-02T11:57:22Z</time></trkpt><trkpt lat="45.337758793641285" lon="10.649901240191944"><ele>94.0</ele><time>2026-04-02T11:57:23Z</time></trkpt><trkpt lat="45.337963497106564" lon="10.649889185353125"><ele>94.0</ele><time>2026-04-02T11:57:24Z</time></trkpt><trkpt lat="45.33813181442693" lon="10.649888465061716"><ele>94.0</ele><time>2026-04-02T11:57:25Z</time></trkpt><trkpt lat="45.3383069519002" lon="10.649869446897116"><ele>94.5</ele><time>2026-04-02T11:57:26Z</time></trkpt><trkpt lat="45.33845344085539" lon="10.649848830988942"><ele>95.0</ele><time>2026-04-02T11:57:27Z</time></trkpt><trkpt lat="45.33857705397327" lon="10.64982397536786"><ele>95.5</ele><time>2026-04-02T11:57:28Z</time></trkpt><trkpt lat="45.338690048671126" lon="10.649773153567207"><ele>96.0</ele><time>2026-04-02T11:57:29Z</time></trkpt><trkpt lat="45.33880256126079" lon="10.649699564712565"><ele>96.0</ele><time>2026-04-02T11:57:30Z</time></trkpt><trkpt lat="45.33891690015831" lon="10.649612929289418"><ele>96.0</ele><time>2026-04-02T11:57:31Z</time></trkpt><trkpt lat="45.33903207095961" lon="10.649544619082286"><ele>96.0</ele><time>2026-04-02T11:57:32Z</time></trkpt><trkpt lat="45.33913394461542" lon="10.649490720841657"><ele>96.0</ele><time>2026-04-02T11:57:33Z</time></trkpt><trkpt lat="45.33919760763057" lon="10.649417851233105"><ele>96.0</ele><time>2026-04-02T11:57:34Z</time></trkpt><trkpt lat="45.33924074457838" lon="10.64933231507777"><ele>97.19999999999999</ele><time>2026-04-02T11:57:35Z</time></trkpt><trkpt lat="45.339284510758354" lon="10.649244462847877"><ele>98.39999999999999</ele><time>2026-04-02T11:57:36Z</time></trkpt><trkpt lat="45.33939946483541" lon="10.649288425538625"><ele>99.6</ele><time>2026-04-02T11:57:38Z</time></trkpt><trkpt lat="45.33949447357957" lon="10.649337147083612"><ele>100.8</ele><time>2026-04-02T11:57:39Z</time></trkpt><trkpt lat="45.339613657856155" lon="10.649385089895407"><ele>102.0</ele><time>2026-04-02T11:57:40Z</time></trkpt><trkpt lat="45.33975110713941" lon="10.649457415026435"><ele>102.5</ele><time>2026-04-02T11:57:41Z</time></trkpt><trkpt lat="45.33990572728131" lon="10.649541834871691"><ele>103.0</ele><time>2026-04-02T11:57:42Z</time></trkpt><trkpt lat="45.34002879779288" lon="10.649624491725792"><ele>103.5</ele><time>2026-04-02T11:57:43Z</time></trkpt><trkpt lat="45.34011554560105" lon="10.649677978839707"><ele>104.0</ele><time>2026-04-02T11:57:44Z</time></trkpt><trkpt lat="45.34021377133124" lon="10.649672571004189"><ele>103.99999999999999</ele><time>2026-04-02T11:57:46Z</time></trkpt><trkpt lat="45.34025343637366" lon="10.649601465385205"><ele>104.0</ele><time>2026-04-02T11:57:47Z</time></trkpt><trkpt lat="45.34029077773018" lon="10.649513080655474"><ele>104.0</ele><time>2026-04-02T11:57:48Z</time></trkpt><trkpt lat="45.34033706123175" lon="10.649433856337225"><ele>104.0</ele><time>2026-04-02T11:57:49Z</time></trkpt><trkpt lat="45.340424280143445" lon="10.6493302785477"><ele>103.99999999999999</ele><time>2026-04-02T11:57:51Z</time></trkpt><trkpt lat="45.340514175711235" lon="10.64923011541327"><ele>104.0</ele><time>2026-04-02T11:57:53Z</time></trkpt><trkpt lat="45.340582379254286" lon="10.649217417331828"><ele>104.25</ele><time>2026-04-02T11:57:54Z</time></trkpt><trkpt lat="45.340652897131555" lon="10.649272805314105"><ele>104.5</ele><time>2026-04-02T11:57:55Z</time></trkpt><trkpt lat="45.340744997229606" lon="10.649374931615244"><ele>104.75</ele><time>2026-04-02T11:57:56Z</time></trkpt><trkpt lat="45.34087110955727" lon="10.649449337509978"><ele>105.0</ele><time>2026-04-02T11:57:57Z</time></trkpt><trkpt lat="45.3410040482491" lon="10.649473421037632"><ele>104.5</ele><time>2026-04-02T11:57:58Z</time></trkpt><trkpt lat="45.34110074359449" lon="10.649453639889954"><ele>104.0</ele><time>2026-04-02T11:57:59Z</time></trkpt><trkpt lat="45.34119332918077" lon="10.649457192393765"><ele>103.5</ele><time>2026-04-02T11:58:00Z</time></trkpt><trkpt lat="45.34128947213425" lon="10.649451803437175"><ele>103.0</ele><time>2026-04-02T11:58:01Z</time></trkpt><trkpt lat="45.34136388246254" lon="10.649435227741707"><ele>102.5</ele><time>2026-04-02T11:58:02Z</time></trkpt><trkpt lat="45.341427527305214" lon="10.64943578106004"><ele>102.0</ele><time>2026-04-02T11:58:03Z</time></trkpt><trkpt lat="45.34149427805919" lon="10.649443606580606"><ele>101.6</ele><time>2026-04-02T11:58:04Z</time></trkpt><trkpt lat="45.34155871739622" lon="10.649385312743794"><ele>101.19999999999999</ele><time>2026-04-02T11:58:08Z</time></trkpt><trkpt lat="45.34159746030277" lon="10.649262363292689"><ele>100.8</ele><time>2026-04-02T11:58:09Z</time></trkpt><trkpt lat="45.34162887189831" lon="10.649106054410302"><ele>100.4</ele><time>2026-04-02T11:58:10Z</time></trkpt><trkpt lat="45.34165715385824" lon="10.648939543908797"><ele>100.0</ele><time>2026-04-02T11:58:11Z</time></trkpt><trkpt lat="45.34168354627594" lon="10.648765277389998"><ele>100.00000000000001</ele><time>2026-04-02T11:58:12Z</time></trkpt><trkpt lat="45.3417065514754" lon="10.648606279173983"><ele>100.0</ele><time>2026-04-02T11:58:13Z</time></trkpt><trkpt lat="45.34174662927674" lon="10.64847317386084"><ele>100.0</ele><time>2026-04-02T11:58:14Z</time></trkpt><trkpt lat="45.3418006993317" lon="10.648370839351205"><ele>100.0</ele><time>2026-04-02T11:58:15Z</time></trkpt><trkpt lat="45.3418464356217" lon="10.648288234481951"><ele>100.00000000000001</ele><time>2026-04-02T11:58:16Z</time></trkpt><trkpt lat="45.34185045214847" lon="10.648190318860527"><ele>100.0</ele><time>2026-04-02T11:58:17Z</time></trkpt><trkpt lat="45.34182379773213" lon="10.648055985343293"><ele>100.0</ele><time>2026-04-02T11:58:18Z</time></trkpt><trkpt lat="45.341793270612406" lon="10.647889736164155"><ele>100.0</ele><time>2026-04-02T11:58:18.999Z</time></trkpt><trkpt lat="45.3417556241993" lon="10.647671001840452"><ele>100.0</ele><time>2026-04-02T11:58:19.999Z</time></trkpt><trkpt lat="45.34172017474586" lon="10.647492183876931"><ele>100.0</ele><time>2026-04-02T11:58:20.999Z</time></trkpt><trkpt lat="45.34170775445304" lon="10.647367620586067"><ele>100.2</ele><time>2026-04-02T11:58:21.999Z</time></trkpt><trkpt lat="45.34171330752396" lon="10.64724231358349"><ele>100.4</ele><time>2026-04-02T11:58:22.999Z</time></trkpt><trkpt lat="45.3417089226912" lon="10.647145620003407"><ele>100.6</ele><time>2026-04-02T11:58:23.999Z</time></trkpt><trkpt lat="45.34165362801629" lon="10.647049242865519"><ele>100.8</ele><time>2026-04-02T11:58:25.999Z</time></trkpt><trkpt lat="45.34152396496361" lon="10.647051979773767"><ele>101.0</ele><time>2026-04-02T11:58:27.999Z</time></trkpt><trkpt lat="45.34144231950176" lon="10.646970097239832"><ele>100.75</ele><time>2026-04-02T11:58:29.999Z</time></trkpt><trkpt lat="45.34145415310034" lon="10.646793827730479"><ele>100.5</ele><time>2026-04-02T11:58:31.999Z</time></trkpt><trkpt lat="45.34146563386722" lon="10.64665094311497"><ele>100.25</ele><time>2026-04-02T11:58:32.999Z</time></trkpt><trkpt lat="45.34147634725881" lon="10.646425251488246"><ele>100.0</ele><time>2026-04-02T11:58:33.999Z</time></trkpt><trkpt lat="45.34148063914316" lon="10.646162862520763"><ele>99.66666666666667</ele><time>2026-04-02T11:58:34.999Z</time></trkpt><trkpt lat="45.34149140939859" lon="10.645870166156802"><ele>99.33333333333334</ele><time>2026-04-02T11:58:35.999Z</time></trkpt><trkpt lat="45.341500762473444" lon="10.645579421831153"><ele>99.0</ele><time>2026-04-02T11:58:36.999Z</time></trkpt><trkpt lat="45.34150315661896" lon="10.645320425745618"><ele>99.66666666666666</ele><time>2026-04-02T11:58:37.999Z</time></trkpt><trkpt lat="45.34151760432954" lon="10.645103703398322"><ele>100.33333333333333</ele><time>2026-04-02T11:58:38.999Z</time></trkpt><trkpt lat="45.34152796897971" lon="10.64488086259811"><ele>101.0</ele><time>2026-04-02T11:58:39.999Z</time></trkpt><trkpt lat="45.34153898060244" lon="10.64463477561708"><ele>102.0</ele><time>2026-04-02T11:58:40.999Z</time></trkpt><trkpt lat="45.34154945508411" lon="10.644373755746958"><ele>103.0</ele><time>2026-04-02T11:58:41.999Z</time></trkpt><trkpt lat="45.34155465736713" lon="10.644149487769774"><ele>104.0</ele><time>2026-04-02T11:58:42.999Z</time></trkpt><trkpt lat="45.341569425297564" lon="10.643994630026013"><ele>104.0</ele><time>2026-04-02T11:58:43.999Z</time></trkpt><trkpt lat="45.34159072342119" lon="10.643885176793415"><ele>104.0</ele><time>2026-04-02T11:58:44.999Z</time></trkpt><trkpt lat="45.34163699575808" lon="10.643737412371069"><ele>104.0</ele><time>2026-04-02T11:58:45.999Z</time></trkpt><trkpt lat="45.34170301341603" lon="10.643596566909464"><ele>104.0</ele><time>2026-04-02T11:58:46.999Z</time></trkpt><trkpt lat="45.34176429703049" lon="10.643395349381741"><ele>104.25</ele><time>2026-04-02T11:58:47.999Z</time></trkpt><trkpt lat="45.34180530286407" lon="10.643167275372706"><ele>104.5</ele><time>2026-04-02T11:58:48.999Z</time></trkpt><trkpt lat="45.34185768197214" lon="10.642967530536826"><ele>104.75</ele><time>2026-04-02T11:58:49.999Z</time></trkpt><trkpt lat="45.34188801074364" lon="10.642798705792337"><ele>105.0</ele><time>2026-04-02T11:58:50.999Z</time></trkpt><trkpt lat="45.341932507959676" lon="10.64261782484215"><ele>105.0</ele><time>2026-04-02T11:58:51.999Z</time></trkpt><trkpt lat="45.341962373067716" lon="10.64246957841478"><ele>105.0</ele><time>2026-04-02T11:58:52.999Z</time></trkpt><trkpt lat="45.34200350788296" lon="10.642324424420272"><ele>105.0</ele><time>2026-04-02T11:58:53.999Z</time></trkpt><trkpt lat="45.342021162662355" lon="10.642160336007729"><ele>105.0</ele><time>2026-04-02T11:58:54.999Z</time></trkpt><trkpt lat="45.34204848406115" lon="10.642002283109896"><ele>105.0</ele><time>2026-04-02T11:58:55.999Z</time></trkpt><trkpt lat="45.342074635980225" lon="10.64174301657471"><ele>105.5</ele><time>2026-04-02T11:58:56.999Z</time></trkpt><trkpt lat="45.3420948951795" lon="10.641583231547003"><ele>106.0</ele><time>2026-04-02T11:58:57.999Z</time></trkpt><trkpt lat="45.34213368238825" lon="10.641418116212355"><ele>106.5</ele><time>2026-04-02T11:58:58.999Z</time></trkpt><trkpt lat="45.34219681746817" lon="10.641284129047415"><ele>107.0</ele><time>2026-04-02T11:58:59.999Z</time></trkpt><trkpt lat="45.34228072584994" lon="10.64114245847242"><ele>108.25</ele><time>2026-04-02T11:59:00.999Z</time></trkpt><trkpt lat="45.342363602417805" lon="10.640968212651511"><ele>109.5</ele><time>2026-04-02T11:59:01.999Z</time></trkpt><trkpt lat="45.342407748805705" lon="10.640812228351894"><ele>110.75</ele><time>2026-04-02T11:59:02.999Z</time></trkpt><trkpt lat="45.34243976199081" lon="10.640642289615013"><ele>112.0</ele><time>2026-04-02T11:59:03.999Z</time></trkpt><trkpt lat="45.342441332280046" lon="10.64049319681964"><ele>112.0</ele><time>2026-04-02T11:59:04.999Z</time></trkpt><trkpt lat="45.34242728250708" lon="10.640319598107835"><ele>112.0</ele><time>2026-04-02T11:59:05.999Z</time></trkpt><trkpt lat="45.342408241527544" lon="10.640168254117196"><ele>112.0</ele><time>2026-04-02T11:59:06.999Z</time></trkpt><trkpt lat="45.342395992248456" lon="10.640065078043667"><ele>112.0</ele><time>2026-04-02T11:59:07.999Z</time></trkpt><trkpt lat="45.342477386794855" lon="10.639842845694"><ele>113.6</ele><time>2026-04-02T11:59:09.999Z</time></trkpt><trkpt lat="45.34254790127202" lon="10.639715213469627"><ele>115.19999999999999</ele><time>2026-04-02T11:59:10.999Z</time></trkpt><trkpt lat="45.34263372554064" lon="10.639618894500654"><ele>116.8</ele><time>2026-04-02T11:59:11.999Z</time></trkpt><trkpt lat="45.34270734534269" lon="10.639572666621753"><ele>118.4</ele><time>2026-04-02T11:59:12.999Z</time></trkpt><trkpt lat="45.3427968424045" lon="10.639540821924504"><ele>120.0</ele><time>2026-04-02T11:59:13.999Z</time></trkpt><trkpt lat="45.34288321105315" lon="10.639510639113876"><ele>120.8</ele><time>2026-04-02T11:59:14.999Z</time></trkpt><trkpt lat="45.342928645895945" lon="10.639439683815127"><ele>121.6</ele><time>2026-04-02T11:59:15.999Z</time></trkpt><trkpt lat="45.34296667600203" lon="10.639335573045441"><ele>122.4</ele><time>2026-04-02T11:59:16.999Z</time></trkpt><trkpt lat="45.34299223664165" lon="10.639208505003696"><ele>123.2</ele><time>2026-04-02T11:59:17.999Z</time></trkpt><trkpt lat="45.343024574627485" lon="10.63903148029871"><ele>124.0</ele><time>2026-04-02T11:59:18.999Z</time></trkpt><trkpt lat="45.34306373048584" lon="10.638839354167505"><ele>124.5</ele><time>2026-04-02T11:59:19.999Z</time></trkpt><trkpt lat="45.343130420610805" lon="10.638689818645066"><ele>125.0</ele><time>2026-04-02T11:59:20.999Z</time></trkpt><trkpt lat="45.34320693275701" lon="10.638550125968845"><ele>125.5</ele><time>2026-04-02T11:59:21.999Z</time></trkpt><trkpt lat="45.343288799199335" lon="10.638386400221439"><ele>126.0</ele><time>2026-04-02T11:59:22.999Z</time></trkpt><trkpt lat="45.34337965203741" lon="10.638247417130433"><ele>126.8</ele><time>2026-04-02T11:59:23.999Z</time></trkpt><trkpt lat="45.343452276762065" lon="10.6381275751338"><ele>127.6</ele><time>2026-04-02T11:59:24.999Z</time></trkpt><trkpt lat="45.343529253974864" lon="10.637995587379512"><ele>128.4</ele><time>2026-04-02T11:59:26Z</time></trkpt><trkpt lat="45.34360392014051" lon="10.63790545602041"><ele>129.2</ele><time>2026-04-02T11:59:27Z</time></trkpt><trkpt lat="45.34365696904268" lon="10.637791794233623"><ele>130.0</ele><time>2026-04-02T11:59:28Z</time></trkpt><trkpt lat="45.343689445508936" lon="10.637659579443406"><ele>130.0</ele><time>2026-04-02T11:59:29Z</time></trkpt><trkpt lat="45.34375088960449" lon="10.63753775640125"><ele>130.0</ele><time>2026-04-02T11:59:30Z</time></trkpt><trkpt lat="45.3437756671792" lon="10.637436126942918"><ele>130.0</ele><time>2026-04-02T11:59:31Z</time></trkpt><trkpt lat="45.34380010476167" lon="10.637327852955462"><ele>130.0</ele><time>2026-04-02T11:59:32Z</time></trkpt><trkpt lat="45.343805776149686" lon="10.63712258438206"><ele>130.0</ele><time>2026-04-02T11:59:34Z</time></trkpt><trkpt lat="45.343809316935825" lon="10.636976648254429"><ele>129.8</ele><time>2026-04-02T11:59:35Z</time></trkpt><trkpt lat="45.34381805360966" lon="10.636854800407756"><ele>129.6</ele><time>2026-04-02T11:59:36Z</time></trkpt><trkpt lat="45.343830224442684" lon="10.636744177756803"><ele>129.4</ele><time>2026-04-02T11:59:37Z</time></trkpt><trkpt lat="45.34389967457906" lon="10.636642268547101"><ele>129.2</ele><time>2026-04-02T11:59:39Z</time></trkpt><trkpt lat="45.3440084179428" lon="10.636638002278385"><ele>129.0</ele><time>2026-04-02T11:59:41Z</time></trkpt><trkpt lat="45.3441145428355" lon="10.6366462846274"><ele>128.6</ele><time>2026-04-02T11:59:43Z</time></trkpt><trkpt lat="45.34422738849243" lon="10.636620933093694"><ele>128.2</ele><time>2026-04-02T11:59:45Z</time></trkpt><trkpt lat="45.34434576888991" lon="10.636610498519087"><ele>127.79999999999998</ele><time>2026-04-02T11:59:47Z</time></trkpt><trkpt lat="45.34442396263572" lon="10.636615726230366"><ele>127.39999999999999</ele><time>2026-04-02T11:59:48Z</time></trkpt><trkpt lat="45.344536340332304" lon="10.636634700693312"><ele>127.0</ele><time>2026-04-02T11:59:49Z</time></trkpt><trkpt lat="45.34463352942989" lon="10.636638172376605"><ele>127.00000000000001</ele><time>2026-04-02T11:59:50Z</time></trkpt><trkpt lat="45.344696524389974" lon="10.63664283943159"><ele>127.0</ele><time>2026-04-02T11:59:51Z</time></trkpt><trkpt lat="45.34478681173258" lon="10.636683250615828"><ele>127.0</ele><time>2026-04-02T11:59:53Z</time></trkpt><trkpt lat="45.344836730619186" lon="10.636756519766921"><ele>127.0</ele><time>2026-04-02T11:59:54Z</time></trkpt><trkpt lat="45.34488853780381" lon="10.636854402502005"><ele>127.00000000000001</ele><time>2026-04-02T11:59:55Z</time></trkpt><trkpt lat="45.34494855803861" lon="10.636934009268714"><ele>127.0</ele><time>2026-04-02T11:59:56Z</time></trkpt><trkpt lat="45.345013561394325" lon="10.637014681431348"><ele>126.0</ele><time>2026-04-02T11:59:57Z</time></trkpt><trkpt lat="45.34508164059704" lon="10.637105787983792"><ele>124.99999999999999</ele><time>2026-04-02T11:59:58Z</time></trkpt><trkpt lat="45.3451662088938" lon="10.63719271272162"><ele>123.99999999999999</ele><time>2026-04-02T11:59:59Z</time></trkpt><trkpt lat="45.34527114991929" lon="10.637271155547161"><ele>123.0</ele><time>2026-04-02T12:00:00Z</time></trkpt><trkpt lat="45.34538886962832" lon="10.637334150559655"><ele>122.0</ele><time>2026-04-02T12:00:01Z</time></trkpt><trkpt lat="45.34552778347409" lon="10.637417570885152"><ele>122.0</ele><time>2026-04-02T12:00:02Z</time></trkpt><trkpt lat="45.345664799898195" lon="10.637526571351092"><ele>121.99999999999999</ele><time>2026-04-02T12:00:03Z</time></trkpt><trkpt lat="45.34574145016566" lon="10.637610714180433"><ele>121.99999999999999</ele><time>2026-04-02T12:00:04Z</time></trkpt><trkpt lat="45.345819987861816" lon="10.637693002265067"><ele>122.0</ele><time>2026-04-02T12:00:06Z</time></trkpt><trkpt lat="45.34588082966068" lon="10.637728126273732"><ele>122.0</ele><time>2026-04-02T12:00:21Z</time></trkpt><trkpt lat="45.345891714127646" lon="10.637866360199684"><ele>122.0</ele><time>2026-04-02T12:00:25Z</time></trkpt><trkpt lat="45.34592109523505" lon="10.637963029790207"><ele>121.99999999999999</ele><time>2026-04-02T12:00:26Z</time></trkpt><trkpt lat="45.34596843041934" lon="10.638103172244001"><ele>121.99999999999999</ele><time>2026-04-02T12:00:27Z</time></trkpt><trkpt lat="45.34602139469353" lon="10.638256058285368"><ele>122.0</ele><time>2026-04-02T12:00:28Z</time></trkpt><trkpt lat="45.34607093035104" lon="10.638376986880715"><ele>122.0</ele><time>2026-04-02T12:00:29Z</time></trkpt><trkpt lat="45.346107362909166" lon="10.638457088807469"><ele>122.0</ele><time>2026-04-02T12:00:30Z</time></trkpt><trkpt lat="45.34614907337623" lon="10.638554190354347"><ele>121.99999999999999</ele><time>2026-04-02T12:00:32Z</time></trkpt><trkpt lat="45.34619391380155" lon="10.638646465567772"><ele>121.99999999999999</ele><time>2026-04-02T12:00:33Z</time></trkpt><trkpt lat="45.34623526803506" lon="10.63877938169695"><ele>122.0</ele><time>2026-04-02T12:00:34Z</time></trkpt><trkpt lat="45.34625517191644" lon="10.638940110544807"><ele>122.0</ele><time>2026-04-02T12:00:35Z</time></trkpt><trkpt lat="45.34626801704484" lon="10.63912452109259"><ele>122.0</ele><time>2026-04-02T12:00:36Z</time></trkpt><trkpt lat="45.34628162487491" lon="10.639336701152347"><ele>122.0</ele><time>2026-04-02T12:00:37Z</time></trkpt><trkpt lat="45.3463129593995" lon="10.639569436886132"><ele>122.0</ele><time>2026-04-02T12:00:38Z</time></trkpt><trkpt lat="45.34635328272664" lon="10.63982634461023"><ele>119.5</ele><time>2026-04-02T12:00:39Z</time></trkpt><trkpt lat="45.346391620954655" lon="10.6400471718911"><ele>117.0</ele><time>2026-04-02T12:00:40Z</time></trkpt><trkpt lat="45.346424088222236" lon="10.640243147099122"><ele>114.5</ele><time>2026-04-02T12:00:41Z</time></trkpt><trkpt lat="45.34644278332399" lon="10.640416541343129"><ele>112.0</ele><time>2026-04-02T12:00:42Z</time></trkpt><trkpt lat="45.346433512309616" lon="10.64058225269484"><ele>111.8</ele><time>2026-04-02T12:00:43Z</time></trkpt><trkpt lat="45.34638933986756" lon="10.640777619936097"><ele>111.6</ele><time>2026-04-02T12:00:44Z</time></trkpt><trkpt lat="45.346352402291075" lon="10.640952295537655"><ele>111.39999999999999</ele><time>2026-04-02T12:00:45Z</time></trkpt><trkpt lat="45.34633445145018" lon="10.641074457597355"><ele>111.19999999999999</ele><time>2026-04-02T12:00:46Z</time></trkpt><trkpt lat="45.34634967609257" lon="10.641170682473287"><ele>111.0</ele><time>2026-04-02T12:00:47Z</time></trkpt><trkpt lat="45.34640287159379" lon="10.641275575804277"><ele>110.8</ele><time>2026-04-02T12:00:48Z</time></trkpt><trkpt lat="45.34646981677159" lon="10.641421954704738"><ele>110.6</ele><time>2026-04-02T12:00:49Z</time></trkpt><trkpt lat="45.3465325193538" lon="10.641591985614953"><ele>110.4</ele><time>2026-04-02T12:00:50Z</time></trkpt><trkpt lat="45.346578122064926" lon="10.64172411403172"><ele>110.2</ele><time>2026-04-02T12:00:51Z</time></trkpt><trkpt lat="45.34661490040799" lon="10.641831860944603"><ele>110.0</ele><time>2026-04-02T12:00:52Z</time></trkpt><trkpt lat="45.346646826895224" lon="10.641932028635258"><ele>108.8</ele><time>2026-04-02T12:00:53Z</time></trkpt><trkpt lat="45.34667861633627" lon="10.642018942222006"><ele>107.6</ele><time>2026-04-02T12:00:53.999Z</time></trkpt><trkpt lat="45.34673068944671" lon="10.642118746699508"><ele>106.4</ele><time>2026-04-02T12:00:55.999Z</time></trkpt><trkpt lat="45.346846339761676" lon="10.642094829443517"><ele>105.2</ele><time>2026-04-02T12:00:57.999Z</time></trkpt><trkpt lat="45.346941739483555" lon="10.642068395914437"><ele>104.0</ele><time>2026-04-02T12:00:58.999Z</time></trkpt><trkpt lat="45.347020665164166" lon="10.642048118064363"><ele>104.0</ele><time>2026-04-02T12:00:59.999Z</time></trkpt><trkpt lat="45.34710077534652" lon="10.64202662128181"><ele>104.0</ele><time>2026-04-02T12:01:01.999Z</time></trkpt><trkpt lat="45.34721831834606" lon="10.642004586012284"><ele>104.0</ele><time>2026-04-02T12:01:03.999Z</time></trkpt><trkpt lat="45.34732366623252" lon="10.641979505859748"><ele>104.0</ele><time>2026-04-02T12:01:04.999Z</time></trkpt><trkpt lat="45.34744359558941" lon="10.64195607435973"><ele>104.0</ele><time>2026-04-02T12:01:05.999Z</time></trkpt><trkpt lat="45.347574326771415" lon="10.641928000801832"><ele>104.6</ele><time>2026-04-02T12:01:06.999Z</time></trkpt><trkpt lat="45.34771230463129" lon="10.641902960596195"><ele>105.2</ele><time>2026-04-02T12:01:07.999Z</time></trkpt><trkpt lat="45.347826891466994" lon="10.641878219092092"><ele>105.79999999999998</ele><time>2026-04-02T12:01:08.999Z</time></trkpt><trkpt lat="45.34790620384838" lon="10.641855834927695"><ele>106.39999999999999</ele><time>2026-04-02T12:01:09.999Z</time></trkpt><trkpt lat="45.347980354081606" lon="10.64184109049661"><ele>107.0</ele><time>2026-04-02T12:01:10.999Z</time></trkpt><trkpt lat="45.348066613358164" lon="10.641820448901392"><ele>107.0</ele><time>2026-04-02T12:01:11.999Z</time></trkpt><trkpt lat="45.34819695386815" lon="10.641792627958775"><ele>106.99999999999999</ele><time>2026-04-02T12:01:12.999Z</time></trkpt><trkpt lat="45.34831772854219" lon="10.641768158167237"><ele>106.99999999999999</ele><time>2026-04-02T12:01:13.999Z</time></trkpt><trkpt lat="45.34840729194818" lon="10.641753244670653"><ele>107.0</ele><time>2026-04-02T12:01:14.999Z</time></trkpt><trkpt lat="45.34848902775988" lon="10.641746578121293"><ele>107.0</ele><time>2026-04-02T12:01:15.999Z</time></trkpt><trkpt lat="45.348573319968246" lon="10.641732945989045"><ele>106.99999999999999</ele><time>2026-04-02T12:01:16.999Z</time></trkpt><trkpt lat="45.348660618452975" lon="10.641715697231906"><ele>107.0</ele><time>2026-04-02T12:01:17.999Z</time></trkpt><trkpt lat="45.34872530617303" lon="10.64172012607656"><ele>107.0</ele><time>2026-04-02T12:01:18.999Z</time></trkpt><trkpt lat="45.3487719870378" lon="10.64184695113386"><ele>107.0</ele><time>2026-04-02T12:01:20.999Z</time></trkpt><trkpt lat="45.348772674267515" lon="10.64194295596484"><ele>106.99999999999999</ele><time>2026-04-02T12:01:21.999Z</time></trkpt><trkpt lat="45.34876421903281" lon="10.642066682480877"><ele>107.0</ele><time>2026-04-02T12:01:22.999Z</time></trkpt><trkpt lat="45.348751563267605" lon="10.642200763117875"><ele>107.33333333333333</ele><time>2026-04-02T12:01:23.999Z</time></trkpt><trkpt lat="45.34874281017192" lon="10.642321868833815"><ele>107.66666666666666</ele><time>2026-04-02T12:01:24.999Z</time></trkpt><trkpt lat="45.34875173727589" lon="10.642422647588772"><ele>108.0</ele><time>2026-04-02T12:01:25.999Z</time></trkpt><trkpt lat="45.34882346672671" lon="10.64248898245442"><ele>108.33333333333334</ele><time>2026-04-02T12:01:27.999Z</time></trkpt><trkpt lat="45.34892448999492" lon="10.642506714046293"><ele>108.66666666666667</ele><time>2026-04-02T12:01:29.999Z</time></trkpt><trkpt lat="45.34901694373343" lon="10.642533559389102"><ele>109.0</ele><time>2026-04-02T12:01:30.999Z</time></trkpt><trkpt lat="45.34913259353895" lon="10.642566019167763"><ele>108.0</ele><time>2026-04-02T12:01:32Z</time></trkpt><trkpt lat="45.349253878872794" lon="10.642602127337248"><ele>107.0</ele><time>2026-04-02T12:01:33Z</time></trkpt><trkpt lat="45.34937963505354" lon="10.64264226171751"><ele>106.0</ele><time>2026-04-02T12:01:34Z</time></trkpt><trkpt lat="45.34948418783998" lon="10.642675611286723"><ele>105.0</ele><time>2026-04-02T12:01:35Z</time></trkpt><trkpt lat="45.34957375295284" lon="10.642702489317053"><ele>105.0</ele><time>2026-04-02T12:01:36Z</time></trkpt><trkpt lat="45.34964019479578" lon="10.642722158740987"><ele>105.0</ele><time>2026-04-02T12:01:37Z</time></trkpt><trkpt lat="45.34970807923815" lon="10.6426912897273"><ele>105.0</ele><time>2026-04-02T12:01:39Z</time></trkpt><trkpt lat="45.34970909027262" lon="10.642525633664546"><ele>105.0</ele><time>2026-04-02T12:01:41Z</time></trkpt><trkpt lat="45.34971709320721" lon="10.642372825312716"><ele>105.0</ele><time>2026-04-02T12:01:42Z</time></trkpt><trkpt lat="45.34973569331461" lon="10.642177209405828"><ele>105.0</ele><time>2026-04-02T12:01:43Z</time></trkpt><trkpt lat="45.349757200095546" lon="10.641950935559034"><ele>105.0</ele><time>2026-04-02T12:01:44Z</time></trkpt><trkpt lat="45.34977261383561" lon="10.641679803581082"><ele>105.0</ele><time>2026-04-02T12:01:45Z</time></trkpt><trkpt lat="45.3497773544065" lon="10.641396440453262"><ele>105.0</ele><time>2026-04-02T12:01:46Z</time></trkpt><trkpt lat="45.34977260330815" lon="10.641174652232525"><ele>105.0</ele><time>2026-04-02T12:01:47Z</time></trkpt><trkpt lat="45.349772509893896" lon="10.641006393248201"><ele>105.0</ele><time>2026-04-02T12:01:48Z</time></trkpt><trkpt lat="45.349774520300805" lon="10.640843672282438"><ele>105.0</ele><time>2026-04-02T12:01:49Z</time></trkpt><trkpt lat="45.349768690244325" lon="10.640670278137648"><ele>105.4</ele><time>2026-04-02T12:01:50Z</time></trkpt><trkpt lat="45.349760566107896" lon="10.640487992184307"><ele>105.8</ele><time>2026-04-02T12:01:51Z</time></trkpt><trkpt lat="45.34975516993831" lon="10.640312665441341"><ele>106.19999999999999</ele><time>2026-04-02T12:01:52Z</time></trkpt><trkpt lat="45.34976490435922" lon="10.640171763742265"><ele>106.6</ele><time>2026-04-02T12:01:53Z</time></trkpt><trkpt lat="45.349787481757815" lon="10.6400452205115"><ele>107.0</ele><time>2026-04-02T12:01:54Z</time></trkpt><trkpt lat="45.34983210638286" lon="10.63995414085536"><ele>107.39999999999999</ele><time>2026-04-02T12:01:55Z</time></trkpt><trkpt lat="45.349897146397666" lon="10.639869338828772"><ele>107.79999999999998</ele><time>2026-04-02T12:01:56Z</time></trkpt><trkpt lat="45.34998509819706" lon="10.639759745292876"><ele>108.2</ele><time>2026-04-02T12:01:57Z</time></trkpt><trkpt lat="45.35006380475101" lon="10.639660605225492"><ele>108.6</ele><time>2026-04-02T12:01:58Z</time></trkpt><trkpt lat="45.350134210615046" lon="10.639573273866532"><ele>109.0</ele><time>2026-04-02T12:01:59Z</time></trkpt><trkpt lat="45.350196339109196" lon="10.639483380902131"><ele>109.00000000000001</ele><time>2026-04-02T12:02:00Z</time></trkpt><trkpt lat="45.350226291682645" lon="10.639383556284857"><ele>109.0</ele><time>2026-04-02T12:02:01Z</time></trkpt><trkpt lat="45.35024143603749" lon="10.639278680489753"><ele>109.0</ele><time>2026-04-02T12:02:02Z</time></trkpt><trkpt lat="45.35024104915369" lon="10.639173950053078"><ele>109.0</ele><time>2026-04-02T12:02:03Z</time></trkpt><trkpt lat="45.3502276395833" lon="10.639048290846837"><ele>109.00000000000001</ele><time>2026-04-02T12:02:04Z</time></trkpt><trkpt lat="45.35020679597929" lon="10.638880190113806"><ele>109.0</ele><time>2026-04-02T12:02:05Z</time></trkpt><trkpt lat="45.35019167764457" lon="10.638670810533464"><ele>109.66666666666667</ele><time>2026-04-02T12:02:06Z</time></trkpt><trkpt lat="45.350181882745396" lon="10.63843627351521"><ele>110.33333333333334</ele><time>2026-04-02T12:02:07Z</time></trkpt><trkpt lat="45.35017576786436" lon="10.638201568330794"><ele>111.0</ele><time>2026-04-02T12:02:08Z</time></trkpt><trkpt lat="45.350176113792635" lon="10.637967300649427"><ele>111.5</ele><time>2026-04-02T12:02:09Z</time></trkpt><trkpt lat="45.35018095775601" lon="10.637739944630846"><ele>112.0</ele><time>2026-04-02T12:02:10Z</time></trkpt><trkpt lat="45.35018547443864" lon="10.637556888448232"><ele>112.5</ele><time>2026-04-02T12:02:11Z</time></trkpt><trkpt lat="45.350192769710965" lon="10.63739666606885"><ele>113.0</ele><time>2026-04-02T12:02:12Z</time></trkpt><trkpt lat="45.350204063306194" lon="10.637228561105704"><ele>113.0</ele><time>2026-04-02T12:02:13Z</time></trkpt><trkpt lat="45.35022407809694" lon="10.63703776714566"><ele>113.0</ele><time>2026-04-02T12:02:14Z</time></trkpt><trkpt lat="45.35024450862238" lon="10.636826039040901"><ele>113.0</ele><time>2026-04-02T12:02:15Z</time></trkpt><trkpt lat="45.35026549348104" lon="10.636611365790788"><ele>113.0</ele><time>2026-04-02T12:02:16Z</time></trkpt><trkpt lat="45.35028277718031" lon="10.63640240059541"><ele>113.0</ele><time>2026-04-02T12:02:17Z</time></trkpt><trkpt lat="45.35029279639322" lon="10.636217774868102"><ele>113.0</ele><time>2026-04-02T12:02:18Z</time></trkpt><trkpt lat="45.35029842286626" lon="10.636046889093558"><ele>113.0</ele><time>2026-04-02T12:02:19Z</time></trkpt><trkpt lat="45.3502894558584" lon="10.635865748914691"><ele>113.0</ele><time>2026-04-02T12:02:20Z</time></trkpt><trkpt lat="45.35028460674371" lon="10.63568771436591"><ele>113.75</ele><time>2026-04-02T12:02:21Z</time></trkpt><trkpt lat="45.35028937507311" lon="10.635504716469265"><ele>114.5</ele><time>2026-04-02T12:02:22Z</time></trkpt><trkpt lat="45.35029670047893" lon="10.635325910252206"><ele>115.25</ele><time>2026-04-02T12:02:23Z</time></trkpt><trkpt lat="45.35030581692233" lon="10.635150018024792"><ele>116.0</ele><time>2026-04-02T12:02:24Z</time></trkpt><trkpt lat="45.35031435830389" lon="10.634973600717593"><ele>116.4</ele><time>2026-04-02T12:02:25Z</time></trkpt><trkpt lat="45.35032115353646" lon="10.634801458692708"><ele>116.8</ele><time>2026-04-02T12:02:26Z</time></trkpt><trkpt lat="45.35032880075901" lon="10.634627557344183"><ele>117.20000000000002</ele><time>2026-04-02T12:02:27Z</time></trkpt><trkpt lat="45.35033612419074" lon="10.63446408163478"><ele>117.60000000000001</ele><time>2026-04-02T12:02:28Z</time></trkpt><trkpt lat="45.350341696153535" lon="10.634351853091145"><ele>118.0</ele><time>2026-04-02T12:02:29Z</time></trkpt><trkpt lat="45.35040811052182" lon="10.634314151993173"><ele>118.50000000000001</ele><time>2026-04-02T12:02:33Z</time></trkpt><trkpt lat="45.350460561303336" lon="10.634396165921673"><ele>119.0</ele><time>2026-04-02T12:02:35Z</time></trkpt><trkpt lat="45.350387172536955" lon="10.634372922294602"><ele>119.5</ele><time>2026-04-02T12:02:38Z</time></trkpt><trkpt lat="45.35033228109454" lon="10.634265404521727"><ele>120.0</ele><time>2026-04-02T12:03:08.999Z</time></trkpt><trkpt lat="45.35030329102186" lon="10.634104517510837"><ele>120.50000000000001</ele><time>2026-04-02T12:03:10.999Z</time></trkpt><trkpt lat="45.35030279833523" lon="10.634009433605966"><ele>121.0</ele><time>2026-04-02T12:03:11.999Z</time></trkpt><trkpt lat="45.350299544534245" lon="10.633912201309181"><ele>121.0</ele><time>2026-04-02T12:03:12.999Z</time></trkpt><trkpt lat="45.35029257115041" lon="10.633820879818549"><ele>121.0</ele><time>2026-04-02T12:03:13.999Z</time></trkpt><trkpt lat="45.35028782741698" lon="10.633715134030911"><ele>121.0</ele><time>2026-04-02T12:03:15.999Z</time></trkpt><trkpt lat="45.350362830214394" lon="10.633644581171739"><ele>121.0</ele><time>2026-04-02T12:03:18.999Z</time></trkpt><trkpt lat="45.350445469173415" lon="10.633566453967797"><ele>121.0</ele><time>2026-04-02T12:03:20.999Z</time></trkpt><trkpt lat="45.35055432034127" lon="10.633476022005706"><ele>121.83333333333334</ele><time>2026-04-02T12:03:22.999Z</time></trkpt><trkpt lat="45.35064169318496" lon="10.633414722075631"><ele>122.66666666666667</ele><time>2026-04-02T12:03:24.999Z</time></trkpt><trkpt lat="45.35070625425499" lon="10.633431754012182"><ele>123.5</ele><time>2026-04-02T12:03:26.999Z</time></trkpt><trkpt lat="45.35077102755034" lon="10.633399886751025"><ele>124.33333333333334</ele><time>2026-04-02T12:04:55Z</time></trkpt><trkpt lat="45.35073877061893" lon="10.633319159124856"><ele>125.16666666666667</ele><time>2026-04-02T12:22:41Z</time></trkpt><trkpt lat="45.350800141908174" lon="10.633174962426786"><ele>126.0</ele><time>2026-04-02T12:22:43Z</time></trkpt><trkpt lat="45.350876803687505" lon="10.633107492883799"><ele>126.0</ele><time>2026-04-02T12:22:44Z</time></trkpt><trkpt lat="45.35096468708572" lon="10.633034792083855"><ele>126.0</ele><time>2026-04-02T12:22:45Z</time></trkpt><trkpt lat="45.351071357201505" lon="10.632970660148402"><ele>126.0</ele><time>2026-04-02T12:22:46Z</time></trkpt><trkpt lat="45.35116329148842" lon="10.63287023687305"><ele>126.0</ele><time>2026-04-02T12:22:47Z</time></trkpt><trkpt lat="45.351254103989966" lon="10.632794751823608"><ele>126.0</ele><time>2026-04-02T12:22:48Z</time></trkpt><trkpt lat="45.351329656747204" lon="10.632739125089127"><ele>126.6</ele><time>2026-04-02T12:22:49Z</time></trkpt><trkpt lat="45.35135904954171" lon="10.632624561265725"><ele>127.19999999999999</ele><time>2026-04-02T12:22:50Z</time></trkpt><trkpt lat="45.351412909635606" lon="10.632550707668358"><ele>127.80000000000001</ele><time>2026-04-02T12:22:52Z</time></trkpt><trkpt lat="45.35137859827658" lon="10.632684604829121"><ele>128.4</ele><time>2026-04-02T12:23:07Z</time></trkpt><trkpt lat="45.35148181787761" lon="10.63269007674552"><ele>129.0</ele><time>2026-04-02T12:23:17Z</time></trkpt><trkpt lat="45.35163362235347" lon="10.632671975815473"><ele>129.0</ele><time>2026-04-02T12:23:19Z</time></trkpt><trkpt lat="45.35177764722004" lon="10.632645128612172"><ele>129.0</ele><time>2026-04-02T12:23:20Z</time></trkpt><trkpt lat="45.35192405136987" lon="10.632601942362701"><ele>129.0</ele><time>2026-04-02T12:23:21Z</time></trkpt><trkpt lat="45.352044867003094" lon="10.632569713384337"><ele>129.0</ele><time>2026-04-02T12:23:22Z</time></trkpt><trkpt lat="45.35213933014849" lon="10.632549469087767"><ele>128.4</ele><time>2026-04-02T12:23:23Z</time></trkpt><trkpt lat="45.35221473050946" lon="10.632570607495328"><ele>127.80000000000001</ele><time>2026-04-02T12:23:24Z</time></trkpt><trkpt lat="45.352275709281884" lon="10.63262554062795"><ele>127.19999999999999</ele><time>2026-04-02T12:23:25Z</time></trkpt><trkpt lat="45.35233714130282" lon="10.63277804061421"><ele>126.6</ele><time>2026-04-02T12:23:27Z</time></trkpt><trkpt lat="45.35240071342543" lon="10.632763489714257"><ele>126.0</ele><time>2026-04-02T12:23:30Z</time></trkpt><trkpt lat="45.35250221167111" lon="10.632667679247339"><ele>126.0</ele><time>2026-04-02T12:23:32Z</time></trkpt><trkpt lat="45.35258032129746" lon="10.632586611258395"><ele>126.0</ele><time>2026-04-02T12:23:33Z</time></trkpt><trkpt lat="45.3526755481269" lon="10.632478688867888"><ele>126.0</ele><time>2026-04-02T12:23:34Z</time></trkpt><trkpt lat="45.3527540495513" lon="10.632383927390547"><ele>126.0</ele><time>2026-04-02T12:23:35Z</time></trkpt><trkpt lat="45.3528618926457" lon="10.632284963012024"><ele>126.0</ele><time>2026-04-02T12:23:36Z</time></trkpt><trkpt lat="45.352973785870226" lon="10.632234061097968"><ele>126.0</ele><time>2026-04-02T12:23:37Z</time></trkpt><trkpt lat="45.35306259634179" lon="10.632174027205103"><ele>126.0</ele><time>2026-04-02T12:23:38Z</time></trkpt><trkpt lat="45.35313780703614" lon="10.632101466716502"><ele>126.0</ele><time>2026-04-02T12:23:39Z</time></trkpt><trkpt lat="45.35321017330241" lon="10.63202364752807"><ele>126.0</ele><time>2026-04-02T12:23:40Z</time></trkpt><trkpt lat="45.353284397973184" lon="10.631940133340741"><ele>126.19999999999999</ele><time>2026-04-02T12:23:41Z</time></trkpt><trkpt lat="45.353356418280946" lon="10.631858726445193"><ele>126.39999999999999</ele><time>2026-04-02T12:23:42Z</time></trkpt><trkpt lat="45.353429815023055" lon="10.631775693885649"><ele>126.6</ele><time>2026-04-02T12:23:43Z</time></trkpt><trkpt lat="45.35350524819839" lon="10.631690357541432"><ele>126.8</ele><time>2026-04-02T12:23:44Z</time></trkpt><trkpt lat="45.353583194943425" lon="10.631602177635763"><ele>127.0</ele><time>2026-04-02T12:23:45Z</time></trkpt><trkpt lat="45.35365919299125" lon="10.631499857620739"><ele>127.0</ele><time>2026-04-02T12:23:46Z</time></trkpt><trkpt lat="45.35374409942708" lon="10.631404980751167"><ele>126.99999999999999</ele><time>2026-04-02T12:23:47Z</time></trkpt><trkpt lat="45.35382798947374" lon="10.631308787498208"><ele>126.99999999999999</ele><time>2026-04-02T12:23:48Z</time></trkpt><trkpt lat="45.35391553830085" lon="10.631203272587314"><ele>127.0</ele><time>2026-04-02T12:23:49Z</time></trkpt><trkpt lat="45.354005153228535" lon="10.631107065531834"><ele>127.0</ele><time>2026-04-02T12:23:50Z</time></trkpt><trkpt lat="45.354100219465" lon="10.631001940049918"><ele>127.75</ele><time>2026-04-02T12:23:51Z</time></trkpt><trkpt lat="45.354189610035846" lon="10.630902402907093"><ele>128.5</ele><time>2026-04-02T12:23:52Z</time></trkpt><trkpt lat="45.354274848611894" lon="10.630795045557207"><ele>129.25</ele><time>2026-04-02T12:23:53Z</time></trkpt><trkpt lat="45.354365718454" lon="10.630686985820356"><ele>130.0</ele><time>2026-04-02T12:23:54Z</time></trkpt><trkpt lat="45.354449194873524" lon="10.63058723957143"><ele>130.0</ele><time>2026-04-02T12:23:55Z</time></trkpt><trkpt lat="45.354515306089134" lon="10.63050493141002"><ele>130.0</ele><time>2026-04-02T12:23:56Z</time></trkpt><trkpt lat="45.35457488990514" lon="10.63044471662914"><ele>130.0</ele><time>2026-04-02T12:23:57Z</time></trkpt><trkpt lat="45.354639932448016" lon="10.630419564243999"><ele>130.0</ele><time>2026-04-02T12:23:58Z</time></trkpt><trkpt lat="45.35471476759959" lon="10.630439567977012"><ele>130.0</ele><time>2026-04-02T12:23:59Z</time></trkpt><trkpt lat="45.35478105895773" lon="10.630562717209667"><ele>130.0</ele><time>2026-04-02T12:24:00Z</time></trkpt><trkpt lat="45.35488658779853" lon="10.630647158706333"><ele>130.4</ele><time>2026-04-02T12:24:01Z</time></trkpt><trkpt lat="45.354989325609054" lon="10.630698184971237"><ele>130.8</ele><time>2026-04-02T12:24:02Z</time></trkpt><trkpt lat="45.35505545446192" lon="10.630769403592517"><ele>131.2</ele><time>2026-04-02T12:24:03Z</time></trkpt><trkpt lat="45.35512771798805" lon="10.630821737876772"><ele>131.6</ele><time>2026-04-02T12:24:05Z</time></trkpt><trkpt lat="45.35520344125081" lon="10.63087657772975"><ele>132.0</ele><time>2026-04-02T12:24:10Z</time></trkpt><trkpt lat="45.35528811096572" lon="10.630646675882348"><ele>132.0</ele><time>2026-04-02T12:24:11Z</time></trkpt><trkpt lat="45.35535020692489" lon="10.6304579458962"><ele>132.0</ele><time>2026-04-02T12:24:12Z</time></trkpt><trkpt lat="45.35543470775821" lon="10.63021306836317"><ele>132.0</ele><time>2026-04-02T12:24:13Z</time></trkpt><trkpt lat="45.35553726567208" lon="10.62994385443164"><ele>135.66666666666666</ele><time>2026-04-02T12:24:14Z</time></trkpt><trkpt lat="45.35562886963078" lon="10.629725388117615"><ele>139.33333333333331</ele><time>2026-04-02T12:24:15Z</time></trkpt><trkpt lat="45.3557042706421" lon="10.62954659146433"><ele>143.0</ele><time>2026-04-02T12:24:16Z</time></trkpt><trkpt lat="45.355775039586376" lon="10.629377921191242"><ele>143.75</ele><time>2026-04-02T12:24:17Z</time></trkpt><trkpt lat="45.35584642066694" lon="10.629210235699702"><ele>144.5</ele><time>2026-04-02T12:24:18Z</time></trkpt><trkpt lat="45.35591331102574" lon="10.629057597638125"><ele>145.25</ele><time>2026-04-02T12:24:19Z</time></trkpt><trkpt lat="45.35597927596162" lon="10.62891374895093"><ele>146.0</ele><time>2026-04-02T12:24:20Z</time></trkpt><trkpt lat="45.356046397553314" lon="10.628777548041283"><ele>149.25</ele><time>2026-04-02T12:24:21Z</time></trkpt><trkpt lat="45.356117858177626" lon="10.628635539442993"><ele>152.5</ele><time>2026-04-02T12:24:22Z</time></trkpt><trkpt lat="45.356190643518794" lon="10.628492006027157"><ele>155.75</ele><time>2026-04-02T12:24:23Z</time></trkpt><trkpt lat="45.35626941957178" lon="10.628344703099733"><ele>159.0</ele><time>2026-04-02T12:24:24Z</time></trkpt><trkpt lat="45.35635086490591" lon="10.628197697410855"><ele>158.0</ele><time>2026-04-02T12:24:25Z</time></trkpt><trkpt lat="45.35642755247855" lon="10.628045122574406"><ele>157.0</ele><time>2026-04-02T12:24:26Z</time></trkpt><trkpt lat="45.35650459134125" lon="10.62790226674369"><ele>156.0</ele><time>2026-04-02T12:24:27Z</time></trkpt><trkpt lat="45.356586915468064" lon="10.62776032586871"><ele>155.0</ele><time>2026-04-02T12:24:28Z</time></trkpt><trkpt lat="45.356665943858474" lon="10.627621470346165"><ele>155.0</ele><time>2026-04-02T12:24:29Z</time></trkpt><trkpt lat="45.356740553989994" lon="10.627491269141222"><ele>155.0</ele><time>2026-04-02T12:24:30Z</time></trkpt><trkpt lat="45.35680074957643" lon="10.627395977762234"><ele>155.0</ele><time>2026-04-02T12:24:31Z</time></trkpt><trkpt lat="45.35687154692162" lon="10.627321678109745"><ele>155.0</ele><time>2026-04-02T12:24:33Z</time></trkpt><trkpt lat="45.356843333011085" lon="10.627488894106111"><ele>155.0</ele><time>2026-04-02T12:24:35.999Z</time></trkpt><trkpt lat="45.356803159542515" lon="10.627620169693426"><ele>155.0</ele><time>2026-04-02T12:24:36.999Z</time></trkpt><trkpt lat="45.35675728777269" lon="10.627764239839449"><ele>155.0</ele><time>2026-04-02T12:24:37.999Z</time></trkpt><trkpt lat="45.356711020447705" lon="10.627908733984297"><ele>155.0</ele><time>2026-04-02T12:24:38.999Z</time></trkpt><trkpt lat="45.356666730732584" lon="10.628049379978172"><ele>155.0</ele><time>2026-04-02T12:24:39.999Z</time></trkpt><trkpt lat="45.35664130957736" lon="10.628174950629445"><ele>155.0</ele><time>2026-04-02T12:24:40.999Z</time></trkpt><trkpt lat="45.35663690259648" lon="10.628266751376277"><ele>154.0</ele><time>2026-04-02T12:24:41.999Z</time></trkpt><trkpt lat="45.35672732684106" lon="10.628372976449302"><ele>153.0</ele><time>2026-04-02T12:24:43.999Z</time></trkpt><trkpt lat="45.356797803375606" lon="10.628342145401247"><ele>152.0</ele><time>2026-04-02T12:24:44.999Z</time></trkpt><trkpt lat="45.35691625244093" lon="10.62831114777669"><ele>151.0</ele><time>2026-04-02T12:24:46.999Z</time></trkpt><trkpt lat="45.35699643587987" lon="10.628282666794219"><ele>150.0</ele><time>2026-04-02T12:24:47.999Z</time></trkpt><trkpt lat="45.35708542721223" lon="10.628282704694792"><ele>150.0</ele><time>2026-04-02T12:24:48.999Z</time></trkpt><trkpt lat="45.35717501232406" lon="10.628299337307912"><ele>150.0</ele><time>2026-04-02T12:24:49.999Z</time></trkpt><trkpt lat="45.35725988887667" lon="10.62831420756035"><ele>150.0</ele><time>2026-04-02T12:24:50.999Z</time></trkpt><trkpt lat="45.357343351980674" lon="10.628321246634604"><ele>150.0</ele><time>2026-04-02T12:24:51.999Z</time></trkpt><trkpt lat="45.35742797460769" lon="10.628311322266141"><ele>150.0</ele><time>2026-04-02T12:24:52.999Z</time></trkpt><trkpt lat="45.35751381339014" lon="10.628287505099197"><ele>150.0</ele><time>2026-04-02T12:24:53.999Z</time></trkpt><trkpt lat="45.357594862083715" lon="10.62825034209605"><ele>150.33333333333334</ele><time>2026-04-02T12:24:54.999Z</time></trkpt><trkpt lat="45.35766993586481" lon="10.628195892588359"><ele>150.66666666666666</ele><time>2026-04-02T12:24:55.999Z</time></trkpt><trkpt lat="45.35773896147088" lon="10.628126797886086"><ele>151.0</ele><time>2026-04-02T12:24:56.999Z</time></trkpt><trkpt lat="45.35780388744388" lon="10.628058751998335"><ele>151.33333333333331</ele><time>2026-04-02T12:24:57.999Z</time></trkpt><trkpt lat="45.35786515550141" lon="10.627974293878435"><ele>151.66666666666666</ele><time>2026-04-02T12:24:58.999Z</time></trkpt><trkpt lat="45.35792372630194" lon="10.62788596299421"><ele>152.0</ele><time>2026-04-02T12:24:59.999Z</time></trkpt><trkpt lat="45.35798134108896" lon="10.627789938620195"><ele>152.0</ele><time>2026-04-02T12:25:00.999Z</time></trkpt><trkpt lat="45.35804604475762" lon="10.627701145085108"><ele>152.0</ele><time>2026-04-02T12:25:01.999Z</time></trkpt><trkpt lat="45.35812365972278" lon="10.627627819860251"><ele>152.0</ele><time>2026-04-02T12:25:02.999Z</time></trkpt><trkpt lat="45.35821932560539" lon="10.627599132183395"><ele>152.0</ele><time>2026-04-02T12:25:03.999Z</time></trkpt><trkpt lat="45.35831794367734" lon="10.627565048856422"><ele>152.0</ele><time>2026-04-02T12:25:04.999Z</time></trkpt><trkpt lat="45.358407873370886" lon="10.627512404744738"><ele>152.0</ele><time>2026-04-02T12:25:05.999Z</time></trkpt><trkpt lat="45.358496706317716" lon="10.627449081406905"><ele>152.0</ele><time>2026-04-02T12:25:06.999Z</time></trkpt><trkpt lat="45.35857102190952" lon="10.627347978650558"><ele>152.0</ele><time>2026-04-02T12:25:07.999Z</time></trkpt><trkpt lat="45.358643821994626" lon="10.627252389077478"><ele>152.0</ele><time>2026-04-02T12:25:08.999Z</time></trkpt><trkpt lat="45.358703382412855" lon="10.627139822969516"><ele>152.0</ele><time>2026-04-02T12:25:09.999Z</time></trkpt><trkpt lat="45.35874531130827" lon="10.627010412866053"><ele>153.4</ele><time>2026-04-02T12:25:10.999Z</time></trkpt><trkpt lat="45.358771244437655" lon="10.626868196069196"><ele>154.79999999999998</ele><time>2026-04-02T12:25:11.999Z</time></trkpt><trkpt lat="45.35878851959095" lon="10.626721356603836"><ele>156.2</ele><time>2026-04-02T12:25:12.999Z</time></trkpt><trkpt lat="45.358803087403416" lon="10.62657372985762"><ele>157.6</ele><time>2026-04-02T12:25:13.999Z</time></trkpt><trkpt lat="45.35881641334788" lon="10.626423439307377"><ele>159.0</ele><time>2026-04-02T12:25:14.999Z</time></trkpt><trkpt lat="45.35883400166346" lon="10.626272782241772"><ele>156.8</ele><time>2026-04-02T12:25:15.999Z</time></trkpt><trkpt lat="45.3588691863744" lon="10.626130408030527"><ele>154.60000000000002</ele><time>2026-04-02T12:25:16.999Z</time></trkpt><trkpt lat="45.358920965511686" lon="10.625997564611541"><ele>152.4</ele><time>2026-04-02T12:25:17.999Z</time></trkpt><trkpt lat="45.359004460686286" lon="10.625900845886626"><ele>150.20000000000002</ele><time>2026-04-02T12:25:18.999Z</time></trkpt><trkpt lat="45.35908102892784" lon="10.625802454261853"><ele>148.0</ele><time>2026-04-02T12:25:19.999Z</time></trkpt><trkpt lat="45.35916402979283" lon="10.625708322563186"><ele>148.0</ele><time>2026-04-02T12:25:20.999Z</time></trkpt><trkpt lat="45.35924664410598" lon="10.62562200198686"><ele>148.0</ele><time>2026-04-02T12:25:21.999Z</time></trkpt><trkpt lat="45.35931086267947" lon="10.625541275364846"><ele>148.0</ele><time>2026-04-02T12:25:22.999Z</time></trkpt><trkpt lat="45.359386903941974" lon="10.625535586994554"><ele>148.0</ele><time>2026-04-02T12:25:24.999Z</time></trkpt><trkpt lat="45.35945085073893" lon="10.625524641942812"><ele>148.0</ele><time>2026-04-02T12:25:39.999Z</time></trkpt><trkpt lat="45.359500784773225" lon="10.625354588874117"><ele>148.8</ele><time>2026-04-02T12:25:41.999Z</time></trkpt><trkpt lat="45.35949984092246" lon="10.625209658444108"><ele>149.60000000000002</ele><time>2026-04-02T12:25:42.999Z</time></trkpt><trkpt lat="45.35950305989671" lon="10.62505849188836"><ele>150.39999999999998</ele><time>2026-04-02T12:25:43.999Z</time></trkpt><trkpt lat="45.35951173032338" lon="10.62489607644968"><ele>151.2</ele><time>2026-04-02T12:25:44.999Z</time></trkpt><trkpt lat="45.35952187505604" lon="10.624735517164543"><ele>152.0</ele><time>2026-04-02T12:25:45.999Z</time></trkpt><trkpt lat="45.35952990809797" lon="10.624561167492867"><ele>152.25</ele><time>2026-04-02T12:25:46.999Z</time></trkpt><trkpt lat="45.35953825043971" lon="10.624380778377919"><ele>152.5</ele><time>2026-04-02T12:25:47.999Z</time></trkpt><trkpt lat="45.35954726774689" lon="10.624197127738768"><ele>152.75</ele><time>2026-04-02T12:25:48.999Z</time></trkpt><trkpt lat="45.359558430412136" lon="10.624008674550986"><ele>153.0</ele><time>2026-04-02T12:25:49.999Z</time></trkpt><trkpt lat="45.35957049257919" lon="10.623814363939458"><ele>152.5</ele><time>2026-04-02T12:25:50.999Z</time></trkpt><trkpt lat="45.35958268271393" lon="10.623616313688622"><ele>152.0</ele><time>2026-04-02T12:25:51.999Z</time></trkpt><trkpt lat="45.35959495692412" lon="10.623411524237273"><ele>151.5</ele><time>2026-04-02T12:25:52.999Z</time></trkpt><trkpt lat="45.359605392416995" lon="10.623203588791844"><ele>151.0</ele><time>2026-04-02T12:25:53.999Z</time></trkpt><trkpt lat="45.359614750340704" lon="10.62299386647849"><ele>149.0</ele><time>2026-04-02T12:25:54.999Z</time></trkpt><trkpt lat="45.359625607321114" lon="10.622785654037989"><ele>147.0</ele><time>2026-04-02T12:25:55.999Z</time></trkpt><trkpt lat="45.35963732320796" lon="10.6225792995459"><ele>145.0</ele><time>2026-04-02T12:25:56.999Z</time></trkpt><trkpt lat="45.359647503149155" lon="10.622375935465866"><ele>143.0</ele><time>2026-04-02T12:25:57.999Z</time></trkpt><trkpt lat="45.35965796093795" lon="10.622172192595931"><ele>143.0</ele><time>2026-04-02T12:25:58.999Z</time></trkpt><trkpt lat="45.359666405302" lon="10.621989548554723"><ele>143.0</ele><time>2026-04-02T12:25:59.999Z</time></trkpt><trkpt lat="45.359667650893236" lon="10.621835727218373"><ele>143.0</ele><time>2026-04-02T12:26:00.999Z</time></trkpt><trkpt lat="45.35965626853482" lon="10.621717266640706"><ele>143.0</ele><time>2026-04-02T12:26:01.999Z</time></trkpt><trkpt lat="45.35965709314941" lon="10.621625808105723"><ele>143.0</ele><time>2026-04-02T12:26:04.999Z</time></trkpt><trkpt lat="45.359309319588746" lon="10.621430893098552"><ele>142.25</ele><time>2026-04-02T12:26:13.999Z</time></trkpt><trkpt lat="45.35921863738556" lon="10.621369495386569"><ele>141.5</ele><time>2026-04-02T12:26:14.999Z</time></trkpt><trkpt lat="45.35908912689298" lon="10.621266674411459"><ele>140.75</ele><time>2026-04-02T12:26:15.999Z</time></trkpt><trkpt lat="45.35896518447794" lon="10.62116449550181"><ele>140.0</ele><time>2026-04-02T12:26:16.999Z</time></trkpt><trkpt lat="45.35885606350364" lon="10.621075146768105"><ele>139.25</ele><time>2026-04-02T12:26:17.999Z</time></trkpt><trkpt lat="45.35874902093413" lon="10.62098574827414"><ele>138.5</ele><time>2026-04-02T12:26:18.999Z</time></trkpt><trkpt lat="45.358627059814886" lon="10.62089009871631"><ele>137.75</ele><time>2026-04-02T12:26:19.999Z</time></trkpt><trkpt lat="45.358493741449955" lon="10.62078558651444"><ele>137.0</ele><time>2026-04-02T12:26:20.999Z</time></trkpt><trkpt lat="45.35838583643653" lon="10.620678804608641"><ele>137.0</ele><time>2026-04-02T12:26:21.999Z</time></trkpt><trkpt lat="45.35827542582881" lon="10.620548337464077"><ele>137.0</ele><time>2026-04-02T12:26:22.999Z</time></trkpt><trkpt lat="45.3581579873642" lon="10.62038423246396"><ele>137.0</ele><time>2026-04-02T12:26:23.999Z</time></trkpt><trkpt lat="45.35803893019055" lon="10.620199141803756"><ele>136.75</ele><time>2026-04-02T12:26:24.999Z</time></trkpt><trkpt lat="45.357941145265826" lon="10.620036548186592"><ele>136.5</ele><time>2026-04-02T12:26:25.999Z</time></trkpt><trkpt lat="45.357855413680205" lon="10.619884525958941"><ele>136.25</ele><time>2026-04-02T12:26:26.999Z</time></trkpt><trkpt lat="45.35777730660831" lon="10.619725121708965"><ele>136.0</ele><time>2026-04-02T12:26:27.999Z</time></trkpt><trkpt lat="45.35771760194153" lon="10.619578799968506"><ele>135.8</ele><time>2026-04-02T12:26:28.999Z</time></trkpt><trkpt lat="45.35766896753675" lon="10.619441575157119"><ele>135.6</ele><time>2026-04-02T12:26:29.999Z</time></trkpt><trkpt lat="45.357631711658264" lon="10.619301519324521"><ele>135.4</ele><time>2026-04-02T12:26:30.999Z</time></trkpt><trkpt lat="45.357603843847684" lon="10.619176364910333"><ele>135.2</ele><time>2026-04-02T12:26:31.999Z</time></trkpt><trkpt lat="45.35758216943792" lon="10.619067270881661"><ele>135.0</ele><time>2026-04-02T12:26:32.999Z</time></trkpt><trkpt lat="45.35756473745869" lon="10.618971550773843"><ele>135.0</ele><time>2026-04-02T12:26:33.999Z</time></trkpt><trkpt lat="45.357554348970325" lon="10.618882679069944"><ele>135.0</ele><time>2026-04-02T12:26:34.999Z</time></trkpt><trkpt lat="45.35754796043444" lon="10.61869420158828"><ele>135.0</ele><time>2026-04-02T12:26:36.999Z</time></trkpt><trkpt lat="45.35753175676178" lon="10.618585801505239"><ele>135.0</ele><time>2026-04-02T12:26:37.999Z</time></trkpt><trkpt lat="45.35750798333885" lon="10.618482686790834"><ele>135.0</ele><time>2026-04-02T12:26:38.999Z</time></trkpt><trkpt lat="45.35748175867072" lon="10.618377366700285"><ele>135.0</ele><time>2026-04-02T12:26:39.999Z</time></trkpt><trkpt lat="45.35744172679723" lon="10.618280723319293"><ele>135.0</ele><time>2026-04-02T12:26:40.999Z</time></trkpt><trkpt lat="45.35738066932428" lon="10.61820852089014"><ele>135.0</ele><time>2026-04-02T12:26:41.999Z</time></trkpt><trkpt lat="45.357307817226" lon="10.618154745240632"><ele>135.0</ele><time>2026-04-02T12:26:42.999Z</time></trkpt><trkpt lat="45.35725057872088" lon="10.618072639545138"><ele>135.0</ele><time>2026-04-02T12:26:44Z</time></trkpt><trkpt lat="45.35720665367674" lon="10.617955117436429"><ele>135.0</ele><time>2026-04-02T12:26:45Z</time></trkpt><trkpt lat="45.35718112968571" lon="10.617820396189625"><ele>135.0</ele><time>2026-04-02T12:26:46Z</time></trkpt><trkpt lat="45.35716604412988" lon="10.617686271765047"><ele>135.6</ele><time>2026-04-02T12:26:47Z</time></trkpt><trkpt lat="45.35715143552041" lon="10.6175578986302"><ele>136.2</ele><time>2026-04-02T12:26:48Z</time></trkpt><trkpt lat="45.357129942185125" lon="10.617429309389985"><ele>136.8</ele><time>2026-04-02T12:26:49Z</time></trkpt><trkpt lat="45.357092887846065" lon="10.617310906981679"><ele>137.4</ele><time>2026-04-02T12:26:50Z</time></trkpt><trkpt lat="45.35705760876447" lon="10.617193841414823"><ele>138.0</ele><time>2026-04-02T12:26:51Z</time></trkpt><trkpt lat="45.35701352108937" lon="10.617082925426304"><ele>138.4</ele><time>2026-04-02T12:26:52Z</time></trkpt><trkpt lat="45.356948734497756" lon="10.616982955543804"><ele>138.8</ele><time>2026-04-02T12:26:53Z</time></trkpt><trkpt lat="45.3568809544433" lon="10.616904690567655"><ele>139.2</ele><time>2026-04-02T12:26:54Z</time></trkpt><trkpt lat="45.35680374476989" lon="10.616826739511763"><ele>139.6</ele><time>2026-04-02T12:26:55Z</time></trkpt><trkpt lat="45.35672966456836" lon="10.616746945375473"><ele>140.0</ele><time>2026-04-02T12:26:56Z</time></trkpt><trkpt lat="45.35665427637791" lon="10.616672649504757"><ele>140.0</ele><time>2026-04-02T12:26:57Z</time></trkpt><trkpt lat="45.35658161372007" lon="10.616597379587148"><ele>140.0</ele><time>2026-04-02T12:26:58Z</time></trkpt><trkpt lat="45.35651623042244" lon="10.616514855396842"><ele>140.0</ele><time>2026-04-02T12:26:59Z</time></trkpt><trkpt lat="45.356462758734494" lon="10.616410894769652"><ele>140.0</ele><time>2026-04-02T12:27:00Z</time></trkpt><trkpt lat="45.35643166445912" lon="10.61628017137179"><ele>140.0</ele><time>2026-04-02T12:27:01Z</time></trkpt><trkpt lat="45.356401813209544" lon="10.616141747347113"><ele>139.0</ele><time>2026-04-02T12:27:02Z</time></trkpt><trkpt lat="45.35636576225089" lon="10.616014273835763"><ele>138.0</ele><time>2026-04-02T12:27:03Z</time></trkpt><trkpt lat="45.35634116279316" lon="10.615896621472446"><ele>137.0</ele><time>2026-04-02T12:27:04Z</time></trkpt><trkpt lat="45.356301727672324" lon="10.615769872986727"><ele>136.0</ele><time>2026-04-02T12:27:05Z</time></trkpt><trkpt lat="45.35626582923334" lon="10.615641562857489"><ele>135.0</ele><time>2026-04-02T12:27:06Z</time></trkpt><trkpt lat="45.356236984102495" lon="10.61551957494348"><ele>135.0</ele><time>2026-04-02T12:27:07Z</time></trkpt><trkpt lat="45.35621084585802" lon="10.615425522636315"><ele>135.0</ele><time>2026-04-02T12:27:08Z</time></trkpt><trkpt lat="45.35623927235116" lon="10.615337786982408"><ele>135.0</ele><time>2026-04-02T12:27:10Z</time></trkpt><trkpt lat="45.3563637833734" lon="10.615304259001087"><ele>135.0</ele><time>2026-04-02T12:27:12Z</time></trkpt><trkpt lat="45.356437000765325" lon="10.615279548939831"><ele>135.0</ele><time>2026-04-02T12:27:13Z</time></trkpt><trkpt lat="45.35651526985252" lon="10.615237972919587"><ele>135.0</ele><time>2026-04-02T12:27:14Z</time></trkpt><trkpt lat="45.356577252774244" lon="10.615162130229253"><ele>135.6</ele><time>2026-04-02T12:27:15Z</time></trkpt><trkpt lat="45.35663158944398" lon="10.615065826840183"><ele>136.2</ele><time>2026-04-02T12:27:16Z</time></trkpt><trkpt lat="45.35668635056906" lon="10.614940985138931"><ele>136.8</ele><time>2026-04-02T12:27:17Z</time></trkpt><trkpt lat="45.35674473986736" lon="10.614820182813833"><ele>137.4</ele><time>2026-04-02T12:27:18Z</time></trkpt><trkpt lat="45.35682498459255" lon="10.61473573456296"><ele>138.0</ele><time>2026-04-02T12:27:20Z</time></trkpt><trkpt lat="45.35688748221031" lon="10.614704475198842"><ele>138.0</ele><time>2026-04-02T12:27:21Z</time></trkpt><trkpt lat="45.35697788023154" lon="10.614645775733434"><ele>138.0</ele><time>2026-04-02T12:27:22Z</time></trkpt><trkpt lat="45.35706414338666" lon="10.614580317643258"><ele>138.0</ele><time>2026-04-02T12:27:23Z</time></trkpt><trkpt lat="45.357148344682955" lon="10.6145338964274"><ele>138.0</ele><time>2026-04-02T12:27:23.999Z</time></trkpt><trkpt lat="45.357228024756765" lon="10.614522418788031"><ele>138.0</ele><time>2026-04-02T12:27:24.999Z</time></trkpt><trkpt lat="45.3572936626481" lon="10.614554812083334"><ele>138.0</ele><time>2026-04-02T12:27:25.999Z</time></trkpt><trkpt lat="45.35736758022392" lon="10.614612739787706"><ele>137.66666666666666</ele><time>2026-04-02T12:27:26.999Z</time></trkpt><trkpt lat="45.35746378076854" lon="10.614672763573571"><ele>137.33333333333334</ele><time>2026-04-02T12:27:27.999Z</time></trkpt><trkpt lat="45.357555200006324" lon="10.614743581596251"><ele>137.0</ele><time>2026-04-02T12:27:28.999Z</time></trkpt><trkpt lat="45.35761650987875" lon="10.61477769896512"><ele>136.66666666666669</ele><time>2026-04-02T12:27:29.999Z</time></trkpt><trkpt lat="45.35769562659438" lon="10.614693786561313"><ele>136.33333333333334</ele><time>2026-04-02T12:27:31.999Z</time></trkpt><trkpt lat="45.35770608779095" lon="10.61459387427488"><ele>136.0</ele><time>2026-04-02T12:27:32.999Z</time></trkpt><trkpt lat="45.35769425118003" lon="10.614474361589167"><ele>136.0</ele><time>2026-04-02T12:27:33.999Z</time></trkpt><trkpt lat="45.35769068587574" lon="10.614330112466074"><ele>136.0</ele><time>2026-04-02T12:27:34.999Z</time></trkpt><trkpt lat="45.357699948171856" lon="10.614174623636591"><ele>136.0</ele><time>2026-04-02T12:27:35.999Z</time></trkpt><trkpt lat="45.35771461903016" lon="10.614042998229142"><ele>136.0</ele><time>2026-04-02T12:27:36.999Z</time></trkpt><trkpt lat="45.35773857915232" lon="10.613947205314348"><ele>136.0</ele><time>2026-04-02T12:27:37.999Z</time></trkpt><trkpt lat="45.35778658450155" lon="10.613847560315987"><ele>136.0</ele><time>2026-04-02T12:27:38.999Z</time></trkpt><trkpt lat="45.357837827782284" lon="10.61377425484925"><ele>136.0</ele><time>2026-04-02T12:27:39.999Z</time></trkpt><trkpt lat="45.35788020089217" lon="10.613705219660801"><ele>136.0</ele><time>2026-04-02T12:27:40.999Z</time></trkpt><trkpt lat="45.35792865762472" lon="10.613628048148096"><ele>136.0</ele><time>2026-04-02T12:27:41.999Z</time></trkpt><trkpt lat="45.35799039051868" lon="10.613509987952815"><ele>136.0</ele><time>2026-04-02T12:27:43.999Z</time></trkpt><trkpt lat="45.35792272997174" lon="10.613433798885081"><ele>136.0</ele><time>2026-04-02T12:27:46.999Z</time></trkpt><trkpt lat="45.357783327397634" lon="10.613357085407225"><ele>135.6</ele><time>2026-04-02T12:27:48.999Z</time></trkpt><trkpt lat="45.35769400092032" lon="10.613290888474628"><ele>135.2</ele><time>2026-04-02T12:27:49.999Z</time></trkpt><trkpt lat="45.35759988036369" lon="10.613202397174852"><ele>134.8</ele><time>2026-04-02T12:27:50.999Z</time></trkpt><trkpt lat="45.35750785637679" lon="10.613112636714709"><ele>134.4</ele><time>2026-04-02T12:27:51.999Z</time></trkpt><trkpt lat="45.35741864998637" lon="10.613033526218503"><ele>134.0</ele><time>2026-04-02T12:27:52.999Z</time></trkpt><trkpt lat="45.35733885329462" lon="10.612947291481646"><ele>134.0</ele><time>2026-04-02T12:27:53.999Z</time></trkpt><trkpt lat="45.35723530403042" lon="10.612847539864005"><ele>134.0</ele><time>2026-04-02T12:27:54.999Z</time></trkpt><trkpt lat="45.35711791441131" lon="10.612740620188463"><ele>134.0</ele><time>2026-04-02T12:27:55.999Z</time></trkpt><trkpt lat="45.356991851779135" lon="10.612641034915285"><ele>134.0</ele><time>2026-04-02T12:27:56.999Z</time></trkpt><trkpt lat="45.35686950716533" lon="10.612564451351572"><ele>133.0</ele><time>2026-04-02T12:27:57.999Z</time></trkpt><trkpt lat="45.356744546353" lon="10.61249596410331"><ele>132.0</ele><time>2026-04-02T12:27:58.999Z</time></trkpt><trkpt lat="45.356627468454015" lon="10.612439227672535"><ele>131.0</ele><time>2026-04-02T12:27:59.999Z</time></trkpt><trkpt lat="45.35650693359932" lon="10.61238021015889"><ele>130.0</ele><time>2026-04-02T12:28:00.999Z</time></trkpt><trkpt lat="45.356394388876" lon="10.612314367197886"><ele>129.8</ele><time>2026-04-02T12:28:01.999Z</time></trkpt><trkpt lat="45.35630030455034" lon="10.612238168200967"><ele>129.6</ele><time>2026-04-02T12:28:02.999Z</time></trkpt><trkpt lat="45.35621569899189" lon="10.612153566099774"><ele>129.4</ele><time>2026-04-02T12:28:03.999Z</time></trkpt><trkpt lat="45.35614207474786" lon="10.612053264189418"><ele>129.2</ele><time>2026-04-02T12:28:04.999Z</time></trkpt><trkpt lat="45.35608466145764" lon="10.611934576139781"><ele>129.0</ele><time>2026-04-02T12:28:05.999Z</time></trkpt><trkpt lat="45.35603477309546" lon="10.61181256280014"><ele>129.0</ele><time>2026-04-02T12:28:06.999Z</time></trkpt><trkpt lat="45.35598220085484" lon="10.611713448102764"><ele>129.0</ele><time>2026-04-02T12:28:07.999Z</time></trkpt><trkpt lat="45.35591718885233" lon="10.611643965467954"><ele>129.0</ele><time>2026-04-02T12:28:08.999Z</time></trkpt><trkpt lat="45.35584670790969" lon="10.611589109528378"><ele>129.0</ele><time>2026-04-02T12:28:09.999Z</time></trkpt><trkpt lat="45.35578024580989" lon="10.611518831882996"><ele>129.0</ele><time>2026-04-02T12:28:10.999Z</time></trkpt><trkpt lat="45.35572108123181" lon="10.611461140221458"><ele>129.0</ele><time>2026-04-02T12:28:11.999Z</time></trkpt><trkpt lat="45.35565064029759" lon="10.611393520858211"><ele>129.0</ele><time>2026-04-02T12:28:12.999Z</time></trkpt><trkpt lat="45.355574910964414" lon="10.611330396092432"><ele>129.0</ele><time>2026-04-02T12:28:13.999Z</time></trkpt><trkpt lat="45.35549365838974" lon="10.611268705551321"><ele>129.0</ele><time>2026-04-02T12:28:14.999Z</time></trkpt><trkpt lat="45.35541142019103" lon="10.611200581910632"><ele>129.0</ele><time>2026-04-02T12:28:15.999Z</time></trkpt><trkpt lat="45.35532908441168" lon="10.611127937240669"><ele>129.0</ele><time>2026-04-02T12:28:16.999Z</time></trkpt><trkpt lat="45.35525428952604" lon="10.611053260466713"><ele>129.33333333333334</ele><time>2026-04-02T12:28:17.999Z</time></trkpt><trkpt lat="45.35518775462103" lon="10.610984420549409"><ele>129.66666666666666</ele><time>2026-04-02T12:28:18.999Z</time></trkpt><trkpt lat="45.35511991007619" lon="10.610923483167314"><ele>130.0</ele><time>2026-04-02T12:28:19.999Z</time></trkpt><trkpt lat="45.355042885477005" lon="10.610873880949676"><ele>130.33333333333331</ele><time>2026-04-02T12:28:20.999Z</time></trkpt><trkpt lat="45.35495263493568" lon="10.610864851997116"><ele>130.66666666666666</ele><time>2026-04-02T12:28:21.999Z</time></trkpt><trkpt lat="45.35486042186827" lon="10.610862470890227"><ele>131.0</ele><time>2026-04-02T12:28:22.999Z</time></trkpt><trkpt lat="45.354771050724786" lon="10.6108553380835"><ele>130.5</ele><time>2026-04-02T12:28:23.999Z</time></trkpt><trkpt lat="45.35468491023393" lon="10.610852067470024"><ele>130.0</ele><time>2026-04-02T12:28:24.999Z</time></trkpt><trkpt lat="45.35459923873442" lon="10.610856027659908"><ele>129.5</ele><time>2026-04-02T12:28:25.999Z</time></trkpt><trkpt lat="45.35452561765525" lon="10.610855964736603"><ele>129.0</ele><time>2026-04-02T12:28:26.999Z</time></trkpt><trkpt lat="45.354457670247555" lon="10.610859849594094"><ele>128.5</ele><time>2026-04-02T12:28:27.999Z</time></trkpt><trkpt lat="45.35439032565007" lon="10.610877607234666"><ele>128.0</ele><time>2026-04-02T12:28:28.999Z</time></trkpt><trkpt lat="45.35430766125777" lon="10.610916040718564"><ele>127.99999999999999</ele><time>2026-04-02T12:28:29.999Z</time></trkpt><trkpt lat="45.354227885589374" lon="10.610957835422685"><ele>128.0</ele><time>2026-04-02T12:28:30.999Z</time></trkpt><trkpt lat="45.35414466037444" lon="10.610996420444716"><ele>128.0</ele><time>2026-04-02T12:28:31.999Z</time></trkpt><trkpt lat="45.35406353068629" lon="10.611039834166938"><ele>128.0</ele><time>2026-04-02T12:28:32.999Z</time></trkpt><trkpt lat="45.35398439726639" lon="10.611086599189592"><ele>127.99999999999999</ele><time>2026-04-02T12:28:33.999Z</time></trkpt><trkpt lat="45.35390471977082" lon="10.611131925848985"><ele>128.0</ele><time>2026-04-02T12:28:34.999Z</time></trkpt><trkpt lat="45.35382686174231" lon="10.611180615094439"><ele>128.16666666666666</ele><time>2026-04-02T12:28:35.999Z</time></trkpt><trkpt lat="45.353744442237826" lon="10.611217681961683"><ele>128.33333333333331</ele><time>2026-04-02T12:28:36.999Z</time></trkpt><trkpt lat="45.35366394474995" lon="10.611253425113656"><ele>128.5</ele><time>2026-04-02T12:28:37.999Z</time></trkpt><trkpt lat="45.35358496842438" lon="10.611297316533575"><ele>128.66666666666666</ele><time>2026-04-02T12:28:38.999Z</time></trkpt><trkpt lat="45.35350867477145" lon="10.611347061536646"><ele>128.83333333333334</ele><time>2026-04-02T12:28:39.999Z</time></trkpt><trkpt lat="45.35342876640114" lon="10.611395114311875"><ele>129.0</ele><time>2026-04-02T12:28:40.999Z</time></trkpt><trkpt lat="45.35334469424222" lon="10.611431432097021"><ele>129.0</ele><time>2026-04-02T12:28:41.999Z</time></trkpt><trkpt lat="45.353264208204045" lon="10.611447915691096"><ele>129.0</ele><time>2026-04-02T12:28:42.999Z</time></trkpt><trkpt lat="45.353191616928804" lon="10.611439233816894"><ele>129.0</ele><time>2026-04-02T12:28:43.999Z</time></trkpt><trkpt lat="45.35309199375554" lon="10.611324194796259"><ele>129.0</ele><time>2026-04-02T12:28:45.999Z</time></trkpt><trkpt lat="45.353063433903394" lon="10.61123857203207"><ele>129.0</ele><time>2026-04-02T12:28:46.999Z</time></trkpt><trkpt lat="45.353039104010634" lon="10.611148141602833"><ele>129.0</ele><time>2026-04-02T12:28:47.999Z</time></trkpt><trkpt lat="45.35300704065561" lon="10.611057181767464"><ele>131.16666666666666</ele><time>2026-04-02T12:28:48.999Z</time></trkpt><trkpt lat="45.35297020957432" lon="10.610970556101364"><ele>133.33333333333334</ele><time>2026-04-02T12:28:50Z</time></trkpt><trkpt lat="45.35294122915002" lon="10.610871404092356"><ele>135.5</ele><time>2026-04-02T12:28:51Z</time></trkpt><trkpt lat="45.35291469501763" lon="10.610765159748281"><ele>137.66666666666669</ele><time>2026-04-02T12:28:52Z</time></trkpt><trkpt lat="45.35287947424727" lon="10.610669491494196"><ele>139.83333333333334</ele><time>2026-04-02T12:28:53Z</time></trkpt><trkpt lat="45.35285474904162" lon="10.61055830477449"><ele>142.0</ele><time>2026-04-02T12:28:54Z</time></trkpt><trkpt lat="45.35283117944336" lon="10.610448347063668"><ele>142.0</ele><time>2026-04-02T12:28:55Z</time></trkpt><trkpt lat="45.35281803222604" lon="10.610330766974966"><ele>142.0</ele><time>2026-04-02T12:28:56Z</time></trkpt><trkpt lat="45.35280434920106" lon="10.610212859084742"><ele>142.0</ele><time>2026-04-02T12:28:57Z</time></trkpt><trkpt lat="45.35279610097846" lon="10.610095862491617"><ele>142.0</ele><time>2026-04-02T12:28:58Z</time></trkpt><trkpt lat="45.3527961388005" lon="10.609978020284013"><ele>142.0</ele><time>2026-04-02T12:28:59Z</time></trkpt><trkpt lat="45.35279678124298" lon="10.609858868953799"><ele>142.0</ele><time>2026-04-02T12:29:00Z</time></trkpt><trkpt lat="45.35280034546548" lon="10.609742293694564"><ele>141.5</ele><time>2026-04-02T12:29:01Z</time></trkpt><trkpt lat="45.352806602131466" lon="10.609625393618407"><ele>141.0</ele><time>2026-04-02T12:29:02Z</time></trkpt><trkpt lat="45.352819175173956" lon="10.609507226922812"><ele>140.5</ele><time>2026-04-02T12:29:03Z</time></trkpt><trkpt lat="45.35283907865629" lon="10.609391218912116"><ele>140.0</ele><time>2026-04-02T12:29:04Z</time></trkpt><trkpt lat="45.352856264615006" lon="10.609270483181815"><ele>139.5</ele><time>2026-04-02T12:29:05Z</time></trkpt><trkpt lat="45.35287630052572" lon="10.609154623025852"><ele>139.0</ele><time>2026-04-02T12:29:06Z</time></trkpt><trkpt lat="45.35290013924229" lon="10.609035450091895"><ele>138.66666666666669</ele><time>2026-04-02T12:29:07Z</time></trkpt><trkpt lat="45.35292078039145" lon="10.608920618244355"><ele>138.33333333333334</ele><time>2026-04-02T12:29:08Z</time></trkpt><trkpt lat="45.352940500141116" lon="10.608803795643821"><ele>138.0</ele><time>2026-04-02T12:29:09Z</time></trkpt><trkpt lat="45.35296379872557" lon="10.608688360120778"><ele>137.66666666666666</ele><time>2026-04-02T12:29:10Z</time></trkpt><trkpt lat="45.35298532839259" lon="10.608569937994192"><ele>137.33333333333331</ele><time>2026-04-02T12:29:11Z</time></trkpt><trkpt lat="45.353003228128614" lon="10.608448867545386"><ele>137.0</ele><time>2026-04-02T12:29:12Z</time></trkpt><trkpt lat="45.353020757157374" lon="10.608329759755673"><ele>136.83333333333331</ele><time>2026-04-02T12:29:13Z</time></trkpt><trkpt lat="45.35303375336192" lon="10.608210618195109"><ele>136.66666666666666</ele><time>2026-04-02T12:29:14Z</time></trkpt><trkpt lat="45.353035980865414" lon="10.608088971717025"><ele>136.5</ele><time>2026-04-02T12:29:15Z</time></trkpt><trkpt lat="45.35303513363843" lon="10.607969846702279"><ele>136.33333333333334</ele><time>2026-04-02T12:29:16Z</time></trkpt><trkpt lat="45.35302986244712" lon="10.607864721561539"><ele>136.16666666666669</ele><time>2026-04-02T12:29:17Z</time></trkpt><trkpt lat="45.35302551142937" lon="10.607718099310414"><ele>136.0</ele><time>2026-04-02T12:29:19Z</time></trkpt><trkpt lat="45.35307930138807" lon="10.607620163672017"><ele>133.6</ele><time>2026-04-02T12:29:23Z</time></trkpt><trkpt lat="45.35314706360264" lon="10.607593806972684"><ele>131.2</ele><time>2026-04-02T12:29:25Z</time></trkpt><trkpt lat="45.35327414089234" lon="10.607604078860522"><ele>128.8</ele><time>2026-04-02T12:29:27Z</time></trkpt><trkpt lat="45.35335549122065" lon="10.60762033503389"><ele>126.4</ele><time>2026-04-02T12:29:28Z</time></trkpt><trkpt lat="45.35344519402394" lon="10.607630758854622"><ele>124.0</ele><time>2026-04-02T12:29:29Z</time></trkpt><trkpt lat="45.353539190692494" lon="10.60763664828652"><ele>124.0</ele><time>2026-04-02T12:29:30Z</time></trkpt><trkpt lat="45.353635200990986" lon="10.607642446351873"><ele>124.0</ele><time>2026-04-02T12:29:31Z</time></trkpt><trkpt lat="45.353736264267376" lon="10.60764078906405"><ele>124.0</ele><time>2026-04-02T12:29:32Z</time></trkpt><trkpt lat="45.35383155299695" lon="10.607622784335195"><ele>124.0</ele><time>2026-04-02T12:29:33Z</time></trkpt><trkpt lat="45.35392841074673" lon="10.607592400298191"><ele>124.0</ele><time>2026-04-02T12:29:34Z</time></trkpt><trkpt lat="45.3540230855051" lon="10.60757138110136"><ele>124.6</ele><time>2026-04-02T12:29:35Z</time></trkpt><trkpt lat="45.35411398645472" lon="10.60754850250733"><ele>125.2</ele><time>2026-04-02T12:29:36Z</time></trkpt><trkpt lat="45.35420494658206" lon="10.607531657551629"><ele>125.79999999999998</ele><time>2026-04-02T12:29:37Z</time></trkpt><trkpt lat="45.35429268390406" lon="10.607516473081976"><ele>126.39999999999999</ele><time>2026-04-02T12:29:38Z</time></trkpt><trkpt lat="45.35438087301167" lon="10.607491932301823"><ele>127.0</ele><time>2026-04-02T12:29:39Z</time></trkpt><trkpt lat="45.35446996393414" lon="10.607470476058772"><ele>127.0</ele><time>2026-04-02T12:29:40Z</time></trkpt><trkpt lat="45.354561400038016" lon="10.60745551474589"><ele>126.99999999999999</ele><time>2026-04-02T12:29:41Z</time></trkpt><trkpt lat="45.35465245091571" lon="10.607434203713686"><ele>126.99999999999999</ele><time>2026-04-02T12:29:42Z</time></trkpt><trkpt lat="45.35474814835749" lon="10.607417721491528"><ele>127.0</ele><time>2026-04-02T12:29:43Z</time></trkpt><trkpt lat="45.354843008489325" lon="10.607411012464002"><ele>127.0</ele><time>2026-04-02T12:29:44Z</time></trkpt><trkpt lat="45.35494916696375" lon="10.607418114031434"><ele>128.25</ele><time>2026-04-02T12:29:45Z</time></trkpt><trkpt lat="45.35505918101963" lon="10.607434657802253"><ele>129.5</ele><time>2026-04-02T12:29:46Z</time></trkpt><trkpt lat="45.35517702884824" lon="10.607451241410235"><ele>130.75</ele><time>2026-04-02T12:29:47Z</time></trkpt><trkpt lat="45.35530247093587" lon="10.607461159288674"><ele>132.0</ele><time>2026-04-02T12:29:48Z</time></trkpt><trkpt lat="45.355442123553864" lon="10.607461480259952"><ele>131.33333333333334</ele><time>2026-04-02T12:29:49Z</time></trkpt><trkpt lat="45.35560109860267" lon="10.607432287167894"><ele>130.66666666666669</ele><time>2026-04-02T12:29:50Z</time></trkpt><trkpt lat="45.35575616279759" lon="10.607397221626758"><ele>130.0</ele><time>2026-04-02T12:29:50.999Z</time></trkpt><trkpt lat="45.3559149592981" lon="10.607361523149052"><ele>130.0</ele><time>2026-04-02T12:29:51.999Z</time></trkpt><trkpt lat="45.35607135506368" lon="10.607318354672532"><ele>130.0</ele><time>2026-04-02T12:29:52.999Z</time></trkpt><trkpt lat="45.35622177807827" lon="10.607269484382979"><ele>130.0</ele><time>2026-04-02T12:29:53.999Z</time></trkpt><trkpt lat="45.35636151708307" lon="10.607207004728384"><ele>131.0</ele><time>2026-04-02T12:29:54.999Z</time></trkpt><trkpt lat="45.356494703364014" lon="10.607122308332418"><ele>132.0</ele><time>2026-04-02T12:29:55.999Z</time></trkpt><trkpt lat="45.35662504815484" lon="10.607018701918378"><ele>133.0</ele><time>2026-04-02T12:29:56.999Z</time></trkpt><trkpt lat="45.35674841494699" lon="10.606910324746048"><ele>134.0</ele><time>2026-04-02T12:29:57.999Z</time></trkpt><trkpt lat="45.35687722857631" lon="10.606815105613768"><ele>134.33333333333331</ele><time>2026-04-02T12:29:58.999Z</time></trkpt><trkpt lat="45.357018570706124" lon="10.606746368196484"><ele>134.66666666666666</ele><time>2026-04-02T12:29:59.999Z</time></trkpt><trkpt lat="45.35717131677136" lon="10.606707731890923"><ele>135.0</ele><time>2026-04-02T12:30:00.999Z</time></trkpt><trkpt lat="45.35733492758451" lon="10.606707307181578"><ele>135.0</ele><time>2026-04-02T12:30:01.999Z</time></trkpt><trkpt lat="45.35750836482076" lon="10.606736277572429"><ele>135.0</ele><time>2026-04-02T12:30:02.999Z</time></trkpt><trkpt lat="45.357684602921985" lon="10.606772319022925"><ele>135.0</ele><time>2026-04-02T12:30:03.999Z</time></trkpt><trkpt lat="45.35785136083529" lon="10.606886142075473"><ele>134.33333333333334</ele><time>2026-04-02T12:30:04.999Z</time></trkpt><trkpt lat="45.35802267724067" lon="10.606998169303948"><ele>133.66666666666669</ele><time>2026-04-02T12:30:05.999Z</time></trkpt><trkpt lat="45.35817422194512" lon="10.607096458448819"><ele>133.0</ele><time>2026-04-02T12:30:06.999Z</time></trkpt><trkpt lat="45.358329644858294" lon="10.607162644160692"><ele>132.33333333333334</ele><time>2026-04-02T12:30:07.999Z</time></trkpt><trkpt lat="45.35848092848525" lon="10.607241797829925"><ele>131.66666666666666</ele><time>2026-04-02T12:30:08.999Z</time></trkpt><trkpt lat="45.35863139631264" lon="10.607322861019274"><ele>131.0</ele><time>2026-04-02T12:30:09.999Z</time></trkpt><trkpt lat="45.358786017067956" lon="10.607376809974287"><ele>130.66666666666666</ele><time>2026-04-02T12:30:10.999Z</time></trkpt><trkpt lat="45.358941222639075" lon="10.607425386068625"><ele>130.33333333333334</ele><time>2026-04-02T12:30:11.999Z</time></trkpt><trkpt lat="45.35909710517753" lon="10.607440187423634"><ele>130.0</ele><time>2026-04-02T12:30:12.999Z</time></trkpt><trkpt lat="45.359245892659935" lon="10.607499468761416"><ele>130.0</ele><time>2026-04-02T12:30:13.999Z</time></trkpt><trkpt lat="45.35939690470969" lon="10.607535210496335"><ele>130.0</ele><time>2026-04-02T12:30:14.999Z</time></trkpt><trkpt lat="45.359538631532125" lon="10.607590095913814"><ele>130.0</ele><time>2026-04-02T12:30:15.999Z</time></trkpt><trkpt lat="45.35966024087358" lon="10.607691614282697"><ele>130.0</ele><time>2026-04-02T12:30:16.999Z</time></trkpt><trkpt lat="45.359749279862676" lon="10.607841087129785"><ele>130.33333333333334</ele><time>2026-04-02T12:30:17.999Z</time></trkpt><trkpt lat="45.359833049946594" lon="10.608009732063161"><ele>130.66666666666666</ele><time>2026-04-02T12:30:18.999Z</time></trkpt><trkpt lat="45.35992091077543" lon="10.608197732029707"><ele>131.0</ele><time>2026-04-02T12:30:19.999Z</time></trkpt><trkpt lat="45.36001052773251" lon="10.608372838895477"><ele>131.0</ele><time>2026-04-02T12:30:20.999Z</time></trkpt><trkpt lat="45.36010829518468" lon="10.608546189536371"><ele>131.0</ele><time>2026-04-02T12:30:21.999Z</time></trkpt><trkpt lat="45.36021538203653" lon="10.608708391362313"><ele>131.0</ele><time>2026-04-02T12:30:22.999Z</time></trkpt><trkpt lat="45.36033283541641" lon="10.608858259512159"><ele>130.66666666666666</ele><time>2026-04-02T12:30:23.999Z</time></trkpt><trkpt lat="45.360453590446895" lon="10.609002267514036"><ele>130.33333333333334</ele><time>2026-04-02T12:30:24.999Z</time></trkpt><trkpt lat="45.360575856039816" lon="10.609135987086809"><ele>130.0</ele><time>2026-04-02T12:30:25.999Z</time></trkpt><trkpt lat="45.36069975205775" lon="10.609266653747346"><ele>130.0</ele><time>2026-04-02T12:30:26.999Z</time></trkpt><trkpt lat="45.360823222284985" lon="10.609390474399557"><ele>130.0</ele><time>2026-04-02T12:30:27.999Z</time></trkpt><trkpt lat="45.36094858083387" lon="10.609507502989974"><ele>130.0</ele><time>2026-04-02T12:30:28.999Z</time></trkpt><trkpt lat="45.36107128562322" lon="10.60962132994831"><ele>130.0</ele><time>2026-04-02T12:30:29.999Z</time></trkpt><trkpt lat="45.3611914066949" lon="10.609734093322722"><ele>130.25</ele><time>2026-04-02T12:30:30.999Z</time></trkpt><trkpt lat="45.3613064832178" lon="10.609842121207866"><ele>130.5</ele><time>2026-04-02T12:30:31.999Z</time></trkpt><trkpt lat="45.361409820437984" lon="10.609928476809776"><ele>130.75</ele><time>2026-04-02T12:30:32.999Z</time></trkpt><trkpt lat="45.361490798383535" lon="10.610026945971665"><ele>131.0</ele><time>2026-04-02T12:30:33.999Z</time></trkpt><trkpt lat="45.36156293843812" lon="10.61010817370428"><ele>131.0</ele><time>2026-04-02T12:30:34.999Z</time></trkpt><trkpt lat="45.36164761465942" lon="10.610157329570763"><ele>131.0</ele><time>2026-04-02T12:30:36.999Z</time></trkpt><trkpt lat="45.36173343893105" lon="10.610142387857824"><ele>131.0</ele><time>2026-04-02T12:30:46.999Z</time></trkpt><trkpt lat="45.36176889907249" lon="10.609971167947545"><ele>131.0</ele><time>2026-04-02T12:30:47.999Z</time></trkpt><trkpt lat="45.36177297906176" lon="10.60984936665508"><ele>131.0</ele><time>2026-04-02T12:30:48.999Z</time></trkpt><trkpt lat="45.36176280430396" lon="10.60971372913645"><ele>131.0</ele><time>2026-04-02T12:30:49.999Z</time></trkpt><trkpt lat="45.36174250843929" lon="10.609552718650836"><ele>131.0</ele><time>2026-04-02T12:30:50.999Z</time></trkpt><trkpt lat="45.361721636763725" lon="10.60937879090738"><ele>131.0</ele><time>2026-04-02T12:30:51.999Z</time></trkpt><trkpt lat="45.361702899533256" lon="10.60920283629711"><ele>131.0</ele><time>2026-04-02T12:30:52.999Z</time></trkpt><trkpt lat="45.36168034438661" lon="10.60902408468495"><ele>131.75</ele><time>2026-04-02T12:30:53.999Z</time></trkpt><trkpt lat="45.36165449643528" lon="10.608829478846086"><ele>132.5</ele><time>2026-04-02T12:30:54.999Z</time></trkpt><trkpt lat="45.36162728453924" lon="10.60862303431648"><ele>133.25</ele><time>2026-04-02T12:30:56Z</time></trkpt><trkpt lat="45.361598346710984" lon="10.608408038599357"><ele>134.0</ele><time>2026-04-02T12:30:57Z</time></trkpt><trkpt lat="45.36156826184374" lon="10.60818524726941"><ele>136.33333333333331</ele><time>2026-04-02T12:30:58Z</time></trkpt><trkpt lat="45.361540822904885" lon="10.607952480400147"><ele>138.66666666666666</ele><time>2026-04-02T12:30:59Z</time></trkpt><trkpt lat="45.36151812222072" lon="10.607710661680889"><ele>141.0</ele><time>2026-04-02T12:31:00Z</time></trkpt><trkpt lat="45.361502157734755" lon="10.607474000061417"><ele>143.0</ele><time>2026-04-02T12:31:01Z</time></trkpt><trkpt lat="45.36150556498956" lon="10.607246884063274"><ele>145.0</ele><time>2026-04-02T12:31:02Z</time></trkpt><trkpt lat="45.36151893073005" lon="10.607020383389196"><ele>147.0</ele><time>2026-04-02T12:31:03Z</time></trkpt><trkpt lat="45.361539580344335" lon="10.606787479875946"><ele>146.66666666666666</ele><time>2026-04-02T12:31:04Z</time></trkpt><trkpt lat="45.36156990594619" lon="10.606554773691196"><ele>146.33333333333331</ele><time>2026-04-02T12:31:05Z</time></trkpt><trkpt lat="45.36160981279266" lon="10.606326238961785"><ele>146.0</ele><time>2026-04-02T12:31:06Z</time></trkpt><trkpt lat="45.36165270662969" lon="10.606105572081201"><ele>146.0</ele><time>2026-04-02T12:31:07Z</time></trkpt><trkpt lat="45.36169702784046" lon="10.60591295817577"><ele>146.0</ele><time>2026-04-02T12:31:08Z</time></trkpt><trkpt lat="45.36173948474677" lon="10.60573209873641"><ele>146.0</ele><time>2026-04-02T12:31:09Z</time></trkpt><trkpt lat="45.36178424480622" lon="10.60555333389379"><ele>146.0</ele><time>2026-04-02T12:31:10Z</time></trkpt><trkpt lat="45.36183674788258" lon="10.60537956099167"><ele>145.75</ele><time>2026-04-02T12:31:11Z</time></trkpt><trkpt lat="45.36189685312308" lon="10.605208101078578"><ele>145.5</ele><time>2026-04-02T12:31:12Z</time></trkpt><trkpt lat="45.361963287899776" lon="10.605039747371201"><ele>145.25</ele><time>2026-04-02T12:31:13Z</time></trkpt><trkpt lat="45.36203321262651" lon="10.604882838009164"><ele>145.0</ele><time>2026-04-02T12:31:14Z</time></trkpt><trkpt lat="45.36209453637086" lon="10.604757801092623"><ele>145.0</ele><time>2026-04-02T12:31:15Z</time></trkpt><trkpt lat="45.36214817628374" lon="10.604656728882933"><ele>145.0</ele><time>2026-04-02T12:31:16Z</time></trkpt><trkpt lat="45.3621917858715" lon="10.604564734568973"><ele>145.0</ele><time>2026-04-02T12:31:17Z</time></trkpt><trkpt lat="45.36225288712863" lon="10.604471593876896"><ele>145.0</ele><time>2026-04-02T12:31:19Z</time></trkpt><trkpt lat="45.36207498574861" lon="10.604342266243206"><ele>144.0</ele><time>2026-04-02T12:31:22Z</time></trkpt><trkpt lat="45.361949706029506" lon="10.604344017764928"><ele>143.0</ele><time>2026-04-02T12:31:23Z</time></trkpt><trkpt lat="45.361819654895335" lon="10.604322664500247"><ele>142.0</ele><time>2026-04-02T12:31:24Z</time></trkpt><trkpt lat="45.36169370919142" lon="10.604284050833806"><ele>141.0</ele><time>2026-04-02T12:31:25Z</time></trkpt><trkpt lat="45.36155616876774" lon="10.604209868546379"><ele>141.0</ele><time>2026-04-02T12:31:26Z</time></trkpt><trkpt lat="45.36140692894164" lon="10.604102861696402"><ele>141.0</ele><time>2026-04-02T12:31:27Z</time></trkpt><trkpt lat="45.36124209776076" lon="10.603948724194199"><ele>141.0</ele><time>2026-04-02T12:31:28Z</time></trkpt><trkpt lat="45.36107399882073" lon="10.603757561454213"><ele>139.66666666666666</ele><time>2026-04-02T12:31:29Z</time></trkpt><trkpt lat="45.36091949145113" lon="10.603558479071097"><ele>138.33333333333331</ele><time>2026-04-02T12:31:30Z</time></trkpt><trkpt lat="45.36078718442255" lon="10.603345121051191"><ele>137.0</ele><time>2026-04-02T12:31:31Z</time></trkpt><trkpt lat="45.36065583054707" lon="10.603084683866902"><ele>136.66666666666666</ele><time>2026-04-02T12:31:32Z</time></trkpt><trkpt lat="45.360523926560354" lon="10.602804182723627"><ele>136.33333333333334</ele><time>2026-04-02T12:31:33Z</time></trkpt><trkpt lat="45.36040802190042" lon="10.602570296798696"><ele>136.0</ele><time>2026-04-02T12:31:34Z</time></trkpt><trkpt lat="45.36031370826533" lon="10.602353500598063"><ele>136.0</ele><time>2026-04-02T12:31:35Z</time></trkpt><trkpt lat="45.360239406717376" lon="10.602105480392867"><ele>136.0</ele><time>2026-04-02T12:31:36Z</time></trkpt><trkpt lat="45.36017337559219" lon="10.60182066128298"><ele>136.0</ele><time>2026-04-02T12:31:37Z</time></trkpt><trkpt lat="45.36011600143409" lon="10.601582720512463"><ele>136.2</ele><time>2026-04-02T12:31:38Z</time></trkpt><trkpt lat="45.36007652000619" lon="10.601436690216973"><ele>136.39999999999998</ele><time>2026-04-02T12:31:39Z</time></trkpt><trkpt lat="45.360035052257224" lon="10.60131296423106"><ele>136.6</ele><time>2026-04-02T12:31:40Z</time></trkpt><trkpt lat="45.359991176753695" lon="10.601220096917869"><ele>136.79999999999998</ele><time>2026-04-02T12:31:41Z</time></trkpt><trkpt lat="45.35991609775966" lon="10.601092479329374"><ele>137.0</ele><time>2026-04-02T12:31:42Z</time></trkpt><trkpt lat="45.359799747533465" lon="10.600925511478897"><ele>137.0</ele><time>2026-04-02T12:31:43Z</time></trkpt><trkpt lat="45.359652594440995" lon="10.600732182936486"><ele>137.0</ele><time>2026-04-02T12:31:44Z</time></trkpt><trkpt lat="45.35949618385173" lon="10.600507624109397"><ele>137.0</ele><time>2026-04-02T12:31:45Z</time></trkpt><trkpt lat="45.35936123871264" lon="10.600265531428537"><ele>135.5</ele><time>2026-04-02T12:31:46Z</time></trkpt><trkpt lat="45.359269466672146" lon="10.600066371091383"><ele>134.0</ele><time>2026-04-02T12:31:47Z</time></trkpt><trkpt lat="45.359202493937666" lon="10.599906691377752"><ele>132.5</ele><time>2026-04-02T12:31:48Z</time></trkpt><trkpt lat="45.35916361369909" lon="10.599723100227699"><ele>131.0</ele><time>2026-04-02T12:31:49Z</time></trkpt><trkpt lat="45.35913090965619" lon="10.599534589531629"><ele>131.25</ele><time>2026-04-02T12:31:50Z</time></trkpt><trkpt lat="45.35909598205542" lon="10.59941384980832"><ele>131.5</ele><time>2026-04-02T12:31:51Z</time></trkpt><trkpt lat="45.35901607392357" lon="10.599331103095631"><ele>131.75</ele><time>2026-04-02T12:31:52Z</time></trkpt><trkpt lat="45.35889278843574" lon="10.599233877270695"><ele>132.0</ele><time>2026-04-02T12:31:53Z</time></trkpt><trkpt lat="45.35874225472747" lon="10.59910625525255"><ele>132.33333333333334</ele><time>2026-04-02T12:31:54Z</time></trkpt><trkpt lat="45.35859624735057" lon="10.598971748944368"><ele>132.66666666666669</ele><time>2026-04-02T12:31:55Z</time></trkpt><trkpt lat="45.358481537000166" lon="10.598831164852808"><ele>133.0</ele><time>2026-04-02T12:31:56Z</time></trkpt><trkpt lat="45.35836348275681" lon="10.598664832474558"><ele>133.33333333333334</ele><time>2026-04-02T12:31:57Z</time></trkpt><trkpt lat="45.358230901670844" lon="10.598458117557941"><ele>133.66666666666666</ele><time>2026-04-02T12:31:58Z</time></trkpt><trkpt lat="45.358135990808776" lon="10.598278631724053"><ele>134.0</ele><time>2026-04-02T12:31:59Z</time></trkpt><trkpt lat="45.358077136807275" lon="10.598153203701987"><ele>134.0</ele><time>2026-04-02T12:32:00Z</time></trkpt><trkpt lat="45.3580404987876" lon="10.598064892156621"><ele>134.0</ele><time>2026-04-02T12:32:01Z</time></trkpt><trkpt lat="45.35800577108425" lon="10.597962628589617"><ele>134.0</ele><time>2026-04-02T12:32:03Z</time></trkpt><trkpt lat="45.357902045199566" lon="10.597953757814158"><ele>134.0</ele><time>2026-04-02T12:33:23Z</time></trkpt><trkpt lat="45.357827195105855" lon="10.597920750626216"><ele>134.0</ele><time>2026-04-02T12:33:24Z</time></trkpt><trkpt lat="45.35771499576889" lon="10.597877340686987"><ele>133.75</ele><time>2026-04-02T12:33:25Z</time></trkpt><trkpt lat="45.35756886297408" lon="10.597831571022303"><ele>133.5</ele><time>2026-04-02T12:33:26Z</time></trkpt><trkpt lat="45.35742980161788" lon="10.597788953077115"><ele>133.25</ele><time>2026-04-02T12:33:27Z</time></trkpt><trkpt lat="45.357300252552605" lon="10.59773923987035"><ele>133.0</ele><time>2026-04-02T12:33:28Z</time></trkpt><trkpt lat="45.35717139412737" lon="10.59769574155553"><ele>132.6</ele><time>2026-04-02T12:33:29Z</time></trkpt><trkpt lat="45.35704424364848" lon="10.59765641398721"><ele>132.20000000000002</ele><time>2026-04-02T12:33:30Z</time></trkpt><trkpt lat="45.356926791683925" lon="10.59762490941159"><ele>131.8</ele><time>2026-04-02T12:33:31Z</time></trkpt><trkpt lat="45.356827678155106" lon="10.59761129115817"><ele>131.4</ele><time>2026-04-02T12:33:32Z</time></trkpt><trkpt lat="45.35675037177303" lon="10.597609548777058"><ele>131.0</ele><time>2026-04-02T12:33:33Z</time></trkpt><trkpt lat="45.356682334027816" lon="10.597612867249737"><ele>131.0</ele><time>2026-04-02T12:33:34Z</time></trkpt><trkpt lat="45.35661521444128" lon="10.59761326283209"><ele>131.0</ele><time>2026-04-02T12:33:35Z</time></trkpt><trkpt lat="45.356530390229516" lon="10.597614428099417"><ele>131.0</ele><time>2026-04-02T12:33:37Z</time></trkpt><trkpt lat="45.35646580492281" lon="10.597556259858916"><ele>131.0</ele><time>2026-04-02T12:33:40Z</time></trkpt><trkpt lat="45.356510647327624" lon="10.597460389062496"><ele>131.0</ele><time>2026-04-02T12:33:43Z</time></trkpt><trkpt lat="45.35661674803233" lon="10.597515411279007"><ele>131.0</ele><time>2026-04-02T12:34:10Z</time></trkpt><trkpt lat="45.356737072034036" lon="10.597478125647982"><ele>131.0</ele><time>2026-04-02T12:34:12Z</time></trkpt><trkpt lat="45.35676964546417" lon="10.597379333038543"><ele>131.0</ele><time>2026-04-02T12:34:13Z</time></trkpt><trkpt lat="45.35679094171192" lon="10.597288370428743"><ele>131.0</ele><time>2026-04-02T12:34:14Z</time></trkpt><trkpt lat="45.35682659872541" lon="10.59712322577248"><ele>131.0</ele><time>2026-04-02T12:34:16Z</time></trkpt><trkpt lat="45.35686731025897" lon="10.59696555237399"><ele>131.0</ele><time>2026-04-02T12:34:18Z</time></trkpt><trkpt lat="45.35688322391" lon="10.596872849851646"><ele>131.4</ele><time>2026-04-02T12:34:19Z</time></trkpt><trkpt lat="45.35689754670165" lon="10.596773203334413"><ele>131.8</ele><time>2026-04-02T12:34:20Z</time></trkpt><trkpt lat="45.35691133555567" lon="10.596662995683495"><ele>132.20000000000002</ele><time>2026-04-02T12:34:21Z</time></trkpt><trkpt lat="45.356917987486845" lon="10.596533596764916"><ele>132.6</ele><time>2026-04-02T12:34:22Z</time></trkpt><trkpt lat="45.356917191746746" lon="10.596386399167704"><ele>133.0</ele><time>2026-04-02T12:34:23Z</time></trkpt><trkpt lat="45.35690130894149" lon="10.596201021009495"><ele>133.4</ele><time>2026-04-02T12:34:24Z</time></trkpt><trkpt lat="45.3568646911227" lon="10.595992934914737"><ele>133.8</ele><time>2026-04-02T12:34:25Z</time></trkpt><trkpt lat="45.35684981700406" lon="10.595851814002671"><ele>134.2</ele><time>2026-04-02T12:34:26Z</time></trkpt><trkpt lat="45.35686364361759" lon="10.59572913793773"><ele>134.6</ele><time>2026-04-02T12:34:27Z</time></trkpt><trkpt lat="45.35690648095034" lon="10.595601468946121"><ele>135.0</ele><time>2026-04-02T12:34:28Z</time></trkpt><trkpt lat="45.35696537582123" lon="10.595467399158615"><ele>135.0</ele><time>2026-04-02T12:34:29Z</time></trkpt><trkpt lat="45.35705158144458" lon="10.595359749779957"><ele>135.0</ele><time>2026-04-02T12:34:30Z</time></trkpt><trkpt lat="45.35717658267184" lon="10.595256226414886"><ele>135.0</ele><time>2026-04-02T12:34:31Z</time></trkpt><trkpt lat="45.35731275879305" lon="10.595164996815448"><ele>135.0</ele><time>2026-04-02T12:34:32Z</time></trkpt><trkpt lat="45.35740911292494" lon="10.595076207096646"><ele>135.5</ele><time>2026-04-02T12:34:33Z</time></trkpt><trkpt lat="45.35748829885185" lon="10.594971615176696"><ele>136.0</ele><time>2026-04-02T12:34:34Z</time></trkpt><trkpt lat="45.35757592553791" lon="10.594878102387154"><ele>136.5</ele><time>2026-04-02T12:34:35Z</time></trkpt><trkpt lat="45.35768326921185" lon="10.594789884911263"><ele>137.0</ele><time>2026-04-02T12:34:36Z</time></trkpt><trkpt lat="45.35781032639469" lon="10.5946763230752"><ele>137.0</ele><time>2026-04-02T12:34:36.999Z</time></trkpt><trkpt lat="45.35794072695196" lon="10.594574325205851"><ele>137.0</ele><time>2026-04-02T12:34:37.999Z</time></trkpt><trkpt lat="45.35806570348335" lon="10.59445882985277"><ele>137.0</ele><time>2026-04-02T12:34:38.999Z</time></trkpt><trkpt lat="45.35816948357913" lon="10.594359610307896"><ele>137.0</ele><time>2026-04-02T12:34:39.999Z</time></trkpt><trkpt lat="45.35824015042765" lon="10.594277232976664"><ele>138.79999999999998</ele><time>2026-04-02T12:34:40.999Z</time></trkpt><trkpt lat="45.358293232211096" lon="10.594167599654467"><ele>140.6</ele><time>2026-04-02T12:34:41.999Z</time></trkpt><trkpt lat="45.35833310997448" lon="10.594037926010687"><ele>142.39999999999998</ele><time>2026-04-02T12:34:42.999Z</time></trkpt><trkpt lat="45.3583742287125" lon="10.593905662769219"><ele>144.2</ele><time>2026-04-02T12:34:43.999Z</time></trkpt><trkpt lat="45.35841623224981" lon="10.59378890058163"><ele>146.0</ele><time>2026-04-02T12:34:44.999Z</time></trkpt><trkpt lat="45.358476225156146" lon="10.59369002527373"><ele>146.25</ele><time>2026-04-02T12:34:45.999Z</time></trkpt><trkpt lat="45.358566884984" lon="10.593587893134252"><ele>146.5</ele><time>2026-04-02T12:34:46.999Z</time></trkpt><trkpt lat="45.35866752005695" lon="10.593471040118391"><ele>146.75</ele><time>2026-04-02T12:34:47.999Z</time></trkpt><trkpt lat="45.358774908105175" lon="10.593326330126494"><ele>147.0</ele><time>2026-04-02T12:34:48.999Z</time></trkpt><trkpt lat="45.358863485804896" lon="10.593200451495854"><ele>149.5</ele><time>2026-04-02T12:34:49.999Z</time></trkpt><trkpt lat="45.358942782700375" lon="10.593131186362287"><ele>152.0</ele><time>2026-04-02T12:34:50.999Z</time></trkpt><trkpt lat="45.35905569997002" lon="10.59307442727071"><ele>154.5</ele><time>2026-04-02T12:34:51.999Z</time></trkpt><trkpt lat="45.359172419575906" lon="10.592991714695366"><ele>157.0</ele><time>2026-04-02T12:34:52.999Z</time></trkpt><trkpt lat="45.359316593506385" lon="10.592853129208681"><ele>158.25</ele><time>2026-04-02T12:34:53.999Z</time></trkpt><trkpt lat="45.35944841187992" lon="10.59273230491806"><ele>159.5</ele><time>2026-04-02T12:34:54.999Z</time></trkpt><trkpt lat="45.359562932876386" lon="10.59265370014323"><ele>160.75</ele><time>2026-04-02T12:34:55.999Z</time></trkpt><trkpt lat="45.35966656726807" lon="10.592601629359931"><ele>162.0</ele><time>2026-04-02T12:34:56.999Z</time></trkpt><trkpt lat="45.3597658569972" lon="10.592553439561025"><ele>162.0</ele><time>2026-04-02T12:34:57.999Z</time></trkpt><trkpt lat="45.35985028850303" lon="10.592497721629853"><ele>162.0</ele><time>2026-04-02T12:34:58.999Z</time></trkpt><trkpt lat="45.35992775780665" lon="10.592416960418062"><ele>162.0</ele><time>2026-04-02T12:34:59.999Z</time></trkpt><trkpt lat="45.35999959687974" lon="10.592300916560095"><ele>162.0</ele><time>2026-04-02T12:35:00.999Z</time></trkpt><trkpt lat="45.360073380602444" lon="10.592172387504922"><ele>162.0</ele><time>2026-04-02T12:35:01.999Z</time></trkpt><trkpt lat="45.36011581562759" lon="10.592104381712673"><ele>162.0</ele><time>2026-04-02T12:35:02.999Z</time></trkpt><trkpt lat="45.36016567845457" lon="10.59201960209042"><ele>162.0</ele><time>2026-04-02T12:35:05.999Z</time></trkpt><trkpt lat="45.36021639285056" lon="10.591938151999988"><ele>162.0</ele><time>2026-04-02T12:35:08Z</time></trkpt><trkpt lat="45.36027228158683" lon="10.591865191412047"><ele>162.0</ele><time>2026-04-02T12:35:09Z</time></trkpt><trkpt lat="45.360348010635086" lon="10.591777778963571"><ele>162.0</ele><time>2026-04-02T12:35:10Z</time></trkpt><trkpt lat="45.36043758844443" lon="10.591677055140027"><ele>162.0</ele><time>2026-04-02T12:35:11Z</time></trkpt><trkpt lat="45.36051557122149" lon="10.591584314834611"><ele>162.75</ele><time>2026-04-02T12:35:12Z</time></trkpt><trkpt lat="45.36057451977331" lon="10.591470433329247"><ele>163.5</ele><time>2026-04-02T12:35:13Z</time></trkpt><trkpt lat="45.36063390312481" lon="10.59133515081736"><ele>164.25</ele><time>2026-04-02T12:35:14Z</time></trkpt><trkpt lat="45.36067982072703" lon="10.591181199422177"><ele>165.0</ele><time>2026-04-02T12:35:15Z</time></trkpt><trkpt lat="45.360724457372825" lon="10.590999732126564"><ele>163.25</ele><time>2026-04-02T12:35:16Z</time></trkpt><trkpt lat="45.36076266204836" lon="10.590844759201579"><ele>161.5</ele><time>2026-04-02T12:35:17Z</time></trkpt><trkpt lat="45.360777407625136" lon="10.59069688053645"><ele>159.75</ele><time>2026-04-02T12:35:18Z</time></trkpt><trkpt lat="45.36078322614645" lon="10.590519789917474"><ele>158.0</ele><time>2026-04-02T12:35:19Z</time></trkpt><trkpt lat="45.36080369852431" lon="10.590343520856573"><ele>156.75</ele><time>2026-04-02T12:35:20Z</time></trkpt><trkpt lat="45.36084752345003" lon="10.590178024745923"><ele>155.5</ele><time>2026-04-02T12:35:21Z</time></trkpt><trkpt lat="45.360906101318044" lon="10.59001788372388"><ele>154.25</ele><time>2026-04-02T12:35:22Z</time></trkpt><trkpt lat="45.360977119943506" lon="10.58987326909298"><ele>153.0</ele><time>2026-04-02T12:35:23Z</time></trkpt><trkpt lat="45.361057400529845" lon="10.589732079337399"><ele>153.0</ele><time>2026-04-02T12:35:24Z</time></trkpt><trkpt lat="45.361155265229925" lon="10.58955919237496"><ele>153.0</ele><time>2026-04-02T12:35:25Z</time></trkpt><trkpt lat="45.36123726303419" lon="10.589390780049827"><ele>153.0</ele><time>2026-04-02T12:35:26Z</time></trkpt><trkpt lat="45.36130427152535" lon="10.589235568497019"><ele>153.0</ele><time>2026-04-02T12:35:27Z</time></trkpt><trkpt lat="45.361353088567604" lon="10.589058614339963"><ele>153.25</ele><time>2026-04-02T12:35:28Z</time></trkpt><trkpt lat="45.361406618526104" lon="10.588885321085417"><ele>153.5</ele><time>2026-04-02T12:35:29Z</time></trkpt><trkpt lat="45.36146103415193" lon="10.588703044153801"><ele>153.75</ele><time>2026-04-02T12:35:30Z</time></trkpt><trkpt lat="45.361514299393285" lon="10.58852320840992"><ele>154.0</ele><time>2026-04-02T12:35:31Z</time></trkpt><trkpt lat="45.3615669729682" lon="10.588362850730372"><ele>154.6</ele><time>2026-04-02T12:35:32Z</time></trkpt><trkpt lat="45.361611513864474" lon="10.588225538654722"><ele>155.2</ele><time>2026-04-02T12:35:33Z</time></trkpt><trkpt lat="45.36165577342773" lon="10.588105373852553"><ele>155.79999999999998</ele><time>2026-04-02T12:35:34Z</time></trkpt><trkpt lat="45.36172115592197" lon="10.587997187906717"><ele>156.4</ele><time>2026-04-02T12:35:35Z</time></trkpt><trkpt lat="45.36180437568693" lon="10.587886281667087"><ele>157.0</ele><time>2026-04-02T12:35:36Z</time></trkpt><trkpt lat="45.361906865960236" lon="10.58777298213337"><ele>157.66666666666669</ele><time>2026-04-02T12:35:37Z</time></trkpt><trkpt lat="45.362030557007934" lon="10.587659194301304"><ele>158.33333333333334</ele><time>2026-04-02T12:35:38Z</time></trkpt><trkpt lat="45.362158508312554" lon="10.587505060074891"><ele>159.0</ele><time>2026-04-02T12:35:39Z</time></trkpt><trkpt lat="45.36226317676709" lon="10.587370250865293"><ele>159.0</ele><time>2026-04-02T12:35:40Z</time></trkpt><trkpt lat="45.362352998879864" lon="10.587231529894515"><ele>159.0</ele><time>2026-04-02T12:35:41Z</time></trkpt><trkpt lat="45.362424891739344" lon="10.587099150381048"><ele>159.0</ele><time>2026-04-02T12:35:42Z</time></trkpt><trkpt lat="45.36248769487113" lon="10.58697488072714"><ele>159.0</ele><time>2026-04-02T12:35:43Z</time></trkpt><trkpt lat="45.36255169428543" lon="10.586862521196675"><ele>158.2</ele><time>2026-04-02T12:35:44Z</time></trkpt><trkpt lat="45.362606171947725" lon="10.586759295146017"><ele>157.4</ele><time>2026-04-02T12:35:45Z</time></trkpt><trkpt lat="45.36263593130846" lon="10.586660614186401"><ele>156.6</ele><time>2026-04-02T12:35:46Z</time></trkpt><trkpt lat="45.36263676092125" lon="10.586543096405586"><ele>155.8</ele><time>2026-04-02T12:35:47Z</time></trkpt><trkpt lat="45.36262191477218" lon="10.586387568308643"><ele>155.0</ele><time>2026-04-02T12:35:48Z</time></trkpt><trkpt lat="45.36260318275063" lon="10.58619527620977"><ele>154.66666666666666</ele><time>2026-04-02T12:35:49Z</time></trkpt><trkpt lat="45.36259517933734" lon="10.586035296906376"><ele>154.33333333333331</ele><time>2026-04-02T12:35:50Z</time></trkpt><trkpt lat="45.36259172030118" lon="10.585900542805465"><ele>154.0</ele><time>2026-04-02T12:35:51Z</time></trkpt><trkpt lat="45.36256961736539" lon="10.585793490144782"><ele>153.66666666666666</ele><time>2026-04-02T12:35:52Z</time></trkpt><trkpt lat="45.36253074782298" lon="10.585693658089287"><ele>153.33333333333334</ele><time>2026-04-02T12:35:53Z</time></trkpt><trkpt lat="45.362502082907156" lon="10.585586841578849"><ele>153.0</ele><time>2026-04-02T12:35:54Z</time></trkpt><trkpt lat="45.36250117260011" lon="10.585480360677563"><ele>153.0</ele><time>2026-04-02T12:35:55Z</time></trkpt><trkpt lat="45.36251980172439" lon="10.58537020335812"><ele>153.0</ele><time>2026-04-02T12:35:56Z</time></trkpt><trkpt lat="45.362558122651926" lon="10.58525352062774"><ele>153.0</ele><time>2026-04-02T12:35:57Z</time></trkpt><trkpt lat="45.36261120729323" lon="10.585138660077876"><ele>153.0</ele><time>2026-04-02T12:35:58Z</time></trkpt><trkpt lat="45.362654937469536" lon="10.585018943302869"><ele>153.0</ele><time>2026-04-02T12:35:59Z</time></trkpt><trkpt lat="45.36267320045588" lon="10.58490737798825"><ele>153.0</ele><time>2026-04-02T12:36:00Z</time></trkpt><trkpt lat="45.36265926349885" lon="10.584811872393047"><ele>153.20000000000002</ele><time>2026-04-02T12:36:01Z</time></trkpt><trkpt lat="45.3626240084154" lon="10.584723067981301"><ele>153.4</ele><time>2026-04-02T12:36:02Z</time></trkpt><trkpt lat="45.362556570102" lon="10.584608997967132"><ele>153.60000000000002</ele><time>2026-04-02T12:36:04Z</time></trkpt><trkpt lat="45.36248518563051" lon="10.584540642524559"><ele>153.8</ele><time>2026-04-02T12:36:06Z</time></trkpt><trkpt lat="45.362394236688594" lon="10.584579086208947"><ele>154.0</ele><time>2026-04-02T12:36:08Z</time></trkpt><trkpt lat="45.3622936106004" lon="10.584603153398659"><ele>154.0</ele><time>2026-04-02T12:36:10Z</time></trkpt><trkpt lat="45.36221784848362" lon="10.584622939408446"><ele>154.0</ele><time>2026-04-02T12:36:12Z</time></trkpt><trkpt lat="45.36219397344529" lon="10.584714704557417"><ele>154.0</ele><time>2026-04-02T12:36:14Z</time></trkpt><trkpt lat="45.36219802805587" lon="10.584821690065104"><ele>154.0</ele><time>2026-04-02T12:36:16Z</time></trkpt><trkpt lat="45.3621614539184" lon="10.584904442186719"><ele>154.0</ele><time>2026-04-02T12:36:18Z</time></trkpt><trkpt lat="45.362065392043085" lon="10.584942701723689"><ele>154.0</ele><time>2026-04-02T12:36:20Z</time></trkpt><trkpt lat="45.361978383694286" lon="10.585054365751462"><ele>156.4</ele><time>2026-04-02T12:36:22Z</time></trkpt><trkpt lat="45.36193753019919" lon="10.585151622146165"><ele>158.8</ele><time>2026-04-02T12:36:23Z</time></trkpt><trkpt lat="45.36185221333107" lon="10.585204107947522"><ele>161.20000000000002</ele><time>2026-04-02T12:36:25Z</time></trkpt><trkpt lat="45.36175160281927" lon="10.585229661212724"><ele>163.60000000000002</ele><time>2026-04-02T12:36:27Z</time></trkpt><trkpt lat="45.36172077557367" lon="10.585128839748652"><ele>166.0</ele><time>2026-04-02T12:36:29Z</time></trkpt><trkpt lat="45.36167268504454" lon="10.584993917859268"><ele>166.0</ele><time>2026-04-02T12:36:31Z</time></trkpt><trkpt lat="45.36162459847718" lon="10.584875934435516"><ele>166.0</ele><time>2026-04-02T12:36:33Z</time></trkpt><trkpt lat="45.36168237268233" lon="10.584698314742646"><ele>166.0</ele><time>2026-04-02T12:36:35Z</time></trkpt><trkpt lat="45.36170829903375" lon="10.584611022618734"><ele>166.0</ele><time>2026-04-02T12:36:36Z</time></trkpt><trkpt lat="45.36177092741436" lon="10.58443294776712"><ele>166.0</ele><time>2026-04-02T12:36:38Z</time></trkpt><trkpt lat="45.36182110601648" lon="10.584299377768621"><ele>166.16666666666669</ele><time>2026-04-02T12:36:39Z</time></trkpt><trkpt lat="45.361880148882" lon="10.584165965298233"><ele>166.33333333333334</ele><time>2026-04-02T12:36:40Z</time></trkpt><trkpt lat="45.361928182710436" lon="10.5840398980616"><ele>166.5</ele><time>2026-04-02T12:36:41Z</time></trkpt><trkpt lat="45.361947350066245" lon="10.583934934079302"><ele>166.66666666666666</ele><time>2026-04-02T12:36:42Z</time></trkpt><trkpt lat="45.36196509452135" lon="10.583825257706662"><ele>166.83333333333331</ele><time>2026-04-02T12:36:43Z</time></trkpt><trkpt lat="45.36197530543721" lon="10.58371056499835"><ele>167.0</ele><time>2026-04-02T12:36:44Z</time></trkpt><trkpt lat="45.361982857405636" lon="10.583602462405695"><ele>166.5</ele><time>2026-04-02T12:36:45Z</time></trkpt><trkpt lat="45.361972405362984" lon="10.583492844662608"><ele>166.0</ele><time>2026-04-02T12:36:46Z</time></trkpt><trkpt lat="45.36194795319703" lon="10.58338266306022"><ele>165.5</ele><time>2026-04-02T12:36:47Z</time></trkpt><trkpt lat="45.36193025005535" lon="10.583248429450862"><ele>165.0</ele><time>2026-04-02T12:36:48Z</time></trkpt><trkpt lat="45.36191632747697" lon="10.58312343999126"><ele>164.5</ele><time>2026-04-02T12:36:49Z</time></trkpt><trkpt lat="45.36191289267644" lon="10.583026005973032"><ele>164.0</ele><time>2026-04-02T12:36:50Z</time></trkpt><trkpt lat="45.36190320972573" lon="10.582934269392524"><ele>163.0</ele><time>2026-04-02T12:36:51Z</time></trkpt><trkpt lat="45.36187938756298" lon="10.582748861107353"><ele>162.0</ele><time>2026-04-02T12:36:53Z</time></trkpt><trkpt lat="45.3618666839836" lon="10.582627424784464"><ele>161.0</ele><time>2026-04-02T12:36:53.999Z</time></trkpt><trkpt lat="45.361852174826744" lon="10.58244862480923"><ele>160.0</ele><time>2026-04-02T12:36:54.999Z</time></trkpt><trkpt lat="45.361852921289234" lon="10.582342971117962"><ele>159.0</ele><time>2026-04-02T12:36:55.999Z</time></trkpt><trkpt lat="45.36186356026355" lon="10.58223669829782"><ele>159.0</ele><time>2026-04-02T12:36:56.999Z</time></trkpt><trkpt lat="45.36186698333588" lon="10.582144195962652"><ele>159.0</ele><time>2026-04-02T12:36:57.999Z</time></trkpt><trkpt lat="45.36185024984565" lon="10.58202123541259"><ele>159.0</ele><time>2026-04-02T12:36:59.999Z</time></trkpt><trkpt lat="45.36176637712628" lon="10.581913270627975"><ele>159.0</ele><time>2026-04-02T12:37:02.999Z</time></trkpt><trkpt lat="45.36169900526193" lon="10.581792736839002"><ele>159.0</ele><time>2026-04-02T12:37:04.999Z</time></trkpt><trkpt lat="45.36163432554144" lon="10.581658223826746"><ele>158.4</ele><time>2026-04-02T12:37:06.999Z</time></trkpt><trkpt lat="45.361605304389954" lon="10.581573337982485"><ele>157.8</ele><time>2026-04-02T12:37:07.999Z</time></trkpt><trkpt lat="45.36157506134127" lon="10.581488262264642"><ele>157.2</ele><time>2026-04-02T12:37:08.999Z</time></trkpt><trkpt lat="45.36149800836235" lon="10.581353169230155"><ele>156.6</ele><time>2026-04-02T12:37:10.999Z</time></trkpt><trkpt lat="45.36142304147904" lon="10.5812498111397"><ele>156.0</ele><time>2026-04-02T12:37:12.999Z</time></trkpt><trkpt lat="45.36132197278259" lon="10.581144395287732"><ele>154.0</ele><time>2026-04-02T12:37:15Z</time></trkpt><trkpt lat="45.36125464305228" lon="10.581035075142912"><ele>152.0</ele><time>2026-04-02T12:37:17Z</time></trkpt><trkpt lat="45.36121377722188" lon="10.580964768421193"><ele>150.0</ele><time>2026-04-02T12:37:20Z</time></trkpt><trkpt lat="45.361233700442504" lon="10.580729210931695"><ele>148.0</ele><time>2026-04-02T12:38:22Z</time></trkpt><trkpt lat="45.36130037325709" lon="10.58064318150612"><ele>146.0</ele><time>2026-04-02T12:38:23Z</time></trkpt><trkpt lat="45.36135730835623" lon="10.58053918376314"><ele>147.2</ele><time>2026-04-02T12:38:24Z</time></trkpt><trkpt lat="45.361419832481495" lon="10.580502280531336"><ele>148.39999999999998</ele><time>2026-04-02T12:38:26Z</time></trkpt><trkpt lat="45.36152141797638" lon="10.58046898672026"><ele>149.6</ele><time>2026-04-02T12:38:30Z</time></trkpt><trkpt lat="45.36149475315788" lon="10.58060811957841"><ele>150.79999999999998</ele><time>2026-04-02T12:38:31Z</time></trkpt><trkpt lat="45.36156414160845" lon="10.580728610604158"><ele>152.0</ele><time>2026-04-02T12:38:33Z</time></trkpt><trkpt lat="45.361649695830934" lon="10.580821763976786"><ele>152.0</ele><time>2026-04-02T12:38:35Z</time></trkpt><trkpt lat="45.36174287951341" lon="10.58091768462287"><ele>152.0</ele><time>2026-04-02T12:38:37Z</time></trkpt><trkpt lat="45.3617985247148" lon="10.58097605062089"><ele>152.0</ele><time>2026-04-02T12:38:38Z</time></trkpt><trkpt lat="45.36186427744252" lon="10.581032432693394"><ele>152.0</ele><time>2026-04-02T12:38:39Z</time></trkpt><trkpt lat="45.361941621595506" lon="10.581093231438874"><ele>152.0</ele><time>2026-04-02T12:38:40Z</time></trkpt><trkpt lat="45.362014323896624" lon="10.581163190985496"><ele>152.0</ele><time>2026-04-02T12:38:41Z</time></trkpt><trkpt lat="45.36208458363459" lon="10.581243766361684"><ele>152.57142857142856</ele><time>2026-04-02T12:38:42Z</time></trkpt><trkpt lat="45.36213860522527" lon="10.581326523434907"><ele>153.14285714285717</ele><time>2026-04-02T12:38:43Z</time></trkpt><trkpt lat="45.362171832397586" lon="10.581407420703654"><ele>153.71428571428572</ele><time>2026-04-02T12:38:44Z</time></trkpt><trkpt lat="45.36219711832436" lon="10.581506421533705"><ele>154.28571428571428</ele><time>2026-04-02T12:38:45Z</time></trkpt><trkpt lat="45.36220444991662" lon="10.58161345560483"><ele>154.85714285714283</ele><time>2026-04-02T12:38:46Z</time></trkpt><trkpt lat="45.36220979262219" lon="10.581719613622095"><ele>155.42857142857144</ele><time>2026-04-02T12:38:47Z</time></trkpt><trkpt lat="45.36221177361879" lon="10.581809504764925"><ele>156.0</ele><time>2026-04-02T12:38:48Z</time></trkpt><trkpt lat="45.36220965379538" lon="10.581978026500778"><ele>153.8</ele><time>2026-04-02T12:38:50Z</time></trkpt><trkpt lat="45.36220521524399" lon="10.582110393106204"><ele>151.6</ele><time>2026-04-02T12:38:51Z</time></trkpt><trkpt lat="45.36220492416653" lon="10.582260476320576"><ele>149.4</ele><time>2026-04-02T12:38:52Z</time></trkpt><trkpt lat="45.362213138549755" lon="10.582424137586344"><ele>147.2</ele><time>2026-04-02T12:38:53Z</time></trkpt><trkpt lat="45.362218997483055" lon="10.58259363058839"><ele>145.0</ele><time>2026-04-02T12:38:54Z</time></trkpt><trkpt lat="45.362235411208076" lon="10.582763549159589"><ele>146.25</ele><time>2026-04-02T12:38:55Z</time></trkpt><trkpt lat="45.362264227032085" lon="10.582930284479101"><ele>147.5</ele><time>2026-04-02T12:38:56Z</time></trkpt><trkpt lat="45.362296140455975" lon="10.58309995896379"><ele>148.75</ele><time>2026-04-02T12:38:57Z</time></trkpt><trkpt lat="45.362334450550456" lon="10.583265507715433"><ele>150.0</ele><time>2026-04-02T12:38:58Z</time></trkpt><trkpt lat="45.36235801737893" lon="10.583406206078335"><ele>150.0</ele><time>2026-04-02T12:38:59Z</time></trkpt><trkpt lat="45.36237778563137" lon="10.58351353046786"><ele>150.0</ele><time>2026-04-02T12:39:00Z</time></trkpt><trkpt lat="45.362394451996956" lon="10.583600437193153"><ele>150.0</ele><time>2026-04-02T12:39:01Z</time></trkpt><trkpt lat="45.36240779042627" lon="10.583704586381343"><ele>150.0</ele><time>2026-04-02T12:39:03Z</time></trkpt><trkpt lat="45.36240389163935" lon="10.583801998912664"><ele>150.0</ele><time>2026-04-02T12:39:08Z</time></trkpt><trkpt lat="45.36241693887158" lon="10.58397410317266"><ele>150.0</ele><time>2026-04-02T12:39:33Z</time></trkpt><trkpt lat="45.36242274260506" lon="10.58411142628928"><ele>150.6</ele><time>2026-04-02T12:39:34Z</time></trkpt><trkpt lat="45.36242261506316" lon="10.584241127455645"><ele>151.2</ele><time>2026-04-02T12:39:35Z</time></trkpt><trkpt lat="45.36243012931721" lon="10.584338756546403"><ele>151.8</ele><time>2026-04-02T12:39:36Z</time></trkpt><trkpt lat="45.362459093121316" lon="10.584475870908241"><ele>152.4</ele><time>2026-04-02T12:39:38Z</time></trkpt><trkpt lat="45.36244662539907" lon="10.584568594346731"><ele>153.0</ele><time>2026-04-02T12:39:40Z</time></trkpt><trkpt lat="45.36245006578885" lon="10.584216389615431"><ele>153.0</ele><time>2026-04-02T12:39:48Z</time></trkpt><trkpt lat="45.36243004232286" lon="10.584011783281596"><ele>153.0</ele><time>2026-04-02T12:39:49Z</time></trkpt><trkpt lat="45.362403042308934" lon="10.583790384012335"><ele>153.0</ele><time>2026-04-02T12:39:50Z</time></trkpt><trkpt lat="45.362363913994585" lon="10.583559350011647"><ele>152.0</ele><time>2026-04-02T12:39:51Z</time></trkpt><trkpt lat="45.362308563326785" lon="10.583244758703882"><ele>151.0</ele><time>2026-04-02T12:39:52Z</time></trkpt><trkpt lat="45.36226922502168" lon="10.583001080072512"><ele>150.0</ele><time>2026-04-02T12:39:53Z</time></trkpt><trkpt lat="45.36224328504004" lon="10.58275479436455"><ele>148.66666666666666</ele><time>2026-04-02T12:39:54Z</time></trkpt><trkpt lat="45.36223896686704" lon="10.582517609672301"><ele>147.33333333333331</ele><time>2026-04-02T12:39:55Z</time></trkpt><trkpt lat="45.36223221934909" lon="10.582267830007078"><ele>146.0</ele><time>2026-04-02T12:39:56Z</time></trkpt><trkpt lat="45.362233862463164" lon="10.5820111211522"><ele>146.0</ele><time>2026-04-02T12:39:57Z</time></trkpt><trkpt lat="45.362236973644876" lon="10.581789771956595"><ele>146.0</ele><time>2026-04-02T12:39:58Z</time></trkpt><trkpt lat="45.36222400098027" lon="10.581660843970502"><ele>146.0</ele><time>2026-04-02T12:39:59Z</time></trkpt><trkpt lat="45.36221208499371" lon="10.581501641450648"><ele>146.0</ele><time>2026-04-02T12:40:00Z</time></trkpt><trkpt lat="45.362166054704886" lon="10.581376514523914"><ele>147.5</ele><time>2026-04-02T12:40:21.999Z</time></trkpt><trkpt lat="45.36205106371799" lon="10.581259823970756"><ele>149.0</ele><time>2026-04-02T12:40:23.999Z</time></trkpt><trkpt lat="45.36194808650208" lon="10.581145976707472"><ele>150.5</ele><time>2026-04-02T12:40:24.999Z</time></trkpt><trkpt lat="45.36183942255594" lon="10.581039168262622"><ele>152.0</ele><time>2026-04-02T12:40:25.999Z</time></trkpt><trkpt lat="45.361696824841324" lon="10.58089321159304"><ele>152.0</ele><time>2026-04-02T12:40:26.999Z</time></trkpt><trkpt lat="45.36157905510248" lon="10.580771054659824"><ele>152.0</ele><time>2026-04-02T12:40:27.999Z</time></trkpt><trkpt lat="45.36153048913276" lon="10.580703827586168"><ele>152.0</ele><time>2026-04-02T12:40:28.999Z</time></trkpt><trkpt lat="45.36148341568141" lon="10.580598868634448"><ele>152.0</ele><time>2026-04-02T12:40:29.999Z</time></trkpt><trkpt lat="45.36141907210733" lon="10.580459643786272"><ele>152.0</ele><time>2026-04-02T12:40:31.999Z</time></trkpt><trkpt lat="45.3613896697246" lon="10.580375762761337"><ele>152.0</ele><time>2026-04-02T12:40:32.999Z</time></trkpt><trkpt lat="45.3614133748225" lon="10.580292029713515"><ele>152.0</ele><time>2026-04-02T12:40:36.999Z</time></trkpt><trkpt lat="45.36146966895734" lon="10.580333606864261"><ele>152.0</ele><time>2026-04-02T12:40:50.999Z</time></trkpt><trkpt lat="45.36154993624679" lon="10.580394648474192"><ele>152.0</ele><time>2026-04-02T12:40:54.999Z</time></trkpt><trkpt lat="45.36160971745304" lon="10.580443320896222"><ele>152.0</ele><time>2026-04-02T12:40:57.999Z</time></trkpt><trkpt lat="45.3617475317529" lon="10.58061557063688"><ele>152.0</ele><time>2026-04-02T12:41:30Z</time></trkpt><trkpt lat="45.361852822687084" lon="10.580729232775159"><ele>152.0</ele><time>2026-04-02T12:41:31Z</time></trkpt><trkpt lat="45.3619403652651" lon="10.580836753640694"><ele>152.0</ele><time>2026-04-02T12:41:32Z</time></trkpt><trkpt lat="45.36203113325238" lon="10.580921332936779"><ele>152.0</ele><time>2026-04-02T12:41:33Z</time></trkpt><trkpt lat="45.36212269260328" lon="10.581004196216822"><ele>151.16666666666666</ele><time>2026-04-02T12:41:34Z</time></trkpt><trkpt lat="45.36220854463174" lon="10.581077345864736"><ele>150.33333333333331</ele><time>2026-04-02T12:41:35Z</time></trkpt><trkpt lat="45.36229543260552" lon="10.581126420956185"><ele>149.5</ele><time>2026-04-02T12:41:36Z</time></trkpt><trkpt lat="45.36236731993109" lon="10.58118626915821"><ele>148.66666666666666</ele><time>2026-04-02T12:41:37Z</time></trkpt><trkpt lat="45.362437203579816" lon="10.581224098792225"><ele>147.83333333333334</ele><time>2026-04-02T12:41:38Z</time></trkpt><trkpt lat="45.362501532737035" lon="10.581253596206839"><ele>147.0</ele><time>2026-04-02T12:41:39Z</time></trkpt><trkpt lat="45.36261217207256" lon="10.581277701665993"><ele>147.0</ele><time>2026-04-02T12:41:41Z</time></trkpt><trkpt lat="45.362693565178915" lon="10.581187984048755"><ele>147.0</ele><time>2026-04-02T12:41:43Z</time></trkpt><trkpt lat="45.36272585989016" lon="10.581098716660197"><ele>147.0</ele><time>2026-04-02T12:41:44Z</time></trkpt><trkpt lat="45.362756479824874" lon="10.580986853753522"><ele>147.0</ele><time>2026-04-02T12:41:45Z</time></trkpt><trkpt lat="45.36278779581692" lon="10.58084906294826"><ele>147.0</ele><time>2026-04-02T12:41:46Z</time></trkpt><trkpt lat="45.36283689197899" lon="10.580677598863986"><ele>147.0</ele><time>2026-04-02T12:41:47Z</time></trkpt><trkpt lat="45.36290608491293" lon="10.580458325254828"><ele>147.0</ele><time>2026-04-02T12:41:48Z</time></trkpt><trkpt lat="45.36298024627837" lon="10.580208287066098"><ele>147.0</ele><time>2026-04-02T12:41:49Z</time></trkpt><trkpt lat="45.363042867870604" lon="10.579993968475783"><ele>147.5</ele><time>2026-04-02T12:41:50Z</time></trkpt><trkpt lat="45.36309762353385" lon="10.579803434805552"><ele>148.0</ele><time>2026-04-02T12:41:51Z</time></trkpt><trkpt lat="45.36315178485995" lon="10.579616947887041"><ele>148.5</ele><time>2026-04-02T12:41:52Z</time></trkpt><trkpt lat="45.36320460643828" lon="10.579405957967905"><ele>149.0</ele><time>2026-04-02T12:41:53Z</time></trkpt><trkpt lat="45.363260212823334" lon="10.57918573317372"><ele>149.0</ele><time>2026-04-02T12:41:54Z</time></trkpt><trkpt lat="45.36331761802286" lon="10.578972502161603"><ele>149.0</ele><time>2026-04-02T12:41:55Z</time></trkpt><trkpt lat="45.36337476998641" lon="10.578761982456514"><ele>149.0</ele><time>2026-04-02T12:41:56Z</time></trkpt><trkpt lat="45.363431409100905" lon="10.57855584575705"><ele>148.0</ele><time>2026-04-02T12:41:57Z</time></trkpt><trkpt lat="45.36348914232926" lon="10.578353998650485"><ele>147.0</ele><time>2026-04-02T12:41:58Z</time></trkpt><trkpt lat="45.3635475914013" lon="10.578155122722414"><ele>146.0</ele><time>2026-04-02T12:41:59Z</time></trkpt><trkpt lat="45.363607530834145" lon="10.577950313670224"><ele>145.66666666666666</ele><time>2026-04-02T12:41:59.999Z</time></trkpt><trkpt lat="45.363668092845515" lon="10.577741977633893"><ele>145.33333333333334</ele><time>2026-04-02T12:42:00.999Z</time></trkpt><trkpt lat="45.363729880717614" lon="10.577532170592056"><ele>145.0</ele><time>2026-04-02T12:42:01.999Z</time></trkpt><trkpt lat="45.3637911108918" lon="10.577324318715513"><ele>145.0</ele><time>2026-04-02T12:42:02.999Z</time></trkpt><trkpt lat="45.3638512555249" lon="10.577113268746306"><ele>145.0</ele><time>2026-04-02T12:42:03.999Z</time></trkpt><trkpt lat="45.363912247915096" lon="10.576906721516018"><ele>145.0</ele><time>2026-04-02T12:42:04.999Z</time></trkpt><trkpt lat="45.3639708710329" lon="10.576696793145874"><ele>144.33333333333334</ele><time>2026-04-02T12:42:05.999Z</time></trkpt><trkpt lat="45.364030415758705" lon="10.57649230649743"><ele>143.66666666666666</ele><time>2026-04-02T12:42:06.999Z</time></trkpt><trkpt lat="45.364087982101296" lon="10.576290343792115"><ele>143.0</ele><time>2026-04-02T12:42:07.999Z</time></trkpt><trkpt lat="45.36414288852291" lon="10.576089329296765"><ele>143.0</ele><time>2026-04-02T12:42:08.999Z</time></trkpt><trkpt lat="45.364197686280605" lon="10.575886616226173"><ele>143.0</ele><time>2026-04-02T12:42:09.999Z</time></trkpt><trkpt lat="45.36424964385042" lon="10.575703038757348"><ele>143.0</ele><time>2026-04-02T12:42:10.999Z</time></trkpt><trkpt lat="45.364296875956754" lon="10.575542490317046"><ele>143.0</ele><time>2026-04-02T12:42:11.999Z</time></trkpt><trkpt lat="45.364340052051105" lon="10.575389487488644"><ele>143.8</ele><time>2026-04-02T12:42:12.999Z</time></trkpt><trkpt lat="45.364381884700144" lon="10.575251386510145"><ele>144.60000000000002</ele><time>2026-04-02T12:42:13.999Z</time></trkpt><trkpt lat="45.3644355504" lon="10.57513150378941"><ele>145.39999999999998</ele><time>2026-04-02T12:42:14.999Z</time></trkpt><trkpt lat="45.36450610209074" lon="10.575037026214412"><ele>146.2</ele><time>2026-04-02T12:42:15.999Z</time></trkpt><trkpt lat="45.3646073813704" lon="10.57501885410749"><ele>147.0</ele><time>2026-04-02T12:42:16.999Z</time></trkpt><trkpt lat="45.36471087910485" lon="10.575000532215629"><ele>145.0</ele><time>2026-04-02T12:42:17.999Z</time></trkpt><trkpt lat="45.36482141045582" lon="10.574969024975092"><ele>143.0</ele><time>2026-04-02T12:42:18.999Z</time></trkpt><trkpt lat="45.364913037667904" lon="10.574903599307074"><ele>141.0</ele><time>2026-04-02T12:42:19.999Z</time></trkpt><trkpt lat="45.36499929615117" lon="10.57482168821209"><ele>139.0</ele><time>2026-04-02T12:42:20.999Z</time></trkpt><trkpt lat="45.3650779724385" lon="10.574718475971006"><ele>137.0</ele><time>2026-04-02T12:42:21.999Z</time></trkpt><trkpt lat="45.365142139044615" lon="10.574608495911715"><ele>137.0</ele><time>2026-04-02T12:42:22.999Z</time></trkpt><trkpt lat="45.365182202225384" lon="10.574495860634718"><ele>137.0</ele><time>2026-04-02T12:42:23.999Z</time></trkpt><trkpt lat="45.36521307300863" lon="10.574381966989554"><ele>137.0</ele><time>2026-04-02T12:42:24.999Z</time></trkpt><trkpt lat="45.36524113479493" lon="10.574274967579404"><ele>137.0</ele><time>2026-04-02T12:42:25.999Z</time></trkpt><trkpt lat="45.365282596920956" lon="10.574193127250354"><ele>137.0</ele><time>2026-04-02T12:42:26.999Z</time></trkpt><trkpt lat="45.36534070501306" lon="10.574137600926415"><ele>137.0</ele><time>2026-04-02T12:42:27.999Z</time></trkpt><trkpt lat="45.365461576687245" lon="10.574111856794412"><ele>135.6</ele><time>2026-04-02T12:42:29.999Z</time></trkpt><trkpt lat="45.36554571206636" lon="10.574119378759656"><ele>134.2</ele><time>2026-04-02T12:42:30.999Z</time></trkpt><trkpt lat="45.36564523981663" lon="10.57412615424426"><ele>132.8</ele><time>2026-04-02T12:42:31.999Z</time></trkpt><trkpt lat="45.36573282899698" lon="10.574093966377863"><ele>131.4</ele><time>2026-04-02T12:42:32.999Z</time></trkpt><trkpt lat="45.365796824817956" lon="10.5740100001231"><ele>130.0</ele><time>2026-04-02T12:42:33.999Z</time></trkpt><trkpt lat="45.36582757453432" lon="10.573890369495215"><ele>130.0</ele><time>2026-04-02T12:42:34.999Z</time></trkpt><trkpt lat="45.36580932234359" lon="10.573742033242237"><ele>130.0</ele><time>2026-04-02T12:42:35.999Z</time></trkpt><trkpt lat="45.365780319571385" lon="10.573579609688911"><ele>130.0</ele><time>2026-04-02T12:42:36.999Z</time></trkpt><trkpt lat="45.365779487520925" lon="10.573413988226458"><ele>130.0</ele><time>2026-04-02T12:42:37.999Z</time></trkpt><trkpt lat="45.36577879158929" lon="10.573247781834915"><ele>130.0</ele><time>2026-04-02T12:42:38.999Z</time></trkpt><trkpt lat="45.365779448479806" lon="10.573113630200519"><ele>130.0</ele><time>2026-04-02T12:42:39.999Z</time></trkpt><trkpt lat="45.36582302139764" lon="10.573015164973004"><ele>130.0</ele><time>2026-04-02T12:42:41.999Z</time></trkpt><trkpt lat="45.36597289828798" lon="10.573119754725088"><ele>130.0</ele><time>2026-04-02T12:42:45.999Z</time></trkpt><trkpt lat="45.36603748117914" lon="10.573138509675823"><ele>130.0</ele><time>2026-04-02T12:42:46.999Z</time></trkpt><trkpt lat="45.366102290394736" lon="10.573155582760263"><ele>130.0</ele><time>2026-04-02T12:42:47.999Z</time></trkpt><trkpt lat="45.3661968148569" lon="10.57317078347552"><ele>130.0</ele><time>2026-04-02T12:42:49.999Z</time></trkpt><trkpt lat="45.36629496298243" lon="10.573219724210055"><ele>130.0</ele><time>2026-04-02T12:44:33.999Z</time></trkpt><trkpt lat="45.366346745505226" lon="10.573274292479496"><ele>130.0</ele><time>2026-04-02T12:44:34.999Z</time></trkpt><trkpt lat="45.36640750095297" lon="10.573323745741819"><ele>130.0</ele><time>2026-04-02T12:44:35.999Z</time></trkpt><trkpt lat="45.3664762642781" lon="10.573369945691681"><ele>130.0</ele><time>2026-04-02T12:44:36.999Z</time></trkpt><trkpt lat="45.3665446790639" lon="10.573458117835047"><ele>130.8</ele><time>2026-04-02T12:44:37.999Z</time></trkpt><trkpt lat="45.366637515739484" lon="10.573520673407605"><ele>131.6</ele><time>2026-04-02T12:44:38.999Z</time></trkpt><trkpt lat="45.36672815140582" lon="10.573542845547282"><ele>132.4</ele><time>2026-04-02T12:44:39.999Z</time></trkpt><trkpt lat="45.3668030352503" lon="10.573594725186304"><ele>133.2</ele><time>2026-04-02T12:44:40.999Z</time></trkpt><trkpt lat="45.36689925594026" lon="10.573663329408797"><ele>134.0</ele><time>2026-04-02T12:44:42.999Z</time></trkpt><trkpt lat="45.36682088873255" lon="10.57360374401977"><ele>134.0</ele><time>2026-04-02T12:44:53.999Z</time></trkpt><trkpt lat="45.36674397370931" lon="10.573544291474118"><ele>134.0</ele><time>2026-04-02T12:44:54.999Z</time></trkpt><trkpt lat="45.36663912017309" lon="10.573480177099604"><ele>134.0</ele><time>2026-04-02T12:44:55.999Z</time></trkpt><trkpt lat="45.366512211092775" lon="10.573415685368639"><ele>134.0</ele><time>2026-04-02T12:44:56.999Z</time></trkpt><trkpt lat="45.36642714382209" lon="10.57336647185197"><ele>134.0</ele><time>2026-04-02T12:44:57.999Z</time></trkpt><trkpt lat="45.36633429614675" lon="10.57330394407097"><ele>134.0</ele><time>2026-04-02T12:44:59.999Z</time></trkpt><trkpt lat="45.36627872261222" lon="10.573198713613454"><ele>134.0</ele><time>2026-04-02T12:45:01.999Z</time></trkpt><trkpt lat="45.36623273686789" lon="10.573049464716526"><ele>134.0</ele><time>2026-04-02T12:45:03.999Z</time></trkpt><trkpt lat="45.36621756532023" lon="10.572930918819514"><ele>134.0</ele><time>2026-04-02T12:45:05.999Z</time></trkpt><trkpt lat="45.36628090489798" lon="10.572938366272684"><ele>134.0</ele><time>2026-04-02T12:45:08.999Z</time></trkpt><trkpt lat="45.36636943996501" lon="10.57299316927207"><ele>134.0</ele><time>2026-04-02T12:45:10.999Z</time></trkpt><trkpt lat="45.36642694276677" lon="10.573041877691924"><ele>134.0</ele><time>2026-04-02T12:45:12.999Z</time></trkpt><trkpt lat="45.36654592300888" lon="10.573111139189697"><ele>134.0</ele><time>2026-04-02T12:45:14.999Z</time></trkpt><trkpt lat="45.366636146024554" lon="10.573145120335928"><ele>134.0</ele><time>2026-04-02T12:45:15.999Z</time></trkpt><trkpt lat="45.36674356202758" lon="10.57320261498595"><ele>134.0</ele><time>2026-04-02T12:45:16.999Z</time></trkpt><trkpt lat="45.366868818748834" lon="10.57320981354212"><ele>134.0</ele><time>2026-04-02T12:45:18.999Z</time></trkpt><trkpt lat="45.366945330887305" lon="10.573226915320472"><ele>134.0</ele><time>2026-04-02T12:45:19.999Z</time></trkpt><trkpt lat="45.367037224154735" lon="10.573198662120776"><ele>134.0</ele><time>2026-04-02T12:45:21.999Z</time></trkpt><trkpt lat="45.367133268700485" lon="10.573163629172507"><ele>134.0</ele><time>2026-04-02T12:45:23.999Z</time></trkpt><trkpt lat="45.36720431367762" lon="10.573128331411228"><ele>134.0</ele><time>2026-04-02T12:45:24.999Z</time></trkpt><trkpt lat="45.36729498227388" lon="10.573066195902257"><ele>134.0</ele><time>2026-04-02T12:45:25.999Z</time></trkpt><trkpt lat="45.3673751530341" lon="10.572991662239785"><ele>133.66666666666666</ele><time>2026-04-02T12:45:26.999Z</time></trkpt><trkpt lat="45.367476003034255" lon="10.572882401468894"><ele>133.33333333333334</ele><time>2026-04-02T12:45:27.999Z</time></trkpt><trkpt lat="45.36762325285054" lon="10.572713470754696"><ele>133.0</ele><time>2026-04-02T12:45:28.999Z</time></trkpt><trkpt lat="45.36779001239387" lon="10.572518188080727"><ele>133.0</ele><time>2026-04-02T12:45:29.999Z</time></trkpt><trkpt lat="45.36794928448716" lon="10.572329563060359"><ele>133.0</ele><time>2026-04-02T12:45:30.999Z</time></trkpt><trkpt lat="45.36809038784189" lon="10.572130076252263"><ele>133.0</ele><time>2026-04-02T12:45:31.999Z</time></trkpt><trkpt lat="45.36822367184899" lon="10.571910222438108"><ele>128.66666666666669</ele><time>2026-04-02T12:45:32.999Z</time></trkpt><trkpt lat="45.368343568161016" lon="10.57171046822665"><ele>124.33333333333334</ele><time>2026-04-02T12:45:33.999Z</time></trkpt><trkpt lat="45.36845208105803" lon="10.57155094878397"><ele>120.0</ele><time>2026-04-02T12:45:34.999Z</time></trkpt><trkpt lat="45.36856141235965" lon="10.57143198958143"><ele>120.0</ele><time>2026-04-02T12:45:35.999Z</time></trkpt><trkpt lat="45.36864839410798" lon="10.571396414092108"><ele>120.0</ele><time>2026-04-02T12:45:36.999Z</time></trkpt><trkpt lat="45.368747406049266" lon="10.57136288992766"><ele>120.0</ele><time>2026-04-02T12:45:38Z</time></trkpt><trkpt lat="45.36885135984295" lon="10.571321002980465"><ele>120.0</ele><time>2026-04-02T12:45:39Z</time></trkpt><trkpt lat="45.36894202482146" lon="10.57124431694335"><ele>120.0</ele><time>2026-04-02T12:45:40Z</time></trkpt><trkpt lat="45.36900829529879" lon="10.571153515925575"><ele>118.2</ele><time>2026-04-02T12:45:41Z</time></trkpt><trkpt lat="45.3690487803173" lon="10.571082157195173"><ele>116.4</ele><time>2026-04-02T12:45:42Z</time></trkpt><trkpt lat="45.369087956611814" lon="10.571002667399606"><ele>114.6</ele><time>2026-04-02T12:45:44Z</time></trkpt><trkpt lat="45.369154855575204" lon="10.570873624780045"><ele>112.8</ele><time>2026-04-02T12:45:46Z</time></trkpt><trkpt lat="45.369218170159975" lon="10.570732432185308"><ele>111.0</ele><time>2026-04-02T12:45:47Z</time></trkpt><trkpt lat="45.369286847484275" lon="10.570557695582082"><ele>112.25</ele><time>2026-04-02T12:45:48Z</time></trkpt><trkpt lat="45.369354575491855" lon="10.570347346598032"><ele>113.5</ele><time>2026-04-02T12:45:49Z</time></trkpt><trkpt lat="45.36942872573651" lon="10.570162573553857"><ele>114.75</ele><time>2026-04-02T12:45:50Z</time></trkpt><trkpt lat="45.36950886994667" lon="10.570007313088023"><ele>116.0</ele><time>2026-04-02T12:45:51Z</time></trkpt><trkpt lat="45.36961846004081" lon="10.569842609407656"><ele>114.66666666666666</ele><time>2026-04-02T12:45:52Z</time></trkpt><trkpt lat="45.369742374117614" lon="10.569660571185906"><ele>113.33333333333334</ele><time>2026-04-02T12:45:53Z</time></trkpt><trkpt lat="45.36987726459107" lon="10.56945790188255"><ele>112.0</ele><time>2026-04-02T12:45:54Z</time></trkpt><trkpt lat="45.37000786243801" lon="10.56925648777584"><ele>112.0</ele><time>2026-04-02T12:45:55Z</time></trkpt><trkpt lat="45.37011922848085" lon="10.569082961549089"><ele>112.0</ele><time>2026-04-02T12:45:56Z</time></trkpt><trkpt lat="45.370224689771" lon="10.56895696790483"><ele>112.0</ele><time>2026-04-02T12:45:57Z</time></trkpt><trkpt lat="45.3703418062855" lon="10.56884250168406"><ele>112.0</ele><time>2026-04-02T12:45:58Z</time></trkpt><trkpt lat="45.37047990677312" lon="10.568738915506152"><ele>112.75</ele><time>2026-04-02T12:45:59Z</time></trkpt><trkpt lat="45.37060185234388" lon="10.568631136639503"><ele>113.5</ele><time>2026-04-02T12:46:00Z</time></trkpt><trkpt lat="45.37070006347007" lon="10.568532290310495"><ele>114.25</ele><time>2026-04-02T12:46:01Z</time></trkpt><trkpt lat="45.3707978830184" lon="10.568415903494158"><ele>115.0</ele><time>2026-04-02T12:46:02Z</time></trkpt><trkpt lat="45.37090311331433" lon="10.568284860318279"><ele>115.0</ele><time>2026-04-02T12:46:03Z</time></trkpt><trkpt lat="45.37101262925538" lon="10.56813323835675"><ele>115.0</ele><time>2026-04-02T12:46:04Z</time></trkpt><trkpt lat="45.371144880590315" lon="10.56797774485156"><ele>115.0</ele><time>2026-04-02T12:46:05Z</time></trkpt><trkpt lat="45.37125704119395" lon="10.56787198111965"><ele>115.50000000000001</ele><time>2026-04-02T12:46:06Z</time></trkpt><trkpt lat="45.37133391831935" lon="10.567778327793688"><ele>116.0</ele><time>2026-04-02T12:46:07Z</time></trkpt><trkpt lat="45.371389005730165" lon="10.567703671946322"><ele>116.5</ele><time>2026-04-02T12:46:08Z</time></trkpt><trkpt lat="45.37144578106303" lon="10.56763065473967"><ele>117.0</ele><time>2026-04-02T12:46:09Z</time></trkpt><trkpt lat="45.37149957506646" lon="10.567550609560676"><ele>117.50000000000001</ele><time>2026-04-02T12:46:10Z</time></trkpt><trkpt lat="45.37154716625649" lon="10.567472158996212"><ele>118.0</ele><time>2026-04-02T12:46:11Z</time></trkpt><trkpt lat="45.37159401978236" lon="10.567388249329909"><ele>118.66666666666667</ele><time>2026-04-02T12:46:12Z</time></trkpt><trkpt lat="45.37163247097284" lon="10.567300226486054"><ele>119.33333333333334</ele><time>2026-04-02T12:46:13Z</time></trkpt><trkpt lat="45.371697752765606" lon="10.567150432725823"><ele>120.0</ele><time>2026-04-02T12:46:15Z</time></trkpt><trkpt lat="45.37173910152328" lon="10.567064836175712"><ele>120.66666666666666</ele><time>2026-04-02T12:46:16Z</time></trkpt><trkpt lat="45.37178599842777" lon="10.566979865148912"><ele>121.33333333333333</ele><time>2026-04-02T12:46:17Z</time></trkpt><trkpt lat="45.37182377950717" lon="10.566889697345045"><ele>122.0</ele><time>2026-04-02T12:46:18Z</time></trkpt><trkpt lat="45.371859040112795" lon="10.566801184259527"><ele>123.39999999999999</ele><time>2026-04-02T12:46:19Z</time></trkpt><trkpt lat="45.371899162206795" lon="10.566704467753029"><ele>124.79999999999998</ele><time>2026-04-02T12:46:21Z</time></trkpt><trkpt lat="45.37201675885158" lon="10.56673679517356"><ele>126.2</ele><time>2026-04-02T12:46:25Z</time></trkpt><trkpt lat="45.37210339431324" lon="10.566741181835912"><ele>127.6</ele><time>2026-04-02T12:46:26Z</time></trkpt><trkpt lat="45.372195134910406" lon="10.566736524716578"><ele>129.0</ele><time>2026-04-02T12:46:27Z</time></trkpt><trkpt lat="45.37229106612666" lon="10.566729437107373"><ele>128.83333333333334</ele><time>2026-04-02T12:46:28Z</time></trkpt><trkpt lat="45.37239650289969" lon="10.566712663373867"><ele>128.66666666666666</ele><time>2026-04-02T12:46:29Z</time></trkpt><trkpt lat="45.37247600639855" lon="10.566715969296899"><ele>128.5</ele><time>2026-04-02T12:46:30Z</time></trkpt><trkpt lat="45.37254259989292" lon="10.566785781350978"><ele>128.33333333333331</ele><time>2026-04-02T12:46:32Z</time></trkpt><trkpt lat="45.372570401967835" lon="10.566878256178287"><ele>128.16666666666666</ele><time>2026-04-02T12:46:33Z</time></trkpt><trkpt lat="45.372589713631896" lon="10.56700860452493"><ele>128.0</ele><time>2026-04-02T12:46:34Z</time></trkpt><trkpt lat="45.372608260373774" lon="10.56716347288002"><ele>128.0</ele><time>2026-04-02T12:46:35Z</time></trkpt><trkpt lat="45.37264229556558" lon="10.567336564093976"><ele>128.0</ele><time>2026-04-02T12:46:35.999Z</time></trkpt><trkpt lat="45.37267187758404" lon="10.567534560683926"><ele>128.0</ele><time>2026-04-02T12:46:36.999Z</time></trkpt><trkpt lat="45.37269810517081" lon="10.567746698553897"><ele>128.0</ele><time>2026-04-02T12:46:37.999Z</time></trkpt><trkpt lat="45.37272119793218" lon="10.567993208381017"><ele>126.33333333333333</ele><time>2026-04-02T12:46:38.999Z</time></trkpt><trkpt lat="45.3727564147492" lon="10.568249787567881"><ele>124.66666666666666</ele><time>2026-04-02T12:46:39.999Z</time></trkpt><trkpt lat="45.37279095078516" lon="10.568534394718363"><ele>123.0</ele><time>2026-04-02T12:46:40.999Z</time></trkpt><trkpt lat="45.372825913339796" lon="10.568836318140146"><ele>122.66666666666666</ele><time>2026-04-02T12:46:41.999Z</time></trkpt><trkpt lat="45.372845326824425" lon="10.569113672586854"><ele>122.33333333333333</ele><time>2026-04-02T12:46:42.999Z</time></trkpt><trkpt lat="45.372853223052175" lon="10.569361593502949"><ele>122.0</ele><time>2026-04-02T12:46:43.999Z</time></trkpt><trkpt lat="45.372850851234226" lon="10.569619083063948"><ele>122.0</ele><time>2026-04-02T12:46:44.999Z</time></trkpt><trkpt lat="45.372839786482025" lon="10.56989030261682"><ele>122.0</ele><time>2026-04-02T12:46:45.999Z</time></trkpt><trkpt lat="45.37281113358243" lon="10.570212047528177"><ele>122.0</ele><time>2026-04-02T12:46:46.999Z</time></trkpt><trkpt lat="45.372770839873866" lon="10.570562028062982"><ele>122.0</ele><time>2026-04-02T12:46:47.999Z</time></trkpt><trkpt lat="45.3727166177288" lon="10.570942315984253"><ele>122.0</ele><time>2026-04-02T12:46:48.999Z</time></trkpt><trkpt lat="45.37265998748778" lon="10.5713720161138"><ele>121.0</ele><time>2026-04-02T12:46:49.999Z</time></trkpt><trkpt lat="45.372605320287974" lon="10.571786545531188"><ele>120.0</ele><time>2026-04-02T12:46:50.999Z</time></trkpt><trkpt lat="45.372566666713766" lon="10.572078276122262"><ele>120.0</ele><time>2026-04-02T12:46:51.999Z</time></trkpt><trkpt lat="45.37253885252094" lon="10.572288195999052"><ele>120.0</ele><time>2026-04-02T12:46:52.999Z</time></trkpt><trkpt lat="45.37251592885429" lon="10.572462336618267"><ele>120.0</ele><time>2026-04-02T12:46:53.999Z</time></trkpt><trkpt lat="45.3724868013927" lon="10.572680593177138"><ele>120.0</ele><time>2026-04-02T12:46:54.999Z</time></trkpt><trkpt lat="45.37245000442551" lon="10.572954428133695"><ele>119.33333333333334</ele><time>2026-04-02T12:46:55.999Z</time></trkpt><trkpt lat="45.372416082175036" lon="10.573230828291953"><ele>118.66666666666667</ele><time>2026-04-02T12:46:56.999Z</time></trkpt><trkpt lat="45.372395405885634" lon="10.573546838613861"><ele>118.0</ele><time>2026-04-02T12:46:57.999Z</time></trkpt><trkpt lat="45.37239775619666" lon="10.57388128603537"><ele>117.33333333333334</ele><time>2026-04-02T12:46:58.999Z</time></trkpt><trkpt lat="45.37240549528068" lon="10.57420878649036"><ele>116.66666666666666</ele><time>2026-04-02T12:46:59.999Z</time></trkpt><trkpt lat="45.37241375504005" lon="10.574512558983798"><ele>116.0</ele><time>2026-04-02T12:47:00.999Z</time></trkpt><trkpt lat="45.372421739625835" lon="10.574806211092055"><ele>116.0</ele><time>2026-04-02T12:47:01.999Z</time></trkpt><trkpt lat="45.372429510809646" lon="10.57509201349629"><ele>116.0</ele><time>2026-04-02T12:47:02.999Z</time></trkpt><trkpt lat="45.372437690143464" lon="10.575384166381188"><ele>116.0</ele><time>2026-04-02T12:47:03.999Z</time></trkpt><trkpt lat="45.372445998004046" lon="10.575681457106926"><ele>115.33333333333333</ele><time>2026-04-02T12:47:04.999Z</time></trkpt><trkpt lat="45.37245442186663" lon="10.575982898552647"><ele>114.66666666666666</ele><time>2026-04-02T12:47:05.999Z</time></trkpt><trkpt lat="45.372463022858945" lon="10.57628517945975"><ele>114.0</ele><time>2026-04-02T12:47:06.999Z</time></trkpt><trkpt lat="45.37247159783126" lon="10.576583375234536"><ele>114.0</ele><time>2026-04-02T12:47:07.999Z</time></trkpt><trkpt lat="45.37247911494163" lon="10.576878341765893"><ele>114.0</ele><time>2026-04-02T12:47:08.999Z</time></trkpt><trkpt lat="45.37248664181309" lon="10.577173691501137"><ele>114.0</ele><time>2026-04-02T12:47:09.999Z</time></trkpt><trkpt lat="45.372495707105486" lon="10.57746847258791"><ele>114.0</ele><time>2026-04-02T12:47:10.999Z</time></trkpt><trkpt lat="45.372511342565815" lon="10.577744231823004"><ele>114.0</ele><time>2026-04-02T12:47:11.999Z</time></trkpt><trkpt lat="45.37253717853421" lon="10.57798169583718"><ele>114.0</ele><time>2026-04-02T12:47:12.999Z</time></trkpt><trkpt lat="45.3725724589901" lon="10.578200937701343"><ele>114.0</ele><time>2026-04-02T12:47:13.999Z</time></trkpt><trkpt lat="45.37260827100347" lon="10.578390081924052"><ele>114.0</ele><time>2026-04-02T12:47:14.999Z</time></trkpt><trkpt lat="45.37263522668784" lon="10.57856083550052"><ele>114.0</ele><time>2026-04-02T12:47:15.999Z</time></trkpt><trkpt lat="45.372654641903814" lon="10.578702986521776"><ele>114.0</ele><time>2026-04-02T12:47:16.999Z</time></trkpt><trkpt lat="45.372662210457335" lon="10.578807902690578"><ele>114.0</ele><time>2026-04-02T12:47:17.999Z</time></trkpt><trkpt lat="45.37266576489967" lon="10.578922252267061"><ele>114.0</ele><time>2026-04-02T12:47:19.999Z</time></trkpt><trkpt lat="45.37286406769146" lon="10.57892573355457"><ele>114.0</ele><time>2026-04-02T12:47:22.999Z</time></trkpt><trkpt lat="45.372949208374756" lon="10.578895727582424"><ele>114.0</ele><time>2026-04-02T12:47:23.999Z</time></trkpt><trkpt lat="45.373064796857335" lon="10.57887102340324"><ele>114.0</ele><time>2026-04-02T12:47:24.999Z</time></trkpt><trkpt lat="45.37320880321032" lon="10.578860583013796"><ele>114.66666666666666</ele><time>2026-04-02T12:47:25.999Z</time></trkpt><trkpt lat="45.37338182814905" lon="10.5788529093829"><ele>115.33333333333333</ele><time>2026-04-02T12:47:26.999Z</time></trkpt><trkpt lat="45.37359522232573" lon="10.578837639455575"><ele>116.0</ele><time>2026-04-02T12:47:27.999Z</time></trkpt><trkpt lat="45.37382781475239" lon="10.57881809222492"><ele>115.66666666666666</ele><time>2026-04-02T12:47:28.999Z</time></trkpt><trkpt lat="45.37403628821848" lon="10.578801905547738"><ele>115.33333333333334</ele><time>2026-04-02T12:47:29.999Z</time></trkpt><trkpt lat="45.374211339983056" lon="10.578794044669838"><ele>115.0</ele><time>2026-04-02T12:47:30.999Z</time></trkpt><trkpt lat="45.37436304769851" lon="10.578784429474734"><ele>115.0</ele><time>2026-04-02T12:47:31.999Z</time></trkpt><trkpt lat="45.37451387145644" lon="10.57877335817052"><ele>115.0</ele><time>2026-04-02T12:47:32.999Z</time></trkpt><trkpt lat="45.374668035805435" lon="10.578770354864375"><ele>115.0</ele><time>2026-04-02T12:47:33.999Z</time></trkpt><trkpt lat="45.37479347493347" lon="10.578772139247013"><ele>115.0</ele><time>2026-04-02T12:47:34.999Z</time></trkpt><trkpt lat="45.37488862146915" lon="10.578770922829014"><ele>114.0</ele><time>2026-04-02T12:47:35.999Z</time></trkpt><trkpt lat="45.37495490421851" lon="10.578773847459276"><ele>113.0</ele><time>2026-04-02T12:47:36.999Z</time></trkpt><trkpt lat="45.375001998214884" lon="10.57867478278048"><ele>112.0</ele><time>2026-04-02T12:47:40.999Z</time></trkpt><trkpt lat="45.37501269310928" lon="10.578454712754045"><ele>111.0</ele><time>2026-04-02T12:47:42.999Z</time></trkpt><trkpt lat="45.37502673483318" lon="10.578271670516656"><ele>110.0</ele><time>2026-04-02T12:47:44Z</time></trkpt><trkpt lat="45.37504686367353" lon="10.578059798565736"><ele>110.0</ele><time>2026-04-02T12:47:45Z</time></trkpt><trkpt lat="45.37506284995163" lon="10.577856184084101"><ele>110.0</ele><time>2026-04-02T12:47:46Z</time></trkpt><trkpt lat="45.375078382787436" lon="10.577610280867193"><ele>110.0</ele><time>2026-04-02T12:47:47Z</time></trkpt><trkpt lat="45.375101118762" lon="10.577326660165749"><ele>110.0</ele><time>2026-04-02T12:47:48Z</time></trkpt><trkpt lat="45.37512476454419" lon="10.577032512112654"><ele>110.0</ele><time>2026-04-02T12:47:49Z</time></trkpt><trkpt lat="45.375149874776895" lon="10.57672246794149"><ele>110.0</ele><time>2026-04-02T12:47:50Z</time></trkpt><trkpt lat="45.37517503202655" lon="10.576440837979916"><ele>110.66666666666666</ele><time>2026-04-02T12:47:51Z</time></trkpt><trkpt lat="45.37519845244387" lon="10.576166846994811"><ele>111.33333333333334</ele><time>2026-04-02T12:47:52Z</time></trkpt><trkpt lat="45.37522047622686" lon="10.575908071086346"><ele>112.0</ele><time>2026-04-02T12:47:53Z</time></trkpt><trkpt lat="45.37524095497202" lon="10.575685296606872"><ele>112.0</ele><time>2026-04-02T12:47:54Z</time></trkpt><trkpt lat="45.37526251017305" lon="10.575475488148301"><ele>112.0</ele><time>2026-04-02T12:47:55Z</time></trkpt><trkpt lat="45.375286612920966" lon="10.575285185338032"><ele>112.0</ele><time>2026-04-02T12:47:56Z</time></trkpt><trkpt lat="45.37530840077392" lon="10.575124240534857"><ele>112.0</ele><time>2026-04-02T12:47:57Z</time></trkpt><trkpt lat="45.37532510712336" lon="10.574996503370599"><ele>112.0</ele><time>2026-04-02T12:47:58Z</time></trkpt><trkpt lat="45.37533815498509" lon="10.574908376092276"><ele>111.99999999999999</ele><time>2026-04-02T12:47:59Z</time></trkpt><trkpt lat="45.37541431777834" lon="10.57486813298829"><ele>111.99999999999999</ele><time>2026-04-02T12:48:02Z</time></trkpt><trkpt lat="45.37554088709275" lon="10.574944254315792"><ele>112.0</ele><time>2026-04-02T12:48:04Z</time></trkpt><trkpt lat="45.37563919204656" lon="10.575039239705642"><ele>112.0</ele><time>2026-04-02T12:48:05Z</time></trkpt><trkpt lat="45.37577754788288" lon="10.575119487271422"><ele>111.66666666666667</ele><time>2026-04-02T12:48:06Z</time></trkpt><trkpt lat="45.37593043337566" lon="10.575208955608616"><ele>111.33333333333334</ele><time>2026-04-02T12:48:07Z</time></trkpt><trkpt lat="45.376097416407376" lon="10.575299339864072"><ele>111.0</ele><time>2026-04-02T12:48:08Z</time></trkpt><trkpt lat="45.37627644760356" lon="10.57538822031307"><ele>110.66666666666666</ele><time>2026-04-02T12:48:09Z</time></trkpt><trkpt lat="45.376447786335504" lon="10.575483043083663"><ele>110.33333333333333</ele><time>2026-04-02T12:48:10Z</time></trkpt><trkpt lat="45.376598001354346" lon="10.575574321460532"><ele>110.0</ele><time>2026-04-02T12:48:11Z</time></trkpt><trkpt lat="45.3767398772582" lon="10.57565933360383"><ele>110.0</ele><time>2026-04-02T12:48:12Z</time></trkpt><trkpt lat="45.37688852239323" lon="10.575720178545899"><ele>110.0</ele><time>2026-04-02T12:48:13Z</time></trkpt><trkpt lat="45.37707195675659" lon="10.57573549471826"><ele>110.0</ele><time>2026-04-02T12:48:14Z</time></trkpt><trkpt lat="45.37727234855315" lon="10.575724330007699"><ele>108.33333333333333</ele><time>2026-04-02T12:48:15Z</time></trkpt><trkpt lat="45.377458637581135" lon="10.575704476331913"><ele>106.66666666666666</ele><time>2026-04-02T12:48:16Z</time></trkpt><trkpt lat="45.37764013773764" lon="10.575684243852837"><ele>105.0</ele><time>2026-04-02T12:48:17Z</time></trkpt><trkpt lat="45.37782143824782" lon="10.575665972011883"><ele>105.0</ele><time>2026-04-02T12:48:18Z</time></trkpt><trkpt lat="45.378003139053135" lon="10.57565389373602"><ele>105.0</ele><time>2026-04-02T12:48:19Z</time></trkpt><trkpt lat="45.37818091635566" lon="10.575635886781132"><ele>105.0</ele><time>2026-04-02T12:48:20Z</time></trkpt><trkpt lat="45.3783488562671" lon="10.575614880524576"><ele>105.2</ele><time>2026-04-02T12:48:21Z</time></trkpt><trkpt lat="45.37848345073332" lon="10.575596008503695"><ele>105.4</ele><time>2026-04-02T12:48:22Z</time></trkpt><trkpt lat="45.37858989090284" lon="10.575582158520705"><ele>105.6</ele><time>2026-04-02T12:48:23Z</time></trkpt><trkpt lat="45.37867894731458" lon="10.575602496306072"><ele>105.8</ele><time>2026-04-02T12:48:24Z</time></trkpt><trkpt lat="45.37874522210202" lon="10.57559482497051"><ele>106.0</ele><time>2026-04-02T12:48:25Z</time></trkpt><trkpt lat="45.378798298537895" lon="10.575655024964055"><ele>106.0</ele><time>2026-04-02T12:48:26Z</time></trkpt><trkpt lat="45.37877915289594" lon="10.575786035088733"><ele>106.0</ele><time>2026-04-02T12:48:27Z</time></trkpt><trkpt lat="45.37877591075236" lon="10.575897498017692"><ele>106.0</ele><time>2026-04-02T12:48:28Z</time></trkpt><trkpt lat="45.37878351520494" lon="10.576060016608961"><ele>106.0</ele><time>2026-04-02T12:48:29Z</time></trkpt><trkpt lat="45.37880021468281" lon="10.576216659515223"><ele>106.0</ele><time>2026-04-02T12:48:30Z</time></trkpt><trkpt lat="45.378832987720926" lon="10.576328128849259"><ele>105.5</ele><time>2026-04-02T12:48:31Z</time></trkpt><trkpt lat="45.37890203203722" lon="10.57641157837706"><ele>105.0</ele><time>2026-04-02T12:48:32Z</time></trkpt><trkpt lat="45.37904690532546" lon="10.576394640594785"><ele>104.5</ele><time>2026-04-02T12:48:33Z</time></trkpt><trkpt lat="45.37918872480135" lon="10.576356374220765"><ele>104.0</ele><time>2026-04-02T12:48:34Z</time></trkpt><trkpt lat="45.379370734930596" lon="10.576315011041443"><ele>104.0</ele><time>2026-04-02T12:48:35Z</time></trkpt><trkpt lat="45.37952702889586" lon="10.576313308150405"><ele>104.0</ele><time>2026-04-02T12:48:36Z</time></trkpt><trkpt lat="45.37966234255887" lon="10.576302164610244"><ele>104.0</ele><time>2026-04-02T12:48:37Z</time></trkpt><trkpt lat="45.37978194029487" lon="10.576342820908195"><ele>104.0</ele><time>2026-04-02T12:48:38Z</time></trkpt><trkpt lat="45.3798868358245" lon="10.576437053003934"><ele>103.75</ele><time>2026-04-02T12:48:39Z</time></trkpt><trkpt lat="45.38001155005598" lon="10.57651579803542"><ele>103.5</ele><time>2026-04-02T12:48:40Z</time></trkpt><trkpt lat="45.38016070733091" lon="10.576508041640944"><ele>103.25</ele><time>2026-04-02T12:48:41Z</time></trkpt><trkpt lat="45.38030447530828" lon="10.57654160197125"><ele>103.0</ele><time>2026-04-02T12:48:42Z</time></trkpt><trkpt lat="45.38041521285953" lon="10.576611296816683"><ele>103.80000000000001</ele><time>2026-04-02T12:48:43Z</time></trkpt><trkpt lat="45.38053076952731" lon="10.576687803645891"><ele>104.6</ele><time>2026-04-02T12:48:44Z</time></trkpt><trkpt lat="45.38060774852838" lon="10.576771051289944"><ele>105.39999999999999</ele><time>2026-04-02T12:48:45Z</time></trkpt><trkpt lat="45.38067208625371" lon="10.576856889108385"><ele>106.19999999999999</ele><time>2026-04-02T12:48:46Z</time></trkpt><trkpt lat="45.38068247362813" lon="10.576970146767742"><ele>107.0</ele><time>2026-04-02T12:48:47Z</time></trkpt><trkpt lat="45.38066967327297" lon="10.577089457709741"><ele>107.0</ele><time>2026-04-02T12:48:48Z</time></trkpt><trkpt lat="45.38066625448733" lon="10.57722285903091"><ele>106.99999999999999</ele><time>2026-04-02T12:48:49Z</time></trkpt><trkpt lat="45.380679830170706" lon="10.5773213954728"><ele>106.99999999999999</ele><time>2026-04-02T12:48:50Z</time></trkpt><trkpt lat="45.380748802474905" lon="10.57743066194605"><ele>107.0</ele><time>2026-04-02T12:48:51Z</time></trkpt><trkpt lat="45.38087449478232" lon="10.577469774982976"><ele>107.0</ele><time>2026-04-02T12:48:52Z</time></trkpt><trkpt lat="45.38100604215471" lon="10.57754198853259"><ele>107.0</ele><time>2026-04-02T12:48:53Z</time></trkpt><trkpt lat="45.38117871169632" lon="10.577553495783116"><ele>107.0</ele><time>2026-04-02T12:48:54Z</time></trkpt><trkpt lat="45.38138927210352" lon="10.57755938853162"><ele>107.0</ele><time>2026-04-02T12:48:55Z</time></trkpt><trkpt lat="45.3816202245562" lon="10.577586107377668"><ele>109.66666666666666</ele><time>2026-04-02T12:48:56Z</time></trkpt><trkpt lat="45.3818137813514" lon="10.57758514613804"><ele>112.33333333333334</ele><time>2026-04-02T12:48:57Z</time></trkpt><trkpt lat="45.38197578348818" lon="10.577556650790994"><ele>115.0</ele><time>2026-04-02T12:48:58Z</time></trkpt><trkpt lat="45.3821103118006" lon="10.577543545475386"><ele>115.0</ele><time>2026-04-02T12:48:59Z</time></trkpt><trkpt lat="45.38223192538736" lon="10.577521937250044"><ele>115.0</ele><time>2026-04-02T12:49:00Z</time></trkpt><trkpt lat="45.38236573036886" lon="10.577505836544251"><ele>115.0</ele><time>2026-04-02T12:49:01Z</time></trkpt><trkpt lat="45.38250505095295" lon="10.577532458391026"><ele>115.0</ele><time>2026-04-02T12:49:02Z</time></trkpt><trkpt lat="45.382644852516776" lon="10.57752932279878"><ele>115.0</ele><time>2026-04-02T12:49:03Z</time></trkpt><trkpt lat="45.382780259177125" lon="10.577547109575745"><ele>115.0</ele><time>2026-04-02T12:49:04Z</time></trkpt><trkpt lat="45.38291222756134" lon="10.577594217523837"><ele>115.0</ele><time>2026-04-02T12:49:05Z</time></trkpt><trkpt lat="45.38305554641409" lon="10.577670214285883"><ele>115.0</ele><time>2026-04-02T12:49:06Z</time></trkpt><trkpt lat="45.3832185780211" lon="10.577775486064798"><ele>114.0</ele><time>2026-04-02T12:49:07Z</time></trkpt><trkpt lat="45.383358235860484" lon="10.577890315024385"><ele>113.0</ele><time>2026-04-02T12:49:08Z</time></trkpt><trkpt lat="45.383474285080496" lon="10.5779899637888"><ele>112.0</ele><time>2026-04-02T12:49:09Z</time></trkpt><trkpt lat="45.38355988692001" lon="10.578101897359137"><ele>111.0</ele><time>2026-04-02T12:49:10Z</time></trkpt><trkpt lat="45.383633273824174" lon="10.578201872343088"><ele>111.0</ele><time>2026-04-02T12:49:11Z</time></trkpt><trkpt lat="45.38370411613303" lon="10.578283496597384"><ele>111.0</ele><time>2026-04-02T12:49:12Z</time></trkpt><trkpt lat="45.38381924569772" lon="10.578259874273899"><ele>111.0</ele><time>2026-04-02T12:49:12.999Z</time></trkpt><trkpt lat="45.383902095926004" lon="10.578280603252185"><ele>111.0</ele><time>2026-04-02T12:49:13.999Z</time></trkpt><trkpt lat="45.38401282731484" lon="10.578299845398767"><ele>111.0</ele><time>2026-04-02T12:49:15.999Z</time></trkpt><trkpt lat="45.38409166030041" lon="10.578321540962131"><ele>110.19999999999999</ele><time>2026-04-02T12:49:16.999Z</time></trkpt><trkpt lat="45.38418683980471" lon="10.578299033406752"><ele>109.39999999999999</ele><time>2026-04-02T12:49:17.999Z</time></trkpt><trkpt lat="45.384282402849486" lon="10.57827809338821"><ele>108.6</ele><time>2026-04-02T12:49:18.999Z</time></trkpt><trkpt lat="45.38437675353252" lon="10.57827435051331"><ele>107.8</ele><time>2026-04-02T12:49:19.999Z</time></trkpt><trkpt lat="45.38453187088818" lon="10.578339862717321"><ele>107.0</ele><time>2026-04-02T12:49:20.999Z</time></trkpt><trkpt lat="45.38467165538157" lon="10.578387416182943"><ele>106.75</ele><time>2026-04-02T12:49:21.999Z</time></trkpt><trkpt lat="45.38481355579246" lon="10.578434855387128"><ele>106.5</ele><time>2026-04-02T12:49:22.999Z</time></trkpt><trkpt lat="45.38495512467322" lon="10.578517054122043"><ele>106.25</ele><time>2026-04-02T12:49:23.999Z</time></trkpt><trkpt lat="45.385096417016356" lon="10.578577903582378"><ele>106.0</ele><time>2026-04-02T12:49:24.999Z</time></trkpt><trkpt lat="45.38520926382177" lon="10.578624216224293"><ele>106.0</ele><time>2026-04-02T12:49:25.999Z</time></trkpt><trkpt lat="45.38531713567967" lon="10.578665656584247"><ele>106.0</ele><time>2026-04-02T12:49:26.999Z</time></trkpt><trkpt lat="45.38538384261543" lon="10.578684920753565"><ele>106.0</ele><time>2026-04-02T12:49:27.999Z</time></trkpt><trkpt lat="45.38544698353946" lon="10.578471745835543"><ele>106.0</ele><time>2026-04-02T12:49:30.999Z</time></trkpt><trkpt lat="45.38544621605404" lon="10.578331243602417"><ele>106.0</ele><time>2026-04-02T12:49:31.999Z</time></trkpt><trkpt lat="45.385459579278155" lon="10.578178846732037"><ele>106.0</ele><time>2026-04-02T12:49:32.999Z</time></trkpt><trkpt lat="45.38549189119918" lon="10.577958474491775"><ele>106.0</ele><time>2026-04-02T12:49:33.999Z</time></trkpt><trkpt lat="45.38552989088999" lon="10.577641577131258"><ele>106.0</ele><time>2026-04-02T12:49:34.999Z</time></trkpt><trkpt lat="45.385587985640626" lon="10.577255223395454"><ele>106.33333333333334</ele><time>2026-04-02T12:49:35.999Z</time></trkpt><trkpt lat="45.38563018113424" lon="10.576958636697634"><ele>106.66666666666666</ele><time>2026-04-02T12:49:36.999Z</time></trkpt><trkpt lat="45.385670797660374" lon="10.576702742301746"><ele>107.0</ele><time>2026-04-02T12:49:37.999Z</time></trkpt><trkpt lat="45.38570850671604" lon="10.576483076197283"><ele>107.0</ele><time>2026-04-02T12:49:38.999Z</time></trkpt><trkpt lat="45.38575464164282" lon="10.576279594411673"><ele>107.0</ele><time>2026-04-02T12:49:39.999Z</time></trkpt><trkpt lat="45.38581775574724" lon="10.576086037509608"><ele>107.0</ele><time>2026-04-02T12:49:40.999Z</time></trkpt><trkpt lat="45.38589855662947" lon="10.575852965862225"><ele>106.33333333333333</ele><time>2026-04-02T12:49:41.999Z</time></trkpt><trkpt lat="45.38597751811311" lon="10.575622525045853"><ele>105.66666666666666</ele><time>2026-04-02T12:49:42.999Z</time></trkpt><trkpt lat="45.38606471968587" lon="10.575380531625548"><ele>105.0</ele><time>2026-04-02T12:49:43.999Z</time></trkpt><trkpt lat="45.386165356507036" lon="10.57518360742086"><ele>105.0</ele><time>2026-04-02T12:49:44.999Z</time></trkpt><trkpt lat="45.386268119592" lon="10.575022356835618"><ele>105.0</ele><time>2026-04-02T12:49:45.999Z</time></trkpt><trkpt lat="45.38640733578437" lon="10.574871573866403"><ele>105.0</ele><time>2026-04-02T12:49:46.999Z</time></trkpt><trkpt lat="45.38651853629294" lon="10.574713495349645"><ele>104.4</ele><time>2026-04-02T12:49:47.999Z</time></trkpt><trkpt lat="45.386587742417085" lon="10.574561562443872"><ele>103.8</ele><time>2026-04-02T12:49:48.999Z</time></trkpt><trkpt lat="45.386637837197156" lon="10.574438795321335"><ele>103.19999999999999</ele><time>2026-04-02T12:49:50Z</time></trkpt><trkpt lat="45.38662772006213" lon="10.574253090069208"><ele>102.6</ele><time>2026-04-02T12:49:52Z</time></trkpt><trkpt lat="45.38660776804592" lon="10.574155710991938"><ele>102.0</ele><time>2026-04-02T12:49:53Z</time></trkpt><trkpt lat="45.38657419524988" lon="10.574015597760335"><ele>102.0</ele><time>2026-04-02T12:49:54Z</time></trkpt><trkpt lat="45.38654482537194" lon="10.573853446372802"><ele>102.0</ele><time>2026-04-02T12:49:55Z</time></trkpt><trkpt lat="45.38651274610215" lon="10.573671764717881"><ele>102.0</ele><time>2026-04-02T12:49:56Z</time></trkpt><trkpt lat="45.38647456159819" lon="10.57345427530628"><ele>102.0</ele><time>2026-04-02T12:49:57Z</time></trkpt><trkpt lat="45.38644637564316" lon="10.573262236078637"><ele>102.19999999999999</ele><time>2026-04-02T12:49:58Z</time></trkpt><trkpt lat="45.386418870395424" lon="10.573094278619331"><ele>102.4</ele><time>2026-04-02T12:49:59Z</time></trkpt><trkpt lat="45.3863966635596" lon="10.572956062085956"><ele>102.6</ele><time>2026-04-02T12:50:00Z</time></trkpt><trkpt lat="45.38639708923718" lon="10.572834155729408"><ele>102.80000000000001</ele><time>2026-04-02T12:50:01Z</time></trkpt><trkpt lat="45.38641807850102" lon="10.572723495198185"><ele>103.0</ele><time>2026-04-02T12:50:02Z</time></trkpt><trkpt lat="45.386475989304834" lon="10.57262647453002"><ele>103.0</ele><time>2026-04-02T12:50:03Z</time></trkpt><trkpt lat="45.386569791666915" lon="10.572527058232668"><ele>103.0</ele><time>2026-04-02T12:50:04Z</time></trkpt><trkpt lat="45.38665086083602" lon="10.572453656532469"><ele>103.0</ele><time>2026-04-02T12:50:05Z</time></trkpt><trkpt lat="45.38668417774471" lon="10.572356231452773"><ele>103.0</ele><time>2026-04-02T12:50:06Z</time></trkpt><trkpt lat="45.38667628350226" lon="10.572197785540514"><ele>103.0</ele><time>2026-04-02T12:50:08Z</time></trkpt><trkpt lat="45.38663232793929" lon="10.572132881662304"><ele>102.99999999999999</ele><time>2026-04-02T12:50:09Z</time></trkpt><trkpt lat="45.38657203697237" lon="10.57208185109177"><ele>103.0</ele><time>2026-04-02T12:50:10Z</time></trkpt><trkpt lat="45.38650812002991" lon="10.572071863223172"><ele>103.0</ele><time>2026-04-02T12:50:11Z</time></trkpt><trkpt lat="45.38643542464475" lon="10.57205815094923"><ele>103.0</ele><time>2026-04-02T12:50:12Z</time></trkpt><trkpt lat="45.38637131917076" lon="10.57201694942179"><ele>103.0</ele><time>2026-04-02T12:50:13Z</time></trkpt><trkpt lat="45.38631646749636" lon="10.571948138754118"><ele>102.99999999999999</ele><time>2026-04-02T12:50:14Z</time></trkpt><trkpt lat="45.38627021944969" lon="10.571871590959017"><ele>103.0</ele><time>2026-04-02T12:50:15Z</time></trkpt><trkpt lat="45.38622198332204" lon="10.57177541805179"><ele>103.83333333333334</ele><time>2026-04-02T12:50:16Z</time></trkpt><trkpt lat="45.38619299769045" lon="10.571670576644312"><ele>104.66666666666667</ele><time>2026-04-02T12:50:17Z</time></trkpt><trkpt lat="45.386185571056224" lon="10.571554855534714"><ele>105.5</ele><time>2026-04-02T12:50:18Z</time></trkpt><trkpt lat="45.38619515202898" lon="10.571429219350192"><ele>106.33333333333334</ele><time>2026-04-02T12:50:19Z</time></trkpt><trkpt lat="45.38621196357818" lon="10.571299055653858"><ele>107.16666666666667</ele><time>2026-04-02T12:50:20Z</time></trkpt><trkpt lat="45.38622943522477" lon="10.571161103254907"><ele>108.0</ele><time>2026-04-02T12:50:21Z</time></trkpt><trkpt lat="45.386252846901854" lon="10.571013487618718"><ele>108.25</ele><time>2026-04-02T12:50:22Z</time></trkpt><trkpt lat="45.38628453706322" lon="10.570838800166777"><ele>108.5</ele><time>2026-04-02T12:50:23Z</time></trkpt><trkpt lat="45.38631717008683" lon="10.570650081923425"><ele>108.75</ele><time>2026-04-02T12:50:24Z</time></trkpt><trkpt lat="45.3863527239043" lon="10.570457116545445"><ele>109.0</ele><time>2026-04-02T12:50:25Z</time></trkpt><trkpt lat="45.38639448971768" lon="10.57027523488361"><ele>110.33333333333334</ele><time>2026-04-02T12:50:26Z</time></trkpt><trkpt lat="45.38644788888038" lon="10.570116826271265"><ele>111.66666666666666</ele><time>2026-04-02T12:50:27Z</time></trkpt><trkpt lat="45.38653681245117" lon="10.56995064104128"><ele>113.0</ele><time>2026-04-02T12:50:28Z</time></trkpt><trkpt lat="45.38665473734902" lon="10.569756783170968"><ele>113.0</ele><time>2026-04-02T12:50:29Z</time></trkpt><trkpt lat="45.386786587875235" lon="10.569517637335707"><ele>113.0</ele><time>2026-04-02T12:50:30Z</time></trkpt><trkpt lat="45.38689697891166" lon="10.569325747041319"><ele>113.0</ele><time>2026-04-02T12:50:31Z</time></trkpt><trkpt lat="45.38701478485885" lon="10.56916897897787"><ele>113.0</ele><time>2026-04-02T12:50:32Z</time></trkpt><trkpt lat="45.387129110826756" lon="10.569022969034497"><ele>113.0</ele><time>2026-04-02T12:50:33Z</time></trkpt><trkpt lat="45.38725492152924" lon="10.568899583961576"><ele>113.0</ele><time>2026-04-02T12:50:34Z</time></trkpt><trkpt lat="45.387423673723596" lon="10.568767840311525"><ele>113.0</ele><time>2026-04-02T12:50:35Z</time></trkpt><trkpt lat="45.38761447965734" lon="10.568617988019641"><ele>113.0</ele><time>2026-04-02T12:50:36Z</time></trkpt><trkpt lat="45.3878189046794" lon="10.568456504012122"><ele>112.66666666666666</ele><time>2026-04-02T12:50:37Z</time></trkpt><trkpt lat="45.38801054877056" lon="10.568312333861659"><ele>112.33333333333334</ele><time>2026-04-02T12:50:38Z</time></trkpt><trkpt lat="45.38817763716695" lon="10.568186139598646"><ele>112.0</ele><time>2026-04-02T12:50:39Z</time></trkpt><trkpt lat="45.38833840600513" lon="10.56803808087771"><ele>112.66666666666667</ele><time>2026-04-02T12:50:40Z</time></trkpt><trkpt lat="45.38850992735298" lon="10.567854722743473"><ele>113.33333333333334</ele><time>2026-04-02T12:50:41Z</time></trkpt><trkpt lat="45.38864508861971" lon="10.567705091277034"><ele>114.0</ele><time>2026-04-02T12:50:42Z</time></trkpt><trkpt lat="45.38874628097815" lon="10.567596819411083"><ele>114.0</ele><time>2026-04-02T12:50:43Z</time></trkpt><trkpt lat="45.38883164876256" lon="10.567488955365713"><ele>114.0</ele><time>2026-04-02T12:50:44Z</time></trkpt><trkpt lat="45.388915229124216" lon="10.567364778870624"><ele>114.0</ele><time>2026-04-02T12:50:45Z</time></trkpt><trkpt lat="45.38898824042244" lon="10.567267204986265"><ele>114.0</ele><time>2026-04-02T12:50:46Z</time></trkpt><trkpt lat="45.389062916397236" lon="10.567175775960864"><ele>114.0</ele><time>2026-04-02T12:50:47Z</time></trkpt><trkpt lat="45.389142806183884" lon="10.56709300966666"><ele>114.0</ele><time>2026-04-02T12:50:48Z</time></trkpt><trkpt lat="45.38923910027016" lon="10.56702388586979"><ele>114.0</ele><time>2026-04-02T12:50:49Z</time></trkpt><trkpt lat="45.38935009868237" lon="10.56697148790943"><ele>114.0</ele><time>2026-04-02T12:50:50Z</time></trkpt><trkpt lat="45.38945322031285" lon="10.56691568317502"><ele>114.0</ele><time>2026-04-02T12:50:51Z</time></trkpt><trkpt lat="45.389546811700455" lon="10.566856890796803"><ele>114.0</ele><time>2026-04-02T12:50:52Z</time></trkpt><trkpt lat="45.389643243838094" lon="10.566798904425346"><ele>113.83333333333333</ele><time>2026-04-02T12:50:53Z</time></trkpt><trkpt lat="45.389735598170105" lon="10.566741522082618"><ele>113.66666666666666</ele><time>2026-04-02T12:50:54Z</time></trkpt><trkpt lat="45.389817130794455" lon="10.566685287543581"><ele>113.5</ele><time>2026-04-02T12:50:55Z</time></trkpt><trkpt lat="45.38989126677423" lon="10.566636631081497"><ele>113.33333333333333</ele><time>2026-04-02T12:50:56Z</time></trkpt><trkpt lat="45.38995922597728" lon="10.566591948142598"><ele>113.16666666666666</ele><time>2026-04-02T12:50:57Z</time></trkpt><trkpt lat="45.39001523932942" lon="10.566543172346893"><ele>113.0</ele><time>2026-04-02T12:50:58Z</time></trkpt><trkpt lat="45.39012403462107" lon="10.566442482697449"><ele>113.0</ele><time>2026-04-02T12:51:00Z</time></trkpt><trkpt lat="45.39018841721832" lon="10.566373212205669"><ele>113.00000000000001</ele><time>2026-04-02T12:51:01Z</time></trkpt><trkpt lat="45.39024311824874" lon="10.566291620888355"><ele>113.00000000000001</ele><time>2026-04-02T12:51:02Z</time></trkpt><trkpt lat="45.39029237897234" lon="10.566189632346555"><ele>113.0</ele><time>2026-04-02T12:51:03Z</time></trkpt><trkpt lat="45.39035061543538" lon="10.566071945736383"><ele>113.0</ele><time>2026-04-02T12:51:04Z</time></trkpt><trkpt lat="45.39041652335143" lon="10.565951164268988"><ele>113.5</ele><time>2026-04-02T12:51:05Z</time></trkpt><trkpt lat="45.39050006334777" lon="10.565815247779334"><ele>114.0</ele><time>2026-04-02T12:51:06Z</time></trkpt><trkpt lat="45.39056714130349" lon="10.565683070808385"><ele>114.5</ele><time>2026-04-02T12:51:07Z</time></trkpt><trkpt lat="45.39062927802457" lon="10.565561529629312"><ele>115.0</ele><time>2026-04-02T12:51:08Z</time></trkpt><trkpt lat="45.39068752826817" lon="10.565441055283925"><ele>115.33333333333334</ele><time>2026-04-02T12:51:09Z</time></trkpt><trkpt lat="45.39073086284989" lon="10.56533047331935"><ele>115.66666666666667</ele><time>2026-04-02T12:51:10Z</time></trkpt><trkpt lat="45.390764640689625" lon="10.565228796414253"><ele>116.0</ele><time>2026-04-02T12:51:11Z</time></trkpt><trkpt lat="45.39079829128634" lon="10.56513512418692"><ele>116.33333333333334</ele><time>2026-04-02T12:51:12Z</time></trkpt><trkpt lat="45.39083247522775" lon="10.56504362765007"><ele>116.66666666666667</ele><time>2026-04-02T12:51:13Z</time></trkpt><trkpt lat="45.390869716372514" lon="10.564949160979909"><ele>117.0</ele><time>2026-04-02T12:51:14Z</time></trkpt><trkpt lat="45.390906954218345" lon="10.564853274194009"><ele>117.0</ele><time>2026-04-02T12:51:15Z</time></trkpt><trkpt lat="45.390947839104676" lon="10.564734809537963"><ele>116.99999999999999</ele><time>2026-04-02T12:51:16Z</time></trkpt><trkpt lat="45.390983081200844" lon="10.56459828616202"><ele>116.99999999999999</ele><time>2026-04-02T12:51:17Z</time></trkpt><trkpt lat="45.39101022232293" lon="10.564441010965478"><ele>117.0</ele><time>2026-04-02T12:51:18Z</time></trkpt><trkpt lat="45.391040772966626" lon="10.564269107952962"><ele>117.0</ele><time>2026-04-02T12:51:19Z</time></trkpt><trkpt lat="45.39106977396398" lon="10.56408882557096"><ele>117.0</ele><time>2026-04-02T12:51:20Z</time></trkpt><trkpt lat="45.39109345626684" lon="10.563896980427094"><ele>117.0</ele><time>2026-04-02T12:51:21Z</time></trkpt><trkpt lat="45.39111675025489" lon="10.563695849305812"><ele>117.0</ele><time>2026-04-02T12:51:22Z</time></trkpt><trkpt lat="45.39113794648001" lon="10.563495391447082"><ele>117.0</ele><time>2026-04-02T12:51:23Z</time></trkpt><trkpt lat="45.39115788842243" lon="10.563303696396138"><ele>117.0</ele><time>2026-04-02T12:51:24Z</time></trkpt><trkpt lat="45.39116338716685" lon="10.563127344642336"><ele>116.99999999999999</ele><time>2026-04-02T12:51:25Z</time></trkpt><trkpt lat="45.39115751866652" lon="10.562982883249514"><ele>116.99999999999999</ele><time>2026-04-02T12:51:26Z</time></trkpt><trkpt lat="45.39115247005465" lon="10.562862294373524"><ele>117.0</ele><time>2026-04-02T12:51:27Z</time></trkpt><trkpt lat="45.39116262779105" lon="10.562739397714845"><ele>117.0</ele><time>2026-04-02T12:51:28Z</time></trkpt><trkpt lat="45.39118967589311" lon="10.562605140792517"><ele>116.75</ele><time>2026-04-02T12:51:29Z</time></trkpt><trkpt lat="45.391242198123905" lon="10.56247019409847"><ele>116.5</ele><time>2026-04-02T12:51:30Z</time></trkpt><trkpt lat="45.39129996575582" lon="10.56232798257429"><ele>116.25</ele><time>2026-04-02T12:51:31Z</time></trkpt><trkpt lat="45.391359116143136" lon="10.562175126713008"><ele>116.0</ele><time>2026-04-02T12:51:32Z</time></trkpt><trkpt lat="45.39142167461569" lon="10.56202188047959"><ele>115.8</ele><time>2026-04-02T12:51:33Z</time></trkpt><trkpt lat="45.391481971955656" lon="10.561872508582303"><ele>115.6</ele><time>2026-04-02T12:51:34Z</time></trkpt><trkpt lat="45.391530738065676" lon="10.561745005395881"><ele>115.4</ele><time>2026-04-02T12:51:35Z</time></trkpt><trkpt lat="45.39156913585454" lon="10.561647183743196"><ele>115.2</ele><time>2026-04-02T12:51:36Z</time></trkpt><trkpt lat="45.391614086981036" lon="10.561536560788229"><ele>115.0</ele><time>2026-04-02T12:51:38Z</time></trkpt><trkpt lat="45.39168817172401" lon="10.56144611282329"><ele>115.0</ele><time>2026-04-02T12:51:40.999Z</time></trkpt><trkpt lat="45.391766769946706" lon="10.561438759284307"><ele>115.0</ele><time>2026-04-02T12:51:41.999Z</time></trkpt><trkpt lat="45.39186405762134" lon="10.561447387956367"><ele>115.0</ele><time>2026-04-02T12:51:42.999Z</time></trkpt><trkpt lat="45.39197406494841" lon="10.561441364571124"><ele>115.0</ele><time>2026-04-02T12:51:43.999Z</time></trkpt><trkpt lat="45.39207860838417" lon="10.561437991543896"><ele>115.0</ele><time>2026-04-02T12:51:44.999Z</time></trkpt><trkpt lat="45.39218450160469" lon="10.561444565506969"><ele>114.75</ele><time>2026-04-02T12:51:45.999Z</time></trkpt><trkpt lat="45.392294043046924" lon="10.561453267811569"><ele>114.5</ele><time>2026-04-02T12:51:46.999Z</time></trkpt><trkpt lat="45.392407638730724" lon="10.561456958618377"><ele>114.25</ele><time>2026-04-02T12:51:47.999Z</time></trkpt><trkpt lat="45.39251977439417" lon="10.561462626521466"><ele>114.0</ele><time>2026-04-02T12:51:48.999Z</time></trkpt><trkpt lat="45.39263640610223" lon="10.561471652533212"><ele>114.0</ele><time>2026-04-02T12:51:49.999Z</time></trkpt><trkpt lat="45.39276128512289" lon="10.561474956069837"><ele>114.0</ele><time>2026-04-02T12:51:50.999Z</time></trkpt><trkpt lat="45.39289301940046" lon="10.561476070706046"><ele>114.0</ele><time>2026-04-02T12:51:51.999Z</time></trkpt><trkpt lat="45.39303371391937" lon="10.561479378405926"><ele>114.0</ele><time>2026-04-02T12:51:52.999Z</time></trkpt><trkpt lat="45.39317952509267" lon="10.561481722199273"><ele>113.25</ele><time>2026-04-02T12:51:53.999Z</time></trkpt><trkpt lat="45.39332891421513" lon="10.561470759454858"><ele>112.5</ele><time>2026-04-02T12:51:54.999Z</time></trkpt><trkpt lat="45.393478668788944" lon="10.56145754443445"><ele>111.75</ele><time>2026-04-02T12:51:56Z</time></trkpt><trkpt lat="45.3936197845547" lon="10.561444322804068"><ele>111.0</ele><time>2026-04-02T12:51:57Z</time></trkpt><trkpt lat="45.39375591679602" lon="10.561440567268807"><ele>110.75</ele><time>2026-04-02T12:51:58Z</time></trkpt><trkpt lat="45.39389667115501" lon="10.561458389110605"><ele>110.5</ele><time>2026-04-02T12:51:59Z</time></trkpt><trkpt lat="45.39403848193567" lon="10.561506246976814"><ele>110.25</ele><time>2026-04-02T12:52:00Z</time></trkpt><trkpt lat="45.39417554173389" lon="10.561570191369135"><ele>110.0</ele><time>2026-04-02T12:52:01Z</time></trkpt><trkpt lat="45.39428583203361" lon="10.561696547161793"><ele>110.0</ele><time>2026-04-02T12:52:02Z</time></trkpt><trkpt lat="45.39440697170587" lon="10.56179420560653"><ele>110.0</ele><time>2026-04-02T12:52:03Z</time></trkpt><trkpt lat="45.39453154189518" lon="10.561903295794476"><ele>110.0</ele><time>2026-04-02T12:52:04Z</time></trkpt><trkpt lat="45.39466667705894" lon="10.562010024639706"><ele>110.0</ele><time>2026-04-02T12:52:05Z</time></trkpt><trkpt lat="45.394806706879606" lon="10.562109200157897"><ele>107.66666666666666</ele><time>2026-04-02T12:52:06Z</time></trkpt><trkpt lat="45.394946876461056" lon="10.562205043764239"><ele>105.33333333333334</ele><time>2026-04-02T12:52:07Z</time></trkpt><trkpt lat="45.39508391301876" lon="10.562304156248034"><ele>103.0</ele><time>2026-04-02T12:52:08Z</time></trkpt><trkpt lat="45.39520324540011" lon="10.56241624659201"><ele>103.0</ele><time>2026-04-02T12:52:09Z</time></trkpt><trkpt lat="45.39531167412864" lon="10.56255699375186"><ele>103.0</ele><time>2026-04-02T12:52:10Z</time></trkpt><trkpt lat="45.39541808278576" lon="10.56271717321533"><ele>103.0</ele><time>2026-04-02T12:52:11Z</time></trkpt><trkpt lat="45.395529570572826" lon="10.56288340474179"><ele>102.33333333333334</ele><time>2026-04-02T12:52:12Z</time></trkpt><trkpt lat="45.3956451778549" lon="10.563047650974635"><ele>101.66666666666666</ele><time>2026-04-02T12:52:13Z</time></trkpt><trkpt lat="45.39576104141827" lon="10.563208018657093"><ele>101.0</ele><time>2026-04-02T12:52:14Z</time></trkpt><trkpt lat="45.395875911881916" lon="10.563364545986918"><ele>101.0</ele><time>2026-04-02T12:52:15Z</time></trkpt><trkpt lat="45.39598872842835" lon="10.56352059114827"><ele>101.0</ele><time>2026-04-02T12:52:16Z</time></trkpt><trkpt lat="45.39609985440118" lon="10.56367770429289"><ele>101.0</ele><time>2026-04-02T12:52:17Z</time></trkpt><trkpt lat="45.396213040439896" lon="10.563830936726449"><ele>101.0</ele><time>2026-04-02T12:52:18Z</time></trkpt><trkpt lat="45.39632651522867" lon="10.563981302155407"><ele>101.0</ele><time>2026-04-02T12:52:19Z</time></trkpt><trkpt lat="45.396437925950366" lon="10.56413406748321"><ele>101.0</ele><time>2026-04-02T12:52:20Z</time></trkpt><trkpt lat="45.39654919763904" lon="10.564291948017718"><ele>101.33333333333333</ele><time>2026-04-02T12:52:21Z</time></trkpt><trkpt lat="45.39666443131159" lon="10.564455533484354"><ele>101.66666666666666</ele><time>2026-04-02T12:52:22Z</time></trkpt><trkpt lat="45.39678588329617" lon="10.564625534398827"><ele>102.0</ele><time>2026-04-02T12:52:23Z</time></trkpt><trkpt lat="45.39691576125702" lon="10.564796316160631"><ele>102.0</ele><time>2026-04-02T12:52:24Z</time></trkpt><trkpt lat="45.397047367312936" lon="10.564972508631632"><ele>102.0</ele><time>2026-04-02T12:52:25Z</time></trkpt><trkpt lat="45.397171030481566" lon="10.565140592008182"><ele>102.0</ele><time>2026-04-02T12:52:26Z</time></trkpt><trkpt lat="45.39727996604988" lon="10.565288817476493"><ele>102.0</ele><time>2026-04-02T12:52:27Z</time></trkpt><trkpt lat="45.397368520084285" lon="10.565438653156107"><ele>102.0</ele><time>2026-04-02T12:52:28Z</time></trkpt><trkpt lat="45.39742457099936" lon="10.565604286865979"><ele>102.0</ele><time>2026-04-02T12:52:29Z</time></trkpt><trkpt lat="45.39745621757416" lon="10.565797323544945"><ele>102.0</ele><time>2026-04-02T12:52:30Z</time></trkpt><trkpt lat="45.397507745581166" lon="10.566000716006265"><ele>102.0</ele><time>2026-04-02T12:52:31Z</time></trkpt><trkpt lat="45.39759398810692" lon="10.566181268073958"><ele>102.0</ele><time>2026-04-02T12:52:32Z</time></trkpt><trkpt lat="45.39769407157689" lon="10.566342707654515"><ele>102.0</ele><time>2026-04-02T12:52:33Z</time></trkpt><trkpt lat="45.39780295562263" lon="10.56650588939753"><ele>102.0</ele><time>2026-04-02T12:52:34Z</time></trkpt><trkpt lat="45.39792405871131" lon="10.56667180785842"><ele>102.0</ele><time>2026-04-02T12:52:35Z</time></trkpt><trkpt lat="45.398048347031285" lon="10.56683675540728"><ele>102.0</ele><time>2026-04-02T12:52:36Z</time></trkpt><trkpt lat="45.39817327625744" lon="10.567002553279895"><ele>103.0</ele><time>2026-04-02T12:52:37Z</time></trkpt><trkpt lat="45.3983057443125" lon="10.567170351822195"><ele>104.0</ele><time>2026-04-02T12:52:38Z</time></trkpt><trkpt lat="45.39844225649142" lon="10.567332202596846"><ele>105.0</ele><time>2026-04-02T12:52:39Z</time></trkpt><trkpt lat="45.398580893924326" lon="10.567487398325486"><ele>105.0</ele><time>2026-04-02T12:52:40Z</time></trkpt><trkpt lat="45.398714380051274" lon="10.567636318831783"><ele>105.0</ele><time>2026-04-02T12:52:41Z</time></trkpt><trkpt lat="45.398836594364916" lon="10.567776181579756"><ele>105.0</ele><time>2026-04-02T12:52:42Z</time></trkpt><trkpt lat="45.39893910367779" lon="10.567904368095578"><ele>106.0</ele><time>2026-04-02T12:52:43Z</time></trkpt><trkpt lat="45.39903229315413" lon="10.56803022749312"><ele>107.0</ele><time>2026-04-02T12:52:44Z</time></trkpt><trkpt lat="45.399126107694826" lon="10.568164735238796"><ele>108.0</ele><time>2026-04-02T12:52:45Z</time></trkpt><trkpt lat="45.39922356992319" lon="10.5682952008323"><ele>109.0</ele><time>2026-04-02T12:52:46Z</time></trkpt><trkpt lat="45.39931929779131" lon="10.56841899230157"><ele>109.0</ele><time>2026-04-02T12:52:47Z</time></trkpt><trkpt lat="45.39941096652386" lon="10.5685358767411"><ele>109.0</ele><time>2026-04-02T12:52:48Z</time></trkpt><trkpt lat="45.39948366329983" lon="10.56862809077909"><ele>109.0</ele><time>2026-04-02T12:52:49Z</time></trkpt><trkpt lat="45.39953755214452" lon="10.568697884941697"><ele>109.0</ele><time>2026-04-02T12:52:50Z</time></trkpt><trkpt lat="45.39959581869224" lon="10.568778744231963"><ele>109.0</ele><time>2026-04-02T12:52:52Z</time></trkpt><trkpt lat="45.39965539964889" lon="10.568843570980567"><ele>109.5</ele><time>2026-04-02T12:52:57Z</time></trkpt><trkpt lat="45.39979356751404" lon="10.568647050839049"><ele>110.0</ele><time>2026-04-02T12:52:58Z</time></trkpt><trkpt lat="45.39985180705578" lon="10.568505952726051"><ele>110.5</ele><time>2026-04-02T12:52:59Z</time></trkpt><trkpt lat="45.39990548621073" lon="10.568352901007698"><ele>111.0</ele><time>2026-04-02T12:53:00Z</time></trkpt><trkpt lat="45.399970417406614" lon="10.568197299074468"><ele>111.0</ele><time>2026-04-02T12:53:01Z</time></trkpt><trkpt lat="45.40002577376017" lon="10.56808012357988"><ele>111.0</ele><time>2026-04-02T12:53:02Z</time></trkpt><trkpt lat="45.40008498083854" lon="10.567964711448226"><ele>111.0</ele><time>2026-04-02T12:53:03Z</time></trkpt><trkpt lat="45.40015336669371" lon="10.567833899188248"><ele>111.0</ele><time>2026-04-02T12:53:04Z</time></trkpt><trkpt lat="45.40021710732759" lon="10.56770967481451"><ele>111.0</ele><time>2026-04-02T12:53:05Z</time></trkpt><trkpt lat="45.40027787369535" lon="10.567583565861154"><ele>110.5</ele><time>2026-04-02T12:53:06Z</time></trkpt><trkpt lat="45.40034794693059" lon="10.567461719449007"><ele>110.0</ele><time>2026-04-02T12:53:07Z</time></trkpt><trkpt lat="45.40042807315703" lon="10.56732863698432"><ele>109.5</ele><time>2026-04-02T12:53:08Z</time></trkpt><trkpt lat="45.400534902511374" lon="10.56720450490679"><ele>109.0</ele><time>2026-04-02T12:53:09Z</time></trkpt><trkpt lat="45.400645370221056" lon="10.567062416496963"><ele>109.66666666666667</ele><time>2026-04-02T12:53:10Z</time></trkpt><trkpt lat="45.40074439944718" lon="10.566900130183488"><ele>110.33333333333334</ele><time>2026-04-02T12:53:11Z</time></trkpt><trkpt lat="45.40085453699241" lon="10.566752733232262"><ele>111.0</ele><time>2026-04-02T12:53:12Z</time></trkpt><trkpt lat="45.400953613551295" lon="10.566595005451347"><ele>111.0</ele><time>2026-04-02T12:53:13Z</time></trkpt><trkpt lat="45.401032262025666" lon="10.566431632232213"><ele>111.0</ele><time>2026-04-02T12:53:14Z</time></trkpt><trkpt lat="45.40110353676349" lon="10.566262244119983"><ele>111.0</ele><time>2026-04-02T12:53:15Z</time></trkpt><trkpt lat="45.40116238252123" lon="10.566120483371597"><ele>111.0</ele><time>2026-04-02T12:53:16Z</time></trkpt><trkpt lat="45.401216334002385" lon="10.565993929900262"><ele>111.5</ele><time>2026-04-02T12:53:17Z</time></trkpt><trkpt lat="45.401264392282734" lon="10.565896899045184"><ele>112.0</ele><time>2026-04-02T12:53:18Z</time></trkpt><trkpt lat="45.40132510812852" lon="10.565768915957156"><ele>112.5</ele><time>2026-04-02T12:53:19Z</time></trkpt><trkpt lat="45.40139973838856" lon="10.565613369904053"><ele>113.0</ele><time>2026-04-02T12:53:20Z</time></trkpt><trkpt lat="45.401492838077914" lon="10.565428768337975"><ele>111.66666666666666</ele><time>2026-04-02T12:53:21Z</time></trkpt><trkpt lat="45.401605667763334" lon="10.565204588417906"><ele>110.33333333333334</ele><time>2026-04-02T12:53:22Z</time></trkpt><trkpt lat="45.40173331811748" lon="10.564969472087162"><ele>109.0</ele><time>2026-04-02T12:53:23Z</time></trkpt><trkpt lat="45.401849175043594" lon="10.56477833699168"><ele>109.0</ele><time>2026-04-02T12:53:24Z</time></trkpt><trkpt lat="45.40195722520222" lon="10.564594140959382"><ele>109.0</ele><time>2026-04-02T12:53:25Z</time></trkpt><trkpt lat="45.40205728482552" lon="10.564417682751612"><ele>109.0</ele><time>2026-04-02T12:53:26Z</time></trkpt><trkpt lat="45.40215584898991" lon="10.564230846102351"><ele>109.33333333333334</ele><time>2026-04-02T12:53:27Z</time></trkpt><trkpt lat="45.40223951023121" lon="10.564046768778375"><ele>109.66666666666666</ele><time>2026-04-02T12:53:28Z</time></trkpt><trkpt lat="45.40231868621444" lon="10.563852681041185"><ele>110.0</ele><time>2026-04-02T12:53:29Z</time></trkpt><trkpt lat="45.4023983101909" lon="10.563670669352819"><ele>110.0</ele><time>2026-04-02T12:53:30Z</time></trkpt><trkpt lat="45.40248327687378" lon="10.563485978002243"><ele>110.0</ele><time>2026-04-02T12:53:31Z</time></trkpt><trkpt lat="45.40256212795406" lon="10.563311508596032"><ele>110.0</ele><time>2026-04-02T12:53:32Z</time></trkpt><trkpt lat="45.40263461312604" lon="10.563146028234494"><ele>110.0</ele><time>2026-04-02T12:53:33Z</time></trkpt><trkpt lat="45.40270749984858" lon="10.562986572097424"><ele>109.5</ele><time>2026-04-02T12:53:34Z</time></trkpt><trkpt lat="45.402784627580836" lon="10.562822875037643"><ele>109.0</ele><time>2026-04-02T12:53:35Z</time></trkpt><trkpt lat="45.40286557024485" lon="10.562652433885427"><ele>108.5</ele><time>2026-04-02T12:53:36Z</time></trkpt><trkpt lat="45.40296581009385" lon="10.562480068364362"><ele>108.0</ele><time>2026-04-02T12:53:37Z</time></trkpt><trkpt lat="45.403061830318194" lon="10.562315226731874"><ele>109.0</ele><time>2026-04-02T12:53:38Z</time></trkpt><trkpt lat="45.40315846174932" lon="10.562142766264145"><ele>110.0</ele><time>2026-04-02T12:53:39Z</time></trkpt><trkpt lat="45.4032514594597" lon="10.561963736806035"><ele>111.0</ele><time>2026-04-02T12:53:40Z</time></trkpt><trkpt lat="45.403334944271435" lon="10.561779158291287"><ele>111.0</ele><time>2026-04-02T12:53:41Z</time></trkpt><trkpt lat="45.40340328745756" lon="10.561590076218573"><ele>111.0</ele><time>2026-04-02T12:53:42Z</time></trkpt><trkpt lat="45.40345659984572" lon="10.561392242114634"><ele>111.0</ele><time>2026-04-02T12:53:43Z</time></trkpt><trkpt lat="45.40350565352555" lon="10.561195114539938"><ele>111.0</ele><time>2026-04-02T12:53:44Z</time></trkpt><trkpt lat="45.403555588146375" lon="10.561001109457807"><ele>110.0</ele><time>2026-04-02T12:53:45Z</time></trkpt><trkpt lat="45.40360958866493" lon="10.560825303087546"><ele>109.0</ele><time>2026-04-02T12:53:46Z</time></trkpt><trkpt lat="45.40366799157445" lon="10.560672807832571"><ele>108.0</ele><time>2026-04-02T12:53:47Z</time></trkpt><trkpt lat="45.40373601944065" lon="10.560524215716304"><ele>107.0</ele><time>2026-04-02T12:53:48Z</time></trkpt><trkpt lat="45.403825875490945" lon="10.560383505676281"><ele>107.25</ele><time>2026-04-02T12:53:49Z</time></trkpt><trkpt lat="45.40392954632415" lon="10.560246431335848"><ele>107.5</ele><time>2026-04-02T12:53:50Z</time></trkpt><trkpt lat="45.40403516098773" lon="10.560099440096742"><ele>107.75</ele><time>2026-04-02T12:53:51Z</time></trkpt><trkpt lat="45.40413759750499" lon="10.559944288831423"><ele>108.0</ele><time>2026-04-02T12:53:52Z</time></trkpt><trkpt lat="45.404237879463565" lon="10.559780083833465"><ele>108.0</ele><time>2026-04-02T12:53:53Z</time></trkpt><trkpt lat="45.40433590149625" lon="10.559614368759588"><ele>108.0</ele><time>2026-04-02T12:53:54Z</time></trkpt><trkpt lat="45.404430130190285" lon="10.559443523025386"><ele>108.0</ele><time>2026-04-02T12:53:55Z</time></trkpt><trkpt lat="45.40452063159591" lon="10.559265380170604"><ele>108.0</ele><time>2026-04-02T12:53:56Z</time></trkpt><trkpt lat="45.404611392461526" lon="10.559085756269216"><ele>108.0</ele><time>2026-04-02T12:53:57Z</time></trkpt><trkpt lat="45.40470377472047" lon="10.558907499459528"><ele>108.0</ele><time>2026-04-02T12:53:58Z</time></trkpt><trkpt lat="45.40479397922139" lon="10.558728777983807"><ele>106.66666666666666</ele><time>2026-04-02T12:53:59Z</time></trkpt><trkpt lat="45.404884467444276" lon="10.558546407478852"><ele>105.33333333333333</ele><time>2026-04-02T12:54:00Z</time></trkpt><trkpt lat="45.4049685758314" lon="10.55835734335945"><ele>104.0</ele><time>2026-04-02T12:54:01Z</time></trkpt><trkpt lat="45.40504777124213" lon="10.558167522610017"><ele>104.0</ele><time>2026-04-02T12:54:02Z</time></trkpt><trkpt lat="45.405125218349674" lon="10.557977895777219"><ele>104.0</ele><time>2026-04-02T12:54:03Z</time></trkpt><trkpt lat="45.40519707801423" lon="10.557787905194017"><ele>104.0</ele><time>2026-04-02T12:54:04Z</time></trkpt><trkpt lat="45.405275326196374" lon="10.557605488438488"><ele>103.75</ele><time>2026-04-02T12:54:05Z</time></trkpt><trkpt lat="45.40534088494601" lon="10.557418670212476"><ele>103.5</ele><time>2026-04-02T12:54:06Z</time></trkpt><trkpt lat="45.40537851538845" lon="10.55724705535977"><ele>103.25</ele><time>2026-04-02T12:54:07Z</time></trkpt><trkpt lat="45.40538885475381" lon="10.557079759636544"><ele>103.0</ele><time>2026-04-02T12:54:08Z</time></trkpt><trkpt lat="45.40536298818583" lon="10.556906608427242"><ele>103.5</ele><time>2026-04-02T12:54:09Z</time></trkpt><trkpt lat="45.4053047550459" lon="10.5567275459808"><ele>104.0</ele><time>2026-04-02T12:54:10Z</time></trkpt><trkpt lat="45.405255148007456" lon="10.556535750270386"><ele>104.5</ele><time>2026-04-02T12:54:11Z</time></trkpt><trkpt lat="45.40521107408968" lon="10.556329932369174"><ele>105.0</ele><time>2026-04-02T12:54:12Z</time></trkpt><trkpt lat="45.405169576571915" lon="10.556123166851465"><ele>105.4</ele><time>2026-04-02T12:54:13Z</time></trkpt><trkpt lat="45.40514108616616" lon="10.555943102211494"><ele>105.8</ele><time>2026-04-02T12:54:14Z</time></trkpt><trkpt lat="45.40512002638633" lon="10.555785520688255"><ele>106.19999999999999</ele><time>2026-04-02T12:54:15Z</time></trkpt><trkpt lat="45.40510487821448" lon="10.555644052931454"><ele>106.6</ele><time>2026-04-02T12:54:16Z</time></trkpt><trkpt lat="45.40510451921976" lon="10.555521341411778"><ele>107.0</ele><time>2026-04-02T12:54:17Z</time></trkpt><trkpt lat="45.405132148974346" lon="10.555420789401515"><ele>107.0</ele><time>2026-04-02T12:54:19Z</time></trkpt><trkpt lat="45.405036451561976" lon="10.555380390017515"><ele>106.99999999999999</ele><time>2026-04-02T12:54:21Z</time></trkpt><trkpt lat="45.40496883432028" lon="10.555355764056314"><ele>106.99999999999999</ele><time>2026-04-02T12:54:22Z</time></trkpt><trkpt lat="45.404877292967306" lon="10.55530371817908"><ele>107.0</ele><time>2026-04-02T12:54:23Z</time></trkpt><trkpt lat="45.4047497771937" lon="10.55521731187476"><ele>107.0</ele><time>2026-04-02T12:54:24Z</time></trkpt><trkpt lat="45.40458294458479" lon="10.55511855952977"><ele>107.66666666666666</ele><time>2026-04-02T12:54:25Z</time></trkpt><trkpt lat="45.404402852173256" lon="10.555023847249464"><ele>108.33333333333334</ele><time>2026-04-02T12:54:26Z</time></trkpt><trkpt lat="45.40425455717757" lon="10.554939189749609"><ele>109.0</ele><time>2026-04-02T12:54:27Z</time></trkpt><trkpt lat="45.40412686373711" lon="10.554847284029972"><ele>109.0</ele><time>2026-04-02T12:54:28Z</time></trkpt><trkpt lat="45.404001577911636" lon="10.554746905376241"><ele>109.0</ele><time>2026-04-02T12:54:29Z</time></trkpt><trkpt lat="45.403877361934335" lon="10.554633139169269"><ele>109.0</ele><time>2026-04-02T12:54:30Z</time></trkpt><trkpt lat="45.40375678671084" lon="10.554499199584658"><ele>109.0</ele><time>2026-04-02T12:54:31Z</time></trkpt><trkpt lat="45.40364558682759" lon="10.554370349595024"><ele>110.00000000000001</ele><time>2026-04-02T12:54:32Z</time></trkpt><trkpt lat="45.40356084485913" lon="10.554273360883764"><ele>111.0</ele><time>2026-04-02T12:54:33Z</time></trkpt><trkpt lat="45.40349286934438" lon="10.55419031988001"><ele>112.0</ele><time>2026-04-02T12:54:34Z</time></trkpt><trkpt lat="45.40343697448574" lon="10.554117610115158"><ele>113.0</ele><time>2026-04-02T12:54:35Z</time></trkpt><trkpt lat="45.40338471262198" lon="10.554064291128197"><ele>114.00000000000001</ele><time>2026-04-02T12:54:36Z</time></trkpt><trkpt lat="45.403311104763354" lon="10.55404904331496"><ele>115.0</ele><time>2026-04-02T12:54:38Z</time></trkpt><trkpt lat="45.403232560094246" lon="10.554149355729592"><ele>115.0</ele><time>2026-04-02T12:54:41Z</time></trkpt><trkpt lat="45.40318886121314" lon="10.554231952015458"><ele>115.0</ele><time>2026-04-02T12:54:42Z</time></trkpt><trkpt lat="45.403139502739826" lon="10.554343338690847"><ele>115.0</ele><time>2026-04-02T12:54:43Z</time></trkpt><trkpt lat="45.40308594972263" lon="10.554480864262318"><ele>115.0</ele><time>2026-04-02T12:54:44Z</time></trkpt><trkpt lat="45.40302238866795" lon="10.554626953528695"><ele>115.0</ele><time>2026-04-02T12:54:45Z</time></trkpt><trkpt lat="45.40294492503898" lon="10.554777616540495"><ele>114.5</ele><time>2026-04-02T12:54:46Z</time></trkpt><trkpt lat="45.40285761790538" lon="10.554932260604378"><ele>114.0</ele><time>2026-04-02T12:54:47Z</time></trkpt><trkpt lat="45.40276645986108" lon="10.555098409351475"><ele>113.5</ele><time>2026-04-02T12:54:48Z</time></trkpt><trkpt lat="45.402666563975686" lon="10.555265998080364"><ele>113.0</ele><time>2026-04-02T12:54:49Z</time></trkpt><trkpt lat="45.40256035243439" lon="10.555439762052265"><ele>113.0</ele><time>2026-04-02T12:54:50Z</time></trkpt><trkpt lat="45.40244271505447" lon="10.555617632137023"><ele>113.0</ele><time>2026-04-02T12:54:51Z</time></trkpt><trkpt lat="45.40232002644385" lon="10.555787558743583"><ele>113.0</ele><time>2026-04-02T12:54:52Z</time></trkpt><trkpt lat="45.402191858372696" lon="10.555957250567891"><ele>113.0</ele><time>2026-04-02T12:54:53Z</time></trkpt><trkpt lat="45.4020688238883" lon="10.556130726567494"><ele>113.0</ele><time>2026-04-02T12:54:54Z</time></trkpt><trkpt lat="45.401950959396395" lon="10.556296316732888"><ele>113.0</ele><time>2026-04-02T12:54:55Z</time></trkpt><trkpt lat="45.40183709753333" lon="10.556462569018818"><ele>113.0</ele><time>2026-04-02T12:54:56Z</time></trkpt><trkpt lat="45.40173033729726" lon="10.556618288215498"><ele>113.0</ele><time>2026-04-02T12:54:57Z</time></trkpt><trkpt lat="45.40163406543853" lon="10.556753408327616"><ele>113.0</ele><time>2026-04-02T12:54:58Z</time></trkpt><trkpt lat="45.40155212132404" lon="10.556870602307352"><ele>113.0</ele><time>2026-04-02T12:54:59Z</time></trkpt><trkpt lat="45.40147254388306" lon="10.556959038411108"><ele>113.0</ele><time>2026-04-02T12:55:00Z</time></trkpt><trkpt lat="45.40137789092087" lon="10.557019168982492"><ele>113.0</ele><time>2026-04-02T12:55:01Z</time></trkpt><trkpt lat="45.40126240692631" lon="10.557057470493316"><ele>113.0</ele><time>2026-04-02T12:55:02Z</time></trkpt><trkpt lat="45.40114462928129" lon="10.55711730044683"><ele>113.0</ele><time>2026-04-02T12:55:03Z</time></trkpt><trkpt lat="45.40103608191543" lon="10.557201840206048"><ele>111.60000000000001</ele><time>2026-04-02T12:55:04Z</time></trkpt><trkpt lat="45.400935147415225" lon="10.55726509899283"><ele>110.20000000000002</ele><time>2026-04-02T12:55:05Z</time></trkpt><trkpt lat="45.40083011884527" lon="10.55729497747643"><ele>108.8</ele><time>2026-04-02T12:55:06Z</time></trkpt><trkpt lat="45.40071685711136" lon="10.557321933833792"><ele>107.4</ele><time>2026-04-02T12:55:07Z</time></trkpt><trkpt lat="45.400605253523366" lon="10.557350639157615"><ele>106.0</ele><time>2026-04-02T12:55:08Z</time></trkpt><trkpt lat="45.40050290975164" lon="10.557379460230743"><ele>105.50000000000001</ele><time>2026-04-02T12:55:09Z</time></trkpt><trkpt lat="45.40041217904563" lon="10.557408308025353"><ele>105.0</ele><time>2026-04-02T12:55:10Z</time></trkpt><trkpt lat="45.40033016766246" lon="10.557440741190494"><ele>104.5</ele><time>2026-04-02T12:55:11Z</time></trkpt><trkpt lat="45.400255994952154" lon="10.557489693761932"><ele>104.0</ele><time>2026-04-02T12:55:12Z</time></trkpt><trkpt lat="45.40018879759921" lon="10.557560856193055"><ele>103.50000000000001</ele><time>2026-04-02T12:55:13Z</time></trkpt><trkpt lat="45.400145424069066" lon="10.557650496650297"><ele>103.0</ele><time>2026-04-02T12:55:14Z</time></trkpt><trkpt lat="45.40013122098839" lon="10.557759622050382"><ele>103.0</ele><time>2026-04-02T12:55:15Z</time></trkpt><trkpt lat="45.40014001214329" lon="10.557883849934122"><ele>103.0</ele><time>2026-04-02T12:55:16Z</time></trkpt><trkpt lat="45.40016479138135" lon="10.55802741775524"><ele>103.0</ele><time>2026-04-02T12:55:17Z</time></trkpt><trkpt lat="45.400208005954106" lon="10.558194219722099"><ele>103.0</ele><time>2026-04-02T12:55:18Z</time></trkpt><trkpt lat="45.400256605823955" lon="10.558381301302099"><ele>103.0</ele><time>2026-04-02T12:55:19Z</time></trkpt><trkpt lat="45.40030158817743" lon="10.558571736758216"><ele>103.0</ele><time>2026-04-02T12:55:20Z</time></trkpt><trkpt lat="45.40034113825915" lon="10.5587406731216"><ele>103.0</ele><time>2026-04-02T12:55:21Z</time></trkpt><trkpt lat="45.40036972618227" lon="10.558887564583301"><ele>103.0</ele><time>2026-04-02T12:55:22Z</time></trkpt><trkpt lat="45.40037713229087" lon="10.559010887258644"><ele>103.2</ele><time>2026-04-02T12:55:23Z</time></trkpt><trkpt lat="45.40035740817582" lon="10.559110236404049"><ele>103.4</ele><time>2026-04-02T12:55:24Z</time></trkpt><trkpt lat="45.40031373019233" lon="10.559186401482265"><ele>103.60000000000001</ele><time>2026-04-02T12:55:25Z</time></trkpt><trkpt lat="45.40024411944341" lon="10.559247093921453"><ele>103.80000000000001</ele><time>2026-04-02T12:55:26Z</time></trkpt><trkpt lat="45.40014588295484" lon="10.559291053156526"><ele>104.0</ele><time>2026-04-02T12:55:27Z</time></trkpt><trkpt lat="45.40001836647058" lon="10.559333303125422"><ele>104.0</ele><time>2026-04-02T12:55:28Z</time></trkpt><trkpt lat="45.39985974096668" lon="10.55938970364511"><ele>104.0</ele><time>2026-04-02T12:55:29Z</time></trkpt><trkpt lat="45.39968969287308" lon="10.559447320261224"><ele>104.0</ele><time>2026-04-02T12:55:30Z</time></trkpt><trkpt lat="45.39952304002409" lon="10.559505475858574"><ele>104.0</ele><time>2026-04-02T12:55:31Z</time></trkpt><trkpt lat="45.39936129256966" lon="10.559569231676123"><ele>104.0</ele><time>2026-04-02T12:55:32Z</time></trkpt><trkpt lat="45.39920125658958" lon="10.559645603648287"><ele>104.0</ele><time>2026-04-02T12:55:33Z</time></trkpt><trkpt lat="45.399032998862474" lon="10.55972058118651"><ele>104.0</ele><time>2026-04-02T12:55:34Z</time></trkpt><trkpt lat="45.39887157635837" lon="10.559782313037111"><ele>104.0</ele><time>2026-04-02T12:55:35Z</time></trkpt><trkpt lat="45.39871927505225" lon="10.559840096954586"><ele>104.0</ele><time>2026-04-02T12:55:36Z</time></trkpt><trkpt lat="45.39858231215895" lon="10.559891730817737"><ele>103.66666666666666</ele><time>2026-04-02T12:55:37Z</time></trkpt><trkpt lat="45.398445854775254" lon="10.559943480623252"><ele>103.33333333333334</ele><time>2026-04-02T12:55:37.999Z</time></trkpt><trkpt lat="45.39828936989829" lon="10.560001200501292"><ele>103.0</ele><time>2026-04-02T12:55:38.999Z</time></trkpt><trkpt lat="45.39812993098915" lon="10.56006227938475"><ele>102.75</ele><time>2026-04-02T12:55:39.999Z</time></trkpt><trkpt lat="45.39798565872734" lon="10.560114073631528"><ele>102.5</ele><time>2026-04-02T12:55:40.999Z</time></trkpt><trkpt lat="45.39785220117791" lon="10.56016483435666"><ele>102.25</ele><time>2026-04-02T12:55:41.999Z</time></trkpt><trkpt lat="45.397718000461865" lon="10.5602150400116"><ele>102.0</ele><time>2026-04-02T12:55:42.999Z</time></trkpt><trkpt lat="45.39758181149407" lon="10.560264181745772"><ele>102.0</ele><time>2026-04-02T12:55:43.999Z</time></trkpt><trkpt lat="45.39745294313876" lon="10.560315332445322"><ele>102.0</ele><time>2026-04-02T12:55:44.999Z</time></trkpt><trkpt lat="45.397340102427734" lon="10.560356557155558"><ele>102.0</ele><time>2026-04-02T12:55:45.999Z</time></trkpt><trkpt lat="45.397239382929335" lon="10.560395307548207"><ele>102.0</ele><time>2026-04-02T12:55:46.999Z</time></trkpt><trkpt lat="45.39714852506266" lon="10.560437652323715"><ele>102.33333333333333</ele><time>2026-04-02T12:55:47.999Z</time></trkpt><trkpt lat="45.39707094966145" lon="10.56047396882304"><ele>102.66666666666666</ele><time>2026-04-02T12:55:48.999Z</time></trkpt><trkpt lat="45.39700732916428" lon="10.56050901536255"><ele>103.0</ele><time>2026-04-02T12:55:49.999Z</time></trkpt><trkpt lat="45.39692745008897" lon="10.560503005855441"><ele>103.33333333333333</ele><time>2026-04-02T12:55:51.999Z</time></trkpt><trkpt lat="45.3968522928474" lon="10.560470375131807"><ele>103.66666666666666</ele><time>2026-04-02T12:55:55.999Z</time></trkpt><trkpt lat="45.396860085365056" lon="10.560380890616035"><ele>104.0</ele><time>2026-04-02T12:55:56.999Z</time></trkpt><trkpt lat="45.39685916207795" lon="10.560259611782929"><ele>104.0</ele><time>2026-04-02T12:55:57.999Z</time></trkpt><trkpt lat="45.39685543814573" lon="10.560127254148696"><ele>104.0</ele><time>2026-04-02T12:55:58.999Z</time></trkpt><trkpt lat="45.396849127079264" lon="10.559979338743961"><ele>104.0</ele><time>2026-04-02T12:55:59.999Z</time></trkpt><trkpt lat="45.39683649494901" lon="10.559818455543558"><ele>104.0</ele><time>2026-04-02T12:56:00.999Z</time></trkpt><trkpt lat="45.39682628953498" lon="10.55965475891645"><ele>104.0</ele><time>2026-04-02T12:56:01.999Z</time></trkpt><trkpt lat="45.396810234349" lon="10.559469929491085"><ele>103.33333333333333</ele><time>2026-04-02T12:56:02.999Z</time></trkpt><trkpt lat="45.39679534182276" lon="10.559273721610353"><ele>102.66666666666666</ele><time>2026-04-02T12:56:03.999Z</time></trkpt><trkpt lat="45.39678102211293" lon="10.55905320178243"><ele>102.0</ele><time>2026-04-02T12:56:04.999Z</time></trkpt><trkpt lat="45.39676612335722" lon="10.558831749412565"><ele>102.5</ele><time>2026-04-02T12:56:05.999Z</time></trkpt><trkpt lat="45.39675594817532" lon="10.558607200327014"><ele>103.0</ele><time>2026-04-02T12:56:07Z</time></trkpt><trkpt lat="45.39675716439099" lon="10.558398703672232"><ele>103.5</ele><time>2026-04-02T12:56:08Z</time></trkpt><trkpt lat="45.39677526877052" lon="10.558195212690874"><ele>104.0</ele><time>2026-04-02T12:56:09Z</time></trkpt><trkpt lat="45.39681183015701" lon="10.558006019605521"><ele>105.25</ele><time>2026-04-02T12:56:10Z</time></trkpt><trkpt lat="45.3968682993719" lon="10.557831749321226"><ele>106.5</ele><time>2026-04-02T12:56:11Z</time></trkpt><trkpt lat="45.396935471764884" lon="10.557667351944813"><ele>107.75</ele><time>2026-04-02T12:56:12Z</time></trkpt><trkpt lat="45.39701489146563" lon="10.557520265632984"><ele>109.0</ele><time>2026-04-02T12:56:13Z</time></trkpt><trkpt lat="45.39709559630673" lon="10.557407312676553"><ele>109.0</ele><time>2026-04-02T12:56:14Z</time></trkpt><trkpt lat="45.39716228737263" lon="10.557300317743636"><ele>109.0</ele><time>2026-04-02T12:56:15Z</time></trkpt><trkpt lat="45.397214081120104" lon="10.557179800901633"><ele>109.0</ele><time>2026-04-02T12:56:16Z</time></trkpt><trkpt lat="45.397250899288075" lon="10.557042330840728"><ele>109.0</ele><time>2026-04-02T12:56:17Z</time></trkpt><trkpt lat="45.397267128983614" lon="10.55689330721446"><ele>109.0</ele><time>2026-04-02T12:56:18Z</time></trkpt><trkpt lat="45.39728215437758" lon="10.556732573706222"><ele>108.25</ele><time>2026-04-02T12:56:19Z</time></trkpt><trkpt lat="45.39729563193806" lon="10.556559092385651"><ele>107.5</ele><time>2026-04-02T12:56:20Z</time></trkpt><trkpt lat="45.39730540752677" lon="10.556388572761698"><ele>106.75</ele><time>2026-04-02T12:56:21Z</time></trkpt><trkpt lat="45.3973226667348" lon="10.5562266148435"><ele>106.0</ele><time>2026-04-02T12:56:22Z</time></trkpt><trkpt lat="45.39734502669647" lon="10.556061887519215"><ele>105.75</ele><time>2026-04-02T12:56:23Z</time></trkpt><trkpt lat="45.397371668702625" lon="10.55589384506141"><ele>105.5</ele><time>2026-04-02T12:56:24Z</time></trkpt><trkpt lat="45.39741011556828" lon="10.555720420063517"><ele>105.25</ele><time>2026-04-02T12:56:25Z</time></trkpt><trkpt lat="45.39745851516984" lon="10.555544364856333"><ele>105.0</ele><time>2026-04-02T12:56:26Z</time></trkpt><trkpt lat="45.397508738638" lon="10.55536835413444"><ele>106.25</ele><time>2026-04-02T12:56:27Z</time></trkpt><trkpt lat="45.39755620237378" lon="10.555191144064295"><ele>107.5</ele><time>2026-04-02T12:56:28Z</time></trkpt><trkpt lat="45.397595398253664" lon="10.55501200534855"><ele>108.75</ele><time>2026-04-02T12:56:29Z</time></trkpt><trkpt lat="45.39762175702911" lon="10.554832155209684"><ele>110.0</ele><time>2026-04-02T12:56:30Z</time></trkpt><trkpt lat="45.3976230091511" lon="10.554640925570432"><ele>110.75</ele><time>2026-04-02T12:56:31Z</time></trkpt><trkpt lat="45.39760012145058" lon="10.554456449328065"><ele>111.5</ele><time>2026-04-02T12:56:32Z</time></trkpt><trkpt lat="45.39756061269609" lon="10.554283571163682"><ele>112.25</ele><time>2026-04-02T12:56:33Z</time></trkpt><trkpt lat="45.39751305796309" lon="10.554132871465956"><ele>113.0</ele><time>2026-04-02T12:56:34Z</time></trkpt><trkpt lat="45.39746205525842" lon="10.553991256997302"><ele>113.0</ele><time>2026-04-02T12:56:35Z</time></trkpt><trkpt lat="45.39740984832413" lon="10.553853981087093"><ele>113.00000000000001</ele><time>2026-04-02T12:56:35.999Z</time></trkpt><trkpt lat="45.39736242078207" lon="10.553716382167467"><ele>113.00000000000001</ele><time>2026-04-02T12:56:36.999Z</time></trkpt><trkpt lat="45.39731780663733" lon="10.55357441638418"><ele>113.0</ele><time>2026-04-02T12:56:37.999Z</time></trkpt><trkpt lat="45.39727412165913" lon="10.553432112539346"><ele>113.0</ele><time>2026-04-02T12:56:38.999Z</time></trkpt><trkpt lat="45.39723581635978" lon="10.553286008901617"><ele>113.4</ele><time>2026-04-02T12:56:39.999Z</time></trkpt><trkpt lat="45.39720351076749" lon="10.553137008287786"><ele>113.80000000000001</ele><time>2026-04-02T12:56:40.999Z</time></trkpt><trkpt lat="45.39716879644154" lon="10.55299279752795"><ele>114.2</ele><time>2026-04-02T12:56:41.999Z</time></trkpt><trkpt lat="45.39713065358295" lon="10.55285682177061"><ele>114.6</ele><time>2026-04-02T12:56:42.999Z</time></trkpt><trkpt lat="45.39708617389332" lon="10.552727057904553"><ele>115.0</ele><time>2026-04-02T12:56:43.999Z</time></trkpt><trkpt lat="45.397037438699364" lon="10.552593437097983"><ele>116.00000000000001</ele><time>2026-04-02T12:56:44.999Z</time></trkpt><trkpt lat="45.39699128177372" lon="10.552459342290687"><ele>117.0</ele><time>2026-04-02T12:56:45.999Z</time></trkpt><trkpt lat="45.39695272755954" lon="10.552328982052673"><ele>118.0</ele><time>2026-04-02T12:56:46.999Z</time></trkpt><trkpt lat="45.3969283776605" lon="10.55220865716425"><ele>119.0</ele><time>2026-04-02T12:56:47.999Z</time></trkpt><trkpt lat="45.3969202193572" lon="10.552092982940415"><ele>120.00000000000001</ele><time>2026-04-02T12:56:48.999Z</time></trkpt><trkpt lat="45.396922962871685" lon="10.551989915801814"><ele>121.0</ele><time>2026-04-02T12:56:49.999Z</time></trkpt><trkpt lat="45.39692887184771" lon="10.55183615139171"><ele>121.0</ele><time>2026-04-02T12:56:51.999Z</time></trkpt><trkpt lat="45.396920024244366" lon="10.551727964946512"><ele>121.0</ele><time>2026-04-02T12:56:54.999Z</time></trkpt><trkpt lat="45.396790435045915" lon="10.551712606260155"><ele>121.0</ele><time>2026-04-02T12:56:55.999Z</time></trkpt><trkpt lat="45.396709813671194" lon="10.551708827190375"><ele>121.0</ele><time>2026-04-02T12:56:56.999Z</time></trkpt><trkpt lat="45.39660575904071" lon="10.551684907232767"><ele>121.0</ele><time>2026-04-02T12:56:57.999Z</time></trkpt><trkpt lat="45.39649424388781" lon="10.551682540165702"><ele>121.0</ele><time>2026-04-02T12:56:58.999Z</time></trkpt><trkpt lat="45.39637678644967" lon="10.551686809462897"><ele>121.0</ele><time>2026-04-02T12:56:59.999Z</time></trkpt><trkpt lat="45.39625361971837" lon="10.551700449789692"><ele>121.0</ele><time>2026-04-02T12:57:00.999Z</time></trkpt><trkpt lat="45.3961314475519" lon="10.551742226618629"><ele>121.0</ele><time>2026-04-02T12:57:01.999Z</time></trkpt><trkpt lat="45.396008382618284" lon="10.551754088889775"><ele>121.25</ele><time>2026-04-02T12:57:02.999Z</time></trkpt><trkpt lat="45.395881791682584" lon="10.551777737152625"><ele>121.5</ele><time>2026-04-02T12:57:03.999Z</time></trkpt><trkpt lat="45.39576097916572" lon="10.55180837843536"><ele>121.75</ele><time>2026-04-02T12:57:04.999Z</time></trkpt><trkpt lat="45.395637498806856" lon="10.551829256851837"><ele>122.0</ele><time>2026-04-02T12:57:05.999Z</time></trkpt><trkpt lat="45.39552120403376" lon="10.551808583724577"><ele>122.25</ele><time>2026-04-02T12:57:06.999Z</time></trkpt><trkpt lat="45.39541452123563" lon="10.551789111044565"><ele>122.5</ele><time>2026-04-02T12:57:07.999Z</time></trkpt><trkpt lat="45.39530805478722" lon="10.551748860687423"><ele>122.75</ele><time>2026-04-02T12:57:08.999Z</time></trkpt><trkpt lat="45.3951842101219" lon="10.551694746746389"><ele>123.0</ele><time>2026-04-02T12:57:09.999Z</time></trkpt><trkpt lat="45.39505703272548" lon="10.551648951829039"><ele>123.0</ele><time>2026-04-02T12:57:10.999Z</time></trkpt><trkpt lat="45.39492555286137" lon="10.5516050613647"><ele>123.0</ele><time>2026-04-02T12:57:11.999Z</time></trkpt><trkpt lat="45.39478786081956" lon="10.551572777959894"><ele>123.0</ele><time>2026-04-02T12:57:12.999Z</time></trkpt><trkpt lat="45.39464874125042" lon="10.551561150994276"><ele>123.0</ele><time>2026-04-02T12:57:13.999Z</time></trkpt><trkpt lat="45.394510344983324" lon="10.551587075410277"><ele>121.5</ele><time>2026-04-02T12:57:14.999Z</time></trkpt><trkpt lat="45.394369835352485" lon="10.551599819599868"><ele>120.0</ele><time>2026-04-02T12:57:15.999Z</time></trkpt><trkpt lat="45.394229388681936" lon="10.551625537552491"><ele>118.5</ele><time>2026-04-02T12:57:16.999Z</time></trkpt><trkpt lat="45.394089843109455" lon="10.551660441052137"><ele>117.0</ele><time>2026-04-02T12:57:17.999Z</time></trkpt><trkpt lat="45.39395245018539" lon="10.551680428500832"><ele>115.75</ele><time>2026-04-02T12:57:18.999Z</time></trkpt><trkpt lat="45.39383473507304" lon="10.551743395361742"><ele>114.5</ele><time>2026-04-02T12:57:19.999Z</time></trkpt><trkpt lat="45.39371216425229" lon="10.55178833661853"><ele>113.25</ele><time>2026-04-02T12:57:20.999Z</time></trkpt><trkpt lat="45.393594277950285" lon="10.551836136586289"><ele>112.0</ele><time>2026-04-02T12:57:21.999Z</time></trkpt><trkpt lat="45.393487338972214" lon="10.551883409455181"><ele>112.0</ele><time>2026-04-02T12:57:22.999Z</time></trkpt><trkpt lat="45.393383846647225" lon="10.55192500502453"><ele>111.99999999999999</ele><time>2026-04-02T12:57:23.999Z</time></trkpt><trkpt lat="45.39329546325231" lon="10.551933382229878"><ele>111.99999999999999</ele><time>2026-04-02T12:57:24.999Z</time></trkpt><trkpt lat="45.39322932597876" lon="10.551880377709498"><ele>112.0</ele><time>2026-04-02T12:57:25.999Z</time></trkpt><trkpt lat="45.39317183312475" lon="10.551809470244761"><ele>112.0</ele><time>2026-04-02T12:57:26.999Z</time></trkpt><trkpt lat="45.393091247918555" lon="10.551706623068377"><ele>111.5</ele><time>2026-04-02T12:57:27.999Z</time></trkpt><trkpt lat="45.392985928841235" lon="10.551637085791176"><ele>111.0</ele><time>2026-04-02T12:57:28.999Z</time></trkpt><trkpt lat="45.39287918866267" lon="10.551551103674564"><ele>110.5</ele><time>2026-04-02T12:57:29.999Z</time></trkpt><trkpt lat="45.392752997785195" lon="10.551482977236098"><ele>110.0</ele><time>2026-04-02T12:57:30.999Z</time></trkpt><trkpt lat="45.3926212198532" lon="10.551427930266229"><ele>110.0</ele><time>2026-04-02T12:57:31.999Z</time></trkpt><trkpt lat="45.39249883452813" lon="10.55136245543454"><ele>110.0</ele><time>2026-04-02T12:57:32.999Z</time></trkpt><trkpt lat="45.39238490761969" lon="10.551311719167968"><ele>110.0</ele><time>2026-04-02T12:57:33.999Z</time></trkpt><trkpt lat="45.392272649201274" lon="10.551262498316044"><ele>110.0</ele><time>2026-04-02T12:57:34.999Z</time></trkpt><trkpt lat="45.392154482459304" lon="10.55121209587218"><ele>111.5</ele><time>2026-04-02T12:57:35.999Z</time></trkpt><trkpt lat="45.39203495548305" lon="10.551162235674736"><ele>113.0</ele><time>2026-04-02T12:57:36.999Z</time></trkpt><trkpt lat="45.39190845021066" lon="10.55111097015446"><ele>114.5</ele><time>2026-04-02T12:57:37.999Z</time></trkpt><trkpt lat="45.39177844418825" lon="10.551058989761643"><ele>116.0</ele><time>2026-04-02T12:57:38.999Z</time></trkpt><trkpt lat="45.3916597596352" lon="10.551011536040503"><ele>116.0</ele><time>2026-04-02T12:57:39.999Z</time></trkpt><trkpt lat="45.391553354741774" lon="10.550968992103556"><ele>116.0</ele><time>2026-04-02T12:57:40.999Z</time></trkpt><trkpt lat="45.39144081607164" lon="10.550923995694184"><ele>116.0</ele><time>2026-04-02T12:57:41.999Z</time></trkpt><trkpt lat="45.39133515002031" lon="10.550879950982726"><ele>116.0</ele><time>2026-04-02T12:57:42.999Z</time></trkpt><trkpt lat="45.39122624967395" lon="10.55083360280494"><ele>116.6</ele><time>2026-04-02T12:57:43.999Z</time></trkpt><trkpt lat="45.39112439621517" lon="10.550786819630517"><ele>117.19999999999999</ele><time>2026-04-02T12:57:44.999Z</time></trkpt><trkpt lat="45.391015492996246" lon="10.550736203872866"><ele>117.80000000000001</ele><time>2026-04-02T12:57:45.999Z</time></trkpt><trkpt lat="45.39091759973279" lon="10.550687474338933"><ele>118.4</ele><time>2026-04-02T12:57:46.999Z</time></trkpt><trkpt lat="45.39080991121792" lon="10.550648167131651"><ele>119.0</ele><time>2026-04-02T12:57:47.999Z</time></trkpt><trkpt lat="45.390703418204495" lon="10.550614221801343"><ele>119.0</ele><time>2026-04-02T12:57:48.999Z</time></trkpt><trkpt lat="45.39062075828471" lon="10.550589095047668"><ele>119.0</ele><time>2026-04-02T12:57:49.999Z</time></trkpt><trkpt lat="45.39031678086512" lon="10.551320592200383"><ele>118.4</ele><time>2026-04-02T12:57:50.999Z</time></trkpt><trkpt lat="45.39022522262128" lon="10.551354034813896"><ele>117.80000000000001</ele><time>2026-04-02T12:57:51.999Z</time></trkpt><trkpt lat="45.390120476185615" lon="10.551390947746391"><ele>117.19999999999999</ele><time>2026-04-02T12:57:52.999Z</time></trkpt><trkpt lat="45.39001012049547" lon="10.551410218830242"><ele>116.6</ele><time>2026-04-02T12:57:53.999Z</time></trkpt><trkpt lat="45.38990690407137" lon="10.551412825594621"><ele>116.0</ele><time>2026-04-02T12:57:54.999Z</time></trkpt><trkpt lat="45.38981421747966" lon="10.551411747911366"><ele>115.99999999999999</ele><time>2026-04-02T12:57:55.999Z</time></trkpt><trkpt lat="45.38972387079224" lon="10.551453692701811"><ele>116.0</ele><time>2026-04-02T12:57:57.999Z</time></trkpt><trkpt lat="45.38969476654891" lon="10.551537296838388"><ele>116.0</ele><time>2026-04-02T12:57:59.999Z</time></trkpt><trkpt lat="45.38968755791852" lon="10.551662096441595"><ele>116.0</ele><time>2026-04-02T12:58:01.999Z</time></trkpt><trkpt lat="45.389679985112465" lon="10.551763717846411"><ele>115.99999999999999</ele><time>2026-04-02T12:58:02.999Z</time></trkpt><trkpt lat="45.38964645082632" lon="10.551884591963486"><ele>116.0</ele><time>2026-04-02T12:58:04.999Z</time></trkpt><trkpt lat="45.38964020480023" lon="10.552011427522844"><ele>116.16666666666666</ele><time>2026-04-02T12:58:06.999Z</time></trkpt><trkpt lat="45.38966337859529" lon="10.552099726719334"><ele>116.33333333333333</ele><time>2026-04-02T12:58:07.999Z</time></trkpt><trkpt lat="45.38968444395445" lon="10.55219743516199"><ele>116.5</ele><time>2026-04-02T12:58:08.999Z</time></trkpt><trkpt lat="45.3896996286606" lon="10.552312324080875"><ele>116.66666666666666</ele><time>2026-04-02T12:58:09.999Z</time></trkpt><trkpt lat="45.38971364466691" lon="10.552450002691572"><ele>116.83333333333333</ele><time>2026-04-02T12:58:10.999Z</time></trkpt><trkpt lat="45.389733159616114" lon="10.552598146579712"><ele>117.0</ele><time>2026-04-02T12:58:12Z</time></trkpt><trkpt lat="45.389754384196316" lon="10.552759733524018"><ele>115.75</ele><time>2026-04-02T12:58:13Z</time></trkpt><trkpt lat="45.38977766879365" lon="10.552934669263909"><ele>114.5</ele><time>2026-04-02T12:58:14Z</time></trkpt><trkpt lat="45.389803624388826" lon="10.553116840047554"><ele>113.25</ele><time>2026-04-02T12:58:15Z</time></trkpt><trkpt lat="45.389827266236765" lon="10.553303489827337"><ele>112.0</ele><time>2026-04-02T12:58:16Z</time></trkpt><trkpt lat="45.38985128477996" lon="10.553490947988637"><ele>112.0</ele><time>2026-04-02T12:58:17Z</time></trkpt><trkpt lat="45.3898745348092" lon="10.553671743503031"><ele>112.0</ele><time>2026-04-02T12:58:18Z</time></trkpt><trkpt lat="45.38989717171914" lon="10.553857080652797"><ele>112.0</ele><time>2026-04-02T12:58:19Z</time></trkpt><trkpt lat="45.389915345892106" lon="10.554038874078298"><ele>112.0</ele><time>2026-04-02T12:58:20Z</time></trkpt><trkpt lat="45.389929664389754" lon="10.554195086541137"><ele>111.66666666666667</ele><time>2026-04-02T12:58:21Z</time></trkpt><trkpt lat="45.389954047991914" lon="10.554321850827128"><ele>111.33333333333334</ele><time>2026-04-02T12:58:22Z</time></trkpt><trkpt lat="45.39001387018185" lon="10.554431207763413"><ele>111.0</ele><time>2026-04-02T12:58:24Z</time></trkpt><trkpt lat="45.3900929166254" lon="10.554428083639941"><ele>110.66666666666666</ele><time>2026-04-02T12:58:26Z</time></trkpt><trkpt lat="45.3901486883401" lon="10.554385631971968"><ele>110.33333333333333</ele><time>2026-04-02T12:58:27Z</time></trkpt><trkpt lat="45.39023108421409" lon="10.554322422370314"><ele>110.0</ele><time>2026-04-02T12:58:28Z</time></trkpt><trkpt lat="45.39034254926301" lon="10.554252546431082"><ele>110.0</ele><time>2026-04-02T12:58:29Z</time></trkpt><trkpt lat="45.39046103127048" lon="10.554187289920774"><ele>110.0</ele><time>2026-04-02T12:58:30Z</time></trkpt><trkpt lat="45.39057370942194" lon="10.554120132971079"><ele>110.0</ele><time>2026-04-02T12:58:31Z</time></trkpt><trkpt lat="45.390677267435485" lon="10.554056816369345"><ele>110.0</ele><time>2026-04-02T12:58:32Z</time></trkpt><trkpt lat="45.39077023095077" lon="10.55400185794787"><ele>109.33333333333333</ele><time>2026-04-02T12:58:33Z</time></trkpt><trkpt lat="45.390851262469056" lon="10.553955239362905"><ele>108.66666666666666</ele><time>2026-04-02T12:58:34Z</time></trkpt><trkpt lat="45.39092033042638" lon="10.553956840393589"><ele>108.0</ele><time>2026-04-02T12:58:36Z</time></trkpt><trkpt lat="45.390970383576146" lon="10.55408059114171"><ele>107.33333333333334</ele><time>2026-04-02T12:58:39Z</time></trkpt><trkpt lat="45.39101068709318" lon="10.554156112482705"><ele>106.66666666666667</ele><time>2026-04-02T12:58:40Z</time></trkpt><trkpt lat="45.39105106920581" lon="10.5542536025698"><ele>106.0</ele><time>2026-04-02T12:58:41Z</time></trkpt><trkpt lat="45.391086869684706" lon="10.554366291536015"><ele>106.0</ele><time>2026-04-02T12:58:42Z</time></trkpt><trkpt lat="45.391120018807776" lon="10.554469722281375"><ele>106.0</ele><time>2026-04-02T12:58:43Z</time></trkpt><trkpt lat="45.39116128855434" lon="10.554560886826605"><ele>106.0</ele><time>2026-04-02T12:58:44Z</time></trkpt><trkpt lat="45.391198786028966" lon="10.554643394288696"><ele>106.0</ele><time>2026-04-02T12:58:45Z</time></trkpt><trkpt lat="45.39122409053077" lon="10.554731692038317"><ele>106.0</ele><time>2026-04-02T12:58:46Z</time></trkpt><trkpt lat="45.391252767068046" lon="10.554821100093065"><ele>106.0</ele><time>2026-04-02T12:58:47Z</time></trkpt><trkpt lat="45.391285652640015" lon="10.554915989267128"><ele>106.0</ele><time>2026-04-02T12:58:48Z</time></trkpt><trkpt lat="45.391310492247264" lon="10.55500017046738"><ele>106.4</ele><time>2026-04-02T12:58:49Z</time></trkpt><trkpt lat="45.39128708901688" lon="10.55513191003824"><ele>106.8</ele><time>2026-04-02T12:58:50.999Z</time></trkpt><trkpt lat="45.39126309584907" lon="10.555251422687517"><ele>107.20000000000002</ele><time>2026-04-02T12:58:53.999Z</time></trkpt><trkpt lat="45.39132547575837" lon="10.555362062566918"><ele>107.60000000000001</ele><time>2026-04-02T12:58:55.999Z</time></trkpt><trkpt lat="45.391394469388835" lon="10.555460501067785"><ele>108.0</ele><time>2026-04-02T12:58:57.999Z</time></trkpt><trkpt lat="45.391423739189655" lon="10.55558447878921"><ele>108.66666666666667</ele><time>2026-04-02T12:58:59.999Z</time></trkpt><trkpt lat="45.39145343171968" lon="10.555707676432544"><ele>109.33333333333334</ele><time>2026-04-02T12:59:01.999Z</time></trkpt><trkpt lat="45.39141945217493" lon="10.555811578607965"><ele>110.0</ele><time>2026-04-02T12:59:12.999Z</time></trkpt><trkpt lat="45.391385384775695" lon="10.555939532521617"><ele>110.66666666666667</ele><time>2026-04-02T12:59:15.999Z</time></trkpt><trkpt lat="45.39132203228247" lon="10.556066155884176"><ele>111.33333333333334</ele><time>2026-04-02T12:59:20.999Z</time></trkpt><trkpt lat="45.39127578258352" lon="10.556141866150577"><ele>112.0</ele><time>2026-04-02T12:59:21.999Z</time></trkpt><trkpt lat="45.39122728514784" lon="10.556232467865845"><ele>112.83333333333334</ele><time>2026-04-02T12:59:22.999Z</time></trkpt><trkpt lat="45.39118258133768" lon="10.556305226039505"><ele>113.66666666666667</ele><time>2026-04-02T12:59:23.999Z</time></trkpt><trkpt lat="45.39114170317721" lon="10.556377055959564"><ele>114.5</ele><time>2026-04-02T12:59:24.999Z</time></trkpt><trkpt lat="45.391096808281674" lon="10.556445356441454"><ele>115.33333333333334</ele><time>2026-04-02T12:59:25.999Z</time></trkpt><trkpt lat="45.39104293472831" lon="10.556531814169587"><ele>116.16666666666667</ele><time>2026-04-02T12:59:26.999Z</time></trkpt><trkpt lat="45.39098401858582" lon="10.556629175956376"><ele>117.0</ele><time>2026-04-02T12:59:27.999Z</time></trkpt><trkpt lat="45.390921908950894" lon="10.556723952734988"><ele>117.0</ele><time>2026-04-02T12:59:28.999Z</time></trkpt><trkpt lat="45.39086652872682" lon="10.556795066640637"><ele>117.0</ele><time>2026-04-02T12:59:29.999Z</time></trkpt><trkpt lat="45.39080356489704" lon="10.556852206105521"><ele>117.0</ele><time>2026-04-02T12:59:30.999Z</time></trkpt><trkpt lat="45.39073189893854" lon="10.556915978725904"><ele>117.0</ele><time>2026-04-02T12:59:31.999Z</time></trkpt><trkpt lat="45.39066471921373" lon="10.5569666966514"><ele>117.0</ele><time>2026-04-02T12:59:32.999Z</time></trkpt><trkpt lat="45.390598365449485" lon="10.557015888790273"><ele>117.0</ele><time>2026-04-02T12:59:34.999Z</time></trkpt><trkpt lat="45.390699366944894" lon="10.557062356002653"><ele>118.16666666666667</ele><time>2026-04-02T12:59:41.999Z</time></trkpt><trkpt lat="45.39076919993222" lon="10.557055471188448"><ele>119.33333333333334</ele><time>2026-04-02T12:59:42.999Z</time></trkpt><trkpt lat="45.39083917918715" lon="10.557053112049372"><ele>120.5</ele><time>2026-04-02T12:59:43.999Z</time></trkpt><trkpt lat="45.39092120518689" lon="10.557058936948115"><ele>121.66666666666667</ele><time>2026-04-02T12:59:44.999Z</time></trkpt><trkpt lat="45.39101812583098" lon="10.5570622257029"><ele>122.83333333333334</ele><time>2026-04-02T12:59:45.999Z</time></trkpt><trkpt lat="45.39109179844595" lon="10.557060850319223"><ele>124.0</ele><time>2026-04-02T12:59:46.999Z</time></trkpt><trkpt lat="45.391159403717595" lon="10.557082863297097"><ele>124.0</ele><time>2026-04-02T12:59:48.999Z</time></trkpt><trkpt lat="45.39118055488548" lon="10.557212778688061"><ele>124.0</ele><time>2026-04-02T12:59:50.999Z</time></trkpt><trkpt lat="45.39116849251898" lon="10.557316897417039"><ele>124.0</ele><time>2026-04-02T12:59:51.999Z</time></trkpt><trkpt lat="45.3911637805774" lon="10.557408201716195"><ele>124.0</ele><time>2026-04-02T12:59:52.999Z</time></trkpt><trkpt lat="45.39113312471674" lon="10.557540401934883"><ele>124.0</ele><time>2026-04-02T12:59:54.999Z</time></trkpt><trkpt lat="45.39100315326" lon="10.55757769367682"><ele>124.0</ele><time>2026-04-02T12:59:56.999Z</time></trkpt><trkpt lat="45.390915508854974" lon="10.557570355119413"><ele>124.0</ele><time>2026-04-02T12:59:57.999Z</time></trkpt><trkpt lat="45.39081876854159" lon="10.55755046159159"><ele>124.0</ele><time>2026-04-02T12:59:58.999Z</time></trkpt><trkpt lat="45.390723396002656" lon="10.557503115158665"><ele>124.0</ele><time>2026-04-02T12:59:59.999Z</time></trkpt><trkpt lat="45.39063380864906" lon="10.55750130300541"><ele>124.0</ele><time>2026-04-02T13:00:00.999Z</time></trkpt><trkpt lat="45.39054322993994" lon="10.55753941949551"><ele>123.50000000000001</ele><time>2026-04-02T13:00:01.999Z</time></trkpt><trkpt lat="45.39044836410436" lon="10.557585254325645"><ele>123.0</ele><time>2026-04-02T13:00:02.999Z</time></trkpt><trkpt lat="45.39035658271684" lon="10.557608093797922"><ele>122.5</ele><time>2026-04-02T13:00:03.999Z</time></trkpt><trkpt lat="45.39027879309039" lon="10.557638029937236"><ele>122.0</ele><time>2026-04-02T13:00:04.999Z</time></trkpt><trkpt lat="45.39021970921202" lon="10.557680607852747"><ele>121.50000000000001</ele><time>2026-04-02T13:00:05.999Z</time></trkpt><trkpt lat="45.39016945468995" lon="10.557772536610463"><ele>121.0</ele><time>2026-04-02T13:00:06.999Z</time></trkpt><trkpt lat="45.39012783484567" lon="10.557861986522513"><ele>121.50000000000001</ele><time>2026-04-02T13:00:07.999Z</time></trkpt><trkpt lat="45.39006852497182" lon="10.557904730893613"><ele>122.0</ele><time>2026-04-02T13:00:08.999Z</time></trkpt><trkpt lat="45.38998469460466" lon="10.557920187199533"><ele>122.5</ele><time>2026-04-02T13:00:09.999Z</time></trkpt><trkpt lat="45.38989342784085" lon="10.557940505736136"><ele>123.0</ele><time>2026-04-02T13:00:10.999Z</time></trkpt><trkpt lat="45.38979326690845" lon="10.557965821026684"><ele>123.50000000000001</ele><time>2026-04-02T13:00:11.999Z</time></trkpt><trkpt lat="45.38971432324082" lon="10.557997577439279"><ele>124.0</ele><time>2026-04-02T13:00:12.999Z</time></trkpt><trkpt lat="45.389645880947896" lon="10.55802429665716"><ele>122.6</ele><time>2026-04-02T13:00:13.999Z</time></trkpt><trkpt lat="45.389565859053086" lon="10.558109234759174"><ele>121.2</ele><time>2026-04-02T13:00:15.999Z</time></trkpt><trkpt lat="45.3895638359149" lon="10.558279034044823"><ele>119.79999999999998</ele><time>2026-04-02T13:00:18Z</time></trkpt><trkpt lat="45.389556176089094" lon="10.558406396228769"><ele>118.39999999999999</ele><time>2026-04-02T13:00:19Z</time></trkpt><trkpt lat="45.38951992423859" lon="10.55852224063233"><ele>117.0</ele><time>2026-04-02T13:00:20Z</time></trkpt><trkpt lat="45.389450584088095" lon="10.558617935481214"><ele>118.0</ele><time>2026-04-02T13:00:21Z</time></trkpt><trkpt lat="45.389351716373795" lon="10.558724898667903"><ele>119.0</ele><time>2026-04-02T13:00:22Z</time></trkpt><trkpt lat="45.389248611688934" lon="10.558867491160834"><ele>120.0</ele><time>2026-04-02T13:00:23Z</time></trkpt><trkpt lat="45.38917349314321" lon="10.559000199090375"><ele>121.0</ele><time>2026-04-02T13:00:24Z</time></trkpt><trkpt lat="45.38910745185358" lon="10.559126225541656"><ele>121.0</ele><time>2026-04-02T13:00:25Z</time></trkpt><trkpt lat="45.38904647023651" lon="10.559268550108264"><ele>121.0</ele><time>2026-04-02T13:00:26Z</time></trkpt><trkpt lat="45.38898187615555" lon="10.559406292878252"><ele>121.0</ele><time>2026-04-02T13:00:27Z</time></trkpt><trkpt lat="45.38894512537135" lon="10.559539147619834"><ele>121.0</ele><time>2026-04-02T13:00:28Z</time></trkpt><trkpt lat="45.38890416747463" lon="10.559674004039648"><ele>121.0</ele><time>2026-04-02T13:00:29Z</time></trkpt><trkpt lat="45.388866800797494" lon="10.55978819350562"><ele>120.50000000000001</ele><time>2026-04-02T13:00:30Z</time></trkpt><trkpt lat="45.388838120746875" lon="10.559869477910436"><ele>120.0</ele><time>2026-04-02T13:00:31Z</time></trkpt><trkpt lat="45.38885031490203" lon="10.559983865177964"><ele>119.5</ele><time>2026-04-02T13:00:33Z</time></trkpt><trkpt lat="45.38892901711069" lon="10.560058962264032"><ele>119.0</ele><time>2026-04-02T13:00:35Z</time></trkpt><trkpt lat="45.38897015990358" lon="10.560140768639105"><ele>118.50000000000001</ele><time>2026-04-02T13:00:37Z</time></trkpt><trkpt lat="45.388943114030745" lon="10.560278357607613"><ele>118.0</ele><time>2026-04-02T13:00:40Z</time></trkpt><trkpt lat="45.388904447920574" lon="10.56037461235406"><ele>119.00000000000001</ele><time>2026-04-02T13:00:41Z</time></trkpt><trkpt lat="45.388873097435805" lon="10.560458510625716"><ele>120.0</ele><time>2026-04-02T13:00:42Z</time></trkpt><trkpt lat="45.388889503003725" lon="10.560581098188752"><ele>121.0</ele><time>2026-04-02T13:00:44Z</time></trkpt><trkpt lat="45.388987353071464" lon="10.560656007389616"><ele>122.0</ele><time>2026-04-02T13:00:46Z</time></trkpt><trkpt lat="45.38907353076561" lon="10.560685056950755"><ele>123.00000000000001</ele><time>2026-04-02T13:00:47Z</time></trkpt><trkpt lat="45.38914641671471" lon="10.560706621882137"><ele>124.0</ele><time>2026-04-02T13:00:48Z</time></trkpt><trkpt lat="45.389236687250424" lon="10.56075333576417"><ele>124.00000000000001</ele><time>2026-04-02T13:00:50Z</time></trkpt><trkpt lat="45.389314820278486" lon="10.5607911181167"><ele>124.0</ele><time>2026-04-02T13:00:52Z</time></trkpt><trkpt lat="45.38939748187913" lon="10.560816089553851"><ele>124.0</ele><time>2026-04-02T13:00:54Z</time></trkpt><trkpt lat="45.38947731896926" lon="10.560854483325818"><ele>124.0</ele><time>2026-04-02T13:00:56Z</time></trkpt><trkpt lat="45.389555455329486" lon="10.560891280956694"><ele>124.00000000000001</ele><time>2026-04-02T13:00:58Z</time></trkpt><trkpt lat="45.38963501095241" lon="10.56090276270458"><ele>124.0</ele><time>2026-04-02T13:01:05Z</time></trkpt><trkpt lat="45.389695578683195" lon="10.560930027035427"><ele>124.0</ele><time>2026-04-02T13:01:07Z</time></trkpt><trkpt lat="45.389741522140845" lon="10.561019500561553"><ele>124.00000000000001</ele><time>2026-04-02T13:01:09Z</time></trkpt><trkpt lat="45.389821957595395" lon="10.561028750000975"><ele>124.0</ele><time>2026-04-02T13:01:11Z</time></trkpt><trkpt lat="45.389853491631264" lon="10.561112391868761"><ele>124.0</ele><time>2026-04-02T13:01:16Z</time></trkpt><trkpt lat="45.38978657128729" lon="10.561099908520223"><ele>124.00000000000001</ele><time>2026-04-02T13:01:18Z</time></trkpt><trkpt lat="45.38971530509078" lon="10.56102072107262"><ele>124.0</ele><time>2026-04-02T13:01:20Z</time></trkpt><trkpt lat="45.389652166046545" lon="10.561005250223124"><ele>124.0</ele><time>2026-04-02T13:01:22.999Z</time></trkpt><trkpt lat="45.38954641474758" lon="10.560963145133126"><ele>124.0</ele><time>2026-04-02T13:02:15.999Z</time></trkpt><trkpt lat="45.38946875990351" lon="10.56093859821475"><ele>124.0</ele><time>2026-04-02T13:02:16.999Z</time></trkpt><trkpt lat="45.38937360926154" lon="10.560910841175087"><ele>124.0</ele><time>2026-04-02T13:02:17.999Z</time></trkpt><trkpt lat="45.38926797183326" lon="10.560877886050775"><ele>124.0</ele><time>2026-04-02T13:02:18.999Z</time></trkpt><trkpt lat="45.38915408975393" lon="10.560838783812146"><ele>124.0</ele><time>2026-04-02T13:02:19.999Z</time></trkpt><trkpt lat="45.38903117535157" lon="10.560796424783737"><ele>124.0</ele><time>2026-04-02T13:02:20.999Z</time></trkpt><trkpt lat="45.38890328018413" lon="10.56075766860123"><ele>124.0</ele><time>2026-04-02T13:02:21.999Z</time></trkpt><trkpt lat="45.38877050715718" lon="10.56071805758587"><ele>124.0</ele><time>2026-04-02T13:02:23Z</time></trkpt><trkpt lat="45.38864060059043" lon="10.560689319683418"><ele>124.0</ele><time>2026-04-02T13:02:24Z</time></trkpt><trkpt lat="45.38852295123278" lon="10.56067964237813"><ele>122.75</ele><time>2026-04-02T13:02:25Z</time></trkpt><trkpt lat="45.38841166937421" lon="10.56069960212034"><ele>121.5</ele><time>2026-04-02T13:02:26Z</time></trkpt><trkpt lat="45.38829525923259" lon="10.560781352966117"><ele>120.25</ele><time>2026-04-02T13:02:27Z</time></trkpt><trkpt lat="45.38818417210609" lon="10.560886480178938"><ele>119.0</ele><time>2026-04-02T13:02:28Z</time></trkpt><trkpt lat="45.388073403271875" lon="10.561010109591146"><ele>116.75</ele><time>2026-04-02T13:02:29Z</time></trkpt><trkpt lat="45.38795973682486" lon="10.561128389812767"><ele>114.5</ele><time>2026-04-02T13:02:30Z</time></trkpt><trkpt lat="45.387841434167704" lon="10.561242204628217"><ele>112.25</ele><time>2026-04-02T13:02:31Z</time></trkpt><trkpt lat="45.38771254147049" lon="10.561344111136833"><ele>110.0</ele><time>2026-04-02T13:02:32Z</time></trkpt><trkpt lat="45.38757539109605" lon="10.561424473119438"><ele>110.0</ele><time>2026-04-02T13:02:33Z</time></trkpt><trkpt lat="45.38742057772348" lon="10.561448769004961"><ele>110.0</ele><time>2026-04-02T13:02:34Z</time></trkpt><trkpt lat="45.38726788415214" lon="10.561451597952752"><ele>110.0</ele><time>2026-04-02T13:02:35Z</time></trkpt><trkpt lat="45.38711349868345" lon="10.561420470187722"><ele>108.66666666666666</ele><time>2026-04-02T13:02:36Z</time></trkpt><trkpt lat="45.38696073316675" lon="10.561369501468162"><ele>107.33333333333334</ele><time>2026-04-02T13:02:37Z</time></trkpt><trkpt lat="45.38680319639832" lon="10.561324102453087"><ele>106.0</ele><time>2026-04-02T13:02:38Z</time></trkpt><trkpt lat="45.386646133601154" lon="10.561272728416041"><ele>106.0</ele><time>2026-04-02T13:02:39Z</time></trkpt><trkpt lat="45.38648690418961" lon="10.561217362187996"><ele>106.0</ele><time>2026-04-02T13:02:40Z</time></trkpt><trkpt lat="45.38632340477365" lon="10.561163970096091"><ele>106.0</ele><time>2026-04-02T13:02:41Z</time></trkpt><trkpt lat="45.38616133162966" lon="10.561110217690448"><ele>105.33333333333334</ele><time>2026-04-02T13:02:42Z</time></trkpt><trkpt lat="45.386000711792995" lon="10.56105746893027"><ele>104.66666666666666</ele><time>2026-04-02T13:02:43Z</time></trkpt><trkpt lat="45.38583950336682" lon="10.561007254031225"><ele>104.0</ele><time>2026-04-02T13:02:44Z</time></trkpt><trkpt lat="45.38568072690243" lon="10.56095547850486"><ele>104.0</ele><time>2026-04-02T13:02:45Z</time></trkpt><trkpt lat="45.385523595791135" lon="10.560902150740596"><ele>104.0</ele><time>2026-04-02T13:02:46Z</time></trkpt><trkpt lat="45.38536815634259" lon="10.560849043214962"><ele>104.0</ele><time>2026-04-02T13:02:47Z</time></trkpt><trkpt lat="45.38521111438444" lon="10.560794485233611"><ele>104.66666666666666</ele><time>2026-04-02T13:02:48Z</time></trkpt><trkpt lat="45.385056080676776" lon="10.560743485992054"><ele>105.33333333333334</ele><time>2026-04-02T13:02:49Z</time></trkpt><trkpt lat="45.384899392592864" lon="10.560696151406871"><ele>106.0</ele><time>2026-04-02T13:02:50Z</time></trkpt><trkpt lat="45.384741186486885" lon="10.560648281258302"><ele>106.66666666666667</ele><time>2026-04-02T13:02:51Z</time></trkpt><trkpt lat="45.38458295165621" lon="10.560595945768181"><ele>107.33333333333334</ele><time>2026-04-02T13:02:52Z</time></trkpt><trkpt lat="45.38442202357215" lon="10.56054173452411"><ele>108.0</ele><time>2026-04-02T13:02:53Z</time></trkpt><trkpt lat="45.38425980207736" lon="10.560487203005104"><ele>108.0</ele><time>2026-04-02T13:02:54Z</time></trkpt><trkpt lat="45.38409404755053" lon="10.560431920405472"><ele>108.0</ele><time>2026-04-02T13:02:55Z</time></trkpt><trkpt lat="45.38392798283098" lon="10.560375676561506"><ele>108.0</ele><time>2026-04-02T13:02:56Z</time></trkpt><trkpt lat="45.38376025436669" lon="10.560320268709475"><ele>110.0</ele><time>2026-04-02T13:02:57Z</time></trkpt><trkpt lat="45.38358932258139" lon="10.560274289598935"><ele>112.0</ele><time>2026-04-02T13:02:58Z</time></trkpt><trkpt lat="45.38342798221998" lon="10.56024741662664"><ele>114.0</ele><time>2026-04-02T13:02:59Z</time></trkpt><trkpt lat="45.38327961841516" lon="10.56024965913655"><ele>114.0</ele><time>2026-04-02T13:03:00Z</time></trkpt><trkpt lat="45.383138700659394" lon="10.560299733937146"><ele>114.0</ele><time>2026-04-02T13:03:01Z</time></trkpt><trkpt lat="45.383009036862184" lon="10.560410803528374"><ele>114.0</ele><time>2026-04-02T13:03:02Z</time></trkpt><trkpt lat="45.38287808661129" lon="10.560520984577288"><ele>114.0</ele><time>2026-04-02T13:03:03Z</time></trkpt><trkpt lat="45.382765986057684" lon="10.5606448025827"><ele>113.5</ele><time>2026-04-02T13:03:04Z</time></trkpt><trkpt lat="45.38265665654236" lon="10.560775498234769"><ele>113.0</ele><time>2026-04-02T13:03:05Z</time></trkpt><trkpt lat="45.382546385419275" lon="10.560908715255838"><ele>112.5</ele><time>2026-04-02T13:03:06Z</time></trkpt><trkpt lat="45.382432765442026" lon="10.561037495678253"><ele>112.0</ele><time>2026-04-02T13:03:07Z</time></trkpt><trkpt lat="45.38231391166816" lon="10.56114931777969"><ele>112.0</ele><time>2026-04-02T13:03:08Z</time></trkpt><trkpt lat="45.382191535199375" lon="10.561234152855757"><ele>112.0</ele><time>2026-04-02T13:03:09Z</time></trkpt><trkpt lat="45.382068640228965" lon="10.561237396940676"><ele>112.0</ele><time>2026-04-02T13:03:10Z</time></trkpt><trkpt lat="45.381947267573544" lon="10.561193820868201"><ele>112.0</ele><time>2026-04-02T13:03:11Z</time></trkpt><trkpt lat="45.38182167618378" lon="10.561146207232461"><ele>112.5</ele><time>2026-04-02T13:03:12Z</time></trkpt><trkpt lat="45.38167947236182" lon="10.56110803009139"><ele>113.0</ele><time>2026-04-02T13:03:13Z</time></trkpt><trkpt lat="45.38153760690041" lon="10.56106603436623"><ele>113.5</ele><time>2026-04-02T13:03:14Z</time></trkpt><trkpt lat="45.38139847657302" lon="10.561022066507233"><ele>114.0</ele><time>2026-04-02T13:03:15Z</time></trkpt><trkpt lat="45.38125592631168" lon="10.56097815812138"><ele>115.0</ele><time>2026-04-02T13:03:16Z</time></trkpt><trkpt lat="45.38111653141753" lon="10.560935991602877"><ele>116.0</ele><time>2026-04-02T13:03:17Z</time></trkpt><trkpt lat="45.38097633161825" lon="10.560892876003543"><ele>117.0</ele><time>2026-04-02T13:03:18Z</time></trkpt><trkpt lat="45.380842590216474" lon="10.56084871084443"><ele>118.0</ele><time>2026-04-02T13:03:19Z</time></trkpt><trkpt lat="45.38071152830582" lon="10.560803281379217"><ele>118.0</ele><time>2026-04-02T13:03:20Z</time></trkpt><trkpt lat="45.38058278040727" lon="10.560757071764773"><ele>118.00000000000001</ele><time>2026-04-02T13:03:21Z</time></trkpt><trkpt lat="45.3804622310803" lon="10.56071394565217"><ele>118.00000000000001</ele><time>2026-04-02T13:03:22Z</time></trkpt><trkpt lat="45.38036354663475" lon="10.560681009712857"><ele>118.0</ele><time>2026-04-02T13:03:23Z</time></trkpt><trkpt lat="45.380275903483835" lon="10.56064848105356"><ele>118.0</ele><time>2026-04-02T13:03:24Z</time></trkpt><trkpt lat="45.38018152498996" lon="10.560610064432245"><ele>118.50000000000001</ele><time>2026-04-02T13:03:25Z</time></trkpt><trkpt lat="45.380082941703044" lon="10.56055573776554"><ele>119.0</ele><time>2026-04-02T13:03:26Z</time></trkpt><trkpt lat="45.380006289103335" lon="10.560485754109859"><ele>119.5</ele><time>2026-04-02T13:03:27Z</time></trkpt><trkpt lat="45.3799371907429" lon="10.560388139372964"><ele>120.0</ele><time>2026-04-02T13:03:29Z</time></trkpt><trkpt lat="45.3798977401015" lon="10.560315441005763"><ele>120.50000000000001</ele><time>2026-04-02T13:03:30Z</time></trkpt><trkpt lat="45.37984944080391" lon="10.560206307460458"><ele>121.0</ele><time>2026-04-02T13:03:31Z</time></trkpt><trkpt lat="45.37979636956025" lon="10.560089049543018"><ele>121.0</ele><time>2026-04-02T13:03:32Z</time></trkpt><trkpt lat="45.379740980540916" lon="10.559969135935829"><ele>121.0</ele><time>2026-04-02T13:03:33Z</time></trkpt><trkpt lat="45.379688202733135" lon="10.55985057994763"><ele>121.0</ele><time>2026-04-02T13:03:34Z</time></trkpt><trkpt lat="45.37963382965337" lon="10.559720568925"><ele>121.0</ele><time>2026-04-02T13:03:35Z</time></trkpt><trkpt lat="45.37958185770054" lon="10.559581735568921"><ele>121.0</ele><time>2026-04-02T13:03:36Z</time></trkpt><trkpt lat="45.379525491123815" lon="10.559436648035742"><ele>123.0</ele><time>2026-04-02T13:03:37Z</time></trkpt><trkpt lat="45.37946714768115" lon="10.559297101025422"><ele>125.0</ele><time>2026-04-02T13:03:38Z</time></trkpt><trkpt lat="45.37939725883868" lon="10.559168721120543"><ele>127.0</ele><time>2026-04-02T13:03:39Z</time></trkpt><trkpt lat="45.379310236641864" lon="10.559061640080358"><ele>129.0</ele><time>2026-04-02T13:03:40Z</time></trkpt><trkpt lat="45.379220028165086" lon="10.55896777004092"><ele>129.0</ele><time>2026-04-02T13:03:41Z</time></trkpt><trkpt lat="45.3791267150943" lon="10.558883853024039"><ele>129.0</ele><time>2026-04-02T13:03:42Z</time></trkpt><trkpt lat="45.37903555322997" lon="10.558805152195292"><ele>129.0</ele><time>2026-04-02T13:03:43Z</time></trkpt><trkpt lat="45.37894429281231" lon="10.558730134119813"><ele>129.0</ele><time>2026-04-02T13:03:44Z</time></trkpt><trkpt lat="45.3788545323665" lon="10.55865561938327"><ele>129.0</ele><time>2026-04-02T13:03:45Z</time></trkpt><trkpt lat="45.37876890122868" lon="10.558588872459987"><ele>129.33333333333334</ele><time>2026-04-02T13:03:46Z</time></trkpt><trkpt lat="45.37869819602955" lon="10.558533215483738"><ele>129.66666666666666</ele><time>2026-04-02T13:03:47Z</time></trkpt><trkpt lat="45.37863687375559" lon="10.558499708996418"><ele>130.0</ele><time>2026-04-02T13:03:48Z</time></trkpt><trkpt lat="45.378559228012485" lon="10.558475500371351"><ele>130.33333333333331</ele><time>2026-04-02T13:03:50Z</time></trkpt><trkpt lat="45.378590653730924" lon="10.558280662195664"><ele>130.66666666666666</ele><time>2026-04-02T13:03:52Z</time></trkpt><trkpt lat="45.37864155112329" lon="10.558189210895458"><ele>131.0</ele><time>2026-04-02T13:03:53Z</time></trkpt><trkpt lat="45.378689483998535" lon="10.558079989431377"><ele>131.0</ele><time>2026-04-02T13:03:54Z</time></trkpt><trkpt lat="45.378737057624406" lon="10.557955360295487"><ele>131.0</ele><time>2026-04-02T13:03:54.999Z</time></trkpt><trkpt lat="45.37878746655816" lon="10.557821746885367"><ele>131.0</ele><time>2026-04-02T13:03:55.999Z</time></trkpt><trkpt lat="45.37883917504812" lon="10.557682508674448"><ele>131.0</ele><time>2026-04-02T13:03:56.999Z</time></trkpt><trkpt lat="45.378897212536664" lon="10.557542530922928"><ele>131.0</ele><time>2026-04-02T13:03:57.999Z</time></trkpt><trkpt lat="45.378959162825055" lon="10.557399585633357"><ele>130.5</ele><time>2026-04-02T13:03:58.999Z</time></trkpt><trkpt lat="45.37902574797957" lon="10.557252210786794"><ele>130.0</ele><time>2026-04-02T13:03:59.999Z</time></trkpt><trkpt lat="45.379096010635514" lon="10.557103005004167"><ele>129.5</ele><time>2026-04-02T13:04:00.999Z</time></trkpt><trkpt lat="45.37917540757139" lon="10.556953253852383"><ele>129.0</ele><time>2026-04-02T13:04:01.999Z</time></trkpt><trkpt lat="45.379266832012696" lon="10.556806764676656"><ele>128.75</ele><time>2026-04-02T13:04:02.999Z</time></trkpt><trkpt lat="45.3793699544084" lon="10.556674313995828"><ele>128.5</ele><time>2026-04-02T13:04:03.999Z</time></trkpt><trkpt lat="45.37948288351126" lon="10.556557124099674"><ele>128.25</ele><time>2026-04-02T13:04:04.999Z</time></trkpt><trkpt lat="45.37959726819653" lon="10.556447350184841"><ele>128.0</ele><time>2026-04-02T13:04:05.999Z</time></trkpt><trkpt lat="45.37969285135075" lon="10.556359589066524"><ele>127.99999999999999</ele><time>2026-04-02T13:04:06.999Z</time></trkpt><trkpt lat="45.379756323106974" lon="10.55630157696235"><ele>128.0</ele><time>2026-04-02T13:04:07.999Z</time></trkpt><trkpt lat="45.37981480812526" lon="10.556266779289514"><ele>128.0</ele><time>2026-04-02T13:04:10.999Z</time></trkpt><trkpt lat="45.37988929143346" lon="10.556196139183552"><ele>128.0</ele><time>2026-04-02T13:04:14.999Z</time></trkpt><trkpt lat="45.37997852049944" lon="10.55607512712887"><ele>127.99999999999999</ele><time>2026-04-02T13:04:16.999Z</time></trkpt><trkpt lat="45.38003628492512" lon="10.556002201381519"><ele>128.0</ele><time>2026-04-02T13:04:17.999Z</time></trkpt><trkpt lat="45.38009758363869" lon="10.555917851907617"><ele>128.0</ele><time>2026-04-02T13:04:18.999Z</time></trkpt><trkpt lat="45.38015607368182" lon="10.555819446270716"><ele>128.0</ele><time>2026-04-02T13:04:19.999Z</time></trkpt><trkpt lat="45.380204749710344" lon="10.555699092266474"><ele>128.0</ele><time>2026-04-02T13:04:20.999Z</time></trkpt><trkpt lat="45.38025027406172" lon="10.555568972470441"><ele>128.0</ele><time>2026-04-02T13:04:21.999Z</time></trkpt><trkpt lat="45.38030276971054" lon="10.555433465290328"><ele>128.0</ele><time>2026-04-02T13:04:22.999Z</time></trkpt><trkpt lat="45.380359796223" lon="10.555289913096422"><ele>127.5</ele><time>2026-04-02T13:04:23.999Z</time></trkpt><trkpt lat="45.38041751576289" lon="10.555134367291647"><ele>127.0</ele><time>2026-04-02T13:04:24.999Z</time></trkpt><trkpt lat="45.38047710560583" lon="10.55497212838804"><ele>126.5</ele><time>2026-04-02T13:04:25.999Z</time></trkpt><trkpt lat="45.38054218998457" lon="10.554810372606383"><ele>126.0</ele><time>2026-04-02T13:04:26.999Z</time></trkpt><trkpt lat="45.38062864461924" lon="10.554636309573816"><ele>125.5</ele><time>2026-04-02T13:04:27.999Z</time></trkpt><trkpt lat="45.380709527382145" lon="10.554473590691517"><ele>125.0</ele><time>2026-04-02T13:04:29Z</time></trkpt><trkpt lat="45.380768601561584" lon="10.55431259039112"><ele>124.5</ele><time>2026-04-02T13:04:30Z</time></trkpt><trkpt lat="45.38080410473577" lon="10.554161117470148"><ele>124.0</ele><time>2026-04-02T13:04:31Z</time></trkpt><trkpt lat="45.38080670245446" lon="10.554033076849892"><ele>124.0</ele><time>2026-04-02T13:04:32Z</time></trkpt><trkpt lat="45.38078498440609" lon="10.553902318591984"><ele>124.0</ele><time>2026-04-02T13:04:33Z</time></trkpt><trkpt lat="45.380735740790804" lon="10.553783661001026"><ele>124.0</ele><time>2026-04-02T13:04:34Z</time></trkpt><trkpt lat="45.38066153101775" lon="10.553683270081686"><ele>124.0</ele><time>2026-04-02T13:04:35Z</time></trkpt><trkpt lat="45.38058360688974" lon="10.553587307103344"><ele>124.0</ele><time>2026-04-02T13:04:36Z</time></trkpt><trkpt lat="45.38051429980975" lon="10.553493742118185"><ele>123.83333333333334</ele><time>2026-04-02T13:04:37Z</time></trkpt><trkpt lat="45.380453083013094" lon="10.553411435151833"><ele>123.66666666666667</ele><time>2026-04-02T13:04:38Z</time></trkpt><trkpt lat="45.38040031110011" lon="10.553342406239157"><ele>123.5</ele><time>2026-04-02T13:04:39Z</time></trkpt><trkpt lat="45.38035523179132" lon="10.553271758563893"><ele>123.33333333333334</ele><time>2026-04-02T13:04:40Z</time></trkpt><trkpt lat="45.38034431836037" lon="10.553172955650243"><ele>123.16666666666667</ele><time>2026-04-02T13:04:41Z</time></trkpt><trkpt lat="45.380304697312276" lon="10.553060049158468"><ele>123.0</ele><time>2026-04-02T13:04:42Z</time></trkpt><trkpt lat="45.38026786734041" lon="10.552866103514978"><ele>123.0</ele><time>2026-04-02T13:04:44Z</time></trkpt><trkpt lat="45.37978390199937" lon="10.552960987346554"><ele>121.75</ele><time>2026-04-02T13:04:45Z</time></trkpt><trkpt lat="45.3796619252623" lon="10.552888689386942"><ele>120.5</ele><time>2026-04-02T13:04:46Z</time></trkpt><trkpt lat="45.37952247003813" lon="10.55281933425273"><ele>119.25</ele><time>2026-04-02T13:04:47Z</time></trkpt><trkpt lat="45.37937576848567" lon="10.552727947536775"><ele>118.0</ele><time>2026-04-02T13:04:48Z</time></trkpt><trkpt lat="45.37924725750913" lon="10.552608566783741"><ele>118.0</ele><time>2026-04-02T13:04:49Z</time></trkpt><trkpt lat="45.37914037164685" lon="10.552455779558057"><ele>118.0</ele><time>2026-04-02T13:04:50Z</time></trkpt><trkpt lat="45.37905584321792" lon="10.552296449186693"><ele>118.0</ele><time>2026-04-02T13:04:51Z</time></trkpt><trkpt lat="45.378977962595485" lon="10.552155805540595"><ele>118.0</ele><time>2026-04-02T13:04:52Z</time></trkpt><trkpt lat="45.37887885074596" lon="10.552055363936006"><ele>120.0</ele><time>2026-04-02T13:04:53Z</time></trkpt><trkpt lat="45.3787639921868" lon="10.55196197139153"><ele>122.00000000000001</ele><time>2026-04-02T13:04:54Z</time></trkpt><trkpt lat="45.37866724810918" lon="10.55187204128188"><ele>124.00000000000001</ele><time>2026-04-02T13:04:55Z</time></trkpt><trkpt lat="45.37860373005945" lon="10.551788656839388"><ele>126.0</ele><time>2026-04-02T13:04:56Z</time></trkpt><trkpt lat="45.37859241783593" lon="10.551694225462988"><ele>128.0</ele><time>2026-04-02T13:04:57Z</time></trkpt><trkpt lat="45.3786134964722" lon="10.55157475917467"><ele>128.0</ele><time>2026-04-02T13:04:58Z</time></trkpt><trkpt lat="45.37863997262056" lon="10.551413728455985"><ele>128.0</ele><time>2026-04-02T13:04:59Z</time></trkpt><trkpt lat="45.378654655671575" lon="10.551231952876032"><ele>128.0</ele><time>2026-04-02T13:05:00Z</time></trkpt><trkpt lat="45.3786661814911" lon="10.551061343469868"><ele>128.0</ele><time>2026-04-02T13:05:01Z</time></trkpt><trkpt lat="45.37868259236471" lon="10.550910900584919"><ele>127.80000000000001</ele><time>2026-04-02T13:05:02Z</time></trkpt><trkpt lat="45.37869058614428" lon="10.550764600588334"><ele>127.60000000000001</ele><time>2026-04-02T13:05:03Z</time></trkpt><trkpt lat="45.37870396591904" lon="10.550620068682731"><ele>127.39999999999999</ele><time>2026-04-02T13:05:04Z</time></trkpt><trkpt lat="45.37870401605515" lon="10.5504713344493"><ele>127.19999999999999</ele><time>2026-04-02T13:05:05Z</time></trkpt><trkpt lat="45.37872702697481" lon="10.550309927570385"><ele>127.0</ele><time>2026-04-02T13:05:06Z</time></trkpt><trkpt lat="45.37877615932966" lon="10.55015813645582"><ele>126.39999999999999</ele><time>2026-04-02T13:05:07Z</time></trkpt><trkpt lat="45.37883809742945" lon="10.54997915163738"><ele>125.79999999999998</ele><time>2026-04-02T13:05:08Z</time></trkpt><trkpt lat="45.378887449482335" lon="10.549821670569099"><ele>125.2</ele><time>2026-04-02T13:05:09Z</time></trkpt><trkpt lat="45.378928870268034" lon="10.54973072822797"><ele>124.6</ele><time>2026-04-02T13:05:10Z</time></trkpt><trkpt lat="45.37895977415589" lon="10.549606211585516"><ele>124.0</ele><time>2026-04-02T13:05:12Z</time></trkpt><trkpt lat="45.37898577061563" lon="10.549493380278443"><ele>123.00000000000001</ele><time>2026-04-02T13:05:14Z</time></trkpt><trkpt lat="45.37900100323096" lon="10.549397959671072"><ele>122.0</ele><time>2026-04-02T13:05:16Z</time></trkpt><trkpt lat="45.379008006125346" lon="10.549259800174292"><ele>121.0</ele><time>2026-04-02T13:05:20Z</time></trkpt><trkpt lat="45.37900516585877" lon="10.549102470551704"><ele>120.0</ele><time>2026-04-02T13:05:22Z</time></trkpt><trkpt lat="45.37898965217642" lon="10.54901122863715"><ele>119.00000000000001</ele><time>2026-04-02T13:05:23Z</time></trkpt><trkpt lat="45.37895502154827" lon="10.548869752578772"><ele>118.0</ele><time>2026-04-02T13:05:25Z</time></trkpt><trkpt lat="45.37895019406167" lon="10.548771847881135"><ele>117.80000000000001</ele><time>2026-04-02T13:05:26Z</time></trkpt><trkpt lat="45.37896011125739" lon="10.548653817679595"><ele>117.60000000000001</ele><time>2026-04-02T13:05:27Z</time></trkpt><trkpt lat="45.37897425875733" lon="10.548512328733114"><ele>117.39999999999999</ele><time>2026-04-02T13:05:28Z</time></trkpt><trkpt lat="45.378991048649304" lon="10.548336179613733"><ele>117.19999999999999</ele><time>2026-04-02T13:05:29Z</time></trkpt><trkpt lat="45.379008684649584" lon="10.548153063943305"><ele>117.0</ele><time>2026-04-02T13:05:30Z</time></trkpt><trkpt lat="45.3790120625971" lon="10.548002853477943"><ele>117.0</ele><time>2026-04-02T13:05:31Z</time></trkpt><trkpt lat="45.37903120349626" lon="10.547883677341654"><ele>117.0</ele><time>2026-04-02T13:05:32Z</time></trkpt><trkpt lat="45.37905427110318" lon="10.547773871564655"><ele>117.0</ele><time>2026-04-02T13:05:33Z</time></trkpt><trkpt lat="45.37906900311118" lon="10.547638317241184"><ele>117.0</ele><time>2026-04-02T13:05:34Z</time></trkpt><trkpt lat="45.37908941244863" lon="10.547515755679207"><ele>117.0</ele><time>2026-04-02T13:05:35Z</time></trkpt><trkpt lat="45.379128994165406" lon="10.547432115228892"><ele>117.0</ele><time>2026-04-02T13:05:36Z</time></trkpt><trkpt lat="45.379190443758844" lon="10.547364208237022"><ele>118.0</ele><time>2026-04-02T13:05:37Z</time></trkpt><trkpt lat="45.379268247875764" lon="10.547308779474578"><ele>118.99999999999999</ele><time>2026-04-02T13:05:38Z</time></trkpt><trkpt lat="45.37932950403436" lon="10.54728729300049"><ele>119.99999999999999</ele><time>2026-04-02T13:05:39Z</time></trkpt><trkpt lat="45.37941886633462" lon="10.54719995939998"><ele>121.0</ele><time>2026-04-02T13:05:40Z</time></trkpt><trkpt lat="45.37949964747304" lon="10.547103849717667"><ele>122.0</ele><time>2026-04-02T13:05:41Z</time></trkpt><trkpt lat="45.37958627658535" lon="10.546992550352847"><ele>122.19999999999999</ele><time>2026-04-02T13:05:42Z</time></trkpt><trkpt lat="45.379674294568254" lon="10.546865735997262"><ele>122.39999999999999</ele><time>2026-04-02T13:05:43Z</time></trkpt><trkpt lat="45.37975417337404" lon="10.546756492874847"><ele>122.60000000000001</ele><time>2026-04-02T13:05:44Z</time></trkpt><trkpt lat="45.379821179116085" lon="10.546665009390814"><ele>122.80000000000001</ele><time>2026-04-02T13:05:45Z</time></trkpt><trkpt lat="45.379874728256894" lon="10.546608710357745"><ele>123.0</ele><time>2026-04-02T13:05:46Z</time></trkpt><trkpt lat="45.37994576595142" lon="10.546720284126286"><ele>123.0</ele><time>2026-04-02T13:05:48Z</time></trkpt><trkpt lat="45.38001182121172" lon="10.546775319361751"><ele>123.0</ele><time>2026-04-02T13:05:49Z</time></trkpt><trkpt lat="45.38008110585141" lon="10.546833735149054"><ele>123.0</ele><time>2026-04-02T13:05:50Z</time></trkpt><trkpt lat="45.380156596814096" lon="10.54689772786488"><ele>123.0</ele><time>2026-04-02T13:05:51Z</time></trkpt><trkpt lat="45.3802346574575" lon="10.546928812355656"><ele>123.0</ele><time>2026-04-02T13:05:52Z</time></trkpt><trkpt lat="45.38030488714822" lon="10.546936664925653"><ele>123.0</ele><time>2026-04-02T13:05:53Z</time></trkpt><trkpt lat="45.38036876955762" lon="10.54685301981533"><ele>123.0</ele><time>2026-04-02T13:05:54Z</time></trkpt><trkpt lat="45.38040620369071" lon="10.54677391454398"><ele>123.00000000000001</ele><time>2026-04-02T13:05:55Z</time></trkpt><trkpt lat="45.38041990487568" lon="10.54665407169441"><ele>123.00000000000001</ele><time>2026-04-02T13:05:56Z</time></trkpt><trkpt lat="45.380436771001854" lon="10.54652109578045"><ele>123.0</ele><time>2026-04-02T13:05:57Z</time></trkpt><trkpt lat="45.38045328142069" lon="10.546362098506476"><ele>123.0</ele><time>2026-04-02T13:05:58Z</time></trkpt><trkpt lat="45.38047742903698" lon="10.546193881712789"><ele>123.75</ele><time>2026-04-02T13:05:59Z</time></trkpt><trkpt lat="45.38050399124038" lon="10.546012401379441"><ele>124.5</ele><time>2026-04-02T13:06:00Z</time></trkpt><trkpt lat="45.38053135269414" lon="10.545826602231653"><ele>125.25</ele><time>2026-04-02T13:06:01Z</time></trkpt><trkpt lat="45.38056597402659" lon="10.545663659894842"><ele>126.0</ele><time>2026-04-02T13:06:02Z</time></trkpt><trkpt lat="45.38063072703963" lon="10.545520094659588"><ele>123.25</ele><time>2026-04-02T13:06:03Z</time></trkpt><trkpt lat="45.38070470528736" lon="10.545375169365183"><ele>120.5</ele><time>2026-04-02T13:06:04Z</time></trkpt><trkpt lat="45.38079157114291" lon="10.545224458180526"><ele>117.75</ele><time>2026-04-02T13:06:05Z</time></trkpt><trkpt lat="45.380891788145576" lon="10.54507053235599"><ele>115.0</ele><time>2026-04-02T13:06:06Z</time></trkpt><trkpt lat="45.38097626699974" lon="10.544909939316325"><ele>115.00000000000001</ele><time>2026-04-02T13:06:07Z</time></trkpt><trkpt lat="45.38105609730826" lon="10.544797233335775"><ele>115.0</ele><time>2026-04-02T13:06:08Z</time></trkpt><trkpt lat="45.38114097052651" lon="10.544761742183772"><ele>115.0</ele><time>2026-04-02T13:06:09Z</time></trkpt><trkpt lat="45.381199767246464" lon="10.544804813664927"><ele>115.0</ele><time>2026-04-02T13:06:10Z</time></trkpt><trkpt lat="45.38126306216731" lon="10.544888793913541"><ele>115.00000000000001</ele><time>2026-04-02T13:06:11Z</time></trkpt><trkpt lat="45.38133199619198" lon="10.544918900493963"><ele>115.0</ele><time>2026-04-02T13:06:12Z</time></trkpt><trkpt lat="45.38140896834425" lon="10.544918053312598"><ele>115.16666666666667</ele><time>2026-04-02T13:06:13Z</time></trkpt><trkpt lat="45.38149079380648" lon="10.544839548919354"><ele>115.33333333333334</ele><time>2026-04-02T13:06:14Z</time></trkpt><trkpt lat="45.38156521933493" lon="10.544792820148432"><ele>115.5</ele><time>2026-04-02T13:06:15Z</time></trkpt><trkpt lat="45.3816413550367" lon="10.54478222945741"><ele>115.66666666666666</ele><time>2026-04-02T13:06:16Z</time></trkpt><trkpt lat="45.38171729429181" lon="10.544728593823866"><ele>115.83333333333333</ele><time>2026-04-02T13:06:17Z</time></trkpt><trkpt lat="45.38178040509257" lon="10.544684453328815"><ele>116.0</ele><time>2026-04-02T13:06:17.999Z</time></trkpt><trkpt lat="45.381890999866954" lon="10.54466959158422"><ele>116.0</ele><time>2026-04-02T13:06:19.999Z</time></trkpt><trkpt lat="45.38194534799253" lon="10.544809463633866"><ele>116.0</ele><time>2026-04-02T13:06:21.999Z</time></trkpt><trkpt lat="45.382005246339304" lon="10.544894691159042"><ele>116.0</ele><time>2026-04-02T13:06:22.999Z</time></trkpt><trkpt lat="45.38207521501564" lon="10.544996470572043"><ele>116.0</ele><time>2026-04-02T13:06:23.999Z</time></trkpt><trkpt lat="45.38214914288745" lon="10.54510694798385"><ele>116.0</ele><time>2026-04-02T13:06:24.999Z</time></trkpt><trkpt lat="45.382221835565645" lon="10.54521438213395"><ele>116.0</ele><time>2026-04-02T13:06:25.999Z</time></trkpt><trkpt lat="45.38230303209519" lon="10.545331925777612"><ele>116.0</ele><time>2026-04-02T13:06:26.999Z</time></trkpt><trkpt lat="45.38238749103691" lon="10.5454541919701"><ele>116.0</ele><time>2026-04-02T13:06:27.999Z</time></trkpt><trkpt lat="45.38248628493477" lon="10.54559630239316"><ele>116.0</ele><time>2026-04-02T13:06:28.999Z</time></trkpt><trkpt lat="45.38259532941063" lon="10.545733937626226"><ele>116.0</ele><time>2026-04-02T13:06:29.999Z</time></trkpt><trkpt lat="45.38271594248098" lon="10.54581885928142"><ele>116.0</ele><time>2026-04-02T13:06:30.999Z</time></trkpt><trkpt lat="45.382811557530054" lon="10.545945896204962"><ele>116.0</ele><time>2026-04-02T13:06:31.999Z</time></trkpt><trkpt lat="45.38292348598072" lon="10.545988736079892"><ele>116.0</ele><time>2026-04-02T13:06:32.999Z</time></trkpt><trkpt lat="45.38292008128483" lon="10.546368798386283"><ele>116.33333333333333</ele><time>2026-04-02T13:06:33.999Z</time></trkpt><trkpt lat="45.382978448103096" lon="10.54657176690659"><ele>116.66666666666666</ele><time>2026-04-02T13:06:35Z</time></trkpt><trkpt lat="45.38304050035099" lon="10.546785734339474"><ele>117.0</ele><time>2026-04-02T13:06:36Z</time></trkpt><trkpt lat="45.383119196645" lon="10.547030367652418"><ele>116.66666666666666</ele><time>2026-04-02T13:06:37Z</time></trkpt><trkpt lat="45.3831876062614" lon="10.547249008954081"><ele>116.33333333333333</ele><time>2026-04-02T13:06:38Z</time></trkpt><trkpt lat="45.383254419663295" lon="10.547451296105098"><ele>116.0</ele><time>2026-04-02T13:06:39Z</time></trkpt><trkpt lat="45.38331800509012" lon="10.547623646798476"><ele>116.0</ele><time>2026-04-02T13:06:40Z</time></trkpt><trkpt lat="45.38339354525817" lon="10.547787409430216"><ele>116.0</ele><time>2026-04-02T13:06:41Z</time></trkpt><trkpt lat="45.383495011417914" lon="10.547960798127326"><ele>116.0</ele><time>2026-04-02T13:06:42Z</time></trkpt><trkpt lat="45.3836393318191" lon="10.548116165614637"><ele>116.5</ele><time>2026-04-02T13:06:43Z</time></trkpt><trkpt lat="45.38376040728575" lon="10.548271884996122"><ele>117.0</ele><time>2026-04-02T13:06:44Z</time></trkpt><trkpt lat="45.38388001646451" lon="10.54841738443145"><ele>117.5</ele><time>2026-04-02T13:06:45Z</time></trkpt><trkpt lat="45.38397598426697" lon="10.548536672649819"><ele>118.0</ele><time>2026-04-02T13:06:46Z</time></trkpt><trkpt lat="45.38403520292573" lon="10.548598668163951"><ele>118.2</ele><time>2026-04-02T13:06:47Z</time></trkpt><trkpt lat="45.384113323524524" lon="10.548624683454083"><ele>118.4</ele><time>2026-04-02T13:06:48Z</time></trkpt><trkpt lat="45.38418337876493" lon="10.548590710696523"><ele>118.60000000000001</ele><time>2026-04-02T13:06:49Z</time></trkpt><trkpt lat="45.38430550801714" lon="10.548545776942705"><ele>118.80000000000001</ele><time>2026-04-02T13:06:50Z</time></trkpt><trkpt lat="45.38440816398005" lon="10.548500818785675"><ele>119.0</ele><time>2026-04-02T13:06:51Z</time></trkpt><trkpt lat="45.38451943170885" lon="10.548534056721786"><ele>119.0</ele><time>2026-04-02T13:06:52Z</time></trkpt><trkpt lat="45.38462660722574" lon="10.548542141255474"><ele>119.0</ele><time>2026-04-02T13:06:53Z</time></trkpt><trkpt lat="45.38473450794918" lon="10.548616160467235"><ele>119.0</ele><time>2026-04-02T13:06:54Z</time></trkpt><trkpt lat="45.38482285390379" lon="10.548567128771397"><ele>119.0</ele><time>2026-04-02T13:06:55Z</time></trkpt><trkpt lat="45.38489459572082" lon="10.548495896468017"><ele>119.0</ele><time>2026-04-02T13:06:56Z</time></trkpt><trkpt lat="45.38497275855122" lon="10.548356833025924"><ele>119.75</ele><time>2026-04-02T13:06:57Z</time></trkpt><trkpt lat="45.38505910779637" lon="10.548189556935492"><ele>120.5</ele><time>2026-04-02T13:06:58Z</time></trkpt><trkpt lat="45.3851541924895" lon="10.548047150579027"><ele>121.25</ele><time>2026-04-02T13:06:59Z</time></trkpt><trkpt lat="45.38525391785328" lon="10.547897255830549"><ele>122.0</ele><time>2026-04-02T13:07:00Z</time></trkpt><trkpt lat="45.38537593528109" lon="10.547777283056167"><ele>121.66666666666666</ele><time>2026-04-02T13:07:01Z</time></trkpt><trkpt lat="45.385515402013446" lon="10.547662681333684"><ele>121.33333333333334</ele><time>2026-04-02T13:07:02Z</time></trkpt><trkpt lat="45.38566090293921" lon="10.547547479724106"><ele>121.0</ele><time>2026-04-02T13:07:03Z</time></trkpt><trkpt lat="45.38578470350782" lon="10.547423372236588"><ele>121.0</ele><time>2026-04-02T13:07:04Z</time></trkpt><trkpt lat="45.38588671848718" lon="10.547290102964325"><ele>121.0</ele><time>2026-04-02T13:07:05Z</time></trkpt><trkpt lat="45.38596372981248" lon="10.547139478004016"><ele>121.0</ele><time>2026-04-02T13:07:06Z</time></trkpt><trkpt lat="45.386034037467965" lon="10.546949743453869"><ele>121.0</ele><time>2026-04-02T13:07:07Z</time></trkpt><trkpt lat="45.38611472702412" lon="10.546811973880036"><ele>120.8</ele><time>2026-04-02T13:07:08Z</time></trkpt><trkpt lat="45.38619049642075" lon="10.546752612550758"><ele>120.6</ele><time>2026-04-02T13:07:09Z</time></trkpt><trkpt lat="45.38625796197539" lon="10.546743041404135"><ele>120.4</ele><time>2026-04-02T13:07:10Z</time></trkpt><trkpt lat="45.386372687621815" lon="10.5468565505443"><ele>120.2</ele><time>2026-04-02T13:07:12Z</time></trkpt><trkpt lat="45.386426608124424" lon="10.547008625499796"><ele>120.0</ele><time>2026-04-02T13:07:13Z</time></trkpt><trkpt lat="45.38648520303097" lon="10.547138225124124"><ele>121.25</ele><time>2026-04-02T13:07:14Z</time></trkpt><trkpt lat="45.38657375624704" lon="10.547305954979313"><ele>122.5</ele><time>2026-04-02T13:07:15Z</time></trkpt><trkpt lat="45.3866526814723" lon="10.547435217083184"><ele>123.75</ele><time>2026-04-02T13:07:16Z</time></trkpt><trkpt lat="45.38672085871972" lon="10.547554863062956"><ele>125.0</ele><time>2026-04-02T13:07:17Z</time></trkpt><trkpt lat="45.38679211637244" lon="10.547504530433793"><ele>125.0</ele><time>2026-04-02T13:07:19Z</time></trkpt><trkpt lat="45.386899239433156" lon="10.54743258588668"><ele>125.0</ele><time>2026-04-02T13:07:21Z</time></trkpt><trkpt lat="45.38696819930801" lon="10.547348421396073"><ele>125.0</ele><time>2026-04-02T13:07:22Z</time></trkpt><trkpt lat="45.387039814844265" lon="10.547259903150902"><ele>125.0</ele><time>2026-04-02T13:07:23Z</time></trkpt><trkpt lat="45.38710704648919" lon="10.54718054112267"><ele>125.0</ele><time>2026-04-02T13:07:24Z</time></trkpt><trkpt lat="45.38719527868095" lon="10.547086074568178"><ele>124.75</ele><time>2026-04-02T13:07:25Z</time></trkpt><trkpt lat="45.387290265173284" lon="10.5469778709037"><ele>124.5</ele><time>2026-04-02T13:07:26Z</time></trkpt><trkpt lat="45.387389089637075" lon="10.546875992645504"><ele>124.25</ele><time>2026-04-02T13:07:27Z</time></trkpt><trkpt lat="45.387481606750605" lon="10.54678485735477"><ele>124.0</ele><time>2026-04-02T13:07:28Z</time></trkpt><trkpt lat="45.387570772283524" lon="10.546701613139543"><ele>124.0</ele><time>2026-04-02T13:07:29Z</time></trkpt><trkpt lat="45.38765951603219" lon="10.546611808005332"><ele>124.0</ele><time>2026-04-02T13:07:30Z</time></trkpt><trkpt lat="45.38774986134273" lon="10.546521213060432"><ele>124.0</ele><time>2026-04-02T13:07:31Z</time></trkpt><trkpt lat="45.38783208829065" lon="10.546434207465508"><ele>124.0</ele><time>2026-04-02T13:07:32Z</time></trkpt><trkpt lat="45.3879114040443" lon="10.546339729625696"><ele>124.0</ele><time>2026-04-02T13:07:33Z</time></trkpt><trkpt lat="45.38800106774378" lon="10.546251505798407"><ele>123.75</ele><time>2026-04-02T13:07:34Z</time></trkpt><trkpt lat="45.388087767710964" lon="10.546160898869438"><ele>123.5</ele><time>2026-04-02T13:07:35Z</time></trkpt><trkpt lat="45.3881909247593" lon="10.546061545052734"><ele>123.25</ele><time>2026-04-02T13:07:36Z</time></trkpt><trkpt lat="45.3883094780448" lon="10.545935033289592"><ele>123.0</ele><time>2026-04-02T13:07:37Z</time></trkpt><trkpt lat="45.3884115035831" lon="10.54581522412047"><ele>123.0</ele><time>2026-04-02T13:07:38Z</time></trkpt><trkpt lat="45.38850902282567" lon="10.545681423339916"><ele>123.0</ele><time>2026-04-02T13:07:39Z</time></trkpt><trkpt lat="45.388597070251485" lon="10.545534835456499"><ele>123.0</ele><time>2026-04-02T13:07:40Z</time></trkpt><trkpt lat="45.38868621775479" lon="10.545382862341297"><ele>123.0</ele><time>2026-04-02T13:07:41Z</time></trkpt><trkpt lat="45.38877730095599" lon="10.545237974204493"><ele>124.4</ele><time>2026-04-02T13:07:42Z</time></trkpt><trkpt lat="45.38886878804947" lon="10.545099113422925"><ele>125.80000000000001</ele><time>2026-04-02T13:07:43Z</time></trkpt><trkpt lat="45.38894438282808" lon="10.544983827992432"><ele>127.2</ele><time>2026-04-02T13:07:44Z</time></trkpt><trkpt lat="45.38901117442411" lon="10.54489496655202"><ele>128.6</ele><time>2026-04-02T13:07:45Z</time></trkpt><trkpt lat="45.38906848765053" lon="10.544811231539605"><ele>130.0</ele><time>2026-04-02T13:07:46Z</time></trkpt><trkpt lat="45.389122117407" lon="10.544706740790218"><ele>130.0</ele><time>2026-04-02T13:07:47Z</time></trkpt><trkpt lat="45.389168590908845" lon="10.54457968853451"><ele>130.0</ele><time>2026-04-02T13:07:48Z</time></trkpt><trkpt lat="45.38922551783196" lon="10.544454947504027"><ele>130.0</ele><time>2026-04-02T13:07:49Z</time></trkpt><trkpt lat="45.38928089775985" lon="10.544341788614524"><ele>130.0</ele><time>2026-04-02T13:07:50Z</time></trkpt><trkpt lat="45.389353477665864" lon="10.544235621574021"><ele>130.0</ele><time>2026-04-02T13:07:51Z</time></trkpt><trkpt lat="45.3894400692209" lon="10.544138028376"><ele>130.0</ele><time>2026-04-02T13:07:52Z</time></trkpt><trkpt lat="45.389542450770655" lon="10.54406959399966"><ele>130.0</ele><time>2026-04-02T13:07:53Z</time></trkpt><trkpt lat="45.389661328350854" lon="10.544006568415162"><ele>130.0</ele><time>2026-04-02T13:07:54Z</time></trkpt><trkpt lat="45.38975920896992" lon="10.54394938554338"><ele>130.0</ele><time>2026-04-02T13:07:55Z</time></trkpt><trkpt lat="45.38982932781036" lon="10.543873884505611"><ele>130.0</ele><time>2026-04-02T13:07:56Z</time></trkpt><trkpt lat="45.38988024844442" lon="10.543764549196963"><ele>130.0</ele><time>2026-04-02T13:07:57Z</time></trkpt><trkpt lat="45.38993271106409" lon="10.543644711675615"><ele>130.0</ele><time>2026-04-02T13:07:58Z</time></trkpt><trkpt lat="45.38999859529588" lon="10.54357033863028"><ele>130.0</ele><time>2026-04-02T13:07:59Z</time></trkpt><trkpt lat="45.39006867158292" lon="10.543542198534047"><ele>130.0</ele><time>2026-04-02T13:08:00Z</time></trkpt><trkpt lat="45.39015905962542" lon="10.543553541457866"><ele>130.0</ele><time>2026-04-02T13:08:01Z</time></trkpt><trkpt lat="45.39028042897924" lon="10.543600057080521"><ele>130.0</ele><time>2026-04-02T13:08:02Z</time></trkpt><trkpt lat="45.390438492862124" lon="10.543662041863035"><ele>130.0</ele><time>2026-04-02T13:08:03Z</time></trkpt><trkpt lat="45.39063822267693" lon="10.543728302582531"><ele>130.0</ele><time>2026-04-02T13:08:04Z</time></trkpt><trkpt lat="45.39083170237777" lon="10.54379940768695"><ele>129.5</ele><time>2026-04-02T13:08:05Z</time></trkpt><trkpt lat="45.39098292718003" lon="10.543848436507972"><ele>129.0</ele><time>2026-04-02T13:08:06Z</time></trkpt><trkpt lat="45.3911212971557" lon="10.543872619713374"><ele>128.5</ele><time>2026-04-02T13:08:07Z</time></trkpt><trkpt lat="45.39123391814037" lon="10.54387284808877"><ele>128.0</ele><time>2026-04-02T13:08:08Z</time></trkpt><trkpt lat="45.39133548728423" lon="10.543875121555658"><ele>128.0</ele><time>2026-04-02T13:08:09Z</time></trkpt><trkpt lat="45.39145119801999" lon="10.543831443681706"><ele>128.0</ele><time>2026-04-02T13:08:10Z</time></trkpt><trkpt lat="45.39158141060241" lon="10.54374801781449"><ele>128.0</ele><time>2026-04-02T13:08:11Z</time></trkpt><trkpt lat="45.39172469109644" lon="10.54362955247579"><ele>128.0</ele><time>2026-04-02T13:08:12Z</time></trkpt><trkpt lat="45.39188710207369" lon="10.543471998964339"><ele>128.0</ele><time>2026-04-02T13:08:13Z</time></trkpt><trkpt lat="45.39207179292252" lon="10.543308878215386"><ele>128.0</ele><time>2026-04-02T13:08:14Z</time></trkpt><trkpt lat="45.392265545583406" lon="10.543145874966063"><ele>128.0</ele><time>2026-04-02T13:08:15Z</time></trkpt><trkpt lat="45.39243562839248" lon="10.542992961618166"><ele>128.66666666666666</ele><time>2026-04-02T13:08:16Z</time></trkpt><trkpt lat="45.3925700657901" lon="10.542850040183733"><ele>129.33333333333334</ele><time>2026-04-02T13:08:17Z</time></trkpt><trkpt lat="45.39267307240441" lon="10.542699916967281"><ele>130.0</ele><time>2026-04-02T13:08:18Z</time></trkpt><trkpt lat="45.39275152412228" lon="10.542540466455534"><ele>130.0</ele><time>2026-04-02T13:08:19Z</time></trkpt><trkpt lat="45.39281050262079" lon="10.542357786630589"><ele>130.0</ele><time>2026-04-02T13:08:20Z</time></trkpt><trkpt lat="45.39286080493559" lon="10.542136790293172"><ele>130.0</ele><time>2026-04-02T13:08:21Z</time></trkpt><trkpt lat="45.39291568272341" lon="10.541890564122186"><ele>130.33333333333334</ele><time>2026-04-02T13:08:22Z</time></trkpt><trkpt lat="45.392993223697154" lon="10.541633622884818"><ele>130.66666666666666</ele><time>2026-04-02T13:08:23Z</time></trkpt><trkpt lat="45.39309032069915" lon="10.541387200444435"><ele>131.0</ele><time>2026-04-02T13:08:24Z</time></trkpt><trkpt lat="45.393211525494614" lon="10.541156925676585"><ele>132.33333333333331</ele><time>2026-04-02T13:08:25Z</time></trkpt><trkpt lat="45.39335003318971" lon="10.540917387036332"><ele>133.66666666666666</ele><time>2026-04-02T13:08:26Z</time></trkpt><trkpt lat="45.39346182799083" lon="10.540707905604707"><ele>135.0</ele><time>2026-04-02T13:08:27Z</time></trkpt><trkpt lat="45.39353826920236" lon="10.540566008180662"><ele>135.0</ele><time>2026-04-02T13:08:28Z</time></trkpt><trkpt lat="45.39359704421342" lon="10.540460947512639"><ele>135.0</ele><time>2026-04-02T13:08:29Z</time></trkpt><trkpt lat="45.393635275070906" lon="10.540374189622774"><ele>135.0</ele><time>2026-04-02T13:08:30Z</time></trkpt><trkpt lat="45.39362671206946" lon="10.540231822813208"><ele>135.0</ele><time>2026-04-02T13:08:32Z</time></trkpt><trkpt lat="45.39351437197589" lon="10.540112837187875"><ele>135.0</ele><time>2026-04-02T13:08:34Z</time></trkpt><trkpt lat="45.393408863946505" lon="10.540043098787928"><ele>134.33333333333334</ele><time>2026-04-02T13:08:35Z</time></trkpt><trkpt lat="45.39326733403036" lon="10.539951498686417"><ele>133.66666666666669</ele><time>2026-04-02T13:08:36Z</time></trkpt><trkpt lat="45.39311111756597" lon="10.539815481823137"><ele>133.0</ele><time>2026-04-02T13:08:37Z</time></trkpt><trkpt lat="45.39294460690346" lon="10.539669583098437"><ele>132.75</ele><time>2026-04-02T13:08:38Z</time></trkpt><trkpt lat="45.39279194725745" lon="10.539554567204261"><ele>132.5</ele><time>2026-04-02T13:08:38.999Z</time></trkpt><trkpt lat="45.392677677775374" lon="10.539470651210651"><ele>132.25</ele><time>2026-04-02T13:08:39.999Z</time></trkpt><trkpt lat="45.39259575454593" lon="10.539403771942707"><ele>132.0</ele><time>2026-04-02T13:08:41Z</time></trkpt><trkpt lat="45.392537535662015" lon="10.539346507701572"><ele>132.0</ele><time>2026-04-02T13:08:42Z</time></trkpt><trkpt lat="45.392465787795615" lon="10.53922751042598"><ele>132.0</ele><time>2026-04-02T13:08:44Z</time></trkpt><trkpt lat="45.3924918803367" lon="10.539081114630413"><ele>132.0</ele><time>2026-04-02T13:08:46Z</time></trkpt><trkpt lat="45.392541420231964" lon="10.539013589912404"><ele>132.0</ele><time>2026-04-02T13:08:47Z</time></trkpt><trkpt lat="45.392604526839605" lon="10.538930144670172"><ele>132.0</ele><time>2026-04-02T13:08:48Z</time></trkpt><trkpt lat="45.39266608397791" lon="10.538851990113645"><ele>132.0</ele><time>2026-04-02T13:08:49Z</time></trkpt><trkpt lat="45.39271507005077" lon="10.538795177294446"><ele>132.0</ele><time>2026-04-02T13:08:50Z</time></trkpt><trkpt lat="45.3927778662857" lon="10.53870181456634"><ele>132.0</ele><time>2026-04-02T13:08:52Z</time></trkpt><trkpt lat="45.392807596302156" lon="10.538615920633099"><ele>132.0</ele><time>2026-04-02T13:08:55Z</time></trkpt><trkpt lat="45.39286271354057" lon="10.538572315401666"><ele>132.0</ele><time>2026-04-02T13:10:12Z</time></trkpt><trkpt lat="45.39296205778291" lon="10.538465905543086"><ele>132.0</ele><time>2026-04-02T13:12:33.999Z</time></trkpt><trkpt lat="45.39303001066302" lon="10.53838250330512"><ele>132.5</ele><time>2026-04-02T13:12:34.999Z</time></trkpt><trkpt lat="45.3931162985305" lon="10.538265364772629"><ele>133.0</ele><time>2026-04-02T13:12:35.999Z</time></trkpt><trkpt lat="45.39320286816033" lon="10.538139402464587"><ele>133.5</ele><time>2026-04-02T13:12:36.999Z</time></trkpt><trkpt lat="45.39329128833559" lon="10.538020125565236"><ele>134.0</ele><time>2026-04-02T13:12:37.999Z</time></trkpt><trkpt lat="45.3933901262619" lon="10.537898686126171"><ele>133.66666666666666</ele><time>2026-04-02T13:12:38.999Z</time></trkpt><trkpt lat="45.393503759688834" lon="10.537765843135642"><ele>133.33333333333334</ele><time>2026-04-02T13:12:39.999Z</time></trkpt><trkpt lat="45.393631081248145" lon="10.537620935268311"><ele>133.0</ele><time>2026-04-02T13:12:40.999Z</time></trkpt><trkpt lat="45.39376641708631" lon="10.537468230368686"><ele>133.25</ele><time>2026-04-02T13:12:41.999Z</time></trkpt><trkpt lat="45.39388173275375" lon="10.537343047085677"><ele>133.5</ele><time>2026-04-02T13:12:42.999Z</time></trkpt><trkpt lat="45.393978984769966" lon="10.537234219796398"><ele>133.75</ele><time>2026-04-02T13:12:43.999Z</time></trkpt><trkpt lat="45.394067803788936" lon="10.537140947316438"><ele>134.0</ele><time>2026-04-02T13:12:44.999Z</time></trkpt><trkpt lat="45.39415962413136" lon="10.537051284203793"><ele>133.5</ele><time>2026-04-02T13:12:45.999Z</time></trkpt><trkpt lat="45.39425851351849" lon="10.536979963798371"><ele>133.0</ele><time>2026-04-02T13:12:46.999Z</time></trkpt><trkpt lat="45.394359361599875" lon="10.53690994549029"><ele>132.5</ele><time>2026-04-02T13:12:47.999Z</time></trkpt><trkpt lat="45.394463088824814" lon="10.536843553529945"><ele>132.0</ele><time>2026-04-02T13:12:48.999Z</time></trkpt><trkpt lat="45.39457036081531" lon="10.536778404003343"><ele>132.25</ele><time>2026-04-02T13:12:49.999Z</time></trkpt><trkpt lat="45.394684256264874" lon="10.536712054063072"><ele>132.5</ele><time>2026-04-02T13:12:50.999Z</time></trkpt><trkpt lat="45.394801370051255" lon="10.536641937623914"><ele>132.75</ele><time>2026-04-02T13:12:52Z</time></trkpt><trkpt lat="45.394928671427174" lon="10.536563493982872"><ele>133.0</ele><time>2026-04-02T13:12:53Z</time></trkpt><trkpt lat="45.395050603224824" lon="10.536493585911215"><ele>133.0</ele><time>2026-04-02T13:12:54Z</time></trkpt><trkpt lat="45.39515692266873" lon="10.53642651029129"><ele>133.0</ele><time>2026-04-02T13:12:55Z</time></trkpt><trkpt lat="45.395252179897206" lon="10.536369607607147"><ele>133.0</ele><time>2026-04-02T13:12:56Z</time></trkpt><trkpt lat="45.39533223780321" lon="10.536332923558495"><ele>133.0</ele><time>2026-04-02T13:12:57Z</time></trkpt><trkpt lat="45.3954025391576" lon="10.53633509601391"><ele>133.0</ele><time>2026-04-02T13:12:58Z</time></trkpt><trkpt lat="45.395469030704" lon="10.53638000000916"><ele>133.0</ele><time>2026-04-02T13:12:59Z</time></trkpt><trkpt lat="45.39553518599708" lon="10.536446730266166"><ele>132.4</ele><time>2026-04-02T13:13:00Z</time></trkpt><trkpt lat="45.395613284472994" lon="10.536520685751436"><ele>131.8</ele><time>2026-04-02T13:13:01Z</time></trkpt><trkpt lat="45.39569436127191" lon="10.53659996510064"><ele>131.2</ele><time>2026-04-02T13:13:02Z</time></trkpt><trkpt lat="45.39578614981213" lon="10.536684624154086"><ele>130.6</ele><time>2026-04-02T13:13:03Z</time></trkpt><trkpt lat="45.39589914788931" lon="10.536779629403052"><ele>130.0</ele><time>2026-04-02T13:13:04Z</time></trkpt><trkpt lat="45.39602987327463" lon="10.536887045916817"><ele>130.0</ele><time>2026-04-02T13:13:05Z</time></trkpt><trkpt lat="45.39616514455888" lon="10.536994114345244"><ele>130.0</ele><time>2026-04-02T13:13:06Z</time></trkpt><trkpt lat="45.39628341541464" lon="10.537079944836151"><ele>130.0</ele><time>2026-04-02T13:13:07Z</time></trkpt><trkpt lat="45.39639578446162" lon="10.537149191456216"><ele>130.0</ele><time>2026-04-02T13:13:08Z</time></trkpt><trkpt lat="45.39651009688341" lon="10.537194863256566"><ele>130.0</ele><time>2026-04-02T13:13:09Z</time></trkpt><trkpt lat="45.396636157430514" lon="10.537180640340189"><ele>130.0</ele><time>2026-04-02T13:13:10Z</time></trkpt><trkpt lat="45.396757035069975" lon="10.537114962089717"><ele>130.0</ele><time>2026-04-02T13:13:11Z</time></trkpt><trkpt lat="45.39688838683451" lon="10.537068981085385"><ele>130.0</ele><time>2026-04-02T13:13:12Z</time></trkpt><trkpt lat="45.396993363399936" lon="10.537015991285095"><ele>130.0</ele><time>2026-04-02T13:13:13Z</time></trkpt><trkpt lat="45.39708247877314" lon="10.536955592105063"><ele>130.0</ele><time>2026-04-02T13:13:14Z</time></trkpt><trkpt lat="45.39716011681871" lon="10.536930642978449"><ele>130.0</ele><time>2026-04-02T13:13:15Z</time></trkpt><trkpt lat="45.3972501729356" lon="10.536886630403238"><ele>130.0</ele><time>2026-04-02T13:13:17Z</time></trkpt><trkpt lat="45.39732016731849" lon="10.536860970574267"><ele>130.0</ele><time>2026-04-02T13:13:20Z</time></trkpt><trkpt lat="45.39738796213318" lon="10.53679727818551"><ele>130.0</ele><time>2026-04-02T13:13:22.999Z</time></trkpt><trkpt lat="45.39744784051934" lon="10.536687421721155"><ele>131.66666666666669</ele><time>2026-04-02T13:13:24.999Z</time></trkpt><trkpt lat="45.397493177194605" lon="10.536623282736011"><ele>133.33333333333334</ele><time>2026-04-02T13:13:25.999Z</time></trkpt><trkpt lat="45.397544100133025" lon="10.536555009913725"><ele>135.0</ele><time>2026-04-02T13:13:26.999Z</time></trkpt><trkpt lat="45.39759826608664" lon="10.536481262648815"><ele>136.66666666666666</ele><time>2026-04-02T13:13:27.999Z</time></trkpt><trkpt lat="45.39765472720211" lon="10.536403734003851"><ele>138.33333333333331</ele><time>2026-04-02T13:13:28.999Z</time></trkpt><trkpt lat="45.397715039638065" lon="10.536324119783703"><ele>140.0</ele><time>2026-04-02T13:13:29.999Z</time></trkpt><trkpt lat="45.39777625819788" lon="10.536244559155143"><ele>139.66666666666666</ele><time>2026-04-02T13:13:30.999Z</time></trkpt><trkpt lat="45.39783533219591" lon="10.536159789144344"><ele>139.33333333333331</ele><time>2026-04-02T13:13:31.999Z</time></trkpt><trkpt lat="45.397902187775436" lon="10.536107050273579"><ele>139.0</ele><time>2026-04-02T13:13:32.999Z</time></trkpt><trkpt lat="45.39797011174384" lon="10.535980165531342"><ele>138.66666666666666</ele><time>2026-04-02T13:13:34.999Z</time></trkpt><trkpt lat="45.39803366124231" lon="10.535939567469551"><ele>138.33333333333334</ele><time>2026-04-02T13:13:36.999Z</time></trkpt><trkpt lat="45.398051712885135" lon="10.536049373409483"><ele>138.0</ele><time>2026-04-02T13:13:38.999Z</time></trkpt><trkpt lat="45.39814491783177" lon="10.536109478784791"><ele>138.0</ele><time>2026-04-02T13:13:41.999Z</time></trkpt><trkpt lat="45.39821953909406" lon="10.536161524401344"><ele>138.0</ele><time>2026-04-02T13:13:43.999Z</time></trkpt><trkpt lat="45.39830819945512" lon="10.5362258527329"><ele>138.0</ele><time>2026-04-02T13:13:45.999Z</time></trkpt><trkpt lat="45.39840681586503" lon="10.536249433770076"><ele>138.0</ele><time>2026-04-02T13:13:47.999Z</time></trkpt><trkpt lat="45.398443285957754" lon="10.536165372229997"><ele>138.0</ele><time>2026-04-02T13:23:07.999Z</time></trkpt><trkpt lat="45.39845419221246" lon="10.536073699293397"><ele>138.0</ele><time>2026-04-02T13:23:14.999Z</time></trkpt><trkpt lat="45.39845682181709" lon="10.536183082135636"><ele>138.0</ele><time>2026-04-02T13:23:33Z</time></trkpt><trkpt lat="45.3983962984796" lon="10.536222396917692"><ele>138.0</ele><time>2026-04-02T13:24:05Z</time></trkpt><trkpt lat="45.39833064550769" lon="10.536235729100047"><ele>138.0</ele><time>2026-04-02T13:24:11Z</time></trkpt><trkpt lat="45.39826593801573" lon="10.536253152162125"><ele>138.0</ele><time>2026-04-02T13:24:16Z</time></trkpt><trkpt lat="45.39819932658578" lon="10.536297171879452"><ele>138.0</ele><time>2026-04-02T13:24:21Z</time></trkpt><trkpt lat="45.39814007077156" lon="10.536230636905529"><ele>138.0</ele><time>2026-04-02T13:25:34Z</time></trkpt><trkpt lat="45.398085601039575" lon="10.536144132271941"><ele>138.0</ele><time>2026-04-02T13:25:39Z</time></trkpt><trkpt lat="45.39803048677289" lon="10.536193005045966"><ele>138.0</ele><time>2026-04-02T13:25:45Z</time></trkpt><trkpt lat="45.39799442847989" lon="10.536115150463006"><ele>136.0</ele><time>2026-04-02T13:25:56Z</time></trkpt><trkpt lat="45.39804016886532" lon="10.536192036676512"><ele>138.0</ele><time>2026-04-02T13:34:15.999Z</time></trkpt><trkpt lat="45.398078973958484" lon="10.53626377411525"><ele>138.0</ele><time>2026-04-02T13:34:22.999Z</time></trkpt><trkpt lat="45.39803495832911" lon="10.5361934240285"><ele>138.0</ele><time>2026-04-02T13:39:30Z</time></trkpt><trkpt lat="45.39799095597829" lon="10.536099399887505"><ele>136.0</ele><time>2026-04-02T13:39:36Z</time></trkpt></trkseg></trk></gpx>